<?xml version='1.0' encoding='UTF-8'?><gpx version="1.1" creator="JPX - https://github.com/jenetics/jpx" xmlns="http://www.topografix.com/GPX/1/1"><trk><trkseg><trkpt lat="45.429800243223795" lon="11.123435004404723"><ele>131.0</ele><time>2026-04-18T07:11:01Z</time></trkpt><trkpt lat="45.42989020366129" lon="11.123478982504446"><ele>131.0</ele><time>2026-04-18T07:11:02Z</time></trkpt><trkpt lat="45.430005900131526" lon="11.123508717849608"><ele>131.0</ele><time>2026-04-18T07:11:03Z</time></trkpt><trkpt lat="45.4300974386546" lon="11.123543273003243"><ele>131.0</ele><time>2026-04-18T07:11:04Z</time></trkpt><trkpt lat="45.43016452994167" lon="11.123603332669758"><ele>131.0</ele><time>2026-04-18T07:11:05Z</time></trkpt><trkpt lat="45.43027594280165" lon="11.123581559749155"><ele>131.0</ele><time>2026-04-18T07:11:07Z</time></trkpt><trkpt lat="45.430330617446096" lon="11.123534285914895"><ele>131.0</ele><time>2026-04-18T07:11:08Z</time></trkpt><trkpt lat="45.43034935969744" lon="11.123425242796085"><ele>131.0</ele><time>2026-04-18T07:11:09Z</time></trkpt><trkpt lat="45.43036286462759" lon="11.123332576884767"><ele>131.0</ele><time>2026-04-18T07:11:10Z</time></trkpt><trkpt lat="45.43037359198935" lon="11.123217372154368"><ele>131.0</ele><time>2026-04-18T07:11:11Z</time></trkpt><trkpt lat="45.43040393479896" lon="11.123106106782384"><ele>131.0</ele><time>2026-04-18T07:11:12Z</time></trkpt><trkpt lat="45.430438862426485" lon="11.122948465742587"><ele>131.0</ele><time>2026-04-18T07:11:13Z</time></trkpt><trkpt lat="45.43047067492681" lon="11.122840739073956"><ele>131.0</ele><time>2026-04-18T07:11:15Z</time></trkpt><trkpt lat="45.43052175678572" lon="11.122763660869051"><ele>131.0</ele><time>2026-04-18T07:11:17Z</time></trkpt><trkpt lat="45.43065107220558" lon="11.122835415435048"><ele>131.0</ele><time>2026-04-18T07:11:19Z</time></trkpt><trkpt lat="45.43074897544311" lon="11.122865420737986"><ele>131.0</ele><time>2026-04-18T07:11:21Z</time></trkpt><trkpt lat="45.43083175833693" lon="11.122887679935102"><ele>131.2</ele><time>2026-04-18T07:11:23Z</time></trkpt><trkpt lat="45.43084683288676" lon="11.122672196326109"><ele>131.39999999999998</ele><time>2026-04-18T07:11:24Z</time></trkpt><trkpt lat="45.43089285536556" lon="11.122552453347401"><ele>131.6</ele><time>2026-04-18T07:11:25Z</time></trkpt><trkpt lat="45.430909095135284" lon="11.1224115502607"><ele>131.79999999999998</ele><time>2026-04-18T07:11:26Z</time></trkpt><trkpt lat="45.430923925955476" lon="11.122276271100567"><ele>132.0</ele><time>2026-04-18T07:11:27Z</time></trkpt><trkpt lat="45.43093947937826" lon="11.122178083456134"><ele>131.25</ele><time>2026-04-18T07:11:28Z</time></trkpt><trkpt lat="45.43110877209665" lon="11.122140169786634"><ele>130.5</ele><time>2026-04-18T07:11:31Z</time></trkpt><trkpt lat="45.43122388563615" lon="11.12212915992639"><ele>129.75</ele><time>2026-04-18T07:11:32Z</time></trkpt><trkpt lat="45.4313350835839" lon="11.122160884128938"><ele>129.0</ele><time>2026-04-18T07:11:33Z</time></trkpt><trkpt lat="45.43144598653795" lon="11.122196504954069"><ele>129.0</ele><time>2026-04-18T07:11:34Z</time></trkpt><trkpt lat="45.431565055585565" lon="11.122261623411688"><ele>129.0</ele><time>2026-04-18T07:11:35Z</time></trkpt><trkpt lat="45.43170112770306" lon="11.122339343544377"><ele>129.0</ele><time>2026-04-18T07:11:36Z</time></trkpt><trkpt lat="45.43182264792592" lon="11.122383447388204"><ele>129.0</ele><time>2026-04-18T07:11:37Z</time></trkpt><trkpt lat="45.43195494092259" lon="11.122472369658439"><ele>130.0</ele><time>2026-04-18T07:11:38Z</time></trkpt><trkpt lat="45.43207816439437" lon="11.122538172551382"><ele>131.0</ele><time>2026-04-18T07:11:39Z</time></trkpt><trkpt lat="45.432197929389254" lon="11.122608193727308"><ele>132.0</ele><time>2026-04-18T07:11:40Z</time></trkpt><trkpt lat="45.43230878421054" lon="11.122687425807817"><ele>133.0</ele><time>2026-04-18T07:11:41Z</time></trkpt><trkpt lat="45.43241254527896" lon="11.122777307902636"><ele>134.5</ele><time>2026-04-18T07:11:42Z</time></trkpt><trkpt lat="45.43251663789804" lon="11.122858925859227"><ele>136.0</ele><time>2026-04-18T07:11:42.999Z</time></trkpt><trkpt lat="45.43262678748599" lon="11.122946076265317"><ele>137.5</ele><time>2026-04-18T07:11:43.999Z</time></trkpt><trkpt lat="45.43274112627611" lon="11.123019667546842"><ele>139.0</ele><time>2026-04-18T07:11:44.999Z</time></trkpt><trkpt lat="45.43285544882581" lon="11.123086783554449"><ele>139.0</ele><time>2026-04-18T07:11:45.999Z</time></trkpt><trkpt lat="45.432952410582544" lon="11.12314514486282"><ele>139.0</ele><time>2026-04-18T07:11:46.999Z</time></trkpt><trkpt lat="45.4330209951876" lon="11.123184604300487"><ele>139.0</ele><time>2026-04-18T07:11:47.999Z</time></trkpt><trkpt lat="45.433094144081416" lon="11.123179293897772"><ele>139.0</ele><time>2026-04-18T07:11:49.999Z</time></trkpt><trkpt lat="45.43316033214763" lon="11.123012545511855"><ele>139.0</ele><time>2026-04-18T07:11:51.999Z</time></trkpt><trkpt lat="45.43317717085304" lon="11.122884791820054"><ele>138.66666666666669</ele><time>2026-04-18T07:11:52.999Z</time></trkpt><trkpt lat="45.43321569664086" lon="11.122766757738756"><ele>138.33333333333334</ele><time>2026-04-18T07:11:54.999Z</time></trkpt><trkpt lat="45.43329498112673" lon="11.12274779527334"><ele>138.0</ele><time>2026-04-18T07:11:57.999Z</time></trkpt><trkpt lat="45.43334674455288" lon="11.12281348593091"><ele>137.66666666666666</ele><time>2026-04-18T07:11:58.999Z</time></trkpt><trkpt lat="45.43341974822885" lon="11.122890533068045"><ele>137.33333333333331</ele><time>2026-04-18T07:11:59.999Z</time></trkpt><trkpt lat="45.43352169209053" lon="11.122963898663855"><ele>137.0</ele><time>2026-04-18T07:12:00.999Z</time></trkpt><trkpt lat="45.43363277849943" lon="11.123010900334556"><ele>137.0</ele><time>2026-04-18T07:12:01.999Z</time></trkpt><trkpt lat="45.43374740002826" lon="11.12305112122752"><ele>137.0</ele><time>2026-04-18T07:12:02.999Z</time></trkpt><trkpt lat="45.43386326427632" lon="11.123088093141229"><ele>137.0</ele><time>2026-04-18T07:12:03.999Z</time></trkpt><trkpt lat="45.43398429388131" lon="11.123129472049817"><ele>137.0</ele><time>2026-04-18T07:12:04.999Z</time></trkpt><trkpt lat="45.434102457392804" lon="11.123179212992373"><ele>139.0</ele><time>2026-04-18T07:12:05.999Z</time></trkpt><trkpt lat="45.434217263264806" lon="11.123234207777683"><ele>141.0</ele><time>2026-04-18T07:12:06.999Z</time></trkpt><trkpt lat="45.434345256704326" lon="11.123306511288781"><ele>143.0</ele><time>2026-04-18T07:12:07.999Z</time></trkpt><trkpt lat="45.43446393781178" lon="11.123391334774826"><ele>145.0</ele><time>2026-04-18T07:12:08.999Z</time></trkpt><trkpt lat="45.43457251826845" lon="11.123493618726208"><ele>143.25</ele><time>2026-04-18T07:12:09.999Z</time></trkpt><trkpt lat="45.43467281037336" lon="11.123612431701204"><ele>141.5</ele><time>2026-04-18T07:12:10.999Z</time></trkpt><trkpt lat="45.434759822632174" lon="11.123712337461743"><ele>139.75</ele><time>2026-04-18T07:12:11.999Z</time></trkpt><trkpt lat="45.43484072152717" lon="11.123816952240633"><ele>138.0</ele><time>2026-04-18T07:12:12.999Z</time></trkpt><trkpt lat="45.43493865249922" lon="11.123914174486051"><ele>138.0</ele><time>2026-04-18T07:12:13.999Z</time></trkpt><trkpt lat="45.43505186727004" lon="11.123996056685675"><ele>138.0</ele><time>2026-04-18T07:12:14.999Z</time></trkpt><trkpt lat="45.43515574328314" lon="11.124075931074326"><ele>138.0</ele><time>2026-04-18T07:12:15.999Z</time></trkpt><trkpt lat="45.43525666289565" lon="11.124151761349676"><ele>138.0</ele><time>2026-04-18T07:12:16.999Z</time></trkpt><trkpt lat="45.43534952735857" lon="11.124231256543151"><ele>138.6</ele><time>2026-04-18T07:12:17.999Z</time></trkpt><trkpt lat="45.43545162770003" lon="11.124280010045938"><ele>139.20000000000002</ele><time>2026-04-18T07:12:18.999Z</time></trkpt><trkpt lat="45.43555180212906" lon="11.124312751851374"><ele>139.8</ele><time>2026-04-18T07:12:19.999Z</time></trkpt><trkpt lat="45.43565515210024" lon="11.124319408194802"><ele>140.4</ele><time>2026-04-18T07:12:20.999Z</time></trkpt><trkpt lat="45.435760566517104" lon="11.124320249488113"><ele>141.0</ele><time>2026-04-18T07:12:21.999Z</time></trkpt><trkpt lat="45.435865016930414" lon="11.124328505694073"><ele>141.0</ele><time>2026-04-18T07:12:22.999Z</time></trkpt><trkpt lat="45.43597043696527" lon="11.124337206654973"><ele>141.0</ele><time>2026-04-18T07:12:23.999Z</time></trkpt><trkpt lat="45.436093914067875" lon="11.124347330417157"><ele>141.0</ele><time>2026-04-18T07:12:24.999Z</time></trkpt><trkpt lat="45.436212261282144" lon="11.124407110142664"><ele>141.0</ele><time>2026-04-18T07:12:25.999Z</time></trkpt><trkpt lat="45.43632568130331" lon="11.124444384180036"><ele>139.25</ele><time>2026-04-18T07:12:26.999Z</time></trkpt><trkpt lat="45.43643268904933" lon="11.124505955996897"><ele>137.5</ele><time>2026-04-18T07:12:27.999Z</time></trkpt><trkpt lat="45.4365454565439" lon="11.124562000891826"><ele>135.75</ele><time>2026-04-18T07:12:28.999Z</time></trkpt><trkpt lat="45.43665264724467" lon="11.1246230912072"><ele>134.0</ele><time>2026-04-18T07:12:29.999Z</time></trkpt><trkpt lat="45.43679254734879" lon="11.12469625825659"><ele>134.0</ele><time>2026-04-18T07:12:30.999Z</time></trkpt><trkpt lat="45.436949043720304" lon="11.124779607784907"><ele>134.0</ele><time>2026-04-18T07:12:31.999Z</time></trkpt><trkpt lat="45.4371168795622" lon="11.124831649825886"><ele>134.0</ele><time>2026-04-18T07:12:32.999Z</time></trkpt><trkpt lat="45.43726960229325" lon="11.124883219297445"><ele>132.0</ele><time>2026-04-18T07:12:33.999Z</time></trkpt><trkpt lat="45.43741821002855" lon="11.124878646575109"><ele>130.0</ele><time>2026-04-18T07:12:34.999Z</time></trkpt><trkpt lat="45.437572124739205" lon="11.124843106749658"><ele>128.0</ele><time>2026-04-18T07:12:35.999Z</time></trkpt><trkpt lat="45.43773297097894" lon="11.12479467266276"><ele>128.0</ele><time>2026-04-18T07:12:36.999Z</time></trkpt><trkpt lat="45.43789640395934" lon="11.124719760219678"><ele>128.0</ele><time>2026-04-18T07:12:37.999Z</time></trkpt><trkpt lat="45.438041844981534" lon="11.124648710283196"><ele>128.0</ele><time>2026-04-18T07:12:38.999Z</time></trkpt><trkpt lat="45.43816807072871" lon="11.124593030897747"><ele>128.75</ele><time>2026-04-18T07:12:39.999Z</time></trkpt><trkpt lat="45.43827702810979" lon="11.124554284365091"><ele>129.5</ele><time>2026-04-18T07:12:40.999Z</time></trkpt><trkpt lat="45.438382920155114" lon="11.124540741544163"><ele>130.25</ele><time>2026-04-18T07:12:41.999Z</time></trkpt><trkpt lat="45.43850187170831" lon="11.124554459196405"><ele>131.0</ele><time>2026-04-18T07:12:42.999Z</time></trkpt><trkpt lat="45.43862343246736" lon="11.124556415310282"><ele>131.0</ele><time>2026-04-18T07:12:43.999Z</time></trkpt><trkpt lat="45.43874071482678" lon="11.124588560870285"><ele>131.0</ele><time>2026-04-18T07:12:44.999Z</time></trkpt><trkpt lat="45.438846790013955" lon="11.124639354714528"><ele>131.0</ele><time>2026-04-18T07:12:45.999Z</time></trkpt><trkpt lat="45.43892459467738" lon="11.124698298239826"><ele>131.0</ele><time>2026-04-18T07:12:46.999Z</time></trkpt><trkpt lat="45.43900882461962" lon="11.124748809179824"><ele>131.0</ele><time>2026-04-18T07:12:47.999Z</time></trkpt><trkpt lat="45.439082875377004" lon="11.124762926195018"><ele>131.5</ele><time>2026-04-18T07:12:48.999Z</time></trkpt><trkpt lat="45.439198434630434" lon="11.124819532066223"><ele>132.0</ele><time>2026-04-18T07:12:49.999Z</time></trkpt><trkpt lat="45.43928446706581" lon="11.124660494986532"><ele>132.5</ele><time>2026-04-18T07:12:50.999Z</time></trkpt><trkpt lat="45.43936664636532" lon="11.124590651890216"><ele>133.0</ele><time>2026-04-18T07:12:51.999Z</time></trkpt><trkpt lat="45.439466690867754" lon="11.1245370569079"><ele>133.0</ele><time>2026-04-18T07:12:52.999Z</time></trkpt><trkpt lat="45.43958465664415" lon="11.12450450860223"><ele>133.0</ele><time>2026-04-18T07:12:53.999Z</time></trkpt><trkpt lat="45.43970704898744" lon="11.124485432141546"><ele>133.0</ele><time>2026-04-18T07:12:54.999Z</time></trkpt><trkpt lat="45.439806887732786" lon="11.124475361022814"><ele>133.0</ele><time>2026-04-18T07:12:55.999Z</time></trkpt><trkpt lat="45.43988650142676" lon="11.124466460384564"><ele>133.0</ele><time>2026-04-18T07:12:56.999Z</time></trkpt><trkpt lat="45.43994921848984" lon="11.124431773950997"><ele>133.4</ele><time>2026-04-18T07:12:57.999Z</time></trkpt><trkpt lat="45.44000990575906" lon="11.124379257296145"><ele>133.8</ele><time>2026-04-18T07:12:58.999Z</time></trkpt><trkpt lat="45.44005490932246" lon="11.124285849446332"><ele>134.2</ele><time>2026-04-18T07:12:59.999Z</time></trkpt><trkpt lat="45.44011329316562" lon="11.124191382766165"><ele>134.6</ele><time>2026-04-18T07:13:00.999Z</time></trkpt><trkpt lat="45.4401939579115" lon="11.1241065319264"><ele>135.0</ele><time>2026-04-18T07:13:01.999Z</time></trkpt><trkpt lat="45.44030305948078" lon="11.124018165405461"><ele>136.4</ele><time>2026-04-18T07:13:02.999Z</time></trkpt><trkpt lat="45.44041241285027" lon="11.123954500263002"><ele>137.8</ele><time>2026-04-18T07:13:03.999Z</time></trkpt><trkpt lat="45.44053486188546" lon="11.123920378671679"><ele>139.2</ele><time>2026-04-18T07:13:04.999Z</time></trkpt><trkpt lat="45.44064828911016" lon="11.123850052139552"><ele>140.6</ele><time>2026-04-18T07:13:05.999Z</time></trkpt><trkpt lat="45.440724038584385" lon="11.123815984948632"><ele>142.0</ele><time>2026-04-18T07:13:06.999Z</time></trkpt><trkpt lat="45.44076073494715" lon="11.12366629291885"><ele>142.0</ele><time>2026-04-18T07:13:08.999Z</time></trkpt><trkpt lat="45.440722336126065" lon="11.123555420821395"><ele>142.0</ele><time>2026-04-18T07:13:09.999Z</time></trkpt><trkpt lat="45.440636088086954" lon="11.123453222155534"><ele>142.0</ele><time>2026-04-18T07:13:10.999Z</time></trkpt><trkpt lat="45.44054745812394" lon="11.123334782365935"><ele>142.0</ele><time>2026-04-18T07:13:11.999Z</time></trkpt><trkpt lat="45.44044455121735" lon="11.12321408388497"><ele>138.75</ele><time>2026-04-18T07:13:12.999Z</time></trkpt><trkpt lat="45.440354502467244" lon="11.123093319378153"><ele>135.5</ele><time>2026-04-18T07:13:13.999Z</time></trkpt><trkpt lat="45.440288645668204" lon="11.122964800123732"><ele>132.25</ele><time>2026-04-18T07:13:14.999Z</time></trkpt><trkpt lat="45.440253875591495" lon="11.12280968940444"><ele>129.0</ele><time>2026-04-18T07:13:15.999Z</time></trkpt><trkpt lat="45.44022127396254" lon="11.12263434349736"><ele>129.0</ele><time>2026-04-18T07:13:16.999Z</time></trkpt><trkpt lat="45.44019412198651" lon="11.122446552238209"><ele>129.0</ele><time>2026-04-18T07:13:17.999Z</time></trkpt><trkpt lat="45.44017125685441" lon="11.122260968357583"><ele>129.0</ele><time>2026-04-18T07:13:18.999Z</time></trkpt><trkpt lat="45.44015014627228" lon="11.122089626562909"><ele>129.0</ele><time>2026-04-18T07:13:19.999Z</time></trkpt><trkpt lat="45.44013216076734" lon="11.121921389764864"><ele>130.0</ele><time>2026-04-18T07:13:20.999Z</time></trkpt><trkpt lat="45.44010780220983" lon="11.12172834935504"><ele>131.0</ele><time>2026-04-18T07:13:21.999Z</time></trkpt><trkpt lat="45.44008221135274" lon="11.121532945945264"><ele>132.0</ele><time>2026-04-18T07:13:22.999Z</time></trkpt><trkpt lat="45.44004607039791" lon="11.121346857355453"><ele>133.0</ele><time>2026-04-18T07:13:23.999Z</time></trkpt><trkpt lat="45.440030578427006" lon="11.121174463723305"><ele>133.0</ele><time>2026-04-18T07:13:24.999Z</time></trkpt><trkpt lat="45.440037155216935" lon="11.121053916032649"><ele>133.0</ele><time>2026-04-18T07:13:25.999Z</time></trkpt><trkpt lat="45.44004179228911" lon="11.120959185573101"><ele>133.0</ele><time>2026-04-18T07:13:26.999Z</time></trkpt><trkpt lat="45.44009878758059" lon="11.120830189446297"><ele>133.0</ele><time>2026-04-18T07:13:28.999Z</time></trkpt><trkpt lat="45.4401419101446" lon="11.120734771532758"><ele>133.0</ele><time>2026-04-18T07:13:29.999Z</time></trkpt><trkpt lat="45.44023138630688" lon="11.120642087659126"><ele>133.0</ele><time>2026-04-18T07:13:30.999Z</time></trkpt><trkpt lat="45.44035228663268" lon="11.120548854023443"><ele>134.0</ele><time>2026-04-18T07:13:31.999Z</time></trkpt><trkpt lat="45.44044813530755" lon="11.120458193869563"><ele>135.0</ele><time>2026-04-18T07:13:32.999Z</time></trkpt><trkpt lat="45.44052837667537" lon="11.120344408342595"><ele>136.0</ele><time>2026-04-18T07:13:33.999Z</time></trkpt><trkpt lat="45.44059764713312" lon="11.120235811051066"><ele>137.0</ele><time>2026-04-18T07:13:34.999Z</time></trkpt><trkpt lat="45.440648705518" lon="11.120125966706174"><ele>138.0</ele><time>2026-04-18T07:13:35.999Z</time></trkpt><trkpt lat="45.440670850215014" lon="11.119999308834977"><ele>136.4</ele><time>2026-04-18T07:13:36.999Z</time></trkpt><trkpt lat="45.44070271583058" lon="11.119843523087697"><ele>134.8</ele><time>2026-04-18T07:13:37.999Z</time></trkpt><trkpt lat="45.44072887193537" lon="11.119709843066008"><ele>133.2</ele><time>2026-04-18T07:13:38.999Z</time></trkpt><trkpt lat="45.44076190144348" lon="11.119541035791197"><ele>131.6</ele><time>2026-04-18T07:13:39.999Z</time></trkpt><trkpt lat="45.440789046355256" lon="11.11940230366461"><ele>130.0</ele><time>2026-04-18T07:13:40.999Z</time></trkpt><trkpt lat="45.44081064160953" lon="11.119291934723718"><ele>130.0</ele><time>2026-04-18T07:13:41.999Z</time></trkpt><trkpt lat="45.44094977609373" lon="11.11919051977274"><ele>130.0</ele><time>2026-04-18T07:13:42.999Z</time></trkpt><trkpt lat="45.44095944413015" lon="11.118999861915857"><ele>130.0</ele><time>2026-04-18T07:13:43.999Z</time></trkpt><trkpt lat="45.44093716124017" lon="11.118827327756973"><ele>130.0</ele><time>2026-04-18T07:13:44.999Z</time></trkpt><trkpt lat="45.440920159869435" lon="11.118673887916184"><ele>128.83333333333334</ele><time>2026-04-18T07:13:45.999Z</time></trkpt><trkpt lat="45.44090677086897" lon="11.118546316578133"><ele>127.66666666666667</ele><time>2026-04-18T07:13:46.999Z</time></trkpt><trkpt lat="45.44091847924057" lon="11.11845063897209"><ele>126.5</ele><time>2026-04-18T07:13:47.999Z</time></trkpt><trkpt lat="45.44094934069571" lon="11.118357918579214"><ele>125.33333333333334</ele><time>2026-04-18T07:13:48.999Z</time></trkpt><trkpt lat="45.4410267474193" lon="11.118258857808069"><ele>124.16666666666667</ele><time>2026-04-18T07:13:49.999Z</time></trkpt><trkpt lat="45.44111889787876" lon="11.118187224628798"><ele>123.0</ele><time>2026-04-18T07:13:50.999Z</time></trkpt><trkpt lat="45.44122769853762" lon="11.118125328364522"><ele>122.60000000000001</ele><time>2026-04-18T07:13:51.999Z</time></trkpt><trkpt lat="45.44131943023581" lon="11.118049892338119"><ele>122.20000000000002</ele><time>2026-04-18T07:13:52.999Z</time></trkpt><trkpt lat="45.441393603391646" lon="11.11798146409944"><ele>121.8</ele><time>2026-04-18T07:13:53.999Z</time></trkpt><trkpt lat="45.441476138902715" lon="11.117921544012567"><ele>121.4</ele><time>2026-04-18T07:13:54.999Z</time></trkpt><trkpt lat="45.441560927265925" lon="11.117843426041837"><ele>121.0</ele><time>2026-04-18T07:13:55.999Z</time></trkpt><trkpt lat="45.44166227488196" lon="11.11775368986907"><ele>121.0</ele><time>2026-04-18T07:13:56.999Z</time></trkpt><trkpt lat="45.44175152837281" lon="11.11766648292455"><ele>121.0</ele><time>2026-04-18T07:13:57.999Z</time></trkpt><trkpt lat="45.44184395707861" lon="11.117586424852124"><ele>121.0</ele><time>2026-04-18T07:13:58.999Z</time></trkpt><trkpt lat="45.441923018290815" lon="11.11752405163629"><ele>121.0</ele><time>2026-04-18T07:13:59.999Z</time></trkpt><trkpt lat="45.4419867309857" lon="11.117436165849325"><ele>121.0</ele><time>2026-04-18T07:14:00.999Z</time></trkpt><trkpt lat="45.44206047062263" lon="11.117365913735107"><ele>121.33333333333334</ele><time>2026-04-18T07:14:01.999Z</time></trkpt><trkpt lat="45.44213684859412" lon="11.11733711551468"><ele>121.66666666666667</ele><time>2026-04-18T07:14:02.999Z</time></trkpt><trkpt lat="45.44221176446134" lon="11.117345141925062"><ele>122.0</ele><time>2026-04-18T07:14:03.999Z</time></trkpt><trkpt lat="45.44229031258879" lon="11.117250934081037"><ele>122.33333333333334</ele><time>2026-04-18T07:14:05.999Z</time></trkpt><trkpt lat="45.44230574030022" lon="11.11711289853626"><ele>122.66666666666667</ele><time>2026-04-18T07:14:06.999Z</time></trkpt><trkpt lat="45.44233852420163" lon="11.116992559983176"><ele>123.0</ele><time>2026-04-18T07:14:07.999Z</time></trkpt><trkpt lat="45.44238130261854" lon="11.116880513516865"><ele>123.0</ele><time>2026-04-18T07:14:08.999Z</time></trkpt><trkpt lat="45.44244428752466" lon="11.116758071032852"><ele>123.00000000000001</ele><time>2026-04-18T07:14:09.999Z</time></trkpt><trkpt lat="45.442510095929514" lon="11.116637682011728"><ele>123.00000000000001</ele><time>2026-04-18T07:14:10.999Z</time></trkpt><trkpt lat="45.442544788786314" lon="11.116539798616092"><ele>123.0</ele><time>2026-04-18T07:14:11.999Z</time></trkpt><trkpt lat="45.44259115031171" lon="11.116422667340402"><ele>123.0</ele><time>2026-04-18T07:14:13.999Z</time></trkpt><trkpt lat="45.44271248504335" lon="11.116402058986091"><ele>121.80000000000001</ele><time>2026-04-18T07:14:15.999Z</time></trkpt><trkpt lat="45.44279219274245" lon="11.116370796407516"><ele>120.60000000000001</ele><time>2026-04-18T07:14:17.999Z</time></trkpt><trkpt lat="45.442850005811636" lon="11.116231856735965"><ele>119.39999999999999</ele><time>2026-04-18T07:14:19.999Z</time></trkpt><trkpt lat="45.44290905013006" lon="11.116140994826177"><ele>118.19999999999999</ele><time>2026-04-18T07:14:20.999Z</time></trkpt><trkpt lat="45.44298670219963" lon="11.11604043797653"><ele>117.0</ele><time>2026-04-18T07:14:21.999Z</time></trkpt><trkpt lat="45.443060822091475" lon="11.115948196410214"><ele>119.0</ele><time>2026-04-18T07:14:22.999Z</time></trkpt><trkpt lat="45.44312326013716" lon="11.115851282317147"><ele>121.0</ele><time>2026-04-18T07:14:23.999Z</time></trkpt><trkpt lat="45.44316637601861" lon="11.115744266524835"><ele>123.0</ele><time>2026-04-18T07:14:24.999Z</time></trkpt><trkpt lat="45.44318583979766" lon="11.11564057491282"><ele>125.0</ele><time>2026-04-18T07:14:25.999Z</time></trkpt><trkpt lat="45.443184873309086" lon="11.115529750063843"><ele>127.0</ele><time>2026-04-18T07:14:26.999Z</time></trkpt><trkpt lat="45.44317000793435" lon="11.115403325007335"><ele>129.0</ele><time>2026-04-18T07:14:27.999Z</time></trkpt><trkpt lat="45.44317682759289" lon="11.11530529690795"><ele>129.0</ele><time>2026-04-18T07:14:28.999Z</time></trkpt><trkpt lat="45.443218638112256" lon="11.115222242488414"><ele>129.0</ele><time>2026-04-18T07:14:29.999Z</time></trkpt><trkpt lat="45.44328948681308" lon="11.115138823167516"><ele>129.0</ele><time>2026-04-18T07:14:30.999Z</time></trkpt><trkpt lat="45.44337534649101" lon="11.115031390748094"><ele>129.0</ele><time>2026-04-18T07:14:31.999Z</time></trkpt><trkpt lat="45.44346251188888" lon="11.114917172192776"><ele>129.0</ele><time>2026-04-18T07:14:32.999Z</time></trkpt><trkpt lat="45.44355646337063" lon="11.114805029759106"><ele>128.2</ele><time>2026-04-18T07:14:33.999Z</time></trkpt><trkpt lat="45.44364999361484" lon="11.114683979993979"><ele>127.4</ele><time>2026-04-18T07:14:34.999Z</time></trkpt><trkpt lat="45.443739640118984" lon="11.1145731260389"><ele>126.6</ele><time>2026-04-18T07:14:35.999Z</time></trkpt><trkpt lat="45.44381149187344" lon="11.114485621869838"><ele>125.8</ele><time>2026-04-18T07:14:36.999Z</time></trkpt><trkpt lat="45.44388363814243" lon="11.114388684453928"><ele>125.0</ele><time>2026-04-18T07:14:37.999Z</time></trkpt><trkpt lat="45.44396335335765" lon="11.114304397447311"><ele>124.8</ele><time>2026-04-18T07:14:38.999Z</time></trkpt><trkpt lat="45.444039586994585" lon="11.114221268704064"><ele>124.6</ele><time>2026-04-18T07:14:39.999Z</time></trkpt><trkpt lat="45.44411590767474" lon="11.114123858288004"><ele>124.4</ele><time>2026-04-18T07:14:40.999Z</time></trkpt><trkpt lat="45.44418781580241" lon="11.114047415411166"><ele>124.2</ele><time>2026-04-18T07:14:41.999Z</time></trkpt><trkpt lat="45.44427283547294" lon="11.113958615506421"><ele>124.0</ele><time>2026-04-18T07:14:42.999Z</time></trkpt><trkpt lat="45.44436192240086" lon="11.113840383185874"><ele>124.0</ele><time>2026-04-18T07:14:43.999Z</time></trkpt><trkpt lat="45.44445916403348" lon="11.113713158426576"><ele>124.0</ele><time>2026-04-18T07:14:44.999Z</time></trkpt><trkpt lat="45.44455415220881" lon="11.113584940107865"><ele>124.0</ele><time>2026-04-18T07:14:45.999Z</time></trkpt><trkpt lat="45.44464119550739" lon="11.113474877730813"><ele>124.0</ele><time>2026-04-18T07:14:46.999Z</time></trkpt><trkpt lat="45.44472453560244" lon="11.113369914019621"><ele>124.0</ele><time>2026-04-18T07:14:47.999Z</time></trkpt><trkpt lat="45.44481510137156" lon="11.113259222254978"><ele>124.0</ele><time>2026-04-18T07:14:48.999Z</time></trkpt><trkpt lat="45.44490312006066" lon="11.113144568154267"><ele>124.0</ele><time>2026-04-18T07:14:49.999Z</time></trkpt><trkpt lat="45.44499387653434" lon="11.113031408190679"><ele>124.0</ele><time>2026-04-18T07:14:50.999Z</time></trkpt><trkpt lat="45.44508004220831" lon="11.112923890484277"><ele>124.0</ele><time>2026-04-18T07:14:51.999Z</time></trkpt><trkpt lat="45.44516874141638" lon="11.112823010371029"><ele>124.0</ele><time>2026-04-18T07:14:52.999Z</time></trkpt><trkpt lat="45.445267071989164" lon="11.112777040575857"><ele>124.0</ele><time>2026-04-18T07:14:53.999Z</time></trkpt><trkpt lat="45.44535547517454" lon="11.11273068921391"><ele>124.0</ele><time>2026-04-18T07:14:54.999Z</time></trkpt><trkpt lat="45.445469241811566" lon="11.11267820215063"><ele>124.0</ele><time>2026-04-18T07:14:55.999Z</time></trkpt><trkpt lat="45.44559322467873" lon="11.112624911891526"><ele>126.5</ele><time>2026-04-18T07:14:56.999Z</time></trkpt><trkpt lat="45.445722863909126" lon="11.112581767625567"><ele>129.0</ele><time>2026-04-18T07:14:57.999Z</time></trkpt><trkpt lat="45.445860030945795" lon="11.112559451982987"><ele>131.5</ele><time>2026-04-18T07:14:58.999Z</time></trkpt><trkpt lat="45.44597957045151" lon="11.112539399635105"><ele>134.0</ele><time>2026-04-18T07:14:59.999Z</time></trkpt><trkpt lat="45.44610180999312" lon="11.112501490518099"><ele>134.0</ele><time>2026-04-18T07:15:00.999Z</time></trkpt><trkpt lat="45.44624276820832" lon="11.112482339991496"><ele>134.0</ele><time>2026-04-18T07:15:01.999Z</time></trkpt><trkpt lat="45.44638290494523" lon="11.112470545040466"><ele>134.0</ele><time>2026-04-18T07:15:02.999Z</time></trkpt><trkpt lat="45.44649688898708" lon="11.1124824833155"><ele>134.0</ele><time>2026-04-18T07:15:03.999Z</time></trkpt><trkpt lat="45.44658682309251" lon="11.112523970340396"><ele>134.16666666666666</ele><time>2026-04-18T07:15:04.998Z</time></trkpt><trkpt lat="45.44666598393639" lon="11.112543578382793"><ele>134.33333333333331</ele><time>2026-04-18T07:15:05.998Z</time></trkpt><trkpt lat="45.44673100386538" lon="11.112540250773122"><ele>134.5</ele><time>2026-04-18T07:15:06.998Z</time></trkpt><trkpt lat="45.446793857849975" lon="11.112565609644827"><ele>134.66666666666666</ele><time>2026-04-18T07:15:07.998Z</time></trkpt><trkpt lat="45.4468808283013" lon="11.112545141969125"><ele>134.83333333333334</ele><time>2026-04-18T07:15:09.998Z</time></trkpt><trkpt lat="45.446962896247875" lon="11.112504623977362"><ele>135.0</ele><time>2026-04-18T07:15:11.998Z</time></trkpt><trkpt lat="45.44707910208811" lon="11.112401956903918"><ele>133.75</ele><time>2026-04-18T07:15:13.999Z</time></trkpt><trkpt lat="45.447174707715774" lon="11.112330911975146"><ele>132.5</ele><time>2026-04-18T07:15:14.999Z</time></trkpt><trkpt lat="45.44728465271577" lon="11.112327309719642"><ele>131.25</ele><time>2026-04-18T07:15:15.999Z</time></trkpt><trkpt lat="45.44738844779019" lon="11.112400427188033"><ele>130.0</ele><time>2026-04-18T07:15:16.999Z</time></trkpt><trkpt lat="45.4475018631708" lon="11.112494511111512"><ele>130.0</ele><time>2026-04-18T07:15:17.999Z</time></trkpt><trkpt lat="45.447614328658496" lon="11.112628215431695"><ele>130.0</ele><time>2026-04-18T07:15:18.999Z</time></trkpt><trkpt lat="45.447713122261526" lon="11.112780928210423"><ele>130.0</ele><time>2026-04-18T07:15:19.999Z</time></trkpt><trkpt lat="45.44780374982522" lon="11.112929367964702"><ele>130.0</ele><time>2026-04-18T07:15:20.999Z</time></trkpt><trkpt lat="45.44789227677358" lon="11.113050625866565"><ele>127.25</ele><time>2026-04-18T07:15:21.999Z</time></trkpt><trkpt lat="45.44796600106482" lon="11.113193775893405"><ele>124.5</ele><time>2026-04-18T07:15:22.999Z</time></trkpt><trkpt lat="45.448043054057315" lon="11.113325418801104"><ele>121.75</ele><time>2026-04-18T07:15:23.999Z</time></trkpt><trkpt lat="45.44810930515575" lon="11.113454080437451"><ele>119.0</ele><time>2026-04-18T07:15:24.999Z</time></trkpt><trkpt lat="45.4481771735535" lon="11.113599601824939"><ele>119.0</ele><time>2026-04-18T07:15:25.999Z</time></trkpt><trkpt lat="45.4482396704085" lon="11.113745713207518"><ele>119.0</ele><time>2026-04-18T07:15:26.999Z</time></trkpt><trkpt lat="45.4482963524114" lon="11.11388328348811"><ele>119.0</ele><time>2026-04-18T07:15:27.999Z</time></trkpt><trkpt lat="45.44834211765116" lon="11.11401147808904"><ele>119.0</ele><time>2026-04-18T07:15:28.999Z</time></trkpt><trkpt lat="45.44837872261141" lon="11.114105446288969"><ele>119.0</ele><time>2026-04-18T07:15:29.999Z</time></trkpt><trkpt lat="45.44843143559876" lon="11.114159386086596"><ele>118.99999999999999</ele><time>2026-04-18T07:15:30.999Z</time></trkpt><trkpt lat="45.448496652352325" lon="11.114184835306348"><ele>119.0</ele><time>2026-04-18T07:15:31.999Z</time></trkpt><trkpt lat="45.44855599104884" lon="11.11412182664629"><ele>119.0</ele><time>2026-04-18T07:15:32.999Z</time></trkpt><trkpt lat="45.44856183001313" lon="11.113995735892896"><ele>119.0</ele><time>2026-04-18T07:15:33.999Z</time></trkpt><trkpt lat="45.44855147645163" lon="11.113878458069196"><ele>118.99999999999999</ele><time>2026-04-18T07:15:34.999Z</time></trkpt><trkpt lat="45.44852368701771" lon="11.113742615455758"><ele>119.0</ele><time>2026-04-18T07:15:35.999Z</time></trkpt><trkpt lat="45.44850743615494" lon="11.113569185552004"><ele>119.0</ele><time>2026-04-18T07:15:36.999Z</time></trkpt><trkpt lat="45.44849162377364" lon="11.113394017565408"><ele>119.0</ele><time>2026-04-18T07:15:37.999Z</time></trkpt><trkpt lat="45.44847213139179" lon="11.113237927975291"><ele>119.0</ele><time>2026-04-18T07:15:38.999Z</time></trkpt><trkpt lat="45.448476971090855" lon="11.11312789229962"><ele>119.0</ele><time>2026-04-18T07:15:39.999Z</time></trkpt><trkpt lat="45.44852155557115" lon="11.11303894786434"><ele>119.0</ele><time>2026-04-18T07:15:40.999Z</time></trkpt><trkpt lat="45.44859401344561" lon="11.112988257497774"><ele>117.0</ele><time>2026-04-18T07:15:41.999Z</time></trkpt><trkpt lat="45.44870384619161" lon="11.1130216108711"><ele>115.0</ele><time>2026-04-18T07:15:42.999Z</time></trkpt><trkpt lat="45.44883255111259" lon="11.11306439359381"><ele>113.0</ele><time>2026-04-18T07:15:43.999Z</time></trkpt><trkpt lat="45.44897745312589" lon="11.113093635870543"><ele>111.0</ele><time>2026-04-18T07:15:44.999Z</time></trkpt><trkpt lat="45.44911895562639" lon="11.11314618391965"><ele>110.0</ele><time>2026-04-18T07:15:45.999Z</time></trkpt><trkpt lat="45.449275180281155" lon="11.11318698636488"><ele>109.0</ele><time>2026-04-18T07:15:46.999Z</time></trkpt><trkpt lat="45.449413257333376" lon="11.113222663654012"><ele>108.0</ele><time>2026-04-18T07:15:47.999Z</time></trkpt><trkpt lat="45.4495496477233" lon="11.113266338638473"><ele>107.0</ele><time>2026-04-18T07:15:48.999Z</time></trkpt><trkpt lat="45.449684486045356" lon="11.113321397400666"><ele>106.0</ele><time>2026-04-18T07:15:49.999Z</time></trkpt><trkpt lat="45.44981660387469" lon="11.113369285937477"><ele>105.0</ele><time>2026-04-18T07:15:50.999Z</time></trkpt><trkpt lat="45.4499430875899" lon="11.113421825728237"><ele>104.0</ele><time>2026-04-18T07:15:51.999Z</time></trkpt><trkpt lat="45.45005114886514" lon="11.113471249671234"><ele>103.0</ele><time>2026-04-18T07:15:52.999Z</time></trkpt><trkpt lat="45.45015006001713" lon="11.113482037967266"><ele>103.0</ele><time>2026-04-18T07:15:53.999Z</time></trkpt><trkpt lat="45.450221898187955" lon="11.113435358281746"><ele>103.0</ele><time>2026-04-18T07:15:54.999Z</time></trkpt><trkpt lat="45.45028645362845" lon="11.113346273640769"><ele>103.0</ele><time>2026-04-18T07:15:55.999Z</time></trkpt><trkpt lat="45.45036521826808" lon="11.113301030604905"><ele>103.0</ele><time>2026-04-18T07:15:56.999Z</time></trkpt><trkpt lat="45.45045581991658" lon="11.113350260729733"><ele>103.0</ele><time>2026-04-18T07:15:57.999Z</time></trkpt><trkpt lat="45.45055431425424" lon="11.113363536548247"><ele>102.25</ele><time>2026-04-18T07:15:58.999Z</time></trkpt><trkpt lat="45.4506680840263" lon="11.113362769937803"><ele>101.5</ele><time>2026-04-18T07:15:59.999Z</time></trkpt><trkpt lat="45.45078349498514" lon="11.113376929304758"><ele>100.75</ele><time>2026-04-18T07:16:00.999Z</time></trkpt><trkpt lat="45.45090733263626" lon="11.113372243956341"><ele>100.0</ele><time>2026-04-18T07:16:01.999Z</time></trkpt><trkpt lat="45.451037578215264" lon="11.113372513160854"><ele>100.0</ele><time>2026-04-18T07:16:02.999Z</time></trkpt><trkpt lat="45.451173476746945" lon="11.11336194949236"><ele>100.0</ele><time>2026-04-18T07:16:03.999Z</time></trkpt><trkpt lat="45.4512781043892" lon="11.113348163764993"><ele>100.0</ele><time>2026-04-18T07:16:04.999Z</time></trkpt><trkpt lat="45.45135931161584" lon="11.113354724661562"><ele>100.0</ele><time>2026-04-18T07:16:05.999Z</time></trkpt><trkpt lat="45.4514280102147" lon="11.113311523203038"><ele>100.0</ele><time>2026-04-18T07:16:07.999Z</time></trkpt><trkpt lat="45.451527102272756" lon="11.113303906485335"><ele>98.33333333333334</ele><time>2026-04-18T07:16:11.999Z</time></trkpt><trkpt lat="45.451547155965905" lon="11.11289571301625"><ele>96.66666666666667</ele><time>2026-04-18T07:16:12.999Z</time></trkpt><trkpt lat="45.45159538255238" lon="11.112804423081128"><ele>95.0</ele><time>2026-04-18T07:16:13.999Z</time></trkpt><trkpt lat="45.45166083493457" lon="11.112691079435084"><ele>95.0</ele><time>2026-04-18T07:16:14.999Z</time></trkpt><trkpt lat="45.45172962944632" lon="11.112586012276813"><ele>95.0</ele><time>2026-04-18T07:16:15.999Z</time></trkpt><trkpt lat="45.451795028608615" lon="11.11248135193563"><ele>95.0</ele><time>2026-04-18T07:16:16.999Z</time></trkpt><trkpt lat="45.45185855665123" lon="11.112386481745974"><ele>95.0</ele><time>2026-04-18T07:16:17.999Z</time></trkpt><trkpt lat="45.45190928267554" lon="11.112278587494023"><ele>95.0</ele><time>2026-04-18T07:16:18.999Z</time></trkpt><trkpt lat="45.45197454027711" lon="11.112188850702696"><ele>93.0</ele><time>2026-04-18T07:16:19.999Z</time></trkpt><trkpt lat="45.452044610164776" lon="11.112117049056213"><ele>91.0</ele><time>2026-04-18T07:16:20.999Z</time></trkpt><trkpt lat="45.45212682532113" lon="11.112040374672874"><ele>89.0</ele><time>2026-04-18T07:16:21.999Z</time></trkpt><trkpt lat="45.45220946354519" lon="11.11197589154416"><ele>87.0</ele><time>2026-04-18T07:16:22.999Z</time></trkpt><trkpt lat="45.452287407073435" lon="11.111906618470684"><ele>85.0</ele><time>2026-04-18T07:16:23.999Z</time></trkpt><trkpt lat="45.452340517746954" lon="11.111833529684354"><ele>83.0</ele><time>2026-04-18T07:16:24.999Z</time></trkpt><trkpt lat="45.45237703482468" lon="11.111682930437194"><ele>81.0</ele><time>2026-04-18T07:16:25.999Z</time></trkpt><trkpt lat="45.45239852873986" lon="11.11152197480355"><ele>79.0</ele><time>2026-04-18T07:16:26.999Z</time></trkpt><trkpt lat="45.45243521056183" lon="11.11137701254574"><ele>77.0</ele><time>2026-04-18T07:16:27.999Z</time></trkpt><trkpt lat="45.452486174796185" lon="11.11122824336234"><ele>75.0</ele><time>2026-04-18T07:16:28.999Z</time></trkpt><trkpt lat="45.45254787950241" lon="11.111086567398177"><ele>75.0</ele><time>2026-04-18T07:16:29.999Z</time></trkpt><trkpt lat="45.45261871431289" lon="11.110937893603776"><ele>75.0</ele><time>2026-04-18T07:16:30.999Z</time></trkpt><trkpt lat="45.45268833835893" lon="11.110798835469616"><ele>75.0</ele><time>2026-04-18T07:16:31.999Z</time></trkpt><trkpt lat="45.45275875878338" lon="11.11066665878937"><ele>75.0</ele><time>2026-04-18T07:16:32.999Z</time></trkpt><trkpt lat="45.452818673665" lon="11.11053552521804"><ele>75.25</ele><time>2026-04-18T07:16:33.999Z</time></trkpt><trkpt lat="45.4528758141379" lon="11.110403079641731"><ele>75.5</ele><time>2026-04-18T07:16:34.999Z</time></trkpt><trkpt lat="45.45293797566637" lon="11.110260049762555"><ele>75.75</ele><time>2026-04-18T07:16:35.999Z</time></trkpt><trkpt lat="45.452997499525225" lon="11.110099994466092"><ele>76.0</ele><time>2026-04-18T07:16:36.999Z</time></trkpt><trkpt lat="45.45303916545218" lon="11.109932390503419"><ele>76.5</ele><time>2026-04-18T07:16:37.999Z</time></trkpt><trkpt lat="45.453065436119985" lon="11.10975651320343"><ele>77.0</ele><time>2026-04-18T07:16:38.999Z</time></trkpt><trkpt lat="45.45308583125998" lon="11.109596024162585"><ele>77.5</ele><time>2026-04-18T07:16:39.999Z</time></trkpt><trkpt lat="45.45309919347409" lon="11.109432846085369"><ele>78.0</ele><time>2026-04-18T07:16:40.999Z</time></trkpt><trkpt lat="45.453117548918826" lon="11.109271822461054"><ele>78.0</ele><time>2026-04-18T07:16:41.999Z</time></trkpt><trkpt lat="45.453132336098946" lon="11.109118026647275"><ele>78.0</ele><time>2026-04-18T07:16:42.999Z</time></trkpt><trkpt lat="45.45313694787028" lon="11.108982155093825"><ele>78.0</ele><time>2026-04-18T07:16:43.999Z</time></trkpt><trkpt lat="45.45313638542547" lon="11.10887486148777"><ele>78.0</ele><time>2026-04-18T07:16:44.999Z</time></trkpt><trkpt lat="45.45312274513946" lon="11.108783893048127"><ele>78.0</ele><time>2026-04-18T07:16:46.999Z</time></trkpt><trkpt lat="45.4533475880358" lon="11.108916691044334"><ele>77.4</ele><time>2026-04-18T07:16:52.999Z</time></trkpt><trkpt lat="45.453434292305836" lon="11.108961945695643"><ele>76.8</ele><time>2026-04-18T07:16:53.999Z</time></trkpt><trkpt lat="45.45352977522432" lon="11.108995916277316"><ele>76.2</ele><time>2026-04-18T07:16:54.999Z</time></trkpt><trkpt lat="45.45361646271795" lon="11.10901910042351"><ele>75.6</ele><time>2026-04-18T07:16:55.999Z</time></trkpt><trkpt lat="45.45370519414735" lon="11.109023974871604"><ele>75.0</ele><time>2026-04-18T07:16:56.999Z</time></trkpt><trkpt lat="45.453787624300325" lon="11.108996523703116"><ele>75.83333333333333</ele><time>2026-04-18T07:16:57.999Z</time></trkpt><trkpt lat="45.45385389692553" lon="11.10895674273278"><ele>76.66666666666667</ele><time>2026-04-18T07:16:58.999Z</time></trkpt><trkpt lat="45.45391257466998" lon="11.108906615617071"><ele>77.5</ele><time>2026-04-18T07:16:59.999Z</time></trkpt><trkpt lat="45.45396062335688" lon="11.108831277649882"><ele>78.33333333333334</ele><time>2026-04-18T07:17:00.999Z</time></trkpt><trkpt lat="45.453987545323386" lon="11.108735407309098"><ele>79.16666666666667</ele><time>2026-04-18T07:17:01.999Z</time></trkpt><trkpt lat="45.45401847900312" lon="11.108641269085354"><ele>80.0</ele><time>2026-04-18T07:17:02.999Z</time></trkpt><trkpt lat="45.45410585813511" lon="11.108446706297235"><ele>80.0</ele><time>2026-04-18T07:17:04.999Z</time></trkpt><trkpt lat="45.45416976852547" lon="11.108325917173472"><ele>80.0</ele><time>2026-04-18T07:17:05.999Z</time></trkpt><trkpt lat="45.45423033484781" lon="11.108209756089513"><ele>80.0</ele><time>2026-04-18T07:17:06.999Z</time></trkpt><trkpt lat="45.454282568944855" lon="11.108116184914286"><ele>80.0</ele><time>2026-04-18T07:17:07.999Z</time></trkpt><trkpt lat="45.45433040218678" lon="11.108044392509617"><ele>80.0</ele><time>2026-04-18T07:17:08.999Z</time></trkpt><trkpt lat="45.454386241456454" lon="11.107992542972783"><ele>80.0</ele><time>2026-04-18T07:17:09.996Z</time></trkpt><trkpt lat="45.454451352644945" lon="11.107963530048169"><ele>80.0</ele><time>2026-04-18T07:17:10.996Z</time></trkpt><trkpt lat="45.454523344131076" lon="11.107953609663786"><ele>80.0</ele><time>2026-04-18T07:17:11.996Z</time></trkpt><trkpt lat="45.4546439913116" lon="11.107966502586192"><ele>80.0</ele><time>2026-04-18T07:17:13.996Z</time></trkpt><trkpt lat="45.45474134792762" lon="11.108014019723255"><ele>80.0</ele><time>2026-04-18T07:17:14.997Z</time></trkpt><trkpt lat="45.45482324659309" lon="11.108048816133147"><ele>80.0</ele><time>2026-04-18T07:17:15.997Z</time></trkpt><trkpt lat="45.4549124565861" lon="11.108067432172062"><ele>80.33333333333334</ele><time>2026-04-18T07:17:16.997Z</time></trkpt><trkpt lat="45.45500419721702" lon="11.108094312687465"><ele>80.66666666666667</ele><time>2026-04-18T07:17:17.997Z</time></trkpt><trkpt lat="45.45508782100276" lon="11.108124809956536"><ele>81.0</ele><time>2026-04-18T07:17:18.997Z</time></trkpt><trkpt lat="45.455160157337744" lon="11.108142181135692"><ele>81.33333333333333</ele><time>2026-04-18T07:17:19.997Z</time></trkpt><trkpt lat="45.455235332981" lon="11.108165547505688"><ele>81.66666666666666</ele><time>2026-04-18T07:17:20.997Z</time></trkpt><trkpt lat="45.45531505965503" lon="11.108194359299546"><ele>82.0</ele><time>2026-04-18T07:17:21.997Z</time></trkpt><trkpt lat="45.45538825245754" lon="11.108211225537747"><ele>82.33333333333333</ele><time>2026-04-18T07:17:22.997Z</time></trkpt><trkpt lat="45.455454918122186" lon="11.108234684070656"><ele>82.66666666666666</ele><time>2026-04-18T07:17:23.997Z</time></trkpt><trkpt lat="45.45552071634847" lon="11.108262048440002"><ele>83.0</ele><time>2026-04-18T07:17:24.997Z</time></trkpt><trkpt lat="45.45564003217957" lon="11.108290569952066"><ele>83.33333333333333</ele><time>2026-04-18T07:17:26.997Z</time></trkpt><trkpt lat="45.45570946829449" lon="11.108315108558536"><ele>83.66666666666667</ele><time>2026-04-18T07:17:27.997Z</time></trkpt><trkpt lat="45.455786519217796" lon="11.108331768804936"><ele>84.0</ele><time>2026-04-18T07:17:28.998Z</time></trkpt><trkpt lat="45.455854282520434" lon="11.108349924709664"><ele>84.6</ele><time>2026-04-18T07:17:29.998Z</time></trkpt><trkpt lat="45.455936050142675" lon="11.10837688540163"><ele>85.2</ele><time>2026-04-18T07:17:30.998Z</time></trkpt><trkpt lat="45.45601480821177" lon="11.108382139093798"><ele>85.8</ele><time>2026-04-18T07:17:31.998Z</time></trkpt><trkpt lat="45.45615501520244" lon="11.108420397817826"><ele>86.39999999999999</ele><time>2026-04-18T07:17:33.998Z</time></trkpt><trkpt lat="45.456250035976055" lon="11.108467390900554"><ele>87.0</ele><time>2026-04-18T07:17:34.998Z</time></trkpt><trkpt lat="45.45633432174835" lon="11.108517229145715"><ele>87.16666666666667</ele><time>2026-04-18T07:17:35.998Z</time></trkpt><trkpt lat="45.45642039851769" lon="11.108531993852568"><ele>87.33333333333333</ele><time>2026-04-18T07:17:36.998Z</time></trkpt><trkpt lat="45.45654139760093" lon="11.108561869540667"><ele>87.5</ele><time>2026-04-18T07:17:38.998Z</time></trkpt><trkpt lat="45.456608848921036" lon="11.108590406048355"><ele>87.66666666666666</ele><time>2026-04-18T07:17:39.998Z</time></trkpt><trkpt lat="45.456676039107066" lon="11.108602548847022"><ele>87.83333333333333</ele><time>2026-04-18T07:17:40.998Z</time></trkpt><trkpt lat="45.45675896183077" lon="11.10859153924815"><ele>88.0</ele><time>2026-04-18T07:17:41.998Z</time></trkpt><trkpt lat="45.45687657689466" lon="11.108562568044917"><ele>88.0</ele><time>2026-04-18T07:17:43.998Z</time></trkpt><trkpt lat="45.4569623774844" lon="11.108570139888435"><ele>88.0</ele><time>2026-04-18T07:17:44.998Z</time></trkpt><trkpt lat="45.457081717033574" lon="11.108568799353183"><ele>88.0</ele><time>2026-04-18T07:17:46.998Z</time></trkpt><trkpt lat="45.45718300191467" lon="11.108571985841895"><ele>88.0</ele><time>2026-04-18T07:17:48.999Z</time></trkpt><trkpt lat="45.457254678834175" lon="11.108571732261058"><ele>88.0</ele><time>2026-04-18T07:17:50.999Z</time></trkpt><trkpt lat="45.45735561857181" lon="11.108577786112889"><ele>88.66666666666666</ele><time>2026-04-18T07:17:53.999Z</time></trkpt><trkpt lat="45.45744421926537" lon="11.108579762079478"><ele>89.33333333333333</ele><time>2026-04-18T07:17:59.999Z</time></trkpt><trkpt lat="45.457523419017534" lon="11.108562436884654"><ele>90.0</ele><time>2026-04-18T07:18:01.999Z</time></trkpt><trkpt lat="45.457587766122195" lon="11.108536265923187"><ele>90.66666666666667</ele><time>2026-04-18T07:20:43Z</time></trkpt><trkpt lat="45.457704516023774" lon="11.10848528013235"><ele>91.33333333333334</ele><time>2026-04-18T07:20:45Z</time></trkpt><trkpt lat="45.45778742898247" lon="11.108493451220038"><ele>92.0</ele><time>2026-04-18T07:20:47Z</time></trkpt><trkpt lat="45.4578779280963" lon="11.108495784481054"><ele>92.5</ele><time>2026-04-18T07:20:49Z</time></trkpt><trkpt lat="45.45796941795799" lon="11.108444223537955"><ele>93.0</ele><time>2026-04-18T07:20:51Z</time></trkpt><trkpt lat="45.45804018973428" lon="11.108414210623064"><ele>93.5</ele><time>2026-04-18T07:20:52.001Z</time></trkpt><trkpt lat="45.45810598238623" lon="11.108398360724664"><ele>94.0</ele><time>2026-04-18T07:20:53.001Z</time></trkpt><trkpt lat="45.45818552236927" lon="11.108410152030308"><ele>94.5</ele><time>2026-04-18T07:20:55.001Z</time></trkpt><trkpt lat="45.45825194591616" lon="11.108440314288378"><ele>95.0</ele><time>2026-04-18T07:21:00.001Z</time></trkpt><trkpt lat="45.45830058043673" lon="11.108529840189762"><ele>95.0</ele><time>2026-04-18T07:21:02.001Z</time></trkpt><trkpt lat="45.458373407145814" lon="11.108557182522734"><ele>95.0</ele><time>2026-04-18T07:21:07.001Z</time></trkpt><trkpt lat="45.45844215130926" lon="11.108644608893952"><ele>95.0</ele><time>2026-04-18T07:21:09.001Z</time></trkpt><trkpt lat="45.4584894296606" lon="11.108716506192835"><ele>95.0</ele><time>2026-04-18T07:21:11.001Z</time></trkpt><trkpt lat="45.458567146459444" lon="11.108763511070359"><ele>95.0</ele><time>2026-04-18T07:21:13.001Z</time></trkpt><trkpt lat="45.45869206885524" lon="11.108821701126962"><ele>95.0</ele><time>2026-04-18T07:21:15.001Z</time></trkpt><trkpt lat="45.45877427215278" lon="11.108853599409416"><ele>95.0</ele><time>2026-04-18T07:21:17.001Z</time></trkpt><trkpt lat="45.45885186219151" lon="11.108906104974913"><ele>95.0</ele><time>2026-04-18T07:21:19.001Z</time></trkpt><trkpt lat="45.458934725916286" lon="11.10899440338757"><ele>95.0</ele><time>2026-04-18T07:21:21.001Z</time></trkpt><trkpt lat="45.45900801775033" lon="11.109106153832057"><ele>95.0</ele><time>2026-04-18T07:21:23.001Z</time></trkpt><trkpt lat="45.459091129668415" lon="11.109177861864707"><ele>96.0</ele><time>2026-04-18T07:21:25.001Z</time></trkpt><trkpt lat="45.45923237542914" lon="11.109221288286363"><ele>97.0</ele><time>2026-04-18T07:21:27.001Z</time></trkpt><trkpt lat="45.459307307182634" lon="11.109221313836768"><ele>98.0</ele><time>2026-04-18T07:21:28.001Z</time></trkpt><trkpt lat="45.45944739154334" lon="11.109236222892429"><ele>99.0</ele><time>2026-04-18T07:21:30.001Z</time></trkpt><trkpt lat="45.45956097461597" lon="11.109238279616893"><ele>99.6</ele><time>2026-04-18T07:21:32.001Z</time></trkpt><trkpt lat="45.45967974526014" lon="11.109250622504483"><ele>100.2</ele><time>2026-04-18T07:21:34.001Z</time></trkpt><trkpt lat="45.45980213436556" lon="11.10926468832534"><ele>100.8</ele><time>2026-04-18T07:21:36.001Z</time></trkpt><trkpt lat="45.45987926372849" lon="11.109265340026312"><ele>101.39999999999999</ele><time>2026-04-18T07:21:37.001Z</time></trkpt><trkpt lat="45.45999935129013" lon="11.109312418752097"><ele>102.0</ele><time>2026-04-18T07:21:39.001Z</time></trkpt><trkpt lat="45.46014965173861" lon="11.109314742304901"><ele>102.0</ele><time>2026-04-18T07:21:40.001Z</time></trkpt><trkpt lat="45.46023382443955" lon="11.109325082302817"><ele>102.0</ele><time>2026-04-18T07:21:41.001Z</time></trkpt><trkpt lat="45.460310388893355" lon="11.109338077432966"><ele>102.0</ele><time>2026-04-18T07:21:42.001Z</time></trkpt><trkpt lat="45.46037777686453" lon="11.10934122210964"><ele>102.0</ele><time>2026-04-18T07:21:43.001Z</time></trkpt><trkpt lat="45.46051767226424" lon="11.109329526834998"><ele>102.0</ele><time>2026-04-18T07:21:45.001Z</time></trkpt><trkpt lat="45.46060173718628" lon="11.109307453164373"><ele>102.33333333333333</ele><time>2026-04-18T07:21:46.001Z</time></trkpt><trkpt lat="45.460683455746064" lon="11.109289072948304"><ele>102.66666666666666</ele><time>2026-04-18T07:21:47.001Z</time></trkpt><trkpt lat="45.460755430536636" lon="11.10925281776675"><ele>103.0</ele><time>2026-04-18T07:21:48.001Z</time></trkpt><trkpt lat="45.46082217867241" lon="11.109213728978203"><ele>103.33333333333333</ele><time>2026-04-18T07:21:49.001Z</time></trkpt><trkpt lat="45.46090899333498" lon="11.109161576492067"><ele>103.66666666666666</ele><time>2026-04-18T07:21:51.001Z</time></trkpt><trkpt lat="45.46101494066903" lon="11.109133890344674"><ele>104.0</ele><time>2026-04-18T07:21:53.001Z</time></trkpt><trkpt lat="45.46108557768563" lon="11.109092653926265"><ele>103.66666666666666</ele><time>2026-04-18T07:21:54.001Z</time></trkpt><trkpt lat="45.461186640021786" lon="11.109035277365644"><ele>103.33333333333333</ele><time>2026-04-18T07:21:56.001Z</time></trkpt><trkpt lat="45.46128863151602" lon="11.108989802094381"><ele>103.0</ele><time>2026-04-18T07:21:58.001Z</time></trkpt><trkpt lat="45.46135565527655" lon="11.108959279309774"><ele>102.66666666666666</ele><time>2026-04-18T07:21:59.001Z</time></trkpt><trkpt lat="45.461424532650526" lon="11.108916052830267"><ele>102.33333333333333</ele><time>2026-04-18T07:22:00.001Z</time></trkpt><trkpt lat="45.46149458630903" lon="11.10887937975211"><ele>102.0</ele><time>2026-04-18T07:22:01.001Z</time></trkpt><trkpt lat="45.46156198991864" lon="11.108851825063978"><ele>102.83333333333333</ele><time>2026-04-18T07:22:02.001Z</time></trkpt><trkpt lat="45.46165123522554" lon="11.108798213514007"><ele>103.66666666666666</ele><time>2026-04-18T07:22:04.001Z</time></trkpt><trkpt lat="45.461710554811596" lon="11.108761672249036"><ele>104.5</ele><time>2026-04-18T07:22:06.001Z</time></trkpt><trkpt lat="45.46177912637524" lon="11.108707798161443"><ele>105.33333333333333</ele><time>2026-04-18T07:22:08.001Z</time></trkpt><trkpt lat="45.4618800611511" lon="11.108671904734225"><ele>106.16666666666666</ele><time>2026-04-18T07:22:10.001Z</time></trkpt><trkpt lat="45.46196887291525" lon="11.10864220048385"><ele>107.0</ele><time>2026-04-18T07:22:12.001Z</time></trkpt><trkpt lat="45.46204182326628" lon="11.108626512894263"><ele>106.99999999999999</ele><time>2026-04-18T07:22:14.001Z</time></trkpt><trkpt lat="45.46210242711651" lon="11.108601830152413"><ele>107.0</ele><time>2026-04-18T07:22:17.001Z</time></trkpt><trkpt lat="45.46216988452454" lon="11.108591727818359"><ele>107.0</ele><time>2026-04-18T07:22:31.001Z</time></trkpt><trkpt lat="45.46223500762647" lon="11.108576145329486"><ele>107.0</ele><time>2026-04-18T07:22:36.001Z</time></trkpt><trkpt lat="45.46232140022178" lon="11.108574860267721"><ele>106.99999999999999</ele><time>2026-04-18T07:22:39.001Z</time></trkpt><trkpt lat="45.46241823319105" lon="11.108541427232458"><ele>107.0</ele><time>2026-04-18T07:22:42.001Z</time></trkpt><trkpt lat="45.462496878629636" lon="11.108510723517284"><ele>107.66666666666666</ele><time>2026-04-18T07:22:45.001Z</time></trkpt><trkpt lat="45.46257871923444" lon="11.108494365953515"><ele>108.33333333333333</ele><time>2026-04-18T07:22:49.001Z</time></trkpt><trkpt lat="45.46266998216189" lon="11.108463893056955"><ele>109.0</ele><time>2026-04-18T07:22:52.001Z</time></trkpt><trkpt lat="45.4627375205869" lon="11.108445677977043"><ele>109.66666666666666</ele><time>2026-04-18T07:22:54.001Z</time></trkpt><trkpt lat="45.46281443306716" lon="11.108421281494811"><ele>110.33333333333333</ele><time>2026-04-18T07:22:57.001Z</time></trkpt><trkpt lat="45.46287774075214" lon="11.10839857324564"><ele>111.0</ele><time>2026-04-18T07:23:01.002Z</time></trkpt><trkpt lat="45.462944769839744" lon="11.108363063889493"><ele>111.42857142857142</ele><time>2026-04-18T07:23:05.002Z</time></trkpt><trkpt lat="45.46301236134583" lon="11.10831169369383"><ele>111.85714285714286</ele><time>2026-04-18T07:23:36.002Z</time></trkpt><trkpt lat="45.46309511184681" lon="11.10830279787783"><ele>112.28571428571428</ele><time>2026-04-18T07:24:18.001Z</time></trkpt><trkpt lat="45.463170505893444" lon="11.108251781016236"><ele>112.71428571428571</ele><time>2026-04-18T07:24:50.001Z</time></trkpt><trkpt lat="45.46323202263265" lon="11.1082192968725"><ele>113.14285714285714</ele><time>2026-04-18T07:30:26Z</time></trkpt><trkpt lat="45.463302898366926" lon="11.108204053084581"><ele>113.57142857142857</ele><time>2026-04-18T07:30:28Z</time></trkpt><trkpt lat="45.46336487405728" lon="11.108162851885709"><ele>114.0</ele><time>2026-04-18T07:30:31Z</time></trkpt><trkpt lat="45.46345287489748" lon="11.108109710318633"><ele>114.0</ele><time>2026-04-18T07:30:34Z</time></trkpt><trkpt lat="45.463523012452384" lon="11.108085761464045"><ele>114.0</ele><time>2026-04-18T07:30:38Z</time></trkpt><trkpt lat="45.46358732648813" lon="11.108049243573321"><ele>114.0</ele><time>2026-04-18T07:30:55Z</time></trkpt><trkpt lat="45.463647882183565" lon="11.108024298361332"><ele>114.0</ele><time>2026-04-18T07:30:58Z</time></trkpt><trkpt lat="45.4637163874465" lon="11.107971866365641"><ele>114.0</ele><time>2026-04-18T07:31:00Z</time></trkpt><trkpt lat="45.46377588134648" lon="11.107903143426759"><ele>114.0</ele><time>2026-04-18T07:31:02Z</time></trkpt><trkpt lat="45.46385697658977" lon="11.10780872177695"><ele>114.66666666666667</ele><time>2026-04-18T07:31:05Z</time></trkpt><trkpt lat="45.463929598202746" lon="11.107738573715928"><ele>115.33333333333334</ele><time>2026-04-18T07:31:08Z</time></trkpt><trkpt lat="45.463982937852485" lon="11.107681379110975"><ele>116.0</ele><time>2026-04-18T07:31:10Z</time></trkpt><trkpt lat="45.464036404054724" lon="11.10759613203896"><ele>116.66666666666667</ele><time>2026-04-18T07:31:11Z</time></trkpt><trkpt lat="45.464108799238225" lon="11.1074964710777"><ele>117.33333333333334</ele><time>2026-04-18T07:31:13Z</time></trkpt><trkpt lat="45.46417348551971" lon="11.10742512688667"><ele>118.0</ele><time>2026-04-18T07:31:17Z</time></trkpt><trkpt lat="45.464238847107744" lon="11.107381875416586"><ele>118.00000000000001</ele><time>2026-04-18T07:31:19Z</time></trkpt><trkpt lat="45.46430427960223" lon="11.107358526543385"><ele>118.0</ele><time>2026-04-18T07:31:20Z</time></trkpt><trkpt lat="45.464384405756306" lon="11.107332797735483"><ele>118.0</ele><time>2026-04-18T07:31:22Z</time></trkpt><trkpt lat="45.46445851608957" lon="11.107314365380251"><ele>118.0</ele><time>2026-04-18T07:31:25Z</time></trkpt><trkpt lat="45.464518296571654" lon="11.107280135764858"><ele>118.00000000000001</ele><time>2026-04-18T07:31:49Z</time></trkpt><trkpt lat="45.464619576360555" lon="11.107245348862484"><ele>118.0</ele><time>2026-04-18T07:31:54.001Z</time></trkpt><trkpt lat="45.46467914224836" lon="11.107190511807827"><ele>118.66666666666667</ele><time>2026-04-18T07:31:56.001Z</time></trkpt><trkpt lat="45.464734513977895" lon="11.107133977220673"><ele>119.33333333333334</ele><time>2026-04-18T07:31:58.001Z</time></trkpt><trkpt lat="45.464793158319424" lon="11.107091663028315"><ele>120.0</ele><time>2026-04-18T07:32:00.001Z</time></trkpt><trkpt lat="45.4648586608892" lon="11.106995229122061"><ele>120.66666666666666</ele><time>2026-04-18T07:32:02Z</time></trkpt><trkpt lat="45.464923275215945" lon="11.106905720639764"><ele>121.33333333333333</ele><time>2026-04-18T07:32:04Z</time></trkpt><trkpt lat="45.464987548588745" lon="11.106791503590916"><ele>122.0</ele><time>2026-04-18T07:32:06Z</time></trkpt><trkpt lat="45.465031812631366" lon="11.106699838040807"><ele>121.99999999999999</ele><time>2026-04-18T07:32:09Z</time></trkpt><trkpt lat="45.4650557948723" lon="11.106613856500973"><ele>122.0</ele><time>2026-04-18T07:32:19Z</time></trkpt><trkpt lat="45.465092338604904" lon="11.106534628198096"><ele>122.0</ele><time>2026-04-18T07:32:23Z</time></trkpt><trkpt lat="45.46514147022853" lon="11.106425812832398"><ele>122.0</ele><time>2026-04-18T07:32:26Z</time></trkpt><trkpt lat="45.465188825354744" lon="11.106324542212795"><ele>121.99999999999999</ele><time>2026-04-18T07:32:28Z</time></trkpt><trkpt lat="45.46522902577111" lon="11.106240164320777"><ele>122.0</ele><time>2026-04-18T07:32:30Z</time></trkpt><trkpt lat="45.4652978758868" lon="11.10608210556029"><ele>122.39999999999999</ele><time>2026-04-18T07:32:32Z</time></trkpt><trkpt lat="45.46533407432309" lon="11.10598497527981"><ele>122.79999999999998</ele><time>2026-04-18T07:32:34Z</time></trkpt><trkpt lat="45.46538933611923" lon="11.105853522026363"><ele>123.2</ele><time>2026-04-18T07:32:36Z</time></trkpt><trkpt lat="45.46544147625988" lon="11.105747613728917"><ele>123.6</ele><time>2026-04-18T07:32:38Z</time></trkpt><trkpt lat="45.46548611240127" lon="11.105646565366925"><ele>124.0</ele><time>2026-04-18T07:32:40Z</time></trkpt><trkpt lat="45.46553322386233" lon="11.105532365503189"><ele>125.00000000000001</ele><time>2026-04-18T07:32:42Z</time></trkpt><trkpt lat="45.465564480316914" lon="11.105426949913596"><ele>126.0</ele><time>2026-04-18T07:32:44Z</time></trkpt><trkpt lat="45.46559928163231" lon="11.105319292255164"><ele>127.0</ele><time>2026-04-18T07:32:46Z</time></trkpt><trkpt lat="45.465656277970034" lon="11.105267897910739"><ele>128.0</ele><time>2026-04-18T07:32:48Z</time></trkpt><trkpt lat="45.4657093810362" lon="11.105218335426093"><ele>129.0</ele><time>2026-04-18T07:32:55Z</time></trkpt><trkpt lat="45.46577060175655" lon="11.105169270037075"><ele>130.0</ele><time>2026-04-18T07:33:02Z</time></trkpt><trkpt lat="45.46584790487251" lon="11.105096465434618"><ele>130.0</ele><time>2026-04-18T07:33:04Z</time></trkpt><trkpt lat="45.46594599666991" lon="11.105035213746824"><ele>130.0</ele><time>2026-04-18T07:33:06Z</time></trkpt><trkpt lat="45.466046993921445" lon="11.104977300623643"><ele>130.0</ele><time>2026-04-18T07:33:08Z</time></trkpt><trkpt lat="45.46606874616706" lon="11.104891909985025"><ele>130.0</ele><time>2026-04-18T07:33:09Z</time></trkpt><trkpt lat="45.466165516634476" lon="11.104798069870514"><ele>130.0</ele><time>2026-04-18T07:33:11Z</time></trkpt><trkpt lat="45.46624697245534" lon="11.104712201471582"><ele>131.0</ele><time>2026-04-18T07:33:13Z</time></trkpt><trkpt lat="45.46631936186065" lon="11.104629298646877"><ele>132.0</ele><time>2026-04-18T07:33:15Z</time></trkpt><trkpt lat="45.466376358463435" lon="11.104559988518082"><ele>133.0</ele><time>2026-04-18T07:33:17Z</time></trkpt><trkpt lat="45.466466631199516" lon="11.104468912398106"><ele>134.0</ele><time>2026-04-18T07:33:19Z</time></trkpt><trkpt lat="45.46652551928061" lon="11.104393804164193"><ele>135.0</ele><time>2026-04-18T07:33:21Z</time></trkpt><trkpt lat="45.4665929148638" lon="11.104290266649803"><ele>135.0</ele><time>2026-04-18T07:33:23Z</time></trkpt><trkpt lat="45.466640899996406" lon="11.104228229193199"><ele>135.0</ele><time>2026-04-18T07:33:25Z</time></trkpt><trkpt lat="45.466704870552775" lon="11.104175716138997"><ele>135.0</ele><time>2026-04-18T07:33:27Z</time></trkpt><trkpt lat="45.46673476282041" lon="11.104096654724211"><ele>135.0</ele><time>2026-04-18T07:35:24.999Z</time></trkpt><trkpt lat="45.466790048506105" lon="11.1039856144041"><ele>135.0</ele><time>2026-04-18T07:35:30.999Z</time></trkpt><trkpt lat="45.46679170322421" lon="11.103851694607718"><ele>135.0</ele><time>2026-04-18T07:35:33.999Z</time></trkpt><trkpt lat="45.4667483771772" lon="11.103774207518363"><ele>135.83333333333334</ele><time>2026-04-18T07:35:34.999Z</time></trkpt><trkpt lat="45.46669993140595" lon="11.103695385474618"><ele>136.66666666666666</ele><time>2026-04-18T07:35:35.999Z</time></trkpt><trkpt lat="45.466678926550784" lon="11.103584434327056"><ele>137.5</ele><time>2026-04-18T07:35:36.999Z</time></trkpt><trkpt lat="45.46662956926529" lon="11.103486244657457"><ele>138.33333333333331</ele><time>2026-04-18T07:35:37.999Z</time></trkpt><trkpt lat="45.46658331151359" lon="11.10336246377598"><ele>139.16666666666666</ele><time>2026-04-18T07:35:38.999Z</time></trkpt><trkpt lat="45.46652628472433" lon="11.10323539555854"><ele>140.0</ele><time>2026-04-18T07:35:39.999Z</time></trkpt><trkpt lat="45.46646570770896" lon="11.103120903183786"><ele>142.33333333333331</ele><time>2026-04-18T07:35:40.999Z</time></trkpt><trkpt lat="45.46639978869818" lon="11.103015002314946"><ele>144.66666666666666</ele><time>2026-04-18T07:35:41.999Z</time></trkpt><trkpt lat="45.46634927430227" lon="11.102906822337818"><ele>147.0</ele><time>2026-04-18T07:35:42.999Z</time></trkpt><trkpt lat="45.466303217115325" lon="11.102825873029353"><ele>149.33333333333334</ele><time>2026-04-18T07:35:43.999Z</time></trkpt><trkpt lat="45.46625960445248" lon="11.102757781329963"><ele>151.66666666666669</ele><time>2026-04-18T07:35:44.999Z</time></trkpt><trkpt lat="45.4661742193459" lon="11.102769507269123"><ele>154.0</ele><time>2026-04-18T07:35:45.999Z</time></trkpt><trkpt lat="45.46610454072583" lon="11.102745923360361"><ele>156.83333333333334</ele><time>2026-04-18T07:35:46.999Z</time></trkpt><trkpt lat="45.466029036937684" lon="11.102730986301898"><ele>159.66666666666669</ele><time>2026-04-18T07:35:47.999Z</time></trkpt><trkpt lat="45.465962966699664" lon="11.1026829371963"><ele>162.5</ele><time>2026-04-18T07:35:48.999Z</time></trkpt><trkpt lat="45.465932685619094" lon="11.10260025896886"><ele>165.33333333333334</ele><time>2026-04-18T07:35:49.999Z</time></trkpt><trkpt lat="45.46583618795462" lon="11.102566961434919"><ele>168.16666666666666</ele><time>2026-04-18T07:35:51.999Z</time></trkpt><trkpt lat="45.46577602886697" lon="11.102610126244027"><ele>171.0</ele><time>2026-04-18T07:35:52.999Z</time></trkpt><trkpt lat="45.46570879571293" lon="11.102615789925565"><ele>171.0</ele><time>2026-04-18T07:35:53.999Z</time></trkpt><trkpt lat="45.46564503485462" lon="11.102632093178062"><ele>171.0</ele><time>2026-04-18T07:35:54.999Z</time></trkpt><trkpt lat="45.46556836968393" lon="11.102660525283746"><ele>171.0</ele><time>2026-04-18T07:35:55.999Z</time></trkpt><trkpt lat="45.46545911308684" lon="11.10269537352744"><ele>171.0</ele><time>2026-04-18T07:35:56.999Z</time></trkpt><trkpt lat="45.46537678643267" lon="11.102687233129945"><ele>171.0</ele><time>2026-04-18T07:35:57.999Z</time></trkpt><trkpt lat="45.465304898677246" lon="11.102679231128432"><ele>171.0</ele><time>2026-04-18T07:35:58.999Z</time></trkpt><trkpt lat="45.465217075210916" lon="11.102676036292593"><ele>173.0</ele><time>2026-04-18T07:36:00.999Z</time></trkpt><trkpt lat="45.46517850178323" lon="11.102449089015009"><ele>175.0</ele><time>2026-04-18T07:36:01.999Z</time></trkpt><trkpt lat="45.46510560624042" lon="11.102461534270784"><ele>177.0</ele><time>2026-04-18T07:36:02.999Z</time></trkpt><trkpt lat="45.46503327223724" lon="11.102493888280495"><ele>179.0</ele><time>2026-04-18T07:36:04Z</time></trkpt><trkpt lat="45.464927953986866" lon="11.102486863109979"><ele>181.0</ele><time>2026-04-18T07:36:06Z</time></trkpt><trkpt lat="45.46481054986134" lon="11.10238497256336"><ele>184.20000000000002</ele><time>2026-04-18T07:36:08Z</time></trkpt><trkpt lat="45.46472061498534" lon="11.102328609828419"><ele>187.4</ele><time>2026-04-18T07:36:09Z</time></trkpt><trkpt lat="45.464619389961754" lon="11.102253371447311"><ele>190.6</ele><time>2026-04-18T07:36:10Z</time></trkpt><trkpt lat="45.46453129406223" lon="11.102197815857124"><ele>193.8</ele><time>2026-04-18T07:36:11Z</time></trkpt><trkpt lat="45.46446245833628" lon="11.102146792971938"><ele>197.0</ele><time>2026-04-18T07:36:12Z</time></trkpt><trkpt lat="45.46439565514723" lon="11.10199288590197"><ele>197.00000000000003</ele><time>2026-04-18T07:36:14Z</time></trkpt><trkpt lat="45.46436147153055" lon="11.101879407143057"><ele>197.0</ele><time>2026-04-18T07:36:15Z</time></trkpt><trkpt lat="45.464338965839005" lon="11.101788157038106"><ele>197.0</ele><time>2026-04-18T07:36:16Z</time></trkpt><trkpt lat="45.46429408268195" lon="11.101665424159329"><ele>197.0</ele><time>2026-04-18T07:36:17Z</time></trkpt><trkpt lat="45.464246797883824" lon="11.101567674713372"><ele>197.00000000000003</ele><time>2026-04-18T07:36:19Z</time></trkpt><trkpt lat="45.46426999136894" lon="11.101463033370631"><ele>197.0</ele><time>2026-04-18T07:36:21Z</time></trkpt><trkpt lat="45.464303535645605" lon="11.101376797073526"><ele>199.6</ele><time>2026-04-18T07:36:22Z</time></trkpt><trkpt lat="45.46432328266916" lon="11.101279341297587"><ele>202.2</ele><time>2026-04-18T07:36:23Z</time></trkpt><trkpt lat="45.464385606870245" lon="11.101171537226136"><ele>204.8</ele><time>2026-04-18T07:36:25Z</time></trkpt><trkpt lat="45.46444020576496" lon="11.10111614088958"><ele>207.4</ele><time>2026-04-18T07:36:26Z</time></trkpt><trkpt lat="45.46447437204241" lon="11.100924409132862"><ele>210.0</ele><time>2026-04-18T07:36:28Z</time></trkpt><trkpt lat="45.464471526317006" lon="11.100815100442691"><ele>211.0</ele><time>2026-04-18T07:36:29Z</time></trkpt><trkpt lat="45.464436814939624" lon="11.100677127845243"><ele>212.0</ele><time>2026-04-18T07:36:31Z</time></trkpt><trkpt lat="45.46449038731742" lon="11.100602578190234"><ele>213.0</ele><time>2026-04-18T07:36:33Z</time></trkpt><trkpt lat="45.464552555523774" lon="11.100623436963755"><ele>214.0</ele><time>2026-04-18T07:36:34Z</time></trkpt><trkpt lat="45.46458783585688" lon="11.10074493980618"><ele>215.0</ele><time>2026-04-18T07:36:36Z</time></trkpt><trkpt lat="45.46463505127412" lon="11.100808327689421"><ele>216.0</ele><time>2026-04-18T07:36:37Z</time></trkpt><trkpt lat="45.46469729349694" lon="11.100855743660759"><ele>216.0</ele><time>2026-04-18T07:36:39Z</time></trkpt><trkpt lat="45.46474565090711" lon="11.10077620704455"><ele>216.0</ele><time>2026-04-18T07:36:41Z</time></trkpt><trkpt lat="45.464804981807745" lon="11.100732352251317"><ele>216.0</ele><time>2026-04-18T07:36:42Z</time></trkpt><trkpt lat="45.464928216759134" lon="11.100703384145593"><ele>216.0</ele><time>2026-04-18T07:36:44Z</time></trkpt><trkpt lat="45.46499280696358" lon="11.100687578615858"><ele>216.0</ele><time>2026-04-18T07:36:45Z</time></trkpt><trkpt lat="45.46508552730663" lon="11.100658166346903"><ele>216.0</ele><time>2026-04-18T07:36:46Z</time></trkpt><trkpt lat="45.465152454743084" lon="11.100616016338547"><ele>218.20000000000002</ele><time>2026-04-18T07:36:47Z</time></trkpt><trkpt lat="45.46522892956452" lon="11.100591586212525"><ele>220.40000000000003</ele><time>2026-04-18T07:36:48Z</time></trkpt><trkpt lat="45.465308440456134" lon="11.10049555986633"><ele>222.6</ele><time>2026-04-18T07:36:50Z</time></trkpt><trkpt lat="45.46536187785803" lon="11.100385944067574"><ele>224.8</ele><time>2026-04-18T07:36:51Z</time></trkpt><trkpt lat="45.46540346725545" lon="11.10025791270292"><ele>227.0</ele><time>2026-04-18T07:36:53Z</time></trkpt><trkpt lat="45.46541033941499" lon="11.100133980158795"><ele>227.00000000000003</ele><time>2026-04-18T07:36:55Z</time></trkpt><trkpt lat="45.46539212816738" lon="11.09998034109096"><ele>227.0</ele><time>2026-04-18T07:36:56.999Z</time></trkpt><trkpt lat="45.46539977280325" lon="11.099889158017126"><ele>227.0</ele><time>2026-04-18T07:36:57.999Z</time></trkpt><trkpt lat="45.46541047324888" lon="11.09978288936604"><ele>227.0</ele><time>2026-04-18T07:36:58.999Z</time></trkpt><trkpt lat="45.465432762279434" lon="11.099658261704638"><ele>227.00000000000003</ele><time>2026-04-18T07:36:59.999Z</time></trkpt><trkpt lat="45.46544571243295" lon="11.099552822215795"><ele>227.0</ele><time>2026-04-18T07:37:00.999Z</time></trkpt><trkpt lat="45.46547115014203" lon="11.09944868880321"><ele>229.39999999999998</ele><time>2026-04-18T07:37:01.999Z</time></trkpt><trkpt lat="45.465494427588325" lon="11.099334927363543"><ele>231.79999999999998</ele><time>2026-04-18T07:37:02.999Z</time></trkpt><trkpt lat="45.46552042267807" lon="11.099196507727742"><ele>234.2</ele><time>2026-04-18T07:37:03.999Z</time></trkpt><trkpt lat="45.46553260489473" lon="11.099058103546179"><ele>236.6</ele><time>2026-04-18T07:37:04.999Z</time></trkpt><trkpt lat="45.46554081580444" lon="11.098925049309107"><ele>239.0</ele><time>2026-04-18T07:37:05.999Z</time></trkpt><trkpt lat="45.46553726206351" lon="11.098799546073254"><ele>241.39999999999998</ele><time>2026-04-18T07:37:06.999Z</time></trkpt><trkpt lat="45.4655450195705" lon="11.098704854820836"><ele>243.79999999999998</ele><time>2026-04-18T07:37:07.999Z</time></trkpt><trkpt lat="45.46559694917429" lon="11.098590970935417"><ele>246.20000000000002</ele><time>2026-04-18T07:37:09.999Z</time></trkpt><trkpt lat="45.465738309926095" lon="11.098555106358306"><ele>248.60000000000002</ele><time>2026-04-18T07:37:11.999Z</time></trkpt><trkpt lat="45.46582397535447" lon="11.098526123332666"><ele>251.0</ele><time>2026-04-18T07:37:12.999Z</time></trkpt><trkpt lat="45.465891644719825" lon="11.098504661954465"><ele>251.00000000000003</ele><time>2026-04-18T07:37:13.999Z</time></trkpt><trkpt lat="45.46594616468317" lon="11.098439618401915"><ele>251.0</ele><time>2026-04-18T07:37:15.999Z</time></trkpt><trkpt lat="45.46590896603323" lon="11.098352343871925"><ele>251.0</ele><time>2026-04-18T07:37:17.999Z</time></trkpt><trkpt lat="45.46584244635788" lon="11.098262937924218"><ele>251.0</ele><time>2026-04-18T07:37:19.999Z</time></trkpt><trkpt lat="45.46582668011224" lon="11.098123946726034"><ele>251.00000000000003</ele><time>2026-04-18T07:37:21.999Z</time></trkpt><trkpt lat="45.46578036729683" lon="11.098047927913296"><ele>251.0</ele><time>2026-04-18T07:37:22.999Z</time></trkpt><trkpt lat="45.46571436926299" lon="11.097988994325808"><ele>254.4</ele><time>2026-04-18T07:37:23.999Z</time></trkpt><trkpt lat="45.46568140554265" lon="11.097866836498739"><ele>257.8</ele><time>2026-04-18T07:37:25.999Z</time></trkpt><trkpt lat="45.46574306461785" lon="11.09775829152053"><ele>261.20000000000005</ele><time>2026-04-18T07:37:27.999Z</time></trkpt><trkpt lat="45.465842222805215" lon="11.097661490772957"><ele>264.6</ele><time>2026-04-18T07:37:29.999Z</time></trkpt><trkpt lat="45.465919457683974" lon="11.097618849112488"><ele>268.0</ele><time>2026-04-18T07:37:30.999Z</time></trkpt><trkpt lat="45.46601863596158" lon="11.097607371640818"><ele>268.0</ele><time>2026-04-18T07:37:32.999Z</time></trkpt><trkpt lat="45.46607826263745" lon="11.097652127126237"><ele>268.0</ele><time>2026-04-18T07:37:33.999Z</time></trkpt><trkpt lat="45.466161735457945" lon="11.097711052517566"><ele>268.0</ele><time>2026-04-18T07:37:35.999Z</time></trkpt><trkpt lat="45.46622854856535" lon="11.097704142083593"><ele>268.0</ele><time>2026-04-18T07:37:36.999Z</time></trkpt><trkpt lat="45.466336989019815" lon="11.09767675950671"><ele>268.0</ele><time>2026-04-18T07:37:38.999Z</time></trkpt><trkpt lat="45.466435130589424" lon="11.0976597543801"><ele>268.0</ele><time>2026-04-18T07:37:39.999Z</time></trkpt><trkpt lat="45.466558628845725" lon="11.09765428225434"><ele>269.5</ele><time>2026-04-18T07:37:40.999Z</time></trkpt><trkpt lat="45.4666816467508" lon="11.0976575929977"><ele>271.0</ele><time>2026-04-18T07:37:41.999Z</time></trkpt><trkpt lat="45.46680593335023" lon="11.097650647276147"><ele>272.5</ele><time>2026-04-18T07:37:42.999Z</time></trkpt><trkpt lat="45.466945015251774" lon="11.097651373441016"><ele>274.0</ele><time>2026-04-18T07:37:43.999Z</time></trkpt><trkpt lat="45.46707993406412" lon="11.09765510389418"><ele>274.2</ele><time>2026-04-18T07:37:44.999Z</time></trkpt><trkpt lat="45.46719189336882" lon="11.097656280373155"><ele>274.4</ele><time>2026-04-18T07:37:45.999Z</time></trkpt><trkpt lat="45.467295680122504" lon="11.097667243696703"><ele>274.6</ele><time>2026-04-18T07:37:46.999Z</time></trkpt><trkpt lat="45.46739549876563" lon="11.097670566279167"><ele>274.8</ele><time>2026-04-18T07:37:47.999Z</time></trkpt><trkpt lat="45.467473448899405" lon="11.097659139555502"><ele>275.0</ele><time>2026-04-18T07:37:48.999Z</time></trkpt><trkpt lat="45.467544761504904" lon="11.09763321238205"><ele>275.0</ele><time>2026-04-18T07:37:49.999Z</time></trkpt><trkpt lat="45.46760758670484" lon="11.097594697597492"><ele>275.0</ele><time>2026-04-18T07:37:50.999Z</time></trkpt><trkpt lat="45.467681984433305" lon="11.097492682182683"><ele>275.0</ele><time>2026-04-18T07:37:52.999Z</time></trkpt><trkpt lat="45.467703196295254" lon="11.097337560111391"><ele>275.0</ele><time>2026-04-18T07:37:54.999Z</time></trkpt><trkpt lat="45.46770772515381" lon="11.097225867012806"><ele>275.0</ele><time>2026-04-18T07:37:55.999Z</time></trkpt><trkpt lat="45.46772513865993" lon="11.097111639203238"><ele>275.0</ele><time>2026-04-18T07:37:56.999Z</time></trkpt><trkpt lat="45.467760049949305" lon="11.097016791373465"><ele>277.6</ele><time>2026-04-18T07:37:57.999Z</time></trkpt><trkpt lat="45.467821413968046" lon="11.096953769648826"><ele>280.2</ele><time>2026-04-18T07:37:58.999Z</time></trkpt><trkpt lat="45.46789286284439" lon="11.096899365398047"><ele>282.8</ele><time>2026-04-18T07:37:59.999Z</time></trkpt><trkpt lat="45.46798765964164" lon="11.096867905325704"><ele>285.4</ele><time>2026-04-18T07:38:00.999Z</time></trkpt><trkpt lat="45.46809867340987" lon="11.096825287541424"><ele>288.0</ele><time>2026-04-18T07:38:01.999Z</time></trkpt><trkpt lat="45.46820936124872" lon="11.096757000024187"><ele>288.0</ele><time>2026-04-18T07:38:02.999Z</time></trkpt><trkpt lat="45.468323162208804" lon="11.096685283084883"><ele>288.0</ele><time>2026-04-18T07:38:03.999Z</time></trkpt><trkpt lat="45.46844126303414" lon="11.096617898207072"><ele>288.0</ele><time>2026-04-18T07:38:04.999Z</time></trkpt><trkpt lat="45.4685534594591" lon="11.09656479191715"><ele>288.0</ele><time>2026-04-18T07:38:05.999Z</time></trkpt><trkpt lat="45.46867591295751" lon="11.09649829191541"><ele>293.5</ele><time>2026-04-18T07:38:06.999Z</time></trkpt><trkpt lat="45.468807796239865" lon="11.096408705558517"><ele>299.0</ele><time>2026-04-18T07:38:07.999Z</time></trkpt><trkpt lat="45.46893614065436" lon="11.096328877918001"><ele>304.5</ele><time>2026-04-18T07:38:08.999Z</time></trkpt><trkpt lat="45.4690621129088" lon="11.096245979716509"><ele>310.0</ele><time>2026-04-18T07:38:09.999Z</time></trkpt><trkpt lat="45.469184663821174" lon="11.09614902954152"><ele>310.0</ele><time>2026-04-18T07:38:10.999Z</time></trkpt><trkpt lat="45.469299901976534" lon="11.096042382177684"><ele>310.0</ele><time>2026-04-18T07:38:11.999Z</time></trkpt><trkpt lat="45.469408720576475" lon="11.09595359581947"><ele>310.0</ele><time>2026-04-18T07:38:12.999Z</time></trkpt><trkpt lat="45.469494172131405" lon="11.095885997514358"><ele>310.0</ele><time>2026-04-18T07:38:13.999Z</time></trkpt><trkpt lat="45.469560444252394" lon="11.095832185704623"><ele>310.0</ele><time>2026-04-18T07:38:14.999Z</time></trkpt><trkpt lat="45.46963191554154" lon="11.09577273768424"><ele>308.8</ele><time>2026-04-18T07:38:16.999Z</time></trkpt><trkpt lat="45.469707114913206" lon="11.095762289191208"><ele>307.6</ele><time>2026-04-18T07:38:20Z</time></trkpt><trkpt lat="45.46978114323588" lon="11.095722168603661"><ele>306.4</ele><time>2026-04-18T07:38:22Z</time></trkpt><trkpt lat="45.469878485587444" lon="11.095688285536752"><ele>305.2</ele><time>2026-04-18T07:38:28Z</time></trkpt><trkpt lat="45.47004250539743" lon="11.095650879556205"><ele>304.0</ele><time>2026-04-18T07:38:30Z</time></trkpt><trkpt lat="45.47011916875441" lon="11.095611473306686"><ele>307.3333333333333</ele><time>2026-04-18T07:38:31Z</time></trkpt><trkpt lat="45.47020476756277" lon="11.095545577958008"><ele>310.66666666666663</ele><time>2026-04-18T07:38:33Z</time></trkpt><trkpt lat="45.470266919391996" lon="11.0954900733127"><ele>314.0</ele><time>2026-04-18T07:38:34Z</time></trkpt><trkpt lat="45.470335294077564" lon="11.095442609741927"><ele>317.3333333333333</ele><time>2026-04-18T07:38:35Z</time></trkpt><trkpt lat="45.47042804686923" lon="11.095404876796815"><ele>320.6666666666667</ele><time>2026-04-18T07:38:37Z</time></trkpt><trkpt lat="45.470388775609266" lon="11.095305202229413"><ele>324.0</ele><time>2026-04-18T07:38:40Z</time></trkpt><trkpt lat="45.470362509334365" lon="11.095213951176008"><ele>324.0</ele><time>2026-04-18T07:38:42Z</time></trkpt><trkpt lat="45.47033788895129" lon="11.095075509977178"><ele>324.0</ele><time>2026-04-18T07:38:44Z</time></trkpt><trkpt lat="45.470325143616044" lon="11.094985930994717"><ele>324.0</ele><time>2026-04-18T07:38:45Z</time></trkpt><trkpt lat="45.47032652243892" lon="11.094850405898924"><ele>324.0</ele><time>2026-04-18T07:38:47Z</time></trkpt><trkpt lat="45.470311998739525" lon="11.094690106154427"><ele>324.0</ele><time>2026-04-18T07:38:49Z</time></trkpt><trkpt lat="45.47026561443633" lon="11.094593011116265"><ele>323.2857142857143</ele><time>2026-04-18T07:38:52Z</time></trkpt><trkpt lat="45.47027612928509" lon="11.094493869206245"><ele>322.57142857142856</ele><time>2026-04-18T07:38:54Z</time></trkpt><trkpt lat="45.470300075358175" lon="11.094379691070714"><ele>321.8571428571429</ele><time>2026-04-18T07:38:56Z</time></trkpt><trkpt lat="45.470284735390614" lon="11.094263304125011"><ele>321.1428571428571</ele><time>2026-04-18T07:38:58Z</time></trkpt><trkpt lat="45.47031523173138" lon="11.09417016303397"><ele>320.4285714285714</ele><time>2026-04-18T07:39:00Z</time></trkpt><trkpt lat="45.47037711243893" lon="11.094121416592703"><ele>319.7142857142857</ele><time>2026-04-18T07:39:02Z</time></trkpt><trkpt lat="45.470443906509715" lon="11.094106010186863"><ele>319.0</ele><time>2026-04-18T07:39:08Z</time></trkpt><trkpt lat="45.47051738923125" lon="11.094075924447935"><ele>322.6</ele><time>2026-04-18T07:39:10Z</time></trkpt><trkpt lat="45.47055736098971" lon="11.093998304475077"><ele>326.2</ele><time>2026-04-18T07:39:12Z</time></trkpt><trkpt lat="45.47058586751147" lon="11.09390910009558"><ele>329.8</ele><time>2026-04-18T07:39:15Z</time></trkpt><trkpt lat="45.47068444907489" lon="11.093831546879883"><ele>333.40000000000003</ele><time>2026-04-18T07:39:17Z</time></trkpt><trkpt lat="45.4707766004183" lon="11.09375858063177"><ele>337.0</ele><time>2026-04-18T07:39:18Z</time></trkpt><trkpt lat="45.47085546468207" lon="11.093680545591058"><ele>337.0</ele><time>2026-04-18T07:39:19Z</time></trkpt><trkpt lat="45.470921637169795" lon="11.0936033837385"><ele>337.0</ele><time>2026-04-18T07:39:21Z</time></trkpt><trkpt lat="45.47099183706273" lon="11.093443036068802"><ele>337.0</ele><time>2026-04-18T07:39:22.999Z</time></trkpt><trkpt lat="45.47104797830615" lon="11.093324524518726"><ele>337.0</ele><time>2026-04-18T07:39:24.999Z</time></trkpt><trkpt lat="45.47105889332943" lon="11.093147100262467"><ele>337.0</ele><time>2026-04-18T07:39:26.999Z</time></trkpt><trkpt lat="45.47110451803098" lon="11.09305638448411"><ele>338.20000000000005</ele><time>2026-04-18T07:39:28.999Z</time></trkpt><trkpt lat="45.47115440729746" lon="11.092943023205269"><ele>339.4</ele><time>2026-04-18T07:39:30.999Z</time></trkpt><trkpt lat="45.47118902521353" lon="11.092855140966178"><ele>340.6</ele><time>2026-04-18T07:39:31.999Z</time></trkpt><trkpt lat="45.47125092939798" lon="11.092736433050026"><ele>341.79999999999995</ele><time>2026-04-18T07:39:33.999Z</time></trkpt><trkpt lat="45.471291505098115" lon="11.092667681619195"><ele>343.0</ele><time>2026-04-18T07:39:34.999Z</time></trkpt><trkpt lat="45.471348834585314" lon="11.092497938772576"><ele>341.59999999999997</ele><time>2026-04-18T07:39:36.999Z</time></trkpt><trkpt lat="45.47137105588247" lon="11.092351776638214"><ele>340.2</ele><time>2026-04-18T07:39:38.999Z</time></trkpt><trkpt lat="45.47134445233334" lon="11.092236689248729"><ele>338.8</ele><time>2026-04-18T07:39:40.999Z</time></trkpt><trkpt lat="45.47123900720291" lon="11.092110598947333"><ele>337.4</ele><time>2026-04-18T07:39:42.999Z</time></trkpt><trkpt lat="45.47120084818935" lon="11.091990144588717"><ele>336.0</ele><time>2026-04-18T07:39:44.999Z</time></trkpt><trkpt lat="45.47126825950723" lon="11.091860857433977"><ele>336.0</ele><time>2026-04-18T07:39:46.999Z</time></trkpt><trkpt lat="45.47130639747858" lon="11.09176180488865"><ele>336.0</ele><time>2026-04-18T07:39:48.999Z</time></trkpt><trkpt lat="45.47123125439864" lon="11.091774816951363"><ele>336.0</ele><time>2026-04-18T07:39:54.999Z</time></trkpt><trkpt lat="45.471176485989155" lon="11.091829765696705"><ele>336.0</ele><time>2026-04-18T07:39:56.999Z</time></trkpt><trkpt lat="45.47112002045497" lon="11.091948671140292"><ele>336.0</ele><time>2026-04-18T07:39:58.999Z</time></trkpt><trkpt lat="45.47103938046791" lon="11.09205232585479"><ele>336.0</ele><time>2026-04-18T07:40:00.999Z</time></trkpt><trkpt lat="45.47096520547304" lon="11.092075545058599"><ele>339.8</ele><time>2026-04-18T07:40:02.999Z</time></trkpt><trkpt lat="45.47089007369172" lon="11.092040771189133"><ele>343.6</ele><time>2026-04-18T07:40:03.999Z</time></trkpt><trkpt lat="45.4708142092828" lon="11.091981335631976"><ele>347.4</ele><time>2026-04-18T07:40:04.999Z</time></trkpt><trkpt lat="45.470700036496076" lon="11.092028834153153"><ele>351.2</ele><time>2026-04-18T07:40:06.999Z</time></trkpt><trkpt lat="45.47061592359215" lon="11.092122313732489"><ele>355.0</ele><time>2026-04-18T07:40:07.999Z</time></trkpt><trkpt lat="45.47051740883712" lon="11.092230274798535"><ele>354.5</ele><time>2026-04-18T07:40:08.999Z</time></trkpt><trkpt lat="45.47041878988415" lon="11.09230692067537"><ele>354.0</ele><time>2026-04-18T07:40:09.999Z</time></trkpt><trkpt lat="45.47030411778602" lon="11.092365197084801"><ele>353.5</ele><time>2026-04-18T07:40:10.999Z</time></trkpt><trkpt lat="45.47017705515548" lon="11.092410021651684"><ele>353.0</ele><time>2026-04-18T07:40:11.999Z</time></trkpt><trkpt lat="45.47004485284523" lon="11.092448592533303"><ele>353.0</ele><time>2026-04-18T07:40:12.999Z</time></trkpt><trkpt lat="45.469902545593094" lon="11.092476660548414"><ele>353.0</ele><time>2026-04-18T07:40:13.999Z</time></trkpt><trkpt lat="45.46975884592851" lon="11.092487783305428"><ele>353.0</ele><time>2026-04-18T07:40:14.999Z</time></trkpt><trkpt lat="45.46962769135119" lon="11.09250725874204"><ele>353.0</ele><time>2026-04-18T07:40:16Z</time></trkpt><trkpt lat="45.46949713111804" lon="11.092570259516842"><ele>353.5</ele><time>2026-04-18T07:40:17Z</time></trkpt><trkpt lat="45.469375042379845" lon="11.092665667823638"><ele>354.0</ele><time>2026-04-18T07:40:18Z</time></trkpt><trkpt lat="45.46924509008133" lon="11.092750943928618"><ele>354.5</ele><time>2026-04-18T07:40:19Z</time></trkpt><trkpt lat="45.469114826671074" lon="11.092830150054025"><ele>355.0</ele><time>2026-04-18T07:40:20Z</time></trkpt><trkpt lat="45.46898914933602" lon="11.092897573963459"><ele>355.0</ele><time>2026-04-18T07:40:21Z</time></trkpt><trkpt lat="45.4688859632143" lon="11.092952751978986"><ele>355.0</ele><time>2026-04-18T07:40:22Z</time></trkpt><trkpt lat="45.468820043162836" lon="11.092982328660467"><ele>355.0</ele><time>2026-04-18T07:40:23Z</time></trkpt><trkpt lat="45.46877307953113" lon="11.09291264461196"><ele>355.0</ele><time>2026-04-18T07:40:25Z</time></trkpt><trkpt lat="45.46873057768948" lon="11.092733133197594"><ele>355.0</ele><time>2026-04-18T07:40:27Z</time></trkpt><trkpt lat="45.46870065855787" lon="11.092624631246975"><ele>354.75</ele><time>2026-04-18T07:40:28Z</time></trkpt><trkpt lat="45.46866361761001" lon="11.092493728087131"><ele>354.5</ele><time>2026-04-18T07:40:29Z</time></trkpt><trkpt lat="45.468606960675544" lon="11.092351865511136"><ele>354.25</ele><time>2026-04-18T07:40:30Z</time></trkpt><trkpt lat="45.46854234246572" lon="11.092175766319198"><ele>354.0</ele><time>2026-04-18T07:40:31Z</time></trkpt><trkpt lat="45.46848920673617" lon="11.092017945787488"><ele>354.0</ele><time>2026-04-18T07:40:32Z</time></trkpt><trkpt lat="45.468446547112634" lon="11.091890777079652"><ele>354.0</ele><time>2026-04-18T07:40:33Z</time></trkpt><trkpt lat="45.468400349287684" lon="11.091777717256937"><ele>354.0</ele><time>2026-04-18T07:40:35Z</time></trkpt><trkpt lat="45.46828331324085" lon="11.091797902120788"><ele>354.0</ele><time>2026-04-18T07:40:37Z</time></trkpt><trkpt lat="45.468168074427" lon="11.091829961930236"><ele>354.0</ele><time>2026-04-18T07:40:38Z</time></trkpt><trkpt lat="45.468060190485964" lon="11.09184065176482"><ele>354.0</ele><time>2026-04-18T07:40:39Z</time></trkpt><trkpt lat="45.467961709861484" lon="11.091852015268275"><ele>354.0</ele><time>2026-04-18T07:40:40Z</time></trkpt><trkpt lat="45.46787780524245" lon="11.091857948051635"><ele>354.0</ele><time>2026-04-18T07:40:41Z</time></trkpt><trkpt lat="45.46779719845097" lon="11.091868947377701"><ele>354.0</ele><time>2026-04-18T07:40:42Z</time></trkpt><trkpt lat="45.467836640183194" lon="11.091740702696367"><ele>354.0</ele><time>2026-04-18T07:40:46Z</time></trkpt><trkpt lat="45.46790572126944" lon="11.091706547823103"><ele>354.0</ele><time>2026-04-18T07:40:47Z</time></trkpt><trkpt lat="45.46796037228449" lon="11.091622113491598"><ele>352.79999999999995</ele><time>2026-04-18T07:40:48Z</time></trkpt><trkpt lat="45.468046023740094" lon="11.091572025605375"><ele>351.59999999999997</ele><time>2026-04-18T07:40:49Z</time></trkpt><trkpt lat="45.46813500088595" lon="11.091525325417818"><ele>350.4</ele><time>2026-04-18T07:40:50Z</time></trkpt><trkpt lat="45.468221551687684" lon="11.091436504874753"><ele>349.2</ele><time>2026-04-18T07:40:51Z</time></trkpt><trkpt lat="45.46831445592343" lon="11.091328283651247"><ele>348.0</ele><time>2026-04-18T07:40:52Z</time></trkpt><trkpt lat="45.468399032240306" lon="11.091208557376145"><ele>348.0</ele><time>2026-04-18T07:40:53Z</time></trkpt><trkpt lat="45.46848535750475" lon="11.091137886238831"><ele>348.0</ele><time>2026-04-18T07:40:54Z</time></trkpt><trkpt lat="45.46856611403879" lon="11.09108046321462"><ele>348.0</ele><time>2026-04-18T07:40:55Z</time></trkpt><trkpt lat="45.46862840961532" lon="11.090970052379133"><ele>348.0</ele><time>2026-04-18T07:40:56Z</time></trkpt><trkpt lat="45.46869878700855" lon="11.09087339611362"><ele>348.0</ele><time>2026-04-18T07:40:57Z</time></trkpt><trkpt lat="45.46875628255801" lon="11.090767617691697"><ele>347.79999999999995</ele><time>2026-04-18T07:40:58Z</time></trkpt><trkpt lat="45.46883852526932" lon="11.090673073305563"><ele>347.6</ele><time>2026-04-18T07:40:59Z</time></trkpt><trkpt lat="45.4689199496506" lon="11.09056072529766"><ele>347.4</ele><time>2026-04-18T07:41:00Z</time></trkpt><trkpt lat="45.46900741254703" lon="11.090448940238922"><ele>347.20000000000005</ele><time>2026-04-18T07:41:01Z</time></trkpt><trkpt lat="45.46908384598543" lon="11.090333355543637"><ele>347.0</ele><time>2026-04-18T07:41:02Z</time></trkpt><trkpt lat="45.469127946770875" lon="11.090186950622167"><ele>347.0</ele><time>2026-04-18T07:41:03Z</time></trkpt><trkpt lat="45.46919746486147" lon="11.090084012270792"><ele>347.0</ele><time>2026-04-18T07:41:04Z</time></trkpt><trkpt lat="45.46926887874291" lon="11.0899619952911"><ele>347.0</ele><time>2026-04-18T07:41:05Z</time></trkpt><trkpt lat="45.46934410091124" lon="11.089842511924996"><ele>347.0</ele><time>2026-04-18T07:41:06Z</time></trkpt><trkpt lat="45.46943491521155" lon="11.089723809065658"><ele>347.0</ele><time>2026-04-18T07:41:07Z</time></trkpt><trkpt lat="45.46953140227679" lon="11.08961896163848"><ele>347.25</ele><time>2026-04-18T07:41:08Z</time></trkpt><trkpt lat="45.469621301001254" lon="11.08948933264863"><ele>347.5</ele><time>2026-04-18T07:41:09Z</time></trkpt><trkpt lat="45.46971502105521" lon="11.089389676742012"><ele>347.75</ele><time>2026-04-18T07:41:10Z</time></trkpt><trkpt lat="45.46979783680391" lon="11.089276632877741"><ele>348.0</ele><time>2026-04-18T07:41:11Z</time></trkpt><trkpt lat="45.46988685631443" lon="11.089177936845427"><ele>346.2</ele><time>2026-04-18T07:41:12Z</time></trkpt><trkpt lat="45.46995365335593" lon="11.08905843587501"><ele>344.4</ele><time>2026-04-18T07:41:13Z</time></trkpt><trkpt lat="45.46999729645047" lon="11.088939360820662"><ele>342.59999999999997</ele><time>2026-04-18T07:41:14Z</time></trkpt><trkpt lat="45.47003940620363" lon="11.088837271098484"><ele>340.79999999999995</ele><time>2026-04-18T07:41:15Z</time></trkpt><trkpt lat="45.470062115708565" lon="11.08872516258233"><ele>339.0</ele><time>2026-04-18T07:41:16Z</time></trkpt><trkpt lat="45.47006267992484" lon="11.08859401128321"><ele>339.0</ele><time>2026-04-18T07:41:17Z</time></trkpt><trkpt lat="45.470095824583424" lon="11.08843475407049"><ele>339.0</ele><time>2026-04-18T07:41:18Z</time></trkpt><trkpt lat="45.47013920676239" lon="11.088287433840652"><ele>339.0</ele><time>2026-04-18T07:41:19Z</time></trkpt><trkpt lat="45.4702179397743" lon="11.088121534634778"><ele>339.0</ele><time>2026-04-18T07:41:20Z</time></trkpt><trkpt lat="45.47027046508589" lon="11.087923347632463"><ele>339.6</ele><time>2026-04-18T07:41:21Z</time></trkpt><trkpt lat="45.47034430050045" lon="11.087750302246869"><ele>340.2</ele><time>2026-04-18T07:41:22Z</time></trkpt><trkpt lat="45.470405785218624" lon="11.087602167733971"><ele>340.8</ele><time>2026-04-18T07:41:23Z</time></trkpt><trkpt lat="45.47045525547115" lon="11.087488238792897"><ele>341.40000000000003</ele><time>2026-04-18T07:41:24Z</time></trkpt><trkpt lat="45.4705087694341" lon="11.087386822874981"><ele>342.0</ele><time>2026-04-18T07:41:25Z</time></trkpt><trkpt lat="45.470576519241064" lon="11.087319765397893"><ele>342.0</ele><time>2026-04-18T07:41:26Z</time></trkpt><trkpt lat="45.470649260141215" lon="11.08728909899325"><ele>342.0</ele><time>2026-04-18T07:41:27Z</time></trkpt><trkpt lat="45.47071232036854" lon="11.087289663053276"><ele>342.0</ele><time>2026-04-18T07:41:28Z</time></trkpt><trkpt lat="45.47081451790457" lon="11.08731908493905"><ele>342.0</ele><time>2026-04-18T07:41:30Z</time></trkpt><trkpt lat="45.470915286833595" lon="11.087372346022088"><ele>342.0</ele><time>2026-04-18T07:41:32Z</time></trkpt><trkpt lat="45.47098179826093" lon="11.087386544166934"><ele>342.0</ele><time>2026-04-18T07:41:33Z</time></trkpt><trkpt lat="45.47106156611732" lon="11.087400389168723"><ele>342.0</ele><time>2026-04-18T07:41:34Z</time></trkpt><trkpt lat="45.47116282509719" lon="11.087400196529337"><ele>342.0</ele><time>2026-04-18T07:41:35Z</time></trkpt><trkpt lat="45.47126036766228" lon="11.08743963515471"><ele>342.0</ele><time>2026-04-18T07:41:36Z</time></trkpt><trkpt lat="45.471372466675845" lon="11.087456392133198"><ele>342.0</ele><time>2026-04-18T07:41:37Z</time></trkpt><trkpt lat="45.471479888425904" lon="11.08750101463265"><ele>342.0</ele><time>2026-04-18T07:41:38Z</time></trkpt><trkpt lat="45.471593834164054" lon="11.087536899415127"><ele>344.0</ele><time>2026-04-18T07:41:39Z</time></trkpt><trkpt lat="45.47171043185483" lon="11.08756551444599"><ele>346.0</ele><time>2026-04-18T07:41:40Z</time></trkpt><trkpt lat="45.471824383276775" lon="11.08759347982921"><ele>348.0</ele><time>2026-04-18T07:41:41Z</time></trkpt><trkpt lat="45.47193923480825" lon="11.087621666085822"><ele>350.0</ele><time>2026-04-18T07:41:42Z</time></trkpt><trkpt lat="45.47204974581172" lon="11.087648787152693"><ele>350.25</ele><time>2026-04-18T07:41:43Z</time></trkpt><trkpt lat="45.472166316599186" lon="11.087641057312178"><ele>350.5</ele><time>2026-04-18T07:41:44Z</time></trkpt><trkpt lat="45.472281685175325" lon="11.087677172576635"><ele>350.75</ele><time>2026-04-18T07:41:45Z</time></trkpt><trkpt lat="45.472387429824394" lon="11.087713103798597"><ele>351.0</ele><time>2026-04-18T07:41:46Z</time></trkpt><trkpt lat="45.47249580765999" lon="11.087752434822292"><ele>351.0</ele><time>2026-04-18T07:41:47Z</time></trkpt><trkpt lat="45.47259863877344" lon="11.087784088590524"><ele>351.0</ele><time>2026-04-18T07:41:47.999Z</time></trkpt><trkpt lat="45.472705816617804" lon="11.08779958875277"><ele>351.0</ele><time>2026-04-18T07:41:48.999Z</time></trkpt><trkpt lat="45.472810370170265" lon="11.087820462763121"><ele>351.0</ele><time>2026-04-18T07:41:49.999Z</time></trkpt><trkpt lat="45.47290531405787" lon="11.087855125162921"><ele>351.0</ele><time>2026-04-18T07:41:50.999Z</time></trkpt><trkpt lat="45.473003882468944" lon="11.087902050424534"><ele>351.25</ele><time>2026-04-18T07:41:51.999Z</time></trkpt><trkpt lat="45.47311173090694" lon="11.087947810847158"><ele>351.5</ele><time>2026-04-18T07:41:52.999Z</time></trkpt><trkpt lat="45.473218407696976" lon="11.087990989075209"><ele>351.75</ele><time>2026-04-18T07:41:53.999Z</time></trkpt><trkpt lat="45.47332873697036" lon="11.088012654266004"><ele>352.0</ele><time>2026-04-18T07:41:54.999Z</time></trkpt><trkpt lat="45.47344455982532" lon="11.0880506598068"><ele>352.0</ele><time>2026-04-18T07:41:55.999Z</time></trkpt><trkpt lat="45.47356692861528" lon="11.088094676962182"><ele>352.0</ele><time>2026-04-18T07:41:56.999Z</time></trkpt><trkpt lat="45.47369579258059" lon="11.088134559517261"><ele>352.0</ele><time>2026-04-18T07:41:57.999Z</time></trkpt><trkpt lat="45.47383190738204" lon="11.088180648792923"><ele>352.0</ele><time>2026-04-18T07:41:58.999Z</time></trkpt><trkpt lat="45.473964716501165" lon="11.088219155967188"><ele>352.75</ele><time>2026-04-18T07:41:59.999Z</time></trkpt><trkpt lat="45.4740948547739" lon="11.088269427477957"><ele>353.5</ele><time>2026-04-18T07:42:00.999Z</time></trkpt><trkpt lat="45.47422015465668" lon="11.088323454724167"><ele>354.25</ele><time>2026-04-18T07:42:01.999Z</time></trkpt><trkpt lat="45.47435195614285" lon="11.088373508818808"><ele>355.0</ele><time>2026-04-18T07:42:02.999Z</time></trkpt><trkpt lat="45.47447305136378" lon="11.088412870694548"><ele>355.0</ele><time>2026-04-18T07:42:03.999Z</time></trkpt><trkpt lat="45.474598286264" lon="11.08845235046231"><ele>355.0</ele><time>2026-04-18T07:42:04.999Z</time></trkpt><trkpt lat="45.474712747492774" lon="11.088487584045756"><ele>355.0</ele><time>2026-04-18T07:42:05.999Z</time></trkpt><trkpt lat="45.474825740353985" lon="11.08852224212266"><ele>355.0</ele><time>2026-04-18T07:42:06.999Z</time></trkpt><trkpt lat="45.47493175346415" lon="11.088556547908068"><ele>356.0</ele><time>2026-04-18T07:42:07.999Z</time></trkpt><trkpt lat="45.47504315541134" lon="11.088596826834047"><ele>357.0</ele><time>2026-04-18T07:42:08.999Z</time></trkpt><trkpt lat="45.475155850389115" lon="11.088642606868962"><ele>358.0</ele><time>2026-04-18T07:42:09.999Z</time></trkpt><trkpt lat="45.475270458521585" lon="11.088682814535765"><ele>359.0</ele><time>2026-04-18T07:42:10.999Z</time></trkpt><trkpt lat="45.47538196604021" lon="11.088718465210437"><ele>360.25</ele><time>2026-04-18T07:42:11.999Z</time></trkpt><trkpt lat="45.47549335873989" lon="11.088761043469287"><ele>361.5</ele><time>2026-04-18T07:42:12.999Z</time></trkpt><trkpt lat="45.47561460726525" lon="11.088803492970904"><ele>362.75</ele><time>2026-04-18T07:42:13.999Z</time></trkpt><trkpt lat="45.47573563605573" lon="11.088850880168023"><ele>364.0</ele><time>2026-04-18T07:42:14.999Z</time></trkpt><trkpt lat="45.47584605017435" lon="11.08889954478675"><ele>364.0</ele><time>2026-04-18T07:42:15.999Z</time></trkpt><trkpt lat="45.47595292875119" lon="11.088924645796823"><ele>364.0</ele><time>2026-04-18T07:42:16.999Z</time></trkpt><trkpt lat="45.47606259761699" lon="11.088944750526258"><ele>364.0</ele><time>2026-04-18T07:42:17.999Z</time></trkpt><trkpt lat="45.476178454203996" lon="11.088955857062025"><ele>364.0</ele><time>2026-04-18T07:42:18.999Z</time></trkpt><trkpt lat="45.47629435759291" lon="11.08894929372593"><ele>363.6</ele><time>2026-04-18T07:42:19.999Z</time></trkpt><trkpt lat="45.476400365415216" lon="11.088928676891618"><ele>363.2</ele><time>2026-04-18T07:42:20.999Z</time></trkpt><trkpt lat="45.476495685668915" lon="11.088919129930787"><ele>362.8</ele><time>2026-04-18T07:42:22Z</time></trkpt><trkpt lat="45.476597768748405" lon="11.08893436971352"><ele>362.40000000000003</ele><time>2026-04-18T07:42:23Z</time></trkpt><trkpt lat="45.47670385583813" lon="11.088946323474413"><ele>362.0</ele><time>2026-04-18T07:42:24Z</time></trkpt><trkpt lat="45.47679963309731" lon="11.088939702655612"><ele>362.0</ele><time>2026-04-18T07:42:25Z</time></trkpt><trkpt lat="45.47690177522921" lon="11.088917183974855"><ele>362.0</ele><time>2026-04-18T07:42:26Z</time></trkpt><trkpt lat="45.47698783652548" lon="11.088873578816985"><ele>362.0</ele><time>2026-04-18T07:42:27Z</time></trkpt><trkpt lat="45.47706895246756" lon="11.088828692351147"><ele>362.0</ele><time>2026-04-18T07:42:28Z</time></trkpt><trkpt lat="45.47714673465076" lon="11.088776833930307"><ele>362.0</ele><time>2026-04-18T07:42:29Z</time></trkpt><trkpt lat="45.47722539753202" lon="11.088730888410819"><ele>360.1666666666667</ele><time>2026-04-18T07:42:30Z</time></trkpt><trkpt lat="45.47730379922712" lon="11.088697633624733"><ele>358.33333333333337</ele><time>2026-04-18T07:42:31Z</time></trkpt><trkpt lat="45.47738053630208" lon="11.088667509858015"><ele>356.5</ele><time>2026-04-18T07:42:32Z</time></trkpt><trkpt lat="45.477460309617086" lon="11.0886386361425"><ele>354.6666666666667</ele><time>2026-04-18T07:42:33Z</time></trkpt><trkpt lat="45.477533905539865" lon="11.088614875032704"><ele>352.8333333333333</ele><time>2026-04-18T07:42:34Z</time></trkpt><trkpt lat="45.477611260471214" lon="11.088601075259724"><ele>351.0</ele><time>2026-04-18T07:42:35Z</time></trkpt><trkpt lat="45.4776839905514" lon="11.08859716104067"><ele>351.0</ele><time>2026-04-18T07:42:36Z</time></trkpt><trkpt lat="45.47775795372262" lon="11.088588831906758"><ele>351.0</ele><time>2026-04-18T07:42:37Z</time></trkpt><trkpt lat="45.47787042666874" lon="11.088604739144195"><ele>351.0</ele><time>2026-04-18T07:42:39Z</time></trkpt><trkpt lat="45.477962738085274" lon="11.088627127905271"><ele>351.0</ele><time>2026-04-18T07:42:41Z</time></trkpt><trkpt lat="45.47802603090374" lon="11.088616529144117"><ele>351.0</ele><time>2026-04-18T07:42:43Z</time></trkpt><trkpt lat="45.47798379051578" lon="11.088546386124976"><ele>351.0</ele><time>2026-04-18T07:42:46Z</time></trkpt><trkpt lat="45.47800045674085" lon="11.088657613482356"><ele>349.8</ele><time>2026-04-18T07:42:50Z</time></trkpt><trkpt lat="45.47813986619732" lon="11.088668296572637"><ele>348.6</ele><time>2026-04-18T07:42:52Z</time></trkpt><trkpt lat="45.47822063568247" lon="11.08870961088305"><ele>347.4</ele><time>2026-04-18T07:42:53Z</time></trkpt><trkpt lat="45.478310106635874" lon="11.088749577001039"><ele>346.2</ele><time>2026-04-18T07:42:54Z</time></trkpt><trkpt lat="45.478425322607535" lon="11.08879366265808"><ele>345.0</ele><time>2026-04-18T07:42:55Z</time></trkpt><trkpt lat="45.47854077894142" lon="11.088838654683537"><ele>345.0</ele><time>2026-04-18T07:42:56Z</time></trkpt><trkpt lat="45.47866965499468" lon="11.088885848913227"><ele>345.0</ele><time>2026-04-18T07:42:57Z</time></trkpt><trkpt lat="45.47879177207564" lon="11.08892909069274"><ele>345.0</ele><time>2026-04-18T07:42:58Z</time></trkpt><trkpt lat="45.47889534609119" lon="11.088970080051189"><ele>345.0</ele><time>2026-04-18T07:42:59Z</time></trkpt><trkpt lat="45.47898520271653" lon="11.089008714476165"><ele>345.4</ele><time>2026-04-18T07:43:00Z</time></trkpt><trkpt lat="45.47906845650821" lon="11.089042344313995"><ele>345.8</ele><time>2026-04-18T07:43:01Z</time></trkpt><trkpt lat="45.47915852455816" lon="11.089073217083957"><ele>346.20000000000005</ele><time>2026-04-18T07:43:02Z</time></trkpt><trkpt lat="45.47923400475168" lon="11.089098911130854"><ele>346.6</ele><time>2026-04-18T07:43:03Z</time></trkpt><trkpt lat="45.479300181637804" lon="11.089123235739299"><ele>347.0</ele><time>2026-04-18T07:43:04Z</time></trkpt><trkpt lat="45.47942938777331" lon="11.089126249021415"><ele>347.0</ele><time>2026-04-18T07:43:06Z</time></trkpt><trkpt lat="45.47951697380987" lon="11.089091894066406"><ele>347.0</ele><time>2026-04-18T07:43:08Z</time></trkpt><trkpt lat="45.479618552577584" lon="11.08907505262388"><ele>347.0</ele><time>2026-04-18T07:43:11Z</time></trkpt><trkpt lat="45.47968673952782" lon="11.089091152935008"><ele>347.0</ele><time>2026-04-18T07:43:12Z</time></trkpt><trkpt lat="45.479757637410636" lon="11.089090381760565"><ele>347.0</ele><time>2026-04-18T07:43:13Z</time></trkpt><trkpt lat="45.47985311705724" lon="11.08907052021986"><ele>347.0</ele><time>2026-04-18T07:43:14Z</time></trkpt><trkpt lat="45.4799641621019" lon="11.08905324163017"><ele>346.6</ele><time>2026-04-18T07:43:15Z</time></trkpt><trkpt lat="45.48006433230536" lon="11.089044881981753"><ele>346.20000000000005</ele><time>2026-04-18T07:43:16Z</time></trkpt><trkpt lat="45.48017008579788" lon="11.089035801177527"><ele>345.8</ele><time>2026-04-18T07:43:17Z</time></trkpt><trkpt lat="45.480269417758805" lon="11.089031097981266"><ele>345.4</ele><time>2026-04-18T07:43:18Z</time></trkpt><trkpt lat="45.48035937068437" lon="11.089025093032655"><ele>345.0</ele><time>2026-04-18T07:43:19Z</time></trkpt><trkpt lat="45.48044488441945" lon="11.089010326285461"><ele>344.4</ele><time>2026-04-18T07:43:20Z</time></trkpt><trkpt lat="45.480542866794714" lon="11.089002625252977"><ele>343.8</ele><time>2026-04-18T07:43:21Z</time></trkpt><trkpt lat="45.480647278821266" lon="11.088992679077558"><ele>343.20000000000005</ele><time>2026-04-18T07:43:22Z</time></trkpt><trkpt lat="45.48074871336069" lon="11.088987525474321"><ele>342.6</ele><time>2026-04-18T07:43:23Z</time></trkpt><trkpt lat="45.48085909520966" lon="11.088983826991857"><ele>342.0</ele><time>2026-04-18T07:43:24Z</time></trkpt><trkpt lat="45.48096709369525" lon="11.088970323304924"><ele>342.0</ele><time>2026-04-18T07:43:25Z</time></trkpt><trkpt lat="45.481070335219144" lon="11.088954865212868"><ele>342.0</ele><time>2026-04-18T07:43:26Z</time></trkpt><trkpt lat="45.48115997099044" lon="11.08895531823127"><ele>342.0</ele><time>2026-04-18T07:43:27Z</time></trkpt><trkpt lat="45.48124319706361" lon="11.08894892969705"><ele>342.0</ele><time>2026-04-18T07:43:28Z</time></trkpt><trkpt lat="45.48131292113668" lon="11.088947367672514"><ele>342.0</ele><time>2026-04-18T07:43:29Z</time></trkpt><trkpt lat="45.481376199639044" lon="11.088940087717976"><ele>342.0</ele><time>2026-04-18T07:43:30Z</time></trkpt><trkpt lat="45.48146734331774" lon="11.088941031933684"><ele>342.3333333333333</ele><time>2026-04-18T07:43:32Z</time></trkpt><trkpt lat="45.48154019837424" lon="11.088842522648397"><ele>342.6666666666667</ele><time>2026-04-18T07:43:35Z</time></trkpt><trkpt lat="45.48157804962946" lon="11.08873685685529"><ele>343.0</ele><time>2026-04-18T07:43:36Z</time></trkpt><trkpt lat="45.481601521977645" lon="11.088615019057556"><ele>343.33333333333337</ele><time>2026-04-18T07:43:37Z</time></trkpt><trkpt lat="45.48160821998098" lon="11.088508201269304"><ele>343.6666666666667</ele><time>2026-04-18T07:43:38Z</time></trkpt><trkpt lat="45.48164685359681" lon="11.088384862458062"><ele>344.0</ele><time>2026-04-18T07:43:40Z</time></trkpt><trkpt lat="45.48174054586156" lon="11.088379147953537"><ele>344.0</ele><time>2026-04-18T07:43:42Z</time></trkpt><trkpt lat="45.48180072781685" lon="11.088417052098329"><ele>344.0</ele><time>2026-04-18T07:43:43Z</time></trkpt><trkpt lat="45.481903651799286" lon="11.088486224938105"><ele>344.0</ele><time>2026-04-18T07:43:45Z</time></trkpt><trkpt lat="45.481971671877886" lon="11.088402148882114"><ele>344.0</ele><time>2026-04-18T07:43:48Z</time></trkpt><trkpt lat="45.48185775075072" lon="11.08829406815284"><ele>344.0</ele><time>2026-04-18T07:43:50Z</time></trkpt><trkpt lat="45.481789551808085" lon="11.088209387489085"><ele>341.4</ele><time>2026-04-18T07:43:51Z</time></trkpt><trkpt lat="45.48170412494312" lon="11.08815427758582"><ele>338.79999999999995</ele><time>2026-04-18T07:43:52Z</time></trkpt><trkpt lat="45.4816126895889" lon="11.08811600289332"><ele>336.20000000000005</ele><time>2026-04-18T07:43:53Z</time></trkpt><trkpt lat="45.48151257619733" lon="11.08811134709272"><ele>333.6</ele><time>2026-04-18T07:43:54Z</time></trkpt><trkpt lat="45.48142128140087" lon="11.088117813802892"><ele>331.0</ele><time>2026-04-18T07:43:55Z</time></trkpt><trkpt lat="45.481324712672105" lon="11.08812317616624"><ele>330.16666666666663</ele><time>2026-04-18T07:43:56Z</time></trkpt><trkpt lat="45.48123037735719" lon="11.088115979102911"><ele>329.3333333333333</ele><time>2026-04-18T07:43:57Z</time></trkpt><trkpt lat="45.48115748154818" lon="11.088130215056932"><ele>328.5</ele><time>2026-04-18T07:43:58Z</time></trkpt><trkpt lat="45.48107253718686" lon="11.088151922268931"><ele>327.6666666666667</ele><time>2026-04-18T07:44:00Z</time></trkpt><trkpt lat="45.4810354610796" lon="11.088022003799615"><ele>326.83333333333337</ele><time>2026-04-18T07:44:02Z</time></trkpt><trkpt lat="45.48109659003102" lon="11.087925451437956"><ele>326.0</ele><time>2026-04-18T07:44:03Z</time></trkpt><trkpt lat="45.48113674312407" lon="11.087799858723491"><ele>326.0</ele><time>2026-04-18T07:44:04Z</time></trkpt><trkpt lat="45.48116875084421" lon="11.087664650132215"><ele>326.0</ele><time>2026-04-18T07:44:05Z</time></trkpt><trkpt lat="45.48117263184696" lon="11.08752733899268"><ele>326.0</ele><time>2026-04-18T07:44:06Z</time></trkpt><trkpt lat="45.48116189224762" lon="11.08738712843235"><ele>326.0</ele><time>2026-04-18T07:44:06.999Z</time></trkpt><trkpt lat="45.48113907234781" lon="11.087247904599645"><ele>326.0</ele><time>2026-04-18T07:44:07.999Z</time></trkpt><trkpt lat="45.48112551881495" lon="11.087121624575765"><ele>321.6</ele><time>2026-04-18T07:44:08.999Z</time></trkpt><trkpt lat="45.48112470940907" lon="11.086991686549787"><ele>317.20000000000005</ele><time>2026-04-18T07:44:09.999Z</time></trkpt><trkpt lat="45.481134394859865" lon="11.086858537371445"><ele>312.79999999999995</ele><time>2026-04-18T07:44:10.999Z</time></trkpt><trkpt lat="45.48115369384426" lon="11.086730942041386"><ele>308.4</ele><time>2026-04-18T07:44:11.999Z</time></trkpt><trkpt lat="45.481171992146486" lon="11.086594945548429"><ele>304.0</ele><time>2026-04-18T07:44:12.999Z</time></trkpt><trkpt lat="45.4811813413641" lon="11.086465988009568"><ele>300.66666666666663</ele><time>2026-04-18T07:44:13.999Z</time></trkpt><trkpt lat="45.48118931073732" lon="11.086348006773425"><ele>297.3333333333333</ele><time>2026-04-18T07:44:14.999Z</time></trkpt><trkpt lat="45.481204836697835" lon="11.0862287986432"><ele>294.0</ele><time>2026-04-18T07:44:15.999Z</time></trkpt><trkpt lat="45.48121507380074" lon="11.0861188995829"><ele>290.6666666666667</ele><time>2026-04-18T07:44:16.999Z</time></trkpt><trkpt lat="45.48122944873687" lon="11.085984437181423"><ele>287.33333333333337</ele><time>2026-04-18T07:44:17.999Z</time></trkpt><trkpt lat="45.48123030382582" lon="11.085844065132319"><ele>284.0</ele><time>2026-04-18T07:44:18.999Z</time></trkpt><trkpt lat="45.4812245639571" lon="11.085691556874426"><ele>282.2</ele><time>2026-04-18T07:44:19.999Z</time></trkpt><trkpt lat="45.481214370506734" lon="11.085533859939623"><ele>280.4</ele><time>2026-04-18T07:44:20.999Z</time></trkpt><trkpt lat="45.481190329565415" lon="11.085387237827806"><ele>278.6</ele><time>2026-04-18T07:44:21.999Z</time></trkpt><trkpt lat="45.48116233322351" lon="11.085238446105546"><ele>276.8</ele><time>2026-04-18T07:44:22.999Z</time></trkpt><trkpt lat="45.48113240265829" lon="11.085088665716173"><ele>275.0</ele><time>2026-04-18T07:44:23.999Z</time></trkpt><trkpt lat="45.48109790508578" lon="11.084945605283895"><ele>274.5</ele><time>2026-04-18T07:44:24.999Z</time></trkpt><trkpt lat="45.48105163261633" lon="11.084796466794613"><ele>274.0</ele><time>2026-04-18T07:44:25.999Z</time></trkpt><trkpt lat="45.48100136269579" lon="11.084646631020824"><ele>273.5</ele><time>2026-04-18T07:44:26.999Z</time></trkpt><trkpt lat="45.48095109435329" lon="11.084484953716718"><ele>273.0</ele><time>2026-04-18T07:44:28Z</time></trkpt><trkpt lat="45.480878152420665" lon="11.084353053623715"><ele>273.0</ele><time>2026-04-18T07:44:29Z</time></trkpt><trkpt lat="45.48083149079629" lon="11.084204504431543"><ele>273.0</ele><time>2026-04-18T07:44:30Z</time></trkpt><trkpt lat="45.480774316625705" lon="11.08408321827869"><ele>273.0</ele><time>2026-04-18T07:44:31Z</time></trkpt><trkpt lat="45.48073634988198" lon="11.083981974557013"><ele>273.0</ele><time>2026-04-18T07:44:32Z</time></trkpt><trkpt lat="45.480704747384344" lon="11.083887240992008"><ele>273.0</ele><time>2026-04-18T07:44:33Z</time></trkpt><trkpt lat="45.48068013451926" lon="11.083792784124283"><ele>273.0</ele><time>2026-04-18T07:44:34Z</time></trkpt><trkpt lat="45.480684213577206" lon="11.083699514972285"><ele>271.6666666666667</ele><time>2026-04-18T07:44:35Z</time></trkpt><trkpt lat="45.480716801829956" lon="11.083616772876455"><ele>270.3333333333333</ele><time>2026-04-18T07:44:36Z</time></trkpt><trkpt lat="45.48077647229885" lon="11.08355577627524"><ele>269.0</ele><time>2026-04-18T07:44:37Z</time></trkpt><trkpt lat="45.48085550326662" lon="11.08350252894362"><ele>267.66666666666663</ele><time>2026-04-18T07:44:38Z</time></trkpt><trkpt lat="45.480915499595405" lon="11.083459164059336"><ele>266.3333333333333</ele><time>2026-04-18T07:44:39Z</time></trkpt><trkpt lat="45.480939419575755" lon="11.083366880546507"><ele>265.0</ele><time>2026-04-18T07:44:41Z</time></trkpt><trkpt lat="45.4809731600934" lon="11.083252599252122"><ele>263.16666666666663</ele><time>2026-04-18T07:44:43Z</time></trkpt><trkpt lat="45.4809366744851" lon="11.083162458689443"><ele>261.3333333333333</ele><time>2026-04-18T07:44:44Z</time></trkpt><trkpt lat="45.48089617572039" lon="11.08306363720041"><ele>259.5</ele><time>2026-04-18T07:44:45Z</time></trkpt><trkpt lat="45.48083682234133" lon="11.082963981118931"><ele>257.6666666666667</ele><time>2026-04-18T07:44:46Z</time></trkpt><trkpt lat="45.480772179316695" lon="11.082861007798142"><ele>255.83333333333334</ele><time>2026-04-18T07:44:47Z</time></trkpt><trkpt lat="45.48071445071398" lon="11.082767292878474"><ele>254.0</ele><time>2026-04-18T07:44:48Z</time></trkpt><trkpt lat="45.48066893604721" lon="11.082676304596474"><ele>254.0</ele><time>2026-04-18T07:44:49Z</time></trkpt><trkpt lat="45.48062527019509" lon="11.082603568402192"><ele>254.0</ele><time>2026-04-18T07:44:50Z</time></trkpt><trkpt lat="45.480549340664105" lon="11.08247053993662"><ele>254.0</ele><time>2026-04-18T07:44:52Z</time></trkpt><trkpt lat="45.48050656391772" lon="11.082396166637736"><ele>254.0</ele><time>2026-04-18T07:44:54Z</time></trkpt><trkpt lat="45.48035360362507" lon="11.082574617017256"><ele>252.33333333333334</ele><time>2026-04-18T07:44:55Z</time></trkpt><trkpt lat="45.48031716119493" lon="11.08267040888757"><ele>250.66666666666669</ele><time>2026-04-18T07:44:56Z</time></trkpt><trkpt lat="45.48028781459159" lon="11.082770724000758"><ele>249.0</ele><time>2026-04-18T07:44:57Z</time></trkpt><trkpt lat="45.48025174469665" lon="11.08287497972842"><ele>247.33333333333331</ele><time>2026-04-18T07:44:58Z</time></trkpt><trkpt lat="45.480203457581126" lon="11.082970304739398"><ele>245.66666666666666</ele><time>2026-04-18T07:44:59Z</time></trkpt><trkpt lat="45.48016186232095" lon="11.08307261731596"><ele>244.0</ele><time>2026-04-18T07:45:00Z</time></trkpt><trkpt lat="45.48011009382679" lon="11.083172852314755"><ele>243.99999999999997</ele><time>2026-04-18T07:45:02Z</time></trkpt><trkpt lat="45.48001766786495" lon="11.0830181792538"><ele>244.0</ele><time>2026-04-18T07:45:07Z</time></trkpt><trkpt lat="45.47994258976744" lon="11.082982024560772"><ele>244.0</ele><time>2026-04-18T07:45:10Z</time></trkpt><trkpt lat="45.47987016141819" lon="11.083016777896786"><ele>244.0</ele><time>2026-04-18T07:45:14Z</time></trkpt><trkpt lat="45.479815344680084" lon="11.082947046908048"><ele>243.99999999999997</ele><time>2026-04-18T07:45:16Z</time></trkpt><trkpt lat="45.47975365895922" lon="11.082899442446134"><ele>244.0</ele><time>2026-04-18T07:45:18Z</time></trkpt><trkpt lat="45.47970246478024" lon="11.082827192325901"><ele>243.99999999999997</ele><time>2026-04-18T07:45:21Z</time></trkpt><trkpt lat="45.47963584797237" lon="11.082756979828485"><ele>244.0</ele><time>2026-04-18T07:45:25Z</time></trkpt><trkpt lat="45.47956541299515" lon="11.082644182327963"><ele>244.0</ele><time>2026-04-18T07:45:28Z</time></trkpt><trkpt lat="45.47951321577021" lon="11.082538111620508"><ele>244.0</ele><time>2026-04-18T07:45:31Z</time></trkpt><trkpt lat="45.479471175431804" lon="11.082436132226608"><ele>243.99999999999997</ele><time>2026-04-18T07:45:34Z</time></trkpt><trkpt lat="45.47945550276673" lon="11.0823462534764"><ele>244.0</ele><time>2026-04-18T07:45:36Z</time></trkpt><trkpt lat="45.47942619790863" lon="11.082254267859506"><ele>240.28571428571425</ele><time>2026-04-18T07:45:39Z</time></trkpt><trkpt lat="45.47937112091286" lon="11.08220784388711"><ele>236.57142857142856</ele><time>2026-04-18T07:45:41Z</time></trkpt><trkpt lat="45.47933940218127" lon="11.082128351896623"><ele>232.85714285714283</ele><time>2026-04-18T07:45:43Z</time></trkpt><trkpt lat="45.47929053973415" lon="11.08206128095992"><ele>229.1428571428571</ele><time>2026-04-18T07:45:45Z</time></trkpt><trkpt lat="45.479274763879864" lon="11.081964950046222"><ele>225.42857142857144</ele><time>2026-04-18T07:45:47Z</time></trkpt><trkpt lat="45.47923721601372" lon="11.081836936665503"><ele>221.71428571428572</ele><time>2026-04-18T07:45:50Z</time></trkpt><trkpt lat="45.47919671453876" lon="11.081731048179948"><ele>218.0</ele><time>2026-04-18T07:45:52Z</time></trkpt><trkpt lat="45.47915937215035" lon="11.081652422222245"><ele>218.00000000000003</ele><time>2026-04-18T07:45:55Z</time></trkpt><trkpt lat="45.47911999883325" lon="11.08177931935094"><ele>218.0</ele><time>2026-04-18T07:46:00Z</time></trkpt><trkpt lat="45.47914963811812" lon="11.081912933570386"><ele>218.0</ele><time>2026-04-18T07:46:02Z</time></trkpt><trkpt lat="45.47912425876025" lon="11.082042910886727"><ele>218.0</ele><time>2026-04-18T07:46:04Z</time></trkpt><trkpt lat="45.479151443256576" lon="11.082128175417727"><ele>218.00000000000003</ele><time>2026-04-18T07:46:05Z</time></trkpt><trkpt lat="45.4791619804679" lon="11.082230179760826"><ele>218.0</ele><time>2026-04-18T07:46:06Z</time></trkpt><trkpt lat="45.479155971463804" lon="11.082338156616979"><ele>218.33333333333334</ele><time>2026-04-18T07:46:08Z</time></trkpt><trkpt lat="45.47917851667521" lon="11.082450912315759"><ele>218.66666666666669</ele><time>2026-04-18T07:46:09.999Z</time></trkpt><trkpt lat="45.479205304202615" lon="11.082548982588667"><ele>219.0</ele><time>2026-04-18T07:46:10.999Z</time></trkpt><trkpt lat="45.4792031819999" lon="11.082685081866376"><ele>219.33333333333331</ele><time>2026-04-18T07:46:12.999Z</time></trkpt><trkpt lat="45.47917651369273" lon="11.082804035968959"><ele>219.66666666666666</ele><time>2026-04-18T07:46:14.999Z</time></trkpt><trkpt lat="45.47920567147347" lon="11.082930466919686"><ele>220.0</ele><time>2026-04-18T07:46:17.999Z</time></trkpt><trkpt lat="45.47921172374731" lon="11.08303213424512"><ele>219.99999999999997</ele><time>2026-04-18T07:46:19.999Z</time></trkpt><trkpt lat="45.47921324052633" lon="11.083153000193109"><ele>220.0</ele><time>2026-04-18T07:46:23.999Z</time></trkpt><trkpt lat="45.47914585169454" lon="11.083133424346881"><ele>220.0</ele><time>2026-04-18T07:46:29.999Z</time></trkpt><trkpt lat="45.4790926546855" lon="11.083071389952933"><ele>220.0</ele><time>2026-04-18T07:46:34Z</time></trkpt><trkpt lat="45.47907310205397" lon="11.082982413485347"><ele>219.99999999999997</ele><time>2026-04-18T07:47:49Z</time></trkpt><trkpt lat="45.47905373343302" lon="11.082834203527026"><ele>220.0</ele><time>2026-04-18T07:47:52Z</time></trkpt><trkpt lat="45.47905557862039" lon="11.082728524285518"><ele>219.99999999999997</ele><time>2026-04-18T07:47:54Z</time></trkpt><trkpt lat="45.47902293523201" lon="11.082583371922937"><ele>220.0</ele><time>2026-04-18T07:47:56Z</time></trkpt><trkpt lat="45.47899693365645" lon="11.082443258715767"><ele>220.0</ele><time>2026-04-18T07:47:58Z</time></trkpt><trkpt lat="45.47895765890262" lon="11.082371185747087"><ele>220.0</ele><time>2026-04-18T07:47:59Z</time></trkpt><trkpt lat="45.47895153386964" lon="11.082278186341185"><ele>219.99999999999997</ele><time>2026-04-18T07:48:00Z</time></trkpt><trkpt lat="45.47894542654417" lon="11.082154287513676"><ele>220.0</ele><time>2026-04-18T07:48:02Z</time></trkpt><trkpt lat="45.47887297941666" lon="11.082030248310469"><ele>219.6</ele><time>2026-04-18T07:48:04Z</time></trkpt><trkpt lat="45.47883101036218" lon="11.08185776838727"><ele>219.2</ele><time>2026-04-18T07:48:06Z</time></trkpt><trkpt lat="45.47875308037572" lon="11.081720471297755"><ele>218.8</ele><time>2026-04-18T07:48:08Z</time></trkpt><trkpt lat="45.47869856296028" lon="11.081642287577953"><ele>218.4</ele><time>2026-04-18T07:48:09Z</time></trkpt><trkpt lat="45.47863033483383" lon="11.081571504644435"><ele>218.0</ele><time>2026-04-18T07:48:11Z</time></trkpt><trkpt lat="45.47856277048322" lon="11.08148008681078"><ele>214.83333333333334</ele><time>2026-04-18T07:48:13Z</time></trkpt><trkpt lat="45.478478124206156" lon="11.081467957345291"><ele>211.66666666666669</ele><time>2026-04-18T07:48:15Z</time></trkpt><trkpt lat="45.478508016865796" lon="11.08138194786268"><ele>208.5</ele><time>2026-04-18T07:48:17Z</time></trkpt><trkpt lat="45.478486956946966" lon="11.081261541575387"><ele>205.33333333333331</ele><time>2026-04-18T07:48:20Z</time></trkpt><trkpt lat="45.47840027794561" lon="11.081204973984839"><ele>202.16666666666666</ele><time>2026-04-18T07:48:22Z</time></trkpt><trkpt lat="45.47833380056144" lon="11.08109339040062"><ele>199.0</ele><time>2026-04-18T07:48:24.999Z</time></trkpt><trkpt lat="45.47820965718936" lon="11.081028497679084"><ele>198.99999999999997</ele><time>2026-04-18T07:48:26.999Z</time></trkpt><trkpt lat="45.47815188977387" lon="11.080974038863442"><ele>199.0</ele><time>2026-04-18T07:48:27.999Z</time></trkpt><trkpt lat="45.47808334341456" lon="11.08088915394577"><ele>199.0</ele><time>2026-04-18T07:48:28.999Z</time></trkpt><trkpt lat="45.47802817332129" lon="11.080808420489515"><ele>199.0</ele><time>2026-04-18T07:48:29.999Z</time></trkpt><trkpt lat="45.47797142344257" lon="11.080729179849383"><ele>198.99999999999997</ele><time>2026-04-18T07:48:30.999Z</time></trkpt><trkpt lat="45.477913862417445" lon="11.080666836854151"><ele>199.0</ele><time>2026-04-18T07:48:31.999Z</time></trkpt><trkpt lat="45.47785029712674" lon="11.080629611542891"><ele>196.66666666666666</ele><time>2026-04-18T07:48:32.999Z</time></trkpt><trkpt lat="45.47779069283989" lon="11.080582640298076"><ele>194.33333333333331</ele><time>2026-04-18T07:48:33.999Z</time></trkpt><trkpt lat="45.47766586384795" lon="11.080536700194537"><ele>192.0</ele><time>2026-04-18T07:48:35.999Z</time></trkpt><trkpt lat="45.47760368226453" lon="11.080509152987384"><ele>189.66666666666666</ele><time>2026-04-18T07:48:36.999Z</time></trkpt><trkpt lat="45.477536919081516" lon="11.08043600789995"><ele>187.33333333333331</ele><time>2026-04-18T07:48:38.999Z</time></trkpt><trkpt lat="45.47744320551908" lon="11.080463712496142"><ele>185.0</ele><time>2026-04-18T07:48:40.999Z</time></trkpt><trkpt lat="45.47737731334419" lon="11.080401939528244"><ele>185.0</ele><time>2026-04-18T07:48:42.999Z</time></trkpt><trkpt lat="45.4773487786907" lon="11.080238249160177"><ele>185.0</ele><time>2026-04-18T07:48:44.999Z</time></trkpt><trkpt lat="45.47736920475699" lon="11.080091680627193"><ele>185.0</ele><time>2026-04-18T07:48:46.999Z</time></trkpt><trkpt lat="45.477313758509744" lon="11.080000921069526"><ele>185.0</ele><time>2026-04-18T07:48:47.999Z</time></trkpt><trkpt lat="45.4772805831382" lon="11.079918795961863"><ele>185.0</ele><time>2026-04-18T07:48:48.999Z</time></trkpt><trkpt lat="45.477281162972986" lon="11.07975186930268"><ele>184.33333333333331</ele><time>2026-04-18T07:48:50.999Z</time></trkpt><trkpt lat="45.47726085243069" lon="11.07966490334441"><ele>183.66666666666666</ele><time>2026-04-18T07:48:52Z</time></trkpt><trkpt lat="45.477207959369764" lon="11.079496657166265"><ele>183.0</ele><time>2026-04-18T07:48:54Z</time></trkpt><trkpt lat="45.47716664038919" lon="11.079395345516673"><ele>182.33333333333334</ele><time>2026-04-18T07:48:55Z</time></trkpt><trkpt lat="45.47712877458197" lon="11.079315003015232"><ele>181.66666666666669</ele><time>2026-04-18T07:48:56Z</time></trkpt><trkpt lat="45.477093151453445" lon="11.079238696325676"><ele>181.0</ele><time>2026-04-18T07:48:57Z</time></trkpt><trkpt lat="45.477056758868336" lon="11.079157125310054"><ele>179.4</ele><time>2026-04-18T07:48:58Z</time></trkpt><trkpt lat="45.47704106772876" lon="11.079023115276518"><ele>177.8</ele><time>2026-04-18T07:49:00Z</time></trkpt><trkpt lat="45.47711952620034" lon="11.078920594449862"><ele>176.20000000000002</ele><time>2026-04-18T07:49:02Z</time></trkpt><trkpt lat="45.477153135215524" lon="11.078789346156885"><ele>174.60000000000002</ele><time>2026-04-18T07:49:04Z</time></trkpt><trkpt lat="45.47717853870023" lon="11.07869812330077"><ele>173.0</ele><time>2026-04-18T07:49:06Z</time></trkpt><trkpt lat="45.47725248951204" lon="11.078590372851863"><ele>172.66666666666666</ele><time>2026-04-18T07:49:08Z</time></trkpt><trkpt lat="45.477297713469625" lon="11.078478847068169"><ele>172.33333333333331</ele><time>2026-04-18T07:49:10Z</time></trkpt><trkpt lat="45.47732799195186" lon="11.078341878666059"><ele>172.0</ele><time>2026-04-18T07:49:12Z</time></trkpt><trkpt lat="45.47734763430919" lon="11.078237660607005"><ele>171.66666666666666</ele><time>2026-04-18T07:49:13Z</time></trkpt><trkpt lat="45.47735371965416" lon="11.078145680345564"><ele>171.33333333333334</ele><time>2026-04-18T07:49:14Z</time></trkpt><trkpt lat="45.47738808315081" lon="11.07805036321533"><ele>171.0</ele><time>2026-04-18T07:49:16Z</time></trkpt><trkpt lat="45.477407746776116" lon="11.077953859445893"><ele>169.16666666666666</ele><time>2026-04-18T07:49:19Z</time></trkpt><trkpt lat="45.47743908644055" lon="11.077817299044705"><ele>167.33333333333334</ele><time>2026-04-18T07:49:21Z</time></trkpt><trkpt lat="45.47747842552911" lon="11.077693979074816"><ele>165.5</ele><time>2026-04-18T07:49:23Z</time></trkpt><trkpt lat="45.47747166284506" lon="11.077573283859802"><ele>163.66666666666669</ele><time>2026-04-18T07:49:25Z</time></trkpt><trkpt lat="45.477506091789245" lon="11.077462953848846"><ele>161.83333333333334</ele><time>2026-04-18T07:49:28Z</time></trkpt><trkpt lat="45.47752295438577" lon="11.077371587422471"><ele>160.0</ele><time>2026-04-18T07:49:30Z</time></trkpt><trkpt lat="45.47755239224929" lon="11.077290226275217"><ele>159.42857142857142</ele><time>2026-04-18T07:49:33Z</time></trkpt><trkpt lat="45.47757935890117" lon="11.07720150970783"><ele>158.85714285714286</ele><time>2026-04-18T07:49:38Z</time></trkpt><trkpt lat="45.47762621664326" lon="11.077115446233494"><ele>158.28571428571428</ele><time>2026-04-18T07:49:42Z</time></trkpt><trkpt lat="45.4776369509833" lon="11.077026254670189"><ele>157.71428571428572</ele><time>2026-04-18T07:51:23.999Z</time></trkpt><trkpt lat="45.47763936451385" lon="11.076916175905481"><ele>157.14285714285714</ele><time>2026-04-18T07:51:26.999Z</time></trkpt><trkpt lat="45.47764610420384" lon="11.076812648457198"><ele>156.57142857142858</ele><time>2026-04-18T07:51:28.999Z</time></trkpt><trkpt lat="45.477664228145215" lon="11.076721001535288"><ele>156.0</ele><time>2026-04-18T07:51:32.999Z</time></trkpt><trkpt lat="45.47769134967228" lon="11.076636965313181"><ele>156.0</ele><time>2026-04-18T07:51:36.999Z</time></trkpt><trkpt lat="45.47777034594743" lon="11.076617713502879"><ele>156.0</ele><time>2026-04-18T07:51:39.999Z</time></trkpt><trkpt lat="45.47777055598495" lon="11.076496308471437"><ele>156.0</ele><time>2026-04-18T07:51:42.999Z</time></trkpt><trkpt lat="45.47778667709077" lon="11.07636463189258"><ele>156.0</ele><time>2026-04-18T07:51:44.999Z</time></trkpt><trkpt lat="45.477860491120154" lon="11.076259324986339"><ele>156.0</ele><time>2026-04-18T07:51:47.999Z</time></trkpt><trkpt lat="45.47791332328335" lon="11.076147064492318"><ele>153.5</ele><time>2026-04-18T07:51:50.999Z</time></trkpt><trkpt lat="45.477953031343915" lon="11.076046378218653"><ele>151.0</ele><time>2026-04-18T07:51:52.999Z</time></trkpt><trkpt lat="45.477982183327306" lon="11.075957502952573"><ele>148.5</ele><time>2026-04-18T07:51:54.999Z</time></trkpt><trkpt lat="45.478038250016525" lon="11.075786592458446"><ele>146.0</ele><time>2026-04-18T07:51:56.999Z</time></trkpt><trkpt lat="45.47806534440163" lon="11.075687405234914"><ele>143.5</ele><time>2026-04-18T07:52:07.999Z</time></trkpt><trkpt lat="45.47812808988837" lon="11.075609580303166"><ele>141.0</ele><time>2026-04-18T07:52:10.999Z</time></trkpt><trkpt lat="45.47819213236812" lon="11.075512754262233"><ele>140.83333333333334</ele><time>2026-04-18T07:52:12.999Z</time></trkpt><trkpt lat="45.47823937024206" lon="11.075406519045522"><ele>140.66666666666666</ele><time>2026-04-18T07:52:14.999Z</time></trkpt><trkpt lat="45.47828469551123" lon="11.07532769583923"><ele>140.5</ele><time>2026-04-18T07:52:16.999Z</time></trkpt><trkpt lat="45.47833367152637" lon="11.075268494716497"><ele>140.33333333333331</ele><time>2026-04-18T07:52:17.999Z</time></trkpt><trkpt lat="45.47836571727578" lon="11.075175255845423"><ele>140.16666666666666</ele><time>2026-04-18T07:52:19.999Z</time></trkpt><trkpt lat="45.478366566078606" lon="11.075052394172907"><ele>140.0</ele><time>2026-04-18T07:52:21.999Z</time></trkpt><trkpt lat="45.4784002761694" lon="11.074911972531918"><ele>140.0</ele><time>2026-04-18T07:54:24Z</time></trkpt><trkpt lat="45.47846674273924" lon="11.074842751815607"><ele>140.0</ele><time>2026-04-18T07:54:26Z</time></trkpt><trkpt lat="45.4784913599646" lon="11.074725037540784"><ele>140.0</ele><time>2026-04-18T07:54:28Z</time></trkpt><trkpt lat="45.47852526809341" lon="11.074645813135954"><ele>140.0</ele><time>2026-04-18T07:54:30Z</time></trkpt><trkpt lat="45.478562363674" lon="11.074565875886261"><ele>140.0</ele><time>2026-04-18T07:54:33Z</time></trkpt><trkpt lat="45.478576917058845" lon="11.074472160140628"><ele>140.0</ele><time>2026-04-18T07:54:36Z</time></trkpt><trkpt lat="45.47862386989664" lon="11.074410425034829"><ele>140.0</ele><time>2026-04-18T07:54:38Z</time></trkpt><trkpt lat="45.47868655188929" lon="11.074321571586758"><ele>140.0</ele><time>2026-04-18T07:54:40Z</time></trkpt><trkpt lat="45.47872781222401" lon="11.0742110897088"><ele>140.0</ele><time>2026-04-18T07:54:42Z</time></trkpt><trkpt lat="45.47876594083368" lon="11.074070478490984"><ele>140.0</ele><time>2026-04-18T07:54:44Z</time></trkpt><trkpt lat="45.47877862519181" lon="11.073971656196044"><ele>140.0</ele><time>2026-04-18T07:54:45Z</time></trkpt><trkpt lat="45.47882303621203" lon="11.073869077905439"><ele>140.0</ele><time>2026-04-18T07:54:46Z</time></trkpt><trkpt lat="45.47885986881384" lon="11.073773120019492"><ele>140.0</ele><time>2026-04-18T07:54:47Z</time></trkpt><trkpt lat="45.478903533298656" lon="11.07364901892166"><ele>137.2</ele><time>2026-04-18T07:54:48Z</time></trkpt><trkpt lat="45.478952491429126" lon="11.073544036029034"><ele>134.4</ele><time>2026-04-18T07:54:49Z</time></trkpt><trkpt lat="45.47902225331035" lon="11.073419090209672"><ele>131.6</ele><time>2026-04-18T07:54:50Z</time></trkpt><trkpt lat="45.479087906204754" lon="11.07332304042825"><ele>128.8</ele><time>2026-04-18T07:54:51Z</time></trkpt><trkpt lat="45.479140512236036" lon="11.073200687886954"><ele>126.0</ele><time>2026-04-18T07:54:52Z</time></trkpt><trkpt lat="45.47920068760476" lon="11.07310434366367"><ele>126.0</ele><time>2026-04-18T07:54:53Z</time></trkpt><trkpt lat="45.47926323146753" lon="11.072999696841494"><ele>126.0</ele><time>2026-04-18T07:54:55Z</time></trkpt><trkpt lat="45.479358805909065" lon="11.072922505891219"><ele>126.0</ele><time>2026-04-18T07:54:57Z</time></trkpt><trkpt lat="45.47942441126824" lon="11.072796954542078"><ele>126.0</ele><time>2026-04-18T07:54:59Z</time></trkpt><trkpt lat="45.479450594343184" lon="11.072685489690132"><ele>126.0</ele><time>2026-04-18T07:55:01Z</time></trkpt><trkpt lat="45.47939044974556" lon="11.072589042797055"><ele>126.0</ele><time>2026-04-18T07:55:03Z</time></trkpt><trkpt lat="45.479276504651516" lon="11.072469891722179"><ele>126.0</ele><time>2026-04-18T07:55:05Z</time></trkpt><trkpt lat="45.47921017409061" lon="11.07229293884254"><ele>126.0</ele><time>2026-04-18T07:55:07Z</time></trkpt><trkpt lat="45.479182881038504" lon="11.07220071070573"><ele>126.0</ele><time>2026-04-18T07:55:08Z</time></trkpt><trkpt lat="45.47917740554012" lon="11.07208648870533"><ele>126.0</ele><time>2026-04-18T07:55:09Z</time></trkpt><trkpt lat="45.479114725823834" lon="11.07191059367496"><ele>126.4</ele><time>2026-04-18T07:55:10Z</time></trkpt><trkpt lat="45.47903882047276" lon="11.07178210388254"><ele>126.8</ele><time>2026-04-18T07:55:12Z</time></trkpt><trkpt lat="45.47891196578992" lon="11.0716719285547"><ele>127.20000000000002</ele><time>2026-04-18T07:55:14Z</time></trkpt><trkpt lat="45.47885895951166" lon="11.071597802517548"><ele>127.60000000000001</ele><time>2026-04-18T07:55:15Z</time></trkpt><trkpt lat="45.478783262367685" lon="11.071599896609463"><ele>128.0</ele><time>2026-04-18T07:55:18Z</time></trkpt><trkpt lat="45.47871332928737" lon="11.071548277288475"><ele>129.20000000000002</ele><time>2026-04-18T07:55:22Z</time></trkpt><trkpt lat="45.47871625032391" lon="11.071437522298446"><ele>130.4</ele><time>2026-04-18T07:55:25Z</time></trkpt><trkpt lat="45.47873398667515" lon="11.071329207837174"><ele>131.60000000000002</ele><time>2026-04-18T07:55:29Z</time></trkpt><trkpt lat="45.4787092209451" lon="11.07119908829876"><ele>132.8</ele><time>2026-04-18T07:55:31Z</time></trkpt><trkpt lat="45.47867668670404" lon="11.071048815783344"><ele>134.0</ele><time>2026-04-18T07:55:33Z</time></trkpt><trkpt lat="45.47860914741016" lon="11.070915913892415"><ele>134.0</ele><time>2026-04-18T07:55:35Z</time></trkpt><trkpt lat="45.478550384810156" lon="11.070797172880273"><ele>134.0</ele><time>2026-04-18T07:55:37Z</time></trkpt><trkpt lat="45.47858681698346" lon="11.07066995603277"><ele>134.0</ele><time>2026-04-18T07:55:40Z</time></trkpt><trkpt lat="45.478587987597244" lon="11.070579493578835"><ele>134.0</ele><time>2026-04-18T07:55:42Z</time></trkpt><trkpt lat="45.47859004514799" lon="11.070481427597587"><ele>134.0</ele><time>2026-04-18T07:55:44Z</time></trkpt><trkpt lat="45.47856817235518" lon="11.070352355236588"><ele>134.0</ele><time>2026-04-18T07:55:47Z</time></trkpt><trkpt lat="45.478549840450405" lon="11.070241176843249"><ele>133.0</ele><time>2026-04-18T07:55:49Z</time></trkpt><trkpt lat="45.47850411669387" lon="11.070088068605992"><ele>132.0</ele><time>2026-04-18T07:55:51Z</time></trkpt><trkpt lat="45.47846848058706" lon="11.070006764558432"><ele>131.0</ele><time>2026-04-18T07:55:52Z</time></trkpt><trkpt lat="45.478425140605324" lon="11.069916669801158"><ele>130.0</ele><time>2026-04-18T07:55:53Z</time></trkpt><trkpt lat="45.47837058910752" lon="11.06982492876659"><ele>129.0</ele><time>2026-04-18T07:55:54Z</time></trkpt><trkpt lat="45.47831269738991" lon="11.069755507242272"><ele>128.0</ele><time>2026-04-18T07:55:55Z</time></trkpt><trkpt lat="45.47825043206919" lon="11.069714027250429"><ele>125.83333333333333</ele><time>2026-04-18T07:55:56Z</time></trkpt><trkpt lat="45.47818589446197" lon="11.069701640292388"><ele>123.66666666666666</ele><time>2026-04-18T07:55:57Z</time></trkpt><trkpt lat="45.478104502381036" lon="11.069710822338687"><ele>121.5</ele><time>2026-04-18T07:55:58Z</time></trkpt><trkpt lat="45.47802871022983" lon="11.06974218831642"><ele>119.33333333333334</ele><time>2026-04-18T07:55:59Z</time></trkpt><trkpt lat="45.47792478184278" lon="11.069792305921561"><ele>117.16666666666667</ele><time>2026-04-18T07:56:00Z</time></trkpt><trkpt lat="45.47784192547748" lon="11.069831419515717"><ele>115.0</ele><time>2026-04-18T07:56:01Z</time></trkpt><trkpt lat="45.47774150669751" lon="11.069834309206229"><ele>115.8</ele><time>2026-04-18T07:56:02Z</time></trkpt><trkpt lat="45.47763614095938" lon="11.069902585144092"><ele>116.6</ele><time>2026-04-18T07:56:03Z</time></trkpt><trkpt lat="45.47755212362234" lon="11.06997465328847"><ele>117.4</ele><time>2026-04-18T07:56:04Z</time></trkpt><trkpt lat="45.47746021845957" lon="11.070030995278106"><ele>118.2</ele><time>2026-04-18T07:56:05Z</time></trkpt><trkpt lat="45.47739241613632" lon="11.070072227083237"><ele>119.0</ele><time>2026-04-18T07:56:06Z</time></trkpt><trkpt lat="45.477333298856365" lon="11.07011486135744"><ele>116.6</ele><time>2026-04-18T07:56:08Z</time></trkpt><trkpt lat="45.47738249446577" lon="11.069937816417541"><ele>114.2</ele><time>2026-04-18T07:56:10Z</time></trkpt><trkpt lat="45.4774102817209" lon="11.069832782868028"><ele>111.79999999999998</ele><time>2026-04-18T07:56:11Z</time></trkpt><trkpt lat="45.47745756518343" lon="11.069687989739505"><ele>109.39999999999999</ele><time>2026-04-18T07:56:12Z</time></trkpt><trkpt lat="45.47750749729021" lon="11.069524585895433"><ele>107.0</ele><time>2026-04-18T07:56:13Z</time></trkpt><trkpt lat="45.47757251207261" lon="11.069357002634366"><ele>107.0</ele><time>2026-04-18T07:56:14Z</time></trkpt><trkpt lat="45.477638039941795" lon="11.069222302906503"><ele>107.0</ele><time>2026-04-18T07:56:15Z</time></trkpt><trkpt lat="45.477710273191285" lon="11.069107222938179"><ele>107.0</ele><time>2026-04-18T07:56:16Z</time></trkpt><trkpt lat="45.47779328539837" lon="11.06898824390753"><ele>107.0</ele><time>2026-04-18T07:56:17Z</time></trkpt><trkpt lat="45.47788347379775" lon="11.068883369040503"><ele>105.0</ele><time>2026-04-18T07:56:18Z</time></trkpt><trkpt lat="45.477975106131815" lon="11.06877806190668"><ele>103.0</ele><time>2026-04-18T07:56:19Z</time></trkpt><trkpt lat="45.47806720356136" lon="11.06866699535559"><ele>101.0</ele><time>2026-04-18T07:56:20Z</time></trkpt><trkpt lat="45.478157866418364" lon="11.068562268494988"><ele>99.0</ele><time>2026-04-18T07:56:21Z</time></trkpt><trkpt lat="45.4782429110794" lon="11.068457757448675"><ele>99.0</ele><time>2026-04-18T07:56:22Z</time></trkpt><trkpt lat="45.47834009954551" lon="11.068364219989267"><ele>99.0</ele><time>2026-04-18T07:56:23Z</time></trkpt><trkpt lat="45.47843488612392" lon="11.068280425674944"><ele>99.0</ele><time>2026-04-18T07:56:24Z</time></trkpt><trkpt lat="45.47854207937689" lon="11.06824197245596"><ele>99.0</ele><time>2026-04-18T07:56:25Z</time></trkpt><trkpt lat="45.4786386046616" lon="11.068213359532031"><ele>99.0</ele><time>2026-04-18T07:56:26Z</time></trkpt><trkpt lat="45.47869887668223" lon="11.06815360882995"><ele>98.2</ele><time>2026-04-18T07:56:27Z</time></trkpt><trkpt lat="45.478773656592026" lon="11.067984610676056"><ele>97.4</ele><time>2026-04-18T07:56:29Z</time></trkpt><trkpt lat="45.47876440702451" lon="11.067861720807182"><ele>96.6</ele><time>2026-04-18T07:56:30Z</time></trkpt><trkpt lat="45.47874942277019" lon="11.06771065600677"><ele>95.8</ele><time>2026-04-18T07:56:31Z</time></trkpt><trkpt lat="45.47871583315365" lon="11.06755794231255"><ele>95.0</ele><time>2026-04-18T07:56:32Z</time></trkpt><trkpt lat="45.47869408978257" lon="11.067413111488658"><ele>94.33333333333334</ele><time>2026-04-18T07:56:33Z</time></trkpt><trkpt lat="45.478681472294284" lon="11.067288587645363"><ele>93.66666666666667</ele><time>2026-04-18T07:56:34Z</time></trkpt><trkpt lat="45.47868041567207" lon="11.067184613188825"><ele>93.0</ele><time>2026-04-18T07:56:35Z</time></trkpt><trkpt lat="45.478682315791275" lon="11.06706728939532"><ele>92.33333333333333</ele><time>2026-04-18T07:56:37Z</time></trkpt><trkpt lat="45.478711716427014" lon="11.066981165868356"><ele>91.66666666666666</ele><time>2026-04-18T07:56:39Z</time></trkpt><trkpt lat="45.478634716276154" lon="11.06689085462961"><ele>91.0</ele><time>2026-04-18T07:56:40Z</time></trkpt><trkpt lat="45.47860297928757" lon="11.066801251628553"><ele>91.0</ele><time>2026-04-18T07:56:41Z</time></trkpt><trkpt lat="45.47857927415837" lon="11.066689015309944"><ele>91.0</ele><time>2026-04-18T07:56:42Z</time></trkpt><trkpt lat="45.47856549264739" lon="11.066576405302765"><ele>91.0</ele><time>2026-04-18T07:56:43Z</time></trkpt><trkpt lat="45.47855385827382" lon="11.066450052387257"><ele>91.0</ele><time>2026-04-18T07:56:44Z</time></trkpt><trkpt lat="45.47853744612952" lon="11.066293989565972"><ele>91.0</ele><time>2026-04-18T07:56:45Z</time></trkpt><trkpt lat="45.47852094906566" lon="11.066109410416555"><ele>90.5</ele><time>2026-04-18T07:56:46Z</time></trkpt><trkpt lat="45.47850072999479" lon="11.065930303104707"><ele>90.0</ele><time>2026-04-18T07:56:47Z</time></trkpt><trkpt lat="45.47848025337519" lon="11.065746405913744"><ele>89.5</ele><time>2026-04-18T07:56:48Z</time></trkpt><trkpt lat="45.47845914967092" lon="11.065552291703888"><ele>89.0</ele><time>2026-04-18T07:56:49Z</time></trkpt><trkpt lat="45.478436107712746" lon="11.065346984564549"><ele>88.75</ele><time>2026-04-18T07:56:50Z</time></trkpt><trkpt lat="45.47841436927142" lon="11.065154294982474"><ele>88.5</ele><time>2026-04-18T07:56:51Z</time></trkpt><trkpt lat="45.47839763669031" lon="11.064972691823439"><ele>88.25</ele><time>2026-04-18T07:56:52Z</time></trkpt><trkpt lat="45.478381006433786" lon="11.064794605492915"><ele>88.0</ele><time>2026-04-18T07:56:53Z</time></trkpt><trkpt lat="45.47836521938421" lon="11.064622390149285"><ele>88.0</ele><time>2026-04-18T07:56:54Z</time></trkpt><trkpt lat="45.478348911414535" lon="11.06444960968413"><ele>88.0</ele><time>2026-04-18T07:56:55Z</time></trkpt><trkpt lat="45.47833304889376" lon="11.064279738017193"><ele>88.0</ele><time>2026-04-18T07:56:56Z</time></trkpt><trkpt lat="45.47831948348115" lon="11.064115724396977"><ele>88.0</ele><time>2026-04-18T07:56:57Z</time></trkpt><trkpt lat="45.478305327273524" lon="11.063960830916816"><ele>87.80000000000001</ele><time>2026-04-18T07:56:58Z</time></trkpt><trkpt lat="45.47829024959886" lon="11.063812634761637"><ele>87.6</ele><time>2026-04-18T07:56:59Z</time></trkpt><trkpt lat="45.47828037104271" lon="11.063664356520095"><ele>87.4</ele><time>2026-04-18T07:57:00Z</time></trkpt><trkpt lat="45.47827223897477" lon="11.063510146782546"><ele>87.19999999999999</ele><time>2026-04-18T07:57:01Z</time></trkpt><trkpt lat="45.478263658613905" lon="11.063346954701126"><ele>87.0</ele><time>2026-04-18T07:57:02Z</time></trkpt><trkpt lat="45.47825332665975" lon="11.063176709141082"><ele>87.0</ele><time>2026-04-18T07:57:03Z</time></trkpt><trkpt lat="45.47824392755886" lon="11.063012831533518"><ele>87.0</ele><time>2026-04-18T07:57:03.999Z</time></trkpt><trkpt lat="45.47823507078941" lon="11.062847923312185"><ele>87.0</ele><time>2026-04-18T07:57:04.999Z</time></trkpt><trkpt lat="45.478226574858375" lon="11.062686422040361"><ele>87.0</ele><time>2026-04-18T07:57:05.999Z</time></trkpt><trkpt lat="45.4782183409825" lon="11.062535206409812"><ele>87.19999999999999</ele><time>2026-04-18T07:57:06.999Z</time></trkpt><trkpt lat="45.47821039218405" lon="11.06238475154284"><ele>87.4</ele><time>2026-04-18T07:57:07.999Z</time></trkpt><trkpt lat="45.47819888463353" lon="11.062234427989658"><ele>87.6</ele><time>2026-04-18T07:57:08.999Z</time></trkpt><trkpt lat="45.47818133339898" lon="11.06208976211725"><ele>87.80000000000001</ele><time>2026-04-18T07:57:09.999Z</time></trkpt><trkpt lat="45.47815493866804" lon="11.061941032013433"><ele>88.0</ele><time>2026-04-18T07:57:10.999Z</time></trkpt><trkpt lat="45.47811402472223" lon="11.061806640960581"><ele>88.0</ele><time>2026-04-18T07:57:11.999Z</time></trkpt><trkpt lat="45.47805387799769" lon="11.061685060934293"><ele>88.0</ele><time>2026-04-18T07:57:12.999Z</time></trkpt><trkpt lat="45.47798031031034" lon="11.061572782457887"><ele>88.0</ele><time>2026-04-18T07:57:13.999Z</time></trkpt><trkpt lat="45.47790083105907" lon="11.06147206159134"><ele>88.0</ele><time>2026-04-18T07:57:14.999Z</time></trkpt><trkpt lat="45.47781907067902" lon="11.061379954126652"><ele>88.0</ele><time>2026-04-18T07:57:15.999Z</time></trkpt><trkpt lat="45.47773167143295" lon="11.061285763869188"><ele>87.75</ele><time>2026-04-18T07:57:16.999Z</time></trkpt><trkpt lat="45.47762349551675" lon="11.061187643000732"><ele>87.5</ele><time>2026-04-18T07:57:17.999Z</time></trkpt><trkpt lat="45.47750382036343" lon="11.061113928008455"><ele>87.25</ele><time>2026-04-18T07:57:18.999Z</time></trkpt><trkpt lat="45.47739187948215" lon="11.061071431195847"><ele>87.0</ele><time>2026-04-18T07:57:19.999Z</time></trkpt><trkpt lat="45.477293523303" lon="11.06102462599158"><ele>87.0</ele><time>2026-04-18T07:57:20.999Z</time></trkpt><trkpt lat="45.477214688370104" lon="11.06093795240573"><ele>87.0</ele><time>2026-04-18T07:57:21.999Z</time></trkpt><trkpt lat="45.47714830008152" lon="11.060823125459043"><ele>87.0</ele><time>2026-04-18T07:57:22.999Z</time></trkpt><trkpt lat="45.47708871517545" lon="11.060770561576245"><ele>87.0</ele><time>2026-04-18T07:57:23.999Z</time></trkpt><trkpt lat="45.4770918640184" lon="11.060587849513675"><ele>87.0</ele><time>2026-04-18T07:57:25.999Z</time></trkpt><trkpt lat="45.47711826168487" lon="11.060487134063022"><ele>87.19999999999999</ele><time>2026-04-18T07:57:26.999Z</time></trkpt><trkpt lat="45.47715970628323" lon="11.060367186142631"><ele>87.4</ele><time>2026-04-18T07:57:27.999Z</time></trkpt><trkpt lat="45.47720387660371" lon="11.06022713722134"><ele>87.6</ele><time>2026-04-18T07:57:28.999Z</time></trkpt><trkpt lat="45.47724495698216" lon="11.060055062630406"><ele>87.80000000000001</ele><time>2026-04-18T07:57:30Z</time></trkpt><trkpt lat="45.47728400101538" lon="11.059892467635807"><ele>88.0</ele><time>2026-04-18T07:57:31Z</time></trkpt><trkpt lat="45.47731102355945" lon="11.059750378353897"><ele>88.4</ele><time>2026-04-18T07:57:32Z</time></trkpt><trkpt lat="45.477325146949255" lon="11.05964488398516"><ele>88.80000000000001</ele><time>2026-04-18T07:57:33Z</time></trkpt><trkpt lat="45.47734247339551" lon="11.059549372066842"><ele>89.2</ele><time>2026-04-18T07:57:36Z</time></trkpt><trkpt lat="45.477206126058945" lon="11.059438349982427"><ele>89.6</ele><time>2026-04-18T07:57:39Z</time></trkpt><trkpt lat="45.47712938191395" lon="11.059405004538133"><ele>90.0</ele><time>2026-04-18T07:57:40Z</time></trkpt><trkpt lat="45.47706252112577" lon="11.059366972880017"><ele>90.0</ele><time>2026-04-18T07:57:41Z</time></trkpt><trkpt lat="45.47699809086533" lon="11.059326781846337"><ele>90.0</ele><time>2026-04-18T07:57:43Z</time></trkpt><trkpt lat="45.47707725841051" lon="11.059229140993839"><ele>90.0</ele><time>2026-04-18T07:57:53Z</time></trkpt><trkpt lat="45.47720616824858" lon="11.059218303980632"><ele>90.0</ele><time>2026-04-18T07:57:55Z</time></trkpt><trkpt lat="45.47727452287203" lon="11.059232471988386"><ele>90.0</ele><time>2026-04-18T07:57:56Z</time></trkpt><trkpt lat="45.47736715002519" lon="11.059207040634597"><ele>91.25</ele><time>2026-04-18T07:57:57Z</time></trkpt><trkpt lat="45.4774701611622" lon="11.059201286795277"><ele>92.5</ele><time>2026-04-18T07:57:58Z</time></trkpt><trkpt lat="45.47758504085964" lon="11.059194146276454"><ele>93.75</ele><time>2026-04-18T07:57:59Z</time></trkpt><trkpt lat="45.47770989418964" lon="11.059207774586046"><ele>95.0</ele><time>2026-04-18T07:58:00Z</time></trkpt><trkpt lat="45.47782684249327" lon="11.05916536201232"><ele>95.6</ele><time>2026-04-18T07:58:01Z</time></trkpt><trkpt lat="45.477943426228585" lon="11.059133510523136"><ele>96.2</ele><time>2026-04-18T07:58:02Z</time></trkpt><trkpt lat="45.47806111796655" lon="11.059111747188608"><ele>96.80000000000001</ele><time>2026-04-18T07:58:03Z</time></trkpt><trkpt lat="45.47815774668113" lon="11.05905502969196"><ele>97.4</ele><time>2026-04-18T07:58:04Z</time></trkpt><trkpt lat="45.4782326291379" lon="11.05905612520438"><ele>98.0</ele><time>2026-04-18T07:58:05Z</time></trkpt><trkpt lat="45.47831407626192" lon="11.059034120607757"><ele>100.0</ele><time>2026-04-18T07:58:07Z</time></trkpt><trkpt lat="45.47836459726464" lon="11.058825790230888"><ele>102.0</ele><time>2026-04-18T07:58:11Z</time></trkpt><trkpt lat="45.478341493521974" lon="11.058697119952152"><ele>104.0</ele><time>2026-04-18T07:58:12Z</time></trkpt><trkpt lat="45.47830959530665" lon="11.058563733848768"><ele>106.0</ele><time>2026-04-18T07:58:13Z</time></trkpt><trkpt lat="45.478262691750245" lon="11.058430857900905"><ele>107.75</ele><time>2026-04-18T07:58:14Z</time></trkpt><trkpt lat="45.478208735553544" lon="11.058279524411827"><ele>109.5</ele><time>2026-04-18T07:58:15Z</time></trkpt><trkpt lat="45.47817655759142" lon="11.058124065083542"><ele>111.25</ele><time>2026-04-18T07:58:16Z</time></trkpt><trkpt lat="45.47812252906986" lon="11.057954820582973"><ele>113.0</ele><time>2026-04-18T07:58:17Z</time></trkpt><trkpt lat="45.478050437298265" lon="11.057802542820427"><ele>113.0</ele><time>2026-04-18T07:58:18Z</time></trkpt><trkpt lat="45.47799114825993" lon="11.057669196889526"><ele>113.00000000000001</ele><time>2026-04-18T07:58:19Z</time></trkpt><trkpt lat="45.47794814986238" lon="11.057532603256234"><ele>113.00000000000001</ele><time>2026-04-18T07:58:20Z</time></trkpt><trkpt lat="45.47790294623501" lon="11.057430532220913"><ele>113.0</ele><time>2026-04-18T07:58:21Z</time></trkpt><trkpt lat="45.47785965932456" lon="11.057334766817844"><ele>113.0</ele><time>2026-04-18T07:58:22Z</time></trkpt><trkpt lat="45.477830369285385" lon="11.057196032382432"><ele>112.4</ele><time>2026-04-18T07:58:24Z</time></trkpt><trkpt lat="45.47786313470111" lon="11.057025228291394"><ele>111.80000000000001</ele><time>2026-04-18T07:58:26Z</time></trkpt><trkpt lat="45.47781673501457" lon="11.056918875981003"><ele>111.2</ele><time>2026-04-18T07:58:27Z</time></trkpt><trkpt lat="45.477775875378356" lon="11.056826672997662"><ele>110.6</ele><time>2026-04-18T07:58:28Z</time></trkpt><trkpt lat="45.477709339286946" lon="11.05672476251107"><ele>110.0</ele><time>2026-04-18T07:58:29Z</time></trkpt><trkpt lat="45.477645829622006" lon="11.056631642112102"><ele>111.99999999999999</ele><time>2026-04-18T07:58:30Z</time></trkpt><trkpt lat="45.47760175586406" lon="11.056518643667744"><ele>114.0</ele><time>2026-04-18T07:58:31Z</time></trkpt><trkpt lat="45.47755721467966" lon="11.056416095599714"><ele>116.0</ele><time>2026-04-18T07:58:32Z</time></trkpt><trkpt lat="45.477528425661795" lon="11.056316976699867"><ele>118.0</ele><time>2026-04-18T07:58:33Z</time></trkpt><trkpt lat="45.47750109387373" lon="11.056220920280122"><ele>119.99999999999999</ele><time>2026-04-18T07:58:34Z</time></trkpt><trkpt lat="45.47758395294628" lon="11.056135066536841"><ele>122.0</ele><time>2026-04-18T07:58:36Z</time></trkpt><trkpt lat="45.4776653986213" lon="11.056021796127938"><ele>122.0</ele><time>2026-04-18T07:58:38Z</time></trkpt><trkpt lat="45.47781121638694" lon="11.055964692038557"><ele>122.0</ele><time>2026-04-18T07:58:40Z</time></trkpt><trkpt lat="45.477897229914454" lon="11.055922563370968"><ele>122.0</ele><time>2026-04-18T07:58:41Z</time></trkpt><trkpt lat="45.477989597444015" lon="11.0558780845929"><ele>122.0</ele><time>2026-04-18T07:58:42Z</time></trkpt><trkpt lat="45.47810064128565" lon="11.055829353434103"><ele>122.75</ele><time>2026-04-18T07:58:43Z</time></trkpt><trkpt lat="45.478193541843275" lon="11.05579134279571"><ele>123.5</ele><time>2026-04-18T07:58:44Z</time></trkpt><trkpt lat="45.47829810501131" lon="11.055750697059421"><ele>124.25</ele><time>2026-04-18T07:58:45Z</time></trkpt><trkpt lat="45.478408972182265" lon="11.05570787280367"><ele>125.0</ele><time>2026-04-18T07:58:46Z</time></trkpt><trkpt lat="45.4785354519351" lon="11.055652665452328"><ele>128.4</ele><time>2026-04-18T07:58:47Z</time></trkpt><trkpt lat="45.47866943850997" lon="11.055582451112745"><ele>131.8</ele><time>2026-04-18T07:58:48Z</time></trkpt><trkpt lat="45.47875953398703" lon="11.05551889711072"><ele>135.2</ele><time>2026-04-18T07:58:49Z</time></trkpt><trkpt lat="45.47884610953071" lon="11.0554502825289"><ele>138.6</ele><time>2026-04-18T07:58:50Z</time></trkpt><trkpt lat="45.4789145855446" lon="11.055361512656832"><ele>142.0</ele><time>2026-04-18T07:58:51Z</time></trkpt><trkpt lat="45.478993683384296" lon="11.055298654998209"><ele>145.0</ele><time>2026-04-18T07:58:52Z</time></trkpt><trkpt lat="45.47908623168427" lon="11.055225108916042"><ele>148.0</ele><time>2026-04-18T07:58:53Z</time></trkpt><trkpt lat="45.47909353009019" lon="11.054667847651983"><ele>152.5</ele><time>2026-04-18T07:58:55Z</time></trkpt><trkpt lat="45.47919605765207" lon="11.054624885298336"><ele>157.0</ele><time>2026-04-18T07:58:56Z</time></trkpt><trkpt lat="45.47931034752464" lon="11.054620085288501"><ele>161.5</ele><time>2026-04-18T07:58:57Z</time></trkpt><trkpt lat="45.479433275717206" lon="11.054628560232883"><ele>166.0</ele><time>2026-04-18T07:58:58Z</time></trkpt><trkpt lat="45.47954406465808" lon="11.054653225938933"><ele>164.66666666666669</ele><time>2026-04-18T07:58:59Z</time></trkpt><trkpt lat="45.47963634870888" lon="11.054679978756793"><ele>163.33333333333334</ele><time>2026-04-18T07:59:00Z</time></trkpt><trkpt lat="45.47970700549839" lon="11.054708056713904"><ele>162.0</ele><time>2026-04-18T07:59:01Z</time></trkpt><trkpt lat="45.479781939581336" lon="11.054790175344289"><ele>160.66666666666666</ele><time>2026-04-18T07:59:02Z</time></trkpt><trkpt lat="45.47985339870812" lon="11.05488603918552"><ele>159.33333333333331</ele><time>2026-04-18T07:59:03Z</time></trkpt><trkpt lat="45.47990084485333" lon="11.05497277034489"><ele>158.0</ele><time>2026-04-18T07:59:04Z</time></trkpt><trkpt lat="45.47993376155856" lon="11.055066234983222"><ele>158.0</ele><time>2026-04-18T07:59:05Z</time></trkpt><trkpt lat="45.47995055115341" lon="11.055187898062428"><ele>158.0</ele><time>2026-04-18T07:59:06Z</time></trkpt><trkpt lat="45.479952471816475" lon="11.055304229013052"><ele>158.0</ele><time>2026-04-18T07:59:07Z</time></trkpt><trkpt lat="45.47994154477891" lon="11.055411748363431"><ele>158.0</ele><time>2026-04-18T07:59:08Z</time></trkpt><trkpt lat="45.48001459918963" lon="11.055509367614212"><ele>158.0</ele><time>2026-04-18T07:59:09.999Z</time></trkpt><trkpt lat="45.48008373201992" lon="11.055525673123581"><ele>158.0</ele><time>2026-04-18T07:59:10.999Z</time></trkpt><trkpt lat="45.48016985555198" lon="11.055530789332025"><ele>158.0</ele><time>2026-04-18T07:59:11.999Z</time></trkpt><trkpt lat="45.480274277465796" lon="11.055537321469656"><ele>158.0</ele><time>2026-04-18T07:59:12.999Z</time></trkpt><trkpt lat="45.48037583125874" lon="11.055548048393884"><ele>158.0</ele><time>2026-04-18T07:59:13.999Z</time></trkpt><trkpt lat="45.48048641153943" lon="11.05555161159316"><ele>158.0</ele><time>2026-04-18T07:59:14.999Z</time></trkpt><trkpt lat="45.480579891447285" lon="11.055551898899033"><ele>158.0</ele><time>2026-04-18T07:59:15.999Z</time></trkpt><trkpt lat="45.48066820086705" lon="11.055566956015861"><ele>160.0</ele><time>2026-04-18T07:59:16.999Z</time></trkpt><trkpt lat="45.48074445133872" lon="11.055619518202443"><ele>162.0</ele><time>2026-04-18T07:59:17.999Z</time></trkpt><trkpt lat="45.48080876409674" lon="11.055599111879248"><ele>164.0</ele><time>2026-04-18T07:59:18.999Z</time></trkpt><trkpt lat="45.48090513682964" lon="11.055519411491053"><ele>166.0</ele><time>2026-04-18T07:59:20.999Z</time></trkpt><trkpt lat="45.48088254497596" lon="11.055378330495724"><ele>168.0</ele><time>2026-04-18T07:59:21.999Z</time></trkpt><trkpt lat="45.48087269624489" lon="11.055270761947488"><ele>170.0</ele><time>2026-04-18T07:59:22.999Z</time></trkpt><trkpt lat="45.480886194536616" lon="11.055166411557591"><ele>170.0</ele><time>2026-04-18T07:59:23.999Z</time></trkpt><trkpt lat="45.48088947489938" lon="11.055061265726266"><ele>170.0</ele><time>2026-04-18T07:59:24.999Z</time></trkpt><trkpt lat="45.480892854184425" lon="11.054952949143164"><ele>170.0</ele><time>2026-04-18T07:59:25.999Z</time></trkpt><trkpt lat="45.48089642286591" lon="11.054838562147458"><ele>170.0</ele><time>2026-04-18T07:59:26.999Z</time></trkpt><trkpt lat="45.48090129996583" lon="11.054726657431335"><ele>170.0</ele><time>2026-04-18T07:59:27.999Z</time></trkpt><trkpt lat="45.48089107884894" lon="11.054616803892156"><ele>170.0</ele><time>2026-04-18T07:59:28.999Z</time></trkpt><trkpt lat="45.48089722033541" lon="11.054510153587065"><ele>171.33333333333331</ele><time>2026-04-18T07:59:29.999Z</time></trkpt><trkpt lat="45.4809200107289" lon="11.054388064746576"><ele>172.66666666666666</ele><time>2026-04-18T07:59:30.999Z</time></trkpt><trkpt lat="45.480942349023216" lon="11.054270529226073"><ele>174.0</ele><time>2026-04-18T07:59:31.999Z</time></trkpt><trkpt lat="45.48095142994323" lon="11.054172578393546"><ele>175.33333333333334</ele><time>2026-04-18T07:59:32.999Z</time></trkpt><trkpt lat="45.48093360930291" lon="11.054028609082959"><ele>176.66666666666669</ele><time>2026-04-18T07:59:34.999Z</time></trkpt><trkpt lat="45.48090449213428" lon="11.053911723817475"><ele>178.0</ele><time>2026-04-18T07:59:36.999Z</time></trkpt><trkpt lat="45.480886497960796" lon="11.053824605130714"><ele>184.33333333333334</ele><time>2026-04-18T07:59:39Z</time></trkpt><trkpt lat="45.48086257936927" lon="11.053704645345487"><ele>190.66666666666669</ele><time>2026-04-18T07:59:41Z</time></trkpt><trkpt lat="45.48053050502271" lon="11.05371784433861"><ele>197.0</ele><time>2026-04-18T07:59:42Z</time></trkpt><trkpt lat="45.480462434343366" lon="11.053721183914513"><ele>197.0</ele><time>2026-04-18T07:59:43Z</time></trkpt><trkpt lat="45.48035497521214" lon="11.053739234766292"><ele>197.0</ele><time>2026-04-18T07:59:45Z</time></trkpt><trkpt lat="45.48031046950189" lon="11.053650221647052"><ele>197.0</ele><time>2026-04-18T07:59:48Z</time></trkpt><trkpt lat="45.48042004431797" lon="11.053573741069956"><ele>197.0</ele><time>2026-04-18T07:59:51Z</time></trkpt><trkpt lat="45.48051301447344" lon="11.053507496145436"><ele>197.0</ele><time>2026-04-18T07:59:53Z</time></trkpt><trkpt lat="45.48058223973332" lon="11.053395977917566"><ele>197.0</ele><time>2026-04-18T07:59:55Z</time></trkpt><trkpt lat="45.480639752178426" lon="11.053327873995846"><ele>197.0</ele><time>2026-04-18T07:59:56Z</time></trkpt><trkpt lat="45.48070830196267" lon="11.053230221857813"><ele>197.0</ele><time>2026-04-18T07:59:58Z</time></trkpt><trkpt lat="45.480618804127495" lon="11.053192957755783"><ele>197.0</ele><time>2026-04-18T08:00:06Z</time></trkpt><trkpt lat="45.48054270666552" lon="11.053211808422382"><ele>197.0</ele><time>2026-04-18T08:00:08Z</time></trkpt><trkpt lat="45.480434019321216" lon="11.05326597692062"><ele>197.2</ele><time>2026-04-18T08:00:10Z</time></trkpt><trkpt lat="45.48033565471416" lon="11.053323418750399"><ele>197.39999999999998</ele><time>2026-04-18T08:00:12Z</time></trkpt><trkpt lat="45.480211326303404" lon="11.053307481539564"><ele>197.60000000000002</ele><time>2026-04-18T08:00:14Z</time></trkpt><trkpt lat="45.4801431041344" lon="11.053353173966947"><ele>197.8</ele><time>2026-04-18T08:00:16Z</time></trkpt><trkpt lat="45.48007322143454" lon="11.053331244368293"><ele>198.0</ele><time>2026-04-18T08:00:18Z</time></trkpt><trkpt lat="45.47997730332044" lon="11.053260705379552"><ele>200.8</ele><time>2026-04-18T08:00:20Z</time></trkpt><trkpt lat="45.47986223414417" lon="11.053202400258135"><ele>203.60000000000002</ele><time>2026-04-18T08:00:22Z</time></trkpt><trkpt lat="45.47978533942565" lon="11.053128387161285"><ele>206.39999999999998</ele><time>2026-04-18T08:00:24Z</time></trkpt><trkpt lat="45.47966165958687" lon="11.053089536361046"><ele>209.2</ele><time>2026-04-18T08:00:26Z</time></trkpt><trkpt lat="45.479585674309725" lon="11.053048921343155"><ele>212.0</ele><time>2026-04-18T08:00:27Z</time></trkpt><trkpt lat="45.4794950591399" lon="11.053006336478857"><ele>212.00000000000003</ele><time>2026-04-18T08:00:29Z</time></trkpt><trkpt lat="45.47941126299381" lon="11.052926165017878"><ele>212.0</ele><time>2026-04-18T08:00:31Z</time></trkpt><trkpt lat="45.4793033929928" lon="11.052882448278424"><ele>212.0</ele><time>2026-04-18T08:00:33Z</time></trkpt><trkpt lat="45.47923553392787" lon="11.05290101863148"><ele>212.0</ele><time>2026-04-18T08:00:35Z</time></trkpt><trkpt lat="45.47917097155593" lon="11.052868650194911"><ele>212.00000000000003</ele><time>2026-04-18T08:01:00Z</time></trkpt><trkpt lat="45.47909918139948" lon="11.052866120955732"><ele>212.0</ele><time>2026-04-18T08:01:03Z</time></trkpt><trkpt lat="45.47909171060344" lon="11.05274128768057"><ele>212.0</ele><time>2026-04-18T08:01:05Z</time></trkpt><trkpt lat="45.47905104451325" lon="11.052609809887272"><ele>212.0</ele><time>2026-04-18T08:01:07Z</time></trkpt><trkpt lat="45.478986984754066" lon="11.052563505239236"><ele>212.0</ele><time>2026-04-18T08:01:08Z</time></trkpt><trkpt lat="45.47890985436036" lon="11.052517280226477"><ele>212.0</ele><time>2026-04-18T08:01:09Z</time></trkpt><trkpt lat="45.478815653948374" lon="11.052451000195703"><ele>212.0</ele><time>2026-04-18T08:01:10Z</time></trkpt><trkpt lat="45.4787223292456" lon="11.052379919512674"><ele>213.0</ele><time>2026-04-18T08:01:11Z</time></trkpt><trkpt lat="45.47862671424609" lon="11.052315503623857"><ele>214.0</ele><time>2026-04-18T08:01:12Z</time></trkpt><trkpt lat="45.47852817896159" lon="11.052299748458427"><ele>215.0</ele><time>2026-04-18T08:01:13Z</time></trkpt><trkpt lat="45.478428332575575" lon="11.052287550564413"><ele>216.0</ele><time>2026-04-18T08:01:14Z</time></trkpt><trkpt lat="45.47834048710087" lon="11.052258578229452"><ele>217.0</ele><time>2026-04-18T08:01:15Z</time></trkpt><trkpt lat="45.47825046680165" lon="11.052227147433117"><ele>217.0</ele><time>2026-04-18T08:01:15.999Z</time></trkpt><trkpt lat="45.47816370453788" lon="11.05219557808438"><ele>217.0</ele><time>2026-04-18T08:01:16.999Z</time></trkpt><trkpt lat="45.47808724016517" lon="11.05216478189601"><ele>217.0</ele><time>2026-04-18T08:01:17.999Z</time></trkpt><trkpt lat="45.478054316378916" lon="11.05187864236899"><ele>217.0</ele><time>2026-04-18T08:01:18.999Z</time></trkpt><trkpt lat="45.47798957574791" lon="11.051859139840891"><ele>217.0</ele><time>2026-04-18T08:01:19.999Z</time></trkpt><trkpt lat="45.47787428723724" lon="11.05182441021339"><ele>215.16666666666666</ele><time>2026-04-18T08:01:21.999Z</time></trkpt><trkpt lat="45.47780431220478" lon="11.0518033309058"><ele>213.33333333333331</ele><time>2026-04-18T08:01:22.999Z</time></trkpt><trkpt lat="45.47771644836152" lon="11.051794240369384"><ele>211.5</ele><time>2026-04-18T08:01:24.999Z</time></trkpt><trkpt lat="45.47767169622975" lon="11.051728296370706"><ele>209.66666666666669</ele><time>2026-04-18T08:01:27.999Z</time></trkpt><trkpt lat="45.477582693155384" lon="11.051703592594858"><ele>207.83333333333334</ele><time>2026-04-18T08:01:30.999Z</time></trkpt><trkpt lat="45.47747759123374" lon="11.051683265557434"><ele>206.0</ele><time>2026-04-18T08:01:32.999Z</time></trkpt><trkpt lat="45.47741122101477" lon="11.05166711893173"><ele>206.0</ele><time>2026-04-18T08:01:33.999Z</time></trkpt><trkpt lat="45.47732676654073" lon="11.051643253004354"><ele>206.0</ele><time>2026-04-18T08:01:34.999Z</time></trkpt><trkpt lat="45.47723392225598" lon="11.05162292301727"><ele>206.0</ele><time>2026-04-18T08:01:35.999Z</time></trkpt><trkpt lat="45.47713997488088" lon="11.0515950962601"><ele>206.0</ele><time>2026-04-18T08:01:36.999Z</time></trkpt><trkpt lat="45.47704020935094" lon="11.051562715605316"><ele>206.0</ele><time>2026-04-18T08:01:37.999Z</time></trkpt><trkpt lat="45.47693465620473" lon="11.051546623295057"><ele>207.25</ele><time>2026-04-18T08:01:38.999Z</time></trkpt><trkpt lat="45.476825609602066" lon="11.051527776485665"><ele>208.5</ele><time>2026-04-18T08:01:39.999Z</time></trkpt><trkpt lat="45.47670032913295" lon="11.05148989102945"><ele>209.75</ele><time>2026-04-18T08:01:40.999Z</time></trkpt><trkpt lat="45.47658047254681" lon="11.051465289284108"><ele>211.0</ele><time>2026-04-18T08:01:41.999Z</time></trkpt><trkpt lat="45.47647294868006" lon="11.05142921698566"><ele>211.0</ele><time>2026-04-18T08:01:42.999Z</time></trkpt><trkpt lat="45.476372101159455" lon="11.051399992901382"><ele>211.0</ele><time>2026-04-18T08:01:43.999Z</time></trkpt><trkpt lat="45.47627872199511" lon="11.051367936252698"><ele>211.0</ele><time>2026-04-18T08:01:44.999Z</time></trkpt><trkpt lat="45.47618405868109" lon="11.051347370411435"><ele>211.0</ele><time>2026-04-18T08:01:45.999Z</time></trkpt><trkpt lat="45.476090217521715" lon="11.051325349784637"><ele>211.0</ele><time>2026-04-18T08:01:46.999Z</time></trkpt><trkpt lat="45.47599620843242" lon="11.05128611880681"><ele>209.8</ele><time>2026-04-18T08:01:47.999Z</time></trkpt><trkpt lat="45.47590990528282" lon="11.051234544786853"><ele>208.60000000000002</ele><time>2026-04-18T08:01:48.999Z</time></trkpt><trkpt lat="45.475830910766184" lon="11.051178181266042"><ele>207.4</ele><time>2026-04-18T08:01:49.999Z</time></trkpt><trkpt lat="45.47578581326959" lon="11.051090974276557"><ele>206.2</ele><time>2026-04-18T08:01:50.999Z</time></trkpt><trkpt lat="45.475727821045616" lon="11.050961531568262"><ele>205.0</ele><time>2026-04-18T08:01:52.999Z</time></trkpt><trkpt lat="45.4756734235976" lon="11.050849078408492"><ele>204.33333333333331</ele><time>2026-04-18T08:01:54.999Z</time></trkpt><trkpt lat="45.475602016965446" lon="11.050734833869399"><ele>203.66666666666669</ele><time>2026-04-18T08:01:56.999Z</time></trkpt><trkpt lat="45.47531433656991" lon="11.050965094833138"><ele>203.0</ele><time>2026-04-18T08:01:57.999Z</time></trkpt><trkpt lat="45.47523854522155" lon="11.050989238298898"><ele>201.4</ele><time>2026-04-18T08:01:58.999Z</time></trkpt><trkpt lat="45.47512640168983" lon="11.050998408418627"><ele>199.8</ele><time>2026-04-18T08:02:00.999Z</time></trkpt><trkpt lat="45.474987759315724" lon="11.05097728218946"><ele>198.2</ele><time>2026-04-18T08:02:02.999Z</time></trkpt><trkpt lat="45.474906429164704" lon="11.050983093378502"><ele>196.6</ele><time>2026-04-18T08:02:03.999Z</time></trkpt><trkpt lat="45.474839801141634" lon="11.051002127385804"><ele>195.0</ele><time>2026-04-18T08:02:04.999Z</time></trkpt><trkpt lat="45.47470633836705" lon="11.051079488261825"><ele>195.0</ele><time>2026-04-18T08:02:06.999Z</time></trkpt><trkpt lat="45.47462499462229" lon="11.051125295447656"><ele>195.0</ele><time>2026-04-18T08:02:07.999Z</time></trkpt><trkpt lat="45.47455793706297" lon="11.05114143880185"><ele>195.0</ele><time>2026-04-18T08:02:08.999Z</time></trkpt><trkpt lat="45.47444170875751" lon="11.05107590503919"><ele>195.0</ele><time>2026-04-18T08:02:10.999Z</time></trkpt><trkpt lat="45.474362392263316" lon="11.051052920739199"><ele>195.0</ele><time>2026-04-18T08:02:11.999Z</time></trkpt><trkpt lat="45.474277563692574" lon="11.051027053756595"><ele>195.0</ele><time>2026-04-18T08:02:12.999Z</time></trkpt><trkpt lat="45.47420893350095" lon="11.05099811804679"><ele>193.6</ele><time>2026-04-18T08:02:13.999Z</time></trkpt><trkpt lat="45.47409785058227" lon="11.050922123958967"><ele>192.2</ele><time>2026-04-18T08:02:15.999Z</time></trkpt><trkpt lat="45.47397836925734" lon="11.050914733251435"><ele>190.8</ele><time>2026-04-18T08:02:17.999Z</time></trkpt><trkpt lat="45.47389950667501" lon="11.050921890613683"><ele>189.4</ele><time>2026-04-18T08:02:18.999Z</time></trkpt><trkpt lat="45.473828998159874" lon="11.050918512189952"><ele>188.0</ele><time>2026-04-18T08:02:19.999Z</time></trkpt><trkpt lat="45.47376229845968" lon="11.05092333004244"><ele>186.83333333333331</ele><time>2026-04-18T08:02:20.999Z</time></trkpt><trkpt lat="45.473637089474536" lon="11.050925196690539"><ele>185.66666666666666</ele><time>2026-04-18T08:02:22.999Z</time></trkpt><trkpt lat="45.473572295587125" lon="11.050923407447723"><ele>184.5</ele><time>2026-04-18T08:02:23.999Z</time></trkpt><trkpt lat="45.47344740071494" lon="11.050898853304023"><ele>183.33333333333334</ele><time>2026-04-18T08:02:25.999Z</time></trkpt><trkpt lat="45.47338104123177" lon="11.050875901449512"><ele>182.16666666666669</ele><time>2026-04-18T08:02:27Z</time></trkpt><trkpt lat="45.473317880785544" lon="11.050871699328535"><ele>181.0</ele><time>2026-04-18T08:02:28Z</time></trkpt><trkpt lat="45.47318307141687" lon="11.050921691410263"><ele>181.0</ele><time>2026-04-18T08:02:30Z</time></trkpt><trkpt lat="45.47311628965436" lon="11.050925863738119"><ele>181.0</ele><time>2026-04-18T08:02:31Z</time></trkpt><trkpt lat="45.47304872104828" lon="11.050921310805672"><ele>181.0</ele><time>2026-04-18T08:02:32Z</time></trkpt><trkpt lat="45.47297365068152" lon="11.050900024616864"><ele>181.0</ele><time>2026-04-18T08:02:33Z</time></trkpt><trkpt lat="45.47289775412848" lon="11.050882464377393"><ele>181.0</ele><time>2026-04-18T08:02:34Z</time></trkpt><trkpt lat="45.47283316803668" lon="11.050897883580582"><ele>181.0</ele><time>2026-04-18T08:02:35Z</time></trkpt><trkpt lat="45.4727561558654" lon="11.050894377205193"><ele>181.0</ele><time>2026-04-18T08:02:36Z</time></trkpt><trkpt lat="45.47268146206299" lon="11.050876539143651"><ele>179.16666666666669</ele><time>2026-04-18T08:02:37Z</time></trkpt><trkpt lat="45.47259396117401" lon="11.050822660243867"><ele>177.33333333333334</ele><time>2026-04-18T08:02:38Z</time></trkpt><trkpt lat="45.47252241812241" lon="11.050837661835088"><ele>175.5</ele><time>2026-04-18T08:02:39Z</time></trkpt><trkpt lat="45.47245272732972" lon="11.050833537964865"><ele>173.66666666666666</ele><time>2026-04-18T08:02:40Z</time></trkpt><trkpt lat="45.47238827762672" lon="11.050846493981954"><ele>171.83333333333331</ele><time>2026-04-18T08:02:41Z</time></trkpt><trkpt lat="45.47231553650998" lon="11.050873090301629"><ele>170.0</ele><time>2026-04-18T08:02:42Z</time></trkpt><trkpt lat="45.47224140184528" lon="11.050909434339387"><ele>170.0</ele><time>2026-04-18T08:02:43Z</time></trkpt><trkpt lat="45.472170629008716" lon="11.050933586178301"><ele>170.0</ele><time>2026-04-18T08:02:44Z</time></trkpt><trkpt lat="45.472107057672424" lon="11.050925995963844"><ele>170.0</ele><time>2026-04-18T08:02:45Z</time></trkpt><trkpt lat="45.4720458539371" lon="11.05090400634495"><ele>170.0</ele><time>2026-04-18T08:02:46Z</time></trkpt><trkpt lat="45.47197960668127" lon="11.050926537886099"><ele>170.0</ele><time>2026-04-18T08:02:47Z</time></trkpt><trkpt lat="45.47187366257734" lon="11.050954072883586"><ele>170.0</ele><time>2026-04-18T08:02:49Z</time></trkpt><trkpt lat="45.47178141700928" lon="11.050962024531175"><ele>168.66666666666666</ele><time>2026-04-18T08:02:52Z</time></trkpt><trkpt lat="45.47166221750196" lon="11.05097659357736"><ele>167.33333333333331</ele><time>2026-04-18T08:02:54Z</time></trkpt><trkpt lat="45.47156452701003" lon="11.05097477346617"><ele>166.0</ele><time>2026-04-18T08:02:56Z</time></trkpt><trkpt lat="45.471494898298026" lon="11.050966985900125"><ele>164.66666666666666</ele><time>2026-04-18T08:02:57Z</time></trkpt><trkpt lat="45.47141789964706" lon="11.050966237572679"><ele>163.33333333333334</ele><time>2026-04-18T08:02:58Z</time></trkpt><trkpt lat="45.47133329413433" lon="11.05097708847156"><ele>162.0</ele><time>2026-04-18T08:02:59Z</time></trkpt><trkpt lat="45.47126134412678" lon="11.050996713143677"><ele>161.57142857142858</ele><time>2026-04-18T08:03:00Z</time></trkpt><trkpt lat="45.471196727431234" lon="11.050989887864677"><ele>161.14285714285714</ele><time>2026-04-18T08:03:01Z</time></trkpt><trkpt lat="45.47113033540296" lon="11.050957942120615"><ele>160.71428571428572</ele><time>2026-04-18T08:03:02Z</time></trkpt><trkpt lat="45.47105734137672" lon="11.050927064013091"><ele>160.28571428571428</ele><time>2026-04-18T08:03:03Z</time></trkpt><trkpt lat="45.4709861746907" lon="11.050887325557982"><ele>159.85714285714286</ele><time>2026-04-18T08:03:04Z</time></trkpt><trkpt lat="45.47092369734319" lon="11.050844700647968"><ele>159.42857142857142</ele><time>2026-04-18T08:03:05Z</time></trkpt><trkpt lat="45.47085957283776" lon="11.050818870788156"><ele>159.0</ele><time>2026-04-18T08:03:06Z</time></trkpt><trkpt lat="45.47077731446192" lon="11.050821926699987"><ele>159.0</ele><time>2026-04-18T08:03:07Z</time></trkpt><trkpt lat="45.47071287550922" lon="11.050810809492319"><ele>159.0</ele><time>2026-04-18T08:03:08Z</time></trkpt><trkpt lat="45.47064118826327" lon="11.050798449005983"><ele>159.0</ele><time>2026-04-18T08:03:09Z</time></trkpt><trkpt lat="45.47056303700915" lon="11.050773400417953"><ele>159.0</ele><time>2026-04-18T08:03:10Z</time></trkpt><trkpt lat="45.47047820207281" lon="11.05073918654204"><ele>159.0</ele><time>2026-04-18T08:03:11Z</time></trkpt><trkpt lat="45.47041710091697" lon="11.05071566316971"><ele>159.0</ele><time>2026-04-18T08:03:12Z</time></trkpt><trkpt lat="45.4703124700394" lon="11.05069088961124"><ele>155.2</ele><time>2026-04-18T08:03:14Z</time></trkpt><trkpt lat="45.47022050126469" lon="11.050630754926027"><ele>151.4</ele><time>2026-04-18T08:03:16Z</time></trkpt><trkpt lat="45.47013989509721" lon="11.050614171221188"><ele>147.6</ele><time>2026-04-18T08:03:18Z</time></trkpt><trkpt lat="45.47002643453953" lon="11.050683538803714"><ele>143.8</ele><time>2026-04-18T08:03:20Z</time></trkpt><trkpt lat="45.469943120832816" lon="11.050714016148092"><ele>140.0</ele><time>2026-04-18T08:03:21Z</time></trkpt><trkpt lat="45.46987930105041" lon="11.050757899790439"><ele>140.0</ele><time>2026-04-18T08:03:21.998Z</time></trkpt><trkpt lat="45.46979413438339" lon="11.050774696668787"><ele>140.0</ele><time>2026-04-18T08:03:22.998Z</time></trkpt><trkpt lat="45.46967422537289" lon="11.05086620720403"><ele>140.0</ele><time>2026-04-18T08:03:24.998Z</time></trkpt><trkpt lat="45.46960880317258" lon="11.050914046974441"><ele>140.0</ele><time>2026-04-18T08:03:25.998Z</time></trkpt><trkpt lat="45.46954725526196" lon="11.050964974825781"><ele>140.0</ele><time>2026-04-18T08:03:26.998Z</time></trkpt><trkpt lat="45.46948526001442" lon="11.05099683923601"><ele>140.0</ele><time>2026-04-18T08:03:27.999Z</time></trkpt><trkpt lat="45.46942216562638" lon="11.05102957579284"><ele>140.0</ele><time>2026-04-18T08:03:28.999Z</time></trkpt><trkpt lat="45.46940923095836" lon="11.050935200309858"><ele>140.0</ele><time>2026-04-18T08:03:37.999Z</time></trkpt><trkpt lat="45.46944013372558" lon="11.050843289055628"><ele>140.0</ele><time>2026-04-18T08:03:40.999Z</time></trkpt><trkpt lat="45.4694758978353" lon="11.050723238446615"><ele>140.0</ele><time>2026-04-18T08:03:42.999Z</time></trkpt><trkpt lat="45.46954453621553" lon="11.050598506314154"><ele>140.0</ele><time>2026-04-18T08:03:44.999Z</time></trkpt><trkpt lat="45.46963525110437" lon="11.050472709530304"><ele>140.0</ele><time>2026-04-18T08:03:46.999Z</time></trkpt><trkpt lat="45.469697783067254" lon="11.050408476491876"><ele>140.0</ele><time>2026-04-18T08:03:47.999Z</time></trkpt><trkpt lat="45.46974717300287" lon="11.050314496824551"><ele>140.0</ele><time>2026-04-18T08:03:48.999Z</time></trkpt><trkpt lat="45.46979508493115" lon="11.050224200052352"><ele>140.0</ele><time>2026-04-18T08:03:50Z</time></trkpt><trkpt lat="45.46984669335186" lon="11.050147931617458"><ele>140.0</ele><time>2026-04-18T08:03:51Z</time></trkpt><trkpt lat="45.46990070415406" lon="11.05008350914798"><ele>140.0</ele><time>2026-04-18T08:03:52Z</time></trkpt><trkpt lat="45.46995619248672" lon="11.050033720971161"><ele>140.0</ele><time>2026-04-18T08:03:53Z</time></trkpt><trkpt lat="45.470014770442305" lon="11.049971002229606"><ele>137.0</ele><time>2026-04-18T08:03:54Z</time></trkpt><trkpt lat="45.47008199539431" lon="11.049900390640557"><ele>134.0</ele><time>2026-04-18T08:03:55Z</time></trkpt><trkpt lat="45.47014249784781" lon="11.04982911085119"><ele>131.0</ele><time>2026-04-18T08:03:56Z</time></trkpt><trkpt lat="45.47022247274182" lon="11.049761183305561"><ele>128.0</ele><time>2026-04-18T08:03:57Z</time></trkpt><trkpt lat="45.47027211149899" lon="11.049703841358367"><ele>124.99999999999999</ele><time>2026-04-18T08:03:58Z</time></trkpt><trkpt lat="45.47033031095018" lon="11.04961836253124"><ele>122.0</ele><time>2026-04-18T08:04:00Z</time></trkpt><trkpt lat="45.47039935887193" lon="11.049539291219151"><ele>124.0</ele><time>2026-04-18T08:04:02Z</time></trkpt><trkpt lat="45.47045872510405" lon="11.049429437089598"><ele>125.99999999999999</ele><time>2026-04-18T08:04:04Z</time></trkpt><trkpt lat="45.47051667148515" lon="11.04931963374664"><ele>127.99999999999999</ele><time>2026-04-18T08:04:06Z</time></trkpt><trkpt lat="45.47061883619445" lon="11.049245797796523"><ele>130.0</ele><time>2026-04-18T08:04:08Z</time></trkpt><trkpt lat="45.470734107083864" lon="11.049196749503094"><ele>132.0</ele><time>2026-04-18T08:04:10Z</time></trkpt><trkpt lat="45.47080523668545" lon="11.049185596025762"><ele>132.0</ele><time>2026-04-18T08:04:11Z</time></trkpt><trkpt lat="45.47087163285317" lon="11.049211079489371"><ele>132.0</ele><time>2026-04-18T08:04:12Z</time></trkpt><trkpt lat="45.470940765513355" lon="11.049229999464115"><ele>132.0</ele><time>2026-04-18T08:04:13Z</time></trkpt><trkpt lat="45.47101417021923" lon="11.049240175849334"><ele>132.0</ele><time>2026-04-18T08:04:14Z</time></trkpt><trkpt lat="45.47108926627517" lon="11.049258044863327"><ele>132.0</ele><time>2026-04-18T08:04:15Z</time></trkpt><trkpt lat="45.471170925507" lon="11.049300459568979"><ele>132.0</ele><time>2026-04-18T08:04:16Z</time></trkpt><trkpt lat="45.471248453062294" lon="11.049349568684555"><ele>133.6</ele><time>2026-04-18T08:04:17Z</time></trkpt><trkpt lat="45.47132627663354" lon="11.049230128857785"><ele>135.2</ele><time>2026-04-18T08:04:19Z</time></trkpt><trkpt lat="45.47134665965466" lon="11.049109672597776"><ele>136.8</ele><time>2026-04-18T08:04:20Z</time></trkpt><trkpt lat="45.47136982550212" lon="11.048967124841905"><ele>138.4</ele><time>2026-04-18T08:04:21Z</time></trkpt><trkpt lat="45.471390710716456" lon="11.048856204266045"><ele>140.0</ele><time>2026-04-18T08:04:22Z</time></trkpt><trkpt lat="45.47137720143201" lon="11.04874524311365"><ele>140.0</ele><time>2026-04-18T08:04:23Z</time></trkpt><trkpt lat="45.471350426494865" lon="11.048632405754477"><ele>140.0</ele><time>2026-04-18T08:04:24Z</time></trkpt><trkpt lat="45.471339006088805" lon="11.048498055128128"><ele>140.0</ele><time>2026-04-18T08:04:25Z</time></trkpt><trkpt lat="45.47134571278564" lon="11.048394920964933"><ele>140.0</ele><time>2026-04-18T08:04:26Z</time></trkpt><trkpt lat="45.47133542184135" lon="11.048281192588693"><ele>140.0</ele><time>2026-04-18T08:04:27Z</time></trkpt><trkpt lat="45.47134012654472" lon="11.048186883234228"><ele>140.0</ele><time>2026-04-18T08:04:28Z</time></trkpt><trkpt lat="45.471348634783176" lon="11.048074098047628"><ele>138.5</ele><time>2026-04-18T08:04:29Z</time></trkpt><trkpt lat="45.47137788464869" lon="11.047936370086004"><ele>137.0</ele><time>2026-04-18T08:04:30Z</time></trkpt><trkpt lat="45.47141497412116" lon="11.047819121544487"><ele>135.5</ele><time>2026-04-18T08:04:31Z</time></trkpt><trkpt lat="45.47145996062638" lon="11.047711905972156"><ele>134.0</ele><time>2026-04-18T08:04:32Z</time></trkpt><trkpt lat="45.471498410811904" lon="11.047611451372687"><ele>132.5</ele><time>2026-04-18T08:04:33Z</time></trkpt><trkpt lat="45.47155282709545" lon="11.047550050827159"><ele>131.0</ele><time>2026-04-18T08:04:34Z</time></trkpt><trkpt lat="45.47161086141491" lon="11.047426358344621"><ele>127.8</ele><time>2026-04-18T08:04:35Z</time></trkpt><trkpt lat="45.4716665406241" lon="11.04732953273877"><ele>124.6</ele><time>2026-04-18T08:04:36Z</time></trkpt><trkpt lat="45.47176422921751" lon="11.0472537185719"><ele>121.4</ele><time>2026-04-18T08:04:37Z</time></trkpt><trkpt lat="45.47182741919417" lon="11.047132531301909"><ele>118.2</ele><time>2026-04-18T08:04:38Z</time></trkpt><trkpt lat="45.471892131526694" lon="11.047044322812727"><ele>115.0</ele><time>2026-04-18T08:04:39Z</time></trkpt><trkpt lat="45.471943539189986" lon="11.046960719725941"><ele>115.0</ele><time>2026-04-18T08:04:40Z</time></trkpt><trkpt lat="45.471993512941054" lon="11.046871363914637"><ele>115.0</ele><time>2026-04-18T08:04:41Z</time></trkpt><trkpt lat="45.472040658820745" lon="11.046783277809363"><ele>115.0</ele><time>2026-04-18T08:04:42Z</time></trkpt><trkpt lat="45.47208236171516" lon="11.046701358098998"><ele>115.0</ele><time>2026-04-18T08:04:43.001Z</time></trkpt><trkpt lat="45.47218394972424" lon="11.046508434393594"><ele>115.0</ele><time>2026-04-18T08:04:45.001Z</time></trkpt><trkpt lat="45.47223750057803" lon="11.046406701205386"><ele>115.33333333333334</ele><time>2026-04-18T08:04:46.001Z</time></trkpt><trkpt lat="45.4722938686271" lon="11.046322280719732"><ele>115.66666666666667</ele><time>2026-04-18T08:04:47.001Z</time></trkpt><trkpt lat="45.472373931615294" lon="11.046267861688463"><ele>116.0</ele><time>2026-04-18T08:04:48.001Z</time></trkpt><trkpt lat="45.47246218400725" lon="11.046233181573006"><ele>116.33333333333334</ele><time>2026-04-18T08:04:49.001Z</time></trkpt><trkpt lat="45.472558050252594" lon="11.046221812737311"><ele>116.66666666666667</ele><time>2026-04-18T08:04:50.001Z</time></trkpt><trkpt lat="45.47263576737265" lon="11.046237248718727"><ele>117.0</ele><time>2026-04-18T08:04:51.001Z</time></trkpt><trkpt lat="45.472721763982335" lon="11.046254264281826"><ele>117.0</ele><time>2026-04-18T08:04:52.001Z</time></trkpt><trkpt lat="45.47282084889574" lon="11.046293186854957"><ele>117.0</ele><time>2026-04-18T08:04:53.001Z</time></trkpt><trkpt lat="45.472909530079214" lon="11.046317026988195"><ele>117.0</ele><time>2026-04-18T08:04:54.001Z</time></trkpt><trkpt lat="45.472967639779995" lon="11.046368948584433"><ele>117.0</ele><time>2026-04-18T08:04:55.001Z</time></trkpt><trkpt lat="45.47307118675978" lon="11.046450541021496"><ele>117.0</ele><time>2026-04-18T08:04:57.001Z</time></trkpt><trkpt lat="45.47313982440517" lon="11.046458208041534"><ele>117.0</ele><time>2026-04-18T08:04:58.001Z</time></trkpt><trkpt lat="45.47320615763009" lon="11.046389147782877"><ele>117.6</ele><time>2026-04-18T08:04:59.001Z</time></trkpt><trkpt lat="45.4733115195515" lon="11.046340792667637"><ele>118.19999999999999</ele><time>2026-04-18T08:05:00.001Z</time></trkpt><trkpt lat="45.473405653204935" lon="11.04633904700064"><ele>118.8</ele><time>2026-04-18T08:05:01.001Z</time></trkpt><trkpt lat="45.473488189634466" lon="11.04631814550299"><ele>119.4</ele><time>2026-04-18T08:05:02.001Z</time></trkpt><trkpt lat="45.47356293774674" lon="11.046262633838143"><ele>120.0</ele><time>2026-04-18T08:05:03.001Z</time></trkpt><trkpt lat="45.473644922691186" lon="11.046210973598637"><ele>120.0</ele><time>2026-04-18T08:05:04.001Z</time></trkpt><trkpt lat="45.47372938755098" lon="11.046163907704036"><ele>120.0</ele><time>2026-04-18T08:05:05.001Z</time></trkpt><trkpt lat="45.47380643412081" lon="11.046162709901136"><ele>120.0</ele><time>2026-04-18T08:05:06.001Z</time></trkpt><trkpt lat="45.473900084177096" lon="11.04617112516514"><ele>120.0</ele><time>2026-04-18T08:05:07.001Z</time></trkpt><trkpt lat="45.4740188360762" lon="11.046179933618301"><ele>120.0</ele><time>2026-04-18T08:05:08.001Z</time></trkpt><trkpt lat="45.47413894519334" lon="11.046219463431006"><ele>119.2</ele><time>2026-04-18T08:05:09.001Z</time></trkpt><trkpt lat="45.47425732118949" lon="11.046251809345513"><ele>118.4</ele><time>2026-04-18T08:05:10.001Z</time></trkpt><trkpt lat="45.47436987823228" lon="11.046276008047549"><ele>117.6</ele><time>2026-04-18T08:05:11.001Z</time></trkpt><trkpt lat="45.474473269924346" lon="11.046300462257525"><ele>116.8</ele><time>2026-04-18T08:05:12.001Z</time></trkpt><trkpt lat="45.47456861339011" lon="11.046330620360502"><ele>116.0</ele><time>2026-04-18T08:05:13.001Z</time></trkpt><trkpt lat="45.474661013938416" lon="11.04635536423423"><ele>115.99999999999999</ele><time>2026-04-18T08:05:14.001Z</time></trkpt><trkpt lat="45.47475672044786" lon="11.046370205018917"><ele>116.0</ele><time>2026-04-18T08:05:15.001Z</time></trkpt><trkpt lat="45.474847436816404" lon="11.04638868380815"><ele>116.0</ele><time>2026-04-18T08:05:16.001Z</time></trkpt><trkpt lat="45.47493725412048" lon="11.04637084490884"><ele>116.0</ele><time>2026-04-18T08:05:17.001Z</time></trkpt><trkpt lat="45.47501791639365" lon="11.046366120803667"><ele>115.99999999999999</ele><time>2026-04-18T08:05:18.001Z</time></trkpt><trkpt lat="45.47508443674001" lon="11.046381449487125"><ele>116.0</ele><time>2026-04-18T08:05:19.001Z</time></trkpt><trkpt lat="45.47514115706996" lon="11.046321822547979"><ele>115.99999999999999</ele><time>2026-04-18T08:05:20.001Z</time></trkpt><trkpt lat="45.47518976140836" lon="11.046231309758603"><ele>116.0</ele><time>2026-04-18T08:05:22.001Z</time></trkpt><trkpt lat="45.4752054978083" lon="11.046097603899097"><ele>116.0</ele><time>2026-04-18T08:05:24.001Z</time></trkpt><trkpt lat="45.47522042671038" lon="11.045982717544284"><ele>116.0</ele><time>2026-04-18T08:05:25.001Z</time></trkpt><trkpt lat="45.475229973272214" lon="11.045884071694696"><ele>115.99999999999999</ele><time>2026-04-18T08:05:26.001Z</time></trkpt><trkpt lat="45.475192602078046" lon="11.045727598738234"><ele>116.0</ele><time>2026-04-18T08:05:28.001Z</time></trkpt><trkpt lat="45.475157797939445" lon="11.04563828717323"><ele>116.83333333333333</ele><time>2026-04-18T08:05:29.001Z</time></trkpt><trkpt lat="45.47509255148034" lon="11.045563269469634"><ele>117.66666666666666</ele><time>2026-04-18T08:05:30.001Z</time></trkpt><trkpt lat="45.47503243537149" lon="11.045479804095512"><ele>118.5</ele><time>2026-04-18T08:05:31.001Z</time></trkpt><trkpt lat="45.47497017830367" lon="11.045400433454766"><ele>119.33333333333334</ele><time>2026-04-18T08:05:32.001Z</time></trkpt><trkpt lat="45.47493846336636" lon="11.045315818230618"><ele>120.16666666666667</ele><time>2026-04-18T08:05:33.001Z</time></trkpt><trkpt lat="45.47488907231808" lon="11.045229655260378"><ele>121.0</ele><time>2026-04-18T08:05:34.001Z</time></trkpt><trkpt lat="45.4748392955405" lon="11.045143578249602"><ele>121.00000000000001</ele><time>2026-04-18T08:05:35.001Z</time></trkpt><trkpt lat="45.47480631960655" lon="11.04506474005607"><ele>121.0</ele><time>2026-04-18T08:05:36.001Z</time></trkpt><trkpt lat="45.47477031866549" lon="11.044978306424202"><ele>121.0</ele><time>2026-04-18T08:05:37.001Z</time></trkpt><trkpt lat="45.47471553655752" lon="11.044829041428391"><ele>121.0</ele><time>2026-04-18T08:05:39.001Z</time></trkpt><trkpt lat="45.47466498691142" lon="11.044672129974254"><ele>121.00000000000001</ele><time>2026-04-18T08:05:41.001Z</time></trkpt><trkpt lat="45.4746410397646" lon="11.044576916206676"><ele>121.0</ele><time>2026-04-18T08:05:42.001Z</time></trkpt><trkpt lat="45.47459835156115" lon="11.044463028984836"><ele>120.50000000000001</ele><time>2026-04-18T08:05:43.001Z</time></trkpt><trkpt lat="45.474560037043354" lon="11.044340041378419"><ele>120.0</ele><time>2026-04-18T08:05:44.001Z</time></trkpt><trkpt lat="45.474529770489035" lon="11.04422884139123"><ele>119.5</ele><time>2026-04-18T08:05:45.001Z</time></trkpt><trkpt lat="45.474506915482415" lon="11.04412535440704"><ele>119.0</ele><time>2026-04-18T08:05:46.001Z</time></trkpt><trkpt lat="45.474466388028866" lon="11.04403082055926"><ele>118.50000000000001</ele><time>2026-04-18T08:05:47.001Z</time></trkpt><trkpt lat="45.47443602598078" lon="11.043927981176886"><ele>118.0</ele><time>2026-04-18T08:05:48.001Z</time></trkpt><trkpt lat="45.47440174467169" lon="11.043807031271164"><ele>118.0</ele><time>2026-04-18T08:05:49.001Z</time></trkpt><trkpt lat="45.4743761965187" lon="11.04370091969742"><ele>118.00000000000001</ele><time>2026-04-18T08:05:50.001Z</time></trkpt><trkpt lat="45.474334565301874" lon="11.043578334428883"><ele>118.00000000000001</ele><time>2026-04-18T08:05:51.001Z</time></trkpt><trkpt lat="45.47429435685677" lon="11.0434816212807"><ele>118.0</ele><time>2026-04-18T08:05:52.001Z</time></trkpt><trkpt lat="45.474232260575796" lon="11.043329293103673"><ele>118.0</ele><time>2026-04-18T08:05:54.001Z</time></trkpt><trkpt lat="45.47418629918713" lon="11.04324328413837"><ele>118.83333333333334</ele><time>2026-04-18T08:05:55.001Z</time></trkpt><trkpt lat="45.474151917087525" lon="11.043161119594464"><ele>119.66666666666667</ele><time>2026-04-18T08:05:56.001Z</time></trkpt><trkpt lat="45.474110451283835" lon="11.043086246994504"><ele>120.5</ele><time>2026-04-18T08:05:57.001Z</time></trkpt><trkpt lat="45.47408250763468" lon="11.043003412391696"><ele>121.33333333333334</ele><time>2026-04-18T08:05:58.001Z</time></trkpt><trkpt lat="45.474050140604525" lon="11.042921832986536"><ele>122.16666666666667</ele><time>2026-04-18T08:05:59.001Z</time></trkpt><trkpt lat="45.474013458997476" lon="11.04273630655738"><ele>123.0</ele><time>2026-04-18T08:06:01.001Z</time></trkpt><trkpt lat="45.47398601585394" lon="11.042606467501736"><ele>123.0</ele><time>2026-04-18T08:06:02.001Z</time></trkpt><trkpt lat="45.47397403468933" lon="11.042490646186012"><ele>123.00000000000001</ele><time>2026-04-18T08:06:03.001Z</time></trkpt><trkpt lat="45.47396067274596" lon="11.042395341901866"><ele>123.00000000000001</ele><time>2026-04-18T08:06:04.001Z</time></trkpt><trkpt lat="45.47397352789893" lon="11.042212723287937"><ele>123.0</ele><time>2026-04-18T08:06:06.001Z</time></trkpt><trkpt lat="45.4740195472353" lon="11.042058543092338"><ele>123.0</ele><time>2026-04-18T08:06:08.001Z</time></trkpt><trkpt lat="45.47409183094774" lon="11.041925684927405"><ele>121.0</ele><time>2026-04-18T08:06:10.001Z</time></trkpt><trkpt lat="45.474143654914265" lon="11.041861545717586"><ele>119.0</ele><time>2026-04-18T08:06:11.001Z</time></trkpt><trkpt lat="45.47425698068399" lon="11.04174793885901"><ele>117.0</ele><time>2026-04-18T08:06:13.001Z</time></trkpt><trkpt lat="45.47432126869303" lon="11.04168198700368"><ele>115.0</ele><time>2026-04-18T08:06:14.001Z</time></trkpt><trkpt lat="45.47437978594822" lon="11.041616990921607"><ele>113.0</ele><time>2026-04-18T08:06:15.001Z</time></trkpt><trkpt lat="45.47445020925785" lon="11.041573326630528"><ele>111.0</ele><time>2026-04-18T08:06:16.001Z</time></trkpt><trkpt lat="45.47451884090607" lon="11.041511511710809"><ele>109.5</ele><time>2026-04-18T08:06:17.001Z</time></trkpt><trkpt lat="45.47458220833301" lon="11.041437547296372"><ele>108.0</ele><time>2026-04-18T08:06:18.001Z</time></trkpt><trkpt lat="45.474631628102294" lon="11.041363456416844"><ele>106.5</ele><time>2026-04-18T08:06:19.001Z</time></trkpt><trkpt lat="45.474688598173095" lon="11.041282125200516"><ele>105.0</ele><time>2026-04-18T08:06:20.001Z</time></trkpt><trkpt lat="45.47473966828445" lon="11.041205900765554"><ele>103.5</ele><time>2026-04-18T08:06:21.001Z</time></trkpt><trkpt lat="45.474800160413984" lon="11.04111146864525"><ele>102.0</ele><time>2026-04-18T08:06:23.001Z</time></trkpt><trkpt lat="45.474883425176806" lon="11.041034190548581"><ele>105.6</ele><time>2026-04-18T08:06:25.001Z</time></trkpt><trkpt lat="45.47494468398482" lon="11.040928584847013"><ele>109.19999999999999</ele><time>2026-04-18T08:06:27.001Z</time></trkpt><trkpt lat="45.47495773118981" lon="11.04081969911582"><ele>112.8</ele><time>2026-04-18T08:06:30.001Z</time></trkpt><trkpt lat="45.4749797646296" lon="11.040670584075754"><ele>116.4</ele><time>2026-04-18T08:06:33.001Z</time></trkpt><trkpt lat="45.4749761280691" lon="11.040505864621057"><ele>120.0</ele><time>2026-04-18T08:06:35.001Z</time></trkpt><trkpt lat="45.47490482002125" lon="11.040344433742183"><ele>122.0</ele><time>2026-04-18T08:06:37.001Z</time></trkpt><trkpt lat="45.47482657051686" lon="11.040269466318922"><ele>124.0</ele><time>2026-04-18T08:06:39.001Z</time></trkpt><trkpt lat="45.47487027401147" lon="11.040630002304301"><ele>126.0</ele><time>2026-04-18T08:06:42.001Z</time></trkpt><trkpt lat="45.47483395714905" lon="11.040765216671312"><ele>125.0</ele><time>2026-04-18T08:06:44.001Z</time></trkpt><trkpt lat="45.474778566121344" lon="11.040833794768947"><ele>124.0</ele><time>2026-04-18T08:06:45.001Z</time></trkpt><trkpt lat="45.47470056276389" lon="11.040887016725891"><ele>123.0</ele><time>2026-04-18T08:06:46.001Z</time></trkpt><trkpt lat="45.47462345276184" lon="11.040935884873694"><ele>122.0</ele><time>2026-04-18T08:06:47.001Z</time></trkpt><trkpt lat="45.47455898272645" lon="11.040983350433724"><ele>121.0</ele><time>2026-04-18T08:06:48.001Z</time></trkpt><trkpt lat="45.47450193406851" lon="11.041037823267917"><ele>120.0</ele><time>2026-04-18T08:06:49.001Z</time></trkpt><trkpt lat="45.47443631427946" lon="11.041096480561682"><ele>117.0</ele><time>2026-04-18T08:06:50.001Z</time></trkpt><trkpt lat="45.47436747363956" lon="11.041159618758751"><ele>114.0</ele><time>2026-04-18T08:06:51.001Z</time></trkpt><trkpt lat="45.47430937210987" lon="11.04120711170765"><ele>111.0</ele><time>2026-04-18T08:06:52.001Z</time></trkpt><trkpt lat="45.474246862628696" lon="11.041238107070441"><ele>108.0</ele><time>2026-04-18T08:06:53.001Z</time></trkpt><trkpt lat="45.47409923224369" lon="11.041273799910408"><ele>105.0</ele><time>2026-04-18T08:06:55.001Z</time></trkpt><trkpt lat="45.4740229411738" lon="11.041284787415766"><ele>102.0</ele><time>2026-04-18T08:06:56.001Z</time></trkpt><trkpt lat="45.47393840686322" lon="11.041286382547634"><ele>102.0</ele><time>2026-04-18T08:06:57.001Z</time></trkpt><trkpt lat="45.47386828624098" lon="11.04129172320472"><ele>102.0</ele><time>2026-04-18T08:06:58.001Z</time></trkpt><trkpt lat="45.47380359981888" lon="11.04130971373436"><ele>102.0</ele><time>2026-04-18T08:06:59.001Z</time></trkpt><trkpt lat="45.47373335540896" lon="11.041343014497611"><ele>102.0</ele><time>2026-04-18T08:07:00.001Z</time></trkpt><trkpt lat="45.47366349346143" lon="11.04138014341082"><ele>102.0</ele><time>2026-04-18T08:07:01.001Z</time></trkpt><trkpt lat="45.473597971203496" lon="11.041427097474456"><ele>102.0</ele><time>2026-04-18T08:07:02.001Z</time></trkpt><trkpt lat="45.473533414012046" lon="11.041474244367231"><ele>102.0</ele><time>2026-04-18T08:07:03.001Z</time></trkpt><trkpt lat="45.473460732443826" lon="11.041541401306896"><ele>99.5</ele><time>2026-04-18T08:07:04.001Z</time></trkpt><trkpt lat="45.4733765721208" lon="11.041617796894707"><ele>97.0</ele><time>2026-04-18T08:07:05.001Z</time></trkpt><trkpt lat="45.473269660102545" lon="11.041730700334103"><ele>94.5</ele><time>2026-04-18T08:07:06.001Z</time></trkpt><trkpt lat="45.473169219427184" lon="11.041847201465458"><ele>92.0</ele><time>2026-04-18T08:07:07.001Z</time></trkpt><trkpt lat="45.47306708557101" lon="11.041966640410022"><ele>91.75</ele><time>2026-04-18T08:07:08.001Z</time></trkpt><trkpt lat="45.47297662251582" lon="11.042085490428637"><ele>91.5</ele><time>2026-04-18T08:07:09.001Z</time></trkpt><trkpt lat="45.47288762205097" lon="11.042207995847042"><ele>91.25</ele><time>2026-04-18T08:07:10.001Z</time></trkpt><trkpt lat="45.472815863822454" lon="11.042329874426052"><ele>91.0</ele><time>2026-04-18T08:07:11.001Z</time></trkpt><trkpt lat="45.472759436367596" lon="11.042450387063273"><ele>88.39999999999999</ele><time>2026-04-18T08:07:12.001Z</time></trkpt><trkpt lat="45.47270881345572" lon="11.042593361486144"><ele>85.8</ele><time>2026-04-18T08:07:13.001Z</time></trkpt><trkpt lat="45.472679147104614" lon="11.04274750843166"><ele>83.19999999999999</ele><time>2026-04-18T08:07:14.001Z</time></trkpt><trkpt lat="45.47267138397354" lon="11.042897573842655"><ele>80.6</ele><time>2026-04-18T08:07:15.001Z</time></trkpt><trkpt lat="45.47265695906518" lon="11.04299538766349"><ele>78.0</ele><time>2026-04-18T08:07:16.001Z</time></trkpt><trkpt lat="45.47254453370803" lon="11.043113198525718"><ele>78.0</ele><time>2026-04-18T08:07:18.001Z</time></trkpt><trkpt lat="45.47243688933779" lon="11.043179045121942"><ele>78.0</ele><time>2026-04-18T08:07:19.001Z</time></trkpt><trkpt lat="45.47230900867421" lon="11.04324435920184"><ele>78.0</ele><time>2026-04-18T08:07:20.001Z</time></trkpt><trkpt lat="45.47220356283925" lon="11.04329821486415"><ele>78.0</ele><time>2026-04-18T08:07:21.001Z</time></trkpt><trkpt lat="45.47212080740104" lon="11.043344395177202"><ele>77.0</ele><time>2026-04-18T08:07:22.001Z</time></trkpt><trkpt lat="45.47205225203776" lon="11.043386648774467"><ele>76.0</ele><time>2026-04-18T08:07:23.001Z</time></trkpt><trkpt lat="45.47198638084149" lon="11.043439721408733"><ele>75.0</ele><time>2026-04-18T08:07:24.002Z</time></trkpt><trkpt lat="45.471882030626496" lon="11.04348195146988"><ele>74.0</ele><time>2026-04-18T08:07:25.002Z</time></trkpt><trkpt lat="45.47176632414781" lon="11.043481340901334"><ele>73.0</ele><time>2026-04-18T08:07:26.002Z</time></trkpt><trkpt lat="45.47166515233962" lon="11.043470158664494"><ele>73.0</ele><time>2026-04-18T08:07:27.002Z</time></trkpt><trkpt lat="45.47156221476253" lon="11.04345583086507"><ele>73.0</ele><time>2026-04-18T08:07:28.002Z</time></trkpt><trkpt lat="45.47147897670199" lon="11.043444103222898"><ele>73.0</ele><time>2026-04-18T08:07:29.002Z</time></trkpt><trkpt lat="45.471413060957126" lon="11.043433657909922"><ele>73.0</ele><time>2026-04-18T08:07:30.002Z</time></trkpt><trkpt lat="45.47133687735459" lon="11.043421237910776"><ele>73.0</ele><time>2026-04-18T08:07:33.002Z</time></trkpt><trkpt lat="45.47126142422129" lon="11.043408826678128"><ele>73.0</ele><time>2026-04-18T08:07:41.002Z</time></trkpt><trkpt lat="45.47112600917525" lon="11.043405817921096"><ele>71.8</ele><time>2026-04-18T08:07:43.002Z</time></trkpt><trkpt lat="45.47103144993978" lon="11.043390859773533"><ele>70.6</ele><time>2026-04-18T08:07:44.002Z</time></trkpt><trkpt lat="45.47092234378307" lon="11.043412509089531"><ele>69.4</ele><time>2026-04-18T08:07:45.002Z</time></trkpt><trkpt lat="45.470807593439204" lon="11.04341011263432"><ele>68.2</ele><time>2026-04-18T08:07:46.002Z</time></trkpt><trkpt lat="45.470704750128526" lon="11.043398494576646"><ele>67.0</ele><time>2026-04-18T08:07:47.002Z</time></trkpt><trkpt lat="45.470605958116074" lon="11.043416885968515"><ele>67.0</ele><time>2026-04-18T08:07:48.002Z</time></trkpt><trkpt lat="45.47050990139329" lon="11.04345099648416"><ele>67.0</ele><time>2026-04-18T08:07:49.002Z</time></trkpt><trkpt lat="45.47043743414798" lon="11.043499478501861"><ele>67.0</ele><time>2026-04-18T08:07:50.002Z</time></trkpt><trkpt lat="45.470361256124654" lon="11.04353479946716"><ele>67.0</ele><time>2026-04-18T08:07:51.002Z</time></trkpt><trkpt lat="45.47028812576895" lon="11.043539638347038"><ele>67.0</ele><time>2026-04-18T08:07:52.002Z</time></trkpt><trkpt lat="45.47020611443924" lon="11.043563744737112"><ele>67.0</ele><time>2026-04-18T08:07:53.002Z</time></trkpt><trkpt lat="45.47010637089724" lon="11.043615746327383"><ele>66.5</ele><time>2026-04-18T08:07:54.002Z</time></trkpt><trkpt lat="45.47000284042962" lon="11.04361490870479"><ele>66.0</ele><time>2026-04-18T08:07:55.001Z</time></trkpt><trkpt lat="45.46993934254842" lon="11.04364726043319"><ele>65.5</ele><time>2026-04-18T08:07:56.001Z</time></trkpt><trkpt lat="45.469865601492124" lon="11.043640745614299"><ele>65.0</ele><time>2026-04-18T08:07:58.001Z</time></trkpt><trkpt lat="45.469802276798504" lon="11.043652489678411"><ele>64.5</ele><time>2026-04-18T08:08:00.001Z</time></trkpt><trkpt lat="45.46968146059521" lon="11.043672134881167"><ele>64.0</ele><time>2026-04-18T08:08:02.001Z</time></trkpt><trkpt lat="45.46959718787998" lon="11.043685685310997"><ele>63.5</ele><time>2026-04-18T08:08:03.001Z</time></trkpt><trkpt lat="45.46949507695976" lon="11.043712805607445"><ele>63.0</ele><time>2026-04-18T08:08:04.001Z</time></trkpt><trkpt lat="45.469381425864505" lon="11.043758278727369"><ele>62.5</ele><time>2026-04-18T08:08:05.001Z</time></trkpt><trkpt lat="45.46926192779361" lon="11.043809349479183"><ele>62.0</ele><time>2026-04-18T08:08:06.001Z</time></trkpt><trkpt lat="45.46915551317001" lon="11.043854828658628"><ele>62.0</ele><time>2026-04-18T08:08:07.001Z</time></trkpt><trkpt lat="45.46906969010428" lon="11.043891507488409"><ele>62.0</ele><time>2026-04-18T08:08:08.001Z</time></trkpt><trkpt lat="45.469003949338905" lon="11.043916340019237"><ele>62.0</ele><time>2026-04-18T08:08:09.001Z</time></trkpt><trkpt lat="45.468912184734386" lon="11.043939018997966"><ele>62.0</ele><time>2026-04-18T08:08:11.001Z</time></trkpt><trkpt lat="45.468810308760546" lon="11.043714220254358"><ele>62.0</ele><time>2026-04-18T08:08:12.001Z</time></trkpt><trkpt lat="45.468759844097725" lon="11.043563388585826"><ele>61.0</ele><time>2026-04-18T08:08:13.001Z</time></trkpt><trkpt lat="45.46871395227188" lon="11.043371853105588"><ele>60.0</ele><time>2026-04-18T08:08:14.001Z</time></trkpt><trkpt lat="45.46866865205289" lon="11.043162534879773"><ele>59.0</ele><time>2026-04-18T08:08:15.001Z</time></trkpt><trkpt lat="45.46862369813068" lon="11.042935284691142"><ele>59.0</ele><time>2026-04-18T08:08:16.001Z</time></trkpt><trkpt lat="45.468576750702184" lon="11.042690837906846"><ele>59.0</ele><time>2026-04-18T08:08:17.001Z</time></trkpt><trkpt lat="45.46853783522875" lon="11.042457303714514"><ele>59.0</ele><time>2026-04-18T08:08:18.001Z</time></trkpt><trkpt lat="45.46850400945603" lon="11.042232191866708"><ele>58.66666666666667</ele><time>2026-04-18T08:08:19.001Z</time></trkpt><trkpt lat="45.46847306687452" lon="11.041986379178022"><ele>58.33333333333333</ele><time>2026-04-18T08:08:20.001Z</time></trkpt><trkpt lat="45.468444053188826" lon="11.041735253941361"><ele>58.0</ele><time>2026-04-18T08:08:21.001Z</time></trkpt><trkpt lat="45.4684177530869" lon="11.04151305236037"><ele>58.0</ele><time>2026-04-18T08:08:22.001Z</time></trkpt><trkpt lat="45.46838781290578" lon="11.041297558857906"><ele>58.0</ele><time>2026-04-18T08:08:23.001Z</time></trkpt><trkpt lat="45.46835890587065" lon="11.041080210129701"><ele>58.0</ele><time>2026-04-18T08:08:24.001Z</time></trkpt><trkpt lat="45.468331389160454" lon="11.040861340181692"><ele>59.33333333333333</ele><time>2026-04-18T08:08:25.001Z</time></trkpt><trkpt lat="45.46830535687409" lon="11.04062313568834"><ele>60.66666666666667</ele><time>2026-04-18T08:08:26.001Z</time></trkpt><trkpt lat="45.46828075466098" lon="11.040391255004776"><ele>62.0</ele><time>2026-04-18T08:08:27.001Z</time></trkpt><trkpt lat="45.46824800196446" lon="11.040162188122428"><ele>62.0</ele><time>2026-04-18T08:08:28.001Z</time></trkpt><trkpt lat="45.46819714452847" lon="11.039974387992984"><ele>62.0</ele><time>2026-04-18T08:08:29.001Z</time></trkpt><trkpt lat="45.468141020882" lon="11.039762402200804"><ele>62.0</ele><time>2026-04-18T08:08:30.001Z</time></trkpt><trkpt lat="45.468103713043" lon="11.039536378246122"><ele>62.333333333333336</ele><time>2026-04-18T08:08:31.001Z</time></trkpt><trkpt lat="45.46808634177411" lon="11.039300097972488"><ele>62.66666666666667</ele><time>2026-04-18T08:08:32.001Z</time></trkpt><trkpt lat="45.46808797224306" lon="11.039073595934493"><ele>63.0</ele><time>2026-04-18T08:08:33.001Z</time></trkpt><trkpt lat="45.46809001662479" lon="11.038884088713017"><ele>63.4</ele><time>2026-04-18T08:08:34.001Z</time></trkpt><trkpt lat="45.46809171752242" lon="11.038716304432427"><ele>63.8</ele><time>2026-04-18T08:08:35.001Z</time></trkpt><trkpt lat="45.46809263212555" lon="11.038578150845197"><ele>64.2</ele><time>2026-04-18T08:08:36.001Z</time></trkpt><trkpt lat="45.468093369341055" lon="11.038466792415923"><ele>64.6</ele><time>2026-04-18T08:08:37.001Z</time></trkpt><trkpt lat="45.46809288458769" lon="11.038370861735975"><ele>65.0</ele><time>2026-04-18T08:08:38.001Z</time></trkpt><trkpt lat="45.468090613453256" lon="11.038236227100985"><ele>65.8</ele><time>2026-04-18T08:08:40.001Z</time></trkpt><trkpt lat="45.46807652335986" lon="11.038081153377483"><ele>66.6</ele><time>2026-04-18T08:08:42.001Z</time></trkpt><trkpt lat="45.46804960783845" lon="11.037986542342297"><ele>67.4</ele><time>2026-04-18T08:08:43.001Z</time></trkpt><trkpt lat="45.46800914513206" lon="11.037865344379544"><ele>68.2</ele><time>2026-04-18T08:08:44.001Z</time></trkpt><trkpt lat="45.46797215271941" lon="11.037710471472485"><ele>69.0</ele><time>2026-04-18T08:08:45.001Z</time></trkpt><trkpt lat="45.46791427077632" lon="11.037551192261269"><ele>69.25</ele><time>2026-04-18T08:08:46.001Z</time></trkpt><trkpt lat="45.46784293890383" lon="11.0373681089806"><ele>69.5</ele><time>2026-04-18T08:08:47.001Z</time></trkpt><trkpt lat="45.46778839040616" lon="11.037193120243042"><ele>69.75</ele><time>2026-04-18T08:08:48.001Z</time></trkpt><trkpt lat="45.46775045094265" lon="11.037049207112997"><ele>70.0</ele><time>2026-04-18T08:08:49.001Z</time></trkpt><trkpt lat="45.46775032803758" lon="11.036924683687452"><ele>70.0</ele><time>2026-04-18T08:08:50.001Z</time></trkpt><trkpt lat="45.46775056995249" lon="11.036833551310693"><ele>70.0</ele><time>2026-04-18T08:08:51.001Z</time></trkpt><trkpt lat="45.46776109340921" lon="11.036721416417471"><ele>70.0</ele><time>2026-04-18T08:08:53.001Z</time></trkpt><trkpt lat="45.46782619441471" lon="11.03670636121991"><ele>70.0</ele><time>2026-04-18T08:08:55.001Z</time></trkpt><trkpt lat="45.46790202953258" lon="11.036622021755983"><ele>70.0</ele><time>2026-04-18T08:08:58.001Z</time></trkpt><trkpt lat="45.467967326695636" lon="11.036587531893542"><ele>70.0</ele><time>2026-04-18T08:08:59.001Z</time></trkpt><trkpt lat="45.468046506270994" lon="11.036582540695365"><ele>70.0</ele><time>2026-04-18T08:09:01.001Z</time></trkpt><trkpt lat="45.46842132672872" lon="11.036119498455887"><ele>70.0</ele><time>2026-04-18T08:09:16.001Z</time></trkpt><trkpt lat="45.468498177418695" lon="11.036031887797433"><ele>70.0</ele><time>2026-04-18T08:09:19.001Z</time></trkpt><trkpt lat="45.468573462998116" lon="11.035967615985184"><ele>70.0</ele><time>2026-04-18T08:09:21.001Z</time></trkpt><trkpt lat="45.4686208435083" lon="11.035907001166535"><ele>70.0</ele><time>2026-04-18T08:09:22.001Z</time></trkpt><trkpt lat="45.46874109637075" lon="11.035827219422005"><ele>70.0</ele><time>2026-04-18T08:09:24.001Z</time></trkpt><trkpt lat="45.46882109994083" lon="11.03577330440685"><ele>69.75</ele><time>2026-04-18T08:09:25.001Z</time></trkpt><trkpt lat="45.46890988971406" lon="11.03571247322558"><ele>69.5</ele><time>2026-04-18T08:09:26.001Z</time></trkpt><trkpt lat="45.46901312615874" lon="11.035660376095338"><ele>69.25</ele><time>2026-04-18T08:09:27.001Z</time></trkpt><trkpt lat="45.46912513387388" lon="11.035613316193977"><ele>69.0</ele><time>2026-04-18T08:09:28.001Z</time></trkpt><trkpt lat="45.46924683782796" lon="11.035555962323588"><ele>69.0</ele><time>2026-04-18T08:09:29.001Z</time></trkpt><trkpt lat="45.46936111772615" lon="11.035477092758683"><ele>69.0</ele><time>2026-04-18T08:09:30.001Z</time></trkpt><trkpt lat="45.46947400441832" lon="11.03541866880099"><ele>69.0</ele><time>2026-04-18T08:09:31.001Z</time></trkpt><trkpt lat="45.469586829468454" lon="11.03535361155769"><ele>69.0</ele><time>2026-04-18T08:09:32.001Z</time></trkpt><trkpt lat="45.46970240017622" lon="11.035281361923703"><ele>69.25</ele><time>2026-04-18T08:09:33.001Z</time></trkpt><trkpt lat="45.46981003488033" lon="11.035216132948715"><ele>69.5</ele><time>2026-04-18T08:09:34.001Z</time></trkpt><trkpt lat="45.46991503270202" lon="11.035142480595804"><ele>69.75</ele><time>2026-04-18T08:09:35.001Z</time></trkpt><trkpt lat="45.470024756583996" lon="11.035064672264452"><ele>70.0</ele><time>2026-04-18T08:09:36.001Z</time></trkpt><trkpt lat="45.47013580693671" lon="11.034976814772213"><ele>70.25</ele><time>2026-04-18T08:09:37.002Z</time></trkpt><trkpt lat="45.47025477495025" lon="11.034878108681648"><ele>70.5</ele><time>2026-04-18T08:09:38.002Z</time></trkpt><trkpt lat="45.47037283536939" lon="11.034784358256374"><ele>70.75</ele><time>2026-04-18T08:09:39.002Z</time></trkpt><trkpt lat="45.47047480024746" lon="11.034685087159758"><ele>71.0</ele><time>2026-04-18T08:09:40.002Z</time></trkpt><trkpt lat="45.470579868705386" lon="11.03460176398596"><ele>71.5</ele><time>2026-04-18T08:09:41.002Z</time></trkpt><trkpt lat="45.470677710747516" lon="11.034521711469168"><ele>72.0</ele><time>2026-04-18T08:09:42.002Z</time></trkpt><trkpt lat="45.470780753772175" lon="11.034433436921368"><ele>72.5</ele><time>2026-04-18T08:09:43.002Z</time></trkpt><trkpt lat="45.47088614709009" lon="11.034346021314693"><ele>73.0</ele><time>2026-04-18T08:09:44.002Z</time></trkpt><trkpt lat="45.47099035889097" lon="11.034252860463905"><ele>73.0</ele><time>2026-04-18T08:09:45.002Z</time></trkpt><trkpt lat="45.471104860495544" lon="11.03416335072862"><ele>73.0</ele><time>2026-04-18T08:09:46.002Z</time></trkpt><trkpt lat="45.47123489000872" lon="11.034084852534953"><ele>73.0</ele><time>2026-04-18T08:09:47.002Z</time></trkpt><trkpt lat="45.471356353835404" lon="11.034024565308933"><ele>73.0</ele><time>2026-04-18T08:09:48.002Z</time></trkpt><trkpt lat="45.47148075688411" lon="11.033978026493104"><ele>73.0</ele><time>2026-04-18T08:09:49.002Z</time></trkpt><trkpt lat="45.471603184406966" lon="11.033934365469527"><ele>73.0</ele><time>2026-04-18T08:09:50.002Z</time></trkpt><trkpt lat="45.47173359084012" lon="11.03389548026974"><ele>73.0</ele><time>2026-04-18T08:09:51.002Z</time></trkpt><trkpt lat="45.471858934834195" lon="11.03385344473432"><ele>73.0</ele><time>2026-04-18T08:09:52.002Z</time></trkpt><trkpt lat="45.47198069889568" lon="11.033809796262139"><ele>73.0</ele><time>2026-04-18T08:09:53.002Z</time></trkpt><trkpt lat="45.472096959346956" lon="11.033767586427121"><ele>73.0</ele><time>2026-04-18T08:09:54.002Z</time></trkpt><trkpt lat="45.47220255958196" lon="11.033724689868704"><ele>73.0</ele><time>2026-04-18T08:09:55.002Z</time></trkpt><trkpt lat="45.47229494928677" lon="11.033673299871129"><ele>73.0</ele><time>2026-04-18T08:09:56.002Z</time></trkpt><trkpt lat="45.4723820126157" lon="11.033625368585135"><ele>73.0</ele><time>2026-04-18T08:09:57.002Z</time></trkpt><trkpt lat="45.47247678124363" lon="11.033594244680769"><ele>74.0</ele><time>2026-04-18T08:09:58.001Z</time></trkpt><trkpt lat="45.47259829992499" lon="11.033536513996651"><ele>75.0</ele><time>2026-04-18T08:09:59.001Z</time></trkpt><trkpt lat="45.472724163911714" lon="11.033466195051776"><ele>76.0</ele><time>2026-04-18T08:10:00.001Z</time></trkpt><trkpt lat="45.47285504091619" lon="11.033395788352811"><ele>77.0</ele><time>2026-04-18T08:10:01.001Z</time></trkpt><trkpt lat="45.47296830610028" lon="11.033333331452605"><ele>76.8</ele><time>2026-04-18T08:10:02.001Z</time></trkpt><trkpt lat="45.47307713602263" lon="11.033275213759289"><ele>76.6</ele><time>2026-04-18T08:10:03.001Z</time></trkpt><trkpt lat="45.47318014814358" lon="11.033222830785412"><ele>76.39999999999999</ele><time>2026-04-18T08:10:04.001Z</time></trkpt><trkpt lat="45.47328566094186" lon="11.033195280689073"><ele>76.2</ele><time>2026-04-18T08:10:05.001Z</time></trkpt><trkpt lat="45.47338862403679" lon="11.033185966643682"><ele>76.0</ele><time>2026-04-18T08:10:06.001Z</time></trkpt><trkpt lat="45.473483297506654" lon="11.033193162169892"><ele>76.0</ele><time>2026-04-18T08:10:07.001Z</time></trkpt><trkpt lat="45.47357984325176" lon="11.033199294362623"><ele>76.0</ele><time>2026-04-18T08:10:08.001Z</time></trkpt><trkpt lat="45.473680633907925" lon="11.033192602309494"><ele>76.0</ele><time>2026-04-18T08:10:09.001Z</time></trkpt><trkpt lat="45.47378697521903" lon="11.033205522245913"><ele>76.0</ele><time>2026-04-18T08:10:10.001Z</time></trkpt><trkpt lat="45.47391123821366" lon="11.03324400379987"><ele>76.0</ele><time>2026-04-18T08:10:11.001Z</time></trkpt><trkpt lat="45.474037855624346" lon="11.033277145415033"><ele>76.6</ele><time>2026-04-18T08:10:12.001Z</time></trkpt><trkpt lat="45.47415051678217" lon="11.03329097863225"><ele>77.19999999999999</ele><time>2026-04-18T08:10:13.001Z</time></trkpt><trkpt lat="45.474253286929105" lon="11.033300101393822"><ele>77.80000000000001</ele><time>2026-04-18T08:10:14.001Z</time></trkpt><trkpt lat="45.47436294483509" lon="11.033313325774234"><ele>78.4</ele><time>2026-04-18T08:10:15.001Z</time></trkpt><trkpt lat="45.47448145061069" lon="11.033323724965761"><ele>79.0</ele><time>2026-04-18T08:10:16.001Z</time></trkpt><trkpt lat="45.474596380075056" lon="11.03333277117654"><ele>79.2</ele><time>2026-04-18T08:10:17.001Z</time></trkpt><trkpt lat="45.47468915134277" lon="11.03334153442019"><ele>79.4</ele><time>2026-04-18T08:10:18.001Z</time></trkpt><trkpt lat="45.474754047060216" lon="11.033354278436025"><ele>79.6</ele><time>2026-04-18T08:10:19.001Z</time></trkpt><trkpt lat="45.47484004432859" lon="11.033382991797327"><ele>79.8</ele><time>2026-04-18T08:10:21.001Z</time></trkpt><trkpt lat="45.47485549683832" lon="11.033148795556182"><ele>80.0</ele><time>2026-04-18T08:10:23.001Z</time></trkpt><trkpt lat="45.474856544229866" lon="11.033016848460552"><ele>80.0</ele><time>2026-04-18T08:10:24.001Z</time></trkpt><trkpt lat="45.474853937367484" lon="11.032886671723425"><ele>80.0</ele><time>2026-04-18T08:10:25.001Z</time></trkpt><trkpt lat="45.47483841224337" lon="11.032732842629809"><ele>80.0</ele><time>2026-04-18T08:10:26.001Z</time></trkpt><trkpt lat="45.47483890786692" lon="11.032558263218949"><ele>80.0</ele><time>2026-04-18T08:10:27.001Z</time></trkpt><trkpt lat="45.474843941014576" lon="11.032394219079492"><ele>80.0</ele><time>2026-04-18T08:10:28.001Z</time></trkpt><trkpt lat="45.47484383630238" lon="11.032249721317513"><ele>80.0</ele><time>2026-04-18T08:10:29.001Z</time></trkpt><trkpt lat="45.47484065911029" lon="11.032140577733792"><ele>80.0</ele><time>2026-04-18T08:10:30.001Z</time></trkpt><trkpt lat="45.474803481980565" lon="11.032057329066546"><ele>80.0</ele><time>2026-04-18T08:10:31.001Z</time></trkpt><trkpt lat="45.47475540603781" lon="11.03196729899008"><ele>80.0</ele><time>2026-04-18T08:10:32.001Z</time></trkpt><trkpt lat="45.47467913786361" lon="11.031901300633415"><ele>80.0</ele><time>2026-04-18T08:10:33.001Z</time></trkpt><trkpt lat="45.474637386845984" lon="11.031793123080927"><ele>80.0</ele><time>2026-04-18T08:10:34.001Z</time></trkpt><trkpt lat="45.4746186813979" lon="11.03165924676788"><ele>79.0</ele><time>2026-04-18T08:10:35.001Z</time></trkpt><trkpt lat="45.47460681744481" lon="11.031509013107692"><ele>78.0</ele><time>2026-04-18T08:10:36.001Z</time></trkpt><trkpt lat="45.4746009589978" lon="11.031345464939932"><ele>77.0</ele><time>2026-04-18T08:10:37.001Z</time></trkpt><trkpt lat="45.47459487880588" lon="11.031171274174055"><ele>76.0</ele><time>2026-04-18T08:10:38.001Z</time></trkpt><trkpt lat="45.474576827651724" lon="11.030990050473033"><ele>75.5</ele><time>2026-04-18T08:10:39.001Z</time></trkpt><trkpt lat="45.47453383197681" lon="11.030808546787616"><ele>75.0</ele><time>2026-04-18T08:10:40.001Z</time></trkpt><trkpt lat="45.47447770411843" lon="11.030634508881187"><ele>74.5</ele><time>2026-04-18T08:10:41.001Z</time></trkpt><trkpt lat="45.47441903957942" lon="11.03046427157205"><ele>74.0</ele><time>2026-04-18T08:10:42.001Z</time></trkpt><trkpt lat="45.47435475302642" lon="11.030298556202053"><ele>74.0</ele><time>2026-04-18T08:10:43.001Z</time></trkpt><trkpt lat="45.47427307194155" lon="11.030152421180075"><ele>74.0</ele><time>2026-04-18T08:10:44.001Z</time></trkpt><trkpt lat="45.47418685784475" lon="11.030026529008902"><ele>74.0</ele><time>2026-04-18T08:10:45.001Z</time></trkpt><trkpt lat="45.47408434589441" lon="11.029930871453166"><ele>74.0</ele><time>2026-04-18T08:10:46.001Z</time></trkpt><trkpt lat="45.473987379546465" lon="11.029859435408504"><ele>73.8</ele><time>2026-04-18T08:10:47.001Z</time></trkpt><trkpt lat="45.47387120014482" lon="11.029806704192408"><ele>73.60000000000001</ele><time>2026-04-18T08:10:48.001Z</time></trkpt><trkpt lat="45.47377067043231" lon="11.029745991855252"><ele>73.4</ele><time>2026-04-18T08:10:49.001Z</time></trkpt><trkpt lat="45.473686468194245" lon="11.029673878218794"><ele>73.2</ele><time>2026-04-18T08:10:50.001Z</time></trkpt><trkpt lat="45.47361824988795" lon="11.029551050178682"><ele>73.0</ele><time>2026-04-18T08:10:51.001Z</time></trkpt><trkpt lat="45.47356990778286" lon="11.029414354405112"><ele>73.0</ele><time>2026-04-18T08:10:52.001Z</time></trkpt><trkpt lat="45.47353258044016" lon="11.029253067540923"><ele>73.0</ele><time>2026-04-18T08:10:53.001Z</time></trkpt><trkpt lat="45.473512637179724" lon="11.029084623029314"><ele>73.0</ele><time>2026-04-18T08:10:54.001Z</time></trkpt><trkpt lat="45.473492814712415" lon="11.02891554383824"><ele>73.0</ele><time>2026-04-18T08:10:55.001Z</time></trkpt><trkpt lat="45.47342844860881" lon="11.02877550991255"><ele>72.75</ele><time>2026-04-18T08:10:56.001Z</time></trkpt><trkpt lat="45.47337570247268" lon="11.028641283723362"><ele>72.5</ele><time>2026-04-18T08:10:57.001Z</time></trkpt><trkpt lat="45.47330538626196" lon="11.028514142269367"><ele>72.25</ele><time>2026-04-18T08:10:58.001Z</time></trkpt><trkpt lat="45.473231472973765" lon="11.028396024504111"><ele>72.0</ele><time>2026-04-18T08:10:59.001Z</time></trkpt><trkpt lat="45.47314980952111" lon="11.028268243538333"><ele>72.5</ele><time>2026-04-18T08:11:00.001Z</time></trkpt><trkpt lat="45.47307703677468" lon="11.028126371878146"><ele>73.0</ele><time>2026-04-18T08:11:01.001Z</time></trkpt><trkpt lat="45.47301697573819" lon="11.02796840667017"><ele>73.5</ele><time>2026-04-18T08:11:02.001Z</time></trkpt><trkpt lat="45.472968087188335" lon="11.027800271683072"><ele>74.0</ele><time>2026-04-18T08:11:03.001Z</time></trkpt><trkpt lat="45.472930911725264" lon="11.027629485927141"><ele>74.25</ele><time>2026-04-18T08:11:04.001Z</time></trkpt><trkpt lat="45.47291517574121" lon="11.02746869388395"><ele>74.5</ele><time>2026-04-18T08:11:05.001Z</time></trkpt><trkpt lat="45.47289892349971" lon="11.027298681909718"><ele>74.75</ele><time>2026-04-18T08:11:06.001Z</time></trkpt><trkpt lat="45.47288219628657" lon="11.027124115444826"><ele>75.0</ele><time>2026-04-18T08:11:07.001Z</time></trkpt><trkpt lat="45.4728626448032" lon="11.026950805629108"><ele>75.0</ele><time>2026-04-18T08:11:08.001Z</time></trkpt><trkpt lat="45.47283047694058" lon="11.026785742831308"><ele>75.0</ele><time>2026-04-18T08:11:09.001Z</time></trkpt><trkpt lat="45.47279045034439" lon="11.026625811786221"><ele>75.0</ele><time>2026-04-18T08:11:10.001Z</time></trkpt><trkpt lat="45.47274826815275" lon="11.026461916566374"><ele>75.0</ele><time>2026-04-18T08:11:11.001Z</time></trkpt><trkpt lat="45.47270497386477" lon="11.02629467573589"><ele>75.4</ele><time>2026-04-18T08:11:12.001Z</time></trkpt><trkpt lat="45.472666180466945" lon="11.026143028864029"><ele>75.8</ele><time>2026-04-18T08:11:13.001Z</time></trkpt><trkpt lat="45.47263458619545" lon="11.026006854811403"><ele>76.2</ele><time>2026-04-18T08:11:14.001Z</time></trkpt><trkpt lat="45.472613928335704" lon="11.025881282189868"><ele>76.6</ele><time>2026-04-18T08:11:15.001Z</time></trkpt><trkpt lat="45.472608837506215" lon="11.025759101764388"><ele>77.0</ele><time>2026-04-18T08:11:16.001Z</time></trkpt><trkpt lat="45.47261510067036" lon="11.025636238081026"><ele>77.0</ele><time>2026-04-18T08:11:17.001Z</time></trkpt><trkpt lat="45.47261286429924" lon="11.025523103638081"><ele>77.0</ele><time>2026-04-18T08:11:18.001Z</time></trkpt><trkpt lat="45.472608835526074" lon="11.025423059699417"><ele>77.0</ele><time>2026-04-18T08:11:19.001Z</time></trkpt><trkpt lat="45.472600306359574" lon="11.025309236615877"><ele>77.0</ele><time>2026-04-18T08:11:20.001Z</time></trkpt><trkpt lat="45.472596830570765" lon="11.025191605732765"><ele>77.0</ele><time>2026-04-18T08:11:21.001Z</time></trkpt><trkpt lat="45.4725881574787" lon="11.025075957670865"><ele>77.0</ele><time>2026-04-18T08:11:22.001Z</time></trkpt><trkpt lat="45.472582966559195" lon="11.024960220118631"><ele>76.6</ele><time>2026-04-18T08:11:23.001Z</time></trkpt><trkpt lat="45.472586794169764" lon="11.024835777450182"><ele>76.2</ele><time>2026-04-18T08:11:24.001Z</time></trkpt><trkpt lat="45.472585402437886" lon="11.024742103484375"><ele>75.8</ele><time>2026-04-18T08:11:25.001Z</time></trkpt><trkpt lat="45.47260400184069" lon="11.02455655067798"><ele>75.4</ele><time>2026-04-18T08:11:28.001Z</time></trkpt><trkpt lat="45.47259191117374" lon="11.024420433357392"><ele>75.0</ele><time>2026-04-18T08:11:29.001Z</time></trkpt><trkpt lat="45.47259131908903" lon="11.024253642538294"><ele>74.6</ele><time>2026-04-18T08:11:30.001Z</time></trkpt><trkpt lat="45.472591299897914" lon="11.024103026577883"><ele>74.2</ele><time>2026-04-18T08:11:31.001Z</time></trkpt><trkpt lat="45.47259168975357" lon="11.023941977713926"><ele>73.8</ele><time>2026-04-18T08:11:32.001Z</time></trkpt><trkpt lat="45.47260555873385" lon="11.023784295323479"><ele>73.4</ele><time>2026-04-18T08:11:33.001Z</time></trkpt><trkpt lat="45.47259353392701" lon="11.023623473865369"><ele>73.0</ele><time>2026-04-18T08:11:34.001Z</time></trkpt><trkpt lat="45.4725843659328" lon="11.02347507908201"><ele>73.0</ele><time>2026-04-18T08:11:35.001Z</time></trkpt><trkpt lat="45.472573132761376" lon="11.023363643455857"><ele>73.0</ele><time>2026-04-18T08:11:36.001Z</time></trkpt><trkpt lat="45.4725690409498" lon="11.023256384666547"><ele>73.0</ele><time>2026-04-18T08:11:37.001Z</time></trkpt><trkpt lat="45.472534487920676" lon="11.023152940723616"><ele>73.0</ele><time>2026-04-18T08:11:38.001Z</time></trkpt><trkpt lat="45.47246376070978" lon="11.023078810791532"><ele>73.0</ele><time>2026-04-18T08:11:39.001Z</time></trkpt><trkpt lat="45.472350045181585" lon="11.023105904667196"><ele>73.0</ele><time>2026-04-18T08:11:40.001Z</time></trkpt><trkpt lat="45.47227792939365" lon="11.023062345220172"><ele>72.75</ele><time>2026-04-18T08:11:41.001Z</time></trkpt><trkpt lat="45.472243524026595" lon="11.022843730316255"><ele>72.5</ele><time>2026-04-18T08:11:43.001Z</time></trkpt><trkpt lat="45.4722544926638" lon="11.02268185031738"><ele>72.25</ele><time>2026-04-18T08:11:44.001Z</time></trkpt><trkpt lat="45.47227683971124" lon="11.022510151874348"><ele>72.0</ele><time>2026-04-18T08:11:45.001Z</time></trkpt><trkpt lat="45.472265648871485" lon="11.022353761002249"><ele>72.6</ele><time>2026-04-18T08:11:46.002Z</time></trkpt><trkpt lat="45.47228339010816" lon="11.022191633315437"><ele>73.2</ele><time>2026-04-18T08:11:47.002Z</time></trkpt><trkpt lat="45.47228920309174" lon="11.022042257917956"><ele>73.8</ele><time>2026-04-18T08:11:48.002Z</time></trkpt><trkpt lat="45.47228977690245" lon="11.021902881822063"><ele>74.4</ele><time>2026-04-18T08:11:49.002Z</time></trkpt><trkpt lat="45.47229513976827" lon="11.021765845853004"><ele>75.0</ele><time>2026-04-18T08:11:50.002Z</time></trkpt><trkpt lat="45.472292281120914" lon="11.021637201365158"><ele>75.16666666666667</ele><time>2026-04-18T08:11:51.002Z</time></trkpt><trkpt lat="45.47226828763684" lon="11.021551934165224"><ele>75.33333333333333</ele><time>2026-04-18T08:11:52.002Z</time></trkpt><trkpt lat="45.47220821647166" lon="11.021395920957113"><ele>75.5</ele><time>2026-04-18T08:11:54.002Z</time></trkpt><trkpt lat="45.47213667126102" lon="11.021328085370941"><ele>75.66666666666666</ele><time>2026-04-18T08:11:55.001Z</time></trkpt><trkpt lat="45.47207983657043" lon="11.021237138078453"><ele>75.83333333333333</ele><time>2026-04-18T08:11:56.001Z</time></trkpt><trkpt lat="45.47204084847029" lon="11.021133339114083"><ele>76.0</ele><time>2026-04-18T08:11:57.001Z</time></trkpt><trkpt lat="45.472020442940355" lon="11.02100179576628"><ele>76.33333333333333</ele><time>2026-04-18T08:11:58.001Z</time></trkpt><trkpt lat="45.47201080871991" lon="11.020863159608819"><ele>76.66666666666666</ele><time>2026-04-18T08:11:59.001Z</time></trkpt><trkpt lat="45.47199584612676" lon="11.020723454323264"><ele>77.0</ele><time>2026-04-18T08:12:00.001Z</time></trkpt><trkpt lat="45.471985665714435" lon="11.020601124731245"><ele>77.33333333333333</ele><time>2026-04-18T08:12:01.001Z</time></trkpt><trkpt lat="45.47201571059658" lon="11.020507797526937"><ele>77.66666666666667</ele><time>2026-04-18T08:12:02.001Z</time></trkpt><trkpt lat="45.47200310840065" lon="11.020410464695194"><ele>78.0</ele><time>2026-04-18T08:12:04.001Z</time></trkpt><trkpt lat="45.47200227758469" lon="11.02031613376805"><ele>78.0</ele><time>2026-04-18T08:12:09.001Z</time></trkpt><trkpt lat="45.47200582020441" lon="11.02017670494674"><ele>78.0</ele><time>2026-04-18T08:12:12.001Z</time></trkpt><trkpt lat="45.47196505994862" lon="11.020059054322974"><ele>78.0</ele><time>2026-04-18T08:12:14.001Z</time></trkpt><trkpt lat="45.4719566716628" lon="11.019935502863156"><ele>78.0</ele><time>2026-04-18T08:12:16.001Z</time></trkpt><trkpt lat="45.471934079325365" lon="11.019798599732917"><ele>78.0</ele><time>2026-04-18T08:12:18.001Z</time></trkpt><trkpt lat="45.47195885089113" lon="11.019651370020563"><ele>77.66666666666667</ele><time>2026-04-18T08:12:20.001Z</time></trkpt><trkpt lat="45.471949073640474" lon="11.01946664247936"><ele>77.33333333333333</ele><time>2026-04-18T08:12:22.001Z</time></trkpt><trkpt lat="45.47194662141429" lon="11.019368258794549"><ele>77.0</ele><time>2026-04-18T08:12:23.001Z</time></trkpt><trkpt lat="45.4719404010863" lon="11.01926692762717"><ele>76.66666666666666</ele><time>2026-04-18T08:12:24.001Z</time></trkpt><trkpt lat="45.47193475437032" lon="11.019162765840337"><ele>76.33333333333333</ele><time>2026-04-18T08:12:25.001Z</time></trkpt><trkpt lat="45.471929016965795" lon="11.019056931069734"><ele>76.0</ele><time>2026-04-18T08:12:26.001Z</time></trkpt><trkpt lat="45.47190756475757" lon="11.018957084650333"><ele>76.0</ele><time>2026-04-18T08:12:27.001Z</time></trkpt><trkpt lat="45.47190536185625" lon="11.01885714866584"><ele>76.0</ele><time>2026-04-18T08:12:28.001Z</time></trkpt><trkpt lat="45.47189524963192" lon="11.018747889822256"><ele>76.0</ele><time>2026-04-18T08:12:29.001Z</time></trkpt><trkpt lat="45.47188604605467" lon="11.018645072008212"><ele>76.0</ele><time>2026-04-18T08:12:30.001Z</time></trkpt><trkpt lat="45.471883080629155" lon="11.018547846791158"><ele>76.0</ele><time>2026-04-18T08:12:31.001Z</time></trkpt><trkpt lat="45.47187756711263" lon="11.018455248623843"><ele>76.0</ele><time>2026-04-18T08:12:32.001Z</time></trkpt><trkpt lat="45.47187393153687" lon="11.018293558504483"><ele>76.0</ele><time>2026-04-18T08:12:34.001Z</time></trkpt><trkpt lat="45.47186803187331" lon="11.018158753757655"><ele>76.0</ele><time>2026-04-18T08:12:36.001Z</time></trkpt><trkpt lat="45.471879328796504" lon="11.01804524830108"><ele>76.0</ele><time>2026-04-18T08:12:38.001Z</time></trkpt><trkpt lat="45.47187106054723" lon="11.017945896527785"><ele>76.0</ele><time>2026-04-18T08:12:40.001Z</time></trkpt><trkpt lat="45.471845662924345" lon="11.017861068720846"><ele>76.0</ele><time>2026-04-18T08:13:37Z</time></trkpt><trkpt lat="45.47180570396912" lon="11.017748031074085"><ele>76.0</ele><time>2026-04-18T08:13:39Z</time></trkpt><trkpt lat="45.4717707864778" lon="11.017638204272593"><ele>76.0</ele><time>2026-04-18T08:13:40Z</time></trkpt><trkpt lat="45.471739318807835" lon="11.01749532879634"><ele>76.0</ele><time>2026-04-18T08:13:41Z</time></trkpt><trkpt lat="45.4716956646005" lon="11.017355369047285"><ele>76.0</ele><time>2026-04-18T08:13:42Z</time></trkpt><trkpt lat="45.4716273465232" lon="11.017260477378871"><ele>76.0</ele><time>2026-04-18T08:13:43Z</time></trkpt><trkpt lat="45.47155056284037" lon="11.017177264007723"><ele>76.0</ele><time>2026-04-18T08:13:44Z</time></trkpt><trkpt lat="45.47149896337446" lon="11.017074393727508"><ele>76.39999999999999</ele><time>2026-04-18T08:13:45Z</time></trkpt><trkpt lat="45.471461893422166" lon="11.016956299637222"><ele>76.8</ele><time>2026-04-18T08:13:46Z</time></trkpt><trkpt lat="45.47143955496444" lon="11.016843557181907"><ele>77.19999999999999</ele><time>2026-04-18T08:13:47Z</time></trkpt><trkpt lat="45.471450282368224" lon="11.016702457376747"><ele>77.6</ele><time>2026-04-18T08:13:48Z</time></trkpt><trkpt lat="45.47143650096367" lon="11.016544768644335"><ele>78.0</ele><time>2026-04-18T08:13:49Z</time></trkpt><trkpt lat="45.471444373249874" lon="11.016411844964253"><ele>78.8</ele><time>2026-04-18T08:13:50Z</time></trkpt><trkpt lat="45.471450663845864" lon="11.016290325394497"><ele>79.6</ele><time>2026-04-18T08:13:51Z</time></trkpt><trkpt lat="45.47145473222722" lon="11.01614851974467"><ele>80.39999999999999</ele><time>2026-04-18T08:13:52.001Z</time></trkpt><trkpt lat="45.47146052573086" lon="11.015991640377651"><ele>81.19999999999999</ele><time>2026-04-18T08:13:53.001Z</time></trkpt><trkpt lat="45.47146695866436" lon="11.015837442217137"><ele>82.0</ele><time>2026-04-18T08:13:54.001Z</time></trkpt><trkpt lat="45.47146614641202" lon="11.01571084764472"><ele>83.19999999999999</ele><time>2026-04-18T08:13:55.001Z</time></trkpt><trkpt lat="45.47146866575874" lon="11.015614915286479"><ele>84.4</ele><time>2026-04-18T08:13:56.001Z</time></trkpt><trkpt lat="45.47148836588754" lon="11.015493507655917"><ele>85.6</ele><time>2026-04-18T08:13:58.001Z</time></trkpt><trkpt lat="45.471546492257964" lon="11.015445168031874"><ele>86.80000000000001</ele><time>2026-04-18T08:14:01.001Z</time></trkpt><trkpt lat="45.471607057055195" lon="11.015233118469816"><ele>88.0</ele><time>2026-04-18T08:14:07Z</time></trkpt><trkpt lat="45.47160404633613" lon="11.015132773604616"><ele>88.0</ele><time>2026-04-18T08:14:08Z</time></trkpt><trkpt lat="45.4716029066152" lon="11.015002270425317"><ele>88.0</ele><time>2026-04-18T08:14:09Z</time></trkpt><trkpt lat="45.47162508942867" lon="11.014860738167043"><ele>88.0</ele><time>2026-04-18T08:14:10Z</time></trkpt><trkpt lat="45.471642648945604" lon="11.014727638451188"><ele>88.0</ele><time>2026-04-18T08:14:11Z</time></trkpt><trkpt lat="45.47166947585193" lon="11.014623983112939"><ele>88.0</ele><time>2026-04-18T08:14:12Z</time></trkpt><trkpt lat="45.471695432655764" lon="11.014525158521266"><ele>88.0</ele><time>2026-04-18T08:14:13Z</time></trkpt><trkpt lat="45.471719556157645" lon="11.014440981526288"><ele>90.0</ele><time>2026-04-18T08:14:15Z</time></trkpt><trkpt lat="45.47192413404004" lon="11.01451417298667"><ele>92.0</ele><time>2026-04-18T08:14:20Z</time></trkpt><trkpt lat="45.47202293832016" lon="11.014550617976465"><ele>94.0</ele><time>2026-04-18T08:14:21Z</time></trkpt><trkpt lat="45.472129537850925" lon="11.014599052256985"><ele>96.0</ele><time>2026-04-18T08:14:22Z</time></trkpt><trkpt lat="45.47222769382112" lon="11.014651661450628"><ele>97.0</ele><time>2026-04-18T08:14:23Z</time></trkpt><trkpt lat="45.47231561246798" lon="11.014714825159192"><ele>98.0</ele><time>2026-04-18T08:14:24Z</time></trkpt><trkpt lat="45.47236827601514" lon="11.01477256249645"><ele>99.0</ele><time>2026-04-18T08:14:25Z</time></trkpt><trkpt lat="45.47244561961823" lon="11.014842411157375"><ele>100.0</ele><time>2026-04-18T08:14:38Z</time></trkpt><trkpt lat="45.47250015431212" lon="11.014891557575902"><ele>101.0</ele><time>2026-04-18T08:14:39Z</time></trkpt><trkpt lat="45.47255937634487" lon="11.014942888656707"><ele>102.0</ele><time>2026-04-18T08:14:40Z</time></trkpt><trkpt lat="45.47261587853967" lon="11.01498741267528"><ele>102.0</ele><time>2026-04-18T08:14:41Z</time></trkpt><trkpt lat="45.472713282192515" lon="11.0150501285774"><ele>102.0</ele><time>2026-04-18T08:14:43Z</time></trkpt><trkpt lat="45.47282813354414" lon="11.01509997672972"><ele>102.0</ele><time>2026-04-18T08:14:45Z</time></trkpt><trkpt lat="45.47288992508816" lon="11.015134581748365"><ele>102.0</ele><time>2026-04-18T08:14:46Z</time></trkpt><trkpt lat="45.47295208013841" lon="11.015156842816461"><ele>102.0</ele><time>2026-04-18T08:14:47Z</time></trkpt><trkpt lat="45.4730507840757" lon="11.01520849741552"><ele>102.0</ele><time>2026-04-18T08:14:49Z</time></trkpt><trkpt lat="45.47314375670925" lon="11.015251106266973"><ele>102.0</ele><time>2026-04-18T08:14:51Z</time></trkpt><trkpt lat="45.473258852070806" lon="11.015295238493035"><ele>102.0</ele><time>2026-04-18T08:14:53Z</time></trkpt><trkpt lat="45.47335821421268" lon="11.015324888347195"><ele>102.0</ele><time>2026-04-18T08:14:55Z</time></trkpt><trkpt lat="45.47346084278718" lon="11.015325844822634"><ele>102.0</ele><time>2026-04-18T08:14:57Z</time></trkpt><trkpt lat="45.47352747767626" lon="11.015328015088842"><ele>102.0</ele><time>2026-04-18T08:14:58Z</time></trkpt><trkpt lat="45.47359764379967" lon="11.015333248155317"><ele>102.0</ele><time>2026-04-18T08:14:59Z</time></trkpt><trkpt lat="45.473653816263315" lon="11.015272935353435"><ele>102.0</ele><time>2026-04-18T08:15:00Z</time></trkpt><trkpt lat="45.47374741427763" lon="11.015184805643282"><ele>102.0</ele><time>2026-04-18T08:15:02Z</time></trkpt><trkpt lat="45.47380402822176" lon="11.01510895327957"><ele>102.0</ele><time>2026-04-18T08:15:04Z</time></trkpt><trkpt lat="45.47383432192221" lon="11.014993966472082"><ele>102.0</ele><time>2026-04-18T08:15:06Z</time></trkpt><trkpt lat="45.47391266272149" lon="11.014836018935286"><ele>102.66666666666667</ele><time>2026-04-18T08:15:08Z</time></trkpt><trkpt lat="45.473937672083004" lon="11.014728016158191"><ele>103.33333333333334</ele><time>2026-04-18T08:15:09Z</time></trkpt><trkpt lat="45.47397211158877" lon="11.014621466430969"><ele>104.0</ele><time>2026-04-18T08:15:10Z</time></trkpt><trkpt lat="45.47396694424798" lon="11.014511808974927"><ele>104.66666666666667</ele><time>2026-04-18T08:15:11Z</time></trkpt><trkpt lat="45.47397656400904" lon="11.014389003480305"><ele>105.33333333333334</ele><time>2026-04-18T08:15:12Z</time></trkpt><trkpt lat="45.4739876917718" lon="11.014246946811955"><ele>106.0</ele><time>2026-04-18T08:15:13Z</time></trkpt><trkpt lat="45.473976265176645" lon="11.014139263582614"><ele>108.19999999999999</ele><time>2026-04-18T08:15:14Z</time></trkpt><trkpt lat="45.474049798439346" lon="11.013986252313702"><ele>110.39999999999999</ele><time>2026-04-18T08:15:16Z</time></trkpt><trkpt lat="45.47412756694887" lon="11.013884206789506"><ele>112.6</ele><time>2026-04-18T08:15:17Z</time></trkpt><trkpt lat="45.47418831294682" lon="11.013777972191663"><ele>114.8</ele><time>2026-04-18T08:15:18Z</time></trkpt><trkpt lat="45.47425031317696" lon="11.013711091422202"><ele>117.0</ele><time>2026-04-18T08:15:19Z</time></trkpt><trkpt lat="45.474354609175904" lon="11.013705234647487"><ele>117.0</ele><time>2026-04-18T08:15:20Z</time></trkpt><trkpt lat="45.4744373762982" lon="11.01365426428796"><ele>116.99999999999999</ele><time>2026-04-18T08:15:21Z</time></trkpt><trkpt lat="45.47455257004418" lon="11.013608599000753"><ele>116.99999999999999</ele><time>2026-04-18T08:15:23Z</time></trkpt><trkpt lat="45.47465363226421" lon="11.013619579370497"><ele>117.0</ele><time>2026-04-18T08:15:24Z</time></trkpt><trkpt lat="45.474770045176115" lon="11.013618687281234"><ele>117.0</ele><time>2026-04-18T08:15:25Z</time></trkpt><trkpt lat="45.47487236494647" lon="11.013607129862446"><ele>118.39999999999999</ele><time>2026-04-18T08:15:26Z</time></trkpt><trkpt lat="45.474971492920844" lon="11.013627292145172"><ele>119.79999999999998</ele><time>2026-04-18T08:15:27Z</time></trkpt><trkpt lat="45.47507931757611" lon="11.013617215294307"><ele>121.2</ele><time>2026-04-18T08:15:28Z</time></trkpt><trkpt lat="45.475180013628325" lon="11.0136137994771"><ele>122.6</ele><time>2026-04-18T08:15:29Z</time></trkpt><trkpt lat="45.47528979019189" lon="11.013614912470798"><ele>124.0</ele><time>2026-04-18T08:15:30Z</time></trkpt><trkpt lat="45.47538307595783" lon="11.013609649505357"><ele>125.6</ele><time>2026-04-18T08:15:31Z</time></trkpt><trkpt lat="45.475472617671244" lon="11.01357192789789"><ele>127.2</ele><time>2026-04-18T08:15:32Z</time></trkpt><trkpt lat="45.475570982643596" lon="11.01350728453295"><ele>128.79999999999998</ele><time>2026-04-18T08:15:33Z</time></trkpt><trkpt lat="45.47567035427066" lon="11.013408048161002"><ele>130.4</ele><time>2026-04-18T08:15:34Z</time></trkpt><trkpt lat="45.47575486159332" lon="11.013348100411063"><ele>132.0</ele><time>2026-04-18T08:15:35Z</time></trkpt><trkpt lat="45.475849274316204" lon="11.013311491912066"><ele>132.0</ele><time>2026-04-18T08:15:36Z</time></trkpt><trkpt lat="45.47594174013782" lon="11.01332209902494"><ele>132.0</ele><time>2026-04-18T08:15:37Z</time></trkpt><trkpt lat="45.47604451936518" lon="11.01329477594395"><ele>132.0</ele><time>2026-04-18T08:15:38Z</time></trkpt><trkpt lat="45.47615412640287" lon="11.013302996025846"><ele>132.0</ele><time>2026-04-18T08:15:39Z</time></trkpt><trkpt lat="45.476261053895676" lon="11.013323400667902"><ele>132.0</ele><time>2026-04-18T08:15:40Z</time></trkpt><trkpt lat="45.47635982755354" lon="11.013395243560097"><ele>134.79999999999998</ele><time>2026-04-18T08:15:41Z</time></trkpt><trkpt lat="45.47645577595705" lon="11.013462879647001"><ele>137.6</ele><time>2026-04-18T08:15:42Z</time></trkpt><trkpt lat="45.47655801927698" lon="11.013504616867843"><ele>140.39999999999998</ele><time>2026-04-18T08:15:43Z</time></trkpt><trkpt lat="45.47664791066676" lon="11.013556965460253"><ele>143.2</ele><time>2026-04-18T08:15:44Z</time></trkpt><trkpt lat="45.47674729809317" lon="11.013596622403456"><ele>146.0</ele><time>2026-04-18T08:15:45Z</time></trkpt><trkpt lat="45.476853302683075" lon="11.013560225544525"><ele>146.0</ele><time>2026-04-18T08:15:46Z</time></trkpt><trkpt lat="45.476963563865304" lon="11.01353775158308"><ele>146.0</ele><time>2026-04-18T08:15:47Z</time></trkpt><trkpt lat="45.47706938738287" lon="11.013498367637903"><ele>146.0</ele><time>2026-04-18T08:15:48Z</time></trkpt><trkpt lat="45.47719030894867" lon="11.01349223765346"><ele>146.0</ele><time>2026-04-18T08:15:49Z</time></trkpt><trkpt lat="45.47729580223939" lon="11.013491139578266"><ele>146.0</ele><time>2026-04-18T08:15:50Z</time></trkpt><trkpt lat="45.47740126536283" lon="11.01349325067121"><ele>148.2</ele><time>2026-04-18T08:15:51Z</time></trkpt><trkpt lat="45.477509338540756" lon="11.013475904168835"><ele>150.39999999999998</ele><time>2026-04-18T08:15:52Z</time></trkpt><trkpt lat="45.4776091539968" lon="11.013464053406954"><ele>152.6</ele><time>2026-04-18T08:15:53Z</time></trkpt><trkpt lat="45.477707737123616" lon="11.013440200054093"><ele>154.79999999999998</ele><time>2026-04-18T08:15:54Z</time></trkpt><trkpt lat="45.4777986974452" lon="11.01339465976655"><ele>157.0</ele><time>2026-04-18T08:15:55Z</time></trkpt><trkpt lat="45.477891808221734" lon="11.013341843744312"><ele>160.2</ele><time>2026-04-18T08:15:56Z</time></trkpt><trkpt lat="45.4779775831537" lon="11.013262745984123"><ele>163.39999999999998</ele><time>2026-04-18T08:15:57Z</time></trkpt><trkpt lat="45.47805768280063" lon="11.013164268538299"><ele>166.60000000000002</ele><time>2026-04-18T08:15:57.999Z</time></trkpt><trkpt lat="45.47813724764497" lon="11.01305951060872"><ele>169.8</ele><time>2026-04-18T08:15:58.999Z</time></trkpt><trkpt lat="45.478210912394665" lon="11.012968859564728"><ele>173.0</ele><time>2026-04-18T08:15:59.999Z</time></trkpt><trkpt lat="45.47828984632449" lon="11.012885056641649"><ele>173.0</ele><time>2026-04-18T08:16:00.999Z</time></trkpt><trkpt lat="45.47838094618817" lon="11.012831704675165"><ele>173.0</ele><time>2026-04-18T08:16:01.999Z</time></trkpt><trkpt lat="45.47847083785221" lon="11.012782603342377"><ele>173.0</ele><time>2026-04-18T08:16:02.999Z</time></trkpt><trkpt lat="45.47856436632741" lon="11.01275848867652"><ele>173.0</ele><time>2026-04-18T08:16:03.999Z</time></trkpt><trkpt lat="45.478663868752605" lon="11.012732008755805"><ele>173.0</ele><time>2026-04-18T08:16:04.999Z</time></trkpt><trkpt lat="45.47876362984215" lon="11.012705482079014"><ele>174.25</ele><time>2026-04-18T08:16:05.999Z</time></trkpt><trkpt lat="45.4788409176623" lon="11.012695494970027"><ele>175.5</ele><time>2026-04-18T08:16:06.999Z</time></trkpt><trkpt lat="45.47894623300215" lon="11.012698358822496"><ele>176.75</ele><time>2026-04-18T08:16:08.999Z</time></trkpt><trkpt lat="45.479015254343174" lon="11.012767974180937"><ele>178.0</ele><time>2026-04-18T08:16:10.999Z</time></trkpt><trkpt lat="45.47921544845698" lon="11.012304661364869"><ele>183.2</ele><time>2026-04-18T08:16:13.999Z</time></trkpt><trkpt lat="45.479280281243575" lon="11.01221850093272"><ele>188.4</ele><time>2026-04-18T08:16:14.999Z</time></trkpt><trkpt lat="45.47933988701325" lon="11.012140452514114"><ele>193.6</ele><time>2026-04-18T08:16:15.999Z</time></trkpt><trkpt lat="45.479437900982106" lon="11.012063565726173"><ele>198.79999999999998</ele><time>2026-04-18T08:16:17.999Z</time></trkpt><trkpt lat="45.479506443713056" lon="11.012038409858572"><ele>204.0</ele><time>2026-04-18T08:16:18.999Z</time></trkpt><trkpt lat="45.47962361577246" lon="11.011976134840422"><ele>204.16666666666666</ele><time>2026-04-18T08:16:20.999Z</time></trkpt><trkpt lat="45.479690851742426" lon="11.01195313612077"><ele>204.33333333333331</ele><time>2026-04-18T08:16:21.999Z</time></trkpt><trkpt lat="45.47975814771948" lon="11.011868973276941"><ele>204.5</ele><time>2026-04-18T08:16:23.999Z</time></trkpt><trkpt lat="45.479795310367756" lon="11.011769263757499"><ele>204.66666666666666</ele><time>2026-04-18T08:16:26.999Z</time></trkpt><trkpt lat="45.479817511300936" lon="11.011648066378202"><ele>204.83333333333331</ele><time>2026-04-18T08:16:29.999Z</time></trkpt><trkpt lat="45.47984878297165" lon="11.011549793539762"><ele>205.0</ele><time>2026-04-18T08:16:31.999Z</time></trkpt><trkpt lat="45.47982187429804" lon="11.011445011650174"><ele>210.33333333333331</ele><time>2026-04-18T08:17:04.999Z</time></trkpt><trkpt lat="45.47988445471372" lon="11.011358462793114"><ele>215.66666666666666</ele><time>2026-04-18T08:19:40.999Z</time></trkpt><trkpt lat="45.47995505314002" lon="11.011341896276134"><ele>221.0</ele><time>2026-04-18T08:20:14.999Z</time></trkpt><trkpt lat="45.48001273030469" lon="11.011295880177357"><ele>226.33333333333331</ele><time>2026-04-18T08:20:17.999Z</time></trkpt><trkpt lat="45.48009680635206" lon="11.011257346402978"><ele>231.66666666666666</ele><time>2026-04-18T08:29:46Z</time></trkpt><trkpt lat="45.48016009368835" lon="11.011215063850344"><ele>237.0</ele><time>2026-04-18T08:29:57Z</time></trkpt><trkpt lat="45.48021823341426" lon="11.011159603639818"><ele>237.0</ele><time>2026-04-18T08:30:00Z</time></trkpt><trkpt lat="45.48029818529896" lon="11.011086638111385"><ele>237.0</ele><time>2026-04-18T08:30:03Z</time></trkpt><trkpt lat="45.48035369962223" lon="11.011030884050909"><ele>237.0</ele><time>2026-04-18T08:30:05Z</time></trkpt><trkpt lat="45.480444943348886" lon="11.010979022093919"><ele>237.0</ele><time>2026-04-18T08:30:07Z</time></trkpt><trkpt lat="45.480516251031595" lon="11.01089993522712"><ele>237.0</ele><time>2026-04-18T08:30:09Z</time></trkpt><trkpt lat="45.48055994883962" lon="11.010815082573634"><ele>237.0</ele><time>2026-04-18T08:30:11Z</time></trkpt><trkpt lat="45.48058276095421" lon="11.01072069401352"><ele>241.6</ele><time>2026-04-18T08:30:13Z</time></trkpt><trkpt lat="45.48063870033213" lon="11.010634428664586"><ele>246.2</ele><time>2026-04-18T08:30:15Z</time></trkpt><trkpt lat="45.48070565666431" lon="11.010608855678718"><ele>250.8</ele><time>2026-04-18T08:30:17Z</time></trkpt><trkpt lat="45.48078003507429" lon="11.010562233719893"><ele>255.4</ele><time>2026-04-18T08:30:19Z</time></trkpt><trkpt lat="45.48089419110965" lon="11.010458270500196"><ele>260.0</ele><time>2026-04-18T08:30:21Z</time></trkpt><trkpt lat="45.48099066385005" lon="11.010377515909376"><ele>260.0</ele><time>2026-04-18T08:30:23Z</time></trkpt><trkpt lat="45.48108853254963" lon="11.010310175745829"><ele>260.0</ele><time>2026-04-18T08:30:25Z</time></trkpt><trkpt lat="45.48116592030631" lon="11.010238118706196"><ele>260.0</ele><time>2026-04-18T08:30:27Z</time></trkpt><trkpt lat="45.481254295651496" lon="11.010140310511535"><ele>260.0</ele><time>2026-04-18T08:30:29Z</time></trkpt><trkpt lat="45.48131920224382" lon="11.0100608422535"><ele>260.0</ele><time>2026-04-18T08:30:31Z</time></trkpt><trkpt lat="45.48139899128763" lon="11.00998856553136"><ele>263.1666666666667</ele><time>2026-04-18T08:30:33Z</time></trkpt><trkpt lat="45.48146833241992" lon="11.009913744494392"><ele>266.33333333333337</ele><time>2026-04-18T08:30:35Z</time></trkpt><trkpt lat="45.48154977007404" lon="11.009870076214177"><ele>269.5</ele><time>2026-04-18T08:30:37Z</time></trkpt><trkpt lat="45.48163889774536" lon="11.00985415103292"><ele>272.6666666666667</ele><time>2026-04-18T08:30:39Z</time></trkpt><trkpt lat="45.48170493639143" lon="11.009807177260262"><ele>275.8333333333333</ele><time>2026-04-18T08:30:41Z</time></trkpt><trkpt lat="45.48176391317159" lon="11.009685844091239"><ele>279.0</ele><time>2026-04-18T08:30:43Z</time></trkpt><trkpt lat="45.481817597334405" lon="11.009594729913923"><ele>279.0</ele><time>2026-04-18T08:30:45Z</time></trkpt><trkpt lat="45.48188657259172" lon="11.009471641106042"><ele>279.0</ele><time>2026-04-18T08:30:47Z</time></trkpt><trkpt lat="45.481966363522275" lon="11.009338697755407"><ele>279.0</ele><time>2026-04-18T08:30:49Z</time></trkpt><trkpt lat="45.482002354272765" lon="11.009257876333029"><ele>279.0</ele><time>2026-04-18T08:30:51Z</time></trkpt><trkpt lat="45.48206679647935" lon="11.00914222183744"><ele>279.0</ele><time>2026-04-18T08:30:53Z</time></trkpt><trkpt lat="45.48211820385961" lon="11.009059040564482"><ele>280.2857142857143</ele><time>2026-04-18T08:30:55Z</time></trkpt><trkpt lat="45.482155371763916" lon="11.008986447159955"><ele>281.57142857142856</ele><time>2026-04-18T08:30:58Z</time></trkpt><trkpt lat="45.48219030601973" lon="11.008911395542139"><ele>282.8571428571429</ele><time>2026-04-18T08:31:01Z</time></trkpt><trkpt lat="45.482218421054725" lon="11.00881194999225"><ele>284.1428571428571</ele><time>2026-04-18T08:31:03Z</time></trkpt><trkpt lat="45.48227769639142" lon="11.008748878490868"><ele>285.42857142857144</ele><time>2026-04-18T08:31:06Z</time></trkpt><trkpt lat="45.482303979044474" lon="11.008617089739905"><ele>286.7142857142857</ele><time>2026-04-18T08:31:09Z</time></trkpt><trkpt lat="45.48232375195028" lon="11.008529522999703"><ele>288.0</ele><time>2026-04-18T08:31:12Z</time></trkpt><trkpt lat="45.48231838874835" lon="11.00841642758957"><ele>289.0</ele><time>2026-04-18T08:31:15Z</time></trkpt><trkpt lat="45.48229732982765" lon="11.008283804504318"><ele>290.0</ele><time>2026-04-18T08:31:17Z</time></trkpt><trkpt lat="45.48228116145989" lon="11.008182395438572"><ele>291.0</ele><time>2026-04-18T08:31:19Z</time></trkpt><trkpt lat="45.482319212768" lon="11.008094009248937"><ele>292.0</ele><time>2026-04-18T08:32:45Z</time></trkpt><trkpt lat="45.482368200409425" lon="11.00803553316657"><ele>293.0</ele><time>2026-04-18T08:32:48Z</time></trkpt><trkpt lat="45.48232945570803" lon="11.007961616036651"><ele>294.0</ele><time>2026-04-18T08:32:52Z</time></trkpt><trkpt lat="45.48226666677056" lon="11.007883075528078"><ele>294.0</ele><time>2026-04-18T08:32:55Z</time></trkpt><trkpt lat="45.48221616848923" lon="11.007816955866796"><ele>294.0</ele><time>2026-04-18T08:32:57Z</time></trkpt><trkpt lat="45.48215677662617" lon="11.007723839601697"><ele>294.0</ele><time>2026-04-18T08:32:59Z</time></trkpt><trkpt lat="45.48238940466682" lon="11.007614216604827"><ele>294.0</ele><time>2026-04-18T08:33:07Z</time></trkpt><trkpt lat="45.4824792239455" lon="11.007562457355917"><ele>294.0</ele><time>2026-04-18T08:33:09Z</time></trkpt><trkpt lat="45.482598338863994" lon="11.007531062002334"><ele>294.0</ele><time>2026-04-18T08:33:11Z</time></trkpt><trkpt lat="45.482723654893974" lon="11.00754663031297"><ele>294.0</ele><time>2026-04-18T08:33:13Z</time></trkpt><trkpt lat="45.48285376101975" lon="11.00759623792912"><ele>294.0</ele><time>2026-04-18T08:33:15Z</time></trkpt><trkpt lat="45.4829307987631" lon="11.007617016645229"><ele>294.3333333333333</ele><time>2026-04-18T08:33:16Z</time></trkpt><trkpt lat="45.48301245851073" lon="11.007639209604484"><ele>294.6666666666667</ele><time>2026-04-18T08:33:17Z</time></trkpt><trkpt lat="45.48308770643917" lon="11.007661975285883"><ele>295.0</ele><time>2026-04-18T08:33:18Z</time></trkpt><trkpt lat="45.483164348480805" lon="11.007686107221847"><ele>295.33333333333337</ele><time>2026-04-18T08:33:19Z</time></trkpt><trkpt lat="45.483234593188214" lon="11.007706195148558"><ele>295.6666666666667</ele><time>2026-04-18T08:33:20Z</time></trkpt><trkpt lat="45.48330919320586" lon="11.00772391161478"><ele>296.0</ele><time>2026-04-18T08:33:21Z</time></trkpt><trkpt lat="45.48339388402265" lon="11.007715440704816"><ele>296.0</ele><time>2026-04-18T08:33:22Z</time></trkpt><trkpt lat="45.4834991239408" lon="11.007703659527232"><ele>296.0</ele><time>2026-04-18T08:33:23Z</time></trkpt><trkpt lat="45.4835955314077" lon="11.007671010378532"><ele>296.0</ele><time>2026-04-18T08:33:24Z</time></trkpt><trkpt lat="45.48366975798759" lon="11.007609821542964"><ele>296.0</ele><time>2026-04-18T08:33:25Z</time></trkpt><trkpt lat="45.483787307911705" lon="11.007520150315028"><ele>296.0</ele><time>2026-04-18T08:33:26Z</time></trkpt><trkpt lat="45.48390580465284" lon="11.007423856481587"><ele>294.75</ele><time>2026-04-18T08:33:27Z</time></trkpt><trkpt lat="45.48402360580262" lon="11.007333448896405"><ele>293.5</ele><time>2026-04-18T08:33:28Z</time></trkpt><trkpt lat="45.48414526721407" lon="11.007237798464795"><ele>292.25</ele><time>2026-04-18T08:33:29Z</time></trkpt><trkpt lat="45.48425693417756" lon="11.007161294818225"><ele>291.0</ele><time>2026-04-18T08:33:30Z</time></trkpt><trkpt lat="45.484343599384374" lon="11.007100441670447"><ele>291.0</ele><time>2026-04-18T08:33:31Z</time></trkpt><trkpt lat="45.484399080865465" lon="11.007012778893602"><ele>291.0</ele><time>2026-04-18T08:33:32Z</time></trkpt><trkpt lat="45.484425122177136" lon="11.006884020307503"><ele>291.0</ele><time>2026-04-18T08:33:33Z</time></trkpt><trkpt lat="45.48444617918452" lon="11.006722251997227"><ele>291.0</ele><time>2026-04-18T08:33:34Z</time></trkpt><trkpt lat="45.48447278974967" lon="11.006549295760772"><ele>291.0</ele><time>2026-04-18T08:33:35Z</time></trkpt><trkpt lat="45.48451791763055" lon="11.006356815007779"><ele>290.25</ele><time>2026-04-18T08:33:36Z</time></trkpt><trkpt lat="45.48457393715126" lon="11.006157064556366"><ele>289.5</ele><time>2026-04-18T08:33:37Z</time></trkpt><trkpt lat="45.4846275420228" lon="11.00598527010571"><ele>288.75</ele><time>2026-04-18T08:33:38Z</time></trkpt><trkpt lat="45.484684552032675" lon="11.005824998117019"><ele>288.0</ele><time>2026-04-18T08:33:39Z</time></trkpt><trkpt lat="45.48476236528983" lon="11.005676576648552"><ele>288.0</ele><time>2026-04-18T08:33:40Z</time></trkpt><trkpt lat="45.48484266597167" lon="11.005542277222357"><ele>288.0</ele><time>2026-04-18T08:33:41Z</time></trkpt><trkpt lat="45.484926940476406" lon="11.005424224647955"><ele>288.0</ele><time>2026-04-18T08:33:42Z</time></trkpt><trkpt lat="45.48501074531482" lon="11.00533921272701"><ele>288.0</ele><time>2026-04-18T08:33:43Z</time></trkpt><trkpt lat="45.48509506247861" lon="11.0052871423542"><ele>288.0</ele><time>2026-04-18T08:33:44Z</time></trkpt><trkpt lat="45.4852005237184" lon="11.005247998815221"><ele>288.0</ele><time>2026-04-18T08:33:45Z</time></trkpt><trkpt lat="45.485309250083255" lon="11.005216366594718"><ele>288.0</ele><time>2026-04-18T08:33:46Z</time></trkpt><trkpt lat="45.48541770535868" lon="11.005181501727295"><ele>288.0</ele><time>2026-04-18T08:33:47Z</time></trkpt><trkpt lat="45.48552833117674" lon="11.005135230569842"><ele>288.0</ele><time>2026-04-18T08:33:48Z</time></trkpt><trkpt lat="45.48564222610396" lon="11.005085152770333"><ele>286.75</ele><time>2026-04-18T08:33:49Z</time></trkpt><trkpt lat="45.48575857349421" lon="11.005033545791212"><ele>285.5</ele><time>2026-04-18T08:33:50Z</time></trkpt><trkpt lat="45.485870633107524" lon="11.004987815193381"><ele>284.25</ele><time>2026-04-18T08:33:51Z</time></trkpt><trkpt lat="45.48598163453006" lon="11.004928745226094"><ele>283.0</ele><time>2026-04-18T08:33:52Z</time></trkpt><trkpt lat="45.48609106220973" lon="11.004881693493518"><ele>283.0</ele><time>2026-04-18T08:33:53Z</time></trkpt><trkpt lat="45.486206433276735" lon="11.004826521260735"><ele>283.0</ele><time>2026-04-18T08:33:54Z</time></trkpt><trkpt lat="45.486322925409084" lon="11.004777977953664"><ele>283.0</ele><time>2026-04-18T08:33:55Z</time></trkpt><trkpt lat="45.48642818928163" lon="11.004730433958576"><ele>283.0</ele><time>2026-04-18T08:33:56Z</time></trkpt><trkpt lat="45.486520318381956" lon="11.004679406147336"><ele>286.0</ele><time>2026-04-18T08:33:57Z</time></trkpt><trkpt lat="45.486589385583144" lon="11.00463330103983"><ele>289.0</ele><time>2026-04-18T08:33:58Z</time></trkpt><trkpt lat="45.48667559043319" lon="11.004605384702879"><ele>292.0</ele><time>2026-04-18T08:33:59Z</time></trkpt><trkpt lat="45.48677274356791" lon="11.004602046462068"><ele>295.0</ele><time>2026-04-18T08:34:01Z</time></trkpt><trkpt lat="45.486796714685354" lon="11.004734749034181"><ele>298.0</ele><time>2026-04-18T08:34:03Z</time></trkpt><trkpt lat="45.48682444419151" lon="11.004865419040847"><ele>298.0</ele><time>2026-04-18T08:34:05Z</time></trkpt><trkpt lat="45.48687593363855" lon="11.00498597876472"><ele>298.0</ele><time>2026-04-18T08:34:07Z</time></trkpt><trkpt lat="45.486964315141066" lon="11.005055867599996"><ele>298.0</ele><time>2026-04-18T08:34:09Z</time></trkpt><trkpt lat="45.4870267145235" lon="11.00509415111299"><ele>298.0</ele><time>2026-04-18T08:34:11Z</time></trkpt><trkpt lat="45.487118564730075" lon="11.005149842843881"><ele>298.0</ele><time>2026-04-18T08:34:14Z</time></trkpt><trkpt lat="45.48722845152062" lon="11.005099997757227"><ele>300.16666666666663</ele><time>2026-04-18T08:34:16Z</time></trkpt><trkpt lat="45.487285815557165" lon="11.00516056244937"><ele>302.3333333333333</ele><time>2026-04-18T08:34:18Z</time></trkpt><trkpt lat="45.487358808786986" lon="11.005243658526501"><ele>304.5</ele><time>2026-04-18T08:34:20Z</time></trkpt><trkpt lat="45.487410436934276" lon="11.005298703417758"><ele>306.6666666666667</ele><time>2026-04-18T08:34:22Z</time></trkpt><trkpt lat="45.487455111810306" lon="11.005414764689464"><ele>308.83333333333337</ele><time>2026-04-18T08:34:30Z</time></trkpt><trkpt lat="45.487434979735404" lon="11.005320084721324"><ele>311.0</ele><time>2026-04-18T08:35:43.999Z</time></trkpt><trkpt lat="45.48750897845438" lon="11.005294123619821"><ele>311.0</ele><time>2026-04-18T08:35:53.999Z</time></trkpt><trkpt lat="45.48759060203527" lon="11.005327659186861"><ele>311.0</ele><time>2026-04-18T08:35:55.999Z</time></trkpt><trkpt lat="45.48766296735586" lon="11.005358367227526"><ele>311.0</ele><time>2026-04-18T08:36:05.999Z</time></trkpt><trkpt lat="45.48773183545737" lon="11.005312713366838"><ele>311.0</ele><time>2026-04-18T08:36:07.999Z</time></trkpt><trkpt lat="45.48780693044547" lon="11.005298618123309"><ele>311.0</ele><time>2026-04-18T08:36:43.999Z</time></trkpt><trkpt lat="45.487867582440835" lon="11.005358686846375"><ele>311.0</ele><time>2026-04-18T08:36:45.999Z</time></trkpt><trkpt lat="45.487935739796285" lon="11.005359017467251"><ele>313.1428571428571</ele><time>2026-04-18T08:36:48.999Z</time></trkpt><trkpt lat="45.487983571995315" lon="11.005294187276814"><ele>315.28571428571433</ele><time>2026-04-18T08:36:51.999Z</time></trkpt><trkpt lat="45.488033788167435" lon="11.005216342231158"><ele>317.42857142857144</ele><time>2026-04-18T08:36:54.999Z</time></trkpt><trkpt lat="45.48810245452495" lon="11.005166156111027"><ele>319.57142857142856</ele><time>2026-04-18T08:36:58.999Z</time></trkpt><trkpt lat="45.48816059476971" lon="11.005079640163633"><ele>321.71428571428567</ele><time>2026-04-18T08:37:01.999Z</time></trkpt><trkpt lat="45.488215911093114" lon="11.005028106051297"><ele>323.8571428571429</ele><time>2026-04-18T08:37:03.999Z</time></trkpt><trkpt lat="45.48826959734211" lon="11.004955257108241"><ele>326.0</ele><time>2026-04-18T08:37:05.999Z</time></trkpt><trkpt lat="45.488334719956086" lon="11.00486778947877"><ele>326.1666666666667</ele><time>2026-04-18T08:37:07.999Z</time></trkpt><trkpt lat="45.48839039807014" lon="11.004790546250073"><ele>326.33333333333337</ele><time>2026-04-18T08:37:09.999Z</time></trkpt><trkpt lat="45.48847160906188" lon="11.004751925227335"><ele>326.5</ele><time>2026-04-18T08:37:11.999Z</time></trkpt><trkpt lat="45.48855101210375" lon="11.00471703042018"><ele>326.6666666666667</ele><time>2026-04-18T08:37:13.999Z</time></trkpt><trkpt lat="45.488627118000935" lon="11.004700847528406"><ele>326.8333333333333</ele><time>2026-04-18T08:37:16Z</time></trkpt><trkpt lat="45.48869060081784" lon="11.004771630581269"><ele>327.0</ele><time>2026-04-18T08:37:19Z</time></trkpt><trkpt lat="45.488762324789384" lon="11.004830821925525"><ele>327.8333333333333</ele><time>2026-04-18T08:37:21Z</time></trkpt><trkpt lat="45.4888355505676" lon="11.004867672254987"><ele>328.6666666666667</ele><time>2026-04-18T08:37:23Z</time></trkpt><trkpt lat="45.48891171689154" lon="11.004844226515273"><ele>329.5</ele><time>2026-04-18T08:37:25Z</time></trkpt><trkpt lat="45.488976211569394" lon="11.004849091514746"><ele>330.33333333333337</ele><time>2026-04-18T08:37:27Z</time></trkpt><trkpt lat="45.48905729684678" lon="11.004892113428783"><ele>331.1666666666667</ele><time>2026-04-18T08:37:30Z</time></trkpt><trkpt lat="45.48912411544311" lon="11.00494567539085"><ele>332.0</ele><time>2026-04-18T08:37:39Z</time></trkpt><trkpt lat="45.48918770090496" lon="11.00500186392496"><ele>332.0</ele><time>2026-04-18T08:37:42Z</time></trkpt><trkpt lat="45.48924460027593" lon="11.004933186847717"><ele>332.0</ele><time>2026-04-18T08:37:44Z</time></trkpt><trkpt lat="45.489340376661545" lon="11.004936744595117"><ele>332.0</ele><time>2026-04-18T08:37:46Z</time></trkpt><trkpt lat="45.48939029959205" lon="11.005033741528154"><ele>332.0</ele><time>2026-04-18T08:37:48Z</time></trkpt><trkpt lat="45.489478537634234" lon="11.005074842003575"><ele>332.0</ele><time>2026-04-18T08:37:51Z</time></trkpt><trkpt lat="45.489512332776314" lon="11.00518289215787"><ele>332.0</ele><time>2026-04-18T08:37:53Z</time></trkpt><trkpt lat="45.489546848298325" lon="11.005277922293821"><ele>332.0</ele><time>2026-04-18T08:37:55Z</time></trkpt><trkpt lat="45.48955760604274" lon="11.005393490103964"><ele>332.0</ele><time>2026-04-18T08:37:59Z</time></trkpt><trkpt lat="45.489590897730096" lon="11.005507147404392"><ele>332.0</ele><time>2026-04-18T08:38:02Z</time></trkpt><trkpt lat="45.489625137812496" lon="11.005596201766208"><ele>332.0</ele><time>2026-04-18T08:38:04Z</time></trkpt><trkpt lat="45.489624675999075" lon="11.005694349354536"><ele>332.0</ele><time>2026-04-18T08:38:07Z</time></trkpt><trkpt lat="45.48951275530397" lon="11.005683931469521"><ele>332.0</ele><time>2026-04-18T08:38:10Z</time></trkpt><trkpt lat="45.489438002371095" lon="11.005707940541479"><ele>332.0</ele><time>2026-04-18T08:38:12Z</time></trkpt><trkpt lat="45.489370409003506" lon="11.005725695136311"><ele>332.0</ele><time>2026-04-18T08:38:14Z</time></trkpt><trkpt lat="45.48930583191726" lon="11.005744248685458"><ele>332.0</ele><time>2026-04-18T08:38:16Z</time></trkpt><trkpt lat="45.48921536882882" lon="11.005786040991044"><ele>332.0</ele><time>2026-04-18T08:38:19Z</time></trkpt><trkpt lat="45.48913342921942" lon="11.005804695412232"><ele>332.0</ele><time>2026-04-18T08:38:33Z</time></trkpt><trkpt lat="45.489025281780286" lon="11.00581157075654"><ele>332.0</ele><time>2026-04-18T08:38:35Z</time></trkpt><trkpt lat="45.48891737537946" lon="11.005834449937486"><ele>332.0</ele><time>2026-04-18T08:38:37Z</time></trkpt><trkpt lat="45.48881259585045" lon="11.005800492922571"><ele>332.0</ele><time>2026-04-18T08:38:39Z</time></trkpt><trkpt lat="45.48873004798362" lon="11.005802979207845"><ele>332.0</ele><time>2026-04-18T08:38:41Z</time></trkpt><trkpt lat="45.48866393977381" lon="11.005820716697809"><ele>332.0</ele><time>2026-04-18T08:38:43Z</time></trkpt><trkpt lat="45.48859876062257" lon="11.00580096247212"><ele>332.0</ele><time>2026-04-18T08:38:45Z</time></trkpt><trkpt lat="45.488512800016295" lon="11.005795947321186"><ele>332.0</ele><time>2026-04-18T08:38:47Z</time></trkpt><trkpt lat="45.48840532753287" lon="11.005792037705113"><ele>330.8</ele><time>2026-04-18T08:38:49Z</time></trkpt><trkpt lat="45.488294983184836" lon="11.00579509818817"><ele>329.6</ele><time>2026-04-18T08:38:51Z</time></trkpt><trkpt lat="45.48818872812484" lon="11.005798900621452"><ele>328.40000000000003</ele><time>2026-04-18T08:38:53Z</time></trkpt><trkpt lat="45.48806355375043" lon="11.00580243761472"><ele>327.20000000000005</ele><time>2026-04-18T08:38:55Z</time></trkpt><trkpt lat="45.48796492249889" lon="11.005796309517155"><ele>326.0</ele><time>2026-04-18T08:38:57Z</time></trkpt><trkpt lat="45.48789616809681" lon="11.0057774539743"><ele>323.5</ele><time>2026-04-18T08:38:59Z</time></trkpt><trkpt lat="45.48782458051645" lon="11.00574887204547"><ele>321.0</ele><time>2026-04-18T08:39:01Z</time></trkpt><trkpt lat="45.48775658264378" lon="11.005711137330447"><ele>318.5</ele><time>2026-04-18T08:39:02Z</time></trkpt><trkpt lat="45.48768153898285" lon="11.00566144524122"><ele>316.0</ele><time>2026-04-18T08:39:03Z</time></trkpt><trkpt lat="45.48761889548678" lon="11.005614317511286"><ele>313.5</ele><time>2026-04-18T08:39:04Z</time></trkpt><trkpt lat="45.48752506442764" lon="11.005494289741815"><ele>311.0</ele><time>2026-04-18T08:39:06Z</time></trkpt><trkpt lat="45.48748055790424" lon="11.005383216788747"><ele>311.0</ele><time>2026-04-18T08:39:07Z</time></trkpt><trkpt lat="45.48743905196684" lon="11.005286849090043"><ele>311.0</ele><time>2026-04-18T08:39:08Z</time></trkpt><trkpt lat="45.48739448414547" lon="11.005206185500292"><ele>311.0</ele><time>2026-04-18T08:39:09Z</time></trkpt><trkpt lat="45.487327775451945" lon="11.005139889640594"><ele>311.0</ele><time>2026-04-18T08:39:10Z</time></trkpt><trkpt lat="45.48720068678303" lon="11.005017852957138"><ele>311.0</ele><time>2026-04-18T08:39:12Z</time></trkpt><trkpt lat="45.487134982255526" lon="11.004977264849115"><ele>311.0</ele><time>2026-04-18T08:39:13Z</time></trkpt><trkpt lat="45.487072051825166" lon="11.004969046111299"><ele>311.0</ele><time>2026-04-18T08:39:16Z</time></trkpt><trkpt lat="45.4871799769361" lon="11.005000047472913"><ele>311.0</ele><time>2026-04-18T08:39:21Z</time></trkpt><trkpt lat="45.48724641371802" lon="11.005055167310715"><ele>311.0</ele><time>2026-04-18T08:39:22Z</time></trkpt><trkpt lat="45.48729962662356" lon="11.00511248904143"><ele>311.0</ele><time>2026-04-18T08:39:23Z</time></trkpt><trkpt lat="45.4874199733951" lon="11.005229636144959"><ele>311.0</ele><time>2026-04-18T08:39:24Z</time></trkpt><trkpt lat="45.48749665830059" lon="11.005313582000547"><ele>311.0</ele><time>2026-04-18T08:39:25Z</time></trkpt><trkpt lat="45.48751575267096" lon="11.005506744478582"><ele>311.0</ele><time>2026-04-18T08:39:26Z</time></trkpt><trkpt lat="45.48756388134471" lon="11.005608350290395"><ele>311.0</ele><time>2026-04-18T08:39:27Z</time></trkpt><trkpt lat="45.487634092581594" lon="11.005689702016682"><ele>311.0</ele><time>2026-04-18T08:39:28Z</time></trkpt><trkpt lat="45.48773082904679" lon="11.005745512611483"><ele>311.0</ele><time>2026-04-18T08:39:29Z</time></trkpt><trkpt lat="45.487845422636205" lon="11.005800467389589"><ele>311.0</ele><time>2026-04-18T08:39:30Z</time></trkpt><trkpt lat="45.48796089727788" lon="11.005840582771059"><ele>311.0</ele><time>2026-04-18T08:39:31Z</time></trkpt><trkpt lat="45.48807962485978" lon="11.00585363366105"><ele>311.0</ele><time>2026-04-18T08:39:32Z</time></trkpt><trkpt lat="45.48819969042524" lon="11.005839723282131"><ele>311.33333333333337</ele><time>2026-04-18T08:39:33Z</time></trkpt><trkpt lat="45.48828729191499" lon="11.00584271316697"><ele>311.6666666666667</ele><time>2026-04-18T08:39:34Z</time></trkpt><trkpt lat="45.48837631393138" lon="11.005825852571867"><ele>312.0</ele><time>2026-04-18T08:39:36Z</time></trkpt><trkpt lat="45.48845205169229" lon="11.005840236369702"><ele>312.3333333333333</ele><time>2026-04-18T08:39:38Z</time></trkpt><trkpt lat="45.488515418815375" lon="11.005831021854673"><ele>312.66666666666663</ele><time>2026-04-18T08:39:40Z</time></trkpt><trkpt lat="45.48859408004989" lon="11.005831183973253"><ele>313.0</ele><time>2026-04-18T08:39:44Z</time></trkpt><trkpt lat="45.48866284918748" lon="11.00583043651946"><ele>313.0</ele><time>2026-04-18T08:39:46Z</time></trkpt><trkpt lat="45.488730313303186" lon="11.005833698158696"><ele>313.0</ele><time>2026-04-18T08:39:47Z</time></trkpt><trkpt lat="45.48886586823922" lon="11.005834961298806"><ele>313.0</ele><time>2026-04-18T08:39:49Z</time></trkpt><trkpt lat="45.48895830520663" lon="11.005823932663104"><ele>313.0</ele><time>2026-04-18T08:39:50Z</time></trkpt><trkpt lat="45.489056701516304" lon="11.005824990815071"><ele>313.0</ele><time>2026-04-18T08:39:51Z</time></trkpt><trkpt lat="45.48914221770667" lon="11.005797055047093"><ele>316.16666666666663</ele><time>2026-04-18T08:39:52Z</time></trkpt><trkpt lat="45.48924251895016" lon="11.00579636956407"><ele>319.3333333333333</ele><time>2026-04-18T08:39:53Z</time></trkpt><trkpt lat="45.4893156149213" lon="11.005793552179137"><ele>322.5</ele><time>2026-04-18T08:39:54Z</time></trkpt><trkpt lat="45.489425113168366" lon="11.00578298252392"><ele>325.6666666666667</ele><time>2026-04-18T08:39:56Z</time></trkpt><trkpt lat="45.48951313982928" lon="11.005769690298962"><ele>328.83333333333337</ele><time>2026-04-18T08:39:58Z</time></trkpt><trkpt lat="45.48944025021073" lon="11.005774148633959"><ele>332.0</ele><time>2026-04-18T08:40:03Z</time></trkpt><trkpt lat="45.48936013884514" lon="11.00578043329893"><ele>332.0</ele><time>2026-04-18T08:40:05Z</time></trkpt><trkpt lat="45.48924817162542" lon="11.005793429784063"><ele>332.0</ele><time>2026-04-18T08:40:08Z</time></trkpt><trkpt lat="45.4891767653786" lon="11.005798781372148"><ele>332.0</ele><time>2026-04-18T08:40:09Z</time></trkpt><trkpt lat="45.489102350115125" lon="11.005823940251785"><ele>332.0</ele><time>2026-04-18T08:40:10Z</time></trkpt><trkpt lat="45.48902355852304" lon="11.005839565208193"><ele>332.0</ele><time>2026-04-18T08:40:11Z</time></trkpt><trkpt lat="45.488925373074295" lon="11.005839977799358"><ele>332.0</ele><time>2026-04-18T08:40:12Z</time></trkpt><trkpt lat="45.48881908188428" lon="11.005800082254549"><ele>330.8</ele><time>2026-04-18T08:40:13Z</time></trkpt><trkpt lat="45.48871235647687" lon="11.005803161499262"><ele>329.6</ele><time>2026-04-18T08:40:14Z</time></trkpt><trkpt lat="45.48860493850107" lon="11.005820502600727"><ele>328.40000000000003</ele><time>2026-04-18T08:40:15Z</time></trkpt><trkpt lat="45.48850819031929" lon="11.005795676382872"><ele>327.20000000000005</ele><time>2026-04-18T08:40:16Z</time></trkpt><trkpt lat="45.48841209707293" lon="11.005792161728593"><ele>326.0</ele><time>2026-04-18T08:40:17Z</time></trkpt><trkpt lat="45.48832636977377" lon="11.005795572762327"><ele>326.0</ele><time>2026-04-18T08:40:18Z</time></trkpt><trkpt lat="45.48824008755888" lon="11.005802215465165"><ele>326.0</ele><time>2026-04-18T08:40:19Z</time></trkpt><trkpt lat="45.48814723155631" lon="11.005814599729062"><ele>326.0</ele><time>2026-04-18T08:40:20Z</time></trkpt><trkpt lat="45.48805418848697" lon="11.005802435613669"><ele>326.0</ele><time>2026-04-18T08:40:21Z</time></trkpt><trkpt lat="45.487966250968114" lon="11.00581858262979"><ele>326.0</ele><time>2026-04-18T08:40:22Z</time></trkpt><trkpt lat="45.48786693019293" lon="11.005767825699271"><ele>323.0</ele><time>2026-04-18T08:40:23Z</time></trkpt><trkpt lat="45.487747047202454" lon="11.005708406441451"><ele>320.0</ele><time>2026-04-18T08:40:24Z</time></trkpt><trkpt lat="45.48764495785209" lon="11.005636172568199"><ele>317.0</ele><time>2026-04-18T08:40:25Z</time></trkpt><trkpt lat="45.487558390912106" lon="11.005563321302233"><ele>314.0</ele><time>2026-04-18T08:40:26Z</time></trkpt><trkpt lat="45.48748993275167" lon="11.005473735264722"><ele>311.0</ele><time>2026-04-18T08:40:27Z</time></trkpt><trkpt lat="45.4874521621595" lon="11.00531728709503"><ele>311.0</ele><time>2026-04-18T08:40:28Z</time></trkpt><trkpt lat="45.4873826065154" lon="11.005186247266533"><ele>311.0</ele><time>2026-04-18T08:40:29Z</time></trkpt><trkpt lat="45.48728573382421" lon="11.005098964046304"><ele>311.0</ele><time>2026-04-18T08:40:30Z</time></trkpt><trkpt lat="45.48720262026849" lon="11.005021993224682"><ele>311.0</ele><time>2026-04-18T08:40:31Z</time></trkpt><trkpt lat="45.48713543650184" lon="11.0049775473161"><ele>311.0</ele><time>2026-04-18T08:40:32Z</time></trkpt><trkpt lat="45.487120303088474" lon="11.004831173816612"><ele>311.33333333333337</ele><time>2026-04-18T08:40:38Z</time></trkpt><trkpt lat="45.48715784425175" lon="11.004710264623755"><ele>311.6666666666667</ele><time>2026-04-18T08:40:41Z</time></trkpt><trkpt lat="45.48719434660284" lon="11.004632662975695"><ele>312.0</ele><time>2026-04-18T08:40:42Z</time></trkpt><trkpt lat="45.48722411796498" lon="11.00454523323276"><ele>312.3333333333333</ele><time>2026-04-18T08:40:43Z</time></trkpt><trkpt lat="45.487277761807164" lon="11.004399568062711"><ele>312.66666666666663</ele><time>2026-04-18T08:40:45Z</time></trkpt><trkpt lat="45.48730794093551" lon="11.004312721174163"><ele>313.0</ele><time>2026-04-18T08:40:46.001Z</time></trkpt><trkpt lat="45.48734767449734" lon="11.004229985408704"><ele>311.66666666666663</ele><time>2026-04-18T08:40:47.001Z</time></trkpt><trkpt lat="45.4874039831689" lon="11.004136590933003"><ele>310.3333333333333</ele><time>2026-04-18T08:40:48.001Z</time></trkpt><trkpt lat="45.487452054625784" lon="11.004054992751644"><ele>309.0</ele><time>2026-04-18T08:40:49.001Z</time></trkpt><trkpt lat="45.487508859838215" lon="11.003992472648022"><ele>307.6666666666667</ele><time>2026-04-18T08:40:50.001Z</time></trkpt><trkpt lat="45.487558508871395" lon="11.003931506118175"><ele>306.33333333333337</ele><time>2026-04-18T08:40:51.001Z</time></trkpt><trkpt lat="45.48760573197357" lon="11.00385538417839"><ele>305.0</ele><time>2026-04-18T08:40:52.001Z</time></trkpt><trkpt lat="45.48767364267615" lon="11.003774012444339"><ele>305.0</ele><time>2026-04-18T08:40:53.001Z</time></trkpt><trkpt lat="45.48773887747999" lon="11.003649007990058"><ele>305.0</ele><time>2026-04-18T08:40:54.001Z</time></trkpt><trkpt lat="45.48780587899227" lon="11.003513853094026"><ele>305.0</ele><time>2026-04-18T08:40:55.001Z</time></trkpt><trkpt lat="45.4878582815012" lon="11.003404515140144"><ele>305.0</ele><time>2026-04-18T08:40:56.001Z</time></trkpt><trkpt lat="45.48791239251564" lon="11.003318678123742"><ele>305.0</ele><time>2026-04-18T08:40:57.001Z</time></trkpt><trkpt lat="45.487960125450726" lon="11.003237496807204"><ele>304.5</ele><time>2026-04-18T08:40:58.001Z</time></trkpt><trkpt lat="45.48800934923452" lon="11.003135073037729"><ele>304.0</ele><time>2026-04-18T08:40:59.001Z</time></trkpt><trkpt lat="45.488056956064696" lon="11.003031091555547"><ele>303.5</ele><time>2026-04-18T08:41:00.001Z</time></trkpt><trkpt lat="45.48806625342288" lon="11.002939947465325"><ele>303.0</ele><time>2026-04-18T08:41:01.001Z</time></trkpt><trkpt lat="45.48803937262827" lon="11.002837781661711"><ele>302.5</ele><time>2026-04-18T08:41:02.001Z</time></trkpt><trkpt lat="45.48797670272951" lon="11.002713609086374"><ele>302.0</ele><time>2026-04-18T08:41:03.001Z</time></trkpt><trkpt lat="45.48786828891746" lon="11.002584657440574"><ele>303.5</ele><time>2026-04-18T08:41:04.001Z</time></trkpt><trkpt lat="45.487756645659" lon="11.002423647584504"><ele>305.0</ele><time>2026-04-18T08:41:05.001Z</time></trkpt><trkpt lat="45.48765131967669" lon="11.002319310850842"><ele>306.5</ele><time>2026-04-18T08:41:06.001Z</time></trkpt><trkpt lat="45.487586830685" lon="11.002204983034526"><ele>308.0</ele><time>2026-04-18T08:41:07.001Z</time></trkpt><trkpt lat="45.487526899114116" lon="11.002072138720392"><ele>308.0</ele><time>2026-04-18T08:41:08.001Z</time></trkpt><trkpt lat="45.48749855608479" lon="11.001895175598571"><ele>308.0</ele><time>2026-04-18T08:41:09.001Z</time></trkpt><trkpt lat="45.487459666719936" lon="11.001722051500947"><ele>308.0</ele><time>2026-04-18T08:41:10.001Z</time></trkpt><trkpt lat="45.48740863242995" lon="11.001516423645352"><ele>308.0</ele><time>2026-04-18T08:41:11.001Z</time></trkpt><trkpt lat="45.48737345484705" lon="11.00131055070515"><ele>308.0</ele><time>2026-04-18T08:41:12.001Z</time></trkpt><trkpt lat="45.48734886892156" lon="11.001119445595862"><ele>308.0</ele><time>2026-04-18T08:41:13.001Z</time></trkpt><trkpt lat="45.487331574976636" lon="11.000941192240209"><ele>308.0</ele><time>2026-04-18T08:41:14.001Z</time></trkpt><trkpt lat="45.48731923689579" lon="11.00077704957308"><ele>308.0</ele><time>2026-04-18T08:41:15.001Z</time></trkpt><trkpt lat="45.4872990183807" lon="11.000604466829094"><ele>306.8</ele><time>2026-04-18T08:41:16.001Z</time></trkpt><trkpt lat="45.48727770376358" lon="11.000414422511515"><ele>305.6</ele><time>2026-04-18T08:41:17.001Z</time></trkpt><trkpt lat="45.48726331820451" lon="11.000241155557013"><ele>304.4</ele><time>2026-04-18T08:41:18.001Z</time></trkpt><trkpt lat="45.48727108845387" lon="11.000093265066402"><ele>303.2</ele><time>2026-04-18T08:41:19.001Z</time></trkpt><trkpt lat="45.48725530500234" lon="10.999972174679636"><ele>302.0</ele><time>2026-04-18T08:41:20.001Z</time></trkpt><trkpt lat="45.487259661417944" lon="10.999848169802462"><ele>302.0</ele><time>2026-04-18T08:41:21.001Z</time></trkpt><trkpt lat="45.48728805141123" lon="10.999721849050344"><ele>302.0</ele><time>2026-04-18T08:41:22.001Z</time></trkpt><trkpt lat="45.487305471415794" lon="10.999609134409425"><ele>302.0</ele><time>2026-04-18T08:41:23.001Z</time></trkpt><trkpt lat="45.48725128379633" lon="10.999498157607412"><ele>302.0</ele><time>2026-04-18T08:41:24.001Z</time></trkpt><trkpt lat="45.487210541764476" lon="10.999402339433693"><ele>302.0</ele><time>2026-04-18T08:41:25.001Z</time></trkpt><trkpt lat="45.487160355827505" lon="10.9993144506129"><ele>302.0</ele><time>2026-04-18T08:41:26.001Z</time></trkpt><trkpt lat="45.48715021355378" lon="10.99921818781144"><ele>300.83333333333337</ele><time>2026-04-18T08:41:27.001Z</time></trkpt><trkpt lat="45.487187676442964" lon="10.99912820826453"><ele>299.6666666666667</ele><time>2026-04-18T08:41:28.001Z</time></trkpt><trkpt lat="45.487248077144976" lon="10.99906202599126"><ele>298.5</ele><time>2026-04-18T08:41:29.001Z</time></trkpt><trkpt lat="45.48729803114891" lon="10.998918426107604"><ele>297.3333333333333</ele><time>2026-04-18T08:41:31Z</time></trkpt><trkpt lat="45.48725953058287" lon="10.998833997334888"><ele>296.16666666666663</ele><time>2026-04-18T08:41:32Z</time></trkpt><trkpt lat="45.487161289140325" lon="10.998795074589149"><ele>295.0</ele><time>2026-04-18T08:41:33Z</time></trkpt><trkpt lat="45.487072987062234" lon="10.998737013956877"><ele>294.25</ele><time>2026-04-18T08:41:34Z</time></trkpt><trkpt lat="45.48695062055608" lon="10.998695367899964"><ele>293.5</ele><time>2026-04-18T08:41:35Z</time></trkpt><trkpt lat="45.486829100945286" lon="10.998662046790766"><ele>292.75</ele><time>2026-04-18T08:41:36Z</time></trkpt><trkpt lat="45.48673279844204" lon="10.998589033159762"><ele>292.0</ele><time>2026-04-18T08:41:37Z</time></trkpt><trkpt lat="45.48664896746719" lon="10.99847054273439"><ele>292.0</ele><time>2026-04-18T08:41:38Z</time></trkpt><trkpt lat="45.48656829047229" lon="10.998356421782164"><ele>292.0</ele><time>2026-04-18T08:41:39Z</time></trkpt><trkpt lat="45.48651165765113" lon="10.998272657820912"><ele>292.0</ele><time>2026-04-18T08:41:40Z</time></trkpt><trkpt lat="45.4864514885647" lon="10.998172400569612"><ele>292.0</ele><time>2026-04-18T08:41:42Z</time></trkpt><trkpt lat="45.48636418227064" lon="10.998042704869356"><ele>292.0</ele><time>2026-04-18T08:41:44Z</time></trkpt><trkpt lat="45.48631652074055" lon="10.997975251684764"><ele>290.3333333333333</ele><time>2026-04-18T08:41:45Z</time></trkpt><trkpt lat="45.48626273680039" lon="10.997923353702772"><ele>288.66666666666663</ele><time>2026-04-18T08:41:46Z</time></trkpt><trkpt lat="45.48621324080002" lon="10.997840531606977"><ele>287.0</ele><time>2026-04-18T08:41:47Z</time></trkpt><trkpt lat="45.48616587986078" lon="10.997730091650139"><ele>285.3333333333333</ele><time>2026-04-18T08:41:49Z</time></trkpt><trkpt lat="45.48617956559644" lon="10.99763563301736"><ele>283.6666666666667</ele><time>2026-04-18T08:41:51Z</time></trkpt><trkpt lat="45.486280282109135" lon="10.997636982569139"><ele>282.0</ele><time>2026-04-18T08:41:53Z</time></trkpt><trkpt lat="45.486333404360614" lon="10.997696433844443"><ele>282.0</ele><time>2026-04-18T08:41:54Z</time></trkpt><trkpt lat="45.48639038444743" lon="10.997755264963857"><ele>282.0</ele><time>2026-04-18T08:41:55Z</time></trkpt><trkpt lat="45.48644271979052" lon="10.997808836168014"><ele>282.0</ele><time>2026-04-18T08:41:56Z</time></trkpt><trkpt lat="45.486518578627376" lon="10.997736680204152"><ele>282.0</ele><time>2026-04-18T08:41:59Z</time></trkpt><trkpt lat="45.48648207195373" lon="10.997647567580538"><ele>282.0</ele><time>2026-04-18T08:42:00Z</time></trkpt><trkpt lat="45.486444323304774" lon="10.997526428177382"><ele>282.0</ele><time>2026-04-18T08:42:01Z</time></trkpt><trkpt lat="45.48637482584409" lon="10.997394813761591"><ele>279.4</ele><time>2026-04-18T08:42:02Z</time></trkpt><trkpt lat="45.48633005688571" lon="10.997252305618094"><ele>276.79999999999995</ele><time>2026-04-18T08:42:03Z</time></trkpt><trkpt lat="45.48627807827724" lon="10.997126876600293"><ele>274.2</ele><time>2026-04-18T08:42:04Z</time></trkpt><trkpt lat="45.48624651608279" lon="10.996993053684639"><ele>271.59999999999997</ele><time>2026-04-18T08:42:05Z</time></trkpt><trkpt lat="45.48619755840549" lon="10.996913887788443"><ele>269.0</ele><time>2026-04-18T08:42:06Z</time></trkpt><trkpt lat="45.48617561645237" lon="10.996817686959872"><ele>269.0</ele><time>2026-04-18T08:42:07Z</time></trkpt><trkpt lat="45.48613970677803" lon="10.99673525086018"><ele>269.0</ele><time>2026-04-18T08:42:08Z</time></trkpt><trkpt lat="45.48608189572986" lon="10.996668136649516"><ele>269.0</ele><time>2026-04-18T08:42:09Z</time></trkpt><trkpt lat="45.486038714454615" lon="10.99658513860816"><ele>269.0</ele><time>2026-04-18T08:42:10Z</time></trkpt><trkpt lat="45.48597870929634" lon="10.996537507964009"><ele>269.0</ele><time>2026-04-18T08:42:11Z</time></trkpt><trkpt lat="45.485863392998574" lon="10.996480038806304"><ele>269.0</ele><time>2026-04-18T08:42:13Z</time></trkpt><trkpt lat="45.48579103775935" lon="10.996439239228309"><ele>267.0</ele><time>2026-04-18T08:42:14Z</time></trkpt><trkpt lat="45.48572427897391" lon="10.99639340311709"><ele>265.0</ele><time>2026-04-18T08:42:15Z</time></trkpt><trkpt lat="45.48563143673377" lon="10.996372001626238"><ele>263.0</ele><time>2026-04-18T08:42:16Z</time></trkpt><trkpt lat="45.48555195752003" lon="10.996362346167725"><ele>261.0</ele><time>2026-04-18T08:42:17Z</time></trkpt><trkpt lat="45.485487262040124" lon="10.996360506240437"><ele>259.0</ele><time>2026-04-18T08:42:18Z</time></trkpt><trkpt lat="45.4854233532211" lon="10.996375953667691"><ele>257.0</ele><time>2026-04-18T08:42:19Z</time></trkpt><trkpt lat="45.48534437383979" lon="10.996366277794046"><ele>255.66666666666669</ele><time>2026-04-18T08:42:20Z</time></trkpt><trkpt lat="45.485282209876324" lon="10.996427614577673"><ele>254.33333333333334</ele><time>2026-04-18T08:42:21Z</time></trkpt><trkpt lat="45.4851954065083" lon="10.996463627532897"><ele>253.0</ele><time>2026-04-18T08:42:23Z</time></trkpt><trkpt lat="45.48512201314224" lon="10.996376137130007"><ele>251.66666666666669</ele><time>2026-04-18T08:42:26Z</time></trkpt><trkpt lat="45.48510124565307" lon="10.996257261274664"><ele>250.33333333333334</ele><time>2026-04-18T08:42:28Z</time></trkpt><trkpt lat="45.48508156682354" lon="10.99611916350242"><ele>249.0</ele><time>2026-04-18T08:42:30Z</time></trkpt><trkpt lat="45.48508436684192" lon="10.996017360186993"><ele>249.0</ele><time>2026-04-18T08:42:32Z</time></trkpt><trkpt lat="45.48507320289466" lon="10.995878199130782"><ele>249.0</ele><time>2026-04-18T08:42:35Z</time></trkpt><trkpt lat="45.48483978587974" lon="10.995754495173825"><ele>249.0</ele><time>2026-04-18T08:42:38Z</time></trkpt><trkpt lat="45.48479436745729" lon="10.995689526820362"><ele>249.0</ele><time>2026-04-18T08:42:41Z</time></trkpt><trkpt lat="45.48484200925388" lon="10.995580333221895"><ele>247.66666666666666</ele><time>2026-04-18T08:42:44Z</time></trkpt><trkpt lat="45.48487196717477" lon="10.995493276502026"><ele>246.33333333333331</ele><time>2026-04-18T08:42:46Z</time></trkpt><trkpt lat="45.484908414695255" lon="10.995373515577883"><ele>245.0</ele><time>2026-04-18T08:42:48Z</time></trkpt><trkpt lat="45.48494797152981" lon="10.99527617109051"><ele>243.66666666666666</ele><time>2026-04-18T08:42:50Z</time></trkpt><trkpt lat="45.48498783080911" lon="10.995199705640129"><ele>242.33333333333331</ele><time>2026-04-18T08:42:52Z</time></trkpt><trkpt lat="45.485064475571804" lon="10.995184853925274"><ele>241.0</ele><time>2026-04-18T08:42:54Z</time></trkpt><trkpt lat="45.48512633122594" lon="10.995136746356769"><ele>241.0</ele><time>2026-04-18T08:42:56Z</time></trkpt><trkpt lat="45.485190065685515" lon="10.995099952737943"><ele>241.00000000000003</ele><time>2026-04-18T08:42:58Z</time></trkpt><trkpt lat="45.48526260392731" lon="10.995056591744548"><ele>241.0</ele><time>2026-04-18T08:43:02Z</time></trkpt><trkpt lat="45.4851988910929" lon="10.994958553181919"><ele>241.0</ele><time>2026-04-18T08:43:06Z</time></trkpt><trkpt lat="45.485151192589456" lon="10.994870174263783"><ele>241.00000000000003</ele><time>2026-04-18T08:43:08Z</time></trkpt><trkpt lat="45.48510912816739" lon="10.994803040614922"><ele>241.0</ele><time>2026-04-18T08:43:10Z</time></trkpt><trkpt lat="45.48506674434133" lon="10.994732527428614"><ele>241.0</ele><time>2026-04-18T08:43:12Z</time></trkpt><trkpt lat="45.484999911085" lon="10.994614026071135"><ele>238.20000000000002</ele><time>2026-04-18T08:43:14Z</time></trkpt><trkpt lat="45.48497108860704" lon="10.994523159580728"><ele>235.40000000000003</ele><time>2026-04-18T08:43:17.001Z</time></trkpt><trkpt lat="45.485070210619035" lon="10.99452791424013"><ele>232.6</ele><time>2026-04-18T08:43:24.001Z</time></trkpt><trkpt lat="45.48513398677994" lon="10.994572258969285"><ele>229.8</ele><time>2026-04-18T08:43:25.001Z</time></trkpt><trkpt lat="45.48523701528352" lon="10.994626948932922"><ele>227.0</ele><time>2026-04-18T08:43:27.001Z</time></trkpt><trkpt lat="45.485362452325916" lon="10.994695415346781"><ele>224.33333333333334</ele><time>2026-04-18T08:43:29.001Z</time></trkpt><trkpt lat="45.48545760327787" lon="10.994734003966542"><ele>221.66666666666669</ele><time>2026-04-18T08:43:30.001Z</time></trkpt><trkpt lat="45.48554836311826" lon="10.994776403964954"><ele>219.0</ele><time>2026-04-18T08:43:31.001Z</time></trkpt><trkpt lat="45.48563165631474" lon="10.9948167945193"><ele>216.33333333333331</ele><time>2026-04-18T08:43:32.001Z</time></trkpt><trkpt lat="45.48570710043867" lon="10.994833620284254"><ele>213.66666666666666</ele><time>2026-04-18T08:43:33.001Z</time></trkpt><trkpt lat="45.485775059606276" lon="10.99486310333408"><ele>211.0</ele><time>2026-04-18T08:43:34.001Z</time></trkpt><trkpt lat="45.48584712193425" lon="10.994884175424875"><ele>211.0</ele><time>2026-04-18T08:43:35.001Z</time></trkpt><trkpt lat="45.48596284596971" lon="10.994919459659593"><ele>211.0</ele><time>2026-04-18T08:43:37Z</time></trkpt><trkpt lat="45.486046841966434" lon="10.994935354698393"><ele>211.0</ele><time>2026-04-18T08:43:39Z</time></trkpt><trkpt lat="45.48613669937192" lon="10.994999292205105"><ele>211.0</ele><time>2026-04-18T08:43:41Z</time></trkpt><trkpt lat="45.4862019792516" lon="10.99499244486636"><ele>211.0</ele><time>2026-04-18T08:43:42Z</time></trkpt><trkpt lat="45.48630071355563" lon="10.995035876328156"><ele>213.49999999999997</ele><time>2026-04-18T08:43:45Z</time></trkpt><trkpt lat="45.486377418705814" lon="10.995099425876637"><ele>216.0</ele><time>2026-04-18T08:43:47Z</time></trkpt><trkpt lat="45.48643224018102" lon="10.995171064717168"><ele>218.5</ele><time>2026-04-18T08:43:50Z</time></trkpt><trkpt lat="45.48647912964849" lon="10.995231713188392"><ele>221.0</ele><time>2026-04-18T08:43:53Z</time></trkpt><trkpt lat="45.486510650518234" lon="10.995144649526207"><ele>223.49999999999997</ele><time>2026-04-18T08:43:57Z</time></trkpt><trkpt lat="45.486467326396905" lon="10.995026481169257"><ele>226.0</ele><time>2026-04-18T08:43:59Z</time></trkpt><trkpt lat="45.486461674590494" lon="10.994934254170106"><ele>220.83333333333331</ele><time>2026-04-18T08:44:01Z</time></trkpt><trkpt lat="45.48643489627251" lon="10.994842453336597"><ele>215.66666666666666</ele><time>2026-04-18T08:44:04Z</time></trkpt><trkpt lat="45.486418325454736" lon="10.994749319505228"><ele>210.5</ele><time>2026-04-18T08:44:07Z</time></trkpt><trkpt lat="45.48649714972249" lon="10.994807139494622"><ele>205.33333333333331</ele><time>2026-04-18T08:44:10Z</time></trkpt><trkpt lat="45.4865537943382" lon="10.994863055130587"><ele>200.16666666666666</ele><time>2026-04-18T08:44:12Z</time></trkpt><trkpt lat="45.48661362495011" lon="10.994950829700887"><ele>195.0</ele><time>2026-04-18T08:44:15Z</time></trkpt><trkpt lat="45.48661363016932" lon="10.99482552452212"><ele>195.0</ele><time>2026-04-18T08:44:20Z</time></trkpt><trkpt lat="45.48659864251155" lon="10.994730111096786"><ele>195.0</ele><time>2026-04-18T08:44:22Z</time></trkpt><trkpt lat="45.486544143434784" lon="10.994643946590886"><ele>195.0</ele><time>2026-04-18T08:44:26Z</time></trkpt><trkpt lat="45.48663347413626" lon="10.994648093993352"><ele>195.0</ele><time>2026-04-18T08:44:30Z</time></trkpt><trkpt lat="45.48671730801379" lon="10.994672852557697"><ele>195.0</ele><time>2026-04-18T08:44:33Z</time></trkpt><trkpt lat="45.486788323443704" lon="10.994594824259778"><ele>195.0</ele><time>2026-04-18T08:44:36Z</time></trkpt><trkpt lat="45.48679330870749" lon="10.994501845872678"><ele>195.0</ele><time>2026-04-18T08:44:38Z</time></trkpt><trkpt lat="45.48683119109568" lon="10.994376125975243"><ele>195.0</ele><time>2026-04-18T08:44:40Z</time></trkpt><trkpt lat="45.486871395104146" lon="10.994244320536753"><ele>195.0</ele><time>2026-04-18T08:44:42Z</time></trkpt><trkpt lat="45.48692400453568" lon="10.993994413400705"><ele>195.0</ele><time>2026-04-18T08:45:16Z</time></trkpt><trkpt lat="45.48694045250294" lon="10.993821723371294"><ele>189.8</ele><time>2026-04-18T08:45:18Z</time></trkpt><trkpt lat="45.48697945004594" lon="10.993742824362203"><ele>184.6</ele><time>2026-04-18T08:45:19Z</time></trkpt><trkpt lat="45.48684370824888" lon="10.993621375405683"><ele>179.39999999999998</ele><time>2026-04-18T08:45:20Z</time></trkpt><trkpt lat="45.48676887324787" lon="10.99353872772489"><ele>174.2</ele><time>2026-04-18T08:45:21Z</time></trkpt><trkpt lat="45.48669626776017" lon="10.993454034742156"><ele>169.0</ele><time>2026-04-18T08:45:22.001Z</time></trkpt><trkpt lat="45.48663832607096" lon="10.993371921669945"><ele>168.16666666666669</ele><time>2026-04-18T08:45:23.001Z</time></trkpt><trkpt lat="45.486586167294845" lon="10.993294960622261"><ele>167.33333333333334</ele><time>2026-04-18T08:45:24.001Z</time></trkpt><trkpt lat="45.48653570027227" lon="10.993224232803861"><ele>166.5</ele><time>2026-04-18T08:45:25.001Z</time></trkpt><trkpt lat="45.48648044165449" lon="10.993150292862827"><ele>165.66666666666666</ele><time>2026-04-18T08:45:26.001Z</time></trkpt><trkpt lat="45.48643044268205" lon="10.993076225196875"><ele>164.83333333333331</ele><time>2026-04-18T08:45:27.001Z</time></trkpt><trkpt lat="45.486377400986626" lon="10.992998084765969"><ele>164.0</ele><time>2026-04-18T08:45:28Z</time></trkpt><trkpt lat="45.48633498581607" lon="10.992894149585585"><ele>163.39999999999998</ele><time>2026-04-18T08:45:31Z</time></trkpt><trkpt lat="45.48625110062674" lon="10.992781517271235"><ele>162.8</ele><time>2026-04-18T08:45:33Z</time></trkpt><trkpt lat="45.486167258740416" lon="10.992729816177295"><ele>162.2</ele><time>2026-04-18T08:45:34Z</time></trkpt><trkpt lat="45.48605162563496" lon="10.992673543176116"><ele>161.60000000000002</ele><time>2026-04-18T08:45:35Z</time></trkpt><trkpt lat="45.485958307110195" lon="10.992607874104733"><ele>161.0</ele><time>2026-04-18T08:45:36Z</time></trkpt><trkpt lat="45.48585892751002" lon="10.992537889036416"><ele>160.5</ele><time>2026-04-18T08:45:37Z</time></trkpt><trkpt lat="45.48573957739644" lon="10.99245403357367"><ele>160.0</ele><time>2026-04-18T08:45:38Z</time></trkpt><trkpt lat="45.485631665192116" lon="10.992374223489938"><ele>159.5</ele><time>2026-04-18T08:45:39Z</time></trkpt><trkpt lat="45.48552777774876" lon="10.99229465486655"><ele>159.0</ele><time>2026-04-18T08:45:40Z</time></trkpt><trkpt lat="45.48542040642058" lon="10.992212401062414"><ele>157.5</ele><time>2026-04-18T08:45:41Z</time></trkpt><trkpt lat="45.48531191669367" lon="10.992130160559435"><ele>156.0</ele><time>2026-04-18T08:45:42Z</time></trkpt><trkpt lat="45.48520344284698" lon="10.992050876252144"><ele>154.5</ele><time>2026-04-18T08:45:43Z</time></trkpt><trkpt lat="45.48509929508217" lon="10.99197873165394"><ele>153.0</ele><time>2026-04-18T08:45:44Z</time></trkpt><trkpt lat="45.484997398825215" lon="10.991913299623349"><ele>153.0</ele><time>2026-04-18T08:45:45Z</time></trkpt><trkpt lat="45.48489707080564" lon="10.991844445498588"><ele>153.0</ele><time>2026-04-18T08:45:46Z</time></trkpt><trkpt lat="45.48480247547475" lon="10.99175778466264"><ele>153.0</ele><time>2026-04-18T08:45:47Z</time></trkpt><trkpt lat="45.48469410495627" lon="10.991702996222013"><ele>153.0</ele><time>2026-04-18T08:45:48Z</time></trkpt><trkpt lat="45.48457791606401" lon="10.991613446320153"><ele>151.0</ele><time>2026-04-18T08:45:49Z</time></trkpt><trkpt lat="45.48445874105113" lon="10.991522305203054"><ele>149.0</ele><time>2026-04-18T08:45:50Z</time></trkpt><trkpt lat="45.4843495672834" lon="10.991437070004643"><ele>147.0</ele><time>2026-04-18T08:45:51Z</time></trkpt><trkpt lat="45.48424634104373" lon="10.991360579931795"><ele>145.0</ele><time>2026-04-18T08:45:52Z</time></trkpt><trkpt lat="45.484149756507065" lon="10.99130289359208"><ele>145.0</ele><time>2026-04-18T08:45:53Z</time></trkpt><trkpt lat="45.48405833525427" lon="10.9912566848183"><ele>145.0</ele><time>2026-04-18T08:45:54Z</time></trkpt><trkpt lat="45.48396840094309" lon="10.991229846473358"><ele>145.0</ele><time>2026-04-18T08:45:55Z</time></trkpt><trkpt lat="45.4838730724156" lon="10.991212329739838"><ele>145.0</ele><time>2026-04-18T08:45:56Z</time></trkpt><trkpt lat="45.483771064316706" lon="10.99119634815765"><ele>145.0</ele><time>2026-04-18T08:45:57Z</time></trkpt><trkpt lat="45.483661135544224" lon="10.991186168713975"><ele>145.0</ele><time>2026-04-18T08:45:58Z</time></trkpt><trkpt lat="45.48355881684351" lon="10.991175523334956"><ele>145.0</ele><time>2026-04-18T08:45:59Z</time></trkpt><trkpt lat="45.48345763880079" lon="10.991166998016336"><ele>145.0</ele><time>2026-04-18T08:46:00Z</time></trkpt><trkpt lat="45.483350783093115" lon="10.991117890607267"><ele>145.0</ele><time>2026-04-18T08:46:01Z</time></trkpt><trkpt lat="45.48323433091348" lon="10.991061014258701"><ele>145.0</ele><time>2026-04-18T08:46:02Z</time></trkpt><trkpt lat="45.48310290547076" lon="10.991012130730399"><ele>145.0</ele><time>2026-04-18T08:46:03Z</time></trkpt><trkpt lat="45.48298907789401" lon="10.990944207262364"><ele>145.0</ele><time>2026-04-18T08:46:04Z</time></trkpt><trkpt lat="45.48288662715901" lon="10.990877670666165"><ele>145.0</ele><time>2026-04-18T08:46:05Z</time></trkpt><trkpt lat="45.482787533156454" lon="10.990808962477686"><ele>145.0</ele><time>2026-04-18T08:46:06Z</time></trkpt><trkpt lat="45.48268836427734" lon="10.990736685495802"><ele>143.0</ele><time>2026-04-18T08:46:07Z</time></trkpt><trkpt lat="45.482582558185825" lon="10.990658498374945"><ele>141.0</ele><time>2026-04-18T08:46:08Z</time></trkpt><trkpt lat="45.482475750808035" lon="10.990582915006163"><ele>139.0</ele><time>2026-04-18T08:46:09Z</time></trkpt><trkpt lat="45.48236249013996" lon="10.990518158575686"><ele>137.0</ele><time>2026-04-18T08:46:10Z</time></trkpt><trkpt lat="45.48225930851028" lon="10.990456396037985"><ele>137.0</ele><time>2026-04-18T08:46:11Z</time></trkpt><trkpt lat="45.48215202565882" lon="10.990398311276255"><ele>137.0</ele><time>2026-04-18T08:46:12Z</time></trkpt><trkpt lat="45.48203452012962" lon="10.99035879914368"><ele>137.0</ele><time>2026-04-18T08:46:13Z</time></trkpt><trkpt lat="45.481921063975705" lon="10.99032982436176"><ele>137.0</ele><time>2026-04-18T08:46:14Z</time></trkpt><trkpt lat="45.48181268553908" lon="10.99030619456888"><ele>136.83333333333331</ele><time>2026-04-18T08:46:15Z</time></trkpt><trkpt lat="45.4817154509329" lon="10.99028271053064"><ele>136.66666666666666</ele><time>2026-04-18T08:46:16Z</time></trkpt><trkpt lat="45.48163095408594" lon="10.990254965672152"><ele>136.5</ele><time>2026-04-18T08:46:17Z</time></trkpt><trkpt lat="45.481550580809625" lon="10.990234417411578"><ele>136.33333333333334</ele><time>2026-04-18T08:46:18Z</time></trkpt><trkpt lat="45.48147565392756" lon="10.990205078011856"><ele>136.16666666666669</ele><time>2026-04-18T08:46:19Z</time></trkpt><trkpt lat="45.48141240605455" lon="10.990191720169184"><ele>136.0</ele><time>2026-04-18T08:46:20Z</time></trkpt><trkpt lat="45.48132828083631" lon="10.990178787715319"><ele>136.0</ele><time>2026-04-18T08:46:22Z</time></trkpt><trkpt lat="45.48132661268421" lon="10.990044926398227"><ele>136.0</ele><time>2026-04-18T08:46:24Z</time></trkpt><trkpt lat="45.48135516476611" lon="10.989956182386123"><ele>136.0</ele><time>2026-04-18T08:46:25Z</time></trkpt><trkpt lat="45.481295960183154" lon="10.98983594702882"><ele>136.0</ele><time>2026-04-18T08:46:27Z</time></trkpt><trkpt lat="45.48120883461337" lon="10.989788274081414"><ele>136.0</ele><time>2026-04-18T08:46:29Z</time></trkpt><trkpt lat="45.481153326111865" lon="10.989726660388225"><ele>136.0</ele><time>2026-04-18T08:46:33Z</time></trkpt><trkpt lat="45.481076551829794" lon="10.989643219896685"><ele>135.6</ele><time>2026-04-18T08:46:35Z</time></trkpt><trkpt lat="45.48099482512812" lon="10.98954330797743"><ele>135.2</ele><time>2026-04-18T08:46:37Z</time></trkpt><trkpt lat="45.48092802000849" lon="10.989433789495386"><ele>134.8</ele><time>2026-04-18T08:46:39Z</time></trkpt><trkpt lat="45.48087343447976" lon="10.989328368482889"><ele>134.4</ele><time>2026-04-18T08:46:41Z</time></trkpt><trkpt lat="45.48082774712994" lon="10.989223908677006"><ele>134.0</ele><time>2026-04-18T08:46:43Z</time></trkpt><trkpt lat="45.48079044902095" lon="10.989130109255452"><ele>133.4</ele><time>2026-04-18T08:46:45Z</time></trkpt><trkpt lat="45.480719974980026" lon="10.989055454817414"><ele>132.8</ele><time>2026-04-18T08:46:47Z</time></trkpt><trkpt lat="45.480613681068654" lon="10.988987747583092"><ele>132.2</ele><time>2026-04-18T08:46:49Z</time></trkpt><trkpt lat="45.48052671338654" lon="10.988972271874289"><ele>131.6</ele><time>2026-04-18T08:46:50Z</time></trkpt><trkpt lat="45.48044128443015" lon="10.988911695853256"><ele>131.0</ele><time>2026-04-18T08:46:51Z</time></trkpt><trkpt lat="45.480351857665575" lon="10.98888848390797"><ele>131.0</ele><time>2026-04-18T08:46:52Z</time></trkpt><trkpt lat="45.480276555383426" lon="10.988831232086802"><ele>131.0</ele><time>2026-04-18T08:46:53Z</time></trkpt><trkpt lat="45.48020256089851" lon="10.988802976469298"><ele>131.0</ele><time>2026-04-18T08:46:54Z</time></trkpt><trkpt lat="45.48012723127236" lon="10.988761135709563"><ele>131.0</ele><time>2026-04-18T08:46:55Z</time></trkpt><trkpt lat="45.48004536666293" lon="10.988720229239217"><ele>131.0</ele><time>2026-04-18T08:46:56Z</time></trkpt><trkpt lat="45.47995796331444" lon="10.988681394451888"><ele>131.0</ele><time>2026-04-18T08:46:57Z</time></trkpt><trkpt lat="45.479864038131076" lon="10.988640313365748"><ele>131.0</ele><time>2026-04-18T08:46:58Z</time></trkpt><trkpt lat="45.479779389489906" lon="10.988592044393922"><ele>131.0</ele><time>2026-04-18T08:46:59Z</time></trkpt><trkpt lat="45.479694933912086" lon="10.98852014620767"><ele>131.0</ele><time>2026-04-18T08:47:00Z</time></trkpt><trkpt lat="45.479609354109094" lon="10.98847514313595"><ele>131.0</ele><time>2026-04-18T08:47:01Z</time></trkpt><trkpt lat="45.479519382880184" lon="10.98840510789207"><ele>131.0</ele><time>2026-04-18T08:47:02Z</time></trkpt><trkpt lat="45.47943347682472" lon="10.988330153296426"><ele>131.0</ele><time>2026-04-18T08:47:03Z</time></trkpt><trkpt lat="45.47933677559813" lon="10.988247693963784"><ele>131.0</ele><time>2026-04-18T08:47:04Z</time></trkpt><trkpt lat="45.47922777597602" lon="10.988162174214223"><ele>131.0</ele><time>2026-04-18T08:47:05Z</time></trkpt><trkpt lat="45.47911855729407" lon="10.988076094737306"><ele>131.0</ele><time>2026-04-18T08:47:06Z</time></trkpt><trkpt lat="45.47901193387806" lon="10.987982991383642"><ele>131.0</ele><time>2026-04-18T08:47:07Z</time></trkpt><trkpt lat="45.47891500321016" lon="10.987860857170393"><ele>131.0</ele><time>2026-04-18T08:47:08Z</time></trkpt><trkpt lat="45.478794976442686" lon="10.987730579178129"><ele>131.0</ele><time>2026-04-18T08:47:09Z</time></trkpt><trkpt lat="45.47869523925692" lon="10.987601617816251"><ele>131.0</ele><time>2026-04-18T08:47:10Z</time></trkpt><trkpt lat="45.47861546222545" lon="10.98751597473751"><ele>131.4</ele><time>2026-04-18T08:47:11Z</time></trkpt><trkpt lat="45.47854036434297" lon="10.987469415136298"><ele>131.8</ele><time>2026-04-18T08:47:12Z</time></trkpt><trkpt lat="45.47847161851494" lon="10.987401695675993"><ele>132.20000000000002</ele><time>2026-04-18T08:47:13Z</time></trkpt><trkpt lat="45.478373633091635" lon="10.98733492697155"><ele>132.6</ele><time>2026-04-18T08:47:14Z</time></trkpt><trkpt lat="45.47823567506879" lon="10.98725815816913"><ele>133.0</ele><time>2026-04-18T08:47:15Z</time></trkpt><trkpt lat="45.478071257666684" lon="10.987159934880548"><ele>129.66666666666669</ele><time>2026-04-18T08:47:16Z</time></trkpt><trkpt lat="45.47790295913766" lon="10.987090439842914"><ele>126.33333333333334</ele><time>2026-04-18T08:47:17Z</time></trkpt><trkpt lat="45.477747749575734" lon="10.98704855607115"><ele>123.0</ele><time>2026-04-18T08:47:18Z</time></trkpt><trkpt lat="45.47760743919034" lon="10.987026583472941"><ele>123.0</ele><time>2026-04-18T08:47:19Z</time></trkpt><trkpt lat="45.47747668734893" lon="10.986990399227865"><ele>123.0</ele><time>2026-04-18T08:47:20Z</time></trkpt><trkpt lat="45.47733546131226" lon="10.987004039951257"><ele>123.0</ele><time>2026-04-18T08:47:21Z</time></trkpt><trkpt lat="45.47718261023669" lon="10.987008824299181"><ele>123.0</ele><time>2026-04-18T08:47:22Z</time></trkpt><trkpt lat="45.477028550221945" lon="10.987002012218305"><ele>122.0</ele><time>2026-04-18T08:47:23Z</time></trkpt><trkpt lat="45.476889373789476" lon="10.987015091308436"><ele>121.0</ele><time>2026-04-18T08:47:24Z</time></trkpt><trkpt lat="45.47676477945266" lon="10.9870335837494"><ele>120.0</ele><time>2026-04-18T08:47:25Z</time></trkpt><trkpt lat="45.47667662115497" lon="10.987052526378292"><ele>119.0</ele><time>2026-04-18T08:47:26Z</time></trkpt><trkpt lat="45.47658052141331" lon="10.98708569146742"><ele>119.0</ele><time>2026-04-18T08:47:27.998Z</time></trkpt><trkpt lat="45.47666263524525" lon="10.986994394557454"><ele>119.0</ele><time>2026-04-18T08:47:32.999Z</time></trkpt><trkpt lat="45.47673218959784" lon="10.986957431262047"><ele>119.0</ele><time>2026-04-18T08:47:33.999Z</time></trkpt><trkpt lat="45.476806851096136" lon="10.986910055853134"><ele>119.0</ele><time>2026-04-18T08:47:34.999Z</time></trkpt><trkpt lat="45.47687597039914" lon="10.986864491896958"><ele>119.0</ele><time>2026-04-18T08:47:35.999Z</time></trkpt><trkpt lat="45.47700229600015" lon="10.986796045611339"><ele>119.80000000000001</ele><time>2026-04-18T08:47:37.999Z</time></trkpt><trkpt lat="45.47711582274065" lon="10.986742715588122"><ele>120.60000000000001</ele><time>2026-04-18T08:47:39.999Z</time></trkpt><trkpt lat="45.47722732588381" lon="10.986653907530409"><ele>121.4</ele><time>2026-04-18T08:47:41.999Z</time></trkpt><trkpt lat="45.47728418420213" lon="10.986603202644208"><ele>122.2</ele><time>2026-04-18T08:47:42.999Z</time></trkpt><trkpt lat="45.47733982009677" lon="10.986540668803618"><ele>123.0</ele><time>2026-04-18T08:47:43.999Z</time></trkpt><trkpt lat="45.477413129697865" lon="10.986465111797635"><ele>125.66666666666667</ele><time>2026-04-18T08:47:45.999Z</time></trkpt><trkpt lat="45.47737132923271" lon="10.986369731265825"><ele>128.33333333333334</ele><time>2026-04-18T08:47:50.999Z</time></trkpt><trkpt lat="45.477281496855646" lon="10.986351727247765"><ele>131.0</ele><time>2026-04-18T08:47:52.999Z</time></trkpt><trkpt lat="45.477169800051875" lon="10.986344255167545"><ele>133.66666666666669</ele><time>2026-04-18T08:47:54.999Z</time></trkpt><trkpt lat="45.477083135610016" lon="10.98631368448136"><ele>136.33333333333334</ele><time>2026-04-18T08:47:56.999Z</time></trkpt><trkpt lat="45.47701640696529" lon="10.986304310785215"><ele>139.0</ele><time>2026-04-18T08:47:59.999Z</time></trkpt><trkpt lat="45.47694259472919" lon="10.986276987943377"><ele>139.0</ele><time>2026-04-18T08:48:01.999Z</time></trkpt><trkpt lat="45.47683944939108" lon="10.986233557215163"><ele>139.0</ele><time>2026-04-18T08:48:03.999Z</time></trkpt><trkpt lat="45.47675979670436" lon="10.986208159410102"><ele>139.0</ele><time>2026-04-18T08:48:05.999Z</time></trkpt><trkpt lat="45.47663745073842" lon="10.98616088484284"><ele>139.0</ele><time>2026-04-18T08:48:08.999Z</time></trkpt><trkpt lat="45.47654958165628" lon="10.986126475392096"><ele>139.0</ele><time>2026-04-18T08:48:10.999Z</time></trkpt><trkpt lat="45.47659334575635" lon="10.986025706336589"><ele>139.0</ele><time>2026-04-18T08:48:13.999Z</time></trkpt><trkpt lat="45.47666849314212" lon="10.986013361417562"><ele>139.0</ele><time>2026-04-18T08:48:15.999Z</time></trkpt><trkpt lat="45.47674645306594" lon="10.985978853671298"><ele>139.0</ele><time>2026-04-18T08:48:17.999Z</time></trkpt><trkpt lat="45.47683882802602" lon="10.985943208567601"><ele>139.0</ele><time>2026-04-18T08:48:20.999Z</time></trkpt><trkpt lat="45.47690229575694" lon="10.985930792816633"><ele>139.0</ele><time>2026-04-18T08:48:21.999Z</time></trkpt><trkpt lat="45.47697596565161" lon="10.98595452553279"><ele>139.0</ele><time>2026-04-18T08:48:23.999Z</time></trkpt><trkpt lat="45.47704095490903" lon="10.985932237564047"><ele>139.66666666666669</ele><time>2026-04-18T08:48:24.999Z</time></trkpt><trkpt lat="45.47712152053046" lon="10.985890209672805"><ele>140.33333333333334</ele><time>2026-04-18T08:48:26.999Z</time></trkpt><trkpt lat="45.47709671084327" lon="10.985804410427532"><ele>141.0</ele><time>2026-04-18T08:48:30.999Z</time></trkpt><trkpt lat="45.477019118487306" lon="10.985792677120317"><ele>141.66666666666666</ele><time>2026-04-18T08:48:32.999Z</time></trkpt><trkpt lat="45.47692369723872" lon="10.985773446418273"><ele>142.33333333333331</ele><time>2026-04-18T08:48:34.999Z</time></trkpt><trkpt lat="45.476853007106236" lon="10.98571886823893"><ele>143.0</ele><time>2026-04-18T08:48:36.999Z</time></trkpt><trkpt lat="45.47678647503505" lon="10.985693163248401"><ele>149.0</ele><time>2026-04-18T08:48:39Z</time></trkpt><trkpt lat="45.476719126960866" lon="10.985668284906605"><ele>155.0</ele><time>2026-04-18T08:48:41Z</time></trkpt><trkpt lat="45.47664896632795" lon="10.985640449953463"><ele>161.0</ele><time>2026-04-18T08:48:43Z</time></trkpt><trkpt lat="45.476570191898" lon="10.985615864668222"><ele>167.0</ele><time>2026-04-18T08:48:45Z</time></trkpt><trkpt lat="45.47650222069005" lon="10.985567162743594"><ele>173.0</ele><time>2026-04-18T08:48:48Z</time></trkpt><trkpt lat="45.47642304034492" lon="10.985518014337947"><ele>179.0</ele><time>2026-04-18T08:52:47Z</time></trkpt><trkpt lat="45.4764178013783" lon="10.985415234290086"><ele>179.0</ele><time>2026-04-18T08:53:31.001Z</time></trkpt><trkpt lat="45.47643262931984" lon="10.985296610036022"><ele>179.0</ele><time>2026-04-18T08:53:35.001Z</time></trkpt><trkpt lat="45.47658779357144" lon="10.985238803517637"><ele>179.0</ele><time>2026-04-18T08:53:46.001Z</time></trkpt><trkpt lat="45.47661146998287" lon="10.985384306492469"><ele>179.0</ele><time>2026-04-18T08:53:48.001Z</time></trkpt><trkpt lat="45.47677042486721" lon="10.985355701102657"><ele>179.0</ele><time>2026-04-18T08:53:58Z</time></trkpt><trkpt lat="45.47696383934033" lon="10.985366610797163"><ele>179.0</ele><time>2026-04-18T08:54:02Z</time></trkpt><trkpt lat="45.477068947864296" lon="10.98527985808472"><ele>179.0</ele><time>2026-04-18T08:54:04Z</time></trkpt><trkpt lat="45.47713546594983" lon="10.985259943940045"><ele>179.0</ele><time>2026-04-18T08:54:06Z</time></trkpt><trkpt lat="45.47722703677133" lon="10.985243972986725"><ele>179.0</ele><time>2026-04-18T08:54:08Z</time></trkpt><trkpt lat="45.47730725989695" lon="10.985267585762475"><ele>179.0</ele><time>2026-04-18T08:54:10Z</time></trkpt><trkpt lat="45.47738741441867" lon="10.985305382889024"><ele>179.0</ele><time>2026-04-18T08:54:12Z</time></trkpt><trkpt lat="45.477478658590115" lon="10.985345016590678"><ele>179.0</ele><time>2026-04-18T08:54:14Z</time></trkpt><trkpt lat="45.4775336530617" lon="10.985422761611737"><ele>179.0</ele><time>2026-04-18T08:54:16Z</time></trkpt><trkpt lat="45.47760451623441" lon="10.985394648591061"><ele>179.0</ele><time>2026-04-18T08:54:19Z</time></trkpt><trkpt lat="45.477711230752284" lon="10.985409831569532"><ele>179.0</ele><time>2026-04-18T08:54:21Z</time></trkpt><trkpt lat="45.47781848549967" lon="10.985463789319523"><ele>179.0</ele><time>2026-04-18T08:54:23Z</time></trkpt><trkpt lat="45.47790290460213" lon="10.985457232133474"><ele>179.0</ele><time>2026-04-18T08:54:25Z</time></trkpt><trkpt lat="45.47799896739161" lon="10.98542143623267"><ele>179.0</ele><time>2026-04-18T08:54:27Z</time></trkpt><trkpt lat="45.478071396924186" lon="10.985496531288454"><ele>179.0</ele><time>2026-04-18T08:54:29Z</time></trkpt><trkpt lat="45.47817554028572" lon="10.985508508681145"><ele>182.0</ele><time>2026-04-18T08:54:31Z</time></trkpt><trkpt lat="45.47826316607028" lon="10.98549061319271"><ele>185.0</ele><time>2026-04-18T08:54:33Z</time></trkpt><trkpt lat="45.47834857165195" lon="10.985475565457877"><ele>188.0</ele><time>2026-04-18T08:54:35Z</time></trkpt><trkpt lat="45.478444842651726" lon="10.985473691257264"><ele>191.0</ele><time>2026-04-18T08:54:38Z</time></trkpt><trkpt lat="45.47852878997701" lon="10.985470417241771"><ele>194.00000000000003</ele><time>2026-04-18T08:54:40Z</time></trkpt><trkpt lat="45.47860686828266" lon="10.985485538708728"><ele>197.0</ele><time>2026-04-18T08:54:42Z</time></trkpt><trkpt lat="45.478679305972946" lon="10.985504061012689"><ele>197.00000000000003</ele><time>2026-04-18T08:54:43Z</time></trkpt><trkpt lat="45.47874091512132" lon="10.985540342010092"><ele>197.0</ele><time>2026-04-18T08:54:45Z</time></trkpt><trkpt lat="45.47882101785661" lon="10.985558225245956"><ele>197.0</ele><time>2026-04-18T08:54:52.001Z</time></trkpt><trkpt lat="45.47889482787147" lon="10.985576529124602"><ele>197.0</ele><time>2026-04-18T08:54:54.001Z</time></trkpt><trkpt lat="45.478985830146286" lon="10.985596923901202"><ele>197.00000000000003</ele><time>2026-04-18T08:54:58.001Z</time></trkpt><trkpt lat="45.479069020413824" lon="10.985636614481383"><ele>197.0</ele><time>2026-04-18T08:55:01.001Z</time></trkpt><trkpt lat="45.479154212123966" lon="10.9856551801452"><ele>198.33333333333334</ele><time>2026-04-18T08:55:03.001Z</time></trkpt><trkpt lat="45.47925819669072" lon="10.985683946191031"><ele>199.66666666666669</ele><time>2026-04-18T08:55:05.001Z</time></trkpt><trkpt lat="45.47932022570294" lon="10.985739697683153"><ele>201.0</ele><time>2026-04-18T08:55:07.001Z</time></trkpt><trkpt lat="45.47940035086768" lon="10.985765106679569"><ele>202.33333333333331</ele><time>2026-04-18T08:55:10.001Z</time></trkpt><trkpt lat="45.47947694792701" lon="10.985817709657546"><ele>203.66666666666666</ele><time>2026-04-18T08:55:14.001Z</time></trkpt><trkpt lat="45.47955263980875" lon="10.98587942801114"><ele>205.0</ele><time>2026-04-18T08:55:16.001Z</time></trkpt><trkpt lat="45.479672732402896" lon="10.98590882765241"><ele>204.99999999999997</ele><time>2026-04-18T08:55:18.001Z</time></trkpt><trkpt lat="45.47974775513033" lon="10.985922806830532"><ele>205.0</ele><time>2026-04-18T08:55:20.001Z</time></trkpt><trkpt lat="45.47980455576318" lon="10.985810416578252"><ele>205.0</ele><time>2026-04-18T08:56:18Z</time></trkpt><trkpt lat="45.479752645380316" lon="10.98586905821739"><ele>205.0</ele><time>2026-04-18T08:56:52Z</time></trkpt><trkpt lat="45.47981442411409" lon="10.985922176723928"><ele>204.99999999999997</ele><time>2026-04-18T08:57:09Z</time></trkpt><trkpt lat="45.479935343793734" lon="10.985948924470938"><ele>205.0</ele><time>2026-04-18T08:59:07Z</time></trkpt><trkpt lat="45.480002065778386" lon="10.985997160179592"><ele>204.99999999999997</ele><time>2026-04-18T08:59:09Z</time></trkpt><trkpt lat="45.48007757983538" lon="10.986046659759092"><ele>205.0</ele><time>2026-04-18T08:59:11Z</time></trkpt><trkpt lat="45.48014129665488" lon="10.986095646945463"><ele>205.0</ele><time>2026-04-18T08:59:13Z</time></trkpt><trkpt lat="45.480226314405286" lon="10.98614521152837"><ele>205.0</ele><time>2026-04-18T08:59:16Z</time></trkpt><trkpt lat="45.48031574753485" lon="10.986181984806072"><ele>204.99999999999997</ele><time>2026-04-18T08:59:24Z</time></trkpt><trkpt lat="45.48038818577183" lon="10.98621678012311"><ele>205.0</ele><time>2026-04-18T08:59:26.001Z</time></trkpt><trkpt lat="45.48051828266613" lon="10.986246912984692"><ele>209.6</ele><time>2026-04-18T08:59:30.001Z</time></trkpt><trkpt lat="45.48058681506477" lon="10.98624876535348"><ele>214.2</ele><time>2026-04-18T08:59:32.001Z</time></trkpt><trkpt lat="45.48064576529831" lon="10.986292008544925"><ele>218.8</ele><time>2026-04-18T08:59:34.001Z</time></trkpt><trkpt lat="45.48082766015845" lon="10.986291081339884"><ele>223.4</ele><time>2026-04-18T08:59:41.001Z</time></trkpt><trkpt lat="45.480897406262734" lon="10.98627057898729"><ele>228.0</ele><time>2026-04-18T08:59:43.001Z</time></trkpt><trkpt lat="45.48097057811079" lon="10.986232699428436"><ele>228.0</ele><time>2026-04-18T08:59:54.001Z</time></trkpt><trkpt lat="45.481047516224855" lon="10.986169394811068"><ele>228.0</ele><time>2026-04-18T08:59:57.001Z</time></trkpt><trkpt lat="45.48111340733596" lon="10.986111070545023"><ele>228.0</ele><time>2026-04-18T09:00:00.001Z</time></trkpt><trkpt lat="45.48120112757242" lon="10.986037809059766"><ele>228.0</ele><time>2026-04-18T09:00:03.001Z</time></trkpt><trkpt lat="45.48126797174307" lon="10.986015274777026"><ele>228.0</ele><time>2026-04-18T09:00:05Z</time></trkpt><trkpt lat="45.48132886679818" lon="10.985978671677634"><ele>228.0</ele><time>2026-04-18T09:00:11Z</time></trkpt><trkpt lat="45.481390495775365" lon="10.985939802035995"><ele>229.33333333333334</ele><time>2026-04-18T09:00:41Z</time></trkpt><trkpt lat="45.4814323310639" lon="10.985867564481412"><ele>230.66666666666669</ele><time>2026-04-18T09:00:48Z</time></trkpt><trkpt lat="45.48149409227143" lon="10.98579188761397"><ele>232.0</ele><time>2026-04-18T09:00:52Z</time></trkpt><trkpt lat="45.48144279394889" lon="10.985728929417036"><ele>233.33333333333334</ele><time>2026-04-18T09:01:47.001Z</time></trkpt><trkpt lat="45.48136968703297" lon="10.985706872816866"><ele>234.66666666666669</ele><time>2026-04-18T09:01:50.001Z</time></trkpt><trkpt lat="45.48127138253992" lon="10.985628273688505"><ele>236.0</ele><time>2026-04-18T09:02:11.999Z</time></trkpt><trkpt lat="45.481183784124525" lon="10.985589721543473"><ele>239.28571428571428</ele><time>2026-04-18T09:02:15.999Z</time></trkpt><trkpt lat="45.48112690014055" lon="10.985530151700782"><ele>242.57142857142858</ele><time>2026-04-18T09:02:17.999Z</time></trkpt><trkpt lat="45.48105772367045" lon="10.985489481449799"><ele>245.85714285714286</ele><time>2026-04-18T09:02:22.999Z</time></trkpt><trkpt lat="45.48100087615738" lon="10.985447715942302"><ele>249.14285714285714</ele><time>2026-04-18T09:02:25.999Z</time></trkpt><trkpt lat="45.48093005137751" lon="10.98541048949892"><ele>252.42857142857144</ele><time>2026-04-18T09:02:46Z</time></trkpt><trkpt lat="45.48086460101852" lon="10.9853801216912"><ele>255.71428571428572</ele><time>2026-04-18T09:03:19Z</time></trkpt><trkpt lat="45.480850630041495" lon="10.985285821262666"><ele>259.0</ele><time>2026-04-18T09:03:22Z</time></trkpt><trkpt lat="45.48081499518785" lon="10.985178407215184"><ele>259.0</ele><time>2026-04-18T09:03:37.001Z</time></trkpt><trkpt lat="45.48082968175876" lon="10.985086746010898"><ele>259.0</ele><time>2026-04-18T09:05:25Z</time></trkpt><trkpt lat="45.48086704840638" lon="10.985013358288674"><ele>259.0</ele><time>2026-04-18T09:05:29Z</time></trkpt><trkpt lat="45.48086878776486" lon="10.98492090527536"><ele>259.0</ele><time>2026-04-18T09:05:35Z</time></trkpt><trkpt lat="45.480835578666905" lon="10.984825544325158"><ele>259.0</ele><time>2026-04-18T09:05:47.001Z</time></trkpt><trkpt lat="45.48084229103572" lon="10.98472774269995"><ele>259.0</ele><time>2026-04-18T09:05:56.001Z</time></trkpt><trkpt lat="45.48082719930508" lon="10.984626796509604"><ele>259.0</ele><time>2026-04-18T09:06:00.001Z</time></trkpt><trkpt lat="45.4808526847869" lon="10.984529692847802"><ele>263.0</ele><time>2026-04-18T09:06:03.001Z</time></trkpt><trkpt lat="45.480853242644095" lon="10.98442163796209"><ele>267.0</ele><time>2026-04-18T09:06:06.001Z</time></trkpt><trkpt lat="45.48084024722283" lon="10.984313331969306"><ele>271.0</ele><time>2026-04-18T09:06:09.001Z</time></trkpt><trkpt lat="45.48084564472775" lon="10.984175884722124"><ele>275.0</ele><time>2026-04-18T09:06:12.001Z</time></trkpt><trkpt lat="45.48090707456562" lon="10.984080169787308"><ele>279.0</ele><time>2026-04-18T09:20:59.001Z</time></trkpt><trkpt lat="45.48099928921912" lon="10.984014801132195"><ele>283.0</ele><time>2026-04-18T09:21:01.001Z</time></trkpt><trkpt lat="45.48106331147479" lon="10.983968788857362"><ele>286.4</ele><time>2026-04-18T09:21:02.001Z</time></trkpt><trkpt lat="45.481140090687546" lon="10.98390316441989"><ele>289.8</ele><time>2026-04-18T09:21:04Z</time></trkpt><trkpt lat="45.481235861916964" lon="10.983868581874882"><ele>293.2</ele><time>2026-04-18T09:21:06Z</time></trkpt><trkpt lat="45.481336395282625" lon="10.983820043128341"><ele>296.6</ele><time>2026-04-18T09:21:08Z</time></trkpt><trkpt lat="45.48143566277119" lon="10.983739771961806"><ele>300.0</ele><time>2026-04-18T09:21:10Z</time></trkpt><trkpt lat="45.481515794933586" lon="10.983625460386545"><ele>300.4</ele><time>2026-04-18T09:21:12Z</time></trkpt><trkpt lat="45.48157886309192" lon="10.983502554834548"><ele>300.8</ele><time>2026-04-18T09:21:14Z</time></trkpt><trkpt lat="45.48166113541575" lon="10.983408175952459"><ele>301.2</ele><time>2026-04-18T09:21:16Z</time></trkpt><trkpt lat="45.48172940724813" lon="10.98330833648379"><ele>301.6</ele><time>2026-04-18T09:21:18Z</time></trkpt><trkpt lat="45.48182778013694" lon="10.983297299237176"><ele>302.0</ele><time>2026-04-18T09:21:20Z</time></trkpt><trkpt lat="45.48188509013944" lon="10.983340657792896"><ele>302.0</ele><time>2026-04-18T09:21:21Z</time></trkpt><trkpt lat="45.482004801194" lon="10.983383001709798"><ele>302.0</ele><time>2026-04-18T09:21:23Z</time></trkpt><trkpt lat="45.48207034172513" lon="10.983402578770733"><ele>302.0</ele><time>2026-04-18T09:21:24Z</time></trkpt><trkpt lat="45.48215963945172" lon="10.983429030241485"><ele>302.0</ele><time>2026-04-18T09:21:25Z</time></trkpt><trkpt lat="45.482257539900836" lon="10.983445064695239"><ele>302.0</ele><time>2026-04-18T09:21:26Z</time></trkpt><trkpt lat="45.48235139963573" lon="10.983461210493834"><ele>301.4</ele><time>2026-04-18T09:21:27Z</time></trkpt><trkpt lat="45.482454401269365" lon="10.983483209832093"><ele>300.79999999999995</ele><time>2026-04-18T09:21:28Z</time></trkpt><trkpt lat="45.482543719757984" lon="10.983486246095774"><ele>300.2</ele><time>2026-04-18T09:21:29Z</time></trkpt><trkpt lat="45.48261239852964" lon="10.98347744019453"><ele>299.59999999999997</ele><time>2026-04-18T09:21:30Z</time></trkpt><trkpt lat="45.482685334166824" lon="10.983373211317796"><ele>299.0</ele><time>2026-04-18T09:21:32Z</time></trkpt><trkpt lat="45.48268152078989" lon="10.983245970682315"><ele>300.33333333333337</ele><time>2026-04-18T09:21:34Z</time></trkpt><trkpt lat="45.482696004390085" lon="10.983127123183639"><ele>301.6666666666667</ele><time>2026-04-18T09:21:36Z</time></trkpt><trkpt lat="45.48279945183465" lon="10.983109313773285"><ele>303.0</ele><time>2026-04-18T09:21:38Z</time></trkpt><trkpt lat="45.482866667180005" lon="10.983138232115458"><ele>304.3333333333333</ele><time>2026-04-18T09:21:39Z</time></trkpt><trkpt lat="45.48294565542659" lon="10.9831509738133"><ele>305.66666666666663</ele><time>2026-04-18T09:21:40Z</time></trkpt><trkpt lat="45.48303361147957" lon="10.983162255165853"><ele>307.0</ele><time>2026-04-18T09:21:41Z</time></trkpt><trkpt lat="45.483147172551305" lon="10.983177381311146"><ele>307.5</ele><time>2026-04-18T09:21:42Z</time></trkpt><trkpt lat="45.48328026659806" lon="10.983185510730912"><ele>308.0</ele><time>2026-04-18T09:21:43Z</time></trkpt><trkpt lat="45.48342305905426" lon="10.983207499827431"><ele>308.5</ele><time>2026-04-18T09:21:44Z</time></trkpt><trkpt lat="45.48358141780334" lon="10.983240094264415"><ele>309.0</ele><time>2026-04-18T09:21:45Z</time></trkpt><trkpt lat="45.48374325171335" lon="10.983275100080771"><ele>309.75</ele><time>2026-04-18T09:21:46Z</time></trkpt><trkpt lat="45.48387459836802" lon="10.98330394724468"><ele>310.5</ele><time>2026-04-18T09:21:47Z</time></trkpt><trkpt lat="45.48399311802989" lon="10.983326273332741"><ele>311.25</ele><time>2026-04-18T09:21:48Z</time></trkpt><trkpt lat="45.48412113301499" lon="10.983344753062168"><ele>312.0</ele><time>2026-04-18T09:21:49Z</time></trkpt><trkpt lat="45.48424300499736" lon="10.98337625878984"><ele>312.4</ele><time>2026-04-18T09:21:50Z</time></trkpt><trkpt lat="45.484355400951806" lon="10.983403996505611"><ele>312.79999999999995</ele><time>2026-04-18T09:21:51Z</time></trkpt><trkpt lat="45.484441796792574" lon="10.983428288924737"><ele>313.2</ele><time>2026-04-18T09:21:52Z</time></trkpt><trkpt lat="45.48452079296013" lon="10.983436519121971"><ele>313.59999999999997</ele><time>2026-04-18T09:21:53Z</time></trkpt><trkpt lat="45.48462634090614" lon="10.983456570510267"><ele>314.0</ele><time>2026-04-18T09:21:55Z</time></trkpt><trkpt lat="45.48472720207555" lon="10.983475217384678"><ele>314.57142857142856</ele><time>2026-04-18T09:21:57Z</time></trkpt><trkpt lat="45.48479138393172" lon="10.983482087484989"><ele>315.1428571428571</ele><time>2026-04-18T09:21:58Z</time></trkpt><trkpt lat="45.48485988834353" lon="10.983489781172603"><ele>315.71428571428567</ele><time>2026-04-18T09:21:59Z</time></trkpt><trkpt lat="45.48492349102576" lon="10.9835010127023"><ele>316.2857142857143</ele><time>2026-04-18T09:22:00Z</time></trkpt><trkpt lat="45.48498631294356" lon="10.983514098803106"><ele>316.8571428571429</ele><time>2026-04-18T09:22:01Z</time></trkpt><trkpt lat="45.48506328654047" lon="10.983520631353601"><ele>317.4285714285714</ele><time>2026-04-18T09:22:02Z</time></trkpt><trkpt lat="45.48515713870813" lon="10.983536754809785"><ele>318.0</ele><time>2026-04-18T09:22:03Z</time></trkpt><trkpt lat="45.48525897528696" lon="10.983566189732654"><ele>318.0</ele><time>2026-04-18T09:22:04Z</time></trkpt><trkpt lat="45.485359695745" lon="10.983590537143453"><ele>318.0</ele><time>2026-04-18T09:22:05Z</time></trkpt><trkpt lat="45.48545609665208" lon="10.983614682792686"><ele>318.0</ele><time>2026-04-18T09:22:06Z</time></trkpt><trkpt lat="45.485558046040616" lon="10.983636353119977"><ele>318.0</ele><time>2026-04-18T09:22:07Z</time></trkpt><trkpt lat="45.48566323320026" lon="10.983658431712742"><ele>318.0</ele><time>2026-04-18T09:22:08Z</time></trkpt><trkpt lat="45.485766981771725" lon="10.98366342333827"><ele>317.6</ele><time>2026-04-18T09:22:09Z</time></trkpt><trkpt lat="45.4858630407138" lon="10.983663273941442"><ele>317.20000000000005</ele><time>2026-04-18T09:22:10Z</time></trkpt><trkpt lat="45.485961808756045" lon="10.983658663781746"><ele>316.8</ele><time>2026-04-18T09:22:11Z</time></trkpt><trkpt lat="45.48605230915906" lon="10.983665438980998"><ele>316.40000000000003</ele><time>2026-04-18T09:22:12Z</time></trkpt><trkpt lat="45.486133495269954" lon="10.983691785426348"><ele>316.0</ele><time>2026-04-18T09:22:13Z</time></trkpt><trkpt lat="45.48619994570087" lon="10.983757926992674"><ele>316.0</ele><time>2026-04-18T09:22:14Z</time></trkpt><trkpt lat="45.48624002172883" lon="10.983880766825914"><ele>316.0</ele><time>2026-04-18T09:22:15Z</time></trkpt><trkpt lat="45.48629352801428" lon="10.983946794873079"><ele>316.0</ele><time>2026-04-18T09:22:16Z</time></trkpt><trkpt lat="45.48638512427965" lon="10.983937426169312"><ele>316.0</ele><time>2026-04-18T09:22:17Z</time></trkpt><trkpt lat="45.486470114222556" lon="10.983928142231568"><ele>316.0</ele><time>2026-04-18T09:22:18Z</time></trkpt><trkpt lat="45.486562241220305" lon="10.983921868776793"><ele>316.0</ele><time>2026-04-18T09:22:19Z</time></trkpt><trkpt lat="45.48667376547009" lon="10.983923126703319"><ele>317.4</ele><time>2026-04-18T09:22:20Z</time></trkpt><trkpt lat="45.486777964169114" lon="10.983925516289634"><ele>318.8</ele><time>2026-04-18T09:22:21Z</time></trkpt><trkpt lat="45.48688968489468" lon="10.983930070341483"><ele>320.2</ele><time>2026-04-18T09:22:22Z</time></trkpt><trkpt lat="45.48699156122076" lon="10.983936200224468"><ele>321.59999999999997</ele><time>2026-04-18T09:22:23Z</time></trkpt><trkpt lat="45.487086244360846" lon="10.983951685458619"><ele>323.0</ele><time>2026-04-18T09:22:24Z</time></trkpt><trkpt lat="45.48716852142159" lon="10.983964682057916"><ele>325.2</ele><time>2026-04-18T09:22:25Z</time></trkpt><trkpt lat="45.48724991558487" lon="10.983941313873638"><ele>327.4</ele><time>2026-04-18T09:22:26Z</time></trkpt><trkpt lat="45.48733849102298" lon="10.983876871047297"><ele>329.59999999999997</ele><time>2026-04-18T09:22:27Z</time></trkpt><trkpt lat="45.487432386693825" lon="10.98381843626391"><ele>331.79999999999995</ele><time>2026-04-18T09:22:28Z</time></trkpt><trkpt lat="45.4875235706139" lon="10.983807019960622"><ele>334.0</ele><time>2026-04-18T09:22:29Z</time></trkpt><trkpt lat="45.48762330467057" lon="10.98384888964927"><ele>334.0</ele><time>2026-04-18T09:22:30Z</time></trkpt><trkpt lat="45.48773612446407" lon="10.983865102368183"><ele>334.0</ele><time>2026-04-18T09:22:31Z</time></trkpt><trkpt lat="45.48785032114694" lon="10.983916925457887"><ele>334.0</ele><time>2026-04-18T09:22:32Z</time></trkpt><trkpt lat="45.4879661811647" lon="10.983959094219193"><ele>334.0</ele><time>2026-04-18T09:22:33Z</time></trkpt><trkpt lat="45.48809119275861" lon="10.983983876687741"><ele>333.5</ele><time>2026-04-18T09:22:34Z</time></trkpt><trkpt lat="45.48822424375275" lon="10.983978264735669"><ele>333.0</ele><time>2026-04-18T09:22:35Z</time></trkpt><trkpt lat="45.48836428213663" lon="10.983993222975387"><ele>332.5</ele><time>2026-04-18T09:22:36Z</time></trkpt><trkpt lat="45.48850950696142" lon="10.98399089937488"><ele>332.0</ele><time>2026-04-18T09:22:37Z</time></trkpt><trkpt lat="45.48864300616957" lon="10.983983292054951"><ele>332.0</ele><time>2026-04-18T09:22:38Z</time></trkpt><trkpt lat="45.48876512217184" lon="10.984003181128001"><ele>332.0</ele><time>2026-04-18T09:22:39Z</time></trkpt><trkpt lat="45.48888785850972" lon="10.983988615449876"><ele>332.0</ele><time>2026-04-18T09:22:40Z</time></trkpt><trkpt lat="45.48900672985353" lon="10.983969596355331"><ele>332.0</ele><time>2026-04-18T09:22:41Z</time></trkpt><trkpt lat="45.489108226419646" lon="10.983941758798931"><ele>332.0</ele><time>2026-04-18T09:22:42Z</time></trkpt><trkpt lat="45.48921377850611" lon="10.983910852095374"><ele>332.0</ele><time>2026-04-18T09:22:43Z</time></trkpt><trkpt lat="45.48932383869355" lon="10.983841266224996"><ele>332.0</ele><time>2026-04-18T09:22:44Z</time></trkpt><trkpt lat="45.48945082340953" lon="10.983771131157411"><ele>332.0</ele><time>2026-04-18T09:22:45Z</time></trkpt><trkpt lat="45.48959684267034" lon="10.98369716518684"><ele>329.75</ele><time>2026-04-18T09:22:46Z</time></trkpt><trkpt lat="45.48974500587324" lon="10.983632247209393"><ele>327.5</ele><time>2026-04-18T09:22:47Z</time></trkpt><trkpt lat="45.48986157572584" lon="10.983576993535571"><ele>325.25</ele><time>2026-04-18T09:22:48Z</time></trkpt><trkpt lat="45.48999334001175" lon="10.983504239670722"><ele>323.0</ele><time>2026-04-18T09:22:49Z</time></trkpt><trkpt lat="45.49012981869827" lon="10.983447723608137"><ele>323.0</ele><time>2026-04-18T09:22:50Z</time></trkpt><trkpt lat="45.49025328421612" lon="10.983403925324536"><ele>323.0</ele><time>2026-04-18T09:22:51Z</time></trkpt><trkpt lat="45.49035836499356" lon="10.983350781337425"><ele>323.0</ele><time>2026-04-18T09:22:52Z</time></trkpt><trkpt lat="45.49046402394345" lon="10.983297875698272"><ele>323.0</ele><time>2026-04-18T09:22:53Z</time></trkpt><trkpt lat="45.490553029224294" lon="10.983243148828079"><ele>323.0</ele><time>2026-04-18T09:22:54Z</time></trkpt><trkpt lat="45.49063422942408" lon="10.983194077406697"><ele>323.5</ele><time>2026-04-18T09:22:55Z</time></trkpt><trkpt lat="45.49069471642296" lon="10.983158299971091"><ele>324.0</ele><time>2026-04-18T09:22:56Z</time></trkpt><trkpt lat="45.49076628646837" lon="10.983133212923443"><ele>324.5</ele><time>2026-04-18T09:22:57Z</time></trkpt><trkpt lat="45.49085272285552" lon="10.983089842606201"><ele>325.0</ele><time>2026-04-18T09:22:58Z</time></trkpt><trkpt lat="45.49093395565026" lon="10.983063980249177"><ele>325.5</ele><time>2026-04-18T09:22:59Z</time></trkpt><trkpt lat="45.49102105124722" lon="10.983033948598218"><ele>326.0</ele><time>2026-04-18T09:23:00Z</time></trkpt><trkpt lat="45.49112760989145" lon="10.98301327576553"><ele>326.0</ele><time>2026-04-18T09:23:02Z</time></trkpt><trkpt lat="45.49119823683971" lon="10.983030764126886"><ele>326.0</ele><time>2026-04-18T09:23:04Z</time></trkpt><trkpt lat="45.49127967267279" lon="10.983037187602614"><ele>326.0</ele><time>2026-04-18T09:23:07Z</time></trkpt><trkpt lat="45.49125698963406" lon="10.982773075128952"><ele>326.0</ele><time>2026-04-18T09:23:13.998Z</time></trkpt><trkpt lat="45.4913375965235" lon="10.982721153828082"><ele>326.0</ele><time>2026-04-18T09:23:15.998Z</time></trkpt><trkpt lat="45.49140076714017" lon="10.98272498268682"><ele>326.1666666666667</ele><time>2026-04-18T09:23:16.998Z</time></trkpt><trkpt lat="45.49147103875664" lon="10.982736583773134"><ele>326.33333333333337</ele><time>2026-04-18T09:23:17.998Z</time></trkpt><trkpt lat="45.49153975567281" lon="10.982739758622786"><ele>326.5</ele><time>2026-04-18T09:23:19.998Z</time></trkpt><trkpt lat="45.49162990641325" lon="10.982726022629391"><ele>326.6666666666667</ele><time>2026-04-18T09:23:21.998Z</time></trkpt><trkpt lat="45.491735970900464" lon="10.982781563371892"><ele>326.8333333333333</ele><time>2026-04-18T09:23:23.998Z</time></trkpt><trkpt lat="45.49180868320427" lon="10.982763462926563"><ele>327.0</ele><time>2026-04-18T09:23:25.998Z</time></trkpt><trkpt lat="45.491883388401625" lon="10.98273567693098"><ele>327.0</ele><time>2026-04-18T09:23:28.999Z</time></trkpt><trkpt lat="45.49195979857289" lon="10.982723528773182"><ele>327.0</ele><time>2026-04-18T09:23:30.999Z</time></trkpt><trkpt lat="45.4920370870196" lon="10.982750064942234"><ele>327.0</ele><time>2026-04-18T09:23:32.999Z</time></trkpt><trkpt lat="45.4921198291222" lon="10.98275496476975"><ele>327.0</ele><time>2026-04-18T09:23:34.999Z</time></trkpt><trkpt lat="45.4921978235477" lon="10.98275162867643"><ele>327.0</ele><time>2026-04-18T09:23:36.999Z</time></trkpt><trkpt lat="45.49226934768075" lon="10.982724215988352"><ele>327.0</ele><time>2026-04-18T09:23:38.999Z</time></trkpt><trkpt lat="45.49234760734519" lon="10.982730925698696"><ele>328.6666666666667</ele><time>2026-04-18T09:23:40.999Z</time></trkpt><trkpt lat="45.492411438312274" lon="10.982777187981458"><ele>330.3333333333333</ele><time>2026-04-18T09:23:42.999Z</time></trkpt><trkpt lat="45.49248234440344" lon="10.982798044849424"><ele>332.0</ele><time>2026-04-18T09:23:44.999Z</time></trkpt><trkpt lat="45.49256585078216" lon="10.982836614802206"><ele>333.66666666666663</ele><time>2026-04-18T09:23:46.999Z</time></trkpt><trkpt lat="45.492644914019344" lon="10.98286365235062"><ele>335.3333333333333</ele><time>2026-04-18T09:23:48.999Z</time></trkpt><trkpt lat="45.4927260232993" lon="10.98289733466374"><ele>337.0</ele><time>2026-04-18T09:23:51.999Z</time></trkpt><trkpt lat="45.492792197214534" lon="10.982934891958484"><ele>337.0</ele><time>2026-04-18T09:23:53.999Z</time></trkpt><trkpt lat="45.492908426382144" lon="10.982944695625408"><ele>337.0</ele><time>2026-04-18T09:23:55.999Z</time></trkpt><trkpt lat="45.49297149673535" lon="10.982954317030048"><ele>337.0</ele><time>2026-04-18T09:23:57.999Z</time></trkpt><trkpt lat="45.49305859459389" lon="10.982868970086788"><ele>337.0</ele><time>2026-04-18T09:24:00.999Z</time></trkpt><trkpt lat="45.49314453198812" lon="10.982862939209138"><ele>337.0</ele><time>2026-04-18T09:24:02.999Z</time></trkpt><trkpt lat="45.49325003959511" lon="10.982856468783684"><ele>337.66666666666663</ele><time>2026-04-18T09:24:04.999Z</time></trkpt><trkpt lat="45.49332227312207" lon="10.982826649662503"><ele>338.3333333333333</ele><time>2026-04-18T09:24:07Z</time></trkpt><trkpt lat="45.49337937351356" lon="10.982766495815305"><ele>339.0</ele><time>2026-04-18T09:24:09Z</time></trkpt><trkpt lat="45.49344788091791" lon="10.982746735384227"><ele>339.6666666666667</ele><time>2026-04-18T09:24:11Z</time></trkpt><trkpt lat="45.493552748125076" lon="10.982727084991058"><ele>340.33333333333337</ele><time>2026-04-18T09:24:14Z</time></trkpt><trkpt lat="45.493659980671566" lon="10.982705420501068"><ele>341.0</ele><time>2026-04-18T09:24:16Z</time></trkpt><trkpt lat="45.493761256349686" lon="10.98273039595182"><ele>341.0</ele><time>2026-04-18T09:24:18Z</time></trkpt><trkpt lat="45.49385080696515" lon="10.982726060097555"><ele>341.0</ele><time>2026-04-18T09:24:20Z</time></trkpt><trkpt lat="45.493922135512925" lon="10.98272740016165"><ele>341.0</ele><time>2026-04-18T09:24:22Z</time></trkpt><trkpt lat="45.49398681643225" lon="10.982749756923463"><ele>341.0</ele><time>2026-04-18T09:24:24Z</time></trkpt><trkpt lat="45.494080560602434" lon="10.982686586034268"><ele>341.0</ele><time>2026-04-18T09:24:28Z</time></trkpt><trkpt lat="45.4941518935369" lon="10.982646429873018"><ele>341.0</ele><time>2026-04-18T09:24:30Z</time></trkpt><trkpt lat="45.49419350453376" lon="10.982550134201132"><ele>341.0</ele><time>2026-04-18T09:24:32Z</time></trkpt><trkpt lat="45.494275067779064" lon="10.982517988875404"><ele>341.0</ele><time>2026-04-18T09:24:38Z</time></trkpt><trkpt lat="45.49433999468565" lon="10.982587659457925"><ele>341.0</ele><time>2026-04-18T09:24:40Z</time></trkpt><trkpt lat="45.49441818717237" lon="10.982550119720065"><ele>341.0</ele><time>2026-04-18T09:24:44Z</time></trkpt><trkpt lat="45.49446088882137" lon="10.9824665946072"><ele>341.0</ele><time>2026-04-18T09:24:46Z</time></trkpt><trkpt lat="45.49454861950793" lon="10.982483003189385"><ele>341.0</ele><time>2026-04-18T09:24:49Z</time></trkpt><trkpt lat="45.49464676789545" lon="10.98240729287609"><ele>342.1666666666667</ele><time>2026-04-18T09:24:52Z</time></trkpt><trkpt lat="45.494748931889546" lon="10.982398448880737"><ele>343.33333333333337</ele><time>2026-04-18T09:24:54Z</time></trkpt><trkpt lat="45.494851321099844" lon="10.982396443688602"><ele>344.5</ele><time>2026-04-18T09:24:56Z</time></trkpt><trkpt lat="45.49495127203298" lon="10.982348075447835"><ele>345.6666666666667</ele><time>2026-04-18T09:24:58Z</time></trkpt><trkpt lat="45.49501694658427" lon="10.982317303083953"><ele>346.8333333333333</ele><time>2026-04-18T09:24:59Z</time></trkpt><trkpt lat="45.49508094768073" lon="10.98229630857073"><ele>348.0</ele><time>2026-04-18T09:25:00Z</time></trkpt><trkpt lat="45.49517868310155" lon="10.982250587167893"><ele>348.0</ele><time>2026-04-18T09:25:02Z</time></trkpt><trkpt lat="45.49524926682326" lon="10.982258028389413"><ele>348.0</ele><time>2026-04-18T09:25:03Z</time></trkpt><trkpt lat="45.49531854228092" lon="10.982258304724224"><ele>348.0</ele><time>2026-04-18T09:25:04Z</time></trkpt><trkpt lat="45.49538038947907" lon="10.98223915564047"><ele>348.0</ele><time>2026-04-18T09:25:05Z</time></trkpt><trkpt lat="45.49547792799751" lon="10.982242919386994"><ele>348.0</ele><time>2026-04-18T09:25:07Z</time></trkpt><trkpt lat="45.495581791048835" lon="10.982303937520335"><ele>348.0</ele><time>2026-04-18T09:25:09Z</time></trkpt><trkpt lat="45.49567717189972" lon="10.982263604159659"><ele>346.8333333333333</ele><time>2026-04-18T09:25:11Z</time></trkpt><trkpt lat="45.49574382292532" lon="10.982237271475332"><ele>345.6666666666667</ele><time>2026-04-18T09:25:12Z</time></trkpt><trkpt lat="45.495837173583425" lon="10.982218279109533"><ele>344.5</ele><time>2026-04-18T09:25:13Z</time></trkpt><trkpt lat="45.495924578288324" lon="10.982186035305373"><ele>343.33333333333337</ele><time>2026-04-18T09:25:14Z</time></trkpt><trkpt lat="45.496010831556255" lon="10.9821591697667"><ele>342.1666666666667</ele><time>2026-04-18T09:25:15Z</time></trkpt><trkpt lat="45.4960948277415" lon="10.982129822886158"><ele>341.0</ele><time>2026-04-18T09:25:15.997Z</time></trkpt><trkpt lat="45.49623689713135" lon="10.982423434299173"><ele>338.5</ele><time>2026-04-18T09:25:16.997Z</time></trkpt><trkpt lat="45.4962989399152" lon="10.982392046298386"><ele>336.0</ele><time>2026-04-18T09:25:17.997Z</time></trkpt><trkpt lat="45.49640741421514" lon="10.98233716814229"><ele>333.5</ele><time>2026-04-18T09:25:19.997Z</time></trkpt><trkpt lat="45.49648504825438" lon="10.982294000144579"><ele>331.0</ele><time>2026-04-18T09:25:20.997Z</time></trkpt><trkpt lat="45.49656525075424" lon="10.982234079207627"><ele>328.5</ele><time>2026-04-18T09:25:21.997Z</time></trkpt><trkpt lat="45.49663456385152" lon="10.98217149036997"><ele>326.0</ele><time>2026-04-18T09:25:22.997Z</time></trkpt><trkpt lat="45.49668791307109" lon="10.982123324788176"><ele>326.0</ele><time>2026-04-18T09:25:23.998Z</time></trkpt><trkpt lat="45.49677977043842" lon="10.982030781903745"><ele>326.0</ele><time>2026-04-18T09:25:25.998Z</time></trkpt><trkpt lat="45.49685769521515" lon="10.981970573810562"><ele>326.0</ele><time>2026-04-18T09:25:27.998Z</time></trkpt><trkpt lat="45.49692612561586" lon="10.981930127426239"><ele>326.0</ele><time>2026-04-18T09:25:29.998Z</time></trkpt><trkpt lat="45.497002321256836" lon="10.981880409120624"><ele>326.0</ele><time>2026-04-18T09:25:32.998Z</time></trkpt><trkpt lat="45.49709035707928" lon="10.981857338960697"><ele>326.0</ele><time>2026-04-18T09:25:34.998Z</time></trkpt><trkpt lat="45.49718171499583" lon="10.981810861518202"><ele>325.33333333333337</ele><time>2026-04-18T09:25:36.998Z</time></trkpt><trkpt lat="45.49728303986863" lon="10.98177048478327"><ele>324.6666666666667</ele><time>2026-04-18T09:25:38.998Z</time></trkpt><trkpt lat="45.4973970144166" lon="10.981728998115083"><ele>324.0</ele><time>2026-04-18T09:25:40.999Z</time></trkpt><trkpt lat="45.49746474028076" lon="10.981705993889683"><ele>323.3333333333333</ele><time>2026-04-18T09:25:41.999Z</time></trkpt><trkpt lat="45.49753157937849" lon="10.98168234673286"><ele>322.66666666666663</ele><time>2026-04-18T09:25:42.999Z</time></trkpt><trkpt lat="45.497597881779335" lon="10.981651870001926"><ele>322.0</ele><time>2026-04-18T09:25:43.999Z</time></trkpt><trkpt lat="45.497666743334705" lon="10.98164343606838"><ele>324.20000000000005</ele><time>2026-04-18T09:25:44.999Z</time></trkpt><trkpt lat="45.49775514133064" lon="10.981568145403992"><ele>326.4</ele><time>2026-04-18T09:25:46.999Z</time></trkpt><trkpt lat="45.49785410726499" lon="10.981550066149019"><ele>328.6</ele><time>2026-04-18T09:25:48.999Z</time></trkpt><trkpt lat="45.498003393558385" lon="10.981572570090709"><ele>330.79999999999995</ele><time>2026-04-18T09:25:50.999Z</time></trkpt><trkpt lat="45.49808623217647" lon="10.98160130225994"><ele>333.0</ele><time>2026-04-18T09:25:51.999Z</time></trkpt><trkpt lat="45.49819072234426" lon="10.981635446009832"><ele>333.6666666666667</ele><time>2026-04-18T09:25:52.999Z</time></trkpt><trkpt lat="45.49827830481495" lon="10.98165906367192"><ele>334.3333333333333</ele><time>2026-04-18T09:25:53.999Z</time></trkpt><trkpt lat="45.49835751632066" lon="10.98167746319275"><ele>335.0</ele><time>2026-04-18T09:25:54.999Z</time></trkpt><trkpt lat="45.49842880862578" lon="10.98169538986268"><ele>335.66666666666663</ele><time>2026-04-18T09:25:55.999Z</time></trkpt><trkpt lat="45.49849434375791" lon="10.981712223115638"><ele>336.3333333333333</ele><time>2026-04-18T09:25:56.999Z</time></trkpt><trkpt lat="45.49862198510836" lon="10.981673363769843"><ele>337.0</ele><time>2026-04-18T09:25:57.999Z</time></trkpt><trkpt lat="45.49869563544732" lon="10.981636990210891"><ele>335.75</ele><time>2026-04-18T09:25:58.999Z</time></trkpt><trkpt lat="45.498755074489374" lon="10.981601677613776"><ele>334.5</ele><time>2026-04-18T09:25:59.999Z</time></trkpt><trkpt lat="45.498834508913035" lon="10.981540212181011"><ele>333.25</ele><time>2026-04-18T09:26:01.999Z</time></trkpt><trkpt lat="45.49888573412307" lon="10.981485685051782"><ele>332.0</ele><time>2026-04-18T09:26:06.999Z</time></trkpt><trkpt lat="45.49911421815284" lon="10.981698768750645"><ele>330.8</ele><time>2026-04-18T09:26:17Z</time></trkpt><trkpt lat="45.499114292193404" lon="10.981818287781884"><ele>329.6</ele><time>2026-04-18T09:26:19Z</time></trkpt><trkpt lat="45.499174766127624" lon="10.981885723266481"><ele>328.40000000000003</ele><time>2026-04-18T09:26:22Z</time></trkpt><trkpt lat="45.49924165803722" lon="10.98196298039971"><ele>327.20000000000005</ele><time>2026-04-18T09:26:25Z</time></trkpt><trkpt lat="45.49936767974248" lon="10.982087926167472"><ele>326.0</ele><time>2026-04-18T09:26:27Z</time></trkpt><trkpt lat="45.49944679766796" lon="10.982188835032801"><ele>326.0</ele><time>2026-04-18T09:26:29Z</time></trkpt><trkpt lat="45.499518581873104" lon="10.98219618239939"><ele>326.0</ele><time>2026-04-18T09:26:38Z</time></trkpt><trkpt lat="45.49957681383737" lon="10.982247571067479"><ele>326.0</ele><time>2026-04-18T09:27:10.001Z</time></trkpt><trkpt lat="45.49963752699994" lon="10.982320879026956"><ele>326.0</ele><time>2026-04-18T09:27:13.001Z</time></trkpt><trkpt lat="45.49967858053012" lon="10.982394650134768"><ele>326.0</ele><time>2026-04-18T09:27:17.001Z</time></trkpt><trkpt lat="45.499815827872" lon="10.982282695326713"><ele>326.0</ele><time>2026-04-18T09:27:25.998Z</time></trkpt><trkpt lat="45.49987875681639" lon="10.982258569865369"><ele>323.83333333333337</ele><time>2026-04-18T09:27:27.998Z</time></trkpt><trkpt lat="45.499949105349124" lon="10.982209949903277"><ele>321.6666666666667</ele><time>2026-04-18T09:27:30.998Z</time></trkpt><trkpt lat="45.50003722382916" lon="10.982165933704191"><ele>319.5</ele><time>2026-04-18T09:27:32.999Z</time></trkpt><trkpt lat="45.500112306111994" lon="10.982155629973063"><ele>317.3333333333333</ele><time>2026-04-18T09:27:36.999Z</time></trkpt><trkpt lat="45.500180119123954" lon="10.982137121455864"><ele>315.16666666666663</ele><time>2026-04-18T09:27:39.999Z</time></trkpt><trkpt lat="45.50024445202432" lon="10.98209870214021"><ele>313.0</ele><time>2026-04-18T09:27:42.999Z</time></trkpt><trkpt lat="45.50033389366462" lon="10.982105204457461"><ele>313.0</ele><time>2026-04-18T09:27:45.999Z</time></trkpt><trkpt lat="45.50040360388595" lon="10.982119266153653"><ele>313.0</ele><time>2026-04-18T09:27:47.999Z</time></trkpt><trkpt lat="45.50049321296124" lon="10.982145229653877"><ele>313.0</ele><time>2026-04-18T09:27:50.999Z</time></trkpt><trkpt lat="45.50055394650894" lon="10.982169645072307"><ele>313.0</ele><time>2026-04-18T09:27:52Z</time></trkpt><trkpt lat="45.50062466345402" lon="10.982124182446334"><ele>313.0</ele><time>2026-04-18T09:27:56Z</time></trkpt><trkpt lat="45.500596279133475" lon="10.982040860542199"><ele>313.0</ele><time>2026-04-18T09:27:58Z</time></trkpt><trkpt lat="45.500586566942204" lon="10.981949404185885"><ele>313.0</ele><time>2026-04-18T09:28:00Z</time></trkpt><trkpt lat="45.50062527483603" lon="10.981854003072323"><ele>313.8333333333333</ele><time>2026-04-18T09:28:02Z</time></trkpt><trkpt lat="45.50069535801576" lon="10.981838141433295"><ele>314.66666666666663</ele><time>2026-04-18T09:28:07Z</time></trkpt><trkpt lat="45.500740668138604" lon="10.98191324014466"><ele>315.5</ele><time>2026-04-18T09:28:10Z</time></trkpt><trkpt lat="45.50079333032858" lon="10.981976477819094"><ele>316.3333333333333</ele><time>2026-04-18T09:28:12Z</time></trkpt><trkpt lat="45.500881547305205" lon="10.982014592291224"><ele>317.1666666666667</ele><time>2026-04-18T09:28:14Z</time></trkpt><trkpt lat="45.500936063470995" lon="10.982092315718688"><ele>318.0</ele><time>2026-04-18T09:28:17Z</time></trkpt><trkpt lat="45.5010026974997" lon="10.982131007960584"><ele>318.0</ele><time>2026-04-18T09:28:20Z</time></trkpt><trkpt lat="45.50107846941257" lon="10.982137849647641"><ele>318.0</ele><time>2026-04-18T09:28:22Z</time></trkpt><trkpt lat="45.50114904915038" lon="10.982088122057677"><ele>318.0</ele><time>2026-04-18T09:28:24Z</time></trkpt><trkpt lat="45.50117771092318" lon="10.982004337133018"><ele>318.0</ele><time>2026-04-18T09:28:29.001Z</time></trkpt><trkpt lat="45.50122741070895" lon="10.982059919001163"><ele>318.0</ele><time>2026-04-18T09:28:32.001Z</time></trkpt><trkpt lat="45.501307769003766" lon="10.982037926695272"><ele>318.0</ele><time>2026-04-18T09:28:35.001Z</time></trkpt><trkpt lat="45.50136588265575" lon="10.981963784581177"><ele>318.0</ele><time>2026-04-18T09:29:33.999Z</time></trkpt><trkpt lat="45.501512779831465" lon="10.982003989678008"><ele>323.0</ele><time>2026-04-18T09:30:01Z</time></trkpt><trkpt lat="45.501703550335186" lon="10.981998933378364"><ele>328.0</ele><time>2026-04-18T09:37:02.002Z</time></trkpt><trkpt lat="45.50176290404905" lon="10.982035620391322"><ele>333.0</ele><time>2026-04-18T09:37:04.002Z</time></trkpt><trkpt lat="45.50196084201744" lon="10.98207732976222"><ele>333.0</ele><time>2026-04-18T09:37:09.002Z</time></trkpt><trkpt lat="45.50203071233014" lon="10.98207961622231"><ele>333.0</ele><time>2026-04-18T09:37:10.002Z</time></trkpt><trkpt lat="45.502283402808864" lon="10.98202490623844"><ele>333.0</ele><time>2026-04-18T09:37:19.002Z</time></trkpt><trkpt lat="45.50234961177683" lon="10.982015239903523"><ele>333.0</ele><time>2026-04-18T09:37:21.002Z</time></trkpt><trkpt lat="45.50241642937997" lon="10.981910695427894"><ele>334.8333333333333</ele><time>2026-04-18T09:37:24.002Z</time></trkpt><trkpt lat="45.50250546056057" lon="10.981864574063959"><ele>336.6666666666667</ele><time>2026-04-18T09:37:26.002Z</time></trkpt><trkpt lat="45.50252685838288" lon="10.981774864397769"><ele>338.5</ele><time>2026-04-18T09:37:28.002Z</time></trkpt><trkpt lat="45.50254744295463" lon="10.98167983740894"><ele>340.33333333333337</ele><time>2026-04-18T09:37:31.002Z</time></trkpt><trkpt lat="45.50261811430885" lon="10.981679985376362"><ele>342.1666666666667</ele><time>2026-04-18T09:37:33.002Z</time></trkpt><trkpt lat="45.50270664723671" lon="10.981660177446122"><ele>344.0</ele><time>2026-04-18T09:37:35.002Z</time></trkpt><trkpt lat="45.502764473418445" lon="10.98160515315031"><ele>347.1666666666667</ele><time>2026-04-18T09:37:37.002Z</time></trkpt><trkpt lat="45.50284138896105" lon="10.981598678519989"><ele>350.33333333333337</ele><time>2026-04-18T09:37:39.002Z</time></trkpt><trkpt lat="45.50292287155361" lon="10.981578183441734"><ele>353.5</ele><time>2026-04-18T09:37:42.002Z</time></trkpt><trkpt lat="45.50299352254456" lon="10.981505425517376"><ele>356.6666666666667</ele><time>2026-04-18T09:37:44.002Z</time></trkpt><trkpt lat="45.503057085690926" lon="10.981441509659126"><ele>359.8333333333333</ele><time>2026-04-18T09:38:06.001Z</time></trkpt><trkpt lat="45.50309918335127" lon="10.981314696565736"><ele>363.0</ele><time>2026-04-18T09:38:09.001Z</time></trkpt><trkpt lat="45.50313712742351" lon="10.981199877843103"><ele>364.5</ele><time>2026-04-18T09:38:12.001Z</time></trkpt><trkpt lat="45.50319421614179" lon="10.981115652561838"><ele>366.0</ele><time>2026-04-18T09:38:15.001Z</time></trkpt><trkpt lat="45.50322604745743" lon="10.980993803766783"><ele>367.5</ele><time>2026-04-18T09:38:18.001Z</time></trkpt><trkpt lat="45.50328190266543" lon="10.980935014388539"><ele>369.0</ele><time>2026-04-18T09:38:19.001Z</time></trkpt><trkpt lat="45.50336250194868" lon="10.980841406112672"><ele>370.5</ele><time>2026-04-18T09:38:21.001Z</time></trkpt><trkpt lat="45.5034626453838" lon="10.980853982383113"><ele>372.0</ele><time>2026-04-18T09:38:23.001Z</time></trkpt><trkpt lat="45.50350311423652" lon="10.980932358471273"><ele>372.00000000000006</ele><time>2026-04-18T09:38:25.001Z</time></trkpt><trkpt lat="45.503569482973695" lon="10.980926041363176"><ele>372.0</ele><time>2026-04-18T09:38:28.001Z</time></trkpt><trkpt lat="45.50360961883192" lon="10.980837385836827"><ele>372.0</ele><time>2026-04-18T09:38:31.001Z</time></trkpt><trkpt lat="45.50365364661007" lon="10.980770913565753"><ele>372.0</ele><time>2026-04-18T09:38:33.001Z</time></trkpt><trkpt lat="45.5037151009696" lon="10.98069661550178"><ele>372.0</ele><time>2026-04-18T09:38:38.001Z</time></trkpt><trkpt lat="45.50378110874482" lon="10.980647015952089"><ele>372.00000000000006</ele><time>2026-04-18T09:38:40.001Z</time></trkpt><trkpt lat="45.50385553744494" lon="10.980611933219258"><ele>372.0</ele><time>2026-04-18T09:38:42.001Z</time></trkpt><trkpt lat="45.503924363750684" lon="10.98052674107808"><ele>375.0</ele><time>2026-04-18T09:38:45.001Z</time></trkpt><trkpt lat="45.50397339914088" lon="10.98043734181154"><ele>378.0</ele><time>2026-04-18T09:38:48.001Z</time></trkpt><trkpt lat="45.504028963454104" lon="10.98033689871778"><ele>381.0</ele><time>2026-04-18T09:38:50.001Z</time></trkpt><trkpt lat="45.50408979670836" lon="10.980264154776325"><ele>384.0</ele><time>2026-04-18T09:38:52.001Z</time></trkpt><trkpt lat="45.5041566241398" lon="10.980231834424963"><ele>387.0</ele><time>2026-04-18T09:38:54.001Z</time></trkpt><trkpt lat="45.50421770051283" lon="10.980132235320182"><ele>390.0</ele><time>2026-04-18T09:38:56.001Z</time></trkpt><trkpt lat="45.50428711552844" lon="10.980101267227186"><ele>390.0</ele><time>2026-04-18T09:38:58.001Z</time></trkpt><trkpt lat="45.504334119058235" lon="10.98018621368209"><ele>390.0</ele><time>2026-04-18T09:39:00.001Z</time></trkpt><trkpt lat="45.50442605620412" lon="10.980201815417589"><ele>390.0</ele><time>2026-04-18T09:39:03.001Z</time></trkpt><trkpt lat="45.50450502169233" lon="10.98019856791402"><ele>390.0</ele><time>2026-04-18T09:39:05.001Z</time></trkpt><trkpt lat="45.5045715472975" lon="10.98014872290156"><ele>390.0</ele><time>2026-04-18T09:39:07.001Z</time></trkpt><trkpt lat="45.50466538002285" lon="10.980090677483574"><ele>390.0</ele><time>2026-04-18T09:39:09.001Z</time></trkpt><trkpt lat="45.504743099428815" lon="10.980140691727033"><ele>391.1666666666667</ele><time>2026-04-18T09:39:11.001Z</time></trkpt><trkpt lat="45.50481815770705" lon="10.980176104328459"><ele>392.33333333333337</ele><time>2026-04-18T09:39:13.001Z</time></trkpt><trkpt lat="45.5048843676169" lon="10.980116475720422"><ele>393.5</ele><time>2026-04-18T09:39:15.001Z</time></trkpt><trkpt lat="45.504955969003035" lon="10.980148524298201"><ele>394.6666666666667</ele><time>2026-04-18T09:39:17.001Z</time></trkpt><trkpt lat="45.505026036091095" lon="10.980152957273392"><ele>395.83333333333337</ele><time>2026-04-18T09:39:19.001Z</time></trkpt><trkpt lat="45.50513327422249" lon="10.980174689307763"><ele>397.0</ele><time>2026-04-18T09:39:21.001Z</time></trkpt><trkpt lat="45.50522477056874" lon="10.980178762951853"><ele>397.0</ele><time>2026-04-18T09:39:23.001Z</time></trkpt><trkpt lat="45.50529984036122" lon="10.980165636681695"><ele>397.0</ele><time>2026-04-18T09:39:25.001Z</time></trkpt><trkpt lat="45.50540426807016" lon="10.980108642440303"><ele>397.0</ele><time>2026-04-18T09:39:27.001Z</time></trkpt><trkpt lat="45.50549355212043" lon="10.98005589999627"><ele>397.0</ele><time>2026-04-18T09:39:29.001Z</time></trkpt><trkpt lat="45.50561207294202" lon="10.980027326267521"><ele>397.0</ele><time>2026-04-18T09:39:31.001Z</time></trkpt><trkpt lat="45.505715265962735" lon="10.979965681540937"><ele>401.0</ele><time>2026-04-18T09:39:33.001Z</time></trkpt><trkpt lat="45.505777438247144" lon="10.97982957561869"><ele>405.0</ele><time>2026-04-18T09:39:35.001Z</time></trkpt><trkpt lat="45.50577220654851" lon="10.97967727010904"><ele>409.0</ele><time>2026-04-18T09:39:37.001Z</time></trkpt><trkpt lat="45.505769752177535" lon="10.979568895312097"><ele>413.0</ele><time>2026-04-18T09:39:39.001Z</time></trkpt><trkpt lat="45.50580563669789" lon="10.979492986389042"><ele>417.0</ele><time>2026-04-18T09:39:41.001Z</time></trkpt><trkpt lat="45.505815048421475" lon="10.979346842117977"><ele>417.0</ele><time>2026-04-18T09:39:44.001Z</time></trkpt><trkpt lat="45.505881024521436" lon="10.97922434342941"><ele>417.0</ele><time>2026-04-18T09:39:46.001Z</time></trkpt><trkpt lat="45.505961676849445" lon="10.979139356828345"><ele>417.0</ele><time>2026-04-18T09:39:48.001Z</time></trkpt><trkpt lat="45.5060664187794" lon="10.979108765653033"><ele>417.0</ele><time>2026-04-18T09:39:50.001Z</time></trkpt><trkpt lat="45.506117381296" lon="10.979032941231742"><ele>417.0</ele><time>2026-04-18T09:39:52.001Z</time></trkpt><trkpt lat="45.5062057208135" lon="10.978939592168473"><ele>419.0</ele><time>2026-04-18T09:39:54.001Z</time></trkpt><trkpt lat="45.506308893386006" lon="10.97885138413117"><ele>421.0</ele><time>2026-04-18T09:39:56.001Z</time></trkpt><trkpt lat="45.50639438929882" lon="10.978766838225738"><ele>423.00000000000006</ele><time>2026-04-18T09:39:57.999Z</time></trkpt><trkpt lat="45.506466635276915" lon="10.978677205115286"><ele>425.0</ele><time>2026-04-18T09:39:59.999Z</time></trkpt><trkpt lat="45.506555364624" lon="10.978621499157791"><ele>427.0</ele><time>2026-04-18T09:40:01.999Z</time></trkpt><trkpt lat="45.50665851760651" lon="10.978558284596692"><ele>427.0</ele><time>2026-04-18T09:40:03.999Z</time></trkpt><trkpt lat="45.50671945178662" lon="10.978534181745394"><ele>427.00000000000006</ele><time>2026-04-18T09:40:04.999Z</time></trkpt><trkpt lat="45.50679024913602" lon="10.978537270014112"><ele>427.00000000000006</ele><time>2026-04-18T09:40:05.999Z</time></trkpt><trkpt lat="45.50690732254305" lon="10.97855192136804"><ele>427.0</ele><time>2026-04-18T09:40:07.999Z</time></trkpt><trkpt lat="45.50701393677939" lon="10.978534885447749"><ele>427.0</ele><time>2026-04-18T09:40:09.999Z</time></trkpt><trkpt lat="45.50712080759236" lon="10.978552391650103"><ele>427.0</ele><time>2026-04-18T09:40:11.999Z</time></trkpt><trkpt lat="45.50718292432896" lon="10.978568346236647"><ele>427.00000000000006</ele><time>2026-04-18T09:40:12.999Z</time></trkpt><trkpt lat="45.50730458061289" lon="10.978603160774691"><ele>427.00000000000006</ele><time>2026-04-18T09:40:14.999Z</time></trkpt><trkpt lat="45.5073678790895" lon="10.97862563350543"><ele>427.0</ele><time>2026-04-18T09:40:15.999Z</time></trkpt><trkpt lat="45.507526081888486" lon="10.978666463192244"><ele>427.0</ele><time>2026-04-18T09:40:17.999Z</time></trkpt><trkpt lat="45.50760797804027" lon="10.978711809700867"><ele>427.00000000000006</ele><time>2026-04-18T09:40:18.999Z</time></trkpt><trkpt lat="45.50767727751993" lon="10.978748047356559"><ele>427.0</ele><time>2026-04-18T09:40:19.999Z</time></trkpt><trkpt lat="45.50773272003333" lon="10.978796114333928"><ele>427.0</ele><time>2026-04-18T09:40:20.999Z</time></trkpt><trkpt lat="45.50785254755044" lon="10.978748525020688"><ele>427.0</ele><time>2026-04-18T09:40:24.999Z</time></trkpt><trkpt lat="45.5078574756231" lon="10.978647119123147"><ele>427.00000000000006</ele><time>2026-04-18T09:40:31Z</time></trkpt><trkpt lat="45.50783477110505" lon="10.978544695184373"><ele>427.0</ele><time>2026-04-18T09:41:15Z</time></trkpt><trkpt lat="45.507783801504516" lon="10.978487029627816"><ele>427.0</ele><time>2026-04-18T09:41:17Z</time></trkpt><trkpt lat="45.50770750667084" lon="10.978421662932824"><ele>427.0</ele><time>2026-04-18T09:41:21Z</time></trkpt><trkpt lat="45.50765815876246" lon="10.978326794482378"><ele>427.0</ele><time>2026-04-18T09:41:24Z</time></trkpt><trkpt lat="45.50746570102394" lon="10.978099240925399"><ele>427.0</ele><time>2026-04-18T09:41:39Z</time></trkpt><trkpt lat="45.50740524006812" lon="10.978056713976315"><ele>424.6</ele><time>2026-04-18T09:41:40Z</time></trkpt><trkpt lat="45.50734436755346" lon="10.978009773031246"><ele>422.20000000000005</ele><time>2026-04-18T09:41:41Z</time></trkpt><trkpt lat="45.50732839367522" lon="10.977855709217723"><ele>419.8</ele><time>2026-04-18T09:41:43Z</time></trkpt><trkpt lat="45.50728074258688" lon="10.977737741592348"><ele>417.4</ele><time>2026-04-18T09:41:45.001Z</time></trkpt><trkpt lat="45.50715538968972" lon="10.97768104361977"><ele>415.0</ele><time>2026-04-18T09:41:47.001Z</time></trkpt><trkpt lat="45.50705716367161" lon="10.97763008801282"><ele>415.0</ele><time>2026-04-18T09:41:48.001Z</time></trkpt><trkpt lat="45.50696303854322" lon="10.97755673018927"><ele>415.0</ele><time>2026-04-18T09:41:49.001Z</time></trkpt><trkpt lat="45.506904392510876" lon="10.977490258824531"><ele>415.0</ele><time>2026-04-18T09:41:51.001Z</time></trkpt><trkpt lat="45.50697433770848" lon="10.977384740309443"><ele>415.0</ele><time>2026-04-18T09:41:55.001Z</time></trkpt><trkpt lat="45.50703275023334" lon="10.977301947862443"><ele>415.0</ele><time>2026-04-18T09:41:56.001Z</time></trkpt><trkpt lat="45.50708771211094" lon="10.977196919770165"><ele>413.6666666666667</ele><time>2026-04-18T09:41:57.001Z</time></trkpt><trkpt lat="45.507127344679" lon="10.9771095583252"><ele>412.33333333333337</ele><time>2026-04-18T09:41:58.001Z</time></trkpt><trkpt lat="45.50712922204036" lon="10.976991481077528"><ele>411.0</ele><time>2026-04-18T09:42:00.001Z</time></trkpt><trkpt lat="45.507113388729074" lon="10.976865651053302"><ele>409.66666666666663</ele><time>2026-04-18T09:42:02.001Z</time></trkpt><trkpt lat="45.50705057127892" lon="10.976798968004834"><ele>408.3333333333333</ele><time>2026-04-18T09:42:03.001Z</time></trkpt><trkpt lat="45.50698578172617" lon="10.976828144765301"><ele>407.0</ele><time>2026-04-18T09:42:03.999Z</time></trkpt><trkpt lat="45.506994507923366" lon="10.976734004497475"><ele>409.25</ele><time>2026-04-18T09:42:06.999Z</time></trkpt><trkpt lat="45.50718781889135" lon="10.976510975950038"><ele>411.5</ele><time>2026-04-18T09:42:07.999Z</time></trkpt><trkpt lat="45.50726928963002" lon="10.976451644071757"><ele>413.75</ele><time>2026-04-18T09:42:09.999Z</time></trkpt><trkpt lat="45.50734288570726" lon="10.976401210481653"><ele>416.0</ele><time>2026-04-18T09:42:10.999Z</time></trkpt><trkpt lat="45.50741054362623" lon="10.976354924076341"><ele>416.0</ele><time>2026-04-18T09:42:11.999Z</time></trkpt><trkpt lat="45.507500281423205" lon="10.976275680051891"><ele>416.0</ele><time>2026-04-18T09:42:13.999Z</time></trkpt><trkpt lat="45.507577042943154" lon="10.976267216466736"><ele>416.0</ele><time>2026-04-18T09:42:16.999Z</time></trkpt><trkpt lat="45.507660592647724" lon="10.976201297642815"><ele>416.0</ele><time>2026-04-18T09:42:29.999Z</time></trkpt><trkpt lat="45.50774834514063" lon="10.97604115747815"><ele>416.0</ele><time>2026-04-18T09:42:31.999Z</time></trkpt><trkpt lat="45.507814512943895" lon="10.976084558391497"><ele>418.8</ele><time>2026-04-18T09:42:33.999Z</time></trkpt><trkpt lat="45.50792819505233" lon="10.976062503138982"><ele>421.6</ele><time>2026-04-18T09:42:35.999Z</time></trkpt><trkpt lat="45.50804932799359" lon="10.976060340341572"><ele>424.4</ele><time>2026-04-18T09:42:38Z</time></trkpt><trkpt lat="45.5081295725335" lon="10.976034574472756"><ele>427.2</ele><time>2026-04-18T09:42:39Z</time></trkpt><trkpt lat="45.50822232096594" lon="10.976012924972077"><ele>430.0</ele><time>2026-04-18T09:42:40Z</time></trkpt><trkpt lat="45.508340240196674" lon="10.97600165864807"><ele>430.0</ele><time>2026-04-18T09:42:41Z</time></trkpt><trkpt lat="45.50846370376921" lon="10.975974538330982"><ele>430.0</ele><time>2026-04-18T09:42:42Z</time></trkpt><trkpt lat="45.50860314092215" lon="10.975943909150324"><ele>430.0</ele><time>2026-04-18T09:42:43Z</time></trkpt><trkpt lat="45.50872092504006" lon="10.97589718743304"><ele>430.0</ele><time>2026-04-18T09:42:44Z</time></trkpt><trkpt lat="45.50883519096192" lon="10.975876058506097"><ele>431.6</ele><time>2026-04-18T09:42:45Z</time></trkpt><trkpt lat="45.50894811670555" lon="10.975855639538176"><ele>433.2</ele><time>2026-04-18T09:42:46Z</time></trkpt><trkpt lat="45.50906596532262" lon="10.975836063106039"><ele>434.79999999999995</ele><time>2026-04-18T09:42:47Z</time></trkpt><trkpt lat="45.509176127145565" lon="10.975844857359215"><ele>436.4</ele><time>2026-04-18T09:42:48Z</time></trkpt><trkpt lat="45.50927258691223" lon="10.975846937619812"><ele>438.0</ele><time>2026-04-18T09:42:49Z</time></trkpt><trkpt lat="45.50936185400911" lon="10.975859057653269"><ele>438.25</ele><time>2026-04-18T09:42:50Z</time></trkpt><trkpt lat="45.50945787000881" lon="10.975884988894252"><ele>438.5</ele><time>2026-04-18T09:42:51Z</time></trkpt><trkpt lat="45.50956285529683" lon="10.975917585526252"><ele>438.75</ele><time>2026-04-18T09:42:52Z</time></trkpt><trkpt lat="45.50967926902885" lon="10.97595736435311"><ele>439.0</ele><time>2026-04-18T09:42:53Z</time></trkpt><trkpt lat="45.5098024688709" lon="10.97600218115801"><ele>440.4</ele><time>2026-04-18T09:42:54Z</time></trkpt><trkpt lat="45.509916757049616" lon="10.976020852061135"><ele>441.79999999999995</ele><time>2026-04-18T09:42:55Z</time></trkpt><trkpt lat="45.510026611411746" lon="10.976078687423799"><ele>443.20000000000005</ele><time>2026-04-18T09:42:56Z</time></trkpt><trkpt lat="45.51013226402137" lon="10.976076546734166"><ele>444.6</ele><time>2026-04-18T09:42:57Z</time></trkpt><trkpt lat="45.51023156711534" lon="10.976083926511468"><ele>446.0</ele><time>2026-04-18T09:42:58Z</time></trkpt><trkpt lat="45.51032210148089" lon="10.976075795723867"><ele>445.99999999999994</ele><time>2026-04-18T09:42:59Z</time></trkpt><trkpt lat="45.510404607562045" lon="10.976059404677324"><ele>446.0</ele><time>2026-04-18T09:43:00Z</time></trkpt><trkpt lat="45.510485436323414" lon="10.976048804623533"><ele>446.0</ele><time>2026-04-18T09:43:01Z</time></trkpt><trkpt lat="45.51057159583684" lon="10.976029129488179"><ele>446.0</ele><time>2026-04-18T09:43:02Z</time></trkpt><trkpt lat="45.51064802426795" lon="10.976015037783428"><ele>445.99999999999994</ele><time>2026-04-18T09:43:03Z</time></trkpt><trkpt lat="45.51072654842132" lon="10.975996222813102"><ele>446.0</ele><time>2026-04-18T09:43:04Z</time></trkpt><trkpt lat="45.51081018517641" lon="10.975972726345832"><ele>447.3333333333333</ele><time>2026-04-18T09:43:05Z</time></trkpt><trkpt lat="45.510880758106865" lon="10.975912492548876"><ele>448.66666666666663</ele><time>2026-04-18T09:43:06Z</time></trkpt><trkpt lat="45.51098545602923" lon="10.975886486696698"><ele>450.0</ele><time>2026-04-18T09:43:08Z</time></trkpt><trkpt lat="45.51097327577112" lon="10.975989834693923"><ele>451.33333333333337</ele><time>2026-04-18T09:43:09Z</time></trkpt><trkpt lat="45.51103717717705" lon="10.976073460145857"><ele>452.6666666666667</ele><time>2026-04-18T09:43:11Z</time></trkpt><trkpt lat="45.5110885239315" lon="10.97614574618989"><ele>454.0</ele><time>2026-04-18T09:43:12Z</time></trkpt><trkpt lat="45.511139939664346" lon="10.976235458024652"><ele>454.0</ele><time>2026-04-18T09:43:13Z</time></trkpt><trkpt lat="45.51120688524564" lon="10.976354838190703"><ele>454.0</ele><time>2026-04-18T09:43:15Z</time></trkpt><trkpt lat="45.511268479449036" lon="10.97645338739081"><ele>454.0</ele><time>2026-04-18T09:43:17Z</time></trkpt><trkpt lat="45.51148786280061" lon="10.97630046423428"><ele>454.0</ele><time>2026-04-18T09:43:18Z</time></trkpt><trkpt lat="45.511574134788106" lon="10.976322068663517"><ele>454.4</ele><time>2026-04-18T09:43:19Z</time></trkpt><trkpt lat="45.511669379500916" lon="10.976319684446075"><ele>454.79999999999995</ele><time>2026-04-18T09:43:20Z</time></trkpt><trkpt lat="45.511777146115755" lon="10.976312792249647"><ele>455.20000000000005</ele><time>2026-04-18T09:43:21Z</time></trkpt><trkpt lat="45.51187993010815" lon="10.976313193482092"><ele>455.6</ele><time>2026-04-18T09:43:22Z</time></trkpt><trkpt lat="45.51197054182784" lon="10.976316873957567"><ele>456.0</ele><time>2026-04-18T09:43:23Z</time></trkpt><trkpt lat="45.51204726200145" lon="10.976318567137252"><ele>455.5</ele><time>2026-04-18T09:43:24Z</time></trkpt><trkpt lat="45.51213839887869" lon="10.97633921140495"><ele>455.0</ele><time>2026-04-18T09:43:27Z</time></trkpt><trkpt lat="45.512202888607625" lon="10.976342354916632"><ele>454.5</ele><time>2026-04-18T09:43:29Z</time></trkpt><trkpt lat="45.51229460421103" lon="10.976358261404494"><ele>454.0</ele><time>2026-04-18T09:43:32.001Z</time></trkpt><trkpt lat="45.512384965767346" lon="10.976375018428476"><ele>453.5</ele><time>2026-04-18T09:43:34.001Z</time></trkpt><trkpt lat="45.512479914650996" lon="10.976393030922358"><ele>453.0</ele><time>2026-04-18T09:43:36.001Z</time></trkpt><trkpt lat="45.512571120641816" lon="10.97644516926356"><ele>453.0</ele><time>2026-04-18T09:43:38.001Z</time></trkpt><trkpt lat="45.512638403129976" lon="10.976506877218403"><ele>453.0</ele><time>2026-04-18T09:43:40.001Z</time></trkpt><trkpt lat="45.51273076136158" lon="10.976600805248378"><ele>453.0</ele><time>2026-04-18T09:43:42.001Z</time></trkpt><trkpt lat="45.51280309854444" lon="10.976633691176282"><ele>453.0</ele><time>2026-04-18T09:43:43.001Z</time></trkpt><trkpt lat="45.51287861055389" lon="10.97669258090417"><ele>453.0</ele><time>2026-04-18T09:43:44.001Z</time></trkpt><trkpt lat="45.512948977299274" lon="10.976740905906276"><ele>453.0</ele><time>2026-04-18T09:43:45.001Z</time></trkpt><trkpt lat="45.51300610662105" lon="10.976788238420914"><ele>452.0</ele><time>2026-04-18T09:43:46.001Z</time></trkpt><trkpt lat="45.51309203850441" lon="10.976856986082849"><ele>450.99999999999994</ele><time>2026-04-18T09:43:47.001Z</time></trkpt><trkpt lat="45.51316379877456" lon="10.97691871834275"><ele>449.99999999999994</ele><time>2026-04-18T09:43:48.001Z</time></trkpt><trkpt lat="45.51326378613523" lon="10.977006363712972"><ele>449.0</ele><time>2026-04-18T09:43:50.001Z</time></trkpt><trkpt lat="45.51338973341714" lon="10.977043169081737"><ele>448.0</ele><time>2026-04-18T09:43:52.001Z</time></trkpt><trkpt lat="45.513465151801306" lon="10.977087934761279"><ele>448.00000000000006</ele><time>2026-04-18T09:43:53.001Z</time></trkpt><trkpt lat="45.513531349423864" lon="10.977132434354726"><ele>448.0</ele><time>2026-04-18T09:43:54.001Z</time></trkpt><trkpt lat="45.51361500068123" lon="10.977167513755669"><ele>448.0</ele><time>2026-04-18T09:43:55.001Z</time></trkpt><trkpt lat="45.51369262230469" lon="10.977216224999218"><ele>448.0</ele><time>2026-04-18T09:43:56.001Z</time></trkpt><trkpt lat="45.51375411048795" lon="10.977256484798453"><ele>448.00000000000006</ele><time>2026-04-18T09:43:57.001Z</time></trkpt><trkpt lat="45.51382589692181" lon="10.977303444402917"><ele>448.0</ele><time>2026-04-18T09:43:58.001Z</time></trkpt><trkpt lat="45.513889010184805" lon="10.977355926934324"><ele>450.2</ele><time>2026-04-18T09:43:59.001Z</time></trkpt><trkpt lat="45.513958983867454" lon="10.977392339408109"><ele>452.4</ele><time>2026-04-18T09:44:00.001Z</time></trkpt><trkpt lat="45.514105323564294" lon="10.977481781347908"><ele>454.59999999999997</ele><time>2026-04-18T09:44:02.001Z</time></trkpt><trkpt lat="45.51418182044074" lon="10.977531441241418"><ele>456.79999999999995</ele><time>2026-04-18T09:44:03.001Z</time></trkpt><trkpt lat="45.51426012532974" lon="10.977598445588399"><ele>459.0</ele><time>2026-04-18T09:44:04.001Z</time></trkpt><trkpt lat="45.51431825313347" lon="10.977674922019334"><ele>459.0</ele><time>2026-04-18T09:44:05.001Z</time></trkpt><trkpt lat="45.51437653855214" lon="10.977728862640877"><ele>459.0</ele><time>2026-04-18T09:44:06.001Z</time></trkpt><trkpt lat="45.514434405668965" lon="10.977791453670918"><ele>459.0</ele><time>2026-04-18T09:44:07.001Z</time></trkpt><trkpt lat="45.51447240322845" lon="10.977904647509082"><ele>459.0</ele><time>2026-04-18T09:44:09.001Z</time></trkpt><trkpt lat="45.51447464277875" lon="10.978056452613954"><ele>459.0</ele><time>2026-04-18T09:44:10.998Z</time></trkpt><trkpt lat="45.514452767264224" lon="10.978212135009983"><ele>459.0</ele><time>2026-04-18T09:44:12.998Z</time></trkpt><trkpt lat="45.5143884877993" lon="10.978371352131596"><ele>459.5</ele><time>2026-04-18T09:44:14.998Z</time></trkpt><trkpt lat="45.514342073418106" lon="10.978459810676082"><ele>460.0</ele><time>2026-04-18T09:44:15.998Z</time></trkpt><trkpt lat="45.514283226550354" lon="10.978598989289825"><ele>460.5</ele><time>2026-04-18T09:44:18.999Z</time></trkpt><trkpt lat="45.514233854590465" lon="10.978718457314386"><ele>461.0</ele><time>2026-04-18T09:44:19.999Z</time></trkpt><trkpt lat="45.51418599881908" lon="10.978811087373218"><ele>461.5</ele><time>2026-04-18T09:44:21.999Z</time></trkpt><trkpt lat="45.514250354697026" lon="10.978843751067771"><ele>462.0</ele><time>2026-04-18T09:44:24.999Z</time></trkpt><trkpt lat="45.51449523854657" lon="10.978825960976714"><ele>462.0</ele><time>2026-04-18T09:44:31.999Z</time></trkpt><trkpt lat="45.51454302479967" lon="10.978765466953407"><ele>462.00000000000006</ele><time>2026-04-18T09:44:32.999Z</time></trkpt><trkpt lat="45.51461357665577" lon="10.978646591123988"><ele>462.00000000000006</ele><time>2026-04-18T09:44:34.999Z</time></trkpt><trkpt lat="45.51466709474882" lon="10.978588037187311"><ele>462.0</ele><time>2026-04-18T09:44:35.999Z</time></trkpt><trkpt lat="45.51477263095008" lon="10.978486269952736"><ele>462.0</ele><time>2026-04-18T09:44:37.999Z</time></trkpt><trkpt lat="45.51486031294026" lon="10.978349705285256"><ele>465.0</ele><time>2026-04-18T09:44:39.999Z</time></trkpt><trkpt lat="45.514904135408635" lon="10.978283558828018"><ele>468.00000000000006</ele><time>2026-04-18T09:44:40.999Z</time></trkpt><trkpt lat="45.51496492197777" lon="10.978143993581915"><ele>471.00000000000006</ele><time>2026-04-18T09:44:44Z</time></trkpt><trkpt lat="45.514973183006404" lon="10.978253771115526"><ele>474.0</ele><time>2026-04-18T09:44:53Z</time></trkpt><trkpt lat="45.51497902260119" lon="10.97840102268241"><ele>477.0</ele><time>2026-04-18T09:44:55Z</time></trkpt><trkpt lat="45.51501725624501" lon="10.978556334053897"><ele>477.0</ele><time>2026-04-18T09:44:57Z</time></trkpt><trkpt lat="45.515068289185805" lon="10.978711795257453"><ele>477.00000000000006</ele><time>2026-04-18T09:44:59Z</time></trkpt><trkpt lat="45.51509607125678" lon="10.978883094260759"><ele>477.00000000000006</ele><time>2026-04-18T09:45:01Z</time></trkpt><trkpt lat="45.51511791495841" lon="10.978978613539194"><ele>477.0</ele><time>2026-04-18T09:45:02Z</time></trkpt><trkpt lat="45.515142028318145" lon="10.979091672048137"><ele>477.0</ele><time>2026-04-18T09:45:03Z</time></trkpt><trkpt lat="45.515163801390145" lon="10.979187200510848"><ele>477.40000000000003</ele><time>2026-04-18T09:45:04Z</time></trkpt><trkpt lat="45.5151871461527" lon="10.979358525502825"><ele>477.80000000000007</ele><time>2026-04-18T09:45:06Z</time></trkpt><trkpt lat="45.515223138172416" lon="10.979493093440443"><ele>478.2</ele><time>2026-04-18T09:45:08Z</time></trkpt><trkpt lat="45.51529053653741" lon="10.979578505550169"><ele>478.6</ele><time>2026-04-18T09:45:11Z</time></trkpt><trkpt lat="45.515386424010586" lon="10.979692831598"><ele>479.0</ele><time>2026-04-18T09:45:13Z</time></trkpt><trkpt lat="45.515482216298686" lon="10.979753109303303"><ele>479.0</ele><time>2026-04-18T09:46:22.999Z</time></trkpt><trkpt lat="45.515568913946154" lon="10.979785614978168"><ele>479.0</ele><time>2026-04-18T09:46:25.999Z</time></trkpt><trkpt lat="45.5156704167099" lon="10.979831747753696"><ele>479.0</ele><time>2026-04-18T09:46:27.999Z</time></trkpt><trkpt lat="45.51576146604025" lon="10.979875519351857"><ele>479.0</ele><time>2026-04-18T09:46:29.999Z</time></trkpt><trkpt lat="45.51584206881844" lon="10.97989092291492"><ele>479.0</ele><time>2026-04-18T09:46:31.999Z</time></trkpt><trkpt lat="45.51573571540754" lon="10.979861810444625"><ele>479.0</ele><time>2026-04-18T09:46:47Z</time></trkpt><trkpt lat="45.51567134644678" lon="10.97983275236208"><ele>479.0</ele><time>2026-04-18T09:46:49Z</time></trkpt><trkpt lat="45.5156092909854" lon="10.979799003868147"><ele>479.0</ele><time>2026-04-18T09:46:52Z</time></trkpt><trkpt lat="45.515530444724575" lon="10.979781371745096"><ele>479.0</ele><time>2026-04-18T09:47:06Z</time></trkpt><trkpt lat="45.51547185401254" lon="10.979733458349868"><ele>479.0</ele><time>2026-04-18T09:47:11.001Z</time></trkpt><trkpt lat="45.51539360285553" lon="10.979685884647193"><ele>479.0</ele><time>2026-04-18T09:47:15.001Z</time></trkpt><trkpt lat="45.51533471044366" lon="10.979651270927498"><ele>479.0</ele><time>2026-04-18T09:47:17.001Z</time></trkpt><trkpt lat="45.515292487844114" lon="10.979581351444619"><ele>479.0</ele><time>2026-04-18T09:47:20.001Z</time></trkpt><trkpt lat="45.515286538325995" lon="10.979491860244737"><ele>479.0</ele><time>2026-04-18T09:47:31.001Z</time></trkpt><trkpt lat="45.5153419138214" lon="10.979391440688067"><ele>479.0</ele><time>2026-04-18T09:47:38.001Z</time></trkpt><trkpt lat="45.51538655105072" lon="10.979287010671369"><ele>479.0</ele><time>2026-04-18T09:47:41.001Z</time></trkpt><trkpt lat="45.51544314674857" lon="10.979235271234575"><ele>479.0</ele><time>2026-04-18T09:47:43.001Z</time></trkpt><trkpt lat="45.515478479370735" lon="10.97915893792664"><ele>479.0</ele><time>2026-04-18T09:47:45.001Z</time></trkpt><trkpt lat="45.51549801236011" lon="10.97906280333175"><ele>479.0</ele><time>2026-04-18T09:47:47.001Z</time></trkpt><trkpt lat="45.51553918287893" lon="10.978947440039628"><ele>481.16666666666663</ele><time>2026-04-18T09:47:49.001Z</time></trkpt><trkpt lat="45.51548986525586" lon="10.978872215381978"><ele>483.3333333333333</ele><time>2026-04-18T09:47:54.002Z</time></trkpt><trkpt lat="45.5154835641461" lon="10.978781225440812"><ele>485.5</ele><time>2026-04-18T09:47:57.002Z</time></trkpt><trkpt lat="45.5155543016678" lon="10.978754841146825"><ele>487.66666666666663</ele><time>2026-04-18T09:48:09.002Z</time></trkpt><trkpt lat="45.515636385755535" lon="10.978696064532734"><ele>489.8333333333333</ele><time>2026-04-18T09:48:13.002Z</time></trkpt><trkpt lat="45.515719021286145" lon="10.978671127410887"><ele>492.0</ele><time>2026-04-18T09:48:15.002Z</time></trkpt><trkpt lat="45.51580168782261" lon="10.978628460628968"><ele>492.00000000000006</ele><time>2026-04-18T09:48:18.002Z</time></trkpt><trkpt lat="45.51586993748701" lon="10.978543502472654"><ele>492.0</ele><time>2026-04-18T09:48:20.002Z</time></trkpt><trkpt lat="45.51591084667116" lon="10.978471185318586"><ele>492.00000000000006</ele><time>2026-04-18T09:48:22Z</time></trkpt><trkpt lat="45.51593165665714" lon="10.978382554259715"><ele>492.00000000000006</ele><time>2026-04-18T09:48:24Z</time></trkpt><trkpt lat="45.515979678996274" lon="10.97828578924766"><ele>492.0</ele><time>2026-04-18T09:48:26Z</time></trkpt><trkpt lat="45.51604219934024" lon="10.97825770647405"><ele>492.00000000000006</ele><time>2026-04-18T09:48:30Z</time></trkpt><trkpt lat="45.516077788962086" lon="10.978159826863337"><ele>492.00000000000006</ele><time>2026-04-18T09:48:32Z</time></trkpt><trkpt lat="45.51613357709437" lon="10.978081176969692"><ele>494.40000000000003</ele><time>2026-04-18T09:48:35Z</time></trkpt><trkpt lat="45.516216973649286" lon="10.978018368643813"><ele>496.80000000000007</ele><time>2026-04-18T09:48:37Z</time></trkpt><trkpt lat="45.516301183335294" lon="10.97795278650899"><ele>499.2</ele><time>2026-04-18T09:48:41Z</time></trkpt><trkpt lat="45.516342375163674" lon="10.977859962347363"><ele>501.6</ele><time>2026-04-18T09:48:44Z</time></trkpt><trkpt lat="45.5163388005118" lon="10.97769979908505"><ele>504.0</ele><time>2026-04-18T09:48:46Z</time></trkpt><trkpt lat="45.51634020097401" lon="10.977538899759379"><ele>508.2</ele><time>2026-04-18T09:48:48Z</time></trkpt><trkpt lat="45.516353152358434" lon="10.977436744046093"><ele>512.4</ele><time>2026-04-18T09:48:50Z</time></trkpt><trkpt lat="45.51638207132787" lon="10.977335874804663"><ele>516.6</ele><time>2026-04-18T09:48:52Z</time></trkpt><trkpt lat="45.51648230647234" lon="10.977298506549756"><ele>520.8</ele><time>2026-04-18T09:49:17.001Z</time></trkpt><trkpt lat="45.516522249975864" lon="10.977400199301984"><ele>525.0</ele><time>2026-04-18T09:49:19.001Z</time></trkpt><trkpt lat="45.516627152883004" lon="10.977498507327375"><ele>524.3333333333334</ele><time>2026-04-18T09:49:21.001Z</time></trkpt><trkpt lat="45.51682053136115" lon="10.97774574134601"><ele>523.6666666666667</ele><time>2026-04-18T09:49:31.001Z</time></trkpt><trkpt lat="45.51690007742201" lon="10.977831698140683"><ele>523.0</ele><time>2026-04-18T09:49:33.001Z</time></trkpt><trkpt lat="45.516978169833315" lon="10.9779463691375"><ele>523.0</ele><time>2026-04-18T09:49:35.001Z</time></trkpt><trkpt lat="45.51706539973003" lon="10.978029209919562"><ele>523.0</ele><time>2026-04-18T09:49:36.001Z</time></trkpt><trkpt lat="45.517192516517554" lon="10.978071885341294"><ele>523.0</ele><time>2026-04-18T09:49:38.001Z</time></trkpt><trkpt lat="45.51726898416153" lon="10.97812071741959"><ele>523.0</ele><time>2026-04-18T09:49:39.001Z</time></trkpt><trkpt lat="45.51734040088219" lon="10.978183264491971"><ele>523.0</ele><time>2026-04-18T09:49:40.001Z</time></trkpt><trkpt lat="45.51745623764967" lon="10.97824932533624"><ele>524.6666666666667</ele><time>2026-04-18T09:49:42.002Z</time></trkpt><trkpt lat="45.517540562972925" lon="10.97827797858357"><ele>526.3333333333334</ele><time>2026-04-18T09:49:43.002Z</time></trkpt><trkpt lat="45.5176054673137" lon="10.978313290949442"><ele>528.0</ele><time>2026-04-18T09:49:44.002Z</time></trkpt><trkpt lat="45.51768311409733" lon="10.978276126596318"><ele>529.6666666666666</ele><time>2026-04-18T09:49:46.002Z</time></trkpt><trkpt lat="45.51775512115779" lon="10.978216462001585"><ele>531.3333333333333</ele><time>2026-04-18T09:49:47.002Z</time></trkpt><trkpt lat="45.51784130964957" lon="10.978083042924158"><ele>533.0</ele><time>2026-04-18T09:49:48.002Z</time></trkpt><trkpt lat="45.51790452631937" lon="10.978017925184172"><ele>533.0</ele><time>2026-04-18T09:49:49.002Z</time></trkpt><trkpt lat="45.51795465575077" lon="10.97795503277372"><ele>533.0</ele><time>2026-04-18T09:49:50.002Z</time></trkpt><trkpt lat="45.51801740677659" lon="10.977900608247754"><ele>533.0</ele><time>2026-04-18T09:49:51.002Z</time></trkpt><trkpt lat="45.518075676643384" lon="10.977832287601254"><ele>533.0</ele><time>2026-04-18T09:49:52.002Z</time></trkpt><trkpt lat="45.51811220531542" lon="10.977723124325147"><ele>533.0</ele><time>2026-04-18T09:49:53.002Z</time></trkpt><trkpt lat="45.51816779482059" lon="10.97763707591069"><ele>533.0</ele><time>2026-04-18T09:49:54.002Z</time></trkpt><trkpt lat="45.518230606046735" lon="10.977546159719731"><ele>534.8</ele><time>2026-04-18T09:49:55.002Z</time></trkpt><trkpt lat="45.51831688737864" lon="10.977428646321098"><ele>536.5999999999999</ele><time>2026-04-18T09:49:56.002Z</time></trkpt><trkpt lat="45.518404775603734" lon="10.977334007274973"><ele>538.4000000000001</ele><time>2026-04-18T09:49:57.002Z</time></trkpt><trkpt lat="45.51847537454214" lon="10.977235179538662"><ele>540.2</ele><time>2026-04-18T09:49:58.002Z</time></trkpt><trkpt lat="45.518547906006745" lon="10.977143615943758"><ele>542.0</ele><time>2026-04-18T09:49:59.002Z</time></trkpt><trkpt lat="45.51862631933185" lon="10.97705876934085"><ele>542.0</ele><time>2026-04-18T09:50:00.002Z</time></trkpt><trkpt lat="45.51869024421709" lon="10.976967263042761"><ele>542.0</ele><time>2026-04-18T09:50:01.002Z</time></trkpt><trkpt lat="45.518755988710666" lon="10.97687894531841"><ele>542.0</ele><time>2026-04-18T09:50:02.002Z</time></trkpt><trkpt lat="45.518805700957664" lon="10.976798028009977"><ele>542.0</ele><time>2026-04-18T09:50:03.002Z</time></trkpt><trkpt lat="45.51886667819863" lon="10.97673074716473"><ele>542.0</ele><time>2026-04-18T09:50:05.002Z</time></trkpt><trkpt lat="45.51894009639445" lon="10.976723328282608"><ele>542.0</ele><time>2026-04-18T09:50:07.002Z</time></trkpt><trkpt lat="45.519017891567934" lon="10.976685103637825"><ele>541.5</ele><time>2026-04-18T09:50:12.002Z</time></trkpt><trkpt lat="45.519109990153176" lon="10.976628081780001"><ele>541.0</ele><time>2026-04-18T09:50:15.002Z</time></trkpt><trkpt lat="45.519160014926705" lon="10.976530598225951"><ele>540.5</ele><time>2026-04-18T09:50:17.002Z</time></trkpt><trkpt lat="45.519223371192545" lon="10.976443050095584"><ele>540.0</ele><time>2026-04-18T09:50:19.002Z</time></trkpt><trkpt lat="45.51920692315725" lon="10.976326861667387"><ele>539.5</ele><time>2026-04-18T09:50:22.002Z</time></trkpt><trkpt lat="45.51915623468054" lon="10.976216563863318"><ele>539.0</ele><time>2026-04-18T09:50:24.002Z</time></trkpt><trkpt lat="45.519125303840504" lon="10.97610586912317"><ele>539.0</ele><time>2026-04-18T09:50:26.003Z</time></trkpt><trkpt lat="45.51910576213475" lon="10.975983293844441"><ele>539.0</ele><time>2026-04-18T09:50:29Z</time></trkpt><trkpt lat="45.51909150855921" lon="10.975860636756925"><ele>539.0</ele><time>2026-04-18T09:50:58Z</time></trkpt><trkpt lat="45.5190402685747" lon="10.975784343585905"><ele>539.0</ele><time>2026-04-18T09:51:01Z</time></trkpt><trkpt lat="45.519019789960055" lon="10.975675439287274"><ele>539.0</ele><time>2026-04-18T09:51:04Z</time></trkpt><trkpt lat="45.51903495705359" lon="10.975565082332963"><ele>539.0</ele><time>2026-04-18T09:51:06Z</time></trkpt><trkpt lat="45.519074155455456" lon="10.975466741825441"><ele>537.0</ele><time>2026-04-18T09:51:10.001Z</time></trkpt><trkpt lat="45.51911288479959" lon="10.975384595694953"><ele>535.0</ele><time>2026-04-18T09:51:12.001Z</time></trkpt><trkpt lat="45.519166298738305" lon="10.97530535601677"><ele>533.0</ele><time>2026-04-18T09:51:14.001Z</time></trkpt><trkpt lat="45.51928100694015" lon="10.975290448152887"><ele>531.0</ele><time>2026-04-18T09:51:16.001Z</time></trkpt><trkpt lat="45.51934779566343" lon="10.975258983456074"><ele>529.0</ele><time>2026-04-18T09:51:17.001Z</time></trkpt><trkpt lat="45.51944986145587" lon="10.975133865013774"><ele>529.0</ele><time>2026-04-18T09:51:19.001Z</time></trkpt><trkpt lat="45.51950716952829" lon="10.975067064007503"><ele>529.0</ele><time>2026-04-18T09:51:20.001Z</time></trkpt><trkpt lat="45.51957098030401" lon="10.975044510748445"><ele>529.0</ele><time>2026-04-18T09:51:21.001Z</time></trkpt><trkpt lat="45.519664542193276" lon="10.97502772611302"><ele>529.0</ele><time>2026-04-18T09:51:23.001Z</time></trkpt><trkpt lat="45.5198106114857" lon="10.97502812680292"><ele>529.0</ele><time>2026-04-18T09:51:26.001Z</time></trkpt><trkpt lat="45.51989044439775" lon="10.975051944536034"><ele>525.4</ele><time>2026-04-18T09:51:27.001Z</time></trkpt><trkpt lat="45.51997404743032" lon="10.975091136889024"><ele>521.8</ele><time>2026-04-18T09:51:28.001Z</time></trkpt><trkpt lat="45.520077439883615" lon="10.975159181825628"><ele>518.2</ele><time>2026-04-18T09:51:30.001Z</time></trkpt><trkpt lat="45.520151480739706" lon="10.975181612300032"><ele>514.6</ele><time>2026-04-18T09:51:32.001Z</time></trkpt><trkpt lat="45.52024575119047" lon="10.974977369124204"><ele>511.0</ele><time>2026-04-18T09:51:33.001Z</time></trkpt><trkpt lat="45.52034920615277" lon="10.974889979800459"><ele>510.6666666666667</ele><time>2026-04-18T09:51:46.001Z</time></trkpt><trkpt lat="45.52041916697346" lon="10.974843266916078"><ele>510.33333333333337</ele><time>2026-04-18T09:51:51.001Z</time></trkpt><trkpt lat="45.52047241843014" lon="10.974794309745834"><ele>510.0</ele><time>2026-04-18T09:51:57.002Z</time></trkpt><trkpt lat="45.520531907170074" lon="10.974747712975859"><ele>509.66666666666663</ele><time>2026-04-18T09:51:59.002Z</time></trkpt><trkpt lat="45.520621586531426" lon="10.974819198651248"><ele>509.3333333333333</ele><time>2026-04-18T09:52:01.002Z</time></trkpt><trkpt lat="45.520700767415285" lon="10.974888460051652"><ele>509.0</ele><time>2026-04-18T09:52:03.002Z</time></trkpt><trkpt lat="45.52077413031332" lon="10.974908514107273"><ele>508.99999999999994</ele><time>2026-04-18T09:52:06.002Z</time></trkpt><trkpt lat="45.52082507970115" lon="10.974853258797394"><ele>509.0</ele><time>2026-04-18T09:52:07.002Z</time></trkpt><trkpt lat="45.52090772941129" lon="10.974841698267149"><ele>509.0</ele><time>2026-04-18T09:52:10.002Z</time></trkpt><trkpt lat="45.520997495944584" lon="10.97490494981622"><ele>509.0</ele><time>2026-04-18T09:52:12.002Z</time></trkpt><trkpt lat="45.52105916334526" lon="10.974944019866737"><ele>508.99999999999994</ele><time>2026-04-18T09:52:14.002Z</time></trkpt><trkpt lat="45.521144012447174" lon="10.974986392684944"><ele>509.0</ele><time>2026-04-18T09:52:17.002Z</time></trkpt><trkpt lat="45.52120592630108" lon="10.975027336334067"><ele>509.2</ele><time>2026-04-18T09:52:19.002Z</time></trkpt><trkpt lat="45.521283594105" lon="10.975085446931502"><ele>509.4</ele><time>2026-04-18T09:52:21.002Z</time></trkpt><trkpt lat="45.521374949156304" lon="10.975137011517447"><ele>509.6</ele><time>2026-04-18T09:52:23.002Z</time></trkpt><trkpt lat="45.521466816990454" lon="10.975200587635165"><ele>509.8</ele><time>2026-04-18T09:52:25.002Z</time></trkpt><trkpt lat="45.5215535528572" lon="10.975202802382864"><ele>510.0</ele><time>2026-04-18T09:52:27.002Z</time></trkpt><trkpt lat="45.52163841816357" lon="10.975162979547589"><ele>510.0</ele><time>2026-04-18T09:52:29.002Z</time></trkpt><trkpt lat="45.52172832423686" lon="10.975209931285407"><ele>510.0</ele><time>2026-04-18T09:52:31.002Z</time></trkpt><trkpt lat="45.52179239232408" lon="10.975210974233402"><ele>510.0</ele><time>2026-04-18T09:52:33.002Z</time></trkpt><trkpt lat="45.52184544671283" lon="10.975148919006205"><ele>510.0</ele><time>2026-04-18T09:52:35Z</time></trkpt><trkpt lat="45.52185578968825" lon="10.975047421251196"><ele>510.0</ele><time>2026-04-18T09:52:37Z</time></trkpt><trkpt lat="45.521894104662216" lon="10.974915511814675"><ele>510.0</ele><time>2026-04-18T09:52:39Z</time></trkpt><trkpt lat="45.52198123409673" lon="10.974819107727063"><ele>513.0</ele><time>2026-04-18T09:52:41Z</time></trkpt><trkpt lat="45.5220439076552" lon="10.97477660069261"><ele>516.0</ele><time>2026-04-18T09:52:42Z</time></trkpt><trkpt lat="45.52214502261125" lon="10.974730146557665"><ele>519.0</ele><time>2026-04-18T09:52:44Z</time></trkpt><trkpt lat="45.52227429895996" lon="10.974751839442416"><ele>522.0</ele><time>2026-04-18T09:52:46Z</time></trkpt><trkpt lat="45.5223908270248" lon="10.974693329880008"><ele>525.0</ele><time>2026-04-18T09:52:48Z</time></trkpt><trkpt lat="45.522442757939764" lon="10.974629251397518"><ele>526.8</ele><time>2026-04-18T09:52:49Z</time></trkpt><trkpt lat="45.522485955926356" lon="10.97448747239259"><ele>528.6</ele><time>2026-04-18T09:52:51Z</time></trkpt><trkpt lat="45.522547163067635" lon="10.974364141680889"><ele>530.4</ele><time>2026-04-18T09:52:53Z</time></trkpt><trkpt lat="45.52265317995402" lon="10.974269098306117"><ele>532.2</ele><time>2026-04-18T09:52:55Z</time></trkpt><trkpt lat="45.52273345557523" lon="10.974249656184362"><ele>534.0</ele><time>2026-04-18T09:52:56Z</time></trkpt><trkpt lat="45.52283909210039" lon="10.97420831399808"><ele>536.4</ele><time>2026-04-18T09:52:57Z</time></trkpt><trkpt lat="45.52292392863085" lon="10.974158386492816"><ele>538.8</ele><time>2026-04-18T09:52:58Z</time></trkpt><trkpt lat="45.52300450036595" lon="10.974089627073775"><ele>541.2</ele><time>2026-04-18T09:52:59Z</time></trkpt><trkpt lat="45.52308320233203" lon="10.974018616854014"><ele>543.6</ele><time>2026-04-18T09:53:00Z</time></trkpt><trkpt lat="45.523181273680855" lon="10.973954552281057"><ele>546.0</ele><time>2026-04-18T09:53:01Z</time></trkpt><trkpt lat="45.523290841273386" lon="10.973892668582112"><ele>546.0</ele><time>2026-04-18T09:53:02Z</time></trkpt><trkpt lat="45.52337539706134" lon="10.97382787446168"><ele>546.0</ele><time>2026-04-18T09:53:03Z</time></trkpt><trkpt lat="45.523458071435094" lon="10.973771492052736"><ele>546.0</ele><time>2026-04-18T09:53:04Z</time></trkpt><trkpt lat="45.523531468197504" lon="10.973690764935226"><ele>546.0</ele><time>2026-04-18T09:53:05Z</time></trkpt><trkpt lat="45.52360482195985" lon="10.973586880245708"><ele>546.0</ele><time>2026-04-18T09:53:06Z</time></trkpt><trkpt lat="45.52368450301107" lon="10.973489467653229"><ele>546.5</ele><time>2026-04-18T09:53:07Z</time></trkpt><trkpt lat="45.52375781875842" lon="10.973433092936908"><ele>547.0</ele><time>2026-04-18T09:53:08.001Z</time></trkpt><trkpt lat="45.52382560193453" lon="10.973404060179497"><ele>547.5</ele><time>2026-04-18T09:53:09.001Z</time></trkpt><trkpt lat="45.52390616481361" lon="10.973397963387177"><ele>548.0</ele><time>2026-04-18T09:53:10.001Z</time></trkpt><trkpt lat="45.52402456310485" lon="10.973415013152403"><ele>548.5</ele><time>2026-04-18T09:53:11.001Z</time></trkpt><trkpt lat="45.52411926088862" lon="10.973425939541896"><ele>549.0</ele><time>2026-04-18T09:53:12.001Z</time></trkpt><trkpt lat="45.524198674206076" lon="10.973441486254396"><ele>549.0</ele><time>2026-04-18T09:53:13.001Z</time></trkpt><trkpt lat="45.52427139319447" lon="10.973463505213202"><ele>549.0</ele><time>2026-04-18T09:53:14.001Z</time></trkpt><trkpt lat="45.52433526584991" lon="10.973519884715643"><ele>549.0</ele><time>2026-04-18T09:53:15.001Z</time></trkpt><trkpt lat="45.52440259068938" lon="10.973583399851943"><ele>549.0</ele><time>2026-04-18T09:53:17.001Z</time></trkpt><trkpt lat="45.524427660583626" lon="10.973681672475688"><ele>549.0</ele><time>2026-04-18T09:53:19.001Z</time></trkpt><trkpt lat="45.52446766227724" lon="10.97379557925476"><ele>549.0</ele><time>2026-04-18T09:53:21.001Z</time></trkpt><trkpt lat="45.52450981132948" lon="10.973871284110471"><ele>550.25</ele><time>2026-04-18T09:53:23.001Z</time></trkpt><trkpt lat="45.52467040930247" lon="10.97394806344611"><ele>551.5</ele><time>2026-04-18T09:53:26.001Z</time></trkpt><trkpt lat="45.524733394189965" lon="10.973993243548154"><ele>552.75</ele><time>2026-04-18T09:53:27.001Z</time></trkpt><trkpt lat="45.52484641719426" lon="10.974014580541178"><ele>554.0</ele><time>2026-04-18T09:53:29.001Z</time></trkpt><trkpt lat="45.52495369465383" lon="10.974070999181135"><ele>554.0</ele><time>2026-04-18T09:53:31.001Z</time></trkpt><trkpt lat="45.52499825613567" lon="10.974138393127188"><ele>554.0</ele><time>2026-04-18T09:53:32.001Z</time></trkpt><trkpt lat="45.525068696563395" lon="10.974198123950979"><ele>554.0</ele><time>2026-04-18T09:53:33.001Z</time></trkpt><trkpt lat="45.52512912599566" lon="10.974238515728064"><ele>554.0</ele><time>2026-04-18T09:53:34.001Z</time></trkpt><trkpt lat="45.52523385083977" lon="10.974297393548442"><ele>554.0</ele><time>2026-04-18T09:53:36.001Z</time></trkpt><trkpt lat="45.52531213645779" lon="10.97433248517678"><ele>554.0</ele><time>2026-04-18T09:53:37.001Z</time></trkpt><trkpt lat="45.525380534676046" lon="10.974375055207851"><ele>553.5</ele><time>2026-04-18T09:53:38.001Z</time></trkpt><trkpt lat="45.525459203042544" lon="10.974421124320635"><ele>553.0</ele><time>2026-04-18T09:53:39.001Z</time></trkpt><trkpt lat="45.52554025724964" lon="10.974460076827615"><ele>552.5</ele><time>2026-04-18T09:53:40.001Z</time></trkpt><trkpt lat="45.52561817302609" lon="10.974505098182084"><ele>552.0</ele><time>2026-04-18T09:53:41.001Z</time></trkpt><trkpt lat="45.525685774134345" lon="10.97457099949203"><ele>551.5</ele><time>2026-04-18T09:53:42.001Z</time></trkpt><trkpt lat="45.52573730510677" lon="10.974632677248364"><ele>551.0</ele><time>2026-04-18T09:53:43.001Z</time></trkpt><trkpt lat="45.525807756489655" lon="10.974688090664717"><ele>551.0</ele><time>2026-04-18T09:53:44.001Z</time></trkpt><trkpt lat="45.52587517890075" lon="10.974763048019366"><ele>551.0</ele><time>2026-04-18T09:53:45.001Z</time></trkpt><trkpt lat="45.52593367913581" lon="10.974820906897511"><ele>551.0</ele><time>2026-04-18T09:53:46.001Z</time></trkpt><trkpt lat="45.52598421506007" lon="10.974874584186873"><ele>551.0</ele><time>2026-04-18T09:53:47.001Z</time></trkpt><trkpt lat="45.526056417173834" lon="10.97500152898013"><ele>551.0</ele><time>2026-04-18T09:53:49.001Z</time></trkpt><trkpt lat="45.52611886041112" lon="10.975096334332079"><ele>551.0</ele><time>2026-04-18T09:53:51.001Z</time></trkpt><trkpt lat="45.52616490234653" lon="10.975216799600545"><ele>551.4</ele><time>2026-04-18T09:53:53.002Z</time></trkpt><trkpt lat="45.52620111643591" lon="10.975302614356195"><ele>551.8</ele><time>2026-04-18T09:53:54.002Z</time></trkpt><trkpt lat="45.52623110742383" lon="10.975385831435338"><ele>552.1999999999999</ele><time>2026-04-18T09:53:55.002Z</time></trkpt><trkpt lat="45.526250690946675" lon="10.975543028412812"><ele>552.6</ele><time>2026-04-18T09:53:57.002Z</time></trkpt><trkpt lat="45.5262945274369" lon="10.975708432615718"><ele>553.0</ele><time>2026-04-18T09:53:59.002Z</time></trkpt><trkpt lat="45.52633043571768" lon="10.975869580015507"><ele>550.4285714285714</ele><time>2026-04-18T09:54:01.002Z</time></trkpt><trkpt lat="45.526367242785994" lon="10.975956372993522"><ele>547.8571428571429</ele><time>2026-04-18T09:54:02.002Z</time></trkpt><trkpt lat="45.52641543119808" lon="10.976036749484958"><ele>545.2857142857142</ele><time>2026-04-18T09:54:03.002Z</time></trkpt><trkpt lat="45.526467506275715" lon="10.976090589549818"><ele>542.7142857142858</ele><time>2026-04-18T09:54:04.002Z</time></trkpt><trkpt lat="45.52651771629774" lon="10.976169975481922"><ele>540.1428571428571</ele><time>2026-04-18T09:54:05.002Z</time></trkpt><trkpt lat="45.526586279954664" lon="10.97620865856118"><ele>537.5714285714286</ele><time>2026-04-18T09:54:06.002Z</time></trkpt><trkpt lat="45.526643324512435" lon="10.97626704057826"><ele>535.0</ele><time>2026-04-18T09:54:07.002Z</time></trkpt><trkpt lat="45.52671292691756" lon="10.976306504726619"><ele>535.0</ele><time>2026-04-18T09:54:08.002Z</time></trkpt><trkpt lat="45.52678046235756" lon="10.976367425471281"><ele>535.0</ele><time>2026-04-18T09:54:09.002Z</time></trkpt><trkpt lat="45.5268497092284" lon="10.976414816922722"><ele>535.0</ele><time>2026-04-18T09:54:10.002Z</time></trkpt><trkpt lat="45.5269226440452" lon="10.97645455737367"><ele>535.0</ele><time>2026-04-18T09:54:11.002Z</time></trkpt><trkpt lat="45.527030305679276" lon="10.97649533363102"><ele>535.0</ele><time>2026-04-18T09:54:12.002Z</time></trkpt><trkpt lat="45.52711696945433" lon="10.976515490373004"><ele>535.0</ele><time>2026-04-18T09:54:13.002Z</time></trkpt><trkpt lat="45.52721479778487" lon="10.976523998581625"><ele>536.0</ele><time>2026-04-18T09:54:14.002Z</time></trkpt><trkpt lat="45.52730182602236" lon="10.976564967764125"><ele>537.0</ele><time>2026-04-18T09:54:15.002Z</time></trkpt><trkpt lat="45.52736957406909" lon="10.976589915357124"><ele>538.0</ele><time>2026-04-18T09:54:16.002Z</time></trkpt><trkpt lat="45.52743916445759" lon="10.976587361849525"><ele>539.0</ele><time>2026-04-18T09:54:17.002Z</time></trkpt><trkpt lat="45.52750049485717" lon="10.976623086894802"><ele>540.0</ele><time>2026-04-18T09:54:18.002Z</time></trkpt><trkpt lat="45.527564794361126" lon="10.97664796310135"><ele>541.0</ele><time>2026-04-18T09:54:19.002Z</time></trkpt><trkpt lat="45.52765774872205" lon="10.976704019499891"><ele>541.2</ele><time>2026-04-18T09:54:21.002Z</time></trkpt><trkpt lat="45.527617022682335" lon="10.976783580717944"><ele>541.4000000000001</ele><time>2026-04-18T09:54:22.002Z</time></trkpt><trkpt lat="45.527582002789785" lon="10.976979622906626"><ele>541.6</ele><time>2026-04-18T09:55:06Z</time></trkpt><trkpt lat="45.527554212289985" lon="10.977081563028138"><ele>541.8000000000001</ele><time>2026-04-18T09:55:07Z</time></trkpt><trkpt lat="45.527517064014035" lon="10.97721782866746"><ele>542.0</ele><time>2026-04-18T09:55:08Z</time></trkpt><trkpt lat="45.52748315177255" lon="10.977342224229218"><ele>542.0</ele><time>2026-04-18T09:55:09Z</time></trkpt><trkpt lat="45.527446260237106" lon="10.977477548480836"><ele>542.0</ele><time>2026-04-18T09:55:10Z</time></trkpt><trkpt lat="45.52740142768875" lon="10.9776390913086"><ele>542.0</ele><time>2026-04-18T09:55:11Z</time></trkpt><trkpt lat="45.52735346397138" lon="10.977797275987022"><ele>542.0</ele><time>2026-04-18T09:55:12Z</time></trkpt><trkpt lat="45.52730715156961" lon="10.977952020669553"><ele>542.2</ele><time>2026-04-18T09:55:13Z</time></trkpt><trkpt lat="45.52726170729194" lon="10.978109405432386"><ele>542.4000000000001</ele><time>2026-04-18T09:55:14Z</time></trkpt><trkpt lat="45.52718033484228" lon="10.978337302843594"><ele>542.5999999999999</ele><time>2026-04-18T09:55:15Z</time></trkpt><trkpt lat="45.52713136614938" lon="10.978424983695511"><ele>542.8</ele><time>2026-04-18T09:55:16Z</time></trkpt><trkpt lat="45.52709222583068" lon="10.978498882337917"><ele>543.0</ele><time>2026-04-18T09:55:17.001Z</time></trkpt><trkpt lat="45.52704426086165" lon="10.978589585901416"><ele>543.0</ele><time>2026-04-18T09:55:18.001Z</time></trkpt><trkpt lat="45.526999598335586" lon="10.978720872824862"><ele>543.0</ele><time>2026-04-18T09:55:20.001Z</time></trkpt><trkpt lat="45.52690343180605" lon="10.97899279195657"><ele>543.0</ele><time>2026-04-18T09:55:22.001Z</time></trkpt><trkpt lat="45.52674626364359" lon="10.979259706177814"><ele>542.4</ele><time>2026-04-18T09:55:23.001Z</time></trkpt><trkpt lat="45.52667855039583" lon="10.97934970043213"><ele>541.8</ele><time>2026-04-18T09:55:24.001Z</time></trkpt><trkpt lat="45.526619653906735" lon="10.979427978422178"><ele>541.2</ele><time>2026-04-18T09:55:25.001Z</time></trkpt><trkpt lat="45.52655117187003" lon="10.979518996335853"><ele>540.6</ele><time>2026-04-18T09:55:26.001Z</time></trkpt><trkpt lat="45.5264722597702" lon="10.97957221124232"><ele>540.0</ele><time>2026-04-18T09:55:27.001Z</time></trkpt><trkpt lat="45.526078876339675" lon="10.979116160268706"><ele>537.0</ele><time>2026-04-18T09:55:28.001Z</time></trkpt><trkpt lat="45.52602448881656" lon="10.979227497323851"><ele>534.0</ele><time>2026-04-18T09:55:30.001Z</time></trkpt><trkpt lat="45.525949412970036" lon="10.979308107200822"><ele>531.0</ele><time>2026-04-18T09:55:32.001Z</time></trkpt><trkpt lat="45.52590036122442" lon="10.979375349867528"><ele>528.0</ele><time>2026-04-18T09:55:33.001Z</time></trkpt><trkpt lat="45.525795000165324" lon="10.979470951506725"><ele>525.0</ele><time>2026-04-18T09:55:35.001Z</time></trkpt><trkpt lat="45.52572493630404" lon="10.979511734056517"><ele>525.0</ele><time>2026-04-18T09:55:36.001Z</time></trkpt><trkpt lat="45.52565340699864" lon="10.979548678775103"><ele>525.0</ele><time>2026-04-18T09:55:37.001Z</time></trkpt><trkpt lat="45.525589805378836" lon="10.979572256434272"><ele>525.0</ele><time>2026-04-18T09:55:38.001Z</time></trkpt><trkpt lat="45.52548596610014" lon="10.979617705481946"><ele>525.0</ele><time>2026-04-18T09:55:40.001Z</time></trkpt><trkpt lat="45.52543061900471" lon="10.97969563636528"><ele>525.0</ele><time>2026-04-18T09:55:43.001Z</time></trkpt><trkpt lat="45.52545523619612" lon="10.979803365653856"><ele>525.0</ele><time>2026-04-18T09:55:45.001Z</time></trkpt><trkpt lat="45.52539594343772" lon="10.979901468665014"><ele>523.6</ele><time>2026-04-18T09:55:47.001Z</time></trkpt><trkpt lat="45.525279522081796" lon="10.979887282861101"><ele>522.2</ele><time>2026-04-18T09:55:49.001Z</time></trkpt><trkpt lat="45.52517671347979" lon="10.979878007854893"><ele>520.8</ele><time>2026-04-18T09:55:50.001Z</time></trkpt><trkpt lat="45.52509622830782" lon="10.979884177267248"><ele>519.4</ele><time>2026-04-18T09:55:51.001Z</time></trkpt><trkpt lat="45.52498938343807" lon="10.979951218079005"><ele>518.0</ele><time>2026-04-18T09:55:53.001Z</time></trkpt><trkpt lat="45.524898465889876" lon="10.98000051050252"><ele>518.5</ele><time>2026-04-18T09:55:54.001Z</time></trkpt><trkpt lat="45.524818092405155" lon="10.980053773735786"><ele>519.0</ele><time>2026-04-18T09:55:55.001Z</time></trkpt><trkpt lat="45.52475672970711" lon="10.980113600797479"><ele>519.5</ele><time>2026-04-18T09:55:56.001Z</time></trkpt><trkpt lat="45.52468114206418" lon="10.9801624521461"><ele>520.0</ele><time>2026-04-18T09:55:57.001Z</time></trkpt><trkpt lat="45.52461684955183" lon="10.98017011151121"><ele>520.5</ele><time>2026-04-18T09:55:58.001Z</time></trkpt><trkpt lat="45.52449959801616" lon="10.980133654614686"><ele>521.0</ele><time>2026-04-18T09:56:00.001Z</time></trkpt><trkpt lat="45.52442398402111" lon="10.980129553775113"><ele>521.0</ele><time>2026-04-18T09:56:01.002Z</time></trkpt><trkpt lat="45.52431521900211" lon="10.980125793931661"><ele>521.0</ele><time>2026-04-18T09:56:03.002Z</time></trkpt><trkpt lat="45.52420138385436" lon="10.980182136210779"><ele>521.0</ele><time>2026-04-18T09:56:05.002Z</time></trkpt><trkpt lat="45.52414088290913" lon="10.980213117676204"><ele>521.0</ele><time>2026-04-18T09:56:06.002Z</time></trkpt><trkpt lat="45.524069599557805" lon="10.980260769207197"><ele>521.0</ele><time>2026-04-18T09:56:07.002Z</time></trkpt><trkpt lat="45.524001327243006" lon="10.980283058388784"><ele>521.0</ele><time>2026-04-18T09:56:08.002Z</time></trkpt><trkpt lat="45.5239115732482" lon="10.980307579449402"><ele>521.0</ele><time>2026-04-18T09:56:09.002Z</time></trkpt><trkpt lat="45.523807680983396" lon="10.98034845938818"><ele>521.0</ele><time>2026-04-18T09:56:10.002Z</time></trkpt><trkpt lat="45.52370838077061" lon="10.980336801425835"><ele>521.0</ele><time>2026-04-18T09:56:11.002Z</time></trkpt><trkpt lat="45.52361325420748" lon="10.980297474464338"><ele>521.0</ele><time>2026-04-18T09:56:12.002Z</time></trkpt><trkpt lat="45.523514352574864" lon="10.980260153365961"><ele>521.0</ele><time>2026-04-18T09:56:13.002Z</time></trkpt><trkpt lat="45.52341535298981" lon="10.980231053433469"><ele>521.5</ele><time>2026-04-18T09:56:14.002Z</time></trkpt><trkpt lat="45.523310297123956" lon="10.98017999208393"><ele>522.0</ele><time>2026-04-18T09:56:15.002Z</time></trkpt><trkpt lat="45.52320072960166" lon="10.980106765339448"><ele>522.5</ele><time>2026-04-18T09:56:16.002Z</time></trkpt><trkpt lat="45.52308118711412" lon="10.98007227760232"><ele>523.0</ele><time>2026-04-18T09:56:17.002Z</time></trkpt><trkpt lat="45.52298023270159" lon="10.980037634704882"><ele>520.0</ele><time>2026-04-18T09:56:18.002Z</time></trkpt><trkpt lat="45.522875063157784" lon="10.980003175837703"><ele>517.0</ele><time>2026-04-18T09:56:19.002Z</time></trkpt><trkpt lat="45.52276683244967" lon="10.979978703649419"><ele>514.0</ele><time>2026-04-18T09:56:20.002Z</time></trkpt><trkpt lat="45.52265565801341" lon="10.979961907778508"><ele>511.0</ele><time>2026-04-18T09:56:21.002Z</time></trkpt><trkpt lat="45.52258011049405" lon="10.979964184998048"><ele>508.0</ele><time>2026-04-18T09:56:22.002Z</time></trkpt><trkpt lat="45.52248630799446" lon="10.979954033756872"><ele>508.0</ele><time>2026-04-18T09:56:23.002Z</time></trkpt><trkpt lat="45.52240107614733" lon="10.979979312695137"><ele>507.99999999999994</ele><time>2026-04-18T09:56:24.002Z</time></trkpt><trkpt lat="45.52230757388311" lon="10.98002677694325"><ele>507.99999999999994</ele><time>2026-04-18T09:56:25.002Z</time></trkpt><trkpt lat="45.52222434986651" lon="10.980064133051236"><ele>508.0</ele><time>2026-04-18T09:56:26.002Z</time></trkpt><trkpt lat="45.52214177865481" lon="10.980086069638363"><ele>508.0</ele><time>2026-04-18T09:56:28.002Z</time></trkpt><trkpt lat="45.522194179308975" lon="10.980208586558813"><ele>510.2</ele><time>2026-04-18T09:56:37.002Z</time></trkpt><trkpt lat="45.5222159133958" lon="10.980301496888888"><ele>512.4</ele><time>2026-04-18T09:56:38.002Z</time></trkpt><trkpt lat="45.52221463591458" lon="10.980457595845618"><ele>514.5999999999999</ele><time>2026-04-18T09:56:40.002Z</time></trkpt><trkpt lat="45.52223567712394" lon="10.980597516716323"><ele>516.8</ele><time>2026-04-18T09:56:41.002Z</time></trkpt><trkpt lat="45.5222594007669" lon="10.980775195720064"><ele>519.0</ele><time>2026-04-18T09:56:42.002Z</time></trkpt><trkpt lat="45.52227811090406" lon="10.980988269366474"><ele>519.0</ele><time>2026-04-18T09:56:43.002Z</time></trkpt><trkpt lat="45.52229507582768" lon="10.981183857188899"><ele>519.0</ele><time>2026-04-18T09:56:44.002Z</time></trkpt><trkpt lat="45.522320621794606" lon="10.98136904496239"><ele>519.0</ele><time>2026-04-18T09:56:45.003Z</time></trkpt><trkpt lat="45.522367311370644" lon="10.98156002244688"><ele>519.0</ele><time>2026-04-18T09:56:46Z</time></trkpt><trkpt lat="45.522434666012494" lon="10.981760680455071"><ele>518.0</ele><time>2026-04-18T09:56:47Z</time></trkpt><trkpt lat="45.52250078980851" lon="10.981957418870106"><ele>517.0</ele><time>2026-04-18T09:56:48Z</time></trkpt><trkpt lat="45.52257687976536" lon="10.98214201081071"><ele>516.0</ele><time>2026-04-18T09:56:49Z</time></trkpt><trkpt lat="45.522643298351085" lon="10.982300653624545"><ele>515.0</ele><time>2026-04-18T09:56:50Z</time></trkpt><trkpt lat="45.522710035561495" lon="10.982464521565857"><ele>514.0</ele><time>2026-04-18T09:56:51Z</time></trkpt><trkpt lat="45.522784915615176" lon="10.982620304098916"><ele>513.0</ele><time>2026-04-18T09:56:52Z</time></trkpt><trkpt lat="45.522836001922165" lon="10.982770663583386"><ele>512.0</ele><time>2026-04-18T09:56:53Z</time></trkpt><trkpt lat="45.522887091638836" lon="10.982910384813072"><ele>511.0</ele><time>2026-04-18T09:56:54Z</time></trkpt><trkpt lat="45.522925118816836" lon="10.983084731349358"><ele>514.25</ele><time>2026-04-18T09:56:55Z</time></trkpt><trkpt lat="45.52294479018723" lon="10.983254642352632"><ele>517.5</ele><time>2026-04-18T09:56:56Z</time></trkpt><trkpt lat="45.52295913367224" lon="10.983428767593733"><ele>520.75</ele><time>2026-04-18T09:56:57Z</time></trkpt><trkpt lat="45.52295615107491" lon="10.983614793502312"><ele>524.0</ele><time>2026-04-18T09:56:58Z</time></trkpt><trkpt lat="45.52293932585935" lon="10.983809802112152"><ele>524.75</ele><time>2026-04-18T09:56:59Z</time></trkpt><trkpt lat="45.52291940129957" lon="10.984000275144641"><ele>525.5</ele><time>2026-04-18T09:57:00Z</time></trkpt><trkpt lat="45.52290667052034" lon="10.984190225810888"><ele>526.25</ele><time>2026-04-18T09:57:01Z</time></trkpt><trkpt lat="45.52287271917695" lon="10.98437085910895"><ele>527.0</ele><time>2026-04-18T09:57:02Z</time></trkpt><trkpt lat="45.52284428001994" lon="10.984525273770235"><ele>525.5</ele><time>2026-04-18T09:57:03Z</time></trkpt><trkpt lat="45.522822597131174" lon="10.984652707872321"><ele>524.0</ele><time>2026-04-18T09:57:04Z</time></trkpt><trkpt lat="45.522793072934704" lon="10.984753029863683"><ele>522.5</ele><time>2026-04-18T09:57:05Z</time></trkpt><trkpt lat="45.52278233789088" lon="10.984879799501723"><ele>521.0</ele><time>2026-04-18T09:57:07Z</time></trkpt><trkpt lat="45.52299337067415" lon="10.984993382087508"><ele>519.4</ele><time>2026-04-18T09:57:12Z</time></trkpt><trkpt lat="45.52309050134248" lon="10.98504781322058"><ele>517.8</ele><time>2026-04-18T09:57:13Z</time></trkpt><trkpt lat="45.52316406029482" lon="10.985146810763883"><ele>516.1999999999999</ele><time>2026-04-18T09:57:14Z</time></trkpt><trkpt lat="45.52323169316074" lon="10.985279791335177"><ele>514.6</ele><time>2026-04-18T09:57:15Z</time></trkpt><trkpt lat="45.52330813158157" lon="10.98538668930196"><ele>513.0</ele><time>2026-04-18T09:57:16Z</time></trkpt><trkpt lat="45.52339173555496" lon="10.985465144947266"><ele>513.0</ele><time>2026-04-18T09:57:17Z</time></trkpt><trkpt lat="45.52346641181605" lon="10.985528793914924"><ele>513.0</ele><time>2026-04-18T09:57:18Z</time></trkpt><trkpt lat="45.523529505937404" lon="10.985588116138732"><ele>513.0</ele><time>2026-04-18T09:57:19Z</time></trkpt><trkpt lat="45.52360125088928" lon="10.985727777205309"><ele>513.0</ele><time>2026-04-18T09:57:21Z</time></trkpt><trkpt lat="45.523596009455844" lon="10.985833926613985"><ele>513.0</ele><time>2026-04-18T09:57:22Z</time></trkpt><trkpt lat="45.523550610112345" lon="10.98594775308087"><ele>515.4</ele><time>2026-04-18T09:57:23.001Z</time></trkpt><trkpt lat="45.523475872885655" lon="10.986037614409579"><ele>517.8</ele><time>2026-04-18T09:57:24.001Z</time></trkpt><trkpt lat="45.52336788957731" lon="10.986108079959095"><ele>520.2</ele><time>2026-04-18T09:57:25.001Z</time></trkpt><trkpt lat="45.52326170425676" lon="10.98614831296837"><ele>522.6</ele><time>2026-04-18T09:57:26.001Z</time></trkpt><trkpt lat="45.523169595243736" lon="10.98621492249193"><ele>525.0</ele><time>2026-04-18T09:57:27.001Z</time></trkpt><trkpt lat="45.523090255757864" lon="10.98631441043377"><ele>525.0</ele><time>2026-04-18T09:57:28.001Z</time></trkpt><trkpt lat="45.52298952131127" lon="10.986431780284216"><ele>525.0</ele><time>2026-04-18T09:57:29.001Z</time></trkpt><trkpt lat="45.52286547062781" lon="10.986565872472925"><ele>525.0</ele><time>2026-04-18T09:57:30.001Z</time></trkpt><trkpt lat="45.52271610013808" lon="10.986709895288055"><ele>526.3333333333334</ele><time>2026-04-18T09:57:31.001Z</time></trkpt><trkpt lat="45.52256912826292" lon="10.986834422594193"><ele>527.6666666666667</ele><time>2026-04-18T09:57:32.001Z</time></trkpt><trkpt lat="45.52242538332913" lon="10.98693149128969"><ele>529.0</ele><time>2026-04-18T09:57:33.001Z</time></trkpt><trkpt lat="45.52230323144177" lon="10.987034463451245"><ele>529.0</ele><time>2026-04-18T09:57:34.001Z</time></trkpt><trkpt lat="45.52217506362641" lon="10.987137278528131"><ele>529.0</ele><time>2026-04-18T09:57:35.001Z</time></trkpt><trkpt lat="45.52205391475248" lon="10.987198044790285"><ele>529.0</ele><time>2026-04-18T09:57:36.001Z</time></trkpt><trkpt lat="45.52191408186681" lon="10.987210879755521"><ele>529.0</ele><time>2026-04-18T09:57:37.001Z</time></trkpt><trkpt lat="45.521781451014085" lon="10.987197977147732"><ele>526.2</ele><time>2026-04-18T09:57:38.001Z</time></trkpt><trkpt lat="45.52166978139213" lon="10.987182648431826"><ele>523.4</ele><time>2026-04-18T09:57:39.001Z</time></trkpt><trkpt lat="45.52157256697024" lon="10.987189957317266"><ele>520.6</ele><time>2026-04-18T09:57:40.001Z</time></trkpt><trkpt lat="45.52147975674787" lon="10.987233065374586"><ele>517.8</ele><time>2026-04-18T09:57:41.001Z</time></trkpt><trkpt lat="45.52138467320761" lon="10.987322283893894"><ele>515.0</ele><time>2026-04-18T09:57:42.001Z</time></trkpt><trkpt lat="45.521284530349526" lon="10.987450129894773"><ele>514.25</ele><time>2026-04-18T09:57:43.001Z</time></trkpt><trkpt lat="45.52120189012008" lon="10.987566078789726"><ele>513.5</ele><time>2026-04-18T09:57:44.001Z</time></trkpt><trkpt lat="45.52111192546646" lon="10.98768539084067"><ele>512.75</ele><time>2026-04-18T09:57:45.001Z</time></trkpt><trkpt lat="45.52103337076926" lon="10.987830088140635"><ele>512.0</ele><time>2026-04-18T09:57:46.001Z</time></trkpt><trkpt lat="45.52097924118" lon="10.987998352403453"><ele>512.0</ele><time>2026-04-18T09:57:47.001Z</time></trkpt><trkpt lat="45.520962264190935" lon="10.988173796031232"><ele>512.0</ele><time>2026-04-18T09:57:48.001Z</time></trkpt><trkpt lat="45.52097221347922" lon="10.98834991718187"><ele>512.0</ele><time>2026-04-18T09:57:49.001Z</time></trkpt><trkpt lat="45.52100030092648" lon="10.988526972944404"><ele>512.0</ele><time>2026-04-18T09:57:50.001Z</time></trkpt><trkpt lat="45.52103656298806" lon="10.98866792579184"><ele>511.6</ele><time>2026-04-18T09:57:51.001Z</time></trkpt><trkpt lat="45.521056340514825" lon="10.988797697261349"><ele>511.20000000000005</ele><time>2026-04-18T09:57:52.001Z</time></trkpt><trkpt lat="45.52107296214548" lon="10.988926556165953"><ele>510.8</ele><time>2026-04-18T09:57:53.001Z</time></trkpt><trkpt lat="45.52109561697159" lon="10.989063554484217"><ele>510.4</ele><time>2026-04-18T09:57:54.001Z</time></trkpt><trkpt lat="45.52112795248286" lon="10.98923059208592"><ele>510.0</ele><time>2026-04-18T09:57:55.001Z</time></trkpt><trkpt lat="45.5211664057452" lon="10.989402644075788"><ele>509.4</ele><time>2026-04-18T09:57:56.001Z</time></trkpt><trkpt lat="45.521201718336556" lon="10.98955026117083"><ele>508.8</ele><time>2026-04-18T09:57:57.001Z</time></trkpt><trkpt lat="45.521229567086564" lon="10.989695488940406"><ele>508.20000000000005</ele><time>2026-04-18T09:57:58.001Z</time></trkpt><trkpt lat="45.52125727809011" lon="10.98981425551885"><ele>507.6</ele><time>2026-04-18T09:57:59.001Z</time></trkpt><trkpt lat="45.52128884257342" lon="10.989901839842044"><ele>507.0</ele><time>2026-04-18T09:58:00.001Z</time></trkpt><trkpt lat="45.5213198285933" lon="10.990031366219752"><ele>506.40000000000003</ele><time>2026-04-18T09:58:02.001Z</time></trkpt><trkpt lat="45.521298366802895" lon="10.990177755339985"><ele>505.80000000000007</ele><time>2026-04-18T09:58:04.001Z</time></trkpt><trkpt lat="45.521240006339184" lon="10.990343306160442"><ele>505.2</ele><time>2026-04-18T09:58:06.001Z</time></trkpt><trkpt lat="45.52121946870554" lon="10.990434856323894"><ele>504.6</ele><time>2026-04-18T09:58:07.002Z</time></trkpt><trkpt lat="45.52123021902002" lon="10.990536162087894"><ele>504.0</ele><time>2026-04-18T09:58:08.002Z</time></trkpt><trkpt lat="45.521237111557944" lon="10.990655190188619"><ele>503.3333333333333</ele><time>2026-04-18T09:58:09.002Z</time></trkpt><trkpt lat="45.521228431558235" lon="10.990766923188037"><ele>502.66666666666663</ele><time>2026-04-18T09:58:10.002Z</time></trkpt><trkpt lat="45.521189346651845" lon="10.990927721839908"><ele>502.0</ele><time>2026-04-18T09:58:12.002Z</time></trkpt><trkpt lat="45.521142824013886" lon="10.991003908631358"><ele>501.3333333333333</ele><time>2026-04-18T09:58:14.002Z</time></trkpt><trkpt lat="45.521144348324455" lon="10.991097520168536"><ele>500.66666666666663</ele><time>2026-04-18T09:58:18.002Z</time></trkpt><trkpt lat="45.52123238752901" lon="10.991116517160151"><ele>500.0</ele><time>2026-04-18T09:58:21.002Z</time></trkpt><trkpt lat="45.521338328788545" lon="10.991064093674051"><ele>496.5</ele><time>2026-04-18T09:58:23.002Z</time></trkpt><trkpt lat="45.52142053791936" lon="10.991134546787999"><ele>493.0</ele><time>2026-04-18T09:58:26.002Z</time></trkpt><trkpt lat="45.52148287620728" lon="10.991230141754317"><ele>489.5</ele><time>2026-04-18T09:58:28.002Z</time></trkpt><trkpt lat="45.521534556638755" lon="10.991411146426833"><ele>486.0</ele><time>2026-04-18T09:58:30.002Z</time></trkpt><trkpt lat="45.521596276591644" lon="10.991572520590255"><ele>483.8333333333333</ele><time>2026-04-18T09:58:32.002Z</time></trkpt><trkpt lat="45.52165093784932" lon="10.99168021586848"><ele>481.66666666666663</ele><time>2026-04-18T09:58:34.002Z</time></trkpt><trkpt lat="45.52170674502355" lon="10.991815232613254"><ele>479.5</ele><time>2026-04-18T09:58:36.002Z</time></trkpt><trkpt lat="45.52173586330708" lon="10.99190487241535"><ele>477.3333333333333</ele><time>2026-04-18T09:58:37.002Z</time></trkpt><trkpt lat="45.52177029933952" lon="10.992004100508488"><ele>475.16666666666663</ele><time>2026-04-18T09:58:38.002Z</time></trkpt><trkpt lat="45.52180769767225" lon="10.992096711009825"><ele>473.0</ele><time>2026-04-18T09:58:39.002Z</time></trkpt><trkpt lat="45.52186427516407" lon="10.992212696030867"><ele>473.0</ele><time>2026-04-18T09:58:41.002Z</time></trkpt><trkpt lat="45.5218787805406" lon="10.992323600632112"><ele>473.0</ele><time>2026-04-18T09:58:44.002Z</time></trkpt><trkpt lat="45.52183506096687" lon="10.992389607340273"><ele>473.0</ele><time>2026-04-18T09:58:46.002Z</time></trkpt><trkpt lat="45.521825027746544" lon="10.992481857761598"><ele>473.0</ele><time>2026-04-18T09:58:49.002Z</time></trkpt><trkpt lat="45.52176123269488" lon="10.992535307974215"><ele>473.0</ele><time>2026-04-18T09:58:52Z</time></trkpt><trkpt lat="45.521795187491435" lon="10.992612315310737"><ele>473.0</ele><time>2026-04-18T09:58:57Z</time></trkpt><trkpt lat="45.52185016451768" lon="10.992666374393345"><ele>473.0</ele><time>2026-04-18T09:58:58Z</time></trkpt><trkpt lat="45.52191927820586" lon="10.99271300682345"><ele>470.75</ele><time>2026-04-18T09:58:59Z</time></trkpt><trkpt lat="45.52201553771813" lon="10.992785208235198"><ele>468.5</ele><time>2026-04-18T09:59:01Z</time></trkpt><trkpt lat="45.52215251694665" lon="10.992803067415245"><ele>466.25</ele><time>2026-04-18T09:59:03Z</time></trkpt><trkpt lat="45.522269019896264" lon="10.992905758910005"><ele>464.0</ele><time>2026-04-18T09:59:05Z</time></trkpt><trkpt lat="45.52233149762236" lon="10.99300710888214"><ele>464.0</ele><time>2026-04-18T09:59:07Z</time></trkpt><trkpt lat="45.522395459730575" lon="10.993012151539858"><ele>464.0</ele><time>2026-04-18T09:59:08Z</time></trkpt><trkpt lat="45.52248203642619" lon="10.993083556615128"><ele>464.0</ele><time>2026-04-18T09:59:10Z</time></trkpt><trkpt lat="45.522582783565625" lon="10.9931929183346"><ele>464.0</ele><time>2026-04-18T09:59:12Z</time></trkpt><trkpt lat="45.522654790226845" lon="10.993264600094781"><ele>464.0</ele><time>2026-04-18T09:59:13Z</time></trkpt><trkpt lat="45.522711511063086" lon="10.99333081640555"><ele>461.79999999999995</ele><time>2026-04-18T09:59:14Z</time></trkpt><trkpt lat="45.52280604696796" lon="10.99341118908022"><ele>459.59999999999997</ele><time>2026-04-18T09:59:16Z</time></trkpt><trkpt lat="45.52285365756678" lon="10.993534957937765"><ele>457.4</ele><time>2026-04-18T09:59:18Z</time></trkpt><trkpt lat="45.52292970635915" lon="10.993664412759633"><ele>455.2</ele><time>2026-04-18T09:59:20Z</time></trkpt><trkpt lat="45.52301816937479" lon="10.993762668591534"><ele>453.0</ele><time>2026-04-18T09:59:22.001Z</time></trkpt><trkpt lat="45.52309966446583" lon="10.993876658556234"><ele>453.0</ele><time>2026-04-18T09:59:24.001Z</time></trkpt><trkpt lat="45.52312808701739" lon="10.993986026776037"><ele>453.0</ele><time>2026-04-18T09:59:26.001Z</time></trkpt><trkpt lat="45.52317680960308" lon="10.994077565526558"><ele>453.0</ele><time>2026-04-18T09:59:28.001Z</time></trkpt><trkpt lat="45.52326784375422" lon="10.994105927760515"><ele>453.0</ele><time>2026-04-18T09:59:30.001Z</time></trkpt><trkpt lat="45.52337734239013" lon="10.99410997851988"><ele>453.0</ele><time>2026-04-18T09:59:32.001Z</time></trkpt><trkpt lat="45.52344008827057" lon="10.994084006875559"><ele>453.0</ele><time>2026-04-18T09:59:34.001Z</time></trkpt><trkpt lat="45.52349162978302" lon="10.994010512302381"><ele>453.0</ele><time>2026-04-18T09:59:37.001Z</time></trkpt><trkpt lat="45.523547367655176" lon="10.993948152288853"><ele>453.0</ele><time>2026-04-18T09:59:40.001Z</time></trkpt><trkpt lat="45.5236221097958" lon="10.993902568602023"><ele>453.0</ele><time>2026-04-18T09:59:43.001Z</time></trkpt><trkpt lat="45.523696986189314" lon="10.993836413128342"><ele>453.0</ele><time>2026-04-18T09:59:46.001Z</time></trkpt><trkpt lat="45.523773202300696" lon="10.993768477396262"><ele>453.0</ele><time>2026-04-18T09:59:49.001Z</time></trkpt><trkpt lat="45.52384224654298" lon="10.993763100997"><ele>453.0</ele><time>2026-04-18T09:59:52.001Z</time></trkpt><trkpt lat="45.523906268277926" lon="10.993826789776342"><ele>453.79999999999995</ele><time>2026-04-18T09:59:55.001Z</time></trkpt><trkpt lat="45.52387218276204" lon="10.99395846964416"><ele>454.59999999999997</ele><time>2026-04-18T09:59:57.001Z</time></trkpt><trkpt lat="45.52389634322077" lon="10.994050525561207"><ele>455.40000000000003</ele><time>2026-04-18T09:59:58.001Z</time></trkpt><trkpt lat="45.523901058926185" lon="10.994193854016512"><ele>456.20000000000005</ele><time>2026-04-18T10:00:00.001Z</time></trkpt><trkpt lat="45.5238967183484" lon="10.994297832330357"><ele>457.0</ele><time>2026-04-18T10:00:03.001Z</time></trkpt><trkpt lat="45.5240077161942" lon="10.994212819238227"><ele>457.0</ele><time>2026-04-18T10:05:48.001Z</time></trkpt><trkpt lat="45.52406824073317" lon="10.994249801707713"><ele>457.00000000000006</ele><time>2026-04-18T10:06:26.001Z</time></trkpt><trkpt lat="45.52411964682096" lon="10.994309752052587"><ele>457.00000000000006</ele><time>2026-04-18T10:06:38.002Z</time></trkpt><trkpt lat="45.52418297421875" lon="10.994326475371238"><ele>457.0</ele><time>2026-04-18T10:06:46.002Z</time></trkpt><trkpt lat="45.52430427292686" lon="10.994232887688103"><ele>457.0</ele><time>2026-04-18T10:06:52.002Z</time></trkpt><trkpt lat="45.52444987585924" lon="10.994161528400161"><ele>460.50000000000006</ele><time>2026-04-18T10:08:00.001Z</time></trkpt><trkpt lat="45.5245774476705" lon="10.9941273929315"><ele>464.0</ele><time>2026-04-18T10:08:05.001Z</time></trkpt><trkpt lat="45.5246177496309" lon="10.994034721770932"><ele>467.5</ele><time>2026-04-18T10:08:09.001Z</time></trkpt><trkpt lat="45.52467636049877" lon="10.993996623322465"><ele>471.0</ele><time>2026-04-18T10:08:12.001Z</time></trkpt><trkpt lat="45.52475164734063" lon="10.994015236254164"><ele>474.50000000000006</ele><time>2026-04-18T10:08:15.001Z</time></trkpt><trkpt lat="45.524826582816125" lon="10.994058829910495"><ele>478.0</ele><time>2026-04-18T10:08:18.001Z</time></trkpt><trkpt lat="45.524893441796486" lon="10.994048310448363"><ele>478.00000000000006</ele><time>2026-04-18T10:08:21.001Z</time></trkpt><trkpt lat="45.52496329313253" lon="10.994023614256728"><ele>478.0</ele><time>2026-04-18T10:08:33.001Z</time></trkpt><trkpt lat="45.525053115388445" lon="10.994016843119907"><ele>478.0</ele><time>2026-04-18T10:08:55.001Z</time></trkpt><trkpt lat="45.52514803967085" lon="10.993926550837035"><ele>478.0</ele><time>2026-04-18T10:12:28Z</time></trkpt><trkpt lat="45.52522756682603" lon="10.993914967084265"><ele>478.00000000000006</ele><time>2026-04-18T10:15:36.001Z</time></trkpt><trkpt lat="45.525274713677994" lon="10.993844084520525"><ele>478.0</ele><time>2026-04-18T10:15:39.001Z</time></trkpt><trkpt lat="45.52533251067997" lon="10.993797970334231"><ele>480.33333333333337</ele><time>2026-04-18T10:15:42.001Z</time></trkpt><trkpt lat="45.52540769772716" lon="10.993834670853778"><ele>482.6666666666667</ele><time>2026-04-18T10:15:45.001Z</time></trkpt><trkpt lat="45.525530722683264" lon="10.99386198796389"><ele>485.0</ele><time>2026-04-18T10:15:49.001Z</time></trkpt><trkpt lat="45.52558205747671" lon="10.993924664012873"><ele>487.33333333333337</ele><time>2026-04-18T10:15:53.001Z</time></trkpt><trkpt lat="45.52564599323428" lon="10.993932556652926"><ele>489.6666666666667</ele><time>2026-04-18T10:15:55.001Z</time></trkpt><trkpt lat="45.525716109101566" lon="10.99391979366463"><ele>492.0</ele><time>2026-04-18T10:15:57Z</time></trkpt><trkpt lat="45.52578072713491" lon="10.993887061335428"><ele>492.00000000000006</ele><time>2026-04-18T10:16:00Z</time></trkpt><trkpt lat="45.52584218772202" lon="10.993923386955093"><ele>492.0</ele><time>2026-04-18T10:16:07Z</time></trkpt><trkpt lat="45.52591461704424" lon="10.99398269371979"><ele>492.00000000000006</ele><time>2026-04-18T10:16:11Z</time></trkpt><trkpt lat="45.52598212920209" lon="10.994010444680567"><ele>492.00000000000006</ele><time>2026-04-18T10:16:13Z</time></trkpt><trkpt lat="45.52605479042927" lon="10.993966462779484"><ele>492.0</ele><time>2026-04-18T10:16:15Z</time></trkpt><trkpt lat="45.52612362497387" lon="10.99396769264147"><ele>492.00000000000006</ele><time>2026-04-18T10:16:18Z</time></trkpt><trkpt lat="45.52619515317015" lon="10.994012243929399"><ele>492.00000000000006</ele><time>2026-04-18T10:16:21Z</time></trkpt><trkpt lat="45.526279895239234" lon="10.994057175758774"><ele>494.20000000000005</ele><time>2026-04-18T10:16:24Z</time></trkpt><trkpt lat="45.52633857211525" lon="10.994113269083925"><ele>496.40000000000003</ele><time>2026-04-18T10:16:26Z</time></trkpt><trkpt lat="45.526504861469704" lon="10.994060030221549"><ele>498.59999999999997</ele><time>2026-04-18T10:16:30Z</time></trkpt><trkpt lat="45.526594515300744" lon="10.994051041883916"><ele>500.79999999999995</ele><time>2026-04-18T10:16:32.001Z</time></trkpt><trkpt lat="45.526692708625866" lon="10.994032087852705"><ele>503.0</ele><time>2026-04-18T10:16:35.001Z</time></trkpt><trkpt lat="45.526708217035804" lon="10.993934116179561"><ele>502.99999999999994</ele><time>2026-04-18T10:16:38.001Z</time></trkpt><trkpt lat="45.526673460348924" lon="10.993805948458938"><ele>503.0</ele><time>2026-04-18T10:16:41.001Z</time></trkpt><trkpt lat="45.52673103675234" lon="10.993759193770982"><ele>503.0</ele><time>2026-04-18T10:16:44.001Z</time></trkpt><trkpt lat="45.52681262955636" lon="10.993679511368626"><ele>503.0</ele><time>2026-04-18T10:16:47.001Z</time></trkpt><trkpt lat="45.52689057089872" lon="10.993642990750907"><ele>502.99999999999994</ele><time>2026-04-18T10:16:49.001Z</time></trkpt><trkpt lat="45.52696359101662" lon="10.993659028993806"><ele>503.0</ele><time>2026-04-18T10:16:51.001Z</time></trkpt><trkpt lat="45.527016426723556" lon="10.993737848890461"><ele>505.49999999999994</ele><time>2026-04-18T10:16:53.001Z</time></trkpt><trkpt lat="45.527099596138186" lon="10.993729205964726"><ele>508.0</ele><time>2026-04-18T10:16:57.001Z</time></trkpt><trkpt lat="45.52718784174734" lon="10.993735263991596"><ele>510.5</ele><time>2026-04-18T10:16:59.001Z</time></trkpt><trkpt lat="45.52724520533224" lon="10.993649086421627"><ele>513.0</ele><time>2026-04-18T10:17:02.001Z</time></trkpt><trkpt lat="45.52731386977564" lon="10.993593159207345"><ele>515.5</ele><time>2026-04-18T10:17:04.001Z</time></trkpt><trkpt lat="45.527385026057125" lon="10.993549370530767"><ele>518.0</ele><time>2026-04-18T10:17:06.001Z</time></trkpt><trkpt lat="45.527514078262044" lon="10.993513149152259"><ele>518.0</ele><time>2026-04-18T10:17:11.001Z</time></trkpt><trkpt lat="45.52757128601825" lon="10.993465539182894"><ele>518.0</ele><time>2026-04-18T10:17:15.001Z</time></trkpt><trkpt lat="45.527657033522814" lon="10.993445628298545"><ele>518.0</ele><time>2026-04-18T10:17:19.001Z</time></trkpt><trkpt lat="45.52773826597444" lon="10.993387944924805"><ele>518.0</ele><time>2026-04-18T10:17:22.001Z</time></trkpt><trkpt lat="45.52779092131535" lon="10.993293580022877"><ele>518.0</ele><time>2026-04-18T10:17:24.001Z</time></trkpt><trkpt lat="45.527820209604734" lon="10.993178851546334"><ele>518.0</ele><time>2026-04-18T10:17:27.001Z</time></trkpt><trkpt lat="45.52788971120842" lon="10.993158870620187"><ele>523.0</ele><time>2026-04-18T10:17:29.001Z</time></trkpt><trkpt lat="45.527978614208756" lon="10.993219714812763"><ele>528.0</ele><time>2026-04-18T10:17:32.001Z</time></trkpt><trkpt lat="45.528059058384706" lon="10.993189814329298"><ele>533.0</ele><time>2026-04-18T10:17:36.001Z</time></trkpt><trkpt lat="45.52812084372173" lon="10.993111114938596"><ele>538.0</ele><time>2026-04-18T10:17:38.001Z</time></trkpt><trkpt lat="45.528256262088114" lon="10.993096831393517"><ele>543.0</ele><time>2026-04-18T10:17:54Z</time></trkpt><trkpt lat="45.52831398197097" lon="10.99301908097994"><ele>543.0</ele><time>2026-04-18T10:17:56Z</time></trkpt><trkpt lat="45.528350452191724" lon="10.992941596662547"><ele>543.0</ele><time>2026-04-18T10:17:59Z</time></trkpt><trkpt lat="45.528362565227305" lon="10.992826851441212"><ele>543.0</ele><time>2026-04-18T10:18:01Z</time></trkpt><trkpt lat="45.52836031509681" lon="10.992707410878085"><ele>543.0</ele><time>2026-04-18T10:18:04Z</time></trkpt><trkpt lat="45.52837080607774" lon="10.992590187312954"><ele>543.0</ele><time>2026-04-18T10:18:06Z</time></trkpt><trkpt lat="45.52842737840969" lon="10.992535485783574"><ele>543.0</ele><time>2026-04-18T10:18:09Z</time></trkpt><trkpt lat="45.52852907222221" lon="10.992584795133327"><ele>543.0</ele><time>2026-04-18T10:18:12Z</time></trkpt><trkpt lat="45.52861189286983" lon="10.99256216137883"><ele>543.0</ele><time>2026-04-18T10:18:14Z</time></trkpt><trkpt lat="45.528685076805026" lon="10.992655649446325"><ele>543.0</ele><time>2026-04-18T10:18:17Z</time></trkpt><trkpt lat="45.528781419632956" lon="10.992714977109873"><ele>543.0</ele><time>2026-04-18T10:18:19Z</time></trkpt><trkpt lat="45.52884326808626" lon="10.99274250034993"><ele>543.0</ele><time>2026-04-18T10:18:20Z</time></trkpt><trkpt lat="45.528908837658754" lon="10.992779055481233"><ele>543.0</ele><time>2026-04-18T10:18:21Z</time></trkpt><trkpt lat="45.52900200569068" lon="10.992841165309157"><ele>543.8333333333334</ele><time>2026-04-18T10:18:23Z</time></trkpt><trkpt lat="45.52905928623531" lon="10.99293935289787"><ele>544.6666666666666</ele><time>2026-04-18T10:18:25Z</time></trkpt><trkpt lat="45.52910308452725" lon="10.993017944084087"><ele>545.5</ele><time>2026-04-18T10:18:27Z</time></trkpt><trkpt lat="45.529160993929736" lon="10.993120003859696"><ele>546.3333333333333</ele><time>2026-04-18T10:18:29Z</time></trkpt><trkpt lat="45.529188716401876" lon="10.993217096536249"><ele>547.1666666666666</ele><time>2026-04-18T10:18:30Z</time></trkpt><trkpt lat="45.52922018509659" lon="10.993345911698178"><ele>548.0</ele><time>2026-04-18T10:18:31Z</time></trkpt><trkpt lat="45.52924436179773" lon="10.993458558260762"><ele>548.0</ele><time>2026-04-18T10:18:32Z</time></trkpt><trkpt lat="45.52927872831984" lon="10.993606236583148"><ele>548.0</ele><time>2026-04-18T10:18:34Z</time></trkpt><trkpt lat="45.529285167889185" lon="10.99370367420575"><ele>548.0</ele><time>2026-04-18T10:18:36Z</time></trkpt><trkpt lat="45.52929641495958" lon="10.993868927699234"><ele>548.0</ele><time>2026-04-18T10:18:38Z</time></trkpt><trkpt lat="45.52929802255651" lon="10.99401148950863"><ele>548.0</ele><time>2026-04-18T10:18:40Z</time></trkpt><trkpt lat="45.52928240762049" lon="10.994101935864858"><ele>548.0000000000001</ele><time>2026-04-18T10:18:43Z</time></trkpt><trkpt lat="45.529360567034956" lon="10.994191355337101"><ele>548.0</ele><time>2026-04-18T10:18:50Z</time></trkpt><trkpt lat="45.52939408965336" lon="10.994273354988005"><ele>548.0</ele><time>2026-04-18T10:21:40.001Z</time></trkpt><trkpt lat="45.529413957245026" lon="10.994365513889086"><ele>548.0</ele><time>2026-04-18T10:21:42.001Z</time></trkpt><trkpt lat="45.52937124082488" lon="10.994276619250668"><ele>548.0</ele><time>2026-04-18T10:21:55.001Z</time></trkpt><trkpt lat="45.5293569509676" lon="10.994176065379818"><ele>548.0000000000001</ele><time>2026-04-18T10:21:58Z</time></trkpt><trkpt lat="45.52930222204069" lon="10.994131220470496"><ele>548.0</ele><time>2026-04-18T10:22:02Z</time></trkpt><trkpt lat="45.52931570859698" lon="10.994011891377315"><ele>548.0</ele><time>2026-04-18T10:22:04Z</time></trkpt><trkpt lat="45.529324076169445" lon="10.993814934037514"><ele>548.0</ele><time>2026-04-18T10:22:06Z</time></trkpt><trkpt lat="45.5293115098433" lon="10.993706196445306"><ele>548.0</ele><time>2026-04-18T10:22:07Z</time></trkpt><trkpt lat="45.52929439772834" lon="10.993580992372667"><ele>548.0</ele><time>2026-04-18T10:22:08Z</time></trkpt><trkpt lat="45.529275516118155" lon="10.993443121472723"><ele>548.0</ele><time>2026-04-18T10:22:09Z</time></trkpt><trkpt lat="45.52926002310258" lon="10.99329856510658"><ele>549.6</ele><time>2026-04-18T10:22:10Z</time></trkpt><trkpt lat="45.529221772867494" lon="10.993148037060125"><ele>551.1999999999999</ele><time>2026-04-18T10:22:11Z</time></trkpt><trkpt lat="45.529194705135836" lon="10.993014726923093"><ele>552.8</ele><time>2026-04-18T10:22:12Z</time></trkpt><trkpt lat="45.529132840235576" lon="10.9929095222998"><ele>554.4</ele><time>2026-04-18T10:22:13Z</time></trkpt><trkpt lat="45.529050835622066" lon="10.992828891446557"><ele>556.0</ele><time>2026-04-18T10:22:14Z</time></trkpt><trkpt lat="45.528969965574234" lon="10.992763605542242"><ele>556.0</ele><time>2026-04-18T10:22:15Z</time></trkpt><trkpt lat="45.528891348391866" lon="10.992711726050162"><ele>556.0</ele><time>2026-04-18T10:22:16Z</time></trkpt><trkpt lat="45.52882679469578" lon="10.992671270665687"><ele>556.0</ele><time>2026-04-18T10:22:17Z</time></trkpt><trkpt lat="45.52873638082271" lon="10.992610058676545"><ele>556.0</ele><time>2026-04-18T10:22:19Z</time></trkpt><trkpt lat="45.52868001826567" lon="10.99255905581478"><ele>556.0</ele><time>2026-04-18T10:26:29Z</time></trkpt><trkpt lat="45.52874057479601" lon="10.992613178370682"><ele>556.0</ele><time>2026-04-18T10:26:40Z</time></trkpt><trkpt lat="45.52897021894265" lon="10.992254552568935"><ele>556.0</ele><time>2026-04-18T10:26:42Z</time></trkpt><trkpt lat="45.5290064366986" lon="10.992823232525978"><ele>556.0</ele><time>2026-04-18T10:26:43Z</time></trkpt><trkpt lat="45.529070197317914" lon="10.992900078521961"><ele>556.0</ele><time>2026-04-18T10:26:44Z</time></trkpt><trkpt lat="45.52911991120277" lon="10.992989623166288"><ele>556.0</ele><time>2026-04-18T10:26:45Z</time></trkpt><trkpt lat="45.52916446288296" lon="10.993093790880371"><ele>556.0</ele><time>2026-04-18T10:26:46Z</time></trkpt><trkpt lat="45.52920571515305" lon="10.993181872698072"><ele>556.0</ele><time>2026-04-18T10:26:47Z</time></trkpt><trkpt lat="45.529229466367646" lon="10.993272285146661"><ele>556.0</ele><time>2026-04-18T10:26:48Z</time></trkpt><trkpt lat="45.529246477307424" lon="10.993372461713747"><ele>556.0</ele><time>2026-04-18T10:26:49Z</time></trkpt><trkpt lat="45.52927017655712" lon="10.993522606928222"><ele>554.4</ele><time>2026-04-18T10:26:51Z</time></trkpt><trkpt lat="45.52930471734706" lon="10.993685745557968"><ele>552.8</ele><time>2026-04-18T10:26:53Z</time></trkpt><trkpt lat="45.529307141972275" lon="10.993843881304292"><ele>551.1999999999999</ele><time>2026-04-18T10:26:55Z</time></trkpt><trkpt lat="45.529311829955624" lon="10.993997557753799"><ele>549.6</ele><time>2026-04-18T10:26:57Z</time></trkpt><trkpt lat="45.52931784802856" lon="10.994092852858959"><ele>548.0</ele><time>2026-04-18T10:27:00Z</time></trkpt><trkpt lat="45.52937039392699" lon="10.994182868509016"><ele>546.4</ele><time>2026-04-18T10:27:04Z</time></trkpt><trkpt lat="45.52938261923475" lon="10.994301079066894"><ele>544.8</ele><time>2026-04-18T10:27:06Z</time></trkpt><trkpt lat="45.5294332818365" lon="10.994427124561984"><ele>543.2</ele><time>2026-04-18T10:27:08Z</time></trkpt><trkpt lat="45.52950125895307" lon="10.994522147534196"><ele>541.6</ele><time>2026-04-18T10:27:10Z</time></trkpt><trkpt lat="45.529609455820534" lon="10.994538092822822"><ele>540.0</ele><time>2026-04-18T10:27:12.001Z</time></trkpt><trkpt lat="45.5296875040376" lon="10.994514766007756"><ele>538.1666666666666</ele><time>2026-04-18T10:27:13.001Z</time></trkpt><trkpt lat="45.529765204931465" lon="10.994465981847428"><ele>536.3333333333334</ele><time>2026-04-18T10:27:14.001Z</time></trkpt><trkpt lat="45.5298407706435" lon="10.994430388062693"><ele>534.5</ele><time>2026-04-18T10:27:15.001Z</time></trkpt><trkpt lat="45.52991030862614" lon="10.994386983067562"><ele>532.6666666666667</ele><time>2026-04-18T10:27:16.001Z</time></trkpt><trkpt lat="45.5299992965827" lon="10.99426488672322"><ele>530.8333333333334</ele><time>2026-04-18T10:27:18.001Z</time></trkpt><trkpt lat="45.53006641652105" lon="10.99418977162709"><ele>529.0</ele><time>2026-04-18T10:27:19.001Z</time></trkpt><trkpt lat="45.53014184969065" lon="10.99412624203727"><ele>531.3333333333334</ele><time>2026-04-18T10:27:20.001Z</time></trkpt><trkpt lat="45.530229758819495" lon="10.994085682467972"><ele>533.6666666666667</ele><time>2026-04-18T10:27:21.001Z</time></trkpt><trkpt lat="45.530294397830765" lon="10.994029572555952"><ele>536.0</ele><time>2026-04-18T10:27:22.001Z</time></trkpt><trkpt lat="45.5303887778644" lon="10.993947143027125"><ele>538.3333333333334</ele><time>2026-04-18T10:27:23.001Z</time></trkpt><trkpt lat="45.53045876193223" lon="10.993912755012195"><ele>540.6666666666666</ele><time>2026-04-18T10:27:24.001Z</time></trkpt><trkpt lat="45.5305359302819" lon="10.993893693616352"><ele>543.0</ele><time>2026-04-18T10:27:25.001Z</time></trkpt><trkpt lat="45.5306287393633" lon="10.993759638536932"><ele>543.0</ele><time>2026-04-18T10:27:27.001Z</time></trkpt><trkpt lat="45.53070757557872" lon="10.993653917447709"><ele>543.0</ele><time>2026-04-18T10:27:28.001Z</time></trkpt><trkpt lat="45.53078500119436" lon="10.99356205262486"><ele>543.0</ele><time>2026-04-18T10:27:29.001Z</time></trkpt><trkpt lat="45.53085030310105" lon="10.993505474092142"><ele>543.0</ele><time>2026-04-18T10:27:30.001Z</time></trkpt><trkpt lat="45.53090557022021" lon="10.993450268441464"><ele>543.0</ele><time>2026-04-18T10:27:31.001Z</time></trkpt><trkpt lat="45.53096285560374" lon="10.993381377909389"><ele>543.0</ele><time>2026-04-18T10:27:32.001Z</time></trkpt><trkpt lat="45.531020435413886" lon="10.993290216463121"><ele>544.0</ele><time>2026-04-18T10:27:33.001Z</time></trkpt><trkpt lat="45.53109296612039" lon="10.993227805348265"><ele>545.0</ele><time>2026-04-18T10:27:34.001Z</time></trkpt><trkpt lat="45.53115484420387" lon="10.99316943266574"><ele>546.0</ele><time>2026-04-18T10:27:35.001Z</time></trkpt><trkpt lat="45.53122636363228" lon="10.993072028517311"><ele>547.0</ele><time>2026-04-18T10:27:36.001Z</time></trkpt><trkpt lat="45.53130595005002" lon="10.992963540032157"><ele>548.0</ele><time>2026-04-18T10:27:37.001Z</time></trkpt><trkpt lat="45.531356631741396" lon="10.992858192530177"><ele>548.0</ele><time>2026-04-18T10:27:38.001Z</time></trkpt><trkpt lat="45.53141860493631" lon="10.99277068136224"><ele>548.0</ele><time>2026-04-18T10:27:39.001Z</time></trkpt><trkpt lat="45.53146389487306" lon="10.992656781741829"><ele>548.0</ele><time>2026-04-18T10:27:40.001Z</time></trkpt><trkpt lat="45.53149460288744" lon="10.992568739912924"><ele>548.0</ele><time>2026-04-18T10:27:41.001Z</time></trkpt><trkpt lat="45.53151335063863" lon="10.992474446205927"><ele>548.0</ele><time>2026-04-18T10:27:42.001Z</time></trkpt><trkpt lat="45.531555514036114" lon="10.99239727029422"><ele>548.0</ele><time>2026-04-18T10:27:43.001Z</time></trkpt><trkpt lat="45.53166997504783" lon="10.992359091524749"><ele>548.0</ele><time>2026-04-18T10:27:45.001Z</time></trkpt><trkpt lat="45.53174326648981" lon="10.992389671033436"><ele>548.0</ele><time>2026-04-18T10:27:46.001Z</time></trkpt><trkpt lat="45.53183053449139" lon="10.992420527142686"><ele>548.0</ele><time>2026-04-18T10:27:47.001Z</time></trkpt><trkpt lat="45.53189642158903" lon="10.992432507751168"><ele>548.0</ele><time>2026-04-18T10:27:48.001Z</time></trkpt><trkpt lat="45.53197450068965" lon="10.992463728397034"><ele>548.0</ele><time>2026-04-18T10:27:50.001Z</time></trkpt><trkpt lat="45.532013776126455" lon="10.9925498210865"><ele>548.0</ele><time>2026-04-18T10:28:07.001Z</time></trkpt><trkpt lat="45.5319808509661" lon="10.992636861738047"><ele>548.0</ele><time>2026-04-18T10:28:09.001Z</time></trkpt><trkpt lat="45.53201133788481" lon="10.992726345567744"><ele>548.0</ele><time>2026-04-18T10:28:23.999Z</time></trkpt><trkpt lat="45.532109629130545" lon="10.992758088384187"><ele>548.0</ele><time>2026-04-18T10:28:25.999Z</time></trkpt><trkpt lat="45.53220164758882" lon="10.992759820520627"><ele>548.0</ele><time>2026-04-18T10:28:27.999Z</time></trkpt><trkpt lat="45.53230246353546" lon="10.992778221339966"><ele>548.0</ele><time>2026-04-18T10:28:29.999Z</time></trkpt><trkpt lat="45.53241252493809" lon="10.992772816347781"><ele>545.5714285714287</ele><time>2026-04-18T10:28:31.999Z</time></trkpt><trkpt lat="45.53247741932456" lon="10.992761611244749"><ele>543.1428571428571</ele><time>2026-04-18T10:28:32.999Z</time></trkpt><trkpt lat="45.53254113267275" lon="10.992756176345683"><ele>540.7142857142858</ele><time>2026-04-18T10:28:33.999Z</time></trkpt><trkpt lat="45.53262803787312" lon="10.992782404688752"><ele>538.2857142857143</ele><time>2026-04-18T10:28:35.999Z</time></trkpt><trkpt lat="45.53270136183986" lon="10.992798488873845"><ele>535.8571428571429</ele><time>2026-04-18T10:28:37.999Z</time></trkpt><trkpt lat="45.53276932171316" lon="10.992802121564242"><ele>533.4285714285714</ele><time>2026-04-18T10:28:38.999Z</time></trkpt><trkpt lat="45.532838984973985" lon="10.992837151502561"><ele>531.0</ele><time>2026-04-18T10:28:39.999Z</time></trkpt><trkpt lat="45.532916745187094" lon="10.992838150289023"><ele>526.6</ele><time>2026-04-18T10:28:40.999Z</time></trkpt><trkpt lat="45.53302691701954" lon="10.99281330962173"><ele>522.2</ele><time>2026-04-18T10:28:43Z</time></trkpt><trkpt lat="45.53311358147935" lon="10.992849332919922"><ele>517.8</ele><time>2026-04-18T10:28:45Z</time></trkpt><trkpt lat="45.53321863409611" lon="10.99288262174726"><ele>513.4</ele><time>2026-04-18T10:28:47Z</time></trkpt><trkpt lat="45.53328853265206" lon="10.992849349716135"><ele>509.0</ele><time>2026-04-18T10:28:48Z</time></trkpt><trkpt lat="45.53336697577135" lon="10.992800200933992"><ele>509.0</ele><time>2026-04-18T10:28:49Z</time></trkpt><trkpt lat="45.53347548514064" lon="10.99280603905218"><ele>509.0</ele><time>2026-04-18T10:28:51Z</time></trkpt><trkpt lat="45.53354755881115" lon="10.992804160292684"><ele>509.0</ele><time>2026-04-18T10:28:52Z</time></trkpt><trkpt lat="45.53364844994547" lon="10.992790306149747"><ele>509.0</ele><time>2026-04-18T10:28:53Z</time></trkpt><trkpt lat="45.53374008907195" lon="10.992774289046624"><ele>509.0</ele><time>2026-04-18T10:28:54Z</time></trkpt><trkpt lat="45.53384238934092" lon="10.992771577554453"><ele>506.2</ele><time>2026-04-18T10:28:55Z</time></trkpt><trkpt lat="45.53391854747962" lon="10.992753267223378"><ele>503.4</ele><time>2026-04-18T10:28:56Z</time></trkpt><trkpt lat="45.53400002049463" lon="10.99273389402809"><ele>500.6</ele><time>2026-04-18T10:28:57Z</time></trkpt><trkpt lat="45.53408986728067" lon="10.992741166385466"><ele>497.8</ele><time>2026-04-18T10:28:59Z</time></trkpt><trkpt lat="45.53422900403911" lon="10.992802463866008"><ele>495.0</ele><time>2026-04-18T10:29:01Z</time></trkpt><trkpt lat="45.53429667208974" lon="10.992807778619449"><ele>495.0</ele><time>2026-04-18T10:29:02Z</time></trkpt><trkpt lat="45.534366520873455" lon="10.992810034491203"><ele>495.0</ele><time>2026-04-18T10:29:03Z</time></trkpt><trkpt lat="45.53444370834146" lon="10.992803960649137"><ele>495.0</ele><time>2026-04-18T10:29:04Z</time></trkpt><trkpt lat="45.534529955939824" lon="10.992800929543357"><ele>495.0</ele><time>2026-04-18T10:29:05Z</time></trkpt><trkpt lat="45.534619888559924" lon="10.992778607568788"><ele>495.0</ele><time>2026-04-18T10:29:06Z</time></trkpt><trkpt lat="45.53473715185704" lon="10.992803323051186"><ele>495.0</ele><time>2026-04-18T10:29:08Z</time></trkpt><trkpt lat="45.534858741420116" lon="10.99275197803259"><ele>492.6</ele><time>2026-04-18T10:29:10Z</time></trkpt><trkpt lat="45.53497981904612" lon="10.992748176979443"><ele>490.2</ele><time>2026-04-18T10:29:12Z</time></trkpt><trkpt lat="45.5350655049641" lon="10.992745560427291"><ele>487.79999999999995</ele><time>2026-04-18T10:29:13Z</time></trkpt><trkpt lat="45.535131477768495" lon="10.992744812872315"><ele>485.4</ele><time>2026-04-18T10:29:14Z</time></trkpt><trkpt lat="45.5351982868394" lon="10.992777429083409"><ele>483.0</ele><time>2026-04-18T10:29:15Z</time></trkpt><trkpt lat="45.53530944843993" lon="10.992833878162516"><ele>483.0</ele><time>2026-04-18T10:29:17Z</time></trkpt><trkpt lat="45.535380560388624" lon="10.9928378054545"><ele>483.0</ele><time>2026-04-18T10:29:18Z</time></trkpt><trkpt lat="45.53544795844989" lon="10.99281691710621"><ele>483.0</ele><time>2026-04-18T10:29:19Z</time></trkpt><trkpt lat="45.53552245996369" lon="10.992786364846026"><ele>483.0</ele><time>2026-04-18T10:29:20Z</time></trkpt><trkpt lat="45.5356041421331" lon="10.992760828516726"><ele>483.0</ele><time>2026-04-18T10:29:21Z</time></trkpt><trkpt lat="45.535710653594926" lon="10.992735334102443"><ele>483.0</ele><time>2026-04-18T10:29:23Z</time></trkpt><trkpt lat="45.535813578977134" lon="10.992691824409546"><ele>481.1666666666667</ele><time>2026-04-18T10:29:25Z</time></trkpt><trkpt lat="45.53589552993086" lon="10.992624319238523"><ele>479.33333333333337</ele><time>2026-04-18T10:29:27Z</time></trkpt><trkpt lat="45.53596948815128" lon="10.992570530913296"><ele>477.5</ele><time>2026-04-18T10:29:30Z</time></trkpt><trkpt lat="45.53606462329923" lon="10.992554792536856"><ele>475.6666666666667</ele><time>2026-04-18T10:29:32Z</time></trkpt><trkpt lat="45.53612072004535" lon="10.992505137426479"><ele>473.83333333333337</ele><time>2026-04-18T10:29:34Z</time></trkpt><trkpt lat="45.536194868968686" lon="10.992437955905924"><ele>472.0</ele><time>2026-04-18T10:29:40Z</time></trkpt><trkpt lat="45.53624492026007" lon="10.992382282060927"><ele>472.00000000000006</ele><time>2026-04-18T10:29:42Z</time></trkpt><trkpt lat="45.53627937515371" lon="10.992259443185151"><ele>472.0</ele><time>2026-04-18T10:29:45Z</time></trkpt><trkpt lat="45.53633002504519" lon="10.992178693181035"><ele>472.0</ele><time>2026-04-18T10:29:47Z</time></trkpt><trkpt lat="45.53637885723492" lon="10.992119313887748"><ele>472.0</ele><time>2026-04-18T10:29:51Z</time></trkpt><trkpt lat="45.536440748955606" lon="10.992023683019621"><ele>472.00000000000006</ele><time>2026-04-18T10:29:54Z</time></trkpt><trkpt lat="45.53647504885279" lon="10.991924263928276"><ele>472.0</ele><time>2026-04-18T10:29:57Z</time></trkpt><trkpt lat="45.53651520969235" lon="10.99182260948444"><ele>472.00000000000006</ele><time>2026-04-18T10:29:59Z</time></trkpt><trkpt lat="45.5365691396534" lon="10.991755967456701"><ele>472.0</ele><time>2026-04-18T10:30:01Z</time></trkpt><trkpt lat="45.53658855172019" lon="10.99166502394135"><ele>472.0</ele><time>2026-04-18T10:30:04Z</time></trkpt><trkpt lat="45.53655683633019" lon="10.991563916942555"><ele>472.0</ele><time>2026-04-18T10:30:07.001Z</time></trkpt><trkpt lat="45.536530530606946" lon="10.991446342588869"><ele>472.00000000000006</ele><time>2026-04-18T10:30:10.001Z</time></trkpt><trkpt lat="45.53648930528071" lon="10.99136236371574"><ele>472.0</ele><time>2026-04-18T10:30:12.001Z</time></trkpt><trkpt lat="45.536444099323006" lon="10.991275001569454"><ele>472.6666666666667</ele><time>2026-04-18T10:30:13.001Z</time></trkpt><trkpt lat="45.53639431260469" lon="10.991205001982788"><ele>473.33333333333337</ele><time>2026-04-18T10:30:14.001Z</time></trkpt><trkpt lat="45.536361946514106" lon="10.991120061736993"><ele>474.0</ele><time>2026-04-18T10:30:16.001Z</time></trkpt><trkpt lat="45.53634416474256" lon="10.9910328114341"><ele>474.66666666666663</ele><time>2026-04-18T10:30:18.001Z</time></trkpt><trkpt lat="45.53633160234351" lon="10.990904639896042"><ele>475.3333333333333</ele><time>2026-04-18T10:30:21.001Z</time></trkpt><trkpt lat="45.53634922638243" lon="10.990787479359726"><ele>476.0</ele><time>2026-04-18T10:30:23.998Z</time></trkpt><trkpt lat="45.536349980723024" lon="10.990681620938071"><ele>476.16666666666663</ele><time>2026-04-18T10:30:26.998Z</time></trkpt><trkpt lat="45.53640076490088" lon="10.990532518282262"><ele>476.3333333333333</ele><time>2026-04-18T10:30:27.998Z</time></trkpt><trkpt lat="45.53643642992235" lon="10.990440441565033"><ele>476.5</ele><time>2026-04-18T10:30:29.998Z</time></trkpt><trkpt lat="45.536461087046305" lon="10.990308569221803"><ele>476.66666666666663</ele><time>2026-04-18T10:30:31.999Z</time></trkpt><trkpt lat="45.536489891471724" lon="10.99021341609914"><ele>476.8333333333333</ele><time>2026-04-18T10:30:32.999Z</time></trkpt><trkpt lat="45.5365334249583" lon="10.99013187149833"><ele>477.0</ele><time>2026-04-18T10:30:34.999Z</time></trkpt><trkpt lat="45.53657166592623" lon="10.990056994645602"><ele>478.71428571428567</ele><time>2026-04-18T10:30:38.999Z</time></trkpt><trkpt lat="45.53660248191166" lon="10.989969681943373"><ele>480.4285714285714</ele><time>2026-04-18T10:30:45.999Z</time></trkpt><trkpt lat="45.53660921539862" lon="10.989861739206276"><ele>482.1428571428571</ele><time>2026-04-18T10:30:49.999Z</time></trkpt><trkpt lat="45.53663863685036" lon="10.98976944233032"><ele>483.8571428571429</ele><time>2026-04-18T10:30:56.999Z</time></trkpt><trkpt lat="45.53669896071803" lon="10.989728685561905"><ele>485.5714285714286</ele><time>2026-04-18T10:31:02Z</time></trkpt><trkpt lat="45.536744949924795" lon="10.989658248499916"><ele>487.28571428571433</ele><time>2026-04-18T10:31:05Z</time></trkpt><trkpt lat="45.53679801630089" lon="10.989579894138096"><ele>489.0</ele><time>2026-04-18T10:31:07Z</time></trkpt><trkpt lat="45.53684931848726" lon="10.98945476131328"><ele>489.0</ele><time>2026-04-18T10:31:09Z</time></trkpt><trkpt lat="45.53688790249054" lon="10.989329169047886"><ele>489.0</ele><time>2026-04-18T10:31:11Z</time></trkpt><trkpt lat="45.53694050215768" lon="10.989252705099734"><ele>489.0</ele><time>2026-04-18T10:31:16Z</time></trkpt><trkpt lat="45.53699862706858" lon="10.98916039168929"><ele>489.0</ele><time>2026-04-18T10:31:19Z</time></trkpt><trkpt lat="45.53703333931592" lon="10.989083142573906"><ele>489.0</ele><time>2026-04-18T10:31:24Z</time></trkpt><trkpt lat="45.537116336171685" lon="10.989005100835692"><ele>489.0</ele><time>2026-04-18T10:31:26Z</time></trkpt><trkpt lat="45.537190821958056" lon="10.988913801318377"><ele>486.8333333333333</ele><time>2026-04-18T10:31:28Z</time></trkpt><trkpt lat="45.537247783237454" lon="10.988833325849773"><ele>484.66666666666663</ele><time>2026-04-18T10:31:30Z</time></trkpt><trkpt lat="45.53730541492066" lon="10.988713452787874"><ele>482.5</ele><time>2026-04-18T10:31:32Z</time></trkpt><trkpt lat="45.5373606376868" lon="10.98861886001361"><ele>480.3333333333333</ele><time>2026-04-18T10:31:33Z</time></trkpt><trkpt lat="45.537420101539574" lon="10.988523424302054"><ele>478.16666666666663</ele><time>2026-04-18T10:31:34Z</time></trkpt><trkpt lat="45.53747526407631" lon="10.988441267321736"><ele>476.0</ele><time>2026-04-18T10:31:35Z</time></trkpt><trkpt lat="45.53751293037448" lon="10.988359197638843"><ele>480.3333333333333</ele><time>2026-04-18T10:31:36Z</time></trkpt><trkpt lat="45.53755146544207" lon="10.988262003450979"><ele>484.66666666666663</ele><time>2026-04-18T10:31:38Z</time></trkpt><trkpt lat="45.53760402013053" lon="10.988194570169536"><ele>489.0</ele><time>2026-04-18T10:31:41Z</time></trkpt><trkpt lat="45.5376589659255" lon="10.988132572167624"><ele>493.33333333333337</ele><time>2026-04-18T10:31:51Z</time></trkpt><trkpt lat="45.53767603302039" lon="10.988033788211329"><ele>497.6666666666667</ele><time>2026-04-18T10:31:57Z</time></trkpt><trkpt lat="45.537701486580225" lon="10.987944764195072"><ele>502.0</ele><time>2026-04-18T10:31:59Z</time></trkpt><trkpt lat="45.5377475468063" lon="10.98781987122668"><ele>502.00000000000006</ele><time>2026-04-18T10:32:01Z</time></trkpt><trkpt lat="45.53780805413122" lon="10.987675621358484"><ele>502.0</ele><time>2026-04-18T10:32:03.001Z</time></trkpt><trkpt lat="45.5378739639277" lon="10.987622393457535"><ele>502.0</ele><time>2026-04-18T10:32:04.001Z</time></trkpt><trkpt lat="45.53793389967637" lon="10.987583890439597"><ele>502.0</ele><time>2026-04-18T10:32:05.001Z</time></trkpt><trkpt lat="45.53794403320022" lon="10.987453835111527"><ele>502.00000000000006</ele><time>2026-04-18T10:32:07.001Z</time></trkpt><trkpt lat="45.537916286000346" lon="10.987341207663038"><ele>502.0</ele><time>2026-04-18T10:32:08.001Z</time></trkpt><trkpt lat="45.53791127122219" lon="10.98724489739726"><ele>501.1666666666667</ele><time>2026-04-18T10:32:09.001Z</time></trkpt><trkpt lat="45.53791377555163" lon="10.987153448459091"><ele>500.33333333333337</ele><time>2026-04-18T10:32:10.001Z</time></trkpt><trkpt lat="45.53793944052364" lon="10.987045870199251"><ele>499.5</ele><time>2026-04-18T10:32:11.001Z</time></trkpt><trkpt lat="45.53796787741132" lon="10.986914267776728"><ele>498.66666666666663</ele><time>2026-04-18T10:32:12.001Z</time></trkpt><trkpt lat="45.53798913117435" lon="10.986773586010978"><ele>497.8333333333333</ele><time>2026-04-18T10:32:13.001Z</time></trkpt><trkpt lat="45.53798863268244" lon="10.986650945200793"><ele>497.0</ele><time>2026-04-18T10:32:14.001Z</time></trkpt><trkpt lat="45.53798420503637" lon="10.986516378428728"><ele>496.99999999999994</ele><time>2026-04-18T10:32:15.001Z</time></trkpt><trkpt lat="45.53799076412172" lon="10.986395829725591"><ele>497.0</ele><time>2026-04-18T10:32:16.001Z</time></trkpt><trkpt lat="45.53800019315213" lon="10.986294123100512"><ele>497.0</ele><time>2026-04-18T10:32:17.001Z</time></trkpt><trkpt lat="45.53797436550117" lon="10.986179839581306"><ele>497.0</ele><time>2026-04-18T10:32:18.001Z</time></trkpt><trkpt lat="45.53792566067234" lon="10.98608503373142"><ele>496.99999999999994</ele><time>2026-04-18T10:32:19.001Z</time></trkpt><trkpt lat="45.53787464430317" lon="10.985972187879627"><ele>497.0</ele><time>2026-04-18T10:32:20.001Z</time></trkpt><trkpt lat="45.537797851021786" lon="10.985846642813012"><ele>503.25</ele><time>2026-04-18T10:32:21.001Z</time></trkpt><trkpt lat="45.537730806205246" lon="10.98574608989765"><ele>509.5</ele><time>2026-04-18T10:32:22.001Z</time></trkpt><trkpt lat="45.537673031618205" lon="10.985663823317733"><ele>515.75</ele><time>2026-04-18T10:32:23.001Z</time></trkpt><trkpt lat="45.53754982143231" lon="10.985476945352445"><ele>522.0</ele><time>2026-04-18T10:32:25.001Z</time></trkpt><trkpt lat="45.53743491230475" lon="10.985331028533775"><ele>522.0</ele><time>2026-04-18T10:32:26.001Z</time></trkpt><trkpt lat="45.53735999572292" lon="10.985237382166074"><ele>522.0</ele><time>2026-04-18T10:32:27.001Z</time></trkpt><trkpt lat="45.53728838409018" lon="10.98504303571794"><ele>522.0</ele><time>2026-04-18T10:32:28.999Z</time></trkpt><trkpt lat="45.53728384792674" lon="10.98493046778176"><ele>522.0</ele><time>2026-04-18T10:32:29.999Z</time></trkpt><trkpt lat="45.5372466896311" lon="10.984818169270373"><ele>522.0</ele><time>2026-04-18T10:32:30.999Z</time></trkpt><trkpt lat="45.53722218802441" lon="10.984598194616288"><ele>520.0</ele><time>2026-04-18T10:32:32.999Z</time></trkpt><trkpt lat="45.5372215948884" lon="10.984443724454422"><ele>518.0</ele><time>2026-04-18T10:32:33.999Z</time></trkpt><trkpt lat="45.53722129442748" lon="10.984302312583388"><ele>516.0</ele><time>2026-04-18T10:32:34.999Z</time></trkpt><trkpt lat="45.53723503056992" lon="10.984206820610076"><ele>514.0</ele><time>2026-04-18T10:32:35.999Z</time></trkpt><trkpt lat="45.53728923062392" lon="10.984068493161786"><ele>512.0</ele><time>2026-04-18T10:32:37.999Z</time></trkpt><trkpt lat="45.53738003488002" lon="10.983974640067212"><ele>512.0</ele><time>2026-04-18T10:32:39.999Z</time></trkpt><trkpt lat="45.53741833797547" lon="10.983899203637266"><ele>511.99999999999994</ele><time>2026-04-18T10:32:40.999Z</time></trkpt><trkpt lat="45.53743981194137" lon="10.983812020546672"><ele>512.0</ele><time>2026-04-18T10:32:41.999Z</time></trkpt><trkpt lat="45.53745429998475" lon="10.98371707984259"><ele>512.0</ele><time>2026-04-18T10:32:42.999Z</time></trkpt><trkpt lat="45.53750364431022" lon="10.983603910168172"><ele>511.99999999999994</ele><time>2026-04-18T10:32:44.999Z</time></trkpt><trkpt lat="45.53754466560313" lon="10.983533394865226"><ele>512.0</ele><time>2026-04-18T10:32:45.999Z</time></trkpt><trkpt lat="45.53759243900135" lon="10.983459717555485"><ele>512.0</ele><time>2026-04-18T10:32:46.999Z</time></trkpt><trkpt lat="45.537663850484364" lon="10.983406443392585"><ele>515.1666666666666</ele><time>2026-04-18T10:32:47.999Z</time></trkpt><trkpt lat="45.53771202953191" lon="10.983345560790523"><ele>518.3333333333333</ele><time>2026-04-18T10:32:48.999Z</time></trkpt><trkpt lat="45.537756612452974" lon="10.983278541451488"><ele>521.5</ele><time>2026-04-18T10:32:49.999Z</time></trkpt><trkpt lat="45.537807843487535" lon="10.983120093256192"><ele>524.6666666666666</ele><time>2026-04-18T10:32:51.999Z</time></trkpt><trkpt lat="45.53784026194103" lon="10.982988113559902"><ele>527.8333333333334</ele><time>2026-04-18T10:32:53.999Z</time></trkpt><trkpt lat="45.53784799381673" lon="10.982878156397941"><ele>531.0</ele><time>2026-04-18T10:32:55.999Z</time></trkpt><trkpt lat="45.537854319613864" lon="10.982779762940643"><ele>534.0</ele><time>2026-04-18T10:32:58Z</time></trkpt><trkpt lat="45.53788738008891" lon="10.982657528149627"><ele>537.0</ele><time>2026-04-18T10:33:00Z</time></trkpt><trkpt lat="45.5379049482076" lon="10.982512475928637"><ele>540.0</ele><time>2026-04-18T10:33:02Z</time></trkpt><trkpt lat="45.53788774887364" lon="10.982354391500689"><ele>543.0</ele><time>2026-04-18T10:33:04Z</time></trkpt><trkpt lat="45.53782010719204" lon="10.982188163493804"><ele>546.0</ele><time>2026-04-18T10:33:06Z</time></trkpt><trkpt lat="45.53778711374756" lon="10.982057245376923"><ele>546.0</ele><time>2026-04-18T10:33:07Z</time></trkpt><trkpt lat="45.53778795858482" lon="10.98194804485798"><ele>546.0</ele><time>2026-04-18T10:33:08Z</time></trkpt><trkpt lat="45.537801151436184" lon="10.981807939302586"><ele>546.0</ele><time>2026-04-18T10:33:10Z</time></trkpt><trkpt lat="45.537892626540355" lon="10.981777870680244"><ele>546.0</ele><time>2026-04-18T10:33:12Z</time></trkpt><trkpt lat="45.537962898688704" lon="10.981769977620067"><ele>546.0</ele><time>2026-04-18T10:33:13Z</time></trkpt><trkpt lat="45.53804861790807" lon="10.981734942009059"><ele>546.0</ele><time>2026-04-18T10:33:14Z</time></trkpt><trkpt lat="45.53814473455508" lon="10.981700326842988"><ele>542.8333333333334</ele><time>2026-04-18T10:33:15Z</time></trkpt><trkpt lat="45.53823473283794" lon="10.981660658954937"><ele>539.6666666666666</ele><time>2026-04-18T10:33:16Z</time></trkpt><trkpt lat="45.53833849792894" lon="10.981622447141849"><ele>536.5</ele><time>2026-04-18T10:33:17Z</time></trkpt><trkpt lat="45.53841779798266" lon="10.981641030501816"><ele>533.3333333333333</ele><time>2026-04-18T10:33:18Z</time></trkpt><trkpt lat="45.538488786582256" lon="10.981640670251933"><ele>530.1666666666666</ele><time>2026-04-18T10:33:19Z</time></trkpt><trkpt lat="45.53855765462758" lon="10.981620016545525"><ele>527.0</ele><time>2026-04-18T10:33:20Z</time></trkpt><trkpt lat="45.53864302891917" lon="10.981588927101544"><ele>524.4</ele><time>2026-04-18T10:33:21Z</time></trkpt><trkpt lat="45.53872132198082" lon="10.981582731252221"><ele>521.8000000000001</ele><time>2026-04-18T10:33:22Z</time></trkpt><trkpt lat="45.53880365078457" lon="10.981560580962293"><ele>519.2</ele><time>2026-04-18T10:33:23Z</time></trkpt><trkpt lat="45.53892194855681" lon="10.9815290571532"><ele>516.6</ele><time>2026-04-18T10:33:24Z</time></trkpt><trkpt lat="45.53902438555677" lon="10.981486736147513"><ele>514.0</ele><time>2026-04-18T10:33:25Z</time></trkpt><trkpt lat="45.53911554031269" lon="10.98142550365548"><ele>514.0</ele><time>2026-04-18T10:33:26Z</time></trkpt><trkpt lat="45.53918988011959" lon="10.981388027814326"><ele>514.0</ele><time>2026-04-18T10:33:27Z</time></trkpt><trkpt lat="45.53927710912522" lon="10.981374919539826"><ele>514.0</ele><time>2026-04-18T10:33:28Z</time></trkpt><trkpt lat="45.539366627229654" lon="10.981354669701425"><ele>514.0</ele><time>2026-04-18T10:33:29Z</time></trkpt><trkpt lat="45.53945097478679" lon="10.981327154972274"><ele>514.0</ele><time>2026-04-18T10:33:30Z</time></trkpt><trkpt lat="45.53953205530915" lon="10.981271867549113"><ele>514.0</ele><time>2026-04-18T10:33:31Z</time></trkpt><trkpt lat="45.53961213715707" lon="10.981206590062792"><ele>514.1428571428571</ele><time>2026-04-18T10:33:32Z</time></trkpt><trkpt lat="45.539676427161616" lon="10.981160716867333"><ele>514.2857142857143</ele><time>2026-04-18T10:33:33Z</time></trkpt><trkpt lat="45.53973549944011" lon="10.981109185577148"><ele>514.4285714285714</ele><time>2026-04-18T10:33:34Z</time></trkpt><trkpt lat="45.53978084001522" lon="10.981039917778896"><ele>514.5714285714286</ele><time>2026-04-18T10:33:35Z</time></trkpt><trkpt lat="45.53982725336656" lon="10.980968035695268"><ele>514.7142857142857</ele><time>2026-04-18T10:33:36Z</time></trkpt><trkpt lat="45.53988079009128" lon="10.980893432287544"><ele>514.8571428571429</ele><time>2026-04-18T10:33:37Z</time></trkpt><trkpt lat="45.539927338893264" lon="10.980828409238844"><ele>515.0</ele><time>2026-04-18T10:33:38Z</time></trkpt><trkpt lat="45.539986489532076" lon="10.980716324740854"><ele>515.0</ele><time>2026-04-18T10:33:39Z</time></trkpt><trkpt lat="45.540020160973526" lon="10.980606481721459"><ele>515.0</ele><time>2026-04-18T10:33:40Z</time></trkpt><trkpt lat="45.54006137054868" lon="10.980492409551083"><ele>515.0</ele><time>2026-04-18T10:33:41Z</time></trkpt><trkpt lat="45.54009527966856" lon="10.980391717359058"><ele>515.0</ele><time>2026-04-18T10:33:42Z</time></trkpt><trkpt lat="45.54014067118597" lon="10.980216890672471"><ele>515.0</ele><time>2026-04-18T10:33:44.001Z</time></trkpt><trkpt lat="45.5401586468234" lon="10.980122839985373"><ele>517.6666666666666</ele><time>2026-04-18T10:33:45.001Z</time></trkpt><trkpt lat="45.540189919110524" lon="10.980008446881232"><ele>520.3333333333333</ele><time>2026-04-18T10:33:46.001Z</time></trkpt><trkpt lat="45.54023279082061" lon="10.97991899943584"><ele>523.0</ele><time>2026-04-18T10:33:47.001Z</time></trkpt><trkpt lat="45.54027614277731" lon="10.979801921406382"><ele>525.6666666666666</ele><time>2026-04-18T10:33:48.001Z</time></trkpt><trkpt lat="45.540302602216244" lon="10.979677870755397"><ele>528.3333333333334</ele><time>2026-04-18T10:33:49.001Z</time></trkpt><trkpt lat="45.540347539896146" lon="10.97959233026119"><ele>531.0</ele><time>2026-04-18T10:33:50.001Z</time></trkpt><trkpt lat="45.54041768290344" lon="10.97947668526975"><ele>524.0</ele><time>2026-04-18T10:33:52.001Z</time></trkpt><trkpt lat="45.540475319498135" lon="10.979395735055054"><ele>517.0</ele><time>2026-04-18T10:33:53.001Z</time></trkpt><trkpt lat="45.540498982109916" lon="10.979304393465945"><ele>510.0</ele><time>2026-04-18T10:33:54.001Z</time></trkpt><trkpt lat="45.540533577865716" lon="10.979223848079766"><ele>503.0</ele><time>2026-04-18T10:33:55.001Z</time></trkpt><trkpt lat="45.54056928692948" lon="10.9791071348459"><ele>496.0</ele><time>2026-04-18T10:33:56.001Z</time></trkpt><trkpt lat="45.54059290367862" lon="10.979009271203516"><ele>489.0</ele><time>2026-04-18T10:33:57.001Z</time></trkpt><trkpt lat="45.54065453134153" lon="10.978899057583734"><ele>489.0</ele><time>2026-04-18T10:33:59.001Z</time></trkpt><trkpt lat="45.54068607481284" lon="10.978714021865965"><ele>489.0</ele><time>2026-04-18T10:34:01.001Z</time></trkpt><trkpt lat="45.54074660401105" lon="10.978612268477972"><ele>489.0</ele><time>2026-04-18T10:34:02.001Z</time></trkpt><trkpt lat="45.54079405822684" lon="10.978500603693014"><ele>489.0</ele><time>2026-04-18T10:34:03.001Z</time></trkpt><trkpt lat="45.54080838976904" lon="10.978400435354436"><ele>489.0</ele><time>2026-04-18T10:34:04.001Z</time></trkpt><trkpt lat="45.54083281714405" lon="10.978259683771393"><ele>490.5</ele><time>2026-04-18T10:34:05.001Z</time></trkpt><trkpt lat="45.54086104746603" lon="10.978117908993587"><ele>492.0</ele><time>2026-04-18T10:34:06.001Z</time></trkpt><trkpt lat="45.54087989299399" lon="10.978027679674295"><ele>493.5</ele><time>2026-04-18T10:34:07.001Z</time></trkpt><trkpt lat="45.54085519636736" lon="10.977921619211866"><ele>495.0</ele><time>2026-04-18T10:34:09.001Z</time></trkpt><trkpt lat="45.54091106608956" lon="10.977825927812518"><ele>496.5</ele><time>2026-04-18T10:34:11.001Z</time></trkpt><trkpt lat="45.54100335595708" lon="10.977877510857653"><ele>498.0</ele><time>2026-04-18T10:34:13.001Z</time></trkpt><trkpt lat="45.54110530246401" lon="10.97796975168083"><ele>498.0</ele><time>2026-04-18T10:34:15.001Z</time></trkpt><trkpt lat="45.54116225758321" lon="10.978017992408294"><ele>497.99999999999994</ele><time>2026-04-18T10:34:16.001Z</time></trkpt><trkpt lat="45.541257184580935" lon="10.978109624782787"><ele>497.99999999999994</ele><time>2026-04-18T10:34:18.001Z</time></trkpt><trkpt lat="45.54133527901686" lon="10.978166904708736"><ele>498.0</ele><time>2026-04-18T10:34:20.001Z</time></trkpt><trkpt lat="45.54145251775204" lon="10.97817495475102"><ele>498.0</ele><time>2026-04-18T10:34:22.001Z</time></trkpt><trkpt lat="45.541526998671735" lon="10.978176881082762"><ele>494.6666666666667</ele><time>2026-04-18T10:34:23.001Z</time></trkpt><trkpt lat="45.541596046892316" lon="10.978150770242863"><ele>491.33333333333337</ele><time>2026-04-18T10:34:24.001Z</time></trkpt><trkpt lat="45.54167005383807" lon="10.978112747649206"><ele>488.0</ele><time>2026-04-18T10:34:25.001Z</time></trkpt><trkpt lat="45.541798669201974" lon="10.978083861842777"><ele>484.6666666666667</ele><time>2026-04-18T10:34:27.001Z</time></trkpt><trkpt lat="45.54186286651678" lon="10.978077882043575"><ele>481.33333333333337</ele><time>2026-04-18T10:34:28.001Z</time></trkpt><trkpt lat="45.541941677894364" lon="10.978089027356821"><ele>478.0</ele><time>2026-04-18T10:34:29.001Z</time></trkpt><trkpt lat="45.54202885434812" lon="10.978092576988985"><ele>476.6666666666667</ele><time>2026-04-18T10:34:30.001Z</time></trkpt><trkpt lat="45.54211451345382" lon="10.978041797163556"><ele>475.33333333333337</ele><time>2026-04-18T10:34:32.001Z</time></trkpt><trkpt lat="45.542190362803595" lon="10.977972415401126"><ele>474.0</ele><time>2026-04-18T10:34:33.001Z</time></trkpt><trkpt lat="45.54229519584513" lon="10.977902678289276"><ele>472.66666666666663</ele><time>2026-04-18T10:34:33.999Z</time></trkpt><trkpt lat="45.54235348632431" lon="10.977862794740636"><ele>471.3333333333333</ele><time>2026-04-18T10:34:34.999Z</time></trkpt><trkpt lat="45.542417396790526" lon="10.977827682227453"><ele>470.0</ele><time>2026-04-18T10:34:35.999Z</time></trkpt><trkpt lat="45.54252586205958" lon="10.977737010481931"><ele>469.99999999999994</ele><time>2026-04-18T10:34:37.999Z</time></trkpt><trkpt lat="45.54259335636043" lon="10.977673246958474"><ele>470.0</ele><time>2026-04-18T10:34:38.999Z</time></trkpt><trkpt lat="45.54266645707414" lon="10.977625636575786"><ele>470.0</ele><time>2026-04-18T10:34:39.999Z</time></trkpt><trkpt lat="45.54272126383574" lon="10.977567898561302"><ele>470.0</ele><time>2026-04-18T10:34:40.999Z</time></trkpt><trkpt lat="45.54278952058087" lon="10.97744213798142"><ele>469.99999999999994</ele><time>2026-04-18T10:34:42.999Z</time></trkpt><trkpt lat="45.542858458981385" lon="10.977325590748503"><ele>470.0</ele><time>2026-04-18T10:34:44.999Z</time></trkpt><trkpt lat="45.54292434698902" lon="10.97739670652642"><ele>472.66666666666663</ele><time>2026-04-18T10:34:46.999Z</time></trkpt><trkpt lat="45.54295883965052" lon="10.977505288431736"><ele>475.3333333333333</ele><time>2026-04-18T10:34:48.999Z</time></trkpt><trkpt lat="45.54296250029853" lon="10.977599760592613"><ele>478.0</ele><time>2026-04-18T10:34:51Z</time></trkpt><trkpt lat="45.54299693593623" lon="10.977683857050922"><ele>480.66666666666663</ele><time>2026-04-18T10:34:53Z</time></trkpt><trkpt lat="45.54302070646451" lon="10.977798840000126"><ele>483.3333333333333</ele><time>2026-04-18T10:34:55Z</time></trkpt><trkpt lat="45.543084323638375" lon="10.977912339668134"><ele>486.0</ele><time>2026-04-18T10:34:57Z</time></trkpt><trkpt lat="45.54314622732656" lon="10.97802084773463"><ele>486.0</ele><time>2026-04-18T10:34:59Z</time></trkpt><trkpt lat="45.54318813746605" lon="10.97809531390372"><ele>486.0</ele><time>2026-04-18T10:35:01Z</time></trkpt><trkpt lat="45.54323096422512" lon="10.978175033921671"><ele>486.0</ele><time>2026-04-18T10:35:03Z</time></trkpt><trkpt lat="45.543279460756686" lon="10.978261919919444"><ele>486.0</ele><time>2026-04-18T10:37:13.001Z</time></trkpt><trkpt lat="45.54333475952057" lon="10.978352110914418"><ele>486.0</ele><time>2026-04-18T10:37:14.001Z</time></trkpt><trkpt lat="45.54339362843768" lon="10.978448650378976"><ele>486.0</ele><time>2026-04-18T10:37:15.001Z</time></trkpt><trkpt lat="45.543434261813246" lon="10.978565470675603"><ele>484.6666666666667</ele><time>2026-04-18T10:37:16.001Z</time></trkpt><trkpt lat="45.54348742276251" lon="10.978657669848044"><ele>483.33333333333337</ele><time>2026-04-18T10:37:17.001Z</time></trkpt><trkpt lat="45.54352877474357" lon="10.978755081442882"><ele>482.0</ele><time>2026-04-18T10:37:18.001Z</time></trkpt><trkpt lat="45.54357148059007" lon="10.978868974659377"><ele>480.6666666666667</ele><time>2026-04-18T10:37:19.001Z</time></trkpt><trkpt lat="45.543592381183174" lon="10.978985340033422"><ele>479.33333333333337</ele><time>2026-04-18T10:37:20.001Z</time></trkpt><trkpt lat="45.5436052252049" lon="10.97909139225787"><ele>478.0</ele><time>2026-04-18T10:37:21.001Z</time></trkpt><trkpt lat="45.543627617375" lon="10.979189079962804"><ele>477.33333333333337</ele><time>2026-04-18T10:37:22.001Z</time></trkpt><trkpt lat="45.543668890336015" lon="10.979277776839382"><ele>476.6666666666667</ele><time>2026-04-18T10:37:23.001Z</time></trkpt><trkpt lat="45.543726159025134" lon="10.979363698702675"><ele>476.0</ele><time>2026-04-18T10:37:24.001Z</time></trkpt><trkpt lat="45.54375475473464" lon="10.979467526658395"><ele>475.33333333333337</ele><time>2026-04-18T10:37:25.001Z</time></trkpt><trkpt lat="45.54374725907924" lon="10.979591601572857"><ele>474.6666666666667</ele><time>2026-04-18T10:37:26.001Z</time></trkpt><trkpt lat="45.54371388245628" lon="10.979707327321407"><ele>474.0</ele><time>2026-04-18T10:37:27.001Z</time></trkpt><trkpt lat="45.543722817354244" lon="10.979806339831585"><ele>475.3333333333333</ele><time>2026-04-18T10:37:28.001Z</time></trkpt><trkpt lat="45.543733340967776" lon="10.979908414074014"><ele>476.66666666666663</ele><time>2026-04-18T10:37:29.001Z</time></trkpt><trkpt lat="45.54375000139675" lon="10.980003221129055"><ele>478.0</ele><time>2026-04-18T10:37:30.001Z</time></trkpt><trkpt lat="45.543802989608146" lon="10.98012801170505"><ele>479.3333333333333</ele><time>2026-04-18T10:37:32.001Z</time></trkpt><trkpt lat="45.54386504203212" lon="10.980190877234255"><ele>480.66666666666663</ele><time>2026-04-18T10:37:33.001Z</time></trkpt><trkpt lat="45.54394355426297" lon="10.98022558426875"><ele>482.0</ele><time>2026-04-18T10:37:34.001Z</time></trkpt><trkpt lat="45.54404265878232" lon="10.980204576815323"><ele>482.0</ele><time>2026-04-18T10:37:35.001Z</time></trkpt><trkpt lat="45.5441414254277" lon="10.980184040561962"><ele>482.00000000000006</ele><time>2026-04-18T10:37:36.001Z</time></trkpt><trkpt lat="45.54423325628165" lon="10.980135576914552"><ele>482.00000000000006</ele><time>2026-04-18T10:37:37.001Z</time></trkpt><trkpt lat="45.544339067845364" lon="10.98007037802004"><ele>482.0</ele><time>2026-04-18T10:37:38.001Z</time></trkpt><trkpt lat="45.54443624830142" lon="10.980014749873117"><ele>482.0</ele><time>2026-04-18T10:37:39.001Z</time></trkpt><trkpt lat="45.54453643232009" lon="10.979980180976742"><ele>482.16666666666663</ele><time>2026-04-18T10:37:40.001Z</time></trkpt><trkpt lat="45.54463373410693" lon="10.980000693083436"><ele>482.3333333333333</ele><time>2026-04-18T10:37:41.001Z</time></trkpt><trkpt lat="45.54472375900599" lon="10.980008980767066"><ele>482.5</ele><time>2026-04-18T10:37:42.001Z</time></trkpt><trkpt lat="45.54481375235035" lon="10.980017925907847"><ele>482.66666666666663</ele><time>2026-04-18T10:37:43.001Z</time></trkpt><trkpt lat="45.54489687354088" lon="10.98002508636526"><ele>482.8333333333333</ele><time>2026-04-18T10:37:44.001Z</time></trkpt><trkpt lat="45.5449742324666" lon="10.980019883675052"><ele>483.0</ele><time>2026-04-18T10:37:45.001Z</time></trkpt><trkpt lat="45.54505531908107" lon="10.979997776762671"><ele>483.0</ele><time>2026-04-18T10:37:46.001Z</time></trkpt><trkpt lat="45.54512596379299" lon="10.979979142345567"><ele>483.0</ele><time>2026-04-18T10:37:47.001Z</time></trkpt><trkpt lat="45.545189605785495" lon="10.9800211340725"><ele>483.0</ele><time>2026-04-18T10:37:48.001Z</time></trkpt><trkpt lat="45.54518851517465" lon="10.980156813659736"><ele>483.0</ele><time>2026-04-18T10:37:49.001Z</time></trkpt><trkpt lat="45.545232493829694" lon="10.980258326167494"><ele>483.0</ele><time>2026-04-18T10:37:50.001Z</time></trkpt><trkpt lat="45.5452855955633" lon="10.980363159768718"><ele>483.0</ele><time>2026-04-18T10:37:51.001Z</time></trkpt><trkpt lat="45.54537307184242" lon="10.980444571691791"><ele>484.0</ele><time>2026-04-18T10:37:52.001Z</time></trkpt><trkpt lat="45.54544394717815" lon="10.980529492518768"><ele>485.0</ele><time>2026-04-18T10:37:53.001Z</time></trkpt><trkpt lat="45.5454906749001" lon="10.98059923289704"><ele>486.0</ele><time>2026-04-18T10:37:54.001Z</time></trkpt><trkpt lat="45.54550668465298" lon="10.980739676003397"><ele>487.0</ele><time>2026-04-18T10:37:56.001Z</time></trkpt><trkpt lat="45.54555912365247" lon="10.98081575932225"><ele>488.0</ele><time>2026-04-18T10:37:58.002Z</time></trkpt><trkpt lat="45.545657801088694" lon="10.980785600995764"><ele>489.0</ele><time>2026-04-18T10:38:00.002Z</time></trkpt><trkpt lat="45.545531082677414" lon="10.980892242761655"><ele>490.2</ele><time>2026-04-18T10:38:01.002Z</time></trkpt><trkpt lat="45.54551691822589" lon="10.981012869643147"><ele>491.4</ele><time>2026-04-18T10:38:03.002Z</time></trkpt><trkpt lat="45.545439560410784" lon="10.980944587324286"><ele>492.6</ele><time>2026-04-18T10:38:04.002Z</time></trkpt><trkpt lat="45.54535858270932" lon="10.981000108878229"><ele>493.8</ele><time>2026-04-18T10:38:07.002Z</time></trkpt><trkpt lat="45.54528442816528" lon="10.981221968640462"><ele>495.0</ele><time>2026-04-18T10:38:08.002Z</time></trkpt><trkpt lat="45.545251823202335" lon="10.981362612398964"><ele>486.5</ele><time>2026-04-18T10:38:10.002Z</time></trkpt><trkpt lat="45.54521671951476" lon="10.981454932257915"><ele>478.0</ele><time>2026-04-18T10:38:12.002Z</time></trkpt><trkpt lat="45.54515236354866" lon="10.981596967583599"><ele>469.5</ele><time>2026-04-18T10:38:14.002Z</time></trkpt><trkpt lat="45.545025492888534" lon="10.981773821722156"><ele>461.0</ele><time>2026-04-18T10:38:17.002Z</time></trkpt><trkpt lat="45.54493284218653" lon="10.982305162983009"><ele>458.66666666666663</ele><time>2026-04-18T10:38:18.002Z</time></trkpt><trkpt lat="45.54496418720696" lon="10.982421912819076"><ele>456.33333333333337</ele><time>2026-04-18T10:38:19.002Z</time></trkpt><trkpt lat="45.54506715618078" lon="10.982716987311965"><ele>454.0</ele><time>2026-04-18T10:38:20.002Z</time></trkpt><trkpt lat="45.54529942136306" lon="10.983143513847493"><ele>459.0</ele><time>2026-04-18T10:38:21.002Z</time></trkpt><trkpt lat="45.545386935242036" lon="10.983163053159508"><ele>464.0</ele><time>2026-04-18T10:38:22.002Z</time></trkpt><trkpt lat="45.546140532359054" lon="10.982703240819985"><ele>467.49999999999994</ele><time>2026-04-18T10:38:28.002Z</time></trkpt><trkpt lat="45.546240137567175" lon="10.982749152986777"><ele>471.0</ele><time>2026-04-18T10:38:29.002Z</time></trkpt><trkpt lat="45.54634288350397" lon="10.98281421873456"><ele>474.5</ele><time>2026-04-18T10:38:31.002Z</time></trkpt><trkpt lat="45.546337382749236" lon="10.982722839577601"><ele>478.0</ele><time>2026-04-18T10:38:35.002Z</time></trkpt><trkpt lat="45.54627223857398" lon="10.982668252914786"><ele>481.49999999999994</ele><time>2026-04-18T10:38:36.002Z</time></trkpt><trkpt lat="45.54621961398851" lon="10.982605773323282"><ele>485.0</ele><time>2026-04-18T10:38:37.002Z</time></trkpt><trkpt lat="45.54615228331287" lon="10.982460010153636"><ele>485.6</ele><time>2026-04-18T10:38:39.002Z</time></trkpt><trkpt lat="45.546081930150386" lon="10.98231054037037"><ele>486.2</ele><time>2026-04-18T10:38:41.002Z</time></trkpt><trkpt lat="45.54604132868647" lon="10.982213877094283"><ele>486.79999999999995</ele><time>2026-04-18T10:38:43.002Z</time></trkpt><trkpt lat="45.5459635563331" lon="10.982083855142507"><ele>487.4</ele><time>2026-04-18T10:38:45.002Z</time></trkpt><trkpt lat="45.54592911742708" lon="10.981959584994618"><ele>488.0</ele><time>2026-04-18T10:38:47.001Z</time></trkpt><trkpt lat="45.546012446796034" lon="10.981907447558177"><ele>487.99999999999994</ele><time>2026-04-18T10:38:50.001Z</time></trkpt><trkpt lat="45.546080396855366" lon="10.981914472191937"><ele>488.0</ele><time>2026-04-18T10:38:52.001Z</time></trkpt><trkpt lat="45.54618529157792" lon="10.981897646386559"><ele>488.0</ele><time>2026-04-18T10:38:54.001Z</time></trkpt><trkpt lat="45.54625854217087" lon="10.981873902671627"><ele>488.0</ele><time>2026-04-18T10:38:56.001Z</time></trkpt><trkpt lat="45.54632805248052" lon="10.981886108036559"><ele>487.99999999999994</ele><time>2026-04-18T10:38:58.001Z</time></trkpt><trkpt lat="45.546394483295316" lon="10.981883854944016"><ele>488.0</ele><time>2026-04-18T10:39:00.001Z</time></trkpt><trkpt lat="45.54648632874569" lon="10.981883457529705"><ele>493.79999999999995</ele><time>2026-04-18T10:39:02.001Z</time></trkpt><trkpt lat="45.546569746527524" lon="10.981861992811252"><ele>499.59999999999997</ele><time>2026-04-18T10:39:04.001Z</time></trkpt><trkpt lat="45.546654203619696" lon="10.981833151239902"><ele>505.40000000000003</ele><time>2026-04-18T10:39:06.001Z</time></trkpt><trkpt lat="45.54676784982688" lon="10.981834200882256"><ele>511.20000000000005</ele><time>2026-04-18T10:39:08.001Z</time></trkpt><trkpt lat="45.54687760788877" lon="10.981803093393141"><ele>517.0</ele><time>2026-04-18T10:39:10.001Z</time></trkpt><trkpt lat="45.54693849881908" lon="10.981775632278856"><ele>517.0</ele><time>2026-04-18T10:39:11.001Z</time></trkpt><trkpt lat="45.54701850544437" lon="10.981798723551345"><ele>517.0</ele><time>2026-04-18T10:39:13.001Z</time></trkpt><trkpt lat="45.547096860226134" lon="10.981761419467382"><ele>517.0</ele><time>2026-04-18T10:39:15.001Z</time></trkpt><trkpt lat="45.54719259528506" lon="10.981760089483979"><ele>517.0</ele><time>2026-04-18T10:39:17.001Z</time></trkpt><trkpt lat="45.54726909361992" lon="10.98172367926345"><ele>517.0</ele><time>2026-04-18T10:39:19.001Z</time></trkpt><trkpt lat="45.54738514431276" lon="10.981620993118858"><ele>520.1666666666667</ele><time>2026-04-18T10:39:21.001Z</time></trkpt><trkpt lat="45.547445480725344" lon="10.98157930458365"><ele>523.3333333333334</ele><time>2026-04-18T10:39:22.001Z</time></trkpt><trkpt lat="45.54756716713818" lon="10.981553000642325"><ele>526.5</ele><time>2026-04-18T10:39:24.001Z</time></trkpt><trkpt lat="45.54766971851135" lon="10.981502143320048"><ele>529.6666666666666</ele><time>2026-04-18T10:39:26.001Z</time></trkpt><trkpt lat="45.54773678466226" lon="10.981541321825386"><ele>532.8333333333333</ele><time>2026-04-18T10:39:28.001Z</time></trkpt><trkpt lat="45.54773571564951" lon="10.98164538077893"><ele>536.0</ele><time>2026-04-18T10:39:30.001Z</time></trkpt><trkpt lat="45.54771010876111" lon="10.981750814526631"><ele>536.0</ele><time>2026-04-18T10:39:32.001Z</time></trkpt><trkpt lat="45.54767271170852" lon="10.981859891169911"><ele>536.0</ele><time>2026-04-18T10:39:34.001Z</time></trkpt><trkpt lat="45.54769135039938" lon="10.982013222503683"><ele>536.0</ele><time>2026-04-18T10:39:36.001Z</time></trkpt><trkpt lat="45.54777034230481" lon="10.982081769654416"><ele>536.0</ele><time>2026-04-18T10:39:38.001Z</time></trkpt><trkpt lat="45.54788748039311" lon="10.98209395765543"><ele>536.0</ele><time>2026-04-18T10:39:40.001Z</time></trkpt><trkpt lat="45.5479939047436" lon="10.982111640121458"><ele>538.5</ele><time>2026-04-18T10:39:42.001Z</time></trkpt><trkpt lat="45.54806526778548" lon="10.982142396319832"><ele>541.0</ele><time>2026-04-18T10:39:43.001Z</time></trkpt><trkpt lat="45.548135618847596" lon="10.982140935981864"><ele>543.5</ele><time>2026-04-18T10:39:44.001Z</time></trkpt><trkpt lat="45.54822452106086" lon="10.982171073740368"><ele>546.0</ele><time>2026-04-18T10:39:45.001Z</time></trkpt><trkpt lat="45.54828831976962" lon="10.982186596483634"><ele>548.5</ele><time>2026-04-18T10:39:46.001Z</time></trkpt><trkpt lat="45.54837108875518" lon="10.982202597244317"><ele>551.0</ele><time>2026-04-18T10:39:48.001Z</time></trkpt><trkpt lat="45.548419529175796" lon="10.982331382216202"><ele>551.0</ele><time>2026-04-18T10:39:52.001Z</time></trkpt><trkpt lat="45.54845223000318" lon="10.982425905042625"><ele>551.0</ele><time>2026-04-18T10:39:54.001Z</time></trkpt><trkpt lat="45.548514848187644" lon="10.982509581720228"><ele>551.0</ele><time>2026-04-18T10:39:56.001Z</time></trkpt><trkpt lat="45.548568764592545" lon="10.982603476786403"><ele>551.0</ele><time>2026-04-18T10:39:59.001Z</time></trkpt><trkpt lat="45.54862358309516" lon="10.982680526371972"><ele>551.0</ele><time>2026-04-18T10:40:01.001Z</time></trkpt><trkpt lat="45.54868043919873" lon="10.98275188443017"><ele>551.0</ele><time>2026-04-18T10:40:03.001Z</time></trkpt><trkpt lat="45.5487582316615" lon="10.982797200545928"><ele>548.1666666666666</ele><time>2026-04-18T10:40:06.001Z</time></trkpt><trkpt lat="45.548818803870695" lon="10.98286208921017"><ele>545.3333333333333</ele><time>2026-04-18T10:40:08.001Z</time></trkpt><trkpt lat="45.548856832998176" lon="10.982954128554493"><ele>542.5</ele><time>2026-04-18T10:40:10.001Z</time></trkpt><trkpt lat="45.548918613344604" lon="10.983031281465925"><ele>539.6666666666666</ele><time>2026-04-18T10:40:12.001Z</time></trkpt><trkpt lat="45.548949901556206" lon="10.98311102851389"><ele>536.8333333333334</ele><time>2026-04-18T10:40:14.001Z</time></trkpt><trkpt lat="45.54900194899507" lon="10.983216508911132"><ele>534.0</ele><time>2026-04-18T10:40:16.001Z</time></trkpt><trkpt lat="45.54905721258816" lon="10.983277776880803"><ele>534.0</ele><time>2026-04-18T10:40:18.002Z</time></trkpt><trkpt lat="45.54914034922376" lon="10.98329644926161"><ele>534.0</ele><time>2026-04-18T10:40:20.002Z</time></trkpt><trkpt lat="45.54921118677514" lon="10.983295275707222"><ele>534.0</ele><time>2026-04-18T10:40:23.002Z</time></trkpt><trkpt lat="45.5492905307647" lon="10.983335735144951"><ele>534.0</ele><time>2026-04-18T10:40:26.002Z</time></trkpt><trkpt lat="45.5493510732909" lon="10.983437571511994"><ele>534.0</ele><time>2026-04-18T10:40:28.002Z</time></trkpt><trkpt lat="45.5494050660797" lon="10.983518792326974"><ele>534.0</ele><time>2026-04-18T10:40:30.002Z</time></trkpt><trkpt lat="45.54947507093367" lon="10.983631586311281"><ele>532.1666666666666</ele><time>2026-04-18T10:40:32.002Z</time></trkpt><trkpt lat="45.5495333457698" lon="10.983694001715207"><ele>530.3333333333334</ele><time>2026-04-18T10:40:33.002Z</time></trkpt><trkpt lat="45.549604168871824" lon="10.983798645657329"><ele>528.5</ele><time>2026-04-18T10:40:34.002Z</time></trkpt><trkpt lat="45.549681077550886" lon="10.983885834623349"><ele>526.6666666666667</ele><time>2026-04-18T10:40:35.002Z</time></trkpt><trkpt lat="45.54976099758984" lon="10.983957996205726"><ele>524.8333333333334</ele><time>2026-04-18T10:40:36.002Z</time></trkpt><trkpt lat="45.54981982527387" lon="10.984027683136834"><ele>523.0</ele><time>2026-04-18T10:40:37.002Z</time></trkpt><trkpt lat="45.549890366967134" lon="10.984093515324469"><ele>520.0</ele><time>2026-04-18T10:40:38.002Z</time></trkpt><trkpt lat="45.54996472904361" lon="10.98419751359004"><ele>517.0</ele><time>2026-04-18T10:40:39.002Z</time></trkpt><trkpt lat="45.550035429317234" lon="10.984301349570197"><ele>514.0</ele><time>2026-04-18T10:40:40.002Z</time></trkpt><trkpt lat="45.55011119079928" lon="10.984380873111084"><ele>511.0</ele><time>2026-04-18T10:40:41.002Z</time></trkpt><trkpt lat="45.55015616496184" lon="10.984462797215205"><ele>508.0</ele><time>2026-04-18T10:40:42.002Z</time></trkpt><trkpt lat="45.55019925192505" lon="10.984650304580715"><ele>508.0</ele><time>2026-04-18T10:40:44.002Z</time></trkpt><trkpt lat="45.55022185548295" lon="10.984738631700038"><ele>507.99999999999994</ele><time>2026-04-18T10:40:45.002Z</time></trkpt><trkpt lat="45.55023894480329" lon="10.984908707595952"><ele>507.99999999999994</ele><time>2026-04-18T10:40:47.002Z</time></trkpt><trkpt lat="45.55022202779257" lon="10.98500796831021"><ele>508.0</ele><time>2026-04-18T10:40:48.002Z</time></trkpt><trkpt lat="45.55018048827445" lon="10.98512952003857"><ele>508.0</ele><time>2026-04-18T10:40:50.002Z</time></trkpt><trkpt lat="45.5500374863222" lon="10.98517068046811"><ele>506.0</ele><time>2026-04-18T10:40:52Z</time></trkpt><trkpt lat="45.54995859927674" lon="10.985200353601053"><ele>503.99999999999994</ele><time>2026-04-18T10:40:53Z</time></trkpt><trkpt lat="45.54986472128208" lon="10.9851468234492"><ele>501.99999999999994</ele><time>2026-04-18T10:40:54Z</time></trkpt><trkpt lat="45.54978928425893" lon="10.985177912505272"><ele>500.0</ele><time>2026-04-18T10:40:55Z</time></trkpt><trkpt lat="45.549682929674766" lon="10.985232771876177"><ele>498.0</ele><time>2026-04-18T10:40:57Z</time></trkpt><trkpt lat="45.54959680557564" lon="10.985298183631066"><ele>498.0</ele><time>2026-04-18T10:40:59Z</time></trkpt><trkpt lat="45.54951022103997" lon="10.98539935434757"><ele>497.99999999999994</ele><time>2026-04-18T10:41:01Z</time></trkpt><trkpt lat="45.54948594270291" lon="10.98558526329339"><ele>497.99999999999994</ele><time>2026-04-18T10:41:03Z</time></trkpt><trkpt lat="45.5495180324599" lon="10.985698033057881"><ele>498.0</ele><time>2026-04-18T10:41:04Z</time></trkpt><trkpt lat="45.54955391171704" lon="10.985816541785866"><ele>498.0</ele><time>2026-04-18T10:41:05Z</time></trkpt><trkpt lat="45.54960593043472" lon="10.985932966139966"><ele>496.8333333333333</ele><time>2026-04-18T10:41:06Z</time></trkpt><trkpt lat="45.549674665760065" lon="10.986020787566726"><ele>495.66666666666663</ele><time>2026-04-18T10:41:07Z</time></trkpt><trkpt lat="45.549714355086934" lon="10.986113218833742"><ele>494.5</ele><time>2026-04-18T10:41:08Z</time></trkpt><trkpt lat="45.54973767912148" lon="10.986206413213042"><ele>493.3333333333333</ele><time>2026-04-18T10:41:09Z</time></trkpt><trkpt lat="45.549765232653336" lon="10.986318867736971"><ele>492.16666666666663</ele><time>2026-04-18T10:41:10Z</time></trkpt><trkpt lat="45.54977929898668" lon="10.986429059783736"><ele>491.0</ele><time>2026-04-18T10:41:11Z</time></trkpt><trkpt lat="45.54979234062607" lon="10.986519656234575"><ele>491.0</ele><time>2026-04-18T10:41:12Z</time></trkpt><trkpt lat="45.549817268302185" lon="10.986625866818141"><ele>491.0</ele><time>2026-04-18T10:41:14Z</time></trkpt><trkpt lat="45.549879649402236" lon="10.986687291539964"><ele>491.0</ele><time>2026-04-18T10:41:50.001Z</time></trkpt><trkpt lat="45.549971804686116" lon="10.986684023866744"><ele>491.0</ele><time>2026-04-18T10:41:51.001Z</time></trkpt><trkpt lat="45.55006602061361" lon="10.9866937270194"><ele>491.0</ele><time>2026-04-18T10:41:52.001Z</time></trkpt><trkpt lat="45.550170748111235" lon="10.986739568406898"><ele>490.5</ele><time>2026-04-18T10:41:53.001Z</time></trkpt><trkpt lat="45.55028379393732" lon="10.986800139396927"><ele>490.0</ele><time>2026-04-18T10:41:54.001Z</time></trkpt><trkpt lat="45.55040692973113" lon="10.986866160457058"><ele>489.5</ele><time>2026-04-18T10:41:55.001Z</time></trkpt><trkpt lat="45.55051842153975" lon="10.98698539328026"><ele>489.0</ele><time>2026-04-18T10:41:56.001Z</time></trkpt><trkpt lat="45.550608920913525" lon="10.987133877975017"><ele>487.5</ele><time>2026-04-18T10:41:57.001Z</time></trkpt><trkpt lat="45.550676825817625" lon="10.987280902075039"><ele>486.0</ele><time>2026-04-18T10:41:58.001Z</time></trkpt><trkpt lat="45.55076025523733" lon="10.98740725340308"><ele>484.5</ele><time>2026-04-18T10:41:59.001Z</time></trkpt><trkpt lat="45.55082729720971" lon="10.987520635816018"><ele>483.0</ele><time>2026-04-18T10:42:00.001Z</time></trkpt><trkpt lat="45.550918970625496" lon="10.987607613148837"><ele>483.0</ele><time>2026-04-18T10:42:01.001Z</time></trkpt><trkpt lat="45.55103813000463" lon="10.987651027411797"><ele>483.0</ele><time>2026-04-18T10:42:02.001Z</time></trkpt><trkpt lat="45.5511564969362" lon="10.987678370943254"><ele>483.0</ele><time>2026-04-18T10:42:03.001Z</time></trkpt><trkpt lat="45.55128788154065" lon="10.987729538124402"><ele>483.0</ele><time>2026-04-18T10:42:04.001Z</time></trkpt><trkpt lat="45.55140402509135" lon="10.987787661649978"><ele>485.59999999999997</ele><time>2026-04-18T10:42:05.001Z</time></trkpt><trkpt lat="45.55150203669406" lon="10.98783324917759"><ele>488.19999999999993</ele><time>2026-04-18T10:42:06.001Z</time></trkpt><trkpt lat="45.551595651260925" lon="10.9878770377942"><ele>490.8</ele><time>2026-04-18T10:42:07.001Z</time></trkpt><trkpt lat="45.551695254273106" lon="10.987931066100822"><ele>493.4</ele><time>2026-04-18T10:42:08.001Z</time></trkpt><trkpt lat="45.55178175813529" lon="10.987993446973185"><ele>496.0</ele><time>2026-04-18T10:42:09.001Z</time></trkpt><trkpt lat="45.55185619666519" lon="10.988068513570184"><ele>496.0</ele><time>2026-04-18T10:42:10.001Z</time></trkpt><trkpt lat="45.55191700773667" lon="10.988150347347833"><ele>496.0</ele><time>2026-04-18T10:42:11.001Z</time></trkpt><trkpt lat="45.551957297109524" lon="10.988280628509884"><ele>496.0</ele><time>2026-04-18T10:42:12.001Z</time></trkpt><trkpt lat="45.55199387799484" lon="10.988420178610035"><ele>496.0</ele><time>2026-04-18T10:42:13.001Z</time></trkpt><trkpt lat="45.552005150612615" lon="10.988576089462338"><ele>496.0</ele><time>2026-04-18T10:42:14.001Z</time></trkpt><trkpt lat="45.5520044302695" lon="10.988743515121442"><ele>495.0</ele><time>2026-04-18T10:42:15.001Z</time></trkpt><trkpt lat="45.55199621030534" lon="10.988896188551184"><ele>494.0</ele><time>2026-04-18T10:42:16.001Z</time></trkpt><trkpt lat="45.55197628521783" lon="10.989044264160702"><ele>493.0</ele><time>2026-04-18T10:42:17.001Z</time></trkpt><trkpt lat="45.55194031526234" lon="10.989172409925278"><ele>492.0</ele><time>2026-04-18T10:42:18.001Z</time></trkpt><trkpt lat="45.551924171018506" lon="10.989313680910875"><ele>491.0</ele><time>2026-04-18T10:42:19.001Z</time></trkpt><trkpt lat="45.551889841972454" lon="10.989439715694754"><ele>491.20000000000005</ele><time>2026-04-18T10:42:20.001Z</time></trkpt><trkpt lat="45.55192313581618" lon="10.989581678500876"><ele>491.40000000000003</ele><time>2026-04-18T10:42:21.001Z</time></trkpt><trkpt lat="45.55196642771367" lon="10.989714930886707"><ele>491.6</ele><time>2026-04-18T10:42:22.001Z</time></trkpt><trkpt lat="45.55203777795309" lon="10.989826757534233"><ele>491.8</ele><time>2026-04-18T10:42:23.001Z</time></trkpt><trkpt lat="45.55212186150294" lon="10.989945666130504"><ele>492.0</ele><time>2026-04-18T10:42:24.001Z</time></trkpt><trkpt lat="45.55222612960684" lon="10.990013320437049"><ele>490.8333333333333</ele><time>2026-04-18T10:42:25.001Z</time></trkpt><trkpt lat="45.55231911630219" lon="10.990029173406342"><ele>489.66666666666663</ele><time>2026-04-18T10:42:26.001Z</time></trkpt><trkpt lat="45.55238564742477" lon="10.990098586582047"><ele>488.5</ele><time>2026-04-18T10:42:28.001Z</time></trkpt><trkpt lat="45.55234146646594" lon="10.99017647827134"><ele>487.3333333333333</ele><time>2026-04-18T10:42:30.001Z</time></trkpt><trkpt lat="45.552281844727176" lon="10.990263777125532"><ele>486.16666666666663</ele><time>2026-04-18T10:42:33.001Z</time></trkpt><trkpt lat="45.55221248054523" lon="10.990344122039076"><ele>485.0</ele><time>2026-04-18T10:42:36.001Z</time></trkpt><trkpt lat="45.55213421424788" lon="10.990393828345379"><ele>484.99999999999994</ele><time>2026-04-18T10:42:39.001Z</time></trkpt><trkpt lat="45.55206141883745" lon="10.990450885926721"><ele>485.0</ele><time>2026-04-18T10:42:44.002Z</time></trkpt><trkpt lat="45.551996716954356" lon="10.990475265149515"><ele>485.0</ele><time>2026-04-18T10:42:45.002Z</time></trkpt><trkpt lat="45.55190037147479" lon="10.99048286394737"><ele>485.0</ele><time>2026-04-18T10:42:46.002Z</time></trkpt><trkpt lat="45.55180887196053" lon="10.990533922223818"><ele>484.99999999999994</ele><time>2026-04-18T10:42:47.002Z</time></trkpt><trkpt lat="45.55173860212269" lon="10.990557119955648"><ele>485.0</ele><time>2026-04-18T10:42:48.002Z</time></trkpt><trkpt lat="45.55166341603732" lon="10.990570471863043"><ele>483.66666666666663</ele><time>2026-04-18T10:42:49.002Z</time></trkpt><trkpt lat="45.551598437191416" lon="10.990616015456773"><ele>482.3333333333333</ele><time>2026-04-18T10:42:50.002Z</time></trkpt><trkpt lat="45.55154691556956" lon="10.990692060019194"><ele>481.0</ele><time>2026-04-18T10:42:51.002Z</time></trkpt><trkpt lat="45.55148111864035" lon="10.99074381583144"><ele>479.66666666666663</ele><time>2026-04-18T10:42:52.002Z</time></trkpt><trkpt lat="45.55141684105029" lon="10.99082572190611"><ele>478.3333333333333</ele><time>2026-04-18T10:42:53.002Z</time></trkpt><trkpt lat="45.551359169204154" lon="10.9909000790283"><ele>477.0</ele><time>2026-04-18T10:42:54.002Z</time></trkpt><trkpt lat="45.551314495260435" lon="10.990988787442744"><ele>473.8</ele><time>2026-04-18T10:42:55.002Z</time></trkpt><trkpt lat="45.55125524800975" lon="10.99106466605708"><ele>470.6</ele><time>2026-04-18T10:42:56.002Z</time></trkpt><trkpt lat="45.55119712503225" lon="10.991121296297846"><ele>467.40000000000003</ele><time>2026-04-18T10:42:57.002Z</time></trkpt><trkpt lat="45.551113711609965" lon="10.991224566983734"><ele>464.20000000000005</ele><time>2026-04-18T10:42:59Z</time></trkpt><trkpt lat="45.55101752382641" lon="10.991310135542538"><ele>461.0</ele><time>2026-04-18T10:43:01Z</time></trkpt><trkpt lat="45.55091764535161" lon="10.99138571774127"><ele>459.99999999999994</ele><time>2026-04-18T10:43:03Z</time></trkpt><trkpt lat="45.55083855441207" lon="10.991423524766043"><ele>459.0</ele><time>2026-04-18T10:43:05Z</time></trkpt><trkpt lat="45.5507765223013" lon="10.991530286829338"><ele>458.0</ele><time>2026-04-18T10:43:07Z</time></trkpt><trkpt lat="45.550712308038264" lon="10.991574166072331"><ele>457.0</ele><time>2026-04-18T10:43:08Z</time></trkpt><trkpt lat="45.55065920337317" lon="10.991624163957013"><ele>455.99999999999994</ele><time>2026-04-18T10:43:09Z</time></trkpt><trkpt lat="45.55060987071878" lon="10.991695045757115"><ele>455.0</ele><time>2026-04-18T10:43:10Z</time></trkpt><trkpt lat="45.55051342109335" lon="10.99178477278717"><ele>452.99999999999994</ele><time>2026-04-18T10:43:12Z</time></trkpt><trkpt lat="45.55046018941521" lon="10.99183371640581"><ele>451.0</ele><time>2026-04-18T10:43:13Z</time></trkpt><trkpt lat="45.550359547075104" lon="10.991924092480271"><ele>449.0</ele><time>2026-04-18T10:43:15Z</time></trkpt><trkpt lat="45.550246267570074" lon="10.991971000611125"><ele>447.0</ele><time>2026-04-18T10:43:17Z</time></trkpt><trkpt lat="45.550177579133035" lon="10.99196395360167"><ele>444.99999999999994</ele><time>2026-04-18T10:43:18Z</time></trkpt><trkpt lat="45.55011004989899" lon="10.991967912624833"><ele>443.0</ele><time>2026-04-18T10:43:19Z</time></trkpt><trkpt lat="45.550032939332084" lon="10.991972017871056"><ele>440.79999999999995</ele><time>2026-04-18T10:43:20Z</time></trkpt><trkpt lat="45.54996832273063" lon="10.991975457969081"><ele>438.59999999999997</ele><time>2026-04-18T10:43:21Z</time></trkpt><trkpt lat="45.54985933200831" lon="10.991997613604143"><ele>436.40000000000003</ele><time>2026-04-18T10:43:23Z</time></trkpt><trkpt lat="45.54973493423509" lon="10.992009034654474"><ele>434.20000000000005</ele><time>2026-04-18T10:43:25Z</time></trkpt><trkpt lat="45.54965946017349" lon="10.992035135837842"><ele>432.0</ele><time>2026-04-18T10:43:26Z</time></trkpt><trkpt lat="45.5495860478111" lon="10.992064936128969"><ele>429.5</ele><time>2026-04-18T10:43:27Z</time></trkpt><trkpt lat="45.549521128908964" lon="10.99209102380711"><ele>427.0</ele><time>2026-04-18T10:43:28Z</time></trkpt><trkpt lat="45.54945824338089" lon="10.992133160935094"><ele>424.5</ele><time>2026-04-18T10:43:29Z</time></trkpt><trkpt lat="45.54939901965725" lon="10.992182946846846"><ele>422.0</ele><time>2026-04-18T10:43:30Z</time></trkpt><trkpt lat="45.5493254991096" lon="10.992242596387962"><ele>419.5</ele><time>2026-04-18T10:43:31Z</time></trkpt><trkpt lat="45.54924720207523" lon="10.992308122896352"><ele>417.0</ele><time>2026-04-18T10:43:32Z</time></trkpt><trkpt lat="45.549156181779175" lon="10.992348927918979"><ele>417.0</ele><time>2026-04-18T10:43:33Z</time></trkpt><trkpt lat="45.54907509991521" lon="10.992403324324496"><ele>417.0</ele><time>2026-04-18T10:43:34Z</time></trkpt><trkpt lat="45.54900349846143" lon="10.992447085203583"><ele>417.0</ele><time>2026-04-18T10:43:35Z</time></trkpt><trkpt lat="45.54889347300273" lon="10.992517328400904"><ele>417.0</ele><time>2026-04-18T10:43:37Z</time></trkpt><trkpt lat="45.54881820917176" lon="10.992564285996968"><ele>417.0</ele><time>2026-04-18T10:43:39Z</time></trkpt><trkpt lat="45.5487301968566" lon="10.99259253027272"><ele>415.3333333333333</ele><time>2026-04-18T10:43:42Z</time></trkpt><trkpt lat="45.54866803088631" lon="10.992624905113075"><ele>413.66666666666663</ele><time>2026-04-18T10:43:45Z</time></trkpt><trkpt lat="45.54857855554791" lon="10.992671502188399"><ele>412.0</ele><time>2026-04-18T10:43:47Z</time></trkpt><trkpt lat="45.54854883497745" lon="10.992762160178305"><ele>410.3333333333333</ele><time>2026-04-18T10:43:48Z</time></trkpt><trkpt lat="45.54846707834175" lon="10.992715709661535"><ele>408.66666666666663</ele><time>2026-04-18T10:43:50Z</time></trkpt><trkpt lat="45.54835330232312" lon="10.992694191662709"><ele>407.0</ele><time>2026-04-18T10:43:53Z</time></trkpt><trkpt lat="45.54829317753988" lon="10.992659091253884"><ele>407.0</ele><time>2026-04-18T10:43:54Z</time></trkpt><trkpt lat="45.54819472574639" lon="10.992642717820674"><ele>407.0</ele><time>2026-04-18T10:43:56.001Z</time></trkpt><trkpt lat="45.54810801446293" lon="10.992656151804855"><ele>407.0</ele><time>2026-04-18T10:43:58.001Z</time></trkpt><trkpt lat="45.54800881109945" lon="10.992626995839178"><ele>407.0</ele><time>2026-04-18T10:44:00.001Z</time></trkpt><trkpt lat="45.54791978651145" lon="10.99262366710369"><ele>407.0</ele><time>2026-04-18T10:44:02.001Z</time></trkpt><trkpt lat="45.547843114970526" lon="10.992599659306949"><ele>404.8333333333333</ele><time>2026-04-18T10:44:04.001Z</time></trkpt><trkpt lat="45.54776684245894" lon="10.992567549321603"><ele>402.66666666666663</ele><time>2026-04-18T10:44:06.001Z</time></trkpt><trkpt lat="45.54769665855796" lon="10.992568912531008"><ele>400.5</ele><time>2026-04-18T10:44:08.001Z</time></trkpt><trkpt lat="45.547605181764446" lon="10.992527111241488"><ele>398.33333333333337</ele><time>2026-04-18T10:44:10.001Z</time></trkpt><trkpt lat="45.54752432989277" lon="10.992514521601889"><ele>396.1666666666667</ele><time>2026-04-18T10:44:13.001Z</time></trkpt><trkpt lat="45.547457827225955" lon="10.992560689625863"><ele>394.0</ele><time>2026-04-18T10:44:17.001Z</time></trkpt><trkpt lat="45.54746602544484" lon="10.992659910842828"><ele>394.00000000000006</ele><time>2026-04-18T10:44:20.001Z</time></trkpt><trkpt lat="45.54750940885431" lon="10.992732294298024"><ele>394.0</ele><time>2026-04-18T10:44:22.001Z</time></trkpt><trkpt lat="45.54759661151793" lon="10.9928140111316"><ele>394.0</ele><time>2026-04-18T10:44:25.001Z</time></trkpt><trkpt lat="45.54766065673798" lon="10.992868929682285"><ele>394.0</ele><time>2026-04-18T10:44:27.001Z</time></trkpt><trkpt lat="45.547685565295154" lon="10.992952174604177"><ele>394.00000000000006</ele><time>2026-04-18T10:44:29.001Z</time></trkpt><trkpt lat="45.547663966331534" lon="10.993045092021495"><ele>394.0</ele><time>2026-04-18T10:44:31.001Z</time></trkpt><trkpt lat="45.54757424488147" lon="10.993126591767622"><ele>394.0</ele><time>2026-04-18T10:44:33.001Z</time></trkpt><trkpt lat="45.54748264737353" lon="10.993242465007418"><ele>394.0</ele><time>2026-04-18T10:44:35.001Z</time></trkpt><trkpt lat="45.547415012418895" lon="10.993317973840835"><ele>394.0</ele><time>2026-04-18T10:44:37.001Z</time></trkpt><trkpt lat="45.54735513986915" lon="10.993389637975243"><ele>394.0</ele><time>2026-04-18T10:44:38.001Z</time></trkpt><trkpt lat="45.547283955973214" lon="10.993482713399697"><ele>394.0</ele><time>2026-04-18T10:44:39.001Z</time></trkpt><trkpt lat="45.547240903179436" lon="10.993570809456543"><ele>397.33333333333337</ele><time>2026-04-18T10:44:40.001Z</time></trkpt><trkpt lat="45.54719089130662" lon="10.993680111470308"><ele>400.6666666666667</ele><time>2026-04-18T10:44:42.001Z</time></trkpt><trkpt lat="45.5472325517424" lon="10.993758844396687"><ele>404.0</ele><time>2026-04-18T10:44:44.001Z</time></trkpt><trkpt lat="45.54721916653255" lon="10.993909492746647"><ele>407.33333333333337</ele><time>2026-04-18T10:44:47.001Z</time></trkpt><trkpt lat="45.54717517106483" lon="10.993981519941"><ele>410.6666666666667</ele><time>2026-04-18T10:44:48.001Z</time></trkpt><trkpt lat="45.54711320573119" lon="10.994057127473187"><ele>414.0</ele><time>2026-04-18T10:44:49.001Z</time></trkpt><trkpt lat="45.54706047090128" lon="10.994133681298148"><ele>414.0</ele><time>2026-04-18T10:44:50.001Z</time></trkpt><trkpt lat="45.546993516236746" lon="10.994259959555242"><ele>399.0</ele><time>2026-04-18T10:44:52.001Z</time></trkpt><trkpt lat="45.5469267519963" lon="10.994297504209836"><ele>399.0</ele><time>2026-04-18T10:44:54.001Z</time></trkpt></trkseg><trkseg><trkpt lat="45.546981627452396" lon="10.994330831688037"><ele>399.0</ele><time>2026-04-18T11:51:02.999Z</time></trkpt><trkpt lat="45.547001451782634" lon="10.994232328196752"><ele>399.0</ele><time>2026-04-18T11:51:13.999Z</time></trkpt><trkpt lat="45.54701737282881" lon="10.994104460925595"><ele>399.0</ele><time>2026-04-18T11:52:04.999Z</time></trkpt><trkpt lat="45.5470691996622" lon="10.994022294131957"><ele>399.0</ele><time>2026-04-18T11:52:05.999Z</time></trkpt><trkpt lat="45.54711861489404" lon="10.993941153050534"><ele>399.0</ele><time>2026-04-18T11:52:06.999Z</time></trkpt><trkpt lat="45.547238164011944" lon="10.99389615786211"><ele>399.0</ele><time>2026-04-18T11:52:08.999Z</time></trkpt><trkpt lat="45.547176472997585" lon="10.993695420387331"><ele>398.0</ele><time>2026-04-18T11:52:14.999Z</time></trkpt><trkpt lat="45.54722252791405" lon="10.993590077930577"><ele>397.0</ele><time>2026-04-18T11:52:17.999Z</time></trkpt><trkpt lat="45.547302155823886" lon="10.993458512747004"><ele>396.0</ele><time>2026-04-18T11:52:19.999Z</time></trkpt><trkpt lat="45.54734822275601" lon="10.993392227465142"><ele>395.0</ele><time>2026-04-18T11:52:20.999Z</time></trkpt><trkpt lat="45.54741368301627" lon="10.993355433828278"><ele>394.0</ele><time>2026-04-18T11:52:21.999Z</time></trkpt><trkpt lat="45.54750294090679" lon="10.993252593915415"><ele>394.00000000000006</ele><time>2026-04-18T11:52:23.999Z</time></trkpt><trkpt lat="45.54758261595851" lon="10.993181658611"><ele>394.0</ele><time>2026-04-18T11:52:25.999Z</time></trkpt><trkpt lat="45.54763934726301" lon="10.993097007579822"><ele>394.0</ele><time>2026-04-18T11:52:27.999Z</time></trkpt><trkpt lat="45.54769809631902" lon="10.993037652883375"><ele>394.0</ele><time>2026-04-18T11:52:31.999Z</time></trkpt><trkpt lat="45.5477741252987" lon="10.993047282161333"><ele>394.00000000000006</ele><time>2026-04-18T11:52:35.999Z</time></trkpt><trkpt lat="45.54786414609141" lon="10.99306888080826"><ele>394.0</ele><time>2026-04-18T11:52:39.999Z</time></trkpt><trkpt lat="45.54794863334774" lon="10.993120108886032"><ele>396.1666666666667</ele><time>2026-04-18T11:52:41.999Z</time></trkpt><trkpt lat="45.54806962564106" lon="10.993136304739808"><ele>398.33333333333337</ele><time>2026-04-18T11:52:43.999Z</time></trkpt><trkpt lat="45.54813601682463" lon="10.993180327672716"><ele>400.5</ele><time>2026-04-18T11:52:46.999Z</time></trkpt><trkpt lat="45.54820080423626" lon="10.993127370308423"><ele>402.66666666666663</ele><time>2026-04-18T11:52:49.999Z</time></trkpt><trkpt lat="45.54826885242477" lon="10.993096680385623"><ele>404.8333333333333</ele><time>2026-04-18T11:52:52.999Z</time></trkpt><trkpt lat="45.54833232267703" lon="10.993049812632108"><ele>407.0</ele><time>2026-04-18T11:52:54.998Z</time></trkpt><trkpt lat="45.548380819382494" lon="10.993130978956037"><ele>406.99999999999994</ele><time>2026-04-18T11:53:12.998Z</time></trkpt><trkpt lat="45.548467833869495" lon="10.99316211738834"><ele>407.0</ele><time>2026-04-18T11:53:15.999Z</time></trkpt><trkpt lat="45.548540791069264" lon="10.99318383078722"><ele>407.0</ele><time>2026-04-18T11:53:17.999Z</time></trkpt><trkpt lat="45.5486075022626" lon="10.993189472875168"><ele>407.0</ele><time>2026-04-18T11:53:20.999Z</time></trkpt><trkpt lat="45.54867165863489" lon="10.993148260272061"><ele>406.99999999999994</ele><time>2026-04-18T11:53:23.999Z</time></trkpt><trkpt lat="45.5487436994244" lon="10.993103283335829"><ele>407.0</ele><time>2026-04-18T11:53:26.999Z</time></trkpt><trkpt lat="45.548822555634025" lon="10.993051119241859"><ele>406.99999999999994</ele><time>2026-04-18T11:53:28.999Z</time></trkpt><trkpt lat="45.548860686266245" lon="10.992977817559959"><ele>407.0</ele><time>2026-04-18T11:53:53.999Z</time></trkpt><trkpt lat="45.548792834345555" lon="10.992929835737362"><ele>407.0</ele><time>2026-04-18T11:53:59.999Z</time></trkpt><trkpt lat="45.54872617165058" lon="10.992857581554539"><ele>407.0</ele><time>2026-04-18T11:54:40.999Z</time></trkpt><trkpt lat="45.54867287883972" lon="10.992787017264934"><ele>406.99999999999994</ele><time>2026-04-18T11:54:42.999Z</time></trkpt><trkpt lat="45.54869042412793" lon="10.992656339019891"><ele>407.0</ele><time>2026-04-18T11:54:45.999Z</time></trkpt><trkpt lat="45.54877041206441" lon="10.992610660716212"><ele>409.0</ele><time>2026-04-18T11:54:47.999Z</time></trkpt><trkpt lat="45.54886769412394" lon="10.992564235435369"><ele>411.0</ele><time>2026-04-18T11:54:49.999Z</time></trkpt><trkpt lat="45.54894156515243" lon="10.992526976144996"><ele>413.0</ele><time>2026-04-18T11:54:50.999Z</time></trkpt><trkpt lat="45.54902258862604" lon="10.992490751386514"><ele>415.0</ele><time>2026-04-18T11:54:51.999Z</time></trkpt><trkpt lat="45.549104113162564" lon="10.992443738351323"><ele>417.0</ele><time>2026-04-18T11:54:52.999Z</time></trkpt><trkpt lat="45.549188039704426" lon="10.992369673132764"><ele>417.0</ele><time>2026-04-18T11:54:53.999Z</time></trkpt><trkpt lat="45.54928678821043" lon="10.99228824473892"><ele>417.0</ele><time>2026-04-18T11:54:54.999Z</time></trkpt><trkpt lat="45.549391490476175" lon="10.992227284885754"><ele>417.0</ele><time>2026-04-18T11:54:55.999Z</time></trkpt><trkpt lat="45.54947389776246" lon="10.992161271149568"><ele>417.0</ele><time>2026-04-18T11:54:56.999Z</time></trkpt><trkpt lat="45.54955906263562" lon="10.992103705870992"><ele>417.0</ele><time>2026-04-18T11:54:57.999Z</time></trkpt><trkpt lat="45.549640803997704" lon="10.992052405393821"><ele>419.5</ele><time>2026-04-18T11:54:58.999Z</time></trkpt><trkpt lat="45.54973389718354" lon="10.992030431154525"><ele>422.0</ele><time>2026-04-18T11:54:59.999Z</time></trkpt><trkpt lat="45.549831729930105" lon="10.992038768614574"><ele>424.5</ele><time>2026-04-18T11:55:00.997Z</time></trkpt><trkpt lat="45.54991494909686" lon="10.992007798623758"><ele>427.0</ele><time>2026-04-18T11:55:01.997Z</time></trkpt><trkpt lat="45.549990737509475" lon="10.99202429820077"><ele>429.5</ele><time>2026-04-18T11:55:02.997Z</time></trkpt><trkpt lat="45.5500812884118" lon="10.992018058224328"><ele>432.0</ele><time>2026-04-18T11:55:03.998Z</time></trkpt><trkpt lat="45.550159407298565" lon="10.992000474827245"><ele>432.0</ele><time>2026-04-18T11:55:04.998Z</time></trkpt><trkpt lat="45.55025786690656" lon="10.992002459149278"><ele>432.00000000000006</ele><time>2026-04-18T11:55:05.998Z</time></trkpt><trkpt lat="45.55036355835223" lon="10.99197111336317"><ele>432.00000000000006</ele><time>2026-04-18T11:55:06.998Z</time></trkpt><trkpt lat="45.55044630387329" lon="10.991907908973417"><ele>432.0</ele><time>2026-04-18T11:55:07.998Z</time></trkpt><trkpt lat="45.550505257739914" lon="10.99182690711632"><ele>432.0</ele><time>2026-04-18T11:55:08.998Z</time></trkpt><trkpt lat="45.550566084643386" lon="10.991769286700531"><ele>433.8333333333333</ele><time>2026-04-18T11:55:09.998Z</time></trkpt><trkpt lat="45.55063766534171" lon="10.991686300911555"><ele>435.66666666666663</ele><time>2026-04-18T11:55:10.998Z</time></trkpt><trkpt lat="45.55069892825403" lon="10.99163055107276"><ele>437.5</ele><time>2026-04-18T11:55:11.998Z</time></trkpt><trkpt lat="45.55076185433051" lon="10.991566196538383"><ele>439.3333333333333</ele><time>2026-04-18T11:55:12.998Z</time></trkpt><trkpt lat="45.55080606107916" lon="10.9914921462839"><ele>441.16666666666663</ele><time>2026-04-18T11:55:13.998Z</time></trkpt><trkpt lat="45.5508675704496" lon="10.991452725662333"><ele>443.0</ele><time>2026-04-18T11:55:14.998Z</time></trkpt><trkpt lat="45.55095810976945" lon="10.991388272719156"><ele>444.99999999999994</ele><time>2026-04-18T11:55:16.998Z</time></trkpt><trkpt lat="45.55101832968072" lon="10.99134347325785"><ele>447.0</ele><time>2026-04-18T11:55:17.998Z</time></trkpt><trkpt lat="45.55107100623654" lon="10.991279415443362"><ele>449.0</ele><time>2026-04-18T11:55:18.998Z</time></trkpt><trkpt lat="45.551191326901275" lon="10.991203373521053"><ele>451.0</ele><time>2026-04-18T11:55:20.998Z</time></trkpt><trkpt lat="45.55122977886668" lon="10.991123358151757"><ele>452.99999999999994</ele><time>2026-04-18T11:55:21.998Z</time></trkpt><trkpt lat="45.551279824159764" lon="10.991039032130574"><ele>455.0</ele><time>2026-04-18T11:55:22.999Z</time></trkpt><trkpt lat="45.55136347612183" lon="10.990959307791229"><ele>455.99999999999994</ele><time>2026-04-18T11:55:23.999Z</time></trkpt><trkpt lat="45.55141522040357" lon="10.990891451799524"><ele>457.0</ele><time>2026-04-18T11:55:24.999Z</time></trkpt><trkpt lat="45.5514749056307" lon="10.990815215172415"><ele>458.0</ele><time>2026-04-18T11:55:26.999Z</time></trkpt><trkpt lat="45.551541163608064" lon="10.990733496234334"><ele>459.0</ele><time>2026-04-18T11:55:41.999Z</time></trkpt><trkpt lat="45.551644160683445" lon="10.990635010574195"><ele>459.99999999999994</ele><time>2026-04-18T11:55:43.999Z</time></trkpt><trkpt lat="45.55170621532665" lon="10.990598203841182"><ele>461.0</ele><time>2026-04-18T11:55:44.999Z</time></trkpt><trkpt lat="45.5517733024518" lon="10.990571066638214"><ele>463.66666666666663</ele><time>2026-04-18T11:55:45.999Z</time></trkpt><trkpt lat="45.55184582801072" lon="10.9905470511591"><ele>466.3333333333333</ele><time>2026-04-18T11:55:46.999Z</time></trkpt><trkpt lat="45.55193712548481" lon="10.990520825624934"><ele>469.0</ele><time>2026-04-18T11:55:47.999Z</time></trkpt><trkpt lat="45.55204127744804" lon="10.99048614216612"><ele>471.66666666666663</ele><time>2026-04-18T11:55:48.999Z</time></trkpt><trkpt lat="45.55212155359719" lon="10.990451007005102"><ele>474.3333333333333</ele><time>2026-04-18T11:55:49.999Z</time></trkpt><trkpt lat="45.552194135843074" lon="10.990408902909556"><ele>477.0</ele><time>2026-04-18T11:55:50.999Z</time></trkpt><trkpt lat="45.55226748945814" lon="10.990350400893073"><ele>478.6</ele><time>2026-04-18T11:55:51.999Z</time></trkpt><trkpt lat="45.55233315810556" lon="10.990262430972141"><ele>480.20000000000005</ele><time>2026-04-18T11:55:52.999Z</time></trkpt><trkpt lat="45.55239459855273" lon="10.990120374226212"><ele>481.8</ele><time>2026-04-18T11:55:54.999Z</time></trkpt><trkpt lat="45.55241395583675" lon="10.99002118234153"><ele>483.4</ele><time>2026-04-18T11:55:56.999Z</time></trkpt><trkpt lat="45.55253138662935" lon="10.990140056841012"><ele>485.0</ele><time>2026-04-18T11:55:58.999Z</time></trkpt><trkpt lat="45.55259374093663" lon="10.990251987857347"><ele>484.99999999999994</ele><time>2026-04-18T11:55:59.999Z</time></trkpt><trkpt lat="45.552632164500295" lon="10.99037213153148"><ele>485.0</ele><time>2026-04-18T11:56:00.999Z</time></trkpt><trkpt lat="45.55265864689578" lon="10.990488411248915"><ele>485.0</ele><time>2026-04-18T11:56:01.999Z</time></trkpt><trkpt lat="45.552687996264744" lon="10.990600266530201"><ele>485.0</ele><time>2026-04-18T11:56:02.999Z</time></trkpt><trkpt lat="45.55270859738255" lon="10.99071646447181"><ele>484.99999999999994</ele><time>2026-04-18T11:56:03.999Z</time></trkpt><trkpt lat="45.5527361766345" lon="10.9908324810044"><ele>485.0</ele><time>2026-04-18T11:56:04.999Z</time></trkpt><trkpt lat="45.55275483217646" lon="10.990954804200037"><ele>483.8</ele><time>2026-04-18T11:56:05.999Z</time></trkpt><trkpt lat="45.55277403359127" lon="10.991085012783929"><ele>482.6</ele><time>2026-04-18T11:56:06.999Z</time></trkpt><trkpt lat="45.552797317066755" lon="10.991243068516026"><ele>481.4</ele><time>2026-04-18T11:56:07.999Z</time></trkpt><trkpt lat="45.55281894610779" lon="10.991401710186507"><ele>480.2</ele><time>2026-04-18T11:56:08.999Z</time></trkpt><trkpt lat="45.552834822101204" lon="10.991552811873447"><ele>479.0</ele><time>2026-04-18T11:56:09.999Z</time></trkpt><trkpt lat="45.55284043803332" lon="10.991696413539842"><ele>478.6</ele><time>2026-04-18T11:56:10.999Z</time></trkpt><trkpt lat="45.552845393279426" lon="10.991842844108499"><ele>478.2</ele><time>2026-04-18T11:56:11.999Z</time></trkpt><trkpt lat="45.55285376647813" lon="10.991986556418022"><ele>477.80000000000007</ele><time>2026-04-18T11:56:12.999Z</time></trkpt><trkpt lat="45.552855387796285" lon="10.992119987922221"><ele>477.40000000000003</ele><time>2026-04-18T11:56:13.999Z</time></trkpt><trkpt lat="45.55284893598427" lon="10.992242760393971"><ele>477.0</ele><time>2026-04-18T11:56:14.999Z</time></trkpt><trkpt lat="45.55283680452318" lon="10.992345850101856"><ele>477.0</ele><time>2026-04-18T11:56:15.999Z</time></trkpt><trkpt lat="45.5528170881149" lon="10.992473230517506"><ele>477.00000000000006</ele><time>2026-04-18T11:56:17.999Z</time></trkpt><trkpt lat="45.55296629094345" lon="10.992607929309269"><ele>477.00000000000006</ele><time>2026-04-18T11:56:20.999Z</time></trkpt><trkpt lat="45.55303686715721" lon="10.992624266248173"><ele>477.0</ele><time>2026-04-18T11:56:21.999Z</time></trkpt><trkpt lat="45.553142571505106" lon="10.992645952017604"><ele>477.0</ele><time>2026-04-18T11:56:22.999Z</time></trkpt><trkpt lat="45.5532660400419" lon="10.992672368305122"><ele>476.75</ele><time>2026-04-18T11:56:23.999Z</time></trkpt><trkpt lat="45.553404594367166" lon="10.992686524773816"><ele>476.5</ele><time>2026-04-18T11:56:24.999Z</time></trkpt><trkpt lat="45.55353520249184" lon="10.992686781876738"><ele>476.25</ele><time>2026-04-18T11:56:25.999Z</time></trkpt><trkpt lat="45.55366690173274" lon="10.992671080943953"><ele>476.0</ele><time>2026-04-18T11:56:26.999Z</time></trkpt><trkpt lat="45.553790586597586" lon="10.992640051603862"><ele>474.4</ele><time>2026-04-18T11:56:27.999Z</time></trkpt><trkpt lat="45.55390644491293" lon="10.992602232493288"><ele>472.8</ele><time>2026-04-18T11:56:28.999Z</time></trkpt><trkpt lat="45.5539933237855" lon="10.99257237151116"><ele>471.19999999999993</ele><time>2026-04-18T11:56:29.999Z</time></trkpt><trkpt lat="45.55407341279288" lon="10.992539079914247"><ele>469.59999999999997</ele><time>2026-04-18T11:56:30.999Z</time></trkpt><trkpt lat="45.554151237662765" lon="10.992497909030268"><ele>468.0</ele><time>2026-04-18T11:56:31.999Z</time></trkpt><trkpt lat="45.554219679350496" lon="10.992449658571763"><ele>468.0</ele><time>2026-04-18T11:56:32.999Z</time></trkpt><trkpt lat="45.554294601329374" lon="10.992398041702987"><ele>467.99999999999994</ele><time>2026-04-18T11:56:33.999Z</time></trkpt><trkpt lat="45.554369583115175" lon="10.99234563729285"><ele>467.99999999999994</ele><time>2026-04-18T11:56:34.999Z</time></trkpt><trkpt lat="45.55445261355155" lon="10.992276408660949"><ele>468.0</ele><time>2026-04-18T11:56:35.999Z</time></trkpt><trkpt lat="45.554535189652185" lon="10.992215444338292"><ele>468.0</ele><time>2026-04-18T11:56:36.999Z</time></trkpt><trkpt lat="45.554629136299106" lon="10.992150094144423"><ele>465.0</ele><time>2026-04-18T11:56:37.999Z</time></trkpt><trkpt lat="45.55470870473692" lon="10.992094048745278"><ele>462.0</ele><time>2026-04-18T11:56:38.999Z</time></trkpt><trkpt lat="45.554776290402465" lon="10.992056140307437"><ele>459.0</ele><time>2026-04-18T11:56:39.999Z</time></trkpt><trkpt lat="45.55482962652322" lon="10.991995224208665"><ele>456.0</ele><time>2026-04-18T11:56:40.999Z</time></trkpt><trkpt lat="45.55489053382895" lon="10.991951791789866"><ele>453.0</ele><time>2026-04-18T11:56:41.999Z</time></trkpt><trkpt lat="45.55494767926928" lon="10.991872344732107"><ele>450.0</ele><time>2026-04-18T11:56:42.999Z</time></trkpt><trkpt lat="45.55499597922538" lon="10.991736728046156"><ele>451.5</ele><time>2026-04-18T11:56:45Z</time></trkpt><trkpt lat="45.555020252640176" lon="10.991642006233777"><ele>453.0</ele><time>2026-04-18T11:56:47Z</time></trkpt><trkpt lat="45.555060021971805" lon="10.991544825934158"><ele>454.5</ele><time>2026-04-18T11:56:50Z</time></trkpt><trkpt lat="45.55509016263999" lon="10.991442610066448"><ele>456.0</ele><time>2026-04-18T11:56:53Z</time></trkpt><trkpt lat="45.55509278190989" lon="10.991333140785839"><ele>457.5</ele><time>2026-04-18T11:56:55Z</time></trkpt><trkpt lat="45.555073242717036" lon="10.991230107912637"><ele>459.0</ele><time>2026-04-18T11:56:57Z</time></trkpt><trkpt lat="45.555029367679396" lon="10.991116089867548"><ele>459.0</ele><time>2026-04-18T11:56:59Z</time></trkpt><trkpt lat="45.55500613171499" lon="10.99100994806588"><ele>459.0</ele><time>2026-04-18T11:57:01Z</time></trkpt><trkpt lat="45.55496004012425" lon="10.990889351465903"><ele>459.0</ele><time>2026-04-18T11:57:03Z</time></trkpt><trkpt lat="45.55494533999685" lon="10.990752634532093"><ele>459.0</ele><time>2026-04-18T11:57:05Z</time></trkpt><trkpt lat="45.55494833876061" lon="10.990599131413747"><ele>459.0</ele><time>2026-04-18T11:57:06.999Z</time></trkpt><trkpt lat="45.554925580152606" lon="10.99041944268388"><ele>457.6666666666667</ele><time>2026-04-18T11:57:08.999Z</time></trkpt><trkpt lat="45.554991771580134" lon="10.990382116033505"><ele>456.33333333333337</ele><time>2026-04-18T11:57:11.999Z</time></trkpt><trkpt lat="45.55506786369483" lon="10.990417373372075"><ele>455.0</ele><time>2026-04-18T11:57:13.999Z</time></trkpt><trkpt lat="45.555150714380595" lon="10.99047618292687"><ele>453.6666666666667</ele><time>2026-04-18T11:57:15.999Z</time></trkpt><trkpt lat="45.55521879778965" lon="10.990500299635563"><ele>452.33333333333337</ele><time>2026-04-18T11:57:17.999Z</time></trkpt><trkpt lat="45.55529061962473" lon="10.990487140120162"><ele>451.0</ele><time>2026-04-18T11:57:19.999Z</time></trkpt><trkpt lat="45.55538883645479" lon="10.990487476527516"><ele>447.6</ele><time>2026-04-18T11:57:21.999Z</time></trkpt><trkpt lat="45.55546660301768" lon="10.990459075932902"><ele>444.20000000000005</ele><time>2026-04-18T11:57:23.999Z</time></trkpt><trkpt lat="45.55555152147713" lon="10.99043884941424"><ele>440.79999999999995</ele><time>2026-04-18T11:57:35Z</time></trkpt><trkpt lat="45.5555856687599" lon="10.990353921140265"><ele>437.4</ele><time>2026-04-18T11:57:36Z</time></trkpt><trkpt lat="45.55560847933132" lon="10.99018507403216"><ele>434.0</ele><time>2026-04-18T11:57:38Z</time></trkpt><trkpt lat="45.55567184494612" lon="10.99000051501931"><ele>433.99999999999994</ele><time>2026-04-18T11:57:40Z</time></trkpt><trkpt lat="45.555635409336944" lon="10.989912553825732"><ele>434.0</ele><time>2026-04-18T11:57:41Z</time></trkpt><trkpt lat="45.55567361927362" lon="10.989759732076342"><ele>434.0</ele><time>2026-04-18T11:57:43Z</time></trkpt><trkpt lat="45.55570509055741" lon="10.989629592365313"><ele>434.0</ele><time>2026-04-18T11:57:45Z</time></trkpt><trkpt lat="45.55577483998322" lon="10.98958662601709"><ele>433.99999999999994</ele><time>2026-04-18T11:57:46Z</time></trkpt><trkpt lat="45.55584052779794" lon="10.989592424869707"><ele>434.0</ele><time>2026-04-18T11:57:48Z</time></trkpt><trkpt lat="45.55590673503984" lon="10.98956197459046"><ele>434.0</ele><time>2026-04-18T11:57:51Z</time></trkpt><trkpt lat="45.555992792794925" lon="10.98954626375125"><ele>434.0</ele><time>2026-04-18T11:57:56Z</time></trkpt><trkpt lat="45.556049628149005" lon="10.989505203403514"><ele>434.0</ele><time>2026-04-18T11:58:00Z</time></trkpt><trkpt lat="45.556116078446614" lon="10.989511188043082"><ele>434.0</ele><time>2026-04-18T11:58:05Z</time></trkpt><trkpt lat="45.556185360563724" lon="10.989569258819484"><ele>434.0</ele><time>2026-04-18T11:58:08Z</time></trkpt><trkpt lat="45.55624010095888" lon="10.989635328389674"><ele>434.0</ele><time>2026-04-18T11:58:12Z</time></trkpt><trkpt lat="45.55631044386025" lon="10.989666359307726"><ele>434.0</ele><time>2026-04-18T11:58:14Z</time></trkpt><trkpt lat="45.556377461684946" lon="10.989687753099114"><ele>435.79999999999995</ele><time>2026-04-18T11:58:16Z</time></trkpt><trkpt lat="45.55645864560419" lon="10.9896938908578"><ele>437.59999999999997</ele><time>2026-04-18T11:58:18Z</time></trkpt><trkpt lat="45.55651971815765" lon="10.989750880348677"><ele>439.4</ele><time>2026-04-18T11:58:20Z</time></trkpt><trkpt lat="45.55654804096787" lon="10.989884790705531"><ele>441.2</ele><time>2026-04-18T11:59:09Z</time></trkpt><trkpt lat="45.5566083872055" lon="10.99004557521665"><ele>443.0</ele><time>2026-04-18T11:59:11Z</time></trkpt><trkpt lat="45.556657984230476" lon="10.990136708367752"><ele>439.3333333333333</ele><time>2026-04-18T11:59:12.001Z</time></trkpt><trkpt lat="45.55670200816777" lon="10.990216769259526"><ele>435.66666666666663</ele><time>2026-04-18T11:59:13.001Z</time></trkpt><trkpt lat="45.55676115084509" lon="10.990254808189519"><ele>432.0</ele><time>2026-04-18T11:59:14.001Z</time></trkpt><trkpt lat="45.55683097423557" lon="10.990377941947555"><ele>428.33333333333337</ele><time>2026-04-18T11:59:16.001Z</time></trkpt><trkpt lat="45.55687556358107" lon="10.990443813671341"><ele>424.6666666666667</ele><time>2026-04-18T11:59:17.001Z</time></trkpt><trkpt lat="45.55692613503783" lon="10.990508842578281"><ele>421.0</ele><time>2026-04-18T11:59:18.001Z</time></trkpt><trkpt lat="45.55700340284094" lon="10.990564651387972"><ele>422.33333333333337</ele><time>2026-04-18T11:59:19.001Z</time></trkpt><trkpt lat="45.55706632418878" lon="10.990599681397356"><ele>423.6666666666667</ele><time>2026-04-18T11:59:20.001Z</time></trkpt><trkpt lat="45.55713511728275" lon="10.990657518945826"><ele>425.0</ele><time>2026-04-18T11:59:21.001Z</time></trkpt><trkpt lat="45.55718934365017" lon="10.990747112341522"><ele>426.33333333333337</ele><time>2026-04-18T11:59:22.001Z</time></trkpt><trkpt lat="45.55724190511079" lon="10.990843447237703"><ele>427.6666666666667</ele><time>2026-04-18T11:59:23.001Z</time></trkpt><trkpt lat="45.557294196141264" lon="10.99093484609857"><ele>429.0</ele><time>2026-04-18T11:59:24Z</time></trkpt><trkpt lat="45.557335544086634" lon="10.991016352284673"><ele>429.0</ele><time>2026-04-18T11:59:25Z</time></trkpt><trkpt lat="45.5573810029185" lon="10.99107953216211"><ele>429.0</ele><time>2026-04-18T11:59:26Z</time></trkpt><trkpt lat="45.55748782406174" lon="10.991161414086395"><ele>429.0</ele><time>2026-04-18T11:59:28Z</time></trkpt><trkpt lat="45.557556567636766" lon="10.991202619513901"><ele>429.0</ele><time>2026-04-18T11:59:29Z</time></trkpt><trkpt lat="45.55766234066083" lon="10.991237585985557"><ele>429.0</ele><time>2026-04-18T11:59:30Z</time></trkpt><trkpt lat="45.55775854500397" lon="10.991248849627068"><ele>429.0</ele><time>2026-04-18T11:59:31Z</time></trkpt><trkpt lat="45.55783456493755" lon="10.99126245758504"><ele>429.0</ele><time>2026-04-18T11:59:32Z</time></trkpt><trkpt lat="45.55789802945142" lon="10.991339084832912"><ele>429.0</ele><time>2026-04-18T11:59:38Z</time></trkpt><trkpt lat="45.55791943745521" lon="10.991499498114337"><ele>429.0</ele><time>2026-04-18T11:59:40Z</time></trkpt><trkpt lat="45.55792693591129" lon="10.991595779778542"><ele>429.0</ele><time>2026-04-18T11:59:41Z</time></trkpt><trkpt lat="45.55794084883667" lon="10.991813611661334"><ele>432.1666666666667</ele><time>2026-04-18T11:59:43Z</time></trkpt><trkpt lat="45.55795689511149" lon="10.991931111790791"><ele>435.33333333333337</ele><time>2026-04-18T11:59:44Z</time></trkpt><trkpt lat="45.5579796780935" lon="10.992041363158918"><ele>438.5</ele><time>2026-04-18T11:59:45Z</time></trkpt><trkpt lat="45.557994301698315" lon="10.992154014460617"><ele>441.6666666666667</ele><time>2026-04-18T11:59:46Z</time></trkpt><trkpt lat="45.55801680337568" lon="10.992259361114163"><ele>444.83333333333337</ele><time>2026-04-18T11:59:47Z</time></trkpt><trkpt lat="45.558061963742986" lon="10.99234809563357"><ele>448.0</ele><time>2026-04-18T11:59:48.001Z</time></trkpt><trkpt lat="45.55818087407302" lon="10.992433100537994"><ele>448.0</ele><time>2026-04-18T11:59:50.001Z</time></trkpt><trkpt lat="45.558275080881984" lon="10.992465879858846"><ele>447.99999999999994</ele><time>2026-04-18T11:59:51.001Z</time></trkpt><trkpt lat="45.558372120575854" lon="10.992487838981724"><ele>447.99999999999994</ele><time>2026-04-18T11:59:52.001Z</time></trkpt><trkpt lat="45.55844644515291" lon="10.992483458012929"><ele>448.0</ele><time>2026-04-18T11:59:53.001Z</time></trkpt><trkpt lat="45.55857637273317" lon="10.992499084523335"><ele>448.0</ele><time>2026-04-18T11:59:55.001Z</time></trkpt><trkpt lat="45.558673675792754" lon="10.992502466188533"><ele>445.4</ele><time>2026-04-18T11:59:56.001Z</time></trkpt><trkpt lat="45.5587395453042" lon="10.992551708140676"><ele>442.79999999999995</ele><time>2026-04-18T11:59:57.001Z</time></trkpt><trkpt lat="45.558789411631665" lon="10.992642528393528"><ele>440.2</ele><time>2026-04-18T11:59:58.001Z</time></trkpt><trkpt lat="45.5588553993769" lon="10.9927040016925"><ele>437.6</ele><time>2026-04-18T11:59:59.001Z</time></trkpt><trkpt lat="45.55897701174783" lon="10.992809605338392"><ele>435.0</ele><time>2026-04-18T12:00:01.001Z</time></trkpt><trkpt lat="45.55907855189167" lon="10.99287313128279"><ele>435.0</ele><time>2026-04-18T12:00:03.001Z</time></trkpt><trkpt lat="45.55915007227639" lon="10.992896540554558"><ele>435.0</ele><time>2026-04-18T12:00:04.001Z</time></trkpt><trkpt lat="45.55922373871136" lon="10.992909207040363"><ele>435.0</ele><time>2026-04-18T12:00:05.001Z</time></trkpt><trkpt lat="45.559287476991976" lon="10.992927312122843"><ele>435.0</ele><time>2026-04-18T12:00:06.001Z</time></trkpt><trkpt lat="45.55940416437161" lon="10.99287767903622"><ele>435.0</ele><time>2026-04-18T12:00:08.001Z</time></trkpt><trkpt lat="45.55946543214672" lon="10.992825724687837"><ele>435.0</ele><time>2026-04-18T12:00:09.001Z</time></trkpt><trkpt lat="45.55951793116768" lon="10.992752119134368"><ele>431.5714285714286</ele><time>2026-04-18T12:00:10.001Z</time></trkpt><trkpt lat="45.55957180476047" lon="10.992681946452276"><ele>428.14285714285717</ele><time>2026-04-18T12:00:11.001Z</time></trkpt><trkpt lat="45.55962625124134" lon="10.99262935163493"><ele>424.7142857142857</ele><time>2026-04-18T12:00:13.001Z</time></trkpt><trkpt lat="45.559692788478614" lon="10.992610580380322"><ele>421.28571428571433</ele><time>2026-04-18T12:00:19.001Z</time></trkpt><trkpt lat="45.559758488938634" lon="10.99267382946961"><ele>417.85714285714283</ele><time>2026-04-18T12:00:24.001Z</time></trkpt><trkpt lat="45.55980741302288" lon="10.99274668881835"><ele>414.42857142857144</ele><time>2026-04-18T12:00:26.001Z</time></trkpt><trkpt lat="45.55974894263691" lon="10.992815659015633"><ele>411.0</ele><time>2026-04-18T12:00:29.001Z</time></trkpt><trkpt lat="45.55970774491924" lon="10.992913260446251"><ele>411.0</ele><time>2026-04-18T12:00:32.001Z</time></trkpt><trkpt lat="45.55965749198054" lon="10.992985108287698"><ele>411.0</ele><time>2026-04-18T12:00:35.001Z</time></trkpt><trkpt lat="45.55958716971868" lon="10.993054259431595"><ele>411.0</ele><time>2026-04-18T12:00:37.001Z</time></trkpt><trkpt lat="45.55950479473789" lon="10.99312533613191"><ele>411.0</ele><time>2026-04-18T12:00:39.001Z</time></trkpt><trkpt lat="45.55948673324785" lon="10.993247696155334"><ele>411.0</ele><time>2026-04-18T12:00:41.001Z</time></trkpt><trkpt lat="45.55939464736129" lon="10.993284128014707"><ele>411.0</ele><time>2026-04-18T12:00:43.001Z</time></trkpt><trkpt lat="45.559309244074534" lon="10.993288567764269"><ele>415.8</ele><time>2026-04-18T12:00:45.001Z</time></trkpt><trkpt lat="45.55920270134431" lon="10.993288339525492"><ele>420.6</ele><time>2026-04-18T12:00:47.001Z</time></trkpt><trkpt lat="45.559090490844184" lon="10.99329718715672"><ele>425.4</ele><time>2026-04-18T12:00:49.001Z</time></trkpt><trkpt lat="45.558965904662315" lon="10.99332983892895"><ele>430.2</ele><time>2026-04-18T12:00:51.001Z</time></trkpt><trkpt lat="45.55890226005267" lon="10.993346522085238"><ele>435.0</ele><time>2026-04-18T12:00:52.001Z</time></trkpt><trkpt lat="45.558839652093106" lon="10.993362232163424"><ele>435.0</ele><time>2026-04-18T12:00:53.001Z</time></trkpt><trkpt lat="45.55871015458436" lon="10.993335488382932"><ele>435.0</ele><time>2026-04-18T12:00:55.001Z</time></trkpt><trkpt lat="45.55865161796506" lon="10.993282884215905"><ele>435.0</ele><time>2026-04-18T12:00:56.001Z</time></trkpt><trkpt lat="45.55862216295652" lon="10.993196782605489"><ele>435.0</ele><time>2026-04-18T12:00:57.001Z</time></trkpt><trkpt lat="45.55865572966211" lon="10.993094741426363"><ele>435.0</ele><time>2026-04-18T12:00:58.001Z</time></trkpt><trkpt lat="45.55863808627363" lon="10.99298888509162"><ele>435.0</ele><time>2026-04-18T12:00:59.001Z</time></trkpt><trkpt lat="45.55855764984286" lon="10.992914602395171"><ele>430.4</ele><time>2026-04-18T12:01:00.001Z</time></trkpt><trkpt lat="45.55847575254199" lon="10.992855562095448"><ele>425.8</ele><time>2026-04-18T12:01:01.001Z</time></trkpt><trkpt lat="45.5583794397478" lon="10.992782426509736"><ele>421.20000000000005</ele><time>2026-04-18T12:01:02.001Z</time></trkpt><trkpt lat="45.55828471976889" lon="10.992719724772021"><ele>416.6</ele><time>2026-04-18T12:01:03.001Z</time></trkpt><trkpt lat="45.55820304933285" lon="10.992649125189967"><ele>412.0</ele><time>2026-04-18T12:01:04.001Z</time></trkpt><trkpt lat="45.55812788196529" lon="10.992582110657752"><ele>412.00000000000006</ele><time>2026-04-18T12:01:05.001Z</time></trkpt><trkpt lat="45.558053455576065" lon="10.992530523240317"><ele>412.0</ele><time>2026-04-18T12:01:06.001Z</time></trkpt><trkpt lat="45.557972704834285" lon="10.992515302826506"><ele>412.0</ele><time>2026-04-18T12:01:07.001Z</time></trkpt><trkpt lat="45.55789217195946" lon="10.992482709629819"><ele>412.0</ele><time>2026-04-18T12:01:08.001Z</time></trkpt><trkpt lat="45.55782085070726" lon="10.99240930145948"><ele>412.00000000000006</ele><time>2026-04-18T12:01:09.001Z</time></trkpt><trkpt lat="45.557782616483095" lon="10.992299100776304"><ele>412.0</ele><time>2026-04-18T12:01:10.001Z</time></trkpt><trkpt lat="45.55773151993687" lon="10.992193513070184"><ele>410.40000000000003</ele><time>2026-04-18T12:01:11.001Z</time></trkpt><trkpt lat="45.55769445377398" lon="10.992051479426696"><ele>408.8</ele><time>2026-04-18T12:01:12.001Z</time></trkpt><trkpt lat="45.55766098471487" lon="10.991904116294277"><ele>407.2</ele><time>2026-04-18T12:01:13.001Z</time></trkpt><trkpt lat="45.55761467458966" lon="10.99179754683496"><ele>405.6</ele><time>2026-04-18T12:01:14.001Z</time></trkpt><trkpt lat="45.55757116254608" lon="10.9917113945034"><ele>404.0</ele><time>2026-04-18T12:01:15.001Z</time></trkpt><trkpt lat="45.5574969545819" lon="10.991656182667663"><ele>409.0</ele><time>2026-04-18T12:01:16.001Z</time></trkpt><trkpt lat="45.557416073148495" lon="10.991630376117309"><ele>414.0</ele><time>2026-04-18T12:01:17.001Z</time></trkpt><trkpt lat="45.557329585412624" lon="10.9915932511668"><ele>419.0</ele><time>2026-04-18T12:01:18.001Z</time></trkpt><trkpt lat="45.55722091255474" lon="10.991550203448606"><ele>424.0</ele><time>2026-04-18T12:01:19.001Z</time></trkpt><trkpt lat="45.55712014839666" lon="10.991507405941986"><ele>429.0</ele><time>2026-04-18T12:01:20.001Z</time></trkpt><trkpt lat="45.55704749889114" lon="10.99143153824832"><ele>422.8333333333333</ele><time>2026-04-18T12:01:21.001Z</time></trkpt><trkpt lat="45.55699268782561" lon="10.991357388674505"><ele>416.66666666666663</ele><time>2026-04-18T12:01:22.001Z</time></trkpt><trkpt lat="45.556953933481424" lon="10.991256961666556"><ele>410.5</ele><time>2026-04-18T12:01:23.001Z</time></trkpt><trkpt lat="45.556900289085675" lon="10.99115983018893"><ele>404.3333333333333</ele><time>2026-04-18T12:01:24.001Z</time></trkpt><trkpt lat="45.556841541034224" lon="10.991067841540781"><ele>398.16666666666663</ele><time>2026-04-18T12:01:25.001Z</time></trkpt><trkpt lat="45.55676075219243" lon="10.990998100886209"><ele>392.0</ele><time>2026-04-18T12:01:26.001Z</time></trkpt><trkpt lat="45.55667155879717" lon="10.990932690429654"><ele>392.0</ele><time>2026-04-18T12:01:27.001Z</time></trkpt><trkpt lat="45.55658754847279" lon="10.99084237982088"><ele>392.0</ele><time>2026-04-18T12:01:28.001Z</time></trkpt><trkpt lat="45.55650898464914" lon="10.990752369379953"><ele>392.0</ele><time>2026-04-18T12:01:29.001Z</time></trkpt><trkpt lat="45.55642550685651" lon="10.990679421432937"><ele>392.0</ele><time>2026-04-18T12:01:30.001Z</time></trkpt><trkpt lat="45.55633746892224" lon="10.990627666597213"><ele>392.0</ele><time>2026-04-18T12:01:31.001Z</time></trkpt><trkpt lat="45.55626495235535" lon="10.990588374907126"><ele>392.0</ele><time>2026-04-18T12:01:32.001Z</time></trkpt><trkpt lat="45.55618384144033" lon="10.990598731242063"><ele>392.0</ele><time>2026-04-18T12:01:34.001Z</time></trkpt><trkpt lat="45.55617191574323" lon="10.990745523218193"><ele>392.0</ele><time>2026-04-18T12:01:36.001Z</time></trkpt><trkpt lat="45.55629820706522" lon="10.990884099186147"><ele>392.0</ele><time>2026-04-18T12:01:38.001Z</time></trkpt><trkpt lat="45.556385621385836" lon="10.990966008686838"><ele>392.0</ele><time>2026-04-18T12:01:39.001Z</time></trkpt><trkpt lat="45.55647230069239" lon="10.991073496906996"><ele>392.0</ele><time>2026-04-18T12:01:40.001Z</time></trkpt><trkpt lat="45.55655109650805" lon="10.991193251109733"><ele>392.0</ele><time>2026-04-18T12:01:41.001Z</time></trkpt><trkpt lat="45.556619448133624" lon="10.991320273612592"><ele>392.0</ele><time>2026-04-18T12:01:42.001Z</time></trkpt><trkpt lat="45.55668147638459" lon="10.991443538438437"><ele>392.0</ele><time>2026-04-18T12:01:43.001Z</time></trkpt><trkpt lat="45.55674081737623" lon="10.991573227632065"><ele>392.0</ele><time>2026-04-18T12:01:44.001Z</time></trkpt><trkpt lat="45.55679803281278" lon="10.991707437377414"><ele>395.0</ele><time>2026-04-18T12:01:45.001Z</time></trkpt><trkpt lat="45.556873067628736" lon="10.991836914855142"><ele>398.0</ele><time>2026-04-18T12:01:46.001Z</time></trkpt><trkpt lat="45.5569618696485" lon="10.991944167072962"><ele>401.0</ele><time>2026-04-18T12:01:47.001Z</time></trkpt><trkpt lat="45.557056349258225" lon="10.992045436766471"><ele>404.0</ele><time>2026-04-18T12:01:48.001Z</time></trkpt><trkpt lat="45.5571352092789" lon="10.992164937305168"><ele>404.0</ele><time>2026-04-18T12:01:49.001Z</time></trkpt><trkpt lat="45.55718225997476" lon="10.992322328336597"><ele>404.0</ele><time>2026-04-18T12:01:50.001Z</time></trkpt><trkpt lat="45.557216742078936" lon="10.992480791682652"><ele>404.0</ele><time>2026-04-18T12:01:51.001Z</time></trkpt><trkpt lat="45.55725226280212" lon="10.992634493730957"><ele>404.0</ele><time>2026-04-18T12:01:52.001Z</time></trkpt><trkpt lat="45.557303777830896" lon="10.992784601488072"><ele>394.0</ele><time>2026-04-18T12:01:53.001Z</time></trkpt><trkpt lat="45.55737344536783" lon="10.992927443460475"><ele>384.0</ele><time>2026-04-18T12:01:54.001Z</time></trkpt><trkpt lat="45.55745342040935" lon="10.99306257566762"><ele>374.0</ele><time>2026-04-18T12:01:55.001Z</time></trkpt><trkpt lat="45.557535779377375" lon="10.993187326174088"><ele>364.0</ele><time>2026-04-18T12:01:56.001Z</time></trkpt><trkpt lat="45.55762177804978" lon="10.993288477825796"><ele>357.79999999999995</ele><time>2026-04-18T12:01:57.001Z</time></trkpt><trkpt lat="45.557703556810694" lon="10.993358167017298"><ele>351.59999999999997</ele><time>2026-04-18T12:01:58.001Z</time></trkpt><trkpt lat="45.55777322119123" lon="10.993411783286325"><ele>345.4</ele><time>2026-04-18T12:01:59.001Z</time></trkpt><trkpt lat="45.557839177589315" lon="10.993514211992874"><ele>339.2</ele><time>2026-04-18T12:02:01.001Z</time></trkpt><trkpt lat="45.5577946981255" lon="10.993577901978949"><ele>333.0</ele><time>2026-04-18T12:02:02.001Z</time></trkpt><trkpt lat="45.55767863540863" lon="10.993477288435814"><ele>333.0</ele><time>2026-04-18T12:02:04.001Z</time></trkpt><trkpt lat="45.557576251184045" lon="10.99341037261643"><ele>333.0</ele><time>2026-04-18T12:02:05.001Z</time></trkpt><trkpt lat="45.55745907189055" lon="10.993337519281765"><ele>333.0</ele><time>2026-04-18T12:02:06.001Z</time></trkpt><trkpt lat="45.5573527973979" lon="10.993262048636485"><ele>333.0</ele><time>2026-04-18T12:02:07.001Z</time></trkpt><trkpt lat="45.55726828068356" lon="10.993175437744151"><ele>333.0</ele><time>2026-04-18T12:02:08.001Z</time></trkpt><trkpt lat="45.557198518177714" lon="10.99311369743578"><ele>333.0</ele><time>2026-04-18T12:02:09.001Z</time></trkpt><trkpt lat="45.55709246799839" lon="10.99306354538644"><ele>333.0</ele><time>2026-04-18T12:02:11.001Z</time></trkpt><trkpt lat="45.55703051374556" lon="10.993178004867154"><ele>333.0</ele><time>2026-04-18T12:02:13.001Z</time></trkpt><trkpt lat="45.55710275081624" lon="10.993285956789526"><ele>333.0</ele><time>2026-04-18T12:02:14.001Z</time></trkpt><trkpt lat="45.55718188778791" lon="10.993383616434379"><ele>333.0</ele><time>2026-04-18T12:02:15.001Z</time></trkpt><trkpt lat="45.55725742490572" lon="10.993495462794838"><ele>333.0</ele><time>2026-04-18T12:02:16.001Z</time></trkpt><trkpt lat="45.557328329609724" lon="10.993598239827165"><ele>333.0</ele><time>2026-04-18T12:02:17.001Z</time></trkpt><trkpt lat="45.55740818122071" lon="10.993707323651309"><ele>333.0</ele><time>2026-04-18T12:02:18.001Z</time></trkpt><trkpt lat="45.55748274772244" lon="10.99379297308785"><ele>333.0</ele><time>2026-04-18T12:02:19.001Z</time></trkpt><trkpt lat="45.557561967802606" lon="10.993885749888184"><ele>333.0</ele><time>2026-04-18T12:02:20.001Z</time></trkpt><trkpt lat="45.557632171714616" lon="10.993963046405023"><ele>333.0</ele><time>2026-04-18T12:02:21.001Z</time></trkpt><trkpt lat="45.55769039031813" lon="10.994029167983683"><ele>333.0</ele><time>2026-04-18T12:02:22.001Z</time></trkpt><trkpt lat="45.557727817746425" lon="10.994102112590431"><ele>333.0</ele><time>2026-04-18T12:02:23.001Z</time></trkpt><trkpt lat="45.55768646831129" lon="10.994193191137724"><ele>333.0</ele><time>2026-04-18T12:02:25.001Z</time></trkpt><trkpt lat="45.557610290910546" lon="10.994149507612489"><ele>333.0</ele><time>2026-04-18T12:02:26.001Z</time></trkpt><trkpt lat="45.557542098710925" lon="10.994062707620824"><ele>333.0</ele><time>2026-04-18T12:02:27.001Z</time></trkpt><trkpt lat="45.55747082209151" lon="10.994013666603209"><ele>333.0</ele><time>2026-04-18T12:02:28.001Z</time></trkpt><trkpt lat="45.557409217558124" lon="10.993978855611555"><ele>333.0</ele><time>2026-04-18T12:02:29.001Z</time></trkpt><trkpt lat="45.557303677274405" lon="10.993960725741209"><ele>333.0</ele><time>2026-04-18T12:02:31.001Z</time></trkpt><trkpt lat="45.55719493276702" lon="10.99387012342836"><ele>333.0</ele><time>2026-04-18T12:02:33.001Z</time></trkpt><trkpt lat="45.55711305588405" lon="10.993814402270589"><ele>333.0</ele><time>2026-04-18T12:02:34.001Z</time></trkpt><trkpt lat="45.55706318943328" lon="10.993723180827061"><ele>333.0</ele><time>2026-04-18T12:02:35.001Z</time></trkpt><trkpt lat="45.55700651889934" lon="10.99360259248764"><ele>333.0</ele><time>2026-04-18T12:02:36.001Z</time></trkpt><trkpt lat="45.55694866831686" lon="10.993505084482976"><ele>333.0</ele><time>2026-04-18T12:02:37.001Z</time></trkpt><trkpt lat="45.55688602319873" lon="10.993441588140605"><ele>333.0</ele><time>2026-04-18T12:02:38.001Z</time></trkpt><trkpt lat="45.55678306440641" lon="10.993360160410441"><ele>333.5</ele><time>2026-04-18T12:02:40.001Z</time></trkpt><trkpt lat="45.55669823181508" lon="10.993332472895743"><ele>334.0</ele><time>2026-04-18T12:02:42.001Z</time></trkpt><trkpt lat="45.556643364851254" lon="10.993380426541956"><ele>334.5</ele><time>2026-04-18T12:02:44.001Z</time></trkpt><trkpt lat="45.55663343408026" lon="10.993517898878428"><ele>335.0</ele><time>2026-04-18T12:02:46.001Z</time></trkpt><trkpt lat="45.55665979260683" lon="10.99362898378369"><ele>335.5</ele><time>2026-04-18T12:02:47.001Z</time></trkpt><trkpt lat="45.556673756655506" lon="10.993763813867766"><ele>336.0</ele><time>2026-04-18T12:02:48.001Z</time></trkpt><trkpt lat="45.556683434153506" lon="10.993912106675436"><ele>336.0</ele><time>2026-04-18T12:02:49.001Z</time></trkpt><trkpt lat="45.556686670611505" lon="10.994067717968123"><ele>336.0</ele><time>2026-04-18T12:02:50.001Z</time></trkpt><trkpt lat="45.5566987201115" lon="10.9942404093393"><ele>336.0</ele><time>2026-04-18T12:02:51.001Z</time></trkpt><trkpt lat="45.55669292567378" lon="10.994418078965671"><ele>336.0</ele><time>2026-04-18T12:02:52.001Z</time></trkpt><trkpt lat="45.55669476227269" lon="10.994595847912729"><ele>333.25</ele><time>2026-04-18T12:02:53.001Z</time></trkpt><trkpt lat="45.55669082512837" lon="10.994782674294084"><ele>330.5</ele><time>2026-04-18T12:02:54.001Z</time></trkpt><trkpt lat="45.55668546601515" lon="10.994969261381826"><ele>327.75</ele><time>2026-04-18T12:02:55.001Z</time></trkpt><trkpt lat="45.55667935952709" lon="10.995151112484274"><ele>325.0</ele><time>2026-04-18T12:02:56.001Z</time></trkpt><trkpt lat="45.55666479543206" lon="10.99532398651928"><ele>319.5</ele><time>2026-04-18T12:02:57.001Z</time></trkpt><trkpt lat="45.5566488612637" lon="10.995496886476973"><ele>314.0</ele><time>2026-04-18T12:02:58.001Z</time></trkpt><trkpt lat="45.55662500328898" lon="10.99567400978592"><ele>308.5</ele><time>2026-04-18T12:02:59.001Z</time></trkpt><trkpt lat="45.55658474737559" lon="10.995850837585653"><ele>303.0</ele><time>2026-04-18T12:03:00.001Z</time></trkpt><trkpt lat="45.556524988707146" lon="10.996014115896259"><ele>303.25</ele><time>2026-04-18T12:03:01.001Z</time></trkpt><trkpt lat="45.55644048873415" lon="10.996147559408985"><ele>303.5</ele><time>2026-04-18T12:03:02.001Z</time></trkpt><trkpt lat="45.5563583522684" lon="10.99627172293084"><ele>303.75</ele><time>2026-04-18T12:03:03.001Z</time></trkpt><trkpt lat="45.556267015478674" lon="10.99636642217647"><ele>304.0</ele><time>2026-04-18T12:03:04.001Z</time></trkpt><trkpt lat="45.5561790617713" lon="10.996442403379136"><ele>304.0</ele><time>2026-04-18T12:03:05.001Z</time></trkpt><trkpt lat="45.55609848592955" lon="10.99649130031076"><ele>304.0</ele><time>2026-04-18T12:03:06.001Z</time></trkpt><trkpt lat="45.556045285593484" lon="10.9965448650065"><ele>304.0</ele><time>2026-04-18T12:03:07.001Z</time></trkpt><trkpt lat="45.556050932849644" lon="10.99669167364331"><ele>304.0</ele><time>2026-04-18T12:03:09.001Z</time></trkpt><trkpt lat="45.556110523378386" lon="10.996733753451995"><ele>304.0</ele><time>2026-04-18T12:03:10.001Z</time></trkpt><trkpt lat="45.556213571248314" lon="10.996730230858322"><ele>304.0</ele><time>2026-04-18T12:03:11.001Z</time></trkpt><trkpt lat="45.55631834286511" lon="10.996668501339919"><ele>299.0</ele><time>2026-04-18T12:03:12.001Z</time></trkpt><trkpt lat="45.55639711992119" lon="10.996584740074743"><ele>294.0</ele><time>2026-04-18T12:03:13.001Z</time></trkpt><trkpt lat="45.55648014792199" lon="10.996504201139148"><ele>289.0</ele><time>2026-04-18T12:03:14.001Z</time></trkpt><trkpt lat="45.556558831010456" lon="10.99642619002237"><ele>284.0</ele><time>2026-04-18T12:03:15.001Z</time></trkpt><trkpt lat="45.55666089743765" lon="10.996385944076197"><ele>279.0</ele><time>2026-04-18T12:03:17.001Z</time></trkpt><trkpt lat="45.55670814458546" lon="10.996514172353484"><ele>279.0</ele><time>2026-04-18T12:03:19.001Z</time></trkpt><trkpt lat="45.556678171320044" lon="10.996629284609439"><ele>279.0</ele><time>2026-04-18T12:03:20.001Z</time></trkpt><trkpt lat="45.556638970783126" lon="10.996768006157714"><ele>279.0</ele><time>2026-04-18T12:03:21.001Z</time></trkpt><trkpt lat="45.55661815612125" lon="10.99691341780448"><ele>279.0</ele><time>2026-04-18T12:03:22.001Z</time></trkpt><trkpt lat="45.556608630523314" lon="10.997051616897094"><ele>279.0</ele><time>2026-04-18T12:03:23.001Z</time></trkpt><trkpt lat="45.5566197667571" lon="10.997176656384532"><ele>277.0</ele><time>2026-04-18T12:03:24.001Z</time></trkpt><trkpt lat="45.55664519733543" lon="10.997302291998025"><ele>275.0</ele><time>2026-04-18T12:03:25.001Z</time></trkpt><trkpt lat="45.5566706378906" lon="10.997436724798927"><ele>273.0</ele><time>2026-04-18T12:03:26.001Z</time></trkpt><trkpt lat="45.55669411741356" lon="10.997584660409228"><ele>271.0</ele><time>2026-04-18T12:03:27.001Z</time></trkpt><trkpt lat="45.55671868732582" lon="10.997729064433353"><ele>269.0</ele><time>2026-04-18T12:03:28.001Z</time></trkpt><trkpt lat="45.55673309442928" lon="10.997871346133326"><ele>268.0</ele><time>2026-04-18T12:03:29.001Z</time></trkpt><trkpt lat="45.5567428167578" lon="10.99800301137726"><ele>267.0</ele><time>2026-04-18T12:03:30.001Z</time></trkpt><trkpt lat="45.55675499868344" lon="10.99813116688386"><ele>266.0</ele><time>2026-04-18T12:03:31.001Z</time></trkpt><trkpt lat="45.55677623345263" lon="10.998262585524214"><ele>265.0</ele><time>2026-04-18T12:03:32.001Z</time></trkpt><trkpt lat="45.55680607270495" lon="10.998391446922785"><ele>264.0</ele><time>2026-04-18T12:03:33.001Z</time></trkpt><trkpt lat="45.556840199099064" lon="10.998501648654857"><ele>263.3333333333333</ele><time>2026-04-18T12:03:34.001Z</time></trkpt><trkpt lat="45.55687971620557" lon="10.998625721197033"><ele>262.6666666666667</ele><time>2026-04-18T12:03:35.001Z</time></trkpt><trkpt lat="45.55691817086968" lon="10.998741123944914"><ele>262.0</ele><time>2026-04-18T12:03:36.001Z</time></trkpt><trkpt lat="45.556944133869905" lon="10.998833984735972"><ele>261.33333333333337</ele><time>2026-04-18T12:03:37.001Z</time></trkpt><trkpt lat="45.556914379252035" lon="10.998957850590694"><ele>260.6666666666667</ele><time>2026-04-18T12:03:39.001Z</time></trkpt><trkpt lat="45.5568579191899" lon="10.999007576871433"><ele>260.0</ele><time>2026-04-18T12:03:40.001Z</time></trkpt><trkpt lat="45.55677550999435" lon="10.999048884867793"><ele>260.0</ele><time>2026-04-18T12:03:41.001Z</time></trkpt><trkpt lat="45.556676728955395" lon="10.999100056709956"><ele>260.0</ele><time>2026-04-18T12:03:42.001Z</time></trkpt><trkpt lat="45.55657184090603" lon="10.999164235162715"><ele>260.0</ele><time>2026-04-18T12:03:43.001Z</time></trkpt><trkpt lat="45.55646500386614" lon="10.99923992221402"><ele>260.0</ele><time>2026-04-18T12:03:44.001Z</time></trkpt><trkpt lat="45.556359277382725" lon="10.99932540544774"><ele>260.0</ele><time>2026-04-18T12:03:45.001Z</time></trkpt><trkpt lat="45.55625389175623" lon="10.999419280803448"><ele>260.0</ele><time>2026-04-18T12:03:46.001Z</time></trkpt><trkpt lat="45.556157640644685" lon="10.999515033235383"><ele>260.0</ele><time>2026-04-18T12:03:47.001Z</time></trkpt><trkpt lat="45.556052527757004" lon="10.999623588555512"><ele>260.0</ele><time>2026-04-18T12:03:48.001Z</time></trkpt><trkpt lat="45.55595459157435" lon="10.999725947053856"><ele>259.2</ele><time>2026-04-18T12:03:49.001Z</time></trkpt><trkpt lat="45.55586229752687" lon="10.99981411042419"><ele>258.4</ele><time>2026-04-18T12:03:50.001Z</time></trkpt><trkpt lat="45.55577445492872" lon="10.999901829231797"><ele>257.6</ele><time>2026-04-18T12:03:51.001Z</time></trkpt><trkpt lat="45.55568340604073" lon="10.9999904807318"><ele>256.8</ele><time>2026-04-18T12:03:52.001Z</time></trkpt><trkpt lat="45.555590999756525" lon="11.000079080343411"><ele>256.0</ele><time>2026-04-18T12:03:53.001Z</time></trkpt><trkpt lat="45.55549346641837" lon="11.000176567365072"><ele>256.0</ele><time>2026-04-18T12:03:54.001Z</time></trkpt><trkpt lat="45.555400426568525" lon="11.000276593172487"><ele>256.0</ele><time>2026-04-18T12:03:55.001Z</time></trkpt><trkpt lat="45.55530894833281" lon="11.000352846634982"><ele>256.0</ele><time>2026-04-18T12:03:56.001Z</time></trkpt><trkpt lat="45.55523038739659" lon="11.000432035124614"><ele>256.0</ele><time>2026-04-18T12:03:57.001Z</time></trkpt><trkpt lat="45.55515521799966" lon="11.00050780527768"><ele>256.0</ele><time>2026-04-18T12:03:58.001Z</time></trkpt><trkpt lat="45.555088777267656" lon="11.000599218660298"><ele>255.8</ele><time>2026-04-18T12:03:59.001Z</time></trkpt><trkpt lat="45.555009079086595" lon="11.00067710369668"><ele>255.60000000000002</ele><time>2026-04-18T12:04:00.001Z</time></trkpt><trkpt lat="45.55492402457978" lon="11.000758850298762"><ele>255.4</ele><time>2026-04-18T12:04:01.001Z</time></trkpt><trkpt lat="45.55484419239183" lon="11.000841919883044"><ele>255.2</ele><time>2026-04-18T12:04:02.001Z</time></trkpt><trkpt lat="45.55477155516411" lon="11.000915736856491"><ele>255.0</ele><time>2026-04-18T12:04:03.001Z</time></trkpt><trkpt lat="45.55469965628857" lon="11.000944712247128"><ele>254.6</ele><time>2026-04-18T12:04:04.001Z</time></trkpt><trkpt lat="45.55460596869665" lon="11.000994160765933"><ele>254.2</ele><time>2026-04-18T12:04:06Z</time></trkpt><trkpt lat="45.5545961893762" lon="11.001177665045349"><ele>253.8</ele><time>2026-04-18T12:04:10Z</time></trkpt><trkpt lat="45.55459534891869" lon="11.001268447122886"><ele>253.4</ele><time>2026-04-18T12:04:13Z</time></trkpt><trkpt lat="45.55462643312589" lon="11.001361877009046"><ele>253.0</ele><time>2026-04-18T12:04:15Z</time></trkpt><trkpt lat="45.554661009150564" lon="11.001476876446805"><ele>253.0</ele><time>2026-04-18T12:04:20Z</time></trkpt><trkpt lat="45.5547782037957" lon="11.001470657790021"><ele>253.0</ele><time>2026-04-18T12:04:22Z</time></trkpt><trkpt lat="45.55485465895673" lon="11.001410476384292"><ele>253.0</ele><time>2026-04-18T12:04:23Z</time></trkpt><trkpt lat="45.55495374468527" lon="11.001361842985558"><ele>253.0</ele><time>2026-04-18T12:04:24Z</time></trkpt><trkpt lat="45.555065472669995" lon="11.001309452771814"><ele>253.0</ele><time>2026-04-18T12:04:25Z</time></trkpt><trkpt lat="45.55519136786797" lon="11.001243322460583"><ele>253.0</ele><time>2026-04-18T12:04:26Z</time></trkpt><trkpt lat="45.55532173813534" lon="11.001166126714276"><ele>253.0</ele><time>2026-04-18T12:04:27Z</time></trkpt><trkpt lat="45.55546271130122" lon="11.001085021763867"><ele>253.0</ele><time>2026-04-18T12:04:28Z</time></trkpt><trkpt lat="45.555594793527796" lon="11.001003633195877"><ele>253.0</ele><time>2026-04-18T12:04:29Z</time></trkpt><trkpt lat="45.555730444370965" lon="11.000908557418027"><ele>253.75</ele><time>2026-04-18T12:04:30Z</time></trkpt><trkpt lat="45.55586799751018" lon="11.000807962758902"><ele>254.5</ele><time>2026-04-18T12:04:31Z</time></trkpt><trkpt lat="45.555992629387816" lon="11.000724838580888"><ele>255.25</ele><time>2026-04-18T12:04:32Z</time></trkpt><trkpt lat="45.55610740872052" lon="11.000646932471888"><ele>256.0</ele><time>2026-04-18T12:04:33Z</time></trkpt><trkpt lat="45.556217330026676" lon="11.000576636186285"><ele>257.0</ele><time>2026-04-18T12:04:34Z</time></trkpt><trkpt lat="45.5563214341312" lon="11.00050130336295"><ele>258.0</ele><time>2026-04-18T12:04:35Z</time></trkpt><trkpt lat="45.55642917092544" lon="11.000422907460734"><ele>259.0</ele><time>2026-04-18T12:04:36Z</time></trkpt><trkpt lat="45.556546577414885" lon="11.000341797929666"><ele>260.0</ele><time>2026-04-18T12:04:37Z</time></trkpt><trkpt lat="45.55680120258597" lon="11.000204033630114"><ele>260.0</ele><time>2026-04-18T12:04:39Z</time></trkpt><trkpt lat="45.556921971231624" lon="11.000135795167564"><ele>260.0</ele><time>2026-04-18T12:04:40Z</time></trkpt><trkpt lat="45.55703481755289" lon="11.000072977761192"><ele>260.0</ele><time>2026-04-18T12:04:41Z</time></trkpt><trkpt lat="45.55713918156623" lon="11.000016569127963"><ele>260.0</ele><time>2026-04-18T12:04:42Z</time></trkpt><trkpt lat="45.5572416362294" lon="10.999962203046188"><ele>262.0</ele><time>2026-04-18T12:04:43Z</time></trkpt><trkpt lat="45.55735409807267" lon="10.99991185731984"><ele>264.0</ele><time>2026-04-18T12:04:44Z</time></trkpt><trkpt lat="45.55746570144135" lon="10.999855696040182"><ele>266.0</ele><time>2026-04-18T12:04:45Z</time></trkpt><trkpt lat="45.557584842756725" lon="10.99978570524785"><ele>268.0</ele><time>2026-04-18T12:04:46Z</time></trkpt><trkpt lat="45.55770674981707" lon="10.999719312667724"><ele>268.0</ele><time>2026-04-18T12:04:47Z</time></trkpt><trkpt lat="45.55782607444993" lon="10.999659113814849"><ele>268.0</ele><time>2026-04-18T12:04:48Z</time></trkpt><trkpt lat="45.557928508984894" lon="10.999592062496866"><ele>268.0</ele><time>2026-04-18T12:04:49Z</time></trkpt><trkpt lat="45.558021785057086" lon="10.999520123087859"><ele>268.0</ele><time>2026-04-18T12:04:50Z</time></trkpt><trkpt lat="45.55811682285871" lon="10.999457037348503"><ele>267.25</ele><time>2026-04-18T12:04:51Z</time></trkpt><trkpt lat="45.5582220518828" lon="10.99938623395498"><ele>266.5</ele><time>2026-04-18T12:04:52Z</time></trkpt><trkpt lat="45.55832427320223" lon="10.999304028386174"><ele>265.75</ele><time>2026-04-18T12:04:53Z</time></trkpt><trkpt lat="45.55842523591571" lon="10.999225988135816"><ele>265.0</ele><time>2026-04-18T12:04:54Z</time></trkpt><trkpt lat="45.55852546131025" lon="10.999155167426688"><ele>265.0</ele><time>2026-04-18T12:04:55Z</time></trkpt><trkpt lat="45.55862148290009" lon="10.99907838636607"><ele>265.0</ele><time>2026-04-18T12:04:56Z</time></trkpt><trkpt lat="45.55871811491941" lon="10.998992411185617"><ele>265.0</ele><time>2026-04-18T12:04:57Z</time></trkpt><trkpt lat="45.558831045871685" lon="10.998904968860531"><ele>265.0</ele><time>2026-04-18T12:04:58Z</time></trkpt><trkpt lat="45.55895048923554" lon="10.998819926525742"><ele>266.0</ele><time>2026-04-18T12:04:59Z</time></trkpt><trkpt lat="45.55907534750252" lon="10.998723115081138"><ele>267.0</ele><time>2026-04-18T12:05:00Z</time></trkpt><trkpt lat="45.559188849529264" lon="10.998642754593709"><ele>268.0</ele><time>2026-04-18T12:05:01Z</time></trkpt><trkpt lat="45.55930081094417" lon="10.99856087895012"><ele>269.0</ele><time>2026-04-18T12:05:02Z</time></trkpt><trkpt lat="45.55942766667396" lon="10.998477150731752"><ele>270.5</ele><time>2026-04-18T12:05:03Z</time></trkpt><trkpt lat="45.55955786634526" lon="10.998385066014665"><ele>272.0</ele><time>2026-04-18T12:05:04Z</time></trkpt><trkpt lat="45.55968824298711" lon="10.99829089989213"><ele>273.5</ele><time>2026-04-18T12:05:05Z</time></trkpt><trkpt lat="45.55981387210287" lon="10.998183157148105"><ele>275.0</ele><time>2026-04-18T12:05:06Z</time></trkpt><trkpt lat="45.55993029347029" lon="10.998071770323135"><ele>275.0</ele><time>2026-04-18T12:05:07Z</time></trkpt><trkpt lat="45.56004264834262" lon="10.997942073810512"><ele>275.0</ele><time>2026-04-18T12:05:08Z</time></trkpt><trkpt lat="45.5601610678607" lon="10.997800495622963"><ele>275.0</ele><time>2026-04-18T12:05:09Z</time></trkpt><trkpt lat="45.56027791524297" lon="10.997660565580022"><ele>275.0</ele><time>2026-04-18T12:05:10Z</time></trkpt><trkpt lat="45.56039669591768" lon="10.99751719423899"><ele>275.0</ele><time>2026-04-18T12:05:11Z</time></trkpt><trkpt lat="45.5605276867203" lon="10.997371881702598"><ele>275.0</ele><time>2026-04-18T12:05:12Z</time></trkpt><trkpt lat="45.560663407072965" lon="10.997250984396175"><ele>275.0</ele><time>2026-04-18T12:05:13Z</time></trkpt><trkpt lat="45.560805195542066" lon="10.9971437139215"><ele>275.0</ele><time>2026-04-18T12:05:14Z</time></trkpt><trkpt lat="45.56095540805577" lon="10.997042332525838"><ele>275.0</ele><time>2026-04-18T12:05:15Z</time></trkpt><trkpt lat="45.560907053548334" lon="10.99637238600028"><ele>278.0</ele><time>2026-04-18T12:05:16Z</time></trkpt><trkpt lat="45.561234163716534" lon="10.996892931302735"><ele>278.0</ele><time>2026-04-18T12:05:17Z</time></trkpt><trkpt lat="45.56135360895005" lon="10.99681817723961"><ele>278.0</ele><time>2026-04-18T12:05:18Z</time></trkpt><trkpt lat="45.56147476923269" lon="10.996749739385363"><ele>278.0</ele><time>2026-04-18T12:05:19Z</time></trkpt><trkpt lat="45.561594737816385" lon="10.996679663888186"><ele>278.0</ele><time>2026-04-18T12:05:20Z</time></trkpt><trkpt lat="45.561710300803355" lon="10.996603697340491"><ele>278.0</ele><time>2026-04-18T12:05:21Z</time></trkpt><trkpt lat="45.56180015764614" lon="10.996544915261088"><ele>278.0</ele><time>2026-04-18T12:05:22Z</time></trkpt><trkpt lat="45.561864975355086" lon="10.996511109026471"><ele>278.0</ele><time>2026-04-18T12:05:23Z</time></trkpt><trkpt lat="45.561930666554034" lon="10.996583990400243"><ele>278.0</ele><time>2026-04-18T12:05:25Z</time></trkpt><trkpt lat="45.561944026265714" lon="10.996694451988736"><ele>278.0</ele><time>2026-04-18T12:05:26Z</time></trkpt><trkpt lat="45.561957560372754" lon="10.996825885328546"><ele>278.0</ele><time>2026-04-18T12:05:27Z</time></trkpt><trkpt lat="45.561988561248036" lon="10.9969666411467"><ele>278.0</ele><time>2026-04-18T12:05:28Z</time></trkpt><trkpt lat="45.56202927451305" lon="10.997113582258752"><ele>278.0</ele><time>2026-04-18T12:05:29Z</time></trkpt><trkpt lat="45.56208191930169" lon="10.997287517492286"><ele>278.0</ele><time>2026-04-18T12:05:30Z</time></trkpt><trkpt lat="45.56213752965948" lon="10.997479281340704"><ele>278.0</ele><time>2026-04-18T12:05:31Z</time></trkpt><trkpt lat="45.56219864029015" lon="10.997671607878699"><ele>279.0</ele><time>2026-04-18T12:05:32Z</time></trkpt><trkpt lat="45.56225721657392" lon="10.997885218666497"><ele>280.0</ele><time>2026-04-18T12:05:33Z</time></trkpt><trkpt lat="45.562323778177415" lon="10.998104041392397"><ele>281.0</ele><time>2026-04-18T12:05:34Z</time></trkpt><trkpt lat="45.562404498672905" lon="10.998354425081697"><ele>281.0</ele><time>2026-04-18T12:05:35Z</time></trkpt><trkpt lat="45.56247448335052" lon="10.998586894780749"><ele>281.0</ele><time>2026-04-18T12:05:36Z</time></trkpt><trkpt lat="45.56253863037757" lon="10.998816362847942"><ele>281.0</ele><time>2026-04-18T12:05:37Z</time></trkpt><trkpt lat="45.56261202629619" lon="10.999048605379677"><ele>282.0</ele><time>2026-04-18T12:05:38Z</time></trkpt><trkpt lat="45.56268177664693" lon="10.999270300428815"><ele>283.0</ele><time>2026-04-18T12:05:39Z</time></trkpt><trkpt lat="45.562748897272854" lon="10.999490268304585"><ele>284.0</ele><time>2026-04-18T12:05:40Z</time></trkpt><trkpt lat="45.562815194037555" lon="10.999706355412924"><ele>284.75</ele><time>2026-04-18T12:05:41Z</time></trkpt><trkpt lat="45.562870512754046" lon="10.999899877439871"><ele>285.5</ele><time>2026-04-18T12:05:42Z</time></trkpt><trkpt lat="45.562925263310355" lon="11.00008854597165"><ele>286.25</ele><time>2026-04-18T12:05:43Z</time></trkpt><trkpt lat="45.56297751003394" lon="11.000265825601431"><ele>287.0</ele><time>2026-04-18T12:05:44Z</time></trkpt><trkpt lat="45.56301022854129" lon="11.000460611927757"><ele>287.0</ele><time>2026-04-18T12:05:45Z</time></trkpt><trkpt lat="45.56300517440987" lon="11.000672451928397"><ele>287.0</ele><time>2026-04-18T12:05:46Z</time></trkpt><trkpt lat="45.56298355618965" lon="11.000883745806515"><ele>287.0</ele><time>2026-04-18T12:05:47Z</time></trkpt><trkpt lat="45.56296318675933" lon="11.001092106259094"><ele>287.0</ele><time>2026-04-18T12:05:48Z</time></trkpt><trkpt lat="45.562943490841015" lon="11.00130947656705"><ele>288.33333333333337</ele><time>2026-04-18T12:05:49Z</time></trkpt><trkpt lat="45.56292872356335" lon="11.001532493765977"><ele>289.6666666666667</ele><time>2026-04-18T12:05:50Z</time></trkpt><trkpt lat="45.562918271980514" lon="11.00175240550734"><ele>291.0</ele><time>2026-04-18T12:05:51Z</time></trkpt><trkpt lat="45.5629178892354" lon="11.001963682472276"><ele>291.2</ele><time>2026-04-18T12:05:52Z</time></trkpt><trkpt lat="45.562935655524875" lon="11.002136816402448"><ele>291.40000000000003</ele><time>2026-04-18T12:05:53Z</time></trkpt><trkpt lat="45.56296868355816" lon="11.00227351053013"><ele>291.6</ele><time>2026-04-18T12:05:54Z</time></trkpt><trkpt lat="45.563032879982515" lon="11.002393823085546"><ele>291.8</ele><time>2026-04-18T12:05:55Z</time></trkpt><trkpt lat="45.56311954786214" lon="11.002505963340747"><ele>292.0</ele><time>2026-04-18T12:05:56Z</time></trkpt><trkpt lat="45.56319085706808" lon="11.002642874193956"><ele>292.75</ele><time>2026-04-18T12:05:57Z</time></trkpt><trkpt lat="45.563227528452856" lon="11.00281237531221"><ele>293.5</ele><time>2026-04-18T12:05:58Z</time></trkpt><trkpt lat="45.5632339648426" lon="11.00300750702936"><ele>294.25</ele><time>2026-04-18T12:05:59Z</time></trkpt><trkpt lat="45.56323114613202" lon="11.003225485933074"><ele>295.0</ele><time>2026-04-18T12:06:00Z</time></trkpt><trkpt lat="45.56324407834286" lon="11.003445109747332"><ele>296.3333333333333</ele><time>2026-04-18T12:06:01Z</time></trkpt><trkpt lat="45.56327302026211" lon="11.003672829145474"><ele>297.6666666666667</ele><time>2026-04-18T12:06:02Z</time></trkpt><trkpt lat="45.563305872315276" lon="11.00388798665949"><ele>299.0</ele><time>2026-04-18T12:06:03Z</time></trkpt><trkpt lat="45.56333364251309" lon="11.004094468537023"><ele>300.0</ele><time>2026-04-18T12:06:04Z</time></trkpt><trkpt lat="45.56334871754098" lon="11.004307866641982"><ele>301.0</ele><time>2026-04-18T12:06:05Z</time></trkpt><trkpt lat="45.563344994410926" lon="11.004523259719093"><ele>302.0</ele><time>2026-04-18T12:06:06Z</time></trkpt><trkpt lat="45.563329959123905" lon="11.004715713999182"><ele>303.0</ele><time>2026-04-18T12:06:07Z</time></trkpt><trkpt lat="45.56331358010611" lon="11.004886219721818"><ele>304.0</ele><time>2026-04-18T12:06:08Z</time></trkpt><trkpt lat="45.56332014460254" lon="11.005040615444557"><ele>305.0</ele><time>2026-04-18T12:06:09Z</time></trkpt><trkpt lat="45.56334339167806" lon="11.00517510785567"><ele>306.0</ele><time>2026-04-18T12:06:10Z</time></trkpt><trkpt lat="45.563377090854225" lon="11.005281899600478"><ele>307.0</ele><time>2026-04-18T12:06:11Z</time></trkpt><trkpt lat="45.56344147783789" lon="11.00537214163859"><ele>308.0</ele><time>2026-04-18T12:06:12Z</time></trkpt><trkpt lat="45.56351890563859" lon="11.00546086810712"><ele>308.0</ele><time>2026-04-18T12:06:13Z</time></trkpt><trkpt lat="45.56364123247548" lon="11.005530029461635"><ele>308.0</ele><time>2026-04-18T12:06:14Z</time></trkpt><trkpt lat="45.563753601020274" lon="11.005577708456864"><ele>308.0</ele><time>2026-04-18T12:06:15Z</time></trkpt><trkpt lat="45.56385065907731" lon="11.005640676736904"><ele>308.0</ele><time>2026-04-18T12:06:16Z</time></trkpt><trkpt lat="45.563922676414556" lon="11.005716471927514"><ele>308.0</ele><time>2026-04-18T12:06:17Z</time></trkpt><trkpt lat="45.56397049992791" lon="11.005776644009593"><ele>310.83333333333337</ele><time>2026-04-18T12:06:18Z</time></trkpt><trkpt lat="45.564035070204696" lon="11.00585514718139"><ele>313.6666666666667</ele><time>2026-04-18T12:06:49Z</time></trkpt><trkpt lat="45.564135876914314" lon="11.005942592766106"><ele>316.5</ele><time>2026-04-18T12:06:51Z</time></trkpt><trkpt lat="45.564145351089365" lon="11.00603579201992"><ele>319.3333333333333</ele><time>2026-04-18T12:06:54Z</time></trkpt><trkpt lat="45.56418907615682" lon="11.006142859394705"><ele>322.16666666666663</ele><time>2026-04-18T12:06:56Z</time></trkpt><trkpt lat="45.56420989848714" lon="11.00625116140871"><ele>325.0</ele><time>2026-04-18T12:06:58Z</time></trkpt><trkpt lat="45.564286287350484" lon="11.006365080935607"><ele>325.0</ele><time>2026-04-18T12:07:00Z</time></trkpt><trkpt lat="45.56433429131533" lon="11.00649080039716"><ele>325.0</ele><time>2026-04-18T12:07:02Z</time></trkpt><trkpt lat="45.564389069096514" lon="11.006555742186578"><ele>325.0</ele><time>2026-04-18T12:07:03Z</time></trkpt><trkpt lat="45.56444751629717" lon="11.006653446225863"><ele>325.0</ele><time>2026-04-18T12:07:04Z</time></trkpt><trkpt lat="45.564505311859214" lon="11.006726030815338"><ele>325.0</ele><time>2026-04-18T12:07:05Z</time></trkpt><trkpt lat="45.56454517861809" lon="11.006834152653138"><ele>325.0</ele><time>2026-04-18T12:07:07Z</time></trkpt><trkpt lat="45.56463637261155" lon="11.006873660019464"><ele>330.8333333333333</ele><time>2026-04-18T12:07:09Z</time></trkpt><trkpt lat="45.56460691891213" lon="11.006788532805114"><ele>336.66666666666663</ele><time>2026-04-18T12:07:12Z</time></trkpt><trkpt lat="45.56457162230125" lon="11.006690534049248"><ele>342.5</ele><time>2026-04-18T12:07:13Z</time></trkpt><trkpt lat="45.5645711134149" lon="11.006592315747787"><ele>348.3333333333333</ele><time>2026-04-18T12:07:15Z</time></trkpt><trkpt lat="45.564636588804554" lon="11.006629225238953"><ele>354.1666666666667</ele><time>2026-04-18T12:07:17Z</time></trkpt><trkpt lat="45.564696639277685" lon="11.006739945999932"><ele>360.0</ele><time>2026-04-18T12:07:19Z</time></trkpt><trkpt lat="45.56476843566478" lon="11.006862736188012"><ele>360.0</ele><time>2026-04-18T12:07:21Z</time></trkpt><trkpt lat="45.56484921703035" lon="11.006951455271231"><ele>360.0</ele><time>2026-04-18T12:07:23Z</time></trkpt><trkpt lat="45.56489899414323" lon="11.007038541274712"><ele>360.0</ele><time>2026-04-18T12:07:24Z</time></trkpt><trkpt lat="45.564947859699046" lon="11.007100821236888"><ele>360.0</ele><time>2026-04-18T12:07:25Z</time></trkpt><trkpt lat="45.5649995129642" lon="11.007153983069118"><ele>360.0</ele><time>2026-04-18T12:07:26Z</time></trkpt><trkpt lat="45.56507645849047" lon="11.007261785864452"><ele>360.0</ele><time>2026-04-18T12:07:28Z</time></trkpt><trkpt lat="45.565164928847274" lon="11.007373105479408"><ele>360.0</ele><time>2026-04-18T12:07:30Z</time></trkpt><trkpt lat="45.56526895060091" lon="11.007437113580313"><ele>360.0</ele><time>2026-04-18T12:07:32Z</time></trkpt><trkpt lat="45.56534397344494" lon="11.0074985468067"><ele>360.0</ele><time>2026-04-18T12:07:33Z</time></trkpt><trkpt lat="45.56540287822611" lon="11.007567185556995"><ele>360.0</ele><time>2026-04-18T12:07:34Z</time></trkpt><trkpt lat="45.565457842661075" lon="11.007642395853303"><ele>360.0</ele><time>2026-04-18T12:07:35Z</time></trkpt><trkpt lat="45.5655542861813" lon="11.007726578914987"><ele>367.75</ele><time>2026-04-18T12:07:35.998Z</time></trkpt><trkpt lat="45.56563899179238" lon="11.007830107108546"><ele>375.5</ele><time>2026-04-18T12:07:36.998Z</time></trkpt><trkpt lat="45.565694961273515" lon="11.007932495828285"><ele>383.25</ele><time>2026-04-18T12:07:37.998Z</time></trkpt><trkpt lat="45.56580318603318" lon="11.008022817476178"><ele>391.0</ele><time>2026-04-18T12:07:39.998Z</time></trkpt><trkpt lat="45.56591113230237" lon="11.00815695644019"><ele>391.0</ele><time>2026-04-18T12:07:41.998Z</time></trkpt><trkpt lat="45.56595991207086" lon="11.00825611715122"><ele>391.0</ele><time>2026-04-18T12:07:42.998Z</time></trkpt><trkpt lat="45.566015373525964" lon="11.008428368489293"><ele>391.0</ele><time>2026-04-18T12:07:44.998Z</time></trkpt><trkpt lat="45.566050132847174" lon="11.008526388285018"><ele>391.0</ele><time>2026-04-18T12:07:45.998Z</time></trkpt><trkpt lat="45.56608392825459" lon="11.00865822217399"><ele>391.0</ele><time>2026-04-18T12:07:47.999Z</time></trkpt><trkpt lat="45.56610357760866" lon="11.008784647342718"><ele>390.8</ele><time>2026-04-18T12:07:49.999Z</time></trkpt><trkpt lat="45.56616456093978" lon="11.008927344374946"><ele>390.6</ele><time>2026-04-18T12:07:51.999Z</time></trkpt><trkpt lat="45.56620599695477" lon="11.00901024778056"><ele>390.4</ele><time>2026-04-18T12:07:52.999Z</time></trkpt><trkpt lat="45.56631257130119" lon="11.009081767806752"><ele>390.2</ele><time>2026-04-18T12:07:54.999Z</time></trkpt><trkpt lat="45.566370128808295" lon="11.00919414057405"><ele>390.0</ele><time>2026-04-18T12:07:56.999Z</time></trkpt><trkpt lat="45.566425371731405" lon="11.009247851997776"><ele>390.0</ele><time>2026-04-18T12:07:57.999Z</time></trkpt><trkpt lat="45.56649500475223" lon="11.009339603504172"><ele>390.0</ele><time>2026-04-18T12:07:59.999Z</time></trkpt><trkpt lat="45.566581639953355" lon="11.009423849597631"><ele>390.0</ele><time>2026-04-18T12:08:01.999Z</time></trkpt><trkpt lat="45.566692577233574" lon="11.009470583620148"><ele>390.0</ele><time>2026-04-18T12:08:03.999Z</time></trkpt><trkpt lat="45.566755637414566" lon="11.009542530434574"><ele>390.0</ele><time>2026-04-18T12:08:05.999Z</time></trkpt><trkpt lat="45.56682442540417" lon="11.009501212169724"><ele>390.0</ele><time>2026-04-18T12:08:06.999Z</time></trkpt><trkpt lat="45.56688646529421" lon="11.009526596089959"><ele>390.0</ele><time>2026-04-18T12:08:07.999Z</time></trkpt><trkpt lat="45.566951701740464" lon="11.009579321247605"><ele>390.0</ele><time>2026-04-18T12:08:08.999Z</time></trkpt><trkpt lat="45.567045570752725" lon="11.009639264110831"><ele>390.0</ele><time>2026-04-18T12:08:10.999Z</time></trkpt><trkpt lat="45.56711515225518" lon="11.00968562984044"><ele>390.0</ele><time>2026-04-18T12:08:11.999Z</time></trkpt><trkpt lat="45.56719089572252" lon="11.009777290446149"><ele>390.0</ele><time>2026-04-18T12:08:13.999Z</time></trkpt><trkpt lat="45.56727006899815" lon="11.009859908065259"><ele>391.8</ele><time>2026-04-18T12:08:15.999Z</time></trkpt><trkpt lat="45.56736675539536" lon="11.009900930147893"><ele>393.6</ele><time>2026-04-18T12:08:17.999Z</time></trkpt><trkpt lat="45.56747161338681" lon="11.009982747656467"><ele>395.4</ele><time>2026-04-18T12:08:19.999Z</time></trkpt><trkpt lat="45.56754521503722" lon="11.01005981361462"><ele>397.2</ele><time>2026-04-18T12:08:20.999Z</time></trkpt><trkpt lat="45.5676144020133" lon="11.010144706780201"><ele>399.0</ele><time>2026-04-18T12:08:21.999Z</time></trkpt><trkpt lat="45.56765688926303" lon="11.010215673292121"><ele>399.0</ele><time>2026-04-18T12:08:22.999Z</time></trkpt><trkpt lat="45.56771636312667" lon="11.010257794608927"><ele>399.0</ele><time>2026-04-18T12:08:23.999Z</time></trkpt><trkpt lat="45.56775933881603" lon="11.010176608487273"><ele>399.0</ele><time>2026-04-18T12:08:26.999Z</time></trkpt><trkpt lat="45.567738065333415" lon="11.010086882814079"><ele>399.0</ele><time>2026-04-18T12:08:28.999Z</time></trkpt><trkpt lat="45.567718748083365" lon="11.010000113386681"><ele>399.0</ele><time>2026-04-18T12:08:29.999Z</time></trkpt><trkpt lat="45.56765663993941" lon="11.009917050633513"><ele>399.0</ele><time>2026-04-18T12:08:30.999Z</time></trkpt><trkpt lat="45.567583911863814" lon="11.009811619975949"><ele>404.5</ele><time>2026-04-18T12:08:31.999Z</time></trkpt><trkpt lat="45.56753260895906" lon="11.009704582976392"><ele>410.0</ele><time>2026-04-18T12:08:32.999Z</time></trkpt><trkpt lat="45.567488277960464" lon="11.009610134644468"><ele>415.5</ele><time>2026-04-18T12:08:33.999Z</time></trkpt><trkpt lat="45.56744171842723" lon="11.009516321988336"><ele>421.0</ele><time>2026-04-18T12:08:34.999Z</time></trkpt><trkpt lat="45.56738214257718" lon="11.009422278065879"><ele>426.5</ele><time>2026-04-18T12:08:35.999Z</time></trkpt><trkpt lat="45.56731807702215" lon="11.00930839707276"><ele>432.0</ele><time>2026-04-18T12:08:37Z</time></trkpt><trkpt lat="45.56723717354712" lon="11.00920220079126"><ele>429.0</ele><time>2026-04-18T12:08:38Z</time></trkpt><trkpt lat="45.56715330222739" lon="11.009097668065902"><ele>426.00000000000006</ele><time>2026-04-18T12:08:39Z</time></trkpt><trkpt lat="45.56708467742106" lon="11.008995315903094"><ele>423.0</ele><time>2026-04-18T12:08:40Z</time></trkpt><trkpt lat="45.567027823571266" lon="11.008906439550984"><ele>420.0</ele><time>2026-04-18T12:08:41Z</time></trkpt><trkpt lat="45.56698358623935" lon="11.008833391272901"><ele>417.0</ele><time>2026-04-18T12:08:42Z</time></trkpt><trkpt lat="45.56689187546872" lon="11.008670404507454"><ele>417.0</ele><time>2026-04-18T12:08:44Z</time></trkpt><trkpt lat="45.5668505442143" lon="11.008588643783229"><ele>417.0</ele><time>2026-04-18T12:08:45Z</time></trkpt><trkpt lat="45.56691255512451" lon="11.008546132191062"><ele>417.0</ele><time>2026-04-18T12:08:49Z</time></trkpt><trkpt lat="45.56700256827696" lon="11.008667644262816"><ele>417.0</ele><time>2026-04-18T12:08:51Z</time></trkpt><trkpt lat="45.56706143716498" lon="11.00872667580984"><ele>417.0</ele><time>2026-04-18T12:08:52Z</time></trkpt><trkpt lat="45.567123826963396" lon="11.00878344288911"><ele>417.0</ele><time>2026-04-18T12:08:53Z</time></trkpt><trkpt lat="45.56719913403425" lon="11.008806860148113"><ele>427.40000000000003</ele><time>2026-04-18T12:08:54Z</time></trkpt><trkpt lat="45.56729458625425" lon="11.008825141083623"><ele>437.8</ele><time>2026-04-18T12:08:55Z</time></trkpt><trkpt lat="45.56739323452796" lon="11.00884375328207"><ele>448.2</ele><time>2026-04-18T12:08:56Z</time></trkpt><trkpt lat="45.567463570542344" lon="11.00890835276309"><ele>458.6</ele><time>2026-04-18T12:08:57Z</time></trkpt><trkpt lat="45.5675764363945" lon="11.008966838353711"><ele>469.0</ele><time>2026-04-18T12:08:58Z</time></trkpt><trkpt lat="45.56765662745906" lon="11.009028192502486"><ele>469.0</ele><time>2026-04-18T12:08:59Z</time></trkpt><trkpt lat="45.567751561932425" lon="11.009076904635503"><ele>469.0</ele><time>2026-04-18T12:09:00Z</time></trkpt><trkpt lat="45.56785081781711" lon="11.009128791878581"><ele>469.0</ele><time>2026-04-18T12:09:01Z</time></trkpt><trkpt lat="45.56793754747748" lon="11.009231239287995"><ele>469.0</ele><time>2026-04-18T12:09:02Z</time></trkpt><trkpt lat="45.568010455495255" lon="11.009309307876451"><ele>469.0</ele><time>2026-04-18T12:09:03Z</time></trkpt><trkpt lat="45.568069090982846" lon="11.009403931699534"><ele>469.79999999999995</ele><time>2026-04-18T12:09:04Z</time></trkpt><trkpt lat="45.568149129593465" lon="11.009488865283625"><ele>470.59999999999997</ele><time>2026-04-18T12:09:05Z</time></trkpt><trkpt lat="45.568210900569866" lon="11.00955660328082"><ele>471.4</ele><time>2026-04-18T12:09:06Z</time></trkpt><trkpt lat="45.56828438484575" lon="11.009629684805699"><ele>472.2</ele><time>2026-04-18T12:09:07Z</time></trkpt><trkpt lat="45.56836918413546" lon="11.00967659637703"><ele>473.0</ele><time>2026-04-18T12:09:08Z</time></trkpt><trkpt lat="45.56845668525934" lon="11.009804286502117"><ele>472.99999999999994</ele><time>2026-04-18T12:09:10Z</time></trkpt><trkpt lat="45.568475201399636" lon="11.009894707653782"><ele>473.0</ele><time>2026-04-18T12:09:11Z</time></trkpt><trkpt lat="45.56846258236062" lon="11.010007421486886"><ele>473.0</ele><time>2026-04-18T12:09:12Z</time></trkpt><trkpt lat="45.568428411928366" lon="11.010088963126224"><ele>473.0</ele><time>2026-04-18T12:09:13Z</time></trkpt><trkpt lat="45.56850055559147" lon="11.010223438144182"><ele>472.99999999999994</ele><time>2026-04-18T12:09:15Z</time></trkpt><trkpt lat="45.568573616654206" lon="11.010286775300607"><ele>473.0</ele><time>2026-04-18T12:09:16Z</time></trkpt><trkpt lat="45.568618367719644" lon="11.010360016209576"><ele>473.79999999999995</ele><time>2026-04-18T12:09:17Z</time></trkpt><trkpt lat="45.568715413983966" lon="11.010418382563062"><ele>474.59999999999997</ele><time>2026-04-18T12:09:19Z</time></trkpt><trkpt lat="45.56879736560526" lon="11.01043971509694"><ele>475.40000000000003</ele><time>2026-04-18T12:09:20Z</time></trkpt><trkpt lat="45.568891737870295" lon="11.0104785638658"><ele>476.20000000000005</ele><time>2026-04-18T12:09:21Z</time></trkpt><trkpt lat="45.56898781654125" lon="11.010527462562383"><ele>477.0</ele><time>2026-04-18T12:09:22Z</time></trkpt><trkpt lat="45.5690814745704" lon="11.01057495478363"><ele>477.0</ele><time>2026-04-18T12:09:23Z</time></trkpt><trkpt lat="45.569179186981685" lon="11.010602100902451"><ele>477.0</ele><time>2026-04-18T12:09:24Z</time></trkpt><trkpt lat="45.56926413892091" lon="11.010583483114303"><ele>477.0</ele><time>2026-04-18T12:09:25Z</time></trkpt><trkpt lat="45.56934359454049" lon="11.010538453802898"><ele>477.0</ele><time>2026-04-18T12:09:26Z</time></trkpt><trkpt lat="45.569420590867665" lon="11.010472890380827"><ele>477.0</ele><time>2026-04-18T12:09:27Z</time></trkpt><trkpt lat="45.56949677664409" lon="11.01044448650549"><ele>477.0</ele><time>2026-04-18T12:09:28Z</time></trkpt><trkpt lat="45.56958451786569" lon="11.010453567090808"><ele>478.20000000000005</ele><time>2026-04-18T12:09:29Z</time></trkpt><trkpt lat="45.5696799506624" lon="11.010474523135553"><ele>479.40000000000003</ele><time>2026-04-18T12:09:30Z</time></trkpt><trkpt lat="45.56974845080543" lon="11.010536127621586"><ele>480.59999999999997</ele><time>2026-04-18T12:09:31Z</time></trkpt><trkpt lat="45.569785820964725" lon="11.0106256668275"><ele>481.79999999999995</ele><time>2026-04-18T12:09:32Z</time></trkpt><trkpt lat="45.56980097042606" lon="11.010741456042226"><ele>483.0</ele><time>2026-04-18T12:09:33Z</time></trkpt><trkpt lat="45.56973183739169" lon="11.010882980331814"><ele>483.0</ele><time>2026-04-18T12:09:35Z</time></trkpt><trkpt lat="45.56968174924119" lon="11.010967869994772"><ele>483.0</ele><time>2026-04-18T12:09:36Z</time></trkpt><trkpt lat="45.56965502687828" lon="11.011073149715394"><ele>483.0</ele><time>2026-04-18T12:09:37Z</time></trkpt><trkpt lat="45.5696446649515" lon="11.011180400070936"><ele>483.0</ele><time>2026-04-18T12:09:38Z</time></trkpt><trkpt lat="45.56963253860963" lon="11.011299236946305"><ele>483.0</ele><time>2026-04-18T12:09:39Z</time></trkpt><trkpt lat="45.569673849048364" lon="11.011473555180904"><ele>483.0</ele><time>2026-04-18T12:09:41Z</time></trkpt><trkpt lat="45.56972689219813" lon="11.011539285436672"><ele>483.0</ele><time>2026-04-18T12:09:41.999Z</time></trkpt><trkpt lat="45.5697941002961" lon="11.011566701572946"><ele>483.0</ele><time>2026-04-18T12:09:42.999Z</time></trkpt><trkpt lat="45.56986847340686" lon="11.011572215860484"><ele>483.0</ele><time>2026-04-18T12:09:43.999Z</time></trkpt><trkpt lat="45.56993234893393" lon="11.011553293186042"><ele>483.0</ele><time>2026-04-18T12:09:44.999Z</time></trkpt><trkpt lat="45.56997217776573" lon="11.011413463811246"><ele>483.0</ele><time>2026-04-18T12:09:46.999Z</time></trkpt><trkpt lat="45.57004365046477" lon="11.011381119889291"><ele>483.0</ele><time>2026-04-18T12:09:48.999Z</time></trkpt><trkpt lat="45.5701763623959" lon="11.011403588514723"><ele>483.0</ele><time>2026-04-18T12:09:50.999Z</time></trkpt><trkpt lat="45.570311307942845" lon="11.011384690495237"><ele>482.99999999999994</ele><time>2026-04-18T12:09:52.999Z</time></trkpt><trkpt lat="45.57045228565291" lon="11.011330406896052"><ele>482.99999999999994</ele><time>2026-04-18T12:09:54.999Z</time></trkpt><trkpt lat="45.57053687503286" lon="11.011300878772202"><ele>483.0</ele><time>2026-04-18T12:09:56Z</time></trkpt><trkpt lat="45.570615701086254" lon="11.011285970876918"><ele>483.0</ele><time>2026-04-18T12:09:57Z</time></trkpt><trkpt lat="45.570707768432904" lon="11.011284844605674"><ele>486.0</ele><time>2026-04-18T12:09:58Z</time></trkpt><trkpt lat="45.57080137719755" lon="11.011280142277046"><ele>489.0</ele><time>2026-04-18T12:09:59Z</time></trkpt><trkpt lat="45.570898550024" lon="11.011270561571884"><ele>492.0</ele><time>2026-04-18T12:10:00Z</time></trkpt><trkpt lat="45.57099167304122" lon="11.011255258298556"><ele>495.0</ele><time>2026-04-18T12:10:01Z</time></trkpt><trkpt lat="45.57108103204692" lon="11.011198861581953"><ele>498.0</ele><time>2026-04-18T12:10:02Z</time></trkpt><trkpt lat="45.571141603938344" lon="11.011172521150327"><ele>501.0</ele><time>2026-04-18T12:10:03Z</time></trkpt><trkpt lat="45.57123867113427" lon="11.011168389401503"><ele>503.0</ele><time>2026-04-18T12:10:04Z</time></trkpt><trkpt lat="45.571339159598196" lon="11.011159129406549"><ele>505.0</ele><time>2026-04-18T12:10:05Z</time></trkpt><trkpt lat="45.57143752466922" lon="11.01114423878653"><ele>507.0</ele><time>2026-04-18T12:10:06Z</time></trkpt><trkpt lat="45.571515165338816" lon="11.011132870865625"><ele>509.0</ele><time>2026-04-18T12:10:07Z</time></trkpt><trkpt lat="45.571599812293194" lon="11.011149583925405"><ele>511.0</ele><time>2026-04-18T12:10:08Z</time></trkpt><trkpt lat="45.57170040074146" lon="11.011155592561964"><ele>511.0</ele><time>2026-04-18T12:10:09Z</time></trkpt><trkpt lat="45.57180347951204" lon="11.011159101981965"><ele>511.0</ele><time>2026-04-18T12:10:10Z</time></trkpt><trkpt lat="45.571921792211725" lon="11.011164060994384"><ele>511.0</ele><time>2026-04-18T12:10:11Z</time></trkpt><trkpt lat="45.57204921115922" lon="11.011169401688853"><ele>511.0</ele><time>2026-04-18T12:10:12Z</time></trkpt><trkpt lat="45.572162524601076" lon="11.011152919169898"><ele>512.5</ele><time>2026-04-18T12:10:13Z</time></trkpt><trkpt lat="45.57228729681722" lon="11.011167297695444"><ele>514.0</ele><time>2026-04-18T12:10:14Z</time></trkpt><trkpt lat="45.57241479455679" lon="11.011180693428047"><ele>515.5</ele><time>2026-04-18T12:10:15Z</time></trkpt><trkpt lat="45.572540518052605" lon="11.011183491342665"><ele>517.0</ele><time>2026-04-18T12:10:16Z</time></trkpt><trkpt lat="45.57266087844703" lon="11.011187017700099"><ele>517.0</ele><time>2026-04-18T12:10:17Z</time></trkpt><trkpt lat="45.572780073556146" lon="11.011219187840382"><ele>517.0</ele><time>2026-04-18T12:10:18Z</time></trkpt><trkpt lat="45.572904981972556" lon="11.011232597479179"><ele>517.0</ele><time>2026-04-18T12:10:19Z</time></trkpt><trkpt lat="45.57302977537915" lon="11.011276366751504"><ele>517.0</ele><time>2026-04-18T12:10:20Z</time></trkpt><trkpt lat="45.57314608263033" lon="11.011317733722507"><ele>519.4</ele><time>2026-04-18T12:10:21Z</time></trkpt><trkpt lat="45.57325040814355" lon="11.011340057392129"><ele>521.8000000000001</ele><time>2026-04-18T12:10:22Z</time></trkpt><trkpt lat="45.57335395645981" lon="11.01137135481633"><ele>524.2</ele><time>2026-04-18T12:10:23Z</time></trkpt><trkpt lat="45.57345595913972" lon="11.011417609257851"><ele>526.6</ele><time>2026-04-18T12:10:24Z</time></trkpt><trkpt lat="45.57355860914748" lon="11.01145602789696"><ele>529.0</ele><time>2026-04-18T12:10:25Z</time></trkpt><trkpt lat="45.573631662054005" lon="11.011486156088576"><ele>532.0</ele><time>2026-04-18T12:10:26Z</time></trkpt><trkpt lat="45.57371444991923" lon="11.01147896879094"><ele>535.0</ele><time>2026-04-18T12:10:27Z</time></trkpt><trkpt lat="45.5738163874158" lon="11.011441125915173"><ele>538.0</ele><time>2026-04-18T12:10:28Z</time></trkpt><trkpt lat="45.573889731377015" lon="11.01133199360532"><ele>541.0</ele><time>2026-04-18T12:10:29Z</time></trkpt><trkpt lat="45.57396036778914" lon="11.011231109481578"><ele>544.0</ele><time>2026-04-18T12:10:30Z</time></trkpt><trkpt lat="45.574044553901054" lon="11.011110873465189"><ele>544.0</ele><time>2026-04-18T12:10:31Z</time></trkpt><trkpt lat="45.5741369329076" lon="11.010978936210044"><ele>544.0</ele><time>2026-04-18T12:10:32Z</time></trkpt><trkpt lat="45.57415785707264" lon="11.010792224627453"><ele>544.0</ele><time>2026-04-18T12:10:33Z</time></trkpt><trkpt lat="45.574237982792866" lon="11.010671688899722"><ele>544.0</ele><time>2026-04-18T12:10:34Z</time></trkpt><trkpt lat="45.57431020596526" lon="11.010563179787725"><ele>544.4</ele><time>2026-04-18T12:10:35Z</time></trkpt><trkpt lat="45.574388877582074" lon="11.01050328453617"><ele>544.8</ele><time>2026-04-18T12:10:36Z</time></trkpt><trkpt lat="45.574483086100415" lon="11.010475648555449"><ele>545.2</ele><time>2026-04-18T12:10:37Z</time></trkpt><trkpt lat="45.57459025053946" lon="11.010469932012223"><ele>545.6</ele><time>2026-04-18T12:10:38Z</time></trkpt><trkpt lat="45.574703003440774" lon="11.010459530843619"><ele>546.0</ele><time>2026-04-18T12:10:39Z</time></trkpt><trkpt lat="45.57478570061452" lon="11.010458695837855"><ele>546.8</ele><time>2026-04-18T12:10:40Z</time></trkpt><trkpt lat="45.574873911973484" lon="11.010545382924809"><ele>547.6</ele><time>2026-04-18T12:10:42Z</time></trkpt><trkpt lat="45.57488357580994" lon="11.010720491049401"><ele>548.4</ele><time>2026-04-18T12:10:44Z</time></trkpt><trkpt lat="45.574883728828134" lon="11.010824628792596"><ele>549.2</ele><time>2026-04-18T12:10:45Z</time></trkpt><trkpt lat="45.57490176509294" lon="11.010918717321243"><ele>550.0</ele><time>2026-04-18T12:10:46Z</time></trkpt><trkpt lat="45.57492054495741" lon="11.011027651303808"><ele>550.0</ele><time>2026-04-18T12:10:47Z</time></trkpt><trkpt lat="45.574915656796755" lon="11.011150890824723"><ele>550.0</ele><time>2026-04-18T12:10:48Z</time></trkpt><trkpt lat="45.574874202720416" lon="11.011258847833595"><ele>550.0</ele><time>2026-04-18T12:10:49Z</time></trkpt><trkpt lat="45.57480861440877" lon="11.011341333564628"><ele>550.0</ele><time>2026-04-18T12:10:50Z</time></trkpt><trkpt lat="45.57473635889281" lon="11.011408245848347"><ele>550.0</ele><time>2026-04-18T12:10:51Z</time></trkpt><trkpt lat="45.574662268432874" lon="11.01147087811544"><ele>550.0</ele><time>2026-04-18T12:10:52Z</time></trkpt><trkpt lat="45.57455781822207" lon="11.011539351177845"><ele>550.4</ele><time>2026-04-18T12:10:54Z</time></trkpt><trkpt lat="45.5744499599421" lon="11.011613978683362"><ele>550.8</ele><time>2026-04-18T12:10:56Z</time></trkpt><trkpt lat="45.57435033927136" lon="11.011709214769951"><ele>551.2</ele><time>2026-04-18T12:10:58Z</time></trkpt><trkpt lat="45.57427106499895" lon="11.011791185601721"><ele>551.6</ele><time>2026-04-18T12:11:00Z</time></trkpt><trkpt lat="45.574269913394716" lon="11.011884633813079"><ele>552.0</ele><time>2026-04-18T12:11:18Z</time></trkpt><trkpt lat="45.5741810017161" lon="11.012038753515414"><ele>552.0</ele><time>2026-04-18T12:11:20Z</time></trkpt><trkpt lat="45.57413386464176" lon="11.012161959398988"><ele>552.0</ele><time>2026-04-18T12:11:21Z</time></trkpt><trkpt lat="45.574101601675295" lon="11.012311548313694"><ele>552.0</ele><time>2026-04-18T12:11:22Z</time></trkpt><trkpt lat="45.57407000346003" lon="11.012456806908142"><ele>552.0</ele><time>2026-04-18T12:11:23Z</time></trkpt><trkpt lat="45.57401917402522" lon="11.012583325238493"><ele>552.0</ele><time>2026-04-18T12:11:24Z</time></trkpt><trkpt lat="45.57396839352407" lon="11.012728400904068"><ele>554.0</ele><time>2026-04-18T12:11:25Z</time></trkpt><trkpt lat="45.573906468463456" lon="11.012878317316074"><ele>556.0</ele><time>2026-04-18T12:11:26Z</time></trkpt><trkpt lat="45.57381563160578" lon="11.01302469395199"><ele>558.0</ele><time>2026-04-18T12:11:27Z</time></trkpt><trkpt lat="45.57371282208548" lon="11.013124851472863"><ele>560.0</ele><time>2026-04-18T12:11:28Z</time></trkpt><trkpt lat="45.573605119739376" lon="11.013206895886318"><ele>559.2</ele><time>2026-04-18T12:11:29Z</time></trkpt><trkpt lat="45.57349397043303" lon="11.013265745380027"><ele>558.4</ele><time>2026-04-18T12:11:30Z</time></trkpt><trkpt lat="45.573391193385646" lon="11.013358164694987"><ele>557.6</ele><time>2026-04-18T12:11:31.001Z</time></trkpt><trkpt lat="45.57330931014392" lon="11.013457237936482"><ele>556.8</ele><time>2026-04-18T12:11:32.001Z</time></trkpt><trkpt lat="45.573256149222516" lon="11.013560094353993"><ele>556.0</ele><time>2026-04-18T12:11:33.001Z</time></trkpt><trkpt lat="45.57320618233196" lon="11.01365230118005"><ele>556.0</ele><time>2026-04-18T12:11:34.001Z</time></trkpt><trkpt lat="45.573176895343245" lon="11.01376842106867"><ele>556.0</ele><time>2026-04-18T12:11:35.001Z</time></trkpt><trkpt lat="45.573174303541755" lon="11.013912367424084"><ele>556.0</ele><time>2026-04-18T12:11:36.001Z</time></trkpt><trkpt lat="45.57319148266423" lon="11.014055742453092"><ele>556.0</ele><time>2026-04-18T12:11:37.001Z</time></trkpt><trkpt lat="45.57321062638562" lon="11.014184261212753"><ele>556.0</ele><time>2026-04-18T12:11:38.001Z</time></trkpt><trkpt lat="45.57325724501746" lon="11.01430162156767"><ele>556.1666666666667</ele><time>2026-04-18T12:11:39.001Z</time></trkpt><trkpt lat="45.5733052273189" lon="11.014384629426463"><ele>556.3333333333334</ele><time>2026-04-18T12:11:40.001Z</time></trkpt><trkpt lat="45.57337958436336" lon="11.014509038236904"><ele>556.5</ele><time>2026-04-18T12:11:42.001Z</time></trkpt><trkpt lat="45.57342849373838" lon="11.01457120866763"><ele>556.6666666666666</ele><time>2026-04-18T12:11:43.001Z</time></trkpt><trkpt lat="45.573480427839236" lon="11.014645274609391"><ele>556.8333333333333</ele><time>2026-04-18T12:11:44.001Z</time></trkpt><trkpt lat="45.57354090195364" lon="11.014741776392148"><ele>557.0</ele><time>2026-04-18T12:11:45.001Z</time></trkpt><trkpt lat="45.57361978029985" lon="11.01484917479427"><ele>557.0</ele><time>2026-04-18T12:11:46.001Z</time></trkpt><trkpt lat="45.57368728157137" lon="11.014949729010823"><ele>557.0</ele><time>2026-04-18T12:11:47.001Z</time></trkpt><trkpt lat="45.57376726281929" lon="11.015031188132314"><ele>557.0</ele><time>2026-04-18T12:11:48.001Z</time></trkpt><trkpt lat="45.5738532301729" lon="11.015112919490882"><ele>557.0</ele><time>2026-04-18T12:11:49.001Z</time></trkpt><trkpt lat="45.57393757171071" lon="11.015199935323462"><ele>557.0</ele><time>2026-04-18T12:11:50.001Z</time></trkpt><trkpt lat="45.574030758704396" lon="11.01528513315096"><ele>557.0</ele><time>2026-04-18T12:11:51.001Z</time></trkpt><trkpt lat="45.57413179128023" lon="11.015364025660535"><ele>557.0</ele><time>2026-04-18T12:11:52.001Z</time></trkpt><trkpt lat="45.57423778100852" lon="11.015438601426796"><ele>557.0</ele><time>2026-04-18T12:11:53.001Z</time></trkpt><trkpt lat="45.57433983948325" lon="11.015503822154221"><ele>557.0</ele><time>2026-04-18T12:11:54.001Z</time></trkpt><trkpt lat="45.57443202446121" lon="11.015583015838677"><ele>557.0</ele><time>2026-04-18T12:11:55.001Z</time></trkpt><trkpt lat="45.574514943524555" lon="11.015675754378666"><ele>557.0</ele><time>2026-04-18T12:11:56.001Z</time></trkpt><trkpt lat="45.574587575954375" lon="11.015775598182746"><ele>557.0</ele><time>2026-04-18T12:11:57Z</time></trkpt><trkpt lat="45.57465584579145" lon="11.015891008748644"><ele>557.0</ele><time>2026-04-18T12:11:58Z</time></trkpt><trkpt lat="45.57472603915758" lon="11.016002259630165"><ele>557.0</ele><time>2026-04-18T12:11:59Z</time></trkpt><trkpt lat="45.574791041367085" lon="11.016112304936515"><ele>557.4</ele><time>2026-04-18T12:12:00Z</time></trkpt><trkpt lat="45.574847637132194" lon="11.016232674151446"><ele>557.8000000000001</ele><time>2026-04-18T12:12:01Z</time></trkpt><trkpt lat="45.574893596552286" lon="11.016364930194216"><ele>558.2</ele><time>2026-04-18T12:12:02Z</time></trkpt><trkpt lat="45.57493064679926" lon="11.01649153649046"><ele>558.6</ele><time>2026-04-18T12:12:03Z</time></trkpt><trkpt lat="45.574950088719206" lon="11.016610598341483"><ele>559.0</ele><time>2026-04-18T12:12:04Z</time></trkpt><trkpt lat="45.574973158991874" lon="11.016729618187599"><ele>556.5</ele><time>2026-04-18T12:12:05Z</time></trkpt><trkpt lat="45.57501031150186" lon="11.01683327523301"><ele>554.0</ele><time>2026-04-18T12:12:06Z</time></trkpt><trkpt lat="45.57505942205093" lon="11.016930517782496"><ele>551.5</ele><time>2026-04-18T12:12:07Z</time></trkpt><trkpt lat="45.575118457079235" lon="11.017018554532047"><ele>549.0</ele><time>2026-04-18T12:12:08Z</time></trkpt><trkpt lat="45.57519042522633" lon="11.017127102803258"><ele>546.5</ele><time>2026-04-18T12:12:09Z</time></trkpt><trkpt lat="45.575245292870136" lon="11.017205909000145"><ele>544.0</ele><time>2026-04-18T12:12:10Z</time></trkpt><trkpt lat="45.57528796332187" lon="11.017280653518313"><ele>544.0</ele><time>2026-04-18T12:12:11Z</time></trkpt><trkpt lat="45.575335021849895" lon="11.017345720849699"><ele>544.0</ele><time>2026-04-18T12:12:12Z</time></trkpt><trkpt lat="45.575353234930226" lon="11.017452328115148"><ele>544.0</ele><time>2026-04-18T12:12:53.001Z</time></trkpt><trkpt lat="45.575261549623825" lon="11.017491322076603"><ele>544.0</ele><time>2026-04-18T12:12:55.001Z</time></trkpt><trkpt lat="45.5751873516696" lon="11.017509213998792"><ele>544.0</ele><time>2026-04-18T12:12:56.001Z</time></trkpt><trkpt lat="45.575101775665" lon="11.017532053195051"><ele>544.0</ele><time>2026-04-18T12:12:57.001Z</time></trkpt><trkpt lat="45.57500669991207" lon="11.017565231499637"><ele>544.0</ele><time>2026-04-18T12:12:58.001Z</time></trkpt><trkpt lat="45.574930714027495" lon="11.01758524861517"><ele>544.0</ele><time>2026-04-18T12:12:59.001Z</time></trkpt><trkpt lat="45.5748552431691" lon="11.017601860903465"><ele>544.0</ele><time>2026-04-18T12:13:00.001Z</time></trkpt><trkpt lat="45.57474654965288" lon="11.01759813794699"><ele>544.0</ele><time>2026-04-18T12:13:01.001Z</time></trkpt><trkpt lat="45.574640157830615" lon="11.017601259622225"><ele>544.0</ele><time>2026-04-18T12:13:02.001Z</time></trkpt><trkpt lat="45.57454028883363" lon="11.01759062445813"><ele>543.8</ele><time>2026-04-18T12:13:03.001Z</time></trkpt><trkpt lat="45.574460365846086" lon="11.017563011609209"><ele>543.5999999999999</ele><time>2026-04-18T12:13:04.001Z</time></trkpt><trkpt lat="45.57435939355152" lon="11.017597285446872"><ele>543.4</ele><time>2026-04-18T12:13:06.001Z</time></trkpt><trkpt lat="45.57424204117724" lon="11.01771852866551"><ele>543.1999999999999</ele><time>2026-04-18T12:13:08.001Z</time></trkpt><trkpt lat="45.574192040627686" lon="11.017848357181638"><ele>543.0</ele><time>2026-04-18T12:13:10.001Z</time></trkpt><trkpt lat="45.57417972943945" lon="11.017997557082934"><ele>543.0</ele><time>2026-04-18T12:13:12.001Z</time></trkpt><trkpt lat="45.574240777971085" lon="11.018151929397414"><ele>543.0</ele><time>2026-04-18T12:13:14.001Z</time></trkpt><trkpt lat="45.574294712686985" lon="11.018226659299971"><ele>543.0</ele><time>2026-04-18T12:13:15.001Z</time></trkpt><trkpt lat="45.574359728605394" lon="11.018292452470241"><ele>543.0</ele><time>2026-04-18T12:13:16.001Z</time></trkpt><trkpt lat="45.57442532811501" lon="11.018350329958519"><ele>543.0</ele><time>2026-04-18T12:13:17.001Z</time></trkpt><trkpt lat="45.57452287364167" lon="11.018431323681352"><ele>546.3333333333334</ele><time>2026-04-18T12:13:19.001Z</time></trkpt><trkpt lat="45.574599911131116" lon="11.018471283148207"><ele>549.6666666666666</ele><time>2026-04-18T12:13:20.001Z</time></trkpt><trkpt lat="45.574650474695154" lon="11.018526967421005"><ele>553.0</ele><time>2026-04-18T12:13:21.001Z</time></trkpt><trkpt lat="45.574700359343154" lon="11.018602060985332"><ele>556.3333333333333</ele><time>2026-04-18T12:13:23.001Z</time></trkpt><trkpt lat="45.57472235050213" lon="11.018693011272331"><ele>559.6666666666666</ele><time>2026-04-18T12:13:25.001Z</time></trkpt><trkpt lat="45.574807766087574" lon="11.018845944589005"><ele>563.0</ele><time>2026-04-18T12:13:27.001Z</time></trkpt><trkpt lat="45.574854250728976" lon="11.019023940159908"><ele>564.8</ele><time>2026-04-18T12:13:29.001Z</time></trkpt><trkpt lat="45.574908565844595" lon="11.019217665578457"><ele>566.5999999999999</ele><time>2026-04-18T12:13:31.001Z</time></trkpt><trkpt lat="45.57495114801945" lon="11.019313327317628"><ele>568.4000000000001</ele><time>2026-04-18T12:13:32.001Z</time></trkpt><trkpt lat="45.57498728383573" lon="11.01942036222785"><ele>570.2</ele><time>2026-04-18T12:13:33.001Z</time></trkpt><trkpt lat="45.57502257676516" lon="11.019535095599045"><ele>572.0</ele><time>2026-04-18T12:13:34.001Z</time></trkpt><trkpt lat="45.57506544607527" lon="11.019651678514018"><ele>572.0</ele><time>2026-04-18T12:13:35.001Z</time></trkpt><trkpt lat="45.57510033503231" lon="11.019762442674033"><ele>572.0</ele><time>2026-04-18T12:13:36.001Z</time></trkpt><trkpt lat="45.575138201483306" lon="11.019907101609846"><ele>572.0</ele><time>2026-04-18T12:13:37.001Z</time></trkpt><trkpt lat="45.57518084445715" lon="11.020029129187181"><ele>572.0</ele><time>2026-04-18T12:13:38.001Z</time></trkpt><trkpt lat="45.5752233059406" lon="11.020150803062762"><ele>572.0</ele><time>2026-04-18T12:13:39.001Z</time></trkpt><trkpt lat="45.57526603831649" lon="11.020262862785628"><ele>571.0</ele><time>2026-04-18T12:13:40.001Z</time></trkpt><trkpt lat="45.57531445094081" lon="11.020376789307097"><ele>570.0</ele><time>2026-04-18T12:13:41.001Z</time></trkpt><trkpt lat="45.57535208462923" lon="11.020496382196571"><ele>569.0</ele><time>2026-04-18T12:13:42.001Z</time></trkpt><trkpt lat="45.57539405162375" lon="11.02060130472628"><ele>568.0</ele><time>2026-04-18T12:13:43.001Z</time></trkpt><trkpt lat="45.57544235669308" lon="11.020705377519816"><ele>567.0</ele><time>2026-04-18T12:13:44.001Z</time></trkpt><trkpt lat="45.575496406753" lon="11.020823999415004"><ele>573.4</ele><time>2026-04-18T12:13:45.001Z</time></trkpt><trkpt lat="45.57554653015399" lon="11.020944464732917"><ele>579.8000000000001</ele><time>2026-04-18T12:13:46.001Z</time></trkpt><trkpt lat="45.57558527468924" lon="11.021061461161523"><ele>586.2</ele><time>2026-04-18T12:13:47.001Z</time></trkpt><trkpt lat="45.575609712032595" lon="11.021193143688127"><ele>592.6</ele><time>2026-04-18T12:13:48.001Z</time></trkpt><trkpt lat="45.57564931030678" lon="11.021328878559071"><ele>599.0</ele><time>2026-04-18T12:13:49.001Z</time></trkpt><trkpt lat="45.57568782744592" lon="11.021469349130019"><ele>599.0</ele><time>2026-04-18T12:13:50.001Z</time></trkpt><trkpt lat="45.57572698424297" lon="11.021613093349757"><ele>599.0</ele><time>2026-04-18T12:13:51.001Z</time></trkpt><trkpt lat="45.5757794629977" lon="11.021759018546256"><ele>599.0</ele><time>2026-04-18T12:13:52.001Z</time></trkpt><trkpt lat="45.57581171385404" lon="11.021897395131992"><ele>599.0</ele><time>2026-04-18T12:13:53.001Z</time></trkpt><trkpt lat="45.57584695248303" lon="11.022006285105634"><ele>599.0</ele><time>2026-04-18T12:13:54.001Z</time></trkpt><trkpt lat="45.575883354246656" lon="11.022100891569236"><ele>597.0</ele><time>2026-04-18T12:13:55.001Z</time></trkpt><trkpt lat="45.57591994576553" lon="11.022196469513116"><ele>595.0</ele><time>2026-04-18T12:13:56.001Z</time></trkpt><trkpt lat="45.57596034191737" lon="11.022297707333353"><ele>593.0</ele><time>2026-04-18T12:13:57.001Z</time></trkpt><trkpt lat="45.576000271745826" lon="11.022389060337822"><ele>591.0</ele><time>2026-04-18T12:13:58.001Z</time></trkpt><trkpt lat="45.57606069212777" lon="11.022500765688076"><ele>589.0</ele><time>2026-04-18T12:13:59.001Z</time></trkpt><trkpt lat="45.57611802840208" lon="11.022608555818952"><ele>587.0</ele><time>2026-04-18T12:14:00.001Z</time></trkpt><trkpt lat="45.57617268026118" lon="11.022711615450554"><ele>589.6666666666666</ele><time>2026-04-18T12:14:01.001Z</time></trkpt><trkpt lat="45.57623045681968" lon="11.02279369406029"><ele>592.3333333333333</ele><time>2026-04-18T12:14:02.001Z</time></trkpt><trkpt lat="45.57630317692908" lon="11.022873980552383"><ele>595.0</ele><time>2026-04-18T12:14:03.001Z</time></trkpt><trkpt lat="45.57638142174599" lon="11.02294403155499"><ele>597.6666666666666</ele><time>2026-04-18T12:14:04.001Z</time></trkpt><trkpt lat="45.57644973945777" lon="11.022981071265905"><ele>600.3333333333334</ele><time>2026-04-18T12:14:05.001Z</time></trkpt><trkpt lat="45.57653570404244" lon="11.023010716804995"><ele>603.0</ele><time>2026-04-18T12:14:06.001Z</time></trkpt><trkpt lat="45.57662777837421" lon="11.023038541773317"><ele>603.0</ele><time>2026-04-18T12:14:07.001Z</time></trkpt><trkpt lat="45.57671796301627" lon="11.02307103621722"><ele>603.0</ele><time>2026-04-18T12:14:08.001Z</time></trkpt><trkpt lat="45.576835028578095" lon="11.023078684271466"><ele>603.0</ele><time>2026-04-18T12:14:09.001Z</time></trkpt><trkpt lat="45.576951878946964" lon="11.023069393665411"><ele>603.0</ele><time>2026-04-18T12:14:10.001Z</time></trkpt><trkpt lat="45.57706253414537" lon="11.023060521376566"><ele>603.0</ele><time>2026-04-18T12:14:11.001Z</time></trkpt><trkpt lat="45.577157457144736" lon="11.023050345309892"><ele>604.6</ele><time>2026-04-18T12:14:12.001Z</time></trkpt><trkpt lat="45.57725762208927" lon="11.02304584240363"><ele>606.1999999999999</ele><time>2026-04-18T12:14:13.001Z</time></trkpt><trkpt lat="45.577349095888515" lon="11.023078516729706"><ele>607.8</ele><time>2026-04-18T12:14:14.001Z</time></trkpt><trkpt lat="45.57744182162142" lon="11.023105793764314"><ele>609.4</ele><time>2026-04-18T12:14:15.001Z</time></trkpt><trkpt lat="45.577530956337974" lon="11.023142139515029"><ele>611.0</ele><time>2026-04-18T12:14:16.001Z</time></trkpt><trkpt lat="45.57761720920987" lon="11.023174910673985"><ele>611.0</ele><time>2026-04-18T12:14:17.001Z</time></trkpt><trkpt lat="45.57770969944599" lon="11.023218919953747"><ele>611.0</ele><time>2026-04-18T12:14:18.001Z</time></trkpt><trkpt lat="45.57782424764615" lon="11.023289373455647"><ele>611.0</ele><time>2026-04-18T12:14:19.001Z</time></trkpt><trkpt lat="45.57793629462479" lon="11.023355652484087"><ele>611.0</ele><time>2026-04-18T12:14:20.001Z</time></trkpt><trkpt lat="45.57804141859731" lon="11.02340291778263"><ele>607.2</ele><time>2026-04-18T12:14:21.001Z</time></trkpt><trkpt lat="45.57814218911153" lon="11.023446795050786"><ele>603.4000000000001</ele><time>2026-04-18T12:14:22.001Z</time></trkpt><trkpt lat="45.57824271868399" lon="11.023482024359609"><ele>599.6</ele><time>2026-04-18T12:14:23.001Z</time></trkpt><trkpt lat="45.57834656675118" lon="11.023506173627565"><ele>595.8000000000001</ele><time>2026-04-18T12:14:24.001Z</time></trkpt><trkpt lat="45.578419377081744" lon="11.023511755290478"><ele>592.0</ele><time>2026-04-18T12:14:25.001Z</time></trkpt><trkpt lat="45.57850072479267" lon="11.023507097850707"><ele>592.0</ele><time>2026-04-18T12:14:26.001Z</time></trkpt><trkpt lat="45.5786030186319" lon="11.023608292249259"><ele>592.0</ele><time>2026-04-18T12:14:28.001Z</time></trkpt><trkpt lat="45.578628233504354" lon="11.023724422552197"><ele>592.0</ele><time>2026-04-18T12:14:29.001Z</time></trkpt><trkpt lat="45.57866184396247" lon="11.023850803026779"><ele>592.0</ele><time>2026-04-18T12:14:30.001Z</time></trkpt><trkpt lat="45.578705152308714" lon="11.023945650554655"><ele>592.0</ele><time>2026-04-18T12:14:31.001Z</time></trkpt><trkpt lat="45.57875520387585" lon="11.024012203780464"><ele>591.8000000000001</ele><time>2026-04-18T12:14:32.001Z</time></trkpt><trkpt lat="45.578826508602766" lon="11.02404256580944"><ele>591.6</ele><time>2026-04-18T12:14:33.001Z</time></trkpt><trkpt lat="45.578903305197045" lon="11.024141982106793"><ele>591.4000000000001</ele><time>2026-04-18T12:14:34.001Z</time></trkpt><trkpt lat="45.57898864144375" lon="11.024212093070677"><ele>591.2</ele><time>2026-04-18T12:14:35.001Z</time></trkpt><trkpt lat="45.57910030484274" lon="11.02427288948823"><ele>591.0</ele><time>2026-04-18T12:14:36.001Z</time></trkpt><trkpt lat="45.57921879884403" lon="11.024334579426732"><ele>591.0</ele><time>2026-04-18T12:14:37.001Z</time></trkpt><trkpt lat="45.579342704661016" lon="11.024400742544271"><ele>591.0</ele><time>2026-04-18T12:14:38.001Z</time></trkpt><trkpt lat="45.57945390584705" lon="11.024450529421806"><ele>591.0</ele><time>2026-04-18T12:14:39.001Z</time></trkpt><trkpt lat="45.579548511388325" lon="11.024498826122032"><ele>591.0</ele><time>2026-04-18T12:14:40.001Z</time></trkpt><trkpt lat="45.57965109979523" lon="11.024523034749484"><ele>592.6</ele><time>2026-04-18T12:14:41.001Z</time></trkpt><trkpt lat="45.579766130499706" lon="11.024536544196446"><ele>594.2</ele><time>2026-04-18T12:14:42.001Z</time></trkpt><trkpt lat="45.57987116287572" lon="11.024553040954013"><ele>595.8</ele><time>2026-04-18T12:14:43.001Z</time></trkpt><trkpt lat="45.579943258111456" lon="11.02456548531523"><ele>597.4</ele><time>2026-04-18T12:14:44.001Z</time></trkpt><trkpt lat="45.58003874606412" lon="11.02457996484675"><ele>599.0</ele><time>2026-04-18T12:14:45.001Z</time></trkpt><trkpt lat="45.58013629505303" lon="11.024592115431206"><ele>599.0</ele><time>2026-04-18T12:14:46.001Z</time></trkpt><trkpt lat="45.58021311971047" lon="11.024610335619139"><ele>599.0</ele><time>2026-04-18T12:14:47.001Z</time></trkpt><trkpt lat="45.58029195220862" lon="11.02458377391921"><ele>599.0</ele><time>2026-04-18T12:14:49.001Z</time></trkpt><trkpt lat="45.58038989297295" lon="11.024581180970154"><ele>599.0</ele><time>2026-04-18T12:15:13.001Z</time></trkpt><trkpt lat="45.58032360148145" lon="11.024655975547025"><ele>599.0</ele><time>2026-04-18T12:15:16.001Z</time></trkpt><trkpt lat="45.580256836684654" lon="11.024695251075247"><ele>599.0</ele><time>2026-04-18T12:15:17.001Z</time></trkpt><trkpt lat="45.58019757066576" lon="11.024730423052699"><ele>599.0</ele><time>2026-04-18T12:15:18.001Z</time></trkpt><trkpt lat="45.580090236228436" lon="11.024819964208545"><ele>599.0</ele><time>2026-04-18T12:15:20.001Z</time></trkpt><trkpt lat="45.580001145062965" lon="11.024874984863429"><ele>599.0</ele><time>2026-04-18T12:15:21.001Z</time></trkpt><trkpt lat="45.579945692074546" lon="11.024928458233065"><ele>599.0</ele><time>2026-04-18T12:15:22.001Z</time></trkpt><trkpt lat="45.57985685848794" lon="11.02491695307299"><ele>599.0</ele><time>2026-04-18T12:15:24.001Z</time></trkpt><trkpt lat="45.579789455125265" lon="11.02490749599486"><ele>599.0</ele><time>2026-04-18T12:15:25.001Z</time></trkpt><trkpt lat="45.57969659011221" lon="11.024892109974047"><ele>599.0</ele><time>2026-04-18T12:15:26.001Z</time></trkpt><trkpt lat="45.57961801498101" lon="11.024891344822874"><ele>599.0</ele><time>2026-04-18T12:15:27.001Z</time></trkpt><trkpt lat="45.57950012271624" lon="11.024846788913395"><ele>599.0</ele><time>2026-04-18T12:15:35.001Z</time></trkpt><trkpt lat="45.57940595512652" lon="11.024832950215504"><ele>599.0</ele><time>2026-04-18T12:15:36.001Z</time></trkpt><trkpt lat="45.57931101628274" lon="11.024798189816437"><ele>599.0</ele><time>2026-04-18T12:15:37.001Z</time></trkpt><trkpt lat="45.57923046728925" lon="11.024776349630873"><ele>597.4</ele><time>2026-04-18T12:15:38.001Z</time></trkpt><trkpt lat="45.57916132122309" lon="11.024745582185922"><ele>595.8</ele><time>2026-04-18T12:15:40.001Z</time></trkpt><trkpt lat="45.57902735841638" lon="11.024745591909292"><ele>594.2</ele><time>2026-04-18T12:15:44.001Z</time></trkpt><trkpt lat="45.57896470243378" lon="11.02472149649962"><ele>592.6</ele><time>2026-04-18T12:15:45.001Z</time></trkpt><trkpt lat="45.57886211052146" lon="11.024733852813846"><ele>591.0</ele><time>2026-04-18T12:15:47.001Z</time></trkpt><trkpt lat="45.57877292468046" lon="11.024732460655597"><ele>588.5</ele><time>2026-04-18T12:15:50.001Z</time></trkpt><trkpt lat="45.57868296572527" lon="11.024728331812168"><ele>586.0</ele><time>2026-04-18T12:15:52.001Z</time></trkpt><trkpt lat="45.5786000771111" lon="11.02471867092491"><ele>583.5</ele><time>2026-04-18T12:15:55.001Z</time></trkpt><trkpt lat="45.57852955374512" lon="11.024715755238178"><ele>581.0</ele><time>2026-04-18T12:15:58.001Z</time></trkpt><trkpt lat="45.57845398185488" lon="11.024693930569168"><ele>578.5</ele><time>2026-04-18T12:16:06.001Z</time></trkpt><trkpt lat="45.578389097201516" lon="11.024704650434892"><ele>576.0</ele><time>2026-04-18T12:16:11.001Z</time></trkpt><trkpt lat="45.5783220573423" lon="11.024713721398802"><ele>576.0000000000001</ele><time>2026-04-18T12:16:23Z</time></trkpt><trkpt lat="45.57824532882024" lon="11.02469511198846"><ele>576.0</ele><time>2026-04-18T12:16:41Z</time></trkpt><trkpt lat="45.57818216315902" lon="11.024682356755545"><ele>576.0</ele><time>2026-04-18T12:17:52Z</time></trkpt><trkpt lat="45.57815810360698" lon="11.024594589096914"><ele>576.0</ele><time>2026-04-18T12:17:59Z</time></trkpt><trkpt lat="45.57811261041181" lon="11.024531952254705"><ele>576.0</ele><time>2026-04-18T12:18:12Z</time></trkpt><trkpt lat="45.578064029178925" lon="11.024602037762202"><ele>576.0000000000001</ele><time>2026-04-18T12:18:24Z</time></trkpt><trkpt lat="45.577990567514135" lon="11.024615966296167"><ele>576.0</ele><time>2026-04-18T12:18:36Z</time></trkpt><trkpt lat="45.57792506300591" lon="11.024590412799343"><ele>576.0</ele><time>2026-04-18T12:18:39Z</time></trkpt><trkpt lat="45.57786464245522" lon="11.02456321947686"><ele>576.0</ele><time>2026-04-18T12:18:42Z</time></trkpt><trkpt lat="45.57780889894305" lon="11.024519472472166"><ele>576.0</ele><time>2026-04-18T12:18:50Z</time></trkpt><trkpt lat="45.577715367286686" lon="11.02450952744501"><ele>576.0</ele><time>2026-04-18T12:20:01Z</time></trkpt><trkpt lat="45.57766135554418" lon="11.024461657114397"><ele>576.0</ele><time>2026-04-18T12:21:38Z</time></trkpt><trkpt lat="45.57757424129923" lon="11.024436001099618"><ele>576.0</ele><time>2026-04-18T12:22:20.998Z</time></trkpt><trkpt lat="45.57749295487852" lon="11.02442186568306"><ele>573.5</ele><time>2026-04-18T12:22:25.998Z</time></trkpt><trkpt lat="45.57740821752831" lon="11.02442253928375"><ele>571.0</ele><time>2026-04-18T12:22:27.998Z</time></trkpt><trkpt lat="45.57731183578761" lon="11.024394528557753"><ele>568.5</ele><time>2026-04-18T12:22:30.998Z</time></trkpt><trkpt lat="45.57723594589342" lon="11.024412077699221"><ele>566.0</ele><time>2026-04-18T12:22:33.998Z</time></trkpt><trkpt lat="45.57717197008218" lon="11.024416028351983"><ele>563.5</ele><time>2026-04-18T12:22:35.998Z</time></trkpt><trkpt lat="45.57708728649624" lon="11.024437311239407"><ele>561.0</ele><time>2026-04-18T12:25:36Z</time></trkpt><trkpt lat="45.577025214559974" lon="11.02447225040249"><ele>559.8333333333334</ele><time>2026-04-18T12:26:04.001Z</time></trkpt><trkpt lat="45.57696449067419" lon="11.024512987146124"><ele>558.6666666666666</ele><time>2026-04-18T12:26:29.001Z</time></trkpt><trkpt lat="45.576898207048686" lon="11.024543327595133"><ele>557.5</ele><time>2026-04-18T12:26:39.001Z</time></trkpt><trkpt lat="45.576822333693094" lon="11.024541769429627"><ele>556.3333333333333</ele><time>2026-04-18T12:26:46.001Z</time></trkpt><trkpt lat="45.57672399829027" lon="11.024503646475042"><ele>555.1666666666666</ele><time>2026-04-18T12:26:50.001Z</time></trkpt><trkpt lat="45.57665858621578" lon="11.024497861527824"><ele>554.0</ele><time>2026-04-18T12:26:52.001Z</time></trkpt><trkpt lat="45.57657797046513" lon="11.024486015739367"><ele>554.0</ele><time>2026-04-18T12:26:55.001Z</time></trkpt><trkpt lat="45.57649850207438" lon="11.024483638612997"><ele>554.0</ele><time>2026-04-18T12:26:57.001Z</time></trkpt><trkpt lat="45.576415143093975" lon="11.02451482060024"><ele>554.0</ele><time>2026-04-18T12:27:04.001Z</time></trkpt><trkpt lat="45.576351988940644" lon="11.024533341084625"><ele>554.0</ele><time>2026-04-18T12:27:06.001Z</time></trkpt><trkpt lat="45.57628696740617" lon="11.024548394759156"><ele>554.0</ele><time>2026-04-18T12:27:14.001Z</time></trkpt><trkpt lat="45.57623123023064" lon="11.02459260863179"><ele>554.0</ele><time>2026-04-18T12:27:24.001Z</time></trkpt><trkpt lat="45.576191495067576" lon="11.024662451809565"><ele>554.0</ele><time>2026-04-18T12:27:34.001Z</time></trkpt><trkpt lat="45.576159969873764" lon="11.024753372790071"><ele>551.8571428571429</ele><time>2026-04-18T12:27:44.001Z</time></trkpt><trkpt lat="45.57610565179879" lon="11.024815531084224"><ele>549.7142857142857</ele><time>2026-04-18T12:27:51.001Z</time></trkpt><trkpt lat="45.57603989644821" lon="11.024851400265874"><ele>547.5714285714286</ele><time>2026-04-18T12:27:59.001Z</time></trkpt><trkpt lat="45.575963885651404" lon="11.02483439956077"><ele>545.4285714285714</ele><time>2026-04-18T12:28:08.001Z</time></trkpt><trkpt lat="45.57589641639453" lon="11.024801562950206"><ele>543.2857142857142</ele><time>2026-04-18T12:28:10.001Z</time></trkpt><trkpt lat="45.575807874634286" lon="11.024780163307497"><ele>541.1428571428571</ele><time>2026-04-18T12:28:14.001Z</time></trkpt><trkpt lat="45.57574508733077" lon="11.024799092326521"><ele>539.0</ele><time>2026-04-18T12:28:17.001Z</time></trkpt><trkpt lat="45.57566955403535" lon="11.024837684738008"><ele>539.0</ele><time>2026-04-18T12:29:23.001Z</time></trkpt><trkpt lat="45.575605361739676" lon="11.024833334326681"><ele>539.0</ele><time>2026-04-18T12:29:30.001Z</time></trkpt><trkpt lat="45.57553601431984" lon="11.024848088136109"><ele>539.0</ele><time>2026-04-18T12:29:36.001Z</time></trkpt><trkpt lat="45.575479331676924" lon="11.024914001547579"><ele>539.0</ele><time>2026-04-18T12:29:39.001Z</time></trkpt><trkpt lat="45.57541381391085" lon="11.024950341620947"><ele>539.0</ele><time>2026-04-18T12:29:43.001Z</time></trkpt><trkpt lat="45.575331040510285" lon="11.024930597185838"><ele>539.0</ele><time>2026-04-18T12:29:49.001Z</time></trkpt><trkpt lat="45.57525222163182" lon="11.024972076234942"><ele>539.0</ele><time>2026-04-18T12:31:21.001Z</time></trkpt><trkpt lat="45.575210724408805" lon="11.024903522849723"><ele>534.1666666666666</ele><time>2026-04-18T12:31:37Z</time></trkpt><trkpt lat="45.5751575588001" lon="11.024822669101667"><ele>529.3333333333333</ele><time>2026-04-18T12:32:05Z</time></trkpt><trkpt lat="45.57510987755786" lon="11.024761216983773"><ele>524.5</ele><time>2026-04-18T12:32:09Z</time></trkpt><trkpt lat="45.57505329697821" lon="11.024678140212835"><ele>519.6666666666666</ele><time>2026-04-18T12:32:14Z</time></trkpt><trkpt lat="45.574984028844256" lon="11.024617953213092"><ele>514.8333333333334</ele><time>2026-04-18T12:32:21Z</time></trkpt><trkpt lat="45.57499793383427" lon="11.024518807847858"><ele>510.0</ele><time>2026-04-18T12:32:28Z</time></trkpt><trkpt lat="45.57497533081952" lon="11.02439690186565"><ele>510.0</ele><time>2026-04-18T12:32:33Z</time></trkpt><trkpt lat="45.574952363178625" lon="11.024299635464985"><ele>510.00000000000006</ele><time>2026-04-18T12:32:35Z</time></trkpt><trkpt lat="45.57492803029566" lon="11.024201913440764"><ele>510.0</ele><time>2026-04-18T12:32:39Z</time></trkpt><trkpt lat="45.57485247760579" lon="11.024197192506323"><ele>510.0</ele><time>2026-04-18T12:32:43Z</time></trkpt><trkpt lat="45.5747742662322" lon="11.02413621326236"><ele>510.00000000000006</ele><time>2026-04-18T12:32:47Z</time></trkpt><trkpt lat="45.57472090699852" lon="11.024073583432934"><ele>510.0</ele><time>2026-04-18T12:32:51.001Z</time></trkpt><trkpt lat="45.57467270707109" lon="11.024000945406039"><ele>510.0</ele><time>2026-04-18T12:32:53.001Z</time></trkpt><trkpt lat="45.57459516968573" lon="11.023962718036918"><ele>511.3333333333333</ele><time>2026-04-18T12:32:55.001Z</time></trkpt><trkpt lat="45.57457307279443" lon="11.023863124218803"><ele>512.6666666666666</ele><time>2026-04-18T12:32:59.001Z</time></trkpt><trkpt lat="45.57453783132084" lon="11.023753508999166"><ele>514.0</ele><time>2026-04-18T12:33:01.001Z</time></trkpt><trkpt lat="45.5744697072514" lon="11.023714971916338"><ele>515.3333333333333</ele><time>2026-04-18T12:33:03.001Z</time></trkpt><trkpt lat="45.574421745990605" lon="11.023784447952451"><ele>516.6666666666666</ele><time>2026-04-18T12:34:16Z</time></trkpt><trkpt lat="45.57441803826714" lon="11.023910360828596"><ele>518.0</ele><time>2026-04-18T12:34:19Z</time></trkpt><trkpt lat="45.57442861133036" lon="11.024010425554733"><ele>518.0</ele><time>2026-04-18T12:34:21Z</time></trkpt><trkpt lat="45.574421482364684" lon="11.024139899330562"><ele>518.0</ele><time>2026-04-18T12:34:54Z</time></trkpt><trkpt lat="45.57440216784699" lon="11.024239368692909"><ele>518.0</ele><time>2026-04-18T12:34:56Z</time></trkpt><trkpt lat="45.574391791508795" lon="11.024380276334222"><ele>518.0</ele><time>2026-04-18T12:34:58Z</time></trkpt><trkpt lat="45.57439117082772" lon="11.024530402304626"><ele>518.0</ele><time>2026-04-18T12:35:00Z</time></trkpt><trkpt lat="45.57437584574724" lon="11.024628351287333"><ele>518.0</ele><time>2026-04-18T12:35:02Z</time></trkpt><trkpt lat="45.57432561835585" lon="11.024806940015845"><ele>520.5</ele><time>2026-04-18T12:35:04Z</time></trkpt><trkpt lat="45.57429565420484" lon="11.024919235423498"><ele>523.0</ele><time>2026-04-18T12:35:06Z</time></trkpt><trkpt lat="45.57424724540021" lon="11.025034094049612"><ele>525.5</ele><time>2026-04-18T12:35:08Z</time></trkpt><trkpt lat="45.5742232623919" lon="11.025148459396718"><ele>528.0</ele><time>2026-04-18T12:35:12Z</time></trkpt><trkpt lat="45.57418243201322" lon="11.025217410950479"><ele>530.5</ele><time>2026-04-18T12:35:17Z</time></trkpt><trkpt lat="45.57415328062937" lon="11.025307768721705"><ele>533.0</ele><time>2026-04-18T12:35:20Z</time></trkpt><trkpt lat="45.574144685949676" lon="11.025416104676196"><ele>534.4</ele><time>2026-04-18T12:35:24Z</time></trkpt><trkpt lat="45.57407163184432" lon="11.025492386967198"><ele>535.8</ele><time>2026-04-18T12:35:26Z</time></trkpt><trkpt lat="45.57402146624532" lon="11.0255671141558"><ele>537.2</ele><time>2026-04-18T12:40:51Z</time></trkpt><trkpt lat="45.57395060792703" lon="11.025718535294464"><ele>538.6</ele><time>2026-04-18T12:41:07Z</time></trkpt><trkpt lat="45.57392871479127" lon="11.025836975907655"><ele>540.0</ele><time>2026-04-18T12:41:09Z</time></trkpt><trkpt lat="45.57394245914906" lon="11.026023834508921"><ele>540.1666666666666</ele><time>2026-04-18T12:41:12Z</time></trkpt><trkpt lat="45.57388457116984" lon="11.026122191435796"><ele>540.3333333333334</ele><time>2026-04-18T12:41:14Z</time></trkpt><trkpt lat="45.5738544012093" lon="11.026232204688888"><ele>540.5</ele><time>2026-04-18T12:41:16Z</time></trkpt><trkpt lat="45.57383540571287" lon="11.026356892508852"><ele>540.6666666666667</ele><time>2026-04-18T12:41:17Z</time></trkpt><trkpt lat="45.573796296580845" lon="11.026494926980968"><ele>540.8333333333334</ele><time>2026-04-18T12:41:19Z</time></trkpt><trkpt lat="45.57375296368119" lon="11.026562243526373"><ele>541.0</ele><time>2026-04-18T12:41:20Z</time></trkpt><trkpt lat="45.57370416920023" lon="11.026732631889313"><ele>545.4</ele><time>2026-04-18T12:41:22Z</time></trkpt><trkpt lat="45.57368195218456" lon="11.026888087832944"><ele>549.8</ele><time>2026-04-18T12:41:23Z</time></trkpt><trkpt lat="45.57368499898576" lon="11.02704877871345"><ele>554.1999999999999</ele><time>2026-04-18T12:41:24Z</time></trkpt><trkpt lat="45.57366342789054" lon="11.027204094158266"><ele>558.6</ele><time>2026-04-18T12:41:25Z</time></trkpt><trkpt lat="45.57365451617451" lon="11.02733716140777"><ele>563.0</ele><time>2026-04-18T12:41:26Z</time></trkpt><trkpt lat="45.573661347742195" lon="11.027514707371083"><ele>563.0</ele><time>2026-04-18T12:41:27Z</time></trkpt><trkpt lat="45.573664897178645" lon="11.027686380280116"><ele>563.0</ele><time>2026-04-18T12:41:28Z</time></trkpt><trkpt lat="45.57367127684392" lon="11.02783909548165"><ele>563.0</ele><time>2026-04-18T12:41:29Z</time></trkpt><trkpt lat="45.57366443301664" lon="11.027969204832043"><ele>563.0</ele><time>2026-04-18T12:41:30Z</time></trkpt><trkpt lat="45.57364502796531" lon="11.028094123840127"><ele>563.0</ele><time>2026-04-18T12:41:31Z</time></trkpt><trkpt lat="45.57363354686354" lon="11.028218739610576"><ele>563.0</ele><time>2026-04-18T12:41:32Z</time></trkpt><trkpt lat="45.573600338580164" lon="11.028301159290558"><ele>563.0</ele><time>2026-04-18T12:41:33Z</time></trkpt><trkpt lat="45.57353221561004" lon="11.028375977728254"><ele>563.0</ele><time>2026-04-18T12:41:34Z</time></trkpt><trkpt lat="45.573470279107646" lon="11.028440350032199"><ele>563.0</ele><time>2026-04-18T12:41:35Z</time></trkpt><trkpt lat="45.57346001186967" lon="11.02857842059153"><ele>563.0</ele><time>2026-04-18T12:41:37Z</time></trkpt><trkpt lat="45.57345668229606" lon="11.028753612511704"><ele>563.0</ele><time>2026-04-18T12:41:39Z</time></trkpt><trkpt lat="45.57344211924948" lon="11.028886290854249"><ele>564.0</ele><time>2026-04-18T12:41:40Z</time></trkpt><trkpt lat="45.57351480954603" lon="11.029064506751943"><ele>565.0</ele><time>2026-04-18T12:41:41Z</time></trkpt><trkpt lat="45.57340916839783" lon="11.029137475376777"><ele>566.0</ele><time>2026-04-18T12:41:42Z</time></trkpt><trkpt lat="45.573349552184816" lon="11.029196534300674"><ele>567.0</ele><time>2026-04-18T12:41:43Z</time></trkpt><trkpt lat="45.57329149437962" lon="11.029261622526997"><ele>568.0</ele><time>2026-04-18T12:41:44Z</time></trkpt><trkpt lat="45.57321275400975" lon="11.029369735087863"><ele>569.0</ele><time>2026-04-18T12:41:45Z</time></trkpt><trkpt lat="45.57311773959274" lon="11.02952348104886"><ele>570.0</ele><time>2026-04-18T12:41:46Z</time></trkpt><trkpt lat="45.57304252829535" lon="11.029655442868677"><ele>571.0</ele><time>2026-04-18T12:41:47Z</time></trkpt><trkpt lat="45.5729910929039" lon="11.029804160682124"><ele>572.0</ele><time>2026-04-18T12:41:48Z</time></trkpt><trkpt lat="45.572908762757685" lon="11.029922896907799"><ele>575.25</ele><time>2026-04-18T12:41:49Z</time></trkpt><trkpt lat="45.57284554767631" lon="11.03004890053765"><ele>578.5</ele><time>2026-04-18T12:41:50Z</time></trkpt><trkpt lat="45.57279679695196" lon="11.030216311426845"><ele>581.75</ele><time>2026-04-18T12:41:51Z</time></trkpt><trkpt lat="45.5727348266155" lon="11.030381562517745"><ele>585.0</ele><time>2026-04-18T12:41:52Z</time></trkpt><trkpt lat="45.57266012180723" lon="11.030509691726616"><ele>585.0</ele><time>2026-04-18T12:41:53Z</time></trkpt><trkpt lat="45.572592694106845" lon="11.030595352243683"><ele>585.0</ele><time>2026-04-18T12:41:54Z</time></trkpt><trkpt lat="45.57251545102646" lon="11.030699570338516"><ele>585.0</ele><time>2026-04-18T12:41:55Z</time></trkpt><trkpt lat="45.57245453502652" lon="11.030828367873337"><ele>585.0</ele><time>2026-04-18T12:41:56Z</time></trkpt><trkpt lat="45.5723767581636" lon="11.030973981955903"><ele>585.0</ele><time>2026-04-18T12:41:57Z</time></trkpt><trkpt lat="45.57229969726693" lon="11.031144652057378"><ele>584.8</ele><time>2026-04-18T12:41:58Z</time></trkpt><trkpt lat="45.57223521177148" lon="11.031299441191814"><ele>584.6</ele><time>2026-04-18T12:41:59Z</time></trkpt><trkpt lat="45.57218628429738" lon="11.031431729431926"><ele>584.4</ele><time>2026-04-18T12:42:00Z</time></trkpt><trkpt lat="45.57212422830062" lon="11.03153485385239"><ele>584.2</ele><time>2026-04-18T12:42:01Z</time></trkpt><trkpt lat="45.57204516179139" lon="11.031563088331021"><ele>584.0</ele><time>2026-04-18T12:42:02Z</time></trkpt><trkpt lat="45.57197773374661" lon="11.031577760769098"><ele>587.2</ele><time>2026-04-18T12:42:03Z</time></trkpt><trkpt lat="45.5718856735549" lon="11.031601868369478"><ele>590.4</ele><time>2026-04-18T12:42:05Z</time></trkpt><trkpt lat="45.57190038528396" lon="11.031783826752298"><ele>593.6</ele><time>2026-04-18T12:42:06Z</time></trkpt><trkpt lat="45.57186877736544" lon="11.031879306641429"><ele>596.8</ele><time>2026-04-18T12:42:07Z</time></trkpt><trkpt lat="45.57183530390371" lon="11.032012352938326"><ele>600.0</ele><time>2026-04-18T12:42:08Z</time></trkpt><trkpt lat="45.571765578763554" lon="11.032134129221928"><ele>600.0</ele><time>2026-04-18T12:42:09Z</time></trkpt><trkpt lat="45.571681278877875" lon="11.032227426377442"><ele>600.0</ele><time>2026-04-18T12:42:10Z</time></trkpt><trkpt lat="45.571611511594114" lon="11.032264160995124"><ele>600.0</ele><time>2026-04-18T12:42:11Z</time></trkpt><trkpt lat="45.571532000821676" lon="11.032329928316125"><ele>600.0</ele><time>2026-04-18T12:42:16Z</time></trkpt><trkpt lat="45.571487786577805" lon="11.032434362048097"><ele>600.0</ele><time>2026-04-18T12:42:18Z</time></trkpt><trkpt lat="45.57143031266126" lon="11.03247290311275"><ele>600.0</ele><time>2026-04-18T12:42:20Z</time></trkpt><trkpt lat="45.57135362282841" lon="11.032448674514093"><ele>601.3333333333334</ele><time>2026-04-18T12:42:21Z</time></trkpt><trkpt lat="45.571427668412184" lon="11.03284523252297"><ele>602.6666666666667</ele><time>2026-04-18T12:42:22Z</time></trkpt><trkpt lat="45.571479713970106" lon="11.032950913992755"><ele>604.0</ele><time>2026-04-18T12:42:23Z</time></trkpt><trkpt lat="45.571483911209974" lon="11.033056898908901"><ele>604.0</ele><time>2026-04-18T12:42:24Z</time></trkpt><trkpt lat="45.57150709080956" lon="11.03314570877994"><ele>604.0</ele><time>2026-04-18T12:42:25Z</time></trkpt><trkpt lat="45.571504439140426" lon="11.033285977279457"><ele>604.0</ele><time>2026-04-18T12:42:26Z</time></trkpt><trkpt lat="45.57147428866619" lon="11.033416017045129"><ele>604.0</ele><time>2026-04-18T12:42:27Z</time></trkpt><trkpt lat="45.57145190093727" lon="11.033504904880083"><ele>604.0</ele><time>2026-04-18T12:42:28Z</time></trkpt><trkpt lat="45.57136265227919" lon="11.033584136707532"><ele>604.0</ele><time>2026-04-18T12:42:30Z</time></trkpt><trkpt lat="45.57134590736728" lon="11.033750620191517"><ele>605.4</ele><time>2026-04-18T12:42:32Z</time></trkpt><trkpt lat="45.571334656978806" lon="11.033868614374859"><ele>606.8</ele><time>2026-04-18T12:42:33Z</time></trkpt><trkpt lat="45.57129409169734" lon="11.033980872208263"><ele>608.2</ele><time>2026-04-18T12:42:34Z</time></trkpt><trkpt lat="45.571268032604706" lon="11.03414538502652"><ele>609.6</ele><time>2026-04-18T12:42:36Z</time></trkpt><trkpt lat="45.57129774146238" lon="11.03424837852728"><ele>611.0</ele><time>2026-04-18T12:42:37Z</time></trkpt><trkpt lat="45.571336535797926" lon="11.034374472288969"><ele>613.4</ele><time>2026-04-18T12:42:38Z</time></trkpt><trkpt lat="45.571369012577286" lon="11.03452940934525"><ele>615.8</ele><time>2026-04-18T12:42:39Z</time></trkpt><trkpt lat="45.5714005165586" lon="11.034669670509189"><ele>618.1999999999999</ele><time>2026-04-18T12:42:40Z</time></trkpt><trkpt lat="45.57144144693144" lon="11.03476506166383"><ele>620.6</ele><time>2026-04-18T12:42:41Z</time></trkpt><trkpt lat="45.571456071053504" lon="11.034890540527252"><ele>623.0</ele><time>2026-04-18T12:42:43Z</time></trkpt><trkpt lat="45.57148641775556" lon="11.035004261261443"><ele>625.5</ele><time>2026-04-18T12:42:45Z</time></trkpt><trkpt lat="45.57149021643461" lon="11.035102127109717"><ele>628.0</ele><time>2026-04-18T12:42:46Z</time></trkpt><trkpt lat="45.57149297313611" lon="11.035198736146713"><ele>630.5</ele><time>2026-04-18T12:42:47Z</time></trkpt><trkpt lat="45.57149600589752" lon="11.035354164886344"><ele>633.0</ele><time>2026-04-18T12:42:49Z</time></trkpt><trkpt lat="45.57118981993347" lon="11.035419767845594"><ele>633.3333333333334</ele><time>2026-04-18T12:42:51Z</time></trkpt><trkpt lat="45.57110590340232" lon="11.0354185640153"><ele>633.6666666666666</ele><time>2026-04-18T12:42:52Z</time></trkpt><trkpt lat="45.571039559482315" lon="11.03541756569077"><ele>634.0</ele><time>2026-04-18T12:42:53Z</time></trkpt><trkpt lat="45.57094245173189" lon="11.03546030947428"><ele>634.3333333333333</ele><time>2026-04-18T12:42:55Z</time></trkpt><trkpt lat="45.57086016049335" lon="11.035470477017258"><ele>634.6666666666666</ele><time>2026-04-18T12:42:57Z</time></trkpt><trkpt lat="45.570800479723815" lon="11.035518012046658"><ele>635.0</ele><time>2026-04-18T12:44:09.999Z</time></trkpt><trkpt lat="45.570718466547305" lon="11.035585999042825"><ele>635.0</ele><time>2026-04-18T12:44:16.999Z</time></trkpt><trkpt lat="45.57062946198946" lon="11.035583909910587"><ele>635.0</ele><time>2026-04-18T12:44:18.999Z</time></trkpt><trkpt lat="45.57053869027179" lon="11.035635291354165"><ele>635.0</ele><time>2026-04-18T12:48:18.001Z</time></trkpt><trkpt lat="45.57046031960187" lon="11.035687703675068"><ele>635.0</ele><time>2026-04-18T12:48:20.001Z</time></trkpt><trkpt lat="45.570345969332685" lon="11.035760721971549"><ele>635.0</ele><time>2026-04-18T12:48:22.001Z</time></trkpt><trkpt lat="45.57025219388239" lon="11.035826811113076"><ele>638.8</ele><time>2026-04-18T12:48:24.001Z</time></trkpt><trkpt lat="45.570186282455644" lon="11.035883110367433"><ele>642.6</ele><time>2026-04-18T12:48:25.001Z</time></trkpt><trkpt lat="45.57010446609495" lon="11.035959062925906"><ele>646.4000000000001</ele><time>2026-04-18T12:48:26.001Z</time></trkpt><trkpt lat="45.57002573840335" lon="11.036039283750451"><ele>650.2</ele><time>2026-04-18T12:48:27.001Z</time></trkpt><trkpt lat="45.56993070234565" lon="11.03613367718072"><ele>654.0</ele><time>2026-04-18T12:48:28.001Z</time></trkpt><trkpt lat="45.56984884357393" lon="11.036233639623358"><ele>654.0</ele><time>2026-04-18T12:48:29.001Z</time></trkpt><trkpt lat="45.569784512322556" lon="11.036331039982395"><ele>654.0</ele><time>2026-04-18T12:48:30.001Z</time></trkpt><trkpt lat="45.56971811744799" lon="11.03643104393118"><ele>654.0</ele><time>2026-04-18T12:48:31.001Z</time></trkpt><trkpt lat="45.56965327279361" lon="11.036509795861257"><ele>654.0</ele><time>2026-04-18T12:48:32.001Z</time></trkpt><trkpt lat="45.56956333054141" lon="11.036569980244552"><ele>654.0</ele><time>2026-04-18T12:48:34.001Z</time></trkpt><trkpt lat="45.56948031379994" lon="11.036556207330426"><ele>656.6</ele><time>2026-04-18T12:48:37.001Z</time></trkpt><trkpt lat="45.5694898394788" lon="11.036651789635686"><ele>659.2</ele><time>2026-04-18T12:48:49.001Z</time></trkpt><trkpt lat="45.56949881381782" lon="11.036771068907553"><ele>661.8000000000001</ele><time>2026-04-18T12:48:51.001Z</time></trkpt><trkpt lat="45.56949532578023" lon="11.036910199434011"><ele>664.4000000000001</ele><time>2026-04-18T12:48:53.001Z</time></trkpt><trkpt lat="45.56953413824592" lon="11.037076555017086"><ele>667.0</ele><time>2026-04-18T12:48:55.001Z</time></trkpt><trkpt lat="45.56956014498389" lon="11.037260095707206"><ele>667.0</ele><time>2026-04-18T12:48:57.001Z</time></trkpt><trkpt lat="45.5695733404086" lon="11.037372473065528"><ele>667.0</ele><time>2026-04-18T12:48:58.001Z</time></trkpt><trkpt lat="45.56958784731255" lon="11.03749303565448"><ele>667.0</ele><time>2026-04-18T12:48:59.001Z</time></trkpt><trkpt lat="45.5696077373087" lon="11.037607163097395"><ele>667.0</ele><time>2026-04-18T12:49:00.001Z</time></trkpt><trkpt lat="45.56963205632418" lon="11.037726641814869"><ele>667.0</ele><time>2026-04-18T12:49:01.001Z</time></trkpt><trkpt lat="45.56965591368738" lon="11.037853450311735"><ele>667.0</ele><time>2026-04-18T12:49:02.001Z</time></trkpt><trkpt lat="45.5696853235957" lon="11.037996123922499"><ele>669.2</ele><time>2026-04-18T12:49:03.001Z</time></trkpt><trkpt lat="45.569714428602914" lon="11.038142674135724"><ele>671.4000000000001</ele><time>2026-04-18T12:49:04.001Z</time></trkpt><trkpt lat="45.569751138355656" lon="11.038258889364167"><ele>673.5999999999999</ele><time>2026-04-18T12:49:05.001Z</time></trkpt><trkpt lat="45.569805136944154" lon="11.038363227709398"><ele>675.8</ele><time>2026-04-18T12:49:06.001Z</time></trkpt><trkpt lat="45.569879584099965" lon="11.038457865334962"><ele>678.0</ele><time>2026-04-18T12:49:07.001Z</time></trkpt><trkpt lat="45.56993994750054" lon="11.038544964780936"><ele>679.3333333333334</ele><time>2026-04-18T12:49:08.001Z</time></trkpt><trkpt lat="45.56998472542351" lon="11.038625782814563"><ele>680.6666666666666</ele><time>2026-04-18T12:49:09.001Z</time></trkpt><trkpt lat="45.57002906191257" lon="11.038727130519401"><ele>682.0</ele><time>2026-04-18T12:49:10.001Z</time></trkpt><trkpt lat="45.57006373171362" lon="11.03886038158362"><ele>683.3333333333333</ele><time>2026-04-18T12:49:11.001Z</time></trkpt><trkpt lat="45.57009298987774" lon="11.038999455169606"><ele>684.6666666666666</ele><time>2026-04-18T12:49:12.001Z</time></trkpt><trkpt lat="45.57012011072367" lon="11.039119447399974"><ele>686.0</ele><time>2026-04-18T12:49:13.001Z</time></trkpt><trkpt lat="45.57016299928953" lon="11.039246656094923"><ele>686.5</ele><time>2026-04-18T12:49:14.001Z</time></trkpt><trkpt lat="45.57020802129785" lon="11.039375104077028"><ele>687.0</ele><time>2026-04-18T12:49:15.001Z</time></trkpt><trkpt lat="45.57024248413619" lon="11.039490949167249"><ele>687.5</ele><time>2026-04-18T12:49:16.001Z</time></trkpt><trkpt lat="45.57027545232192" lon="11.039576799988037"><ele>688.0</ele><time>2026-04-18T12:49:17.001Z</time></trkpt><trkpt lat="45.57034365741722" lon="11.039625451955246"><ele>688.5</ele><time>2026-04-18T12:49:18.001Z</time></trkpt><trkpt lat="45.570433393524475" lon="11.039634812293409"><ele>689.0</ele><time>2026-04-18T12:49:19.001Z</time></trkpt><trkpt lat="45.57054030240227" lon="11.039611789721356"><ele>689.0</ele><time>2026-04-18T12:49:20.001Z</time></trkpt><trkpt lat="45.570643396339" lon="11.039592906390823"><ele>689.0</ele><time>2026-04-18T12:49:21.001Z</time></trkpt><trkpt lat="45.57074483242352" lon="11.039625864728118"><ele>689.0</ele><time>2026-04-18T12:49:22.001Z</time></trkpt><trkpt lat="45.570858696172685" lon="11.03969904643904"><ele>689.0</ele><time>2026-04-18T12:49:23.001Z</time></trkpt><trkpt lat="45.57096864475566" lon="11.039787851924086"><ele>689.0</ele><time>2026-04-18T12:49:24.001Z</time></trkpt><trkpt lat="45.5710759592436" lon="11.039906556830687"><ele>689.0</ele><time>2026-04-18T12:49:25.001Z</time></trkpt><trkpt lat="45.571135788140175" lon="11.040027917694294"><ele>689.0</ele><time>2026-04-18T12:49:26.001Z</time></trkpt><trkpt lat="45.57119644626551" lon="11.04015563237376"><ele>689.0</ele><time>2026-04-18T12:49:27.001Z</time></trkpt><trkpt lat="45.571251229080104" lon="11.040262132907674"><ele>689.0</ele><time>2026-04-18T12:49:28.001Z</time></trkpt><trkpt lat="45.57128514085313" lon="11.040347455075803"><ele>690.6</ele><time>2026-04-18T12:49:29.001Z</time></trkpt><trkpt lat="45.571327211383995" lon="11.040470908122215"><ele>692.2</ele><time>2026-04-18T12:49:33.001Z</time></trkpt><trkpt lat="45.57138842916243" lon="11.04051378701294"><ele>693.8000000000001</ele><time>2026-04-18T12:49:34.001Z</time></trkpt><trkpt lat="45.57145245146819" lon="11.040536177950953"><ele>695.4000000000001</ele><time>2026-04-18T12:49:35.001Z</time></trkpt><trkpt lat="45.57155326793642" lon="11.040585225443003"><ele>697.0</ele><time>2026-04-18T12:49:37.001Z</time></trkpt><trkpt lat="45.57166545494185" lon="11.04062234245895"><ele>697.0</ele><time>2026-04-18T12:49:39.001Z</time></trkpt><trkpt lat="45.57176388321503" lon="11.040604566161335"><ele>697.0</ele><time>2026-04-18T12:49:40.001Z</time></trkpt><trkpt lat="45.5718969500011" lon="11.040584883058711"><ele>697.0</ele><time>2026-04-18T12:49:41.001Z</time></trkpt><trkpt lat="45.57203007089702" lon="11.040592209063256"><ele>697.0</ele><time>2026-04-18T12:49:42.001Z</time></trkpt><trkpt lat="45.57213853152873" lon="11.04061969188878"><ele>697.3333333333334</ele><time>2026-04-18T12:49:43.001Z</time></trkpt><trkpt lat="45.57220985767087" lon="11.040648643883339"><ele>697.6666666666667</ele><time>2026-04-18T12:49:44.001Z</time></trkpt><trkpt lat="45.572285259372556" lon="11.040707238819792"><ele>698.0</ele><time>2026-04-18T12:57:04Z</time></trkpt><trkpt lat="45.57232367043868" lon="11.040602902766055"><ele>698.3333333333334</ele><time>2026-04-18T12:57:07Z</time></trkpt><trkpt lat="45.572415661718416" lon="11.040670086452954"><ele>698.6666666666666</ele><time>2026-04-18T12:57:10Z</time></trkpt><trkpt lat="45.57244620420846" lon="11.040760577498954"><ele>699.0</ele><time>2026-04-18T12:57:11Z</time></trkpt><trkpt lat="45.57243031691374" lon="11.040902942618954"><ele>699.4000000000001</ele><time>2026-04-18T12:57:13Z</time></trkpt><trkpt lat="45.572352291242424" lon="11.040962814717092"><ele>699.8</ele><time>2026-04-18T12:57:14Z</time></trkpt><trkpt lat="45.57225832000765" lon="11.041011878433055"><ele>700.2</ele><time>2026-04-18T12:57:15Z</time></trkpt><trkpt lat="45.572181251027764" lon="11.041099629588318"><ele>700.5999999999999</ele><time>2026-04-18T12:57:16Z</time></trkpt><trkpt lat="45.57213642127195" lon="11.041216835515593"><ele>701.0</ele><time>2026-04-18T12:57:17Z</time></trkpt><trkpt lat="45.57211180368965" lon="11.041344948823344"><ele>701.0</ele><time>2026-04-18T12:57:18Z</time></trkpt><trkpt lat="45.57211234190234" lon="11.041469750903584"><ele>701.0</ele><time>2026-04-18T12:57:19Z</time></trkpt><trkpt lat="45.57213573721492" lon="11.041603559321574"><ele>701.0</ele><time>2026-04-18T12:57:20Z</time></trkpt><trkpt lat="45.57218371019483" lon="11.04173969206017"><ele>701.0</ele><time>2026-04-18T12:57:21Z</time></trkpt><trkpt lat="45.57224391629942" lon="11.041896930903299"><ele>701.0</ele><time>2026-04-18T12:57:22Z</time></trkpt><trkpt lat="45.57229542790071" lon="11.042047755702475"><ele>700.0</ele><time>2026-04-18T12:57:23Z</time></trkpt><trkpt lat="45.57233361721597" lon="11.04219927392523"><ele>699.0</ele><time>2026-04-18T12:57:24Z</time></trkpt><trkpt lat="45.57237803283516" lon="11.04234154940773"><ele>698.0</ele><time>2026-04-18T12:57:25Z</time></trkpt><trkpt lat="45.57240919784883" lon="11.042482399654876"><ele>697.0</ele><time>2026-04-18T12:57:26Z</time></trkpt><trkpt lat="45.57243131475973" lon="11.042637663099619"><ele>696.0</ele><time>2026-04-18T12:57:27Z</time></trkpt><trkpt lat="45.57244314455674" lon="11.042812091047184"><ele>694.75</ele><time>2026-04-18T12:57:28Z</time></trkpt><trkpt lat="45.57244264908615" lon="11.043005294051579"><ele>693.5</ele><time>2026-04-18T12:57:29Z</time></trkpt><trkpt lat="45.572428730216174" lon="11.04318724638452"><ele>692.25</ele><time>2026-04-18T12:57:30Z</time></trkpt><trkpt lat="45.57239004819757" lon="11.043363320799365"><ele>691.0</ele><time>2026-04-18T12:57:31Z</time></trkpt><trkpt lat="45.5723549978295" lon="11.043541649297802"><ele>689.25</ele><time>2026-04-18T12:57:32Z</time></trkpt><trkpt lat="45.57232304157304" lon="11.043720817658114"><ele>687.5</ele><time>2026-04-18T12:57:33Z</time></trkpt><trkpt lat="45.57229830298346" lon="11.04390739308714"><ele>685.75</ele><time>2026-04-18T12:57:34Z</time></trkpt><trkpt lat="45.572287863720625" lon="11.044093283661335"><ele>684.0</ele><time>2026-04-18T12:57:35Z</time></trkpt><trkpt lat="45.5722737884593" lon="11.044276957931928"><ele>681.75</ele><time>2026-04-18T12:57:36Z</time></trkpt><trkpt lat="45.572266233721955" lon="11.044466784483525"><ele>679.5</ele><time>2026-04-18T12:57:37Z</time></trkpt><trkpt lat="45.5722588531479" lon="11.044654640941735"><ele>677.25</ele><time>2026-04-18T12:57:38Z</time></trkpt><trkpt lat="45.572244622970786" lon="11.044843140500062"><ele>675.0</ele><time>2026-04-18T12:57:39Z</time></trkpt><trkpt lat="45.57221407850162" lon="11.045030916046269"><ele>674.0</ele><time>2026-04-18T12:57:40Z</time></trkpt><trkpt lat="45.5721629819525" lon="11.045201121218456"><ele>673.0</ele><time>2026-04-18T12:57:41Z</time></trkpt><trkpt lat="45.57210493442241" lon="11.04537337487476"><ele>672.0</ele><time>2026-04-18T12:57:42Z</time></trkpt><trkpt lat="45.5720498677" lon="11.04554671670625"><ele>671.0</ele><time>2026-04-18T12:57:43Z</time></trkpt><trkpt lat="45.57199849392653" lon="11.04572741074289"><ele>669.5</ele><time>2026-04-18T12:57:44Z</time></trkpt><trkpt lat="45.571955681436485" lon="11.04589997288998"><ele>668.0</ele><time>2026-04-18T12:57:45Z</time></trkpt><trkpt lat="45.57190810173514" lon="11.046068897018726"><ele>666.5</ele><time>2026-04-18T12:57:46Z</time></trkpt><trkpt lat="45.57185366169283" lon="11.046240887920801"><ele>665.0</ele><time>2026-04-18T12:57:47Z</time></trkpt><trkpt lat="45.57180074119352" lon="11.046404916053525"><ele>665.0</ele><time>2026-04-18T12:57:48Z</time></trkpt><trkpt lat="45.571728928133744" lon="11.046562999186223"><ele>665.0</ele><time>2026-04-18T12:57:49Z</time></trkpt><trkpt lat="45.571647961701004" lon="11.046692943337257"><ele>665.0</ele><time>2026-04-18T12:57:50Z</time></trkpt><trkpt lat="45.57155950271948" lon="11.046814191973214"><ele>665.0</ele><time>2026-04-18T12:57:51Z</time></trkpt><trkpt lat="45.571459431811725" lon="11.046944763423452"><ele>663.75</ele><time>2026-04-18T12:57:52Z</time></trkpt><trkpt lat="45.5713607547581" lon="11.047059698038268"><ele>662.5</ele><time>2026-04-18T12:57:53Z</time></trkpt><trkpt lat="45.571253544933754" lon="11.047167676817141"><ele>661.25</ele><time>2026-04-18T12:57:54Z</time></trkpt><trkpt lat="45.57115363647271" lon="11.04725840802142"><ele>660.0</ele><time>2026-04-18T12:57:55Z</time></trkpt><trkpt lat="45.57107730962362" lon="11.047319751871017"><ele>660.0</ele><time>2026-04-18T12:57:56Z</time></trkpt><trkpt lat="45.57095739162734" lon="11.04735865099483"><ele>660.0</ele><time>2026-04-18T12:57:58Z</time></trkpt><trkpt lat="45.570882410210295" lon="11.047344523593827"><ele>660.0</ele><time>2026-04-18T12:57:59Z</time></trkpt><trkpt lat="45.57079668384836" lon="11.047319431468036"><ele>660.0</ele><time>2026-04-18T12:58:00Z</time></trkpt><trkpt lat="45.57071391803699" lon="11.047294577344555"><ele>660.0</ele><time>2026-04-18T12:58:01Z</time></trkpt><trkpt lat="45.57064267241708" lon="11.047248110843602"><ele>660.0</ele><time>2026-04-18T12:58:02Z</time></trkpt><trkpt lat="45.57054579243252" lon="11.047156496900786"><ele>660.0</ele><time>2026-04-18T12:58:04Z</time></trkpt><trkpt lat="45.5704506635814" lon="11.047068831780331"><ele>660.0</ele><time>2026-04-18T12:58:06Z</time></trkpt><trkpt lat="45.57033468063211" lon="11.047017033041135"><ele>660.0</ele><time>2026-04-18T12:58:08Z</time></trkpt><trkpt lat="45.57024319461034" lon="11.047004658131847"><ele>660.0</ele><time>2026-04-18T12:58:09Z</time></trkpt><trkpt lat="45.570153318124746" lon="11.046983966197221"><ele>660.0</ele><time>2026-04-18T12:58:10Z</time></trkpt><trkpt lat="45.57007442410649" lon="11.046973551868815"><ele>658.8571428571429</ele><time>2026-04-18T12:58:11Z</time></trkpt><trkpt lat="45.56999410751926" lon="11.046955439431908"><ele>657.7142857142858</ele><time>2026-04-18T12:58:12Z</time></trkpt><trkpt lat="45.56991597380379" lon="11.04695438023398"><ele>656.5714285714287</ele><time>2026-04-18T12:58:13Z</time></trkpt><trkpt lat="45.56985852311851" lon="11.0470116814165"><ele>655.4285714285714</ele><time>2026-04-18T12:58:14Z</time></trkpt><trkpt lat="45.56980468122819" lon="11.047077046968687"><ele>654.2857142857142</ele><time>2026-04-18T12:58:15Z</time></trkpt><trkpt lat="45.569735844249315" lon="11.047128273568466"><ele>653.1428571428572</ele><time>2026-04-18T12:58:16Z</time></trkpt><trkpt lat="45.569667474564405" lon="11.04714195686678"><ele>652.0</ele><time>2026-04-18T12:58:17Z</time></trkpt><trkpt lat="45.5695982701279" lon="11.047115506048941"><ele>652.0</ele><time>2026-04-18T12:58:18Z</time></trkpt><trkpt lat="45.56953356994398" lon="11.047090838070678"><ele>652.0</ele><time>2026-04-18T12:58:19Z</time></trkpt><trkpt lat="45.56946431694948" lon="11.047066488740363"><ele>652.0</ele><time>2026-04-18T12:58:20Z</time></trkpt><trkpt lat="45.56938977279142" lon="11.047042597378042"><ele>652.0</ele><time>2026-04-18T12:58:21Z</time></trkpt><trkpt lat="45.56931700693149" lon="11.047013893846042"><ele>652.0</ele><time>2026-04-18T12:58:22Z</time></trkpt><trkpt lat="45.56925561754914" lon="11.04697814669403"><ele>652.0</ele><time>2026-04-18T12:58:23Z</time></trkpt><trkpt lat="45.56916755170256" lon="11.046963301233605"><ele>652.0</ele><time>2026-04-18T12:58:25Z</time></trkpt><trkpt lat="45.5691390673477" lon="11.047106766377913"><ele>651.0</ele><time>2026-04-18T12:58:27Z</time></trkpt><trkpt lat="45.5691787719612" lon="11.047178194916164"><ele>650.0</ele><time>2026-04-18T12:58:28Z</time></trkpt><trkpt lat="45.56923015233958" lon="11.047241226998864"><ele>649.0</ele><time>2026-04-18T12:58:29Z</time></trkpt><trkpt lat="45.5692743153277" lon="11.047323255692504"><ele>648.0</ele><time>2026-04-18T12:58:30Z</time></trkpt><trkpt lat="45.569328646413716" lon="11.047402936905467"><ele>647.0</ele><time>2026-04-18T12:58:31Z</time></trkpt><trkpt lat="45.569395559080135" lon="11.047489041354595"><ele>646.0</ele><time>2026-04-18T12:58:32Z</time></trkpt><trkpt lat="45.569462306043114" lon="11.047557088409052"><ele>645.5999999999999</ele><time>2026-04-18T12:58:33Z</time></trkpt><trkpt lat="45.56951820720619" lon="11.047610943402308"><ele>645.2</ele><time>2026-04-18T12:58:34Z</time></trkpt><trkpt lat="45.56963907009601" lon="11.047671644589137"><ele>644.8</ele><time>2026-04-18T12:58:36Z</time></trkpt><trkpt lat="45.56970205216445" lon="11.047728371736595"><ele>644.4000000000001</ele><time>2026-04-18T12:58:37Z</time></trkpt><trkpt lat="45.56976953939382" lon="11.04784750936997"><ele>644.0</ele><time>2026-04-18T12:58:39Z</time></trkpt><trkpt lat="45.5698171623618" lon="11.047938015920584"><ele>643.8333333333333</ele><time>2026-04-18T12:58:41Z</time></trkpt><trkpt lat="45.56987581768903" lon="11.048048506441162"><ele>643.6666666666666</ele><time>2026-04-18T12:58:43Z</time></trkpt><trkpt lat="45.56994249119461" lon="11.048184335840007"><ele>643.5</ele><time>2026-04-18T12:58:45Z</time></trkpt><trkpt lat="45.56998036569984" lon="11.048258048419596"><ele>643.3333333333334</ele><time>2026-04-18T12:58:46Z</time></trkpt><trkpt lat="45.57000481245262" lon="11.048354333950012"><ele>643.1666666666667</ele><time>2026-04-18T12:58:47Z</time></trkpt><trkpt lat="45.5700273617054" lon="11.048441426497693"><ele>643.0</ele><time>2026-04-18T12:58:48Z</time></trkpt><trkpt lat="45.57001798049185" lon="11.048631799330886"><ele>643.3333333333334</ele><time>2026-04-18T12:58:50Z</time></trkpt><trkpt lat="45.569997690171206" lon="11.048735184348104"><ele>643.6666666666667</ele><time>2026-04-18T12:58:51Z</time></trkpt><trkpt lat="45.56997575289091" lon="11.048829205359615"><ele>644.0</ele><time>2026-04-18T12:58:52Z</time></trkpt><trkpt lat="45.56995587914487" lon="11.048945727760232"><ele>644.3333333333334</ele><time>2026-04-18T12:58:53Z</time></trkpt><trkpt lat="45.56994453401998" lon="11.049038036832748"><ele>644.6666666666666</ele><time>2026-04-18T12:58:54Z</time></trkpt><trkpt lat="45.56996899562982" lon="11.049148522454571"><ele>645.0</ele><time>2026-04-18T12:58:55Z</time></trkpt><trkpt lat="45.570011201247986" lon="11.049254556881168"><ele>647.0</ele><time>2026-04-18T12:58:56Z</time></trkpt><trkpt lat="45.57007271142919" lon="11.04937092982917"><ele>649.0</ele><time>2026-04-18T12:58:58Z</time></trkpt><trkpt lat="45.57000718952243" lon="11.049447424330014"><ele>651.0</ele><time>2026-04-18T12:59:00Z</time></trkpt><trkpt lat="45.569906041497624" lon="11.049349306869013"><ele>653.0</ele><time>2026-04-18T12:59:02Z</time></trkpt><trkpt lat="45.5698227104432" lon="11.049397580125726"><ele>655.0</ele><time>2026-04-18T12:59:04Z</time></trkpt><trkpt lat="45.56982180906612" lon="11.04957769119704"><ele>655.0</ele><time>2026-04-18T12:59:06Z</time></trkpt><trkpt lat="45.569890492369645" lon="11.049741853732554"><ele>655.0</ele><time>2026-04-18T12:59:08Z</time></trkpt><trkpt lat="45.569921574952986" lon="11.049820513960317"><ele>655.0</ele><time>2026-04-18T12:59:09Z</time></trkpt><trkpt lat="45.569938251173255" lon="11.049927672052824"><ele>655.0</ele><time>2026-04-18T12:59:10Z</time></trkpt><trkpt lat="45.569953210282534" lon="11.05009306438095"><ele>655.0</ele><time>2026-04-18T12:59:12Z</time></trkpt><trkpt lat="45.56983219465053" lon="11.050139329520194"><ele>655.0</ele><time>2026-04-18T12:59:14Z</time></trkpt><trkpt lat="45.569780185292274" lon="11.05007743963307"><ele>655.0</ele><time>2026-04-18T12:59:15Z</time></trkpt><trkpt lat="45.56973793929741" lon="11.050002270795858"><ele>655.0</ele><time>2026-04-18T12:59:16Z</time></trkpt><trkpt lat="45.56968217140635" lon="11.049960386904662"><ele>655.0</ele><time>2026-04-18T12:59:17Z</time></trkpt><trkpt lat="45.56961824351412" lon="11.049932834795154"><ele>655.0</ele><time>2026-04-18T12:59:18Z</time></trkpt><trkpt lat="45.56952870882137" lon="11.049963233510988"><ele>655.0</ele><time>2026-04-18T12:59:20Z</time></trkpt><trkpt lat="45.5695442545091" lon="11.050115919852711"><ele>656.2</ele><time>2026-04-18T12:59:22Z</time></trkpt><trkpt lat="45.56955380456333" lon="11.050214587201326"><ele>657.4</ele><time>2026-04-18T12:59:23Z</time></trkpt><trkpt lat="45.56953576703343" lon="11.050313820142565"><ele>658.5999999999999</ele><time>2026-04-18T12:59:24Z</time></trkpt><trkpt lat="45.5695046525525" lon="11.050509960928986"><ele>659.8</ele><time>2026-04-18T12:59:26Z</time></trkpt><trkpt lat="45.569492561889135" lon="11.0506216984884"><ele>661.0</ele><time>2026-04-18T12:59:27Z</time></trkpt><trkpt lat="45.569479175637206" lon="11.050761541645922"><ele>667.0</ele><time>2026-04-18T12:59:28Z</time></trkpt><trkpt lat="45.56946308034701" lon="11.050886860881766"><ele>673.0</ele><time>2026-04-18T12:59:29Z</time></trkpt><trkpt lat="45.569428008111856" lon="11.051015420596144"><ele>679.0</ele><time>2026-04-18T12:59:30Z</time></trkpt><trkpt lat="45.569376267724074" lon="11.051117827532105"><ele>685.0</ele><time>2026-04-18T12:59:31Z</time></trkpt><trkpt lat="45.569315155010166" lon="11.051235021391786"><ele>691.0</ele><time>2026-04-18T12:59:32Z</time></trkpt><trkpt lat="45.56925320361242" lon="11.051324794959717"><ele>691.0</ele><time>2026-04-18T12:59:33Z</time></trkpt><trkpt lat="45.569180830185054" lon="11.051414158442872"><ele>691.0</ele><time>2026-04-18T12:59:34Z</time></trkpt><trkpt lat="45.5691170144386" lon="11.05148846366312"><ele>691.0</ele><time>2026-04-18T12:59:35Z</time></trkpt><trkpt lat="45.569050433219644" lon="11.051564405346527"><ele>691.0</ele><time>2026-04-18T12:59:36Z</time></trkpt><trkpt lat="45.56898678317827" lon="11.051646090791454"><ele>691.0</ele><time>2026-04-18T12:59:37Z</time></trkpt><trkpt lat="45.56891141010785" lon="11.051738807082161"><ele>691.0</ele><time>2026-04-18T12:59:38Z</time></trkpt><trkpt lat="45.56883870945094" lon="11.051821552628008"><ele>690.5999999999999</ele><time>2026-04-18T12:59:39Z</time></trkpt><trkpt lat="45.56876778319993" lon="11.051897185831628"><ele>690.2</ele><time>2026-04-18T12:59:40Z</time></trkpt><trkpt lat="45.5686982747305" lon="11.051987300628054"><ele>689.8</ele><time>2026-04-18T12:59:41Z</time></trkpt><trkpt lat="45.568622528521956" lon="11.052081884435713"><ele>689.4000000000001</ele><time>2026-04-18T12:59:42Z</time></trkpt><trkpt lat="45.56854665023905" lon="11.052173218180844"><ele>689.0</ele><time>2026-04-18T12:59:43Z</time></trkpt><trkpt lat="45.5684700749857" lon="11.05225042016056"><ele>692.0</ele><time>2026-04-18T12:59:44Z</time></trkpt><trkpt lat="45.568384517502935" lon="11.052335644388567"><ele>695.0</ele><time>2026-04-18T12:59:45Z</time></trkpt><trkpt lat="45.56830020886788" lon="11.052427672647294"><ele>698.0</ele><time>2026-04-18T12:59:46Z</time></trkpt><trkpt lat="45.56821676651254" lon="11.052510321224815"><ele>701.0</ele><time>2026-04-18T12:59:47Z</time></trkpt><trkpt lat="45.568154744982216" lon="11.052576330741726"><ele>704.0</ele><time>2026-04-18T12:59:48Z</time></trkpt><trkpt lat="45.568100632672945" lon="11.05262414824023"><ele>704.0</ele><time>2026-04-18T12:59:49Z</time></trkpt><trkpt lat="45.568040307949175" lon="11.0526639754355"><ele>704.0</ele><time>2026-04-18T12:59:50Z</time></trkpt><trkpt lat="45.5679710330022" lon="11.05271202032847"><ele>704.0</ele><time>2026-04-18T12:59:51Z</time></trkpt><trkpt lat="45.56788262721953" lon="11.052747144168677"><ele>704.0</ele><time>2026-04-18T12:59:52Z</time></trkpt><trkpt lat="45.56778837045857" lon="11.05277017601174"><ele>704.0</ele><time>2026-04-18T12:59:53Z</time></trkpt><trkpt lat="45.56768756748205" lon="11.052791852816718"><ele>704.0</ele><time>2026-04-18T12:59:54Z</time></trkpt><trkpt lat="45.567590154659534" lon="11.052798444727644"><ele>705.8000000000001</ele><time>2026-04-18T12:59:55Z</time></trkpt><trkpt lat="45.56750194169496" lon="11.052787950856084"><ele>707.6</ele><time>2026-04-18T12:59:56Z</time></trkpt><trkpt lat="45.5674152739112" lon="11.052784365993817"><ele>709.4</ele><time>2026-04-18T12:59:57Z</time></trkpt><trkpt lat="45.56733105722227" lon="11.052781209731137"><ele>711.2</ele><time>2026-04-18T12:59:58Z</time></trkpt><trkpt lat="45.56723502156001" lon="11.052773009819731"><ele>713.0</ele><time>2026-04-18T12:59:59Z</time></trkpt><trkpt lat="45.567136114816435" lon="11.05275868450776"><ele>713.0</ele><time>2026-04-18T13:00:00Z</time></trkpt><trkpt lat="45.56703956922973" lon="11.052766248609522"><ele>713.0</ele><time>2026-04-18T13:00:01Z</time></trkpt><trkpt lat="45.56693930341274" lon="11.052789752372156"><ele>713.0</ele><time>2026-04-18T13:00:02Z</time></trkpt><trkpt lat="45.56685102453423" lon="11.05279921980643"><ele>713.0</ele><time>2026-04-18T13:00:03Z</time></trkpt><trkpt lat="45.56677183081849" lon="11.052791187522907"><ele>713.0</ele><time>2026-04-18T13:00:04Z</time></trkpt><trkpt lat="45.56669924592282" lon="11.052772370402883"><ele>713.0</ele><time>2026-04-18T13:00:05Z</time></trkpt><trkpt lat="45.56663089303502" lon="11.05274518190278"><ele>711.6666666666666</ele><time>2026-04-18T13:00:06Z</time></trkpt><trkpt lat="45.56655372234885" lon="11.052710922390762"><ele>710.3333333333333</ele><time>2026-04-18T13:00:07Z</time></trkpt><trkpt lat="45.56646161192558" lon="11.052663719037845"><ele>709.0</ele><time>2026-04-18T13:00:08Z</time></trkpt><trkpt lat="45.5663719732869" lon="11.05261147479392"><ele>707.6666666666666</ele><time>2026-04-18T13:00:09Z</time></trkpt><trkpt lat="45.56630014860014" lon="11.052559866643012"><ele>706.3333333333334</ele><time>2026-04-18T13:00:10Z</time></trkpt><trkpt lat="45.56623217891538" lon="11.052509340959075"><ele>705.0</ele><time>2026-04-18T13:00:11Z</time></trkpt><trkpt lat="45.566174806018545" lon="11.052461438778517"><ele>703.8</ele><time>2026-04-18T13:00:12Z</time></trkpt><trkpt lat="45.566110368382965" lon="11.052417063886221"><ele>702.6</ele><time>2026-04-18T13:00:13Z</time></trkpt><trkpt lat="45.56601856655453" lon="11.052302209690488"><ele>701.4000000000001</ele><time>2026-04-18T13:00:15Z</time></trkpt><trkpt lat="45.56591166052535" lon="11.052228508876224"><ele>700.2</ele><time>2026-04-18T13:00:17Z</time></trkpt><trkpt lat="45.565817674594626" lon="11.052173833569611"><ele>699.0</ele><time>2026-04-18T13:00:19Z</time></trkpt><trkpt lat="45.56574595192198" lon="11.052172353751288"><ele>699.0</ele><time>2026-04-18T13:00:21Z</time></trkpt><trkpt lat="45.56566425239516" lon="11.052215368126072"><ele>699.0</ele><time>2026-04-18T13:00:23Z</time></trkpt><trkpt lat="45.56562165625439" lon="11.052284689522937"><ele>699.0</ele><time>2026-04-18T13:00:24Z</time></trkpt><trkpt lat="45.5655827264689" lon="11.05237735019636"><ele>699.0</ele><time>2026-04-18T13:00:25Z</time></trkpt><trkpt lat="45.56553265827129" lon="11.05246883817382"><ele>699.0</ele><time>2026-04-18T13:00:26Z</time></trkpt><trkpt lat="45.56547765590012" lon="11.052528434885803"><ele>699.0</ele><time>2026-04-18T13:00:27Z</time></trkpt><trkpt lat="45.565363153161215" lon="11.052548226234281"><ele>696.5</ele><time>2026-04-18T13:00:29Z</time></trkpt><trkpt lat="45.56527463974347" lon="11.052524753107686"><ele>694.0</ele><time>2026-04-18T13:00:31Z</time></trkpt><trkpt lat="45.56521425186369" lon="11.052463260877746"><ele>691.5</ele><time>2026-04-18T13:00:32Z</time></trkpt><trkpt lat="45.56515101177175" lon="11.052407483933129"><ele>689.0</ele><time>2026-04-18T13:00:33Z</time></trkpt><trkpt lat="45.56505641255231" lon="11.05233383762473"><ele>686.5</ele><time>2026-04-18T13:00:35Z</time></trkpt><trkpt lat="45.56497328552739" lon="11.052249827382997"><ele>684.0</ele><time>2026-04-18T13:00:37Z</time></trkpt><trkpt lat="45.56487630252459" lon="11.052211066517936"><ele>684.0</ele><time>2026-04-18T13:00:39Z</time></trkpt><trkpt lat="45.564768390402406" lon="11.052202761021436"><ele>684.0</ele><time>2026-04-18T13:00:41Z</time></trkpt><trkpt lat="45.56470368264327" lon="11.052228438289939"><ele>684.0</ele><time>2026-04-18T13:00:42Z</time></trkpt><trkpt lat="45.564578978784176" lon="11.052228491756136"><ele>684.0</ele><time>2026-04-18T13:00:44Z</time></trkpt><trkpt lat="45.56450432934496" lon="11.052232181969252"><ele>684.0</ele><time>2026-04-18T13:00:45Z</time></trkpt><trkpt lat="45.564420759306316" lon="11.0522673041363"><ele>682.0</ele><time>2026-04-18T13:00:47Z</time></trkpt><trkpt lat="45.56435668808807" lon="11.052375095504011"><ele>680.0</ele><time>2026-04-18T13:00:49Z</time></trkpt><trkpt lat="45.56433425448813" lon="11.052471990753363"><ele>678.0</ele><time>2026-04-18T13:00:50Z</time></trkpt><trkpt lat="45.564324965971146" lon="11.052568262041463"><ele>676.0</ele><time>2026-04-18T13:00:51Z</time></trkpt><trkpt lat="45.56429983456921" lon="11.052698377954327"><ele>674.0</ele><time>2026-04-18T13:00:52Z</time></trkpt><trkpt lat="45.56427043748925" lon="11.052817418106576"><ele>672.0</ele><time>2026-04-18T13:00:53Z</time></trkpt><trkpt lat="45.564236166968314" lon="11.052918411527731"><ele>670.8333333333334</ele><time>2026-04-18T13:00:54Z</time></trkpt><trkpt lat="45.56421050691091" lon="11.05300245397392"><ele>669.6666666666666</ele><time>2026-04-18T13:00:55Z</time></trkpt><trkpt lat="45.5641682136933" lon="11.053124963265883"><ele>668.5</ele><time>2026-04-18T13:00:56Z</time></trkpt><trkpt lat="45.56412730981257" lon="11.053228966570504"><ele>667.3333333333333</ele><time>2026-04-18T13:00:57Z</time></trkpt><trkpt lat="45.564094471027" lon="11.053309924174727"><ele>666.1666666666666</ele><time>2026-04-18T13:00:58Z</time></trkpt><trkpt lat="45.5640103215624" lon="11.053412832044739"><ele>665.0</ele><time>2026-04-18T13:01:00Z</time></trkpt><trkpt lat="45.5638772333538" lon="11.05340303640914"><ele>664.4285714285714</ele><time>2026-04-18T13:01:02Z</time></trkpt><trkpt lat="45.56381489827348" lon="11.053383201603724"><ele>663.8571428571429</ele><time>2026-04-18T13:01:03Z</time></trkpt><trkpt lat="45.563749836950706" lon="11.053365397954293"><ele>663.2857142857142</ele><time>2026-04-18T13:01:04Z</time></trkpt><trkpt lat="45.56367497332972" lon="11.053354347019695"><ele>662.7142857142858</ele><time>2026-04-18T13:01:05Z</time></trkpt><trkpt lat="45.56360918751199" lon="11.053342348095075"><ele>662.1428571428571</ele><time>2026-04-18T13:01:06Z</time></trkpt><trkpt lat="45.5635447383811" lon="11.053339026977342"><ele>661.5714285714286</ele><time>2026-04-18T13:01:07Z</time></trkpt><trkpt lat="45.563470509769296" lon="11.053344602966714"><ele>661.0</ele><time>2026-04-18T13:01:08Z</time></trkpt><trkpt lat="45.56339067454925" lon="11.05336533562149"><ele>657.5999999999999</ele><time>2026-04-18T13:01:09Z</time></trkpt><trkpt lat="45.56330400551636" lon="11.053400126956914"><ele>654.2</ele><time>2026-04-18T13:01:10Z</time></trkpt><trkpt lat="45.56323127816427" lon="11.053449524702444"><ele>650.8</ele><time>2026-04-18T13:01:11Z</time></trkpt><trkpt lat="45.56313062647801" lon="11.05354774611288"><ele>647.4000000000001</ele><time>2026-04-18T13:01:12Z</time></trkpt><trkpt lat="45.563064154103515" lon="11.053664729628426"><ele>644.0</ele><time>2026-04-18T13:01:13Z</time></trkpt><trkpt lat="45.56303666981898" lon="11.053805698575474"><ele>644.0</ele><time>2026-04-18T13:01:14Z</time></trkpt><trkpt lat="45.5630125102545" lon="11.053943793003496"><ele>644.0</ele><time>2026-04-18T13:01:15Z</time></trkpt><trkpt lat="45.56298180729475" lon="11.054076185750887"><ele>644.0</ele><time>2026-04-18T13:01:16Z</time></trkpt><trkpt lat="45.56294757113779" lon="11.054160833665216"><ele>644.0</ele><time>2026-04-18T13:01:17Z</time></trkpt><trkpt lat="45.56290236614163" lon="11.054245970274694"><ele>644.0</ele><time>2026-04-18T13:01:18Z</time></trkpt><trkpt lat="45.5628688694335" lon="11.054341689121346"><ele>644.0</ele><time>2026-04-18T13:01:19Z</time></trkpt><trkpt lat="45.56282371770345" lon="11.054479935512948"><ele>649.4000000000001</ele><time>2026-04-18T13:01:21Z</time></trkpt><trkpt lat="45.562797190185044" lon="11.054561986838406"><ele>654.8</ele><time>2026-04-18T13:01:22Z</time></trkpt><trkpt lat="45.56272650219227" lon="11.054699588020265"><ele>660.2</ele><time>2026-04-18T13:01:23Z</time></trkpt><trkpt lat="45.562674049190676" lon="11.054789839831372"><ele>665.5999999999999</ele><time>2026-04-18T13:01:24Z</time></trkpt><trkpt lat="45.56258800069396" lon="11.054872233998145"><ele>671.0</ele><time>2026-04-18T13:01:26Z</time></trkpt><trkpt lat="45.56248952961145" lon="11.054880592106038"><ele>671.0</ele><time>2026-04-18T13:01:28Z</time></trkpt><trkpt lat="45.56243281129007" lon="11.054942854513284"><ele>671.0</ele><time>2026-04-18T13:01:29Z</time></trkpt><trkpt lat="45.56230921927395" lon="11.055098986666403"><ele>671.0</ele><time>2026-04-18T13:01:31Z</time></trkpt><trkpt lat="45.56220862063899" lon="11.055156325233447"><ele>671.0</ele><time>2026-04-18T13:01:32Z</time></trkpt><trkpt lat="45.56212166988887" lon="11.055193801868295"><ele>671.0</ele><time>2026-04-18T13:01:33Z</time></trkpt><trkpt lat="45.56204751316356" lon="11.055259107569153"><ele>676.6666666666666</ele><time>2026-04-18T13:01:34Z</time></trkpt><trkpt lat="45.561962920061646" lon="11.055321766417592"><ele>682.3333333333333</ele><time>2026-04-18T13:01:35Z</time></trkpt><trkpt lat="45.56187760148102" lon="11.055397946444351"><ele>688.0</ele><time>2026-04-18T13:01:36Z</time></trkpt><trkpt lat="45.561818344329005" lon="11.055439471362313"><ele>693.6666666666666</ele><time>2026-04-18T13:01:37Z</time></trkpt><trkpt lat="45.56179040648419" lon="11.055571766611658"><ele>699.3333333333334</ele><time>2026-04-18T13:01:39Z</time></trkpt><trkpt lat="45.56185421899583" lon="11.055639856201458"><ele>705.0</ele><time>2026-04-18T13:01:40Z</time></trkpt><trkpt lat="45.56189198223993" lon="11.055754856055458"><ele>704.2</ele><time>2026-04-18T13:01:41Z</time></trkpt><trkpt lat="45.56194072304044" lon="11.055840551019424"><ele>703.4</ele><time>2026-04-18T13:01:42Z</time></trkpt><trkpt lat="45.56199296104452" lon="11.056029544941593"><ele>702.5999999999999</ele><time>2026-04-18T13:01:44Z</time></trkpt><trkpt lat="45.56200578056138" lon="11.056148373101532"><ele>701.8</ele><time>2026-04-18T13:01:45Z</time></trkpt><trkpt lat="45.56199672207004" lon="11.056260177047351"><ele>701.0</ele><time>2026-04-18T13:01:46Z</time></trkpt><trkpt lat="45.561951745090624" lon="11.0563566488394"><ele>701.0</ele><time>2026-04-18T13:01:47Z</time></trkpt><trkpt lat="45.56188788928782" lon="11.056435241346511"><ele>701.0</ele><time>2026-04-18T13:01:48Z</time></trkpt><trkpt lat="45.56182337896318" lon="11.056517178994945"><ele>701.0</ele><time>2026-04-18T13:01:49Z</time></trkpt><trkpt lat="45.56176522561591" lon="11.056619780609084"><ele>701.0</ele><time>2026-04-18T13:01:50Z</time></trkpt><trkpt lat="45.56169812167626" lon="11.05670733742387"><ele>701.0</ele><time>2026-04-18T13:01:51Z</time></trkpt><trkpt lat="45.561623573675725" lon="11.056782282914268"><ele>701.0</ele><time>2026-04-18T13:01:52Z</time></trkpt><trkpt lat="45.56153915642825" lon="11.056839601430829"><ele>702.0</ele><time>2026-04-18T13:01:53Z</time></trkpt><trkpt lat="45.56142734222117" lon="11.056876582795486"><ele>703.0</ele><time>2026-04-18T13:01:54Z</time></trkpt><trkpt lat="45.56134426846897" lon="11.056941083964603"><ele>704.0</ele><time>2026-04-18T13:01:55Z</time></trkpt><trkpt lat="45.56126540431585" lon="11.057028805089644"><ele>705.0</ele><time>2026-04-18T13:01:56Z</time></trkpt><trkpt lat="45.561185346862416" lon="11.057137630754703"><ele>706.0</ele><time>2026-04-18T13:01:57Z</time></trkpt><trkpt lat="45.561123784191814" lon="11.057217425156383"><ele>706.0</ele><time>2026-04-18T13:01:58Z</time></trkpt><trkpt lat="45.561077795039864" lon="11.057280282964559"><ele>706.0</ele><time>2026-04-18T13:01:59Z</time></trkpt><trkpt lat="45.5609617703871" lon="11.057406732294837"><ele>706.0</ele><time>2026-04-18T13:02:01Z</time></trkpt><trkpt lat="45.5608916196938" lon="11.057434284416376"><ele>706.0</ele><time>2026-04-18T13:02:02Z</time></trkpt><trkpt lat="45.56081409949633" lon="11.057489738614258"><ele>706.0</ele><time>2026-04-18T13:02:03Z</time></trkpt><trkpt lat="45.56073151423737" lon="11.057529444446894"><ele>706.0</ele><time>2026-04-18T13:02:04Z</time></trkpt><trkpt lat="45.56065477049383" lon="11.057513437450291"><ele>706.0</ele><time>2026-04-18T13:02:05Z</time></trkpt><trkpt lat="45.560560595943414" lon="11.057475877270093"><ele>706.0</ele><time>2026-04-18T13:02:06Z</time></trkpt><trkpt lat="45.560460160039696" lon="11.05743802937276"><ele>706.0</ele><time>2026-04-18T13:02:07Z</time></trkpt><trkpt lat="45.560351187644656" lon="11.057417983538098"><ele>706.0</ele><time>2026-04-18T13:02:08Z</time></trkpt><trkpt lat="45.560246040395114" lon="11.057388481485786"><ele>704.0</ele><time>2026-04-18T13:02:09Z</time></trkpt><trkpt lat="45.56013295248982" lon="11.057343513644746"><ele>702.0</ele><time>2026-04-18T13:02:10Z</time></trkpt><trkpt lat="45.56001572288991" lon="11.057298242760629"><ele>700.0</ele><time>2026-04-18T13:02:11Z</time></trkpt><trkpt lat="45.55989651207803" lon="11.057258024329464"><ele>698.0</ele><time>2026-04-18T13:02:12Z</time></trkpt><trkpt lat="45.55977992500952" lon="11.057218605402774"><ele>698.0</ele><time>2026-04-18T13:02:13Z</time></trkpt><trkpt lat="45.559672196923955" lon="11.057188413504917"><ele>698.0</ele><time>2026-04-18T13:02:14Z</time></trkpt><trkpt lat="45.559557402213834" lon="11.057172610037124"><ele>698.0</ele><time>2026-04-18T13:02:15Z</time></trkpt><trkpt lat="45.55946913102835" lon="11.0571502644856"><ele>698.0</ele><time>2026-04-18T13:02:16Z</time></trkpt><trkpt lat="45.559385604837466" lon="11.057107270260225"><ele>698.0</ele><time>2026-04-18T13:02:17Z</time></trkpt><trkpt lat="45.559291950744125" lon="11.05700080730164"><ele>696.5</ele><time>2026-04-18T13:02:18Z</time></trkpt><trkpt lat="45.55922353767507" lon="11.05686271024665"><ele>695.0</ele><time>2026-04-18T13:02:19Z</time></trkpt><trkpt lat="45.55911646149006" lon="11.056743490863147"><ele>693.5</ele><time>2026-04-18T13:02:20Z</time></trkpt><trkpt lat="45.55900250659925" lon="11.056628941872743"><ele>692.0</ele><time>2026-04-18T13:02:21Z</time></trkpt><trkpt lat="45.55888063006034" lon="11.056519727378209"><ele>698.5</ele><time>2026-04-18T13:02:22Z</time></trkpt><trkpt lat="45.55876585038179" lon="11.056428797768902"><ele>705.0</ele><time>2026-04-18T13:02:23Z</time></trkpt><trkpt lat="45.5586494717882" lon="11.056352874318709"><ele>711.5</ele><time>2026-04-18T13:02:24Z</time></trkpt><trkpt lat="45.55852082108181" lon="11.05632054131503"><ele>718.0</ele><time>2026-04-18T13:02:25Z</time></trkpt><trkpt lat="45.55838944565277" lon="11.056253599985098"><ele>718.0</ele><time>2026-04-18T13:02:26Z</time></trkpt><trkpt lat="45.558241317855654" lon="11.056236973369982"><ele>718.0</ele><time>2026-04-18T13:02:27Z</time></trkpt><trkpt lat="45.5580974118639" lon="11.056228067876852"><ele>718.0</ele><time>2026-04-18T13:02:28Z</time></trkpt><trkpt lat="45.55795317038369" lon="11.056233147588822"><ele>718.0</ele><time>2026-04-18T13:02:29Z</time></trkpt><trkpt lat="45.5578266952379" lon="11.056230066893153"><ele>718.0</ele><time>2026-04-18T13:02:30Z</time></trkpt><trkpt lat="45.557670575324146" lon="11.05623720309757"><ele>718.0</ele><time>2026-04-18T13:02:31Z</time></trkpt><trkpt lat="45.5575309231928" lon="11.056244726938763"><ele>718.0</ele><time>2026-04-18T13:02:32Z</time></trkpt><trkpt lat="45.55739833724027" lon="11.056242207562605"><ele>718.0</ele><time>2026-04-18T13:02:33Z</time></trkpt><trkpt lat="45.55725542077635" lon="11.056258297515793"><ele>718.0</ele><time>2026-04-18T13:02:34Z</time></trkpt><trkpt lat="45.55712032570901" lon="11.056297910251152"><ele>718.0</ele><time>2026-04-18T13:02:35Z</time></trkpt><trkpt lat="45.55699305971938" lon="11.05631267900728"><ele>718.0</ele><time>2026-04-18T13:02:36Z</time></trkpt><trkpt lat="45.55685732521552" lon="11.056302507565354"><ele>718.0</ele><time>2026-04-18T13:02:37Z</time></trkpt><trkpt lat="45.5567309716568" lon="11.05631962656911"><ele>718.5</ele><time>2026-04-18T13:02:38Z</time></trkpt><trkpt lat="45.55660762468591" lon="11.056322137642404"><ele>719.0</ele><time>2026-04-18T13:02:39Z</time></trkpt><trkpt lat="45.5564772899207" lon="11.056316522271407"><ele>719.5</ele><time>2026-04-18T13:02:40Z</time></trkpt><trkpt lat="45.55634746964944" lon="11.056356646753182"><ele>720.0</ele><time>2026-04-18T13:02:41Z</time></trkpt><trkpt lat="45.55622783716633" lon="11.056374105106618"><ele>720.2</ele><time>2026-04-18T13:02:42Z</time></trkpt><trkpt lat="45.556125625632845" lon="11.056367572882316"><ele>720.4</ele><time>2026-04-18T13:02:43Z</time></trkpt><trkpt lat="45.55603095835665" lon="11.056340358884645"><ele>720.5999999999999</ele><time>2026-04-18T13:02:44Z</time></trkpt><trkpt lat="45.55592170317914" lon="11.056312862264829"><ele>720.8</ele><time>2026-04-18T13:02:45Z</time></trkpt><trkpt lat="45.5558161965544" lon="11.056281104673605"><ele>721.0</ele><time>2026-04-18T13:02:46Z</time></trkpt><trkpt lat="45.55571910078092" lon="11.056235649279001"><ele>721.0</ele><time>2026-04-18T13:02:47Z</time></trkpt><trkpt lat="45.55562605744188" lon="11.056173975958487"><ele>721.0</ele><time>2026-04-18T13:02:48Z</time></trkpt><trkpt lat="45.55553765435322" lon="11.056094672913716"><ele>721.0</ele><time>2026-04-18T13:02:49Z</time></trkpt><trkpt lat="45.555442597202095" lon="11.056000186633216"><ele>721.0</ele><time>2026-04-18T13:02:50Z</time></trkpt><trkpt lat="45.55535320842021" lon="11.05590027516996"><ele>721.0</ele><time>2026-04-18T13:02:51Z</time></trkpt><trkpt lat="45.555264351331424" lon="11.055782900925808"><ele>724.25</ele><time>2026-04-18T13:02:52Z</time></trkpt><trkpt lat="45.55517162679346" lon="11.05566059633645"><ele>727.5</ele><time>2026-04-18T13:02:53Z</time></trkpt><trkpt lat="45.55507665095631" lon="11.055534144201001"><ele>730.75</ele><time>2026-04-18T13:02:54Z</time></trkpt><trkpt lat="45.55496991838615" lon="11.055418284668661"><ele>734.0</ele><time>2026-04-18T13:02:55Z</time></trkpt><trkpt lat="45.55488616722058" lon="11.055284520015755"><ele>734.0</ele><time>2026-04-18T13:02:56Z</time></trkpt><trkpt lat="45.554804764773394" lon="11.055180297437982"><ele>734.0</ele><time>2026-04-18T13:02:57Z</time></trkpt><trkpt lat="45.55471062646454" lon="11.055115242396925"><ele>734.0</ele><time>2026-04-18T13:02:58Z</time></trkpt><trkpt lat="45.554592908069" lon="11.05508685833857"><ele>734.0</ele><time>2026-04-18T13:02:59Z</time></trkpt><trkpt lat="45.554468654484445" lon="11.05504870801589"><ele>732.25</ele><time>2026-04-18T13:03:00Z</time></trkpt><trkpt lat="45.55434702828982" lon="11.05500995061121"><ele>730.5</ele><time>2026-04-18T13:03:01Z</time></trkpt><trkpt lat="45.55421711712944" lon="11.055001963433478"><ele>728.75</ele><time>2026-04-18T13:03:02Z</time></trkpt><trkpt lat="45.55408330637808" lon="11.055027170689954"><ele>727.0</ele><time>2026-04-18T13:03:03Z</time></trkpt><trkpt lat="45.55394291109784" lon="11.055070999892731"><ele>727.0</ele><time>2026-04-18T13:03:04Z</time></trkpt><trkpt lat="45.553806871011986" lon="11.055112262150773"><ele>727.0</ele><time>2026-04-18T13:03:05Z</time></trkpt><trkpt lat="45.55367667847745" lon="11.0551700854485"><ele>727.0</ele><time>2026-04-18T13:03:06Z</time></trkpt><trkpt lat="45.55355628134803" lon="11.055228051568644"><ele>727.0</ele><time>2026-04-18T13:03:07Z</time></trkpt><trkpt lat="45.5534341508419" lon="11.055275348765807"><ele>728.0</ele><time>2026-04-18T13:03:08Z</time></trkpt><trkpt lat="45.553319755848946" lon="11.05529023792862"><ele>729.0</ele><time>2026-04-18T13:03:09Z</time></trkpt><trkpt lat="45.55320407472774" lon="11.055261125639221"><ele>730.0</ele><time>2026-04-18T13:03:10Z</time></trkpt><trkpt lat="45.55308254612429" lon="11.055236033367196"><ele>731.0</ele><time>2026-04-18T13:03:11Z</time></trkpt><trkpt lat="45.55295045742292" lon="11.055203403199386"><ele>731.0</ele><time>2026-04-18T13:03:12Z</time></trkpt><trkpt lat="45.552816574285835" lon="11.055167657507171"><ele>731.0</ele><time>2026-04-18T13:03:13Z</time></trkpt><trkpt lat="45.55268012324491" lon="11.055126783843328"><ele>731.0</ele><time>2026-04-18T13:03:14Z</time></trkpt><trkpt lat="45.55254703327463" lon="11.055109594233382"><ele>731.0</ele><time>2026-04-18T13:03:15Z</time></trkpt><trkpt lat="45.55242082190112" lon="11.055071978709595"><ele>731.0</ele><time>2026-04-18T13:03:16Z</time></trkpt><trkpt lat="45.55229578558459" lon="11.055053778826528"><ele>731.0</ele><time>2026-04-18T13:03:17Z</time></trkpt><trkpt lat="45.552157564294305" lon="11.055096637250683"><ele>731.0</ele><time>2026-04-18T13:03:18Z</time></trkpt><trkpt lat="45.552016728207704" lon="11.055106142571836"><ele>731.0</ele><time>2026-04-18T13:03:19Z</time></trkpt><trkpt lat="45.55186138167015" lon="11.05511484192927"><ele>732.3333333333333</ele><time>2026-04-18T13:03:20Z</time></trkpt><trkpt lat="45.55170283670451" lon="11.055123140194649"><ele>733.6666666666666</ele><time>2026-04-18T13:03:21Z</time></trkpt><trkpt lat="45.55155389392883" lon="11.055130838027374"><ele>735.0</ele><time>2026-04-18T13:03:22Z</time></trkpt><trkpt lat="45.55140977827105" lon="11.055146132341847"><ele>735.0</ele><time>2026-04-18T13:03:23Z</time></trkpt><trkpt lat="45.55127579531374" lon="11.05516142194319"><ele>735.0</ele><time>2026-04-18T13:03:24Z</time></trkpt><trkpt lat="45.55115324111726" lon="11.05517259813622"><ele>735.0</ele><time>2026-04-18T13:03:25Z</time></trkpt><trkpt lat="45.55101796690814" lon="11.055178128651754"><ele>735.0</ele><time>2026-04-18T13:03:26Z</time></trkpt><trkpt lat="45.55088267198287" lon="11.05518518908324"><ele>735.0</ele><time>2026-04-18T13:03:27Z</time></trkpt><trkpt lat="45.550751800234096" lon="11.0551912612225"><ele>735.0</ele><time>2026-04-18T13:03:28Z</time></trkpt><trkpt lat="45.55062441266485" lon="11.055172308553015"><ele>735.0</ele><time>2026-04-18T13:03:29Z</time></trkpt><trkpt lat="45.550493581906856" lon="11.055139330607405"><ele>735.0</ele><time>2026-04-18T13:03:30Z</time></trkpt><trkpt lat="45.55036170997335" lon="11.055095203847502"><ele>734.0</ele><time>2026-04-18T13:03:31Z</time></trkpt><trkpt lat="45.55021906248653" lon="11.055048524885038"><ele>733.0</ele><time>2026-04-18T13:03:32Z</time></trkpt><trkpt lat="45.55009192410942" lon="11.055011453937164"><ele>732.0</ele><time>2026-04-18T13:03:33Z</time></trkpt><trkpt lat="45.549973092062544" lon="11.05498016672988"><ele>731.0</ele><time>2026-04-18T13:03:34Z</time></trkpt><trkpt lat="45.549856439803506" lon="11.054954251101064"><ele>730.75</ele><time>2026-04-18T13:03:35Z</time></trkpt><trkpt lat="45.549728716702205" lon="11.054924822513902"><ele>730.5</ele><time>2026-04-18T13:03:36Z</time></trkpt><trkpt lat="45.549593586647205" lon="11.054889343887533"><ele>730.25</ele><time>2026-04-18T13:03:37Z</time></trkpt><trkpt lat="45.54945607613741" lon="11.054845496881384"><ele>730.0</ele><time>2026-04-18T13:03:38Z</time></trkpt><trkpt lat="45.549333291517954" lon="11.054812635448387"><ele>730.0</ele><time>2026-04-18T13:03:39Z</time></trkpt><trkpt lat="45.5492185230914" lon="11.054777318295029"><ele>730.0</ele><time>2026-04-18T13:03:40Z</time></trkpt><trkpt lat="45.54910407824244" lon="11.054700759661706"><ele>730.0</ele><time>2026-04-18T13:03:41Z</time></trkpt><trkpt lat="45.54898851764582" lon="11.054615158309366"><ele>730.0</ele><time>2026-04-18T13:03:42Z</time></trkpt><trkpt lat="45.54888077351451" lon="11.054525334172123"><ele>730.0</ele><time>2026-04-18T13:03:43Z</time></trkpt><trkpt lat="45.548780245684675" lon="11.054441142796698"><ele>730.0</ele><time>2026-04-18T13:03:44Z</time></trkpt><trkpt lat="45.54868939065908" lon="11.054363534950372"><ele>730.0</ele><time>2026-04-18T13:03:45Z</time></trkpt><trkpt lat="45.548606344990176" lon="11.054287546446234"><ele>730.0</ele><time>2026-04-18T13:03:46Z</time></trkpt><trkpt lat="45.54851914318485" lon="11.054200328577313"><ele>730.0</ele><time>2026-04-18T13:03:47Z</time></trkpt><trkpt lat="45.54843678226521" lon="11.054088989387722"><ele>728.2</ele><time>2026-04-18T13:03:48Z</time></trkpt><trkpt lat="45.54835993770804" lon="11.053973781014971"><ele>726.4</ele><time>2026-04-18T13:03:49Z</time></trkpt><trkpt lat="45.54829178946995" lon="11.05385128679189"><ele>724.5999999999999</ele><time>2026-04-18T13:03:50Z</time></trkpt><trkpt lat="45.548237187378575" lon="11.053735457479474"><ele>722.8</ele><time>2026-04-18T13:03:51Z</time></trkpt><trkpt lat="45.54818780495344" lon="11.05361054382438"><ele>721.0</ele><time>2026-04-18T13:03:52Z</time></trkpt><trkpt lat="45.54815459299245" lon="11.053471165763167"><ele>721.0</ele><time>2026-04-18T13:03:53Z</time></trkpt><trkpt lat="45.54814062517055" lon="11.053325028597445"><ele>721.0</ele><time>2026-04-18T13:03:54Z</time></trkpt><trkpt lat="45.54813629395102" lon="11.053177421893485"><ele>721.0</ele><time>2026-04-18T13:03:55Z</time></trkpt><trkpt lat="45.548142220950005" lon="11.053037339764286"><ele>721.0</ele><time>2026-04-18T13:03:56Z</time></trkpt><trkpt lat="45.54814005860245" lon="11.052904920943575"><ele>721.0</ele><time>2026-04-18T13:03:57Z</time></trkpt><trkpt lat="45.54811628177096" lon="11.052762618155972"><ele>719.4</ele><time>2026-04-18T13:03:58Z</time></trkpt><trkpt lat="45.548069398319136" lon="11.052627991062188"><ele>717.8</ele><time>2026-04-18T13:03:59Z</time></trkpt><trkpt lat="45.54801433618371" lon="11.052537201474873"><ele>716.1999999999999</ele><time>2026-04-18T13:04:00Z</time></trkpt><trkpt lat="45.54794682089118" lon="11.052476406563379"><ele>714.5999999999999</ele><time>2026-04-18T13:04:01Z</time></trkpt><trkpt lat="45.54786226811443" lon="11.052450131376817"><ele>713.0</ele><time>2026-04-18T13:04:02Z</time></trkpt><trkpt lat="45.54776950053756" lon="11.052423796323467"><ele>706.8</ele><time>2026-04-18T13:04:03Z</time></trkpt><trkpt lat="45.54768492787191" lon="11.05239154289564"><ele>700.5999999999999</ele><time>2026-04-18T13:04:04Z</time></trkpt><trkpt lat="45.547593871008814" lon="11.052367404571939"><ele>694.4000000000001</ele><time>2026-04-18T13:04:05Z</time></trkpt><trkpt lat="45.547490640606945" lon="11.052355368841393"><ele>688.2</ele><time>2026-04-18T13:04:06Z</time></trkpt><trkpt lat="45.54738992095141" lon="11.052369055674246"><ele>682.0</ele><time>2026-04-18T13:04:07Z</time></trkpt><trkpt lat="45.54728862897946" lon="11.052404383531401"><ele>682.0</ele><time>2026-04-18T13:04:08Z</time></trkpt><trkpt lat="45.54718795558288" lon="11.052425372850928"><ele>682.0</ele><time>2026-04-18T13:04:09Z</time></trkpt><trkpt lat="45.54708594873058" lon="11.052434097275924"><ele>682.0</ele><time>2026-04-18T13:04:10Z</time></trkpt><trkpt lat="45.5469796000599" lon="11.05243329199037"><ele>682.0</ele><time>2026-04-18T13:04:11Z</time></trkpt><trkpt lat="45.54687392602484" lon="11.052429892891748"><ele>682.0</ele><time>2026-04-18T13:04:11.999Z</time></trkpt><trkpt lat="45.546769188921154" lon="11.05245257755281"><ele>684.0</ele><time>2026-04-18T13:04:12.999Z</time></trkpt><trkpt lat="45.54667050411904" lon="11.052506392803114"><ele>686.0</ele><time>2026-04-18T13:04:13.999Z</time></trkpt><trkpt lat="45.54657890326257" lon="11.052596480299178"><ele>688.0</ele><time>2026-04-18T13:04:14.999Z</time></trkpt><trkpt lat="45.54648720842072" lon="11.052689791443159"><ele>690.0</ele><time>2026-04-18T13:04:15.999Z</time></trkpt><trkpt lat="45.54640448468372" lon="11.052789439655822"><ele>692.0</ele><time>2026-04-18T13:04:17Z</time></trkpt><trkpt lat="45.546325243989905" lon="11.05290546693012"><ele>692.0</ele><time>2026-04-18T13:04:18Z</time></trkpt><trkpt lat="45.546253102970915" lon="11.053042180831135"><ele>692.0</ele><time>2026-04-18T13:04:19Z</time></trkpt><trkpt lat="45.54618022174806" lon="11.053187978229824"><ele>692.0</ele><time>2026-04-18T13:04:20Z</time></trkpt><trkpt lat="45.54609579940399" lon="11.053335336279941"><ele>692.0</ele><time>2026-04-18T13:04:21Z</time></trkpt><trkpt lat="45.546001333018566" lon="11.053466469178158"><ele>687.5</ele><time>2026-04-18T13:04:22Z</time></trkpt><trkpt lat="45.545887026224776" lon="11.053581685084573"><ele>683.0</ele><time>2026-04-18T13:04:23Z</time></trkpt><trkpt lat="45.54577878373321" lon="11.053700457690582"><ele>678.5</ele><time>2026-04-18T13:04:24Z</time></trkpt><trkpt lat="45.545674699843104" lon="11.053817359184592"><ele>674.0</ele><time>2026-04-18T13:04:25Z</time></trkpt><trkpt lat="45.54557524001094" lon="11.053935620662639"><ele>674.0</ele><time>2026-04-18T13:04:26Z</time></trkpt><trkpt lat="45.54547887043066" lon="11.054044671158055"><ele>674.0</ele><time>2026-04-18T13:04:27Z</time></trkpt><trkpt lat="45.54539347923539" lon="11.054141812505138"><ele>674.0</ele><time>2026-04-18T13:04:28Z</time></trkpt><trkpt lat="45.545327697287966" lon="11.054215299007607"><ele>674.0</ele><time>2026-04-18T13:04:29Z</time></trkpt><trkpt lat="45.545249516989074" lon="11.054313103315955"><ele>674.0</ele><time>2026-04-18T13:04:31Z</time></trkpt><trkpt lat="45.54516531762478" lon="11.054401334018308"><ele>671.8333333333333</ele><time>2026-04-18T13:04:34Z</time></trkpt><trkpt lat="45.545106915554214" lon="11.054460104123358"><ele>669.6666666666666</ele><time>2026-04-18T13:04:35Z</time></trkpt><trkpt lat="45.545043346065235" lon="11.054523004167761"><ele>667.5</ele><time>2026-04-18T13:04:36Z</time></trkpt><trkpt lat="45.54497691646308" lon="11.054596724516337"><ele>665.3333333333334</ele><time>2026-04-18T13:04:37Z</time></trkpt><trkpt lat="45.54491010169528" lon="11.054675004937929"><ele>663.1666666666667</ele><time>2026-04-18T13:04:38Z</time></trkpt><trkpt lat="45.54484047027684" lon="11.054733711324005"><ele>661.0</ele><time>2026-04-18T13:04:39Z</time></trkpt><trkpt lat="45.54476413758506" lon="11.054739585169182"><ele>661.0</ele><time>2026-04-18T13:04:40Z</time></trkpt><trkpt lat="45.544678338427445" lon="11.054704636264672"><ele>661.0</ele><time>2026-04-18T13:04:41Z</time></trkpt><trkpt lat="45.544587836034616" lon="11.054646861680247"><ele>661.0</ele><time>2026-04-18T13:04:42Z</time></trkpt><trkpt lat="45.54450664578198" lon="11.054570983578932"><ele>661.0</ele><time>2026-04-18T13:04:43Z</time></trkpt><trkpt lat="45.544447649871316" lon="11.054467117704666"><ele>661.0</ele><time>2026-04-18T13:04:44Z</time></trkpt><trkpt lat="45.544402685894966" lon="11.054323373861564"><ele>660.5999999999999</ele><time>2026-04-18T13:04:45Z</time></trkpt><trkpt lat="45.54435234853517" lon="11.054186561326103"><ele>660.2</ele><time>2026-04-18T13:04:46Z</time></trkpt><trkpt lat="45.54431536513441" lon="11.054007552368518"><ele>659.8</ele><time>2026-04-18T13:04:47Z</time></trkpt><trkpt lat="45.5442770390796" lon="11.053880764940883"><ele>659.4000000000001</ele><time>2026-04-18T13:04:48Z</time></trkpt><trkpt lat="45.54421182115868" lon="11.053784162557454"><ele>659.0</ele><time>2026-04-18T13:04:49Z</time></trkpt><trkpt lat="45.54414048753108" lon="11.053663888699074"><ele>659.0</ele><time>2026-04-18T13:04:50Z</time></trkpt><trkpt lat="45.544047629148196" lon="11.053563601786632"><ele>659.0</ele><time>2026-04-18T13:04:51Z</time></trkpt><trkpt lat="45.54395610759165" lon="11.053435637070015"><ele>659.0</ele><time>2026-04-18T13:04:52Z</time></trkpt><trkpt lat="45.543850057604885" lon="11.053324597899696"><ele>659.0</ele><time>2026-04-18T13:04:53Z</time></trkpt><trkpt lat="45.54374684975384" lon="11.053214450556979"><ele>660.75</ele><time>2026-04-18T13:04:54Z</time></trkpt><trkpt lat="45.5436361400243" lon="11.053107260618013"><ele>662.5</ele><time>2026-04-18T13:04:55Z</time></trkpt><trkpt lat="45.543534920343156" lon="11.052998829733562"><ele>664.25</ele><time>2026-04-18T13:04:56Z</time></trkpt><trkpt lat="45.543435423778995" lon="11.05289618715965"><ele>666.0</ele><time>2026-04-18T13:04:57Z</time></trkpt><trkpt lat="45.5433416318107" lon="11.052812884218202"><ele>666.0</ele><time>2026-04-18T13:04:58Z</time></trkpt><trkpt lat="45.54322868902283" lon="11.052762713186231"><ele>666.0</ele><time>2026-04-18T13:04:59Z</time></trkpt><trkpt lat="45.54310922206329" lon="11.052728458344033"><ele>666.0</ele><time>2026-04-18T13:05:00Z</time></trkpt><trkpt lat="45.54299285847921" lon="11.05267510567838"><ele>666.0</ele><time>2026-04-18T13:05:01Z</time></trkpt><trkpt lat="45.54288281762501" lon="11.052599298833293"><ele>669.0</ele><time>2026-04-18T13:05:02Z</time></trkpt><trkpt lat="45.54277430439998" lon="11.052495001871847"><ele>672.0</ele><time>2026-04-18T13:05:03Z</time></trkpt><trkpt lat="45.54267490399729" lon="11.052374362021876"><ele>675.0</ele><time>2026-04-18T13:05:04Z</time></trkpt><trkpt lat="45.54257341271035" lon="11.052276795039024"><ele>678.0</ele><time>2026-04-18T13:05:05Z</time></trkpt><trkpt lat="45.54246129275309" lon="11.052208045897393"><ele>671.5</ele><time>2026-04-18T13:05:06Z</time></trkpt><trkpt lat="45.54233937131595" lon="11.052158753740043"><ele>665.0</ele><time>2026-04-18T13:05:07Z</time></trkpt><trkpt lat="45.5422118781452" lon="11.052130157125314"><ele>658.5</ele><time>2026-04-18T13:05:08Z</time></trkpt><trkpt lat="45.542084351748784" lon="11.052112068444089"><ele>652.0</ele><time>2026-04-18T13:05:09Z</time></trkpt><trkpt lat="45.541959105943135" lon="11.052112476329121"><ele>651.5</ele><time>2026-04-18T13:05:10Z</time></trkpt><trkpt lat="45.54183083788731" lon="11.052134397485863"><ele>651.0</ele><time>2026-04-18T13:05:11Z</time></trkpt><trkpt lat="45.54169313925991" lon="11.052155936723048"><ele>650.5</ele><time>2026-04-18T13:05:12Z</time></trkpt><trkpt lat="45.54154893671031" lon="11.052189533971188"><ele>650.0</ele><time>2026-04-18T13:05:13Z</time></trkpt><trkpt lat="45.541412102608014" lon="11.052223656314048"><ele>650.0</ele><time>2026-04-18T13:05:14Z</time></trkpt><trkpt lat="45.5412808828519" lon="11.05224644799261"><ele>650.0</ele><time>2026-04-18T13:05:15Z</time></trkpt><trkpt lat="45.541151697175714" lon="11.05225777548975"><ele>650.0</ele><time>2026-04-18T13:05:16Z</time></trkpt><trkpt lat="45.54103453257593" lon="11.05225249019017"><ele>650.0</ele><time>2026-04-18T13:05:17Z</time></trkpt><trkpt lat="45.540928143667095" lon="11.052256527916999"><ele>649.4</ele><time>2026-04-18T13:05:18Z</time></trkpt><trkpt lat="45.54083254937623" lon="11.05226511345581"><ele>648.8</ele><time>2026-04-18T13:05:19Z</time></trkpt><trkpt lat="45.54075580325468" lon="11.052285213269792"><ele>648.2</ele><time>2026-04-18T13:05:20Z</time></trkpt><trkpt lat="45.54065071067649" lon="11.052289177931613"><ele>647.6</ele><time>2026-04-18T13:05:21Z</time></trkpt><trkpt lat="45.540519498860114" lon="11.052285020450217"><ele>647.0</ele><time>2026-04-18T13:05:22Z</time></trkpt><trkpt lat="45.54039127921791" lon="11.052270775484784"><ele>646.0</ele><time>2026-04-18T13:05:23Z</time></trkpt><trkpt lat="45.54026288713156" lon="11.052258268542074"><ele>645.0</ele><time>2026-04-18T13:05:24Z</time></trkpt><trkpt lat="45.540126743616256" lon="11.05226612085304"><ele>644.0</ele><time>2026-04-18T13:05:25Z</time></trkpt><trkpt lat="45.53997861691816" lon="11.052280146825655"><ele>643.0</ele><time>2026-04-18T13:05:26Z</time></trkpt><trkpt lat="45.539828311498795" lon="11.052299578388972"><ele>643.0</ele><time>2026-04-18T13:05:27Z</time></trkpt><trkpt lat="45.539690747008414" lon="11.052308001459679"><ele>643.0</ele><time>2026-04-18T13:05:28Z</time></trkpt><trkpt lat="45.539561056900354" lon="11.052327834787906"><ele>643.0</ele><time>2026-04-18T13:05:29Z</time></trkpt><trkpt lat="45.5394399505612" lon="11.052344429331514"><ele>643.0</ele><time>2026-04-18T13:05:30Z</time></trkpt><trkpt lat="45.539319457342465" lon="11.052345475914995"><ele>642.75</ele><time>2026-04-18T13:05:31Z</time></trkpt><trkpt lat="45.53919263127707" lon="11.052347365396452"><ele>642.5</ele><time>2026-04-18T13:05:32Z</time></trkpt><trkpt lat="45.539072038448474" lon="11.052355373740085"><ele>642.25</ele><time>2026-04-18T13:05:33Z</time></trkpt><trkpt lat="45.5389558089046" lon="11.05236854125628"><ele>642.0</ele><time>2026-04-18T13:05:34Z</time></trkpt><trkpt lat="45.5388433058622" lon="11.052391313360252"><ele>642.0</ele><time>2026-04-18T13:05:35Z</time></trkpt><trkpt lat="45.538720203057714" lon="11.05240617403339"><ele>642.0</ele><time>2026-04-18T13:05:36Z</time></trkpt><trkpt lat="45.538593451563536" lon="11.052395587914376"><ele>642.0</ele><time>2026-04-18T13:05:37Z</time></trkpt><trkpt lat="45.538477807594134" lon="11.052367281830934"><ele>642.0</ele><time>2026-04-18T13:05:38Z</time></trkpt><trkpt lat="45.538373763994294" lon="11.052341033564462"><ele>642.2</ele><time>2026-04-18T13:05:39Z</time></trkpt><trkpt lat="45.53828177581445" lon="11.052309671934125"><ele>642.4000000000001</ele><time>2026-04-18T13:05:40Z</time></trkpt><trkpt lat="45.538200088631086" lon="11.052296980322069"><ele>642.5999999999999</ele><time>2026-04-18T13:05:41Z</time></trkpt><trkpt lat="45.538125210408175" lon="11.052300912485007"><ele>642.8</ele><time>2026-04-18T13:05:42Z</time></trkpt><trkpt lat="45.53802502581214" lon="11.05230283148918"><ele>643.0</ele><time>2026-04-18T13:05:43Z</time></trkpt><trkpt lat="45.53792766250885" lon="11.052292018014153"><ele>642.4</ele><time>2026-04-18T13:05:44Z</time></trkpt><trkpt lat="45.537828510229915" lon="11.052298783118076"><ele>641.8</ele><time>2026-04-18T13:05:45Z</time></trkpt><trkpt lat="45.53772926254169" lon="11.05231894958064"><ele>641.2</ele><time>2026-04-18T13:05:46Z</time></trkpt><trkpt lat="45.537626906430596" lon="11.052307984108195"><ele>640.6</ele><time>2026-04-18T13:05:47Z</time></trkpt><trkpt lat="45.537505745254414" lon="11.0522848111575"><ele>640.0</ele><time>2026-04-18T13:05:48Z</time></trkpt><trkpt lat="45.53739226587278" lon="11.052275909602967"><ele>640.0</ele><time>2026-04-18T13:05:49Z</time></trkpt><trkpt lat="45.537271180224046" lon="11.052259687689194"><ele>640.0</ele><time>2026-04-18T13:05:50Z</time></trkpt><trkpt lat="45.537167155794066" lon="11.052215876411099"><ele>640.0</ele><time>2026-04-18T13:05:51Z</time></trkpt><trkpt lat="45.53706994924589" lon="11.052142965352443"><ele>640.0</ele><time>2026-04-18T13:05:52Z</time></trkpt><trkpt lat="45.53694547111296" lon="11.052064161721958"><ele>636.5</ele><time>2026-04-18T13:05:53Z</time></trkpt><trkpt lat="45.53683312649249" lon="11.05200838112509"><ele>633.0</ele><time>2026-04-18T13:05:54Z</time></trkpt><trkpt lat="45.536721325143176" lon="11.051983678267348"><ele>629.5</ele><time>2026-04-18T13:05:55Z</time></trkpt><trkpt lat="45.536610281387226" lon="11.051952485699461"><ele>626.0</ele><time>2026-04-18T13:05:56Z</time></trkpt><trkpt lat="45.53650321087983" lon="11.051888847976816"><ele>626.0</ele><time>2026-04-18T13:05:57Z</time></trkpt><trkpt lat="45.536402906519236" lon="11.05182063239194"><ele>626.0</ele><time>2026-04-18T13:05:58Z</time></trkpt><trkpt lat="45.53629937191359" lon="11.051781101649643"><ele>626.0</ele><time>2026-04-18T13:05:59Z</time></trkpt><trkpt lat="45.536192994503516" lon="11.051777093005311"><ele>626.0</ele><time>2026-04-18T13:06:00Z</time></trkpt><trkpt lat="45.53608139854969" lon="11.051789143014124"><ele>626.0</ele><time>2026-04-18T13:06:01Z</time></trkpt><trkpt lat="45.53597029371214" lon="11.051796028442775"><ele>624.0</ele><time>2026-04-18T13:06:02Z</time></trkpt><trkpt lat="45.53586223073308" lon="11.051779587589621"><ele>622.0</ele><time>2026-04-18T13:06:03Z</time></trkpt><trkpt lat="45.53575435367644" lon="11.051731038519026"><ele>620.0</ele><time>2026-04-18T13:06:04Z</time></trkpt><trkpt lat="45.53565519144609" lon="11.05166420969254"><ele>618.0</ele><time>2026-04-18T13:06:05Z</time></trkpt><trkpt lat="45.53556347246048" lon="11.051576606682184"><ele>616.0</ele><time>2026-04-18T13:06:06Z</time></trkpt><trkpt lat="45.53545835901556" lon="11.051466128657461"><ele>613.0</ele><time>2026-04-18T13:06:07Z</time></trkpt><trkpt lat="45.535349481757464" lon="11.051352614097963"><ele>610.0</ele><time>2026-04-18T13:06:08Z</time></trkpt><trkpt lat="45.535246317384264" lon="11.051250095670348"><ele>607.0</ele><time>2026-04-18T13:06:09Z</time></trkpt><trkpt lat="45.53515857525502" lon="11.0511691010867"><ele>604.0</ele><time>2026-04-18T13:06:10Z</time></trkpt><trkpt lat="45.53507063873389" lon="11.051104327002662"><ele>604.0</ele><time>2026-04-18T13:06:11Z</time></trkpt><trkpt lat="45.53497460493556" lon="11.051037524939073"><ele>604.0</ele><time>2026-04-18T13:06:12Z</time></trkpt><trkpt lat="45.53487213963848" lon="11.050974621521267"><ele>604.0</ele><time>2026-04-18T13:06:13Z</time></trkpt><trkpt lat="45.53476237455225" lon="11.050904070136562"><ele>604.0</ele><time>2026-04-18T13:06:14Z</time></trkpt><trkpt lat="45.53466428837979" lon="11.050862262519217"><ele>604.0</ele><time>2026-04-18T13:06:15Z</time></trkpt><trkpt lat="45.53458111038345" lon="11.05084960762896"><ele>602.8</ele><time>2026-04-18T13:06:16Z</time></trkpt><trkpt lat="45.53449235188439" lon="11.050834522436919"><ele>601.5999999999999</ele><time>2026-04-18T13:06:18Z</time></trkpt><trkpt lat="45.53439952173833" lon="11.050803646198343"><ele>600.4</ele><time>2026-04-18T13:06:20Z</time></trkpt><trkpt lat="45.534284304152266" lon="11.050742330237876"><ele>599.1999999999999</ele><time>2026-04-18T13:06:22Z</time></trkpt><trkpt lat="45.53421664549003" lon="11.05072272464603"><ele>598.0</ele><time>2026-04-18T13:06:23Z</time></trkpt><trkpt lat="45.53414463952206" lon="11.050694121335301"><ele>596.1666666666667</ele><time>2026-04-18T13:06:24Z</time></trkpt><trkpt lat="45.534081251358515" lon="11.050652507020454"><ele>594.3333333333334</ele><time>2026-04-18T13:06:25Z</time></trkpt><trkpt lat="45.534019647508316" lon="11.050605051709045"><ele>592.5</ele><time>2026-04-18T13:06:26Z</time></trkpt><trkpt lat="45.53394418392531" lon="11.0505565802555"><ele>590.6666666666666</ele><time>2026-04-18T13:06:27Z</time></trkpt><trkpt lat="45.533845307117595" lon="11.050502717480677"><ele>588.8333333333333</ele><time>2026-04-18T13:06:28Z</time></trkpt><trkpt lat="45.53374870852115" lon="11.050438037631908"><ele>587.0</ele><time>2026-04-18T13:06:29Z</time></trkpt><trkpt lat="45.53365036815566" lon="11.050373898440576"><ele>586.6</ele><time>2026-04-18T13:06:30Z</time></trkpt><trkpt lat="45.53355008179832" lon="11.05032102287024"><ele>586.2</ele><time>2026-04-18T13:06:31Z</time></trkpt><trkpt lat="45.53344536314921" lon="11.050279627709477"><ele>585.8</ele><time>2026-04-18T13:06:32Z</time></trkpt><trkpt lat="45.53334210068343" lon="11.050249158991534"><ele>585.4</ele><time>2026-04-18T13:06:33Z</time></trkpt><trkpt lat="45.5332432030923" lon="11.050229505127112"><ele>585.0</ele><time>2026-04-18T13:06:34Z</time></trkpt><trkpt lat="45.53316239279887" lon="11.050210498074112"><ele>585.0</ele><time>2026-04-18T13:06:35Z</time></trkpt><trkpt lat="45.53308669317628" lon="11.050188399353951"><ele>585.0</ele><time>2026-04-18T13:06:36Z</time></trkpt><trkpt lat="45.533020991597034" lon="11.050146302972802"><ele>585.0</ele><time>2026-04-18T13:06:37Z</time></trkpt><trkpt lat="45.53295348899396" lon="11.050074801489062"><ele>585.0</ele><time>2026-04-18T13:06:38Z</time></trkpt><trkpt lat="45.53288832954096" lon="11.049979127603281"><ele>585.0</ele><time>2026-04-18T13:06:39Z</time></trkpt><trkpt lat="45.53283343599373" lon="11.04987019053123"><ele>585.0</ele><time>2026-04-18T13:06:40Z</time></trkpt><trkpt lat="45.53279326932918" lon="11.04976459442461"><ele>581.2</ele><time>2026-04-18T13:06:41Z</time></trkpt><trkpt lat="45.532754770873794" lon="11.04967499376826"><ele>577.4</ele><time>2026-04-18T13:06:42Z</time></trkpt><trkpt lat="45.53268958593965" lon="11.04962341927852"><ele>573.6</ele><time>2026-04-18T13:06:43Z</time></trkpt><trkpt lat="45.532596964465476" lon="11.049594822022874"><ele>569.8</ele><time>2026-04-18T13:06:44Z</time></trkpt><trkpt lat="45.5324879763723" lon="11.049590919336776"><ele>566.0</ele><time>2026-04-18T13:06:45Z</time></trkpt><trkpt lat="45.53236509555168" lon="11.049607241915307"><ele>566.0</ele><time>2026-04-18T13:06:46Z</time></trkpt><trkpt lat="45.53223178108118" lon="11.049613274940537"><ele>566.0</ele><time>2026-04-18T13:06:47Z</time></trkpt><trkpt lat="45.532085105149406" lon="11.049593979492562"><ele>566.0</ele><time>2026-04-18T13:06:48Z</time></trkpt><trkpt lat="45.53194942859181" lon="11.049585962171934"><ele>566.0</ele><time>2026-04-18T13:06:49Z</time></trkpt><trkpt lat="45.531805728894156" lon="11.04958377649797"><ele>565.0</ele><time>2026-04-18T13:06:50Z</time></trkpt><trkpt lat="45.531665765274745" lon="11.049587279330993"><ele>564.0</ele><time>2026-04-18T13:06:51Z</time></trkpt><trkpt lat="45.531515189614574" lon="11.049559648805884"><ele>563.0</ele><time>2026-04-18T13:06:52Z</time></trkpt><trkpt lat="45.531354424651035" lon="11.0495216982954"><ele>562.75</ele><time>2026-04-18T13:06:53Z</time></trkpt><trkpt lat="45.531215650364466" lon="11.049486561358547"><ele>562.5</ele><time>2026-04-18T13:06:54Z</time></trkpt><trkpt lat="45.53107881076631" lon="11.049452061419732"><ele>562.25</ele><time>2026-04-18T13:06:55Z</time></trkpt><trkpt lat="45.53094731397932" lon="11.049424189158449"><ele>562.0</ele><time>2026-04-18T13:06:56Z</time></trkpt><trkpt lat="45.530816927926686" lon="11.049392102282622"><ele>562.0</ele><time>2026-04-18T13:06:57Z</time></trkpt><trkpt lat="45.530695280207446" lon="11.049338966196625"><ele>562.0</ele><time>2026-04-18T13:06:58Z</time></trkpt><trkpt lat="45.530569282738774" lon="11.049281383237917"><ele>562.0</ele><time>2026-04-18T13:06:59Z</time></trkpt><trkpt lat="45.5304380290666" lon="11.049241915883494"><ele>562.0</ele><time>2026-04-18T13:07:00Z</time></trkpt><trkpt lat="45.53028718841578" lon="11.049223751636914"><ele>560.0</ele><time>2026-04-18T13:07:01Z</time></trkpt><trkpt lat="45.53013691796535" lon="11.049226206569049"><ele>558.0</ele><time>2026-04-18T13:07:02Z</time></trkpt><trkpt lat="45.529987643815836" lon="11.049247100256038"><ele>556.0</ele><time>2026-04-18T13:07:03Z</time></trkpt><trkpt lat="45.52983691035272" lon="11.049276453482422"><ele>556.0</ele><time>2026-04-18T13:07:04Z</time></trkpt><trkpt lat="45.529702496795856" lon="11.049304166639676"><ele>556.0</ele><time>2026-04-18T13:07:05Z</time></trkpt><trkpt lat="45.52958191261071" lon="11.04931706892473"><ele>556.0</ele><time>2026-04-18T13:07:06Z</time></trkpt><trkpt lat="45.52946127978045" lon="11.049317863760294"><ele>556.0</ele><time>2026-04-18T13:07:07Z</time></trkpt><trkpt lat="45.5293390804228" lon="11.049321362826705"><ele>553.0</ele><time>2026-04-18T13:07:08Z</time></trkpt><trkpt lat="45.52921573396159" lon="11.049334104917122"><ele>550.0</ele><time>2026-04-18T13:07:09Z</time></trkpt><trkpt lat="45.529096064157415" lon="11.049349768067545"><ele>547.0</ele><time>2026-04-18T13:07:10Z</time></trkpt><trkpt lat="45.52897315987188" lon="11.049367341067157"><ele>544.0</ele><time>2026-04-18T13:07:11Z</time></trkpt><trkpt lat="45.52884135095123" lon="11.049388164975854"><ele>541.25</ele><time>2026-04-18T13:07:12Z</time></trkpt><trkpt lat="45.52871289520124" lon="11.049403609237334"><ele>538.5</ele><time>2026-04-18T13:07:13Z</time></trkpt><trkpt lat="45.528587236225114" lon="11.04942287102436"><ele>535.75</ele><time>2026-04-18T13:07:14Z</time></trkpt><trkpt lat="45.52847889033425" lon="11.049434421010627"><ele>533.0</ele><time>2026-04-18T13:07:15Z</time></trkpt><trkpt lat="45.528373014461124" lon="11.04945202968234"><ele>533.0</ele><time>2026-04-18T13:07:16Z</time></trkpt><trkpt lat="45.52825679707249" lon="11.049465677773675"><ele>533.0</ele><time>2026-04-18T13:07:17Z</time></trkpt><trkpt lat="45.5281345368612" lon="11.049460156024121"><ele>533.0</ele><time>2026-04-18T13:07:18Z</time></trkpt><trkpt lat="45.52800926042293" lon="11.049434281123776"><ele>533.0</ele><time>2026-04-18T13:07:19Z</time></trkpt><trkpt lat="45.52788649631675" lon="11.049400421822336"><ele>529.5</ele><time>2026-04-18T13:07:20Z</time></trkpt><trkpt lat="45.52776222226038" lon="11.04937978813741"><ele>526.0</ele><time>2026-04-18T13:07:21Z</time></trkpt><trkpt lat="45.52763490896273" lon="11.049398220425653"><ele>522.5</ele><time>2026-04-18T13:07:22Z</time></trkpt><trkpt lat="45.527505698004084" lon="11.049421385078938"><ele>519.0</ele><time>2026-04-18T13:07:23Z</time></trkpt><trkpt lat="45.52737485648186" lon="11.049445863981456"><ele>519.0</ele><time>2026-04-18T13:07:24Z</time></trkpt><trkpt lat="45.52723644018464" lon="11.049484755718051"><ele>519.0</ele><time>2026-04-18T13:07:25Z</time></trkpt><trkpt lat="45.52710240315944" lon="11.04952593478429"><ele>519.0</ele><time>2026-04-18T13:07:26Z</time></trkpt><trkpt lat="45.52696835135084" lon="11.049586183806092"><ele>519.0</ele><time>2026-04-18T13:07:27Z</time></trkpt><trkpt lat="45.52683249984285" lon="11.049652664307501"><ele>515.3333333333334</ele><time>2026-04-18T13:07:28Z</time></trkpt><trkpt lat="45.52669206664617" lon="11.049716200963378"><ele>511.6666666666667</ele><time>2026-04-18T13:07:29Z</time></trkpt><trkpt lat="45.526539625640204" lon="11.049774383746389"><ele>508.0</ele><time>2026-04-18T13:07:30Z</time></trkpt><trkpt lat="45.52638605809861" lon="11.049827964076858"><ele>508.0</ele><time>2026-04-18T13:07:31Z</time></trkpt><trkpt lat="45.5262335031704" lon="11.049885780700148"><ele>508.0</ele><time>2026-04-18T13:07:32Z</time></trkpt><trkpt lat="45.52606933170721" lon="11.049950362558333"><ele>508.0</ele><time>2026-04-18T13:07:33Z</time></trkpt><trkpt lat="45.52591339336085" lon="11.050011577133464"><ele>500.0</ele><time>2026-04-18T13:07:34Z</time></trkpt><trkpt lat="45.52575853135381" lon="11.05006940167757"><ele>492.0</ele><time>2026-04-18T13:07:35Z</time></trkpt><trkpt lat="45.52559483847183" lon="11.050102718431956"><ele>484.0</ele><time>2026-04-18T13:07:36Z</time></trkpt><trkpt lat="45.525425446769795" lon="11.050103186958403"><ele>481.5</ele><time>2026-04-18T13:07:37Z</time></trkpt><trkpt lat="45.52526967251701" lon="11.050076641496544"><ele>479.0</ele><time>2026-04-18T13:07:38Z</time></trkpt><trkpt lat="45.52512387423427" lon="11.05005928992338"><ele>476.5</ele><time>2026-04-18T13:07:39Z</time></trkpt><trkpt lat="45.52498184572699" lon="11.050050177892613"><ele>474.0</ele><time>2026-04-18T13:07:40Z</time></trkpt><trkpt lat="45.52484383194304" lon="11.050043248910718"><ele>474.0</ele><time>2026-04-18T13:07:41Z</time></trkpt><trkpt lat="45.524719119367695" lon="11.050031463072681"><ele>474.0</ele><time>2026-04-18T13:07:42Z</time></trkpt><trkpt lat="45.52459203255993" lon="11.050020856637405"><ele>474.0</ele><time>2026-04-18T13:07:43Z</time></trkpt><trkpt lat="45.52449274919342" lon="11.050017357736635"><ele>474.0</ele><time>2026-04-18T13:07:44Z</time></trkpt><trkpt lat="45.52439767964873" lon="11.050006954619654"><ele>474.0</ele><time>2026-04-18T13:07:45Z</time></trkpt><trkpt lat="45.52431697611711" lon="11.050019675716127"><ele>472.6666666666667</ele><time>2026-04-18T13:07:46Z</time></trkpt><trkpt lat="45.52425536737734" lon="11.05006153868647"><ele>471.33333333333337</ele><time>2026-04-18T13:07:47Z</time></trkpt><trkpt lat="45.52420404851017" lon="11.05013953902959"><ele>470.0</ele><time>2026-04-18T13:07:48Z</time></trkpt><trkpt lat="45.52416198623871" lon="11.050224522739242"><ele>468.6666666666667</ele><time>2026-04-18T13:07:49Z</time></trkpt><trkpt lat="45.52408826482444" lon="11.050369554239621"><ele>467.33333333333337</ele><time>2026-04-18T13:07:51Z</time></trkpt><trkpt lat="45.52401774791027" lon="11.05042925077465"><ele>466.0</ele><time>2026-04-18T13:07:53Z</time></trkpt><trkpt lat="45.52393241887352" lon="11.050455473787467"><ele>466.0</ele><time>2026-04-18T13:07:55Z</time></trkpt><trkpt lat="45.52385197352384" lon="11.050508093417951"><ele>466.0</ele><time>2026-04-18T13:07:58Z</time></trkpt><trkpt lat="45.523766506285675" lon="11.05058558729062"><ele>466.0</ele><time>2026-04-18T13:08:00Z</time></trkpt><trkpt lat="45.52368812523613" lon="11.050629430940248"><ele>466.0</ele><time>2026-04-18T13:08:01Z</time></trkpt><trkpt lat="45.523593095725545" lon="11.05068105962666"><ele>466.0</ele><time>2026-04-18T13:08:02Z</time></trkpt><trkpt lat="45.52348076232651" lon="11.050729681819098"><ele>464.75</ele><time>2026-04-18T13:08:03Z</time></trkpt><trkpt lat="45.5233629396656" lon="11.050772074239804"><ele>463.5</ele><time>2026-04-18T13:08:04Z</time></trkpt><trkpt lat="45.523223346420764" lon="11.05082029236767"><ele>462.25</ele><time>2026-04-18T13:08:05Z</time></trkpt><trkpt lat="45.52309620522444" lon="11.050869679915113"><ele>461.0</ele><time>2026-04-18T13:08:06Z</time></trkpt><trkpt lat="45.52298332257496" lon="11.050908870157045"><ele>461.5</ele><time>2026-04-18T13:08:07Z</time></trkpt><trkpt lat="45.522876078865906" lon="11.050938281925056"><ele>462.0</ele><time>2026-04-18T13:08:08Z</time></trkpt><trkpt lat="45.52276231835473" lon="11.050963953979608"><ele>462.5</ele><time>2026-04-18T13:08:09Z</time></trkpt><trkpt lat="45.522640195287785" lon="11.050964419730578"><ele>463.0</ele><time>2026-04-18T13:08:10Z</time></trkpt><trkpt lat="45.52251085780223" lon="11.050943094006579"><ele>463.0</ele><time>2026-04-18T13:08:11Z</time></trkpt><trkpt lat="45.52236491752802" lon="11.050901418862198"><ele>463.0</ele><time>2026-04-18T13:08:12Z</time></trkpt><trkpt lat="45.52221051151838" lon="11.05082819399919"><ele>463.0</ele><time>2026-04-18T13:08:13Z</time></trkpt><trkpt lat="45.52205688042902" lon="11.050734742877168"><ele>462.33333333333337</ele><time>2026-04-18T13:08:14Z</time></trkpt><trkpt lat="45.521884608596835" lon="11.050651012616896"><ele>461.66666666666663</ele><time>2026-04-18T13:08:15Z</time></trkpt><trkpt lat="45.52169888170947" lon="11.050586050900673"><ele>461.0</ele><time>2026-04-18T13:08:16Z</time></trkpt><trkpt lat="45.52152775090343" lon="11.050550631641388"><ele>461.0</ele><time>2026-04-18T13:08:17Z</time></trkpt><trkpt lat="45.52136363768277" lon="11.050545741994416"><ele>461.0</ele><time>2026-04-18T13:08:18Z</time></trkpt><trkpt lat="45.52119724609" lon="11.05054792482106"><ele>461.0</ele><time>2026-04-18T13:08:19Z</time></trkpt><trkpt lat="45.521040288579876" lon="11.050545362004122"><ele>460.5</ele><time>2026-04-18T13:08:20Z</time></trkpt><trkpt lat="45.52088464756964" lon="11.050562031287654"><ele>460.0</ele><time>2026-04-18T13:08:21Z</time></trkpt><trkpt lat="45.52074549483944" lon="11.050590835222438"><ele>459.5</ele><time>2026-04-18T13:08:22Z</time></trkpt><trkpt lat="45.52062812685122" lon="11.05062898127468"><ele>459.0</ele><time>2026-04-18T13:08:23Z</time></trkpt><trkpt lat="45.52052587701121" lon="11.050668382036609"><ele>459.0</ele><time>2026-04-18T13:08:24Z</time></trkpt><trkpt lat="45.520416275137215" lon="11.05070388863948"><ele>459.0</ele><time>2026-04-18T13:08:25Z</time></trkpt><trkpt lat="45.52031005765942" lon="11.050740829619318"><ele>459.0</ele><time>2026-04-18T13:08:26Z</time></trkpt><trkpt lat="45.52021219769405" lon="11.050778558278681"><ele>459.0</ele><time>2026-04-18T13:08:27Z</time></trkpt><trkpt lat="45.52010483817873" lon="11.050812737411828"><ele>459.0</ele><time>2026-04-18T13:08:28Z</time></trkpt><trkpt lat="45.52000206024752" lon="11.05084113289913"><ele>462.0</ele><time>2026-04-18T13:08:29Z</time></trkpt><trkpt lat="45.51990423380178" lon="11.050882492288657"><ele>465.0</ele><time>2026-04-18T13:08:30Z</time></trkpt><trkpt lat="45.51981479423309" lon="11.050930470129742"><ele>468.0</ele><time>2026-04-18T13:08:31Z</time></trkpt><trkpt lat="45.5197187946337" lon="11.05097497041862"><ele>471.0</ele><time>2026-04-18T13:08:32Z</time></trkpt><trkpt lat="45.51961751235193" lon="11.05102032564027"><ele>474.0</ele><time>2026-04-18T13:08:33Z</time></trkpt><trkpt lat="45.51952422400135" lon="11.051055747196541"><ele>474.4</ele><time>2026-04-18T13:08:34Z</time></trkpt><trkpt lat="45.51943346463056" lon="11.051084056621484"><ele>474.79999999999995</ele><time>2026-04-18T13:08:35Z</time></trkpt><trkpt lat="45.51933362679135" lon="11.051098533262657"><ele>475.20000000000005</ele><time>2026-04-18T13:08:36Z</time></trkpt><trkpt lat="45.5192406092731" lon="11.051097769441178"><ele>475.6</ele><time>2026-04-18T13:08:37Z</time></trkpt><trkpt lat="45.51915049188461" lon="11.05109578038696"><ele>476.0</ele><time>2026-04-18T13:08:38Z</time></trkpt><trkpt lat="45.51907300812416" lon="11.051097229378762"><ele>476.0</ele><time>2026-04-18T13:08:39Z</time></trkpt><trkpt lat="45.518996130548985" lon="11.051099039607633"><ele>476.0</ele><time>2026-04-18T13:08:40Z</time></trkpt><trkpt lat="45.51892346626049" lon="11.051106699406866"><ele>476.0</ele><time>2026-04-18T13:08:41Z</time></trkpt><trkpt lat="45.518835583649924" lon="11.05111306143078"><ele>476.0</ele><time>2026-04-18T13:08:42Z</time></trkpt><trkpt lat="45.51873367190531" lon="11.051123661641455"><ele>476.0</ele><time>2026-04-18T13:08:43Z</time></trkpt><trkpt lat="45.51861844783049" lon="11.051132415399556"><ele>476.66666666666663</ele><time>2026-04-18T13:08:44Z</time></trkpt><trkpt lat="45.51850781591461" lon="11.051137937813904"><ele>477.3333333333333</ele><time>2026-04-18T13:08:45Z</time></trkpt><trkpt lat="45.51841987883185" lon="11.051145849434484"><ele>478.0</ele><time>2026-04-18T13:08:46Z</time></trkpt><trkpt lat="45.51834958433565" lon="11.051149005870851"><ele>478.66666666666663</ele><time>2026-04-18T13:08:47Z</time></trkpt><trkpt lat="45.51826249551417" lon="11.051170011701037"><ele>479.3333333333333</ele><time>2026-04-18T13:08:49Z</time></trkpt><trkpt lat="45.51818694233719" lon="11.05117555709058"><ele>480.0</ele><time>2026-04-18T13:08:52Z</time></trkpt><trkpt lat="45.51812052617629" lon="11.051221413757169"><ele>480.0</ele><time>2026-04-18T13:08:55Z</time></trkpt><trkpt lat="45.51805856395821" lon="11.051269755781025"><ele>480.0</ele><time>2026-04-18T13:08:56Z</time></trkpt><trkpt lat="45.517964393580044" lon="11.051348918906976"><ele>480.0</ele><time>2026-04-18T13:08:57Z</time></trkpt><trkpt lat="45.51788638811142" lon="11.051419083680901"><ele>480.0</ele><time>2026-04-18T13:08:58Z</time></trkpt><trkpt lat="45.517811042863784" lon="11.05147810511535"><ele>480.0</ele><time>2026-04-18T13:08:59Z</time></trkpt><trkpt lat="45.517736664833755" lon="11.051552526807745"><ele>480.0</ele><time>2026-04-18T13:09:00Z</time></trkpt><trkpt lat="45.517650775905956" lon="11.051634843110449"><ele>478.1666666666667</ele><time>2026-04-18T13:09:01Z</time></trkpt><trkpt lat="45.517575933458325" lon="11.05170782555226"><ele>476.33333333333337</ele><time>2026-04-18T13:09:02Z</time></trkpt><trkpt lat="45.51752780265922" lon="11.051800146361849"><ele>474.5</ele><time>2026-04-18T13:09:03Z</time></trkpt><trkpt lat="45.51749534810992" lon="11.051933870531006"><ele>472.6666666666667</ele><time>2026-04-18T13:09:04Z</time></trkpt><trkpt lat="45.51747348892964" lon="11.052046231640041"><ele>470.83333333333337</ele><time>2026-04-18T13:09:05Z</time></trkpt><trkpt lat="45.51743773500721" lon="11.052141748794076"><ele>469.0</ele><time>2026-04-18T13:09:06Z</time></trkpt><trkpt lat="45.517388452947394" lon="11.052212330247759"><ele>469.00000000000006</ele><time>2026-04-18T13:09:07Z</time></trkpt><trkpt lat="45.51729472999066" lon="11.05223075045136"><ele>469.0</ele><time>2026-04-18T13:09:08Z</time></trkpt><trkpt lat="45.517183732177365" lon="11.05221207961081"><ele>469.0</ele><time>2026-04-18T13:09:09Z</time></trkpt><trkpt lat="45.517096500298514" lon="11.052186568763775"><ele>469.0</ele><time>2026-04-18T13:09:10Z</time></trkpt><trkpt lat="45.51702762735619" lon="11.052194224502616"><ele>469.00000000000006</ele><time>2026-04-18T13:09:11Z</time></trkpt><trkpt lat="45.51696700692371" lon="11.052257006207457"><ele>469.0</ele><time>2026-04-18T13:09:12Z</time></trkpt><trkpt lat="45.51690740116363" lon="11.052358884536606"><ele>466.4</ele><time>2026-04-18T13:09:13Z</time></trkpt><trkpt lat="45.51683929237822" lon="11.05246154135741"><ele>463.79999999999995</ele><time>2026-04-18T13:09:14Z</time></trkpt><trkpt lat="45.51676539006341" lon="11.05253921822438"><ele>461.20000000000005</ele><time>2026-04-18T13:09:15Z</time></trkpt><trkpt lat="45.516683720911814" lon="11.05260518005207"><ele>458.6</ele><time>2026-04-18T13:09:16Z</time></trkpt><trkpt lat="45.51658971358993" lon="11.052659068850673"><ele>456.0</ele><time>2026-04-18T13:09:17Z</time></trkpt><trkpt lat="45.51651193579218" lon="11.052726703692558"><ele>456.0</ele><time>2026-04-18T13:09:18Z</time></trkpt><trkpt lat="45.516440521599506" lon="11.05278909573012"><ele>456.0</ele><time>2026-04-18T13:09:19Z</time></trkpt><trkpt lat="45.516370615611784" lon="11.052864150050548"><ele>456.0</ele><time>2026-04-18T13:09:20Z</time></trkpt><trkpt lat="45.51629370188052" lon="11.052952852265511"><ele>456.0</ele><time>2026-04-18T13:09:21Z</time></trkpt><trkpt lat="45.516220392465094" lon="11.05304236684036"><ele>456.0</ele><time>2026-04-18T13:09:22Z</time></trkpt><trkpt lat="45.516145065191864" lon="11.053130745468213"><ele>455.8333333333333</ele><time>2026-04-18T13:09:23Z</time></trkpt><trkpt lat="45.51608078866356" lon="11.053215750940335"><ele>455.66666666666663</ele><time>2026-04-18T13:09:24Z</time></trkpt><trkpt lat="45.51602346695537" lon="11.053295463199763"><ele>455.5</ele><time>2026-04-18T13:09:25Z</time></trkpt><trkpt lat="45.51596484456352" lon="11.05337051570776"><ele>455.3333333333333</ele><time>2026-04-18T13:09:26Z</time></trkpt><trkpt lat="45.5159127333102" lon="11.053444417501954"><ele>455.16666666666663</ele><time>2026-04-18T13:09:27Z</time></trkpt><trkpt lat="45.51585920052239" lon="11.053519763506666"><ele>455.0</ele><time>2026-04-18T13:09:28Z</time></trkpt><trkpt lat="45.51580942558077" lon="11.053600836820623"><ele>453.6</ele><time>2026-04-18T13:09:29Z</time></trkpt><trkpt lat="45.51574529543599" lon="11.05369805159328"><ele>452.2</ele><time>2026-04-18T13:09:30Z</time></trkpt><trkpt lat="45.51567467811468" lon="11.053786595436206"><ele>450.79999999999995</ele><time>2026-04-18T13:09:31Z</time></trkpt><trkpt lat="45.51559502488636" lon="11.053883745034302"><ele>449.4</ele><time>2026-04-18T13:09:32Z</time></trkpt><trkpt lat="45.51550773796725" lon="11.053976944608502"><ele>448.0</ele><time>2026-04-18T13:09:33Z</time></trkpt><trkpt lat="45.51543253725703" lon="11.054050370510684"><ele>448.00000000000006</ele><time>2026-04-18T13:09:34Z</time></trkpt><trkpt lat="45.51536297974555" lon="11.05410496891938"><ele>448.0</ele><time>2026-04-18T13:09:35Z</time></trkpt><trkpt lat="45.51531302547999" lon="11.054169432812401"><ele>448.0</ele><time>2026-04-18T13:09:36Z</time></trkpt><trkpt lat="45.51529388295877" lon="11.054260545749285"><ele>448.0</ele><time>2026-04-18T13:09:37Z</time></trkpt><trkpt lat="45.515294501975454" lon="11.054383814113066"><ele>448.00000000000006</ele><time>2026-04-18T13:09:38Z</time></trkpt><trkpt lat="45.51528557979971" lon="11.054511567739704"><ele>448.0</ele><time>2026-04-18T13:09:39Z</time></trkpt><trkpt lat="45.51525339439151" lon="11.054655575503263"><ele>448.0</ele><time>2026-04-18T13:09:40Z</time></trkpt><trkpt lat="45.51520759740346" lon="11.054826305098825"><ele>447.99999999999994</ele><time>2026-04-18T13:09:41Z</time></trkpt><trkpt lat="45.515161233041006" lon="11.054973381633243"><ele>447.99999999999994</ele><time>2026-04-18T13:09:42Z</time></trkpt><trkpt lat="45.51511879449663" lon="11.055108970875743"><ele>448.0</ele><time>2026-04-18T13:09:43Z</time></trkpt><trkpt lat="45.51508482249181" lon="11.0552303278158"><ele>448.0</ele><time>2026-04-18T13:09:44Z</time></trkpt><trkpt lat="45.515070400681644" lon="11.05534847591264"><ele>446.79999999999995</ele><time>2026-04-18T13:09:45Z</time></trkpt><trkpt lat="45.51505296071418" lon="11.05548189349225"><ele>445.59999999999997</ele><time>2026-04-18T13:09:46Z</time></trkpt><trkpt lat="45.515006646874056" lon="11.055615043923058"><ele>444.40000000000003</ele><time>2026-04-18T13:09:47Z</time></trkpt><trkpt lat="45.51494466678968" lon="11.055756493825715"><ele>443.20000000000005</ele><time>2026-04-18T13:09:48Z</time></trkpt><trkpt lat="45.514883050741894" lon="11.055888277959008"><ele>442.0</ele><time>2026-04-18T13:09:49Z</time></trkpt><trkpt lat="45.51482464751203" lon="11.056007889508404"><ele>441.6666666666667</ele><time>2026-04-18T13:09:50Z</time></trkpt><trkpt lat="45.514761612025104" lon="11.056110434361198"><ele>441.33333333333337</ele><time>2026-04-18T13:09:51Z</time></trkpt><trkpt lat="45.51468907811883" lon="11.056211864595143"><ele>441.0</ele><time>2026-04-18T13:09:52Z</time></trkpt><trkpt lat="45.51461709334022" lon="11.056284733671298"><ele>440.66666666666663</ele><time>2026-04-18T13:09:53Z</time></trkpt><trkpt lat="45.51454348745821" lon="11.056334918226145"><ele>440.3333333333333</ele><time>2026-04-18T13:09:54Z</time></trkpt><trkpt lat="45.51448277842621" lon="11.056394985334386"><ele>440.0</ele><time>2026-04-18T13:09:55Z</time></trkpt><trkpt lat="45.51442636922884" lon="11.056506783280506"><ele>439.99999999999994</ele><time>2026-04-18T13:09:56Z</time></trkpt><trkpt lat="45.51438345628486" lon="11.056616776685006"><ele>440.0</ele><time>2026-04-18T13:09:57Z</time></trkpt><trkpt lat="45.51434270502506" lon="11.05670419639467"><ele>440.0</ele><time>2026-04-18T13:09:58Z</time></trkpt><trkpt lat="45.51427721239342" lon="11.0567909715803"><ele>440.0</ele><time>2026-04-18T13:09:59Z</time></trkpt><trkpt lat="45.514201223044935" lon="11.056876810827305"><ele>439.99999999999994</ele><time>2026-04-18T13:10:00Z</time></trkpt><trkpt lat="45.51412549509792" lon="11.056927362140732"><ele>440.0</ele><time>2026-04-18T13:10:01Z</time></trkpt><trkpt lat="45.51404228892138" lon="11.056974472150824"><ele>438.3333333333333</ele><time>2026-04-18T13:10:02Z</time></trkpt><trkpt lat="45.51398633111205" lon="11.057028654157332"><ele>436.66666666666663</ele><time>2026-04-18T13:10:03Z</time></trkpt><trkpt lat="45.5139197464297" lon="11.057120135213676"><ele>435.0</ele><time>2026-04-18T13:10:05Z</time></trkpt><trkpt lat="45.51384439233672" lon="11.057202879072001"><ele>433.33333333333337</ele><time>2026-04-18T13:10:07Z</time></trkpt><trkpt lat="45.513797431643766" lon="11.057270941649135"><ele>431.6666666666667</ele><time>2026-04-18T13:10:09Z</time></trkpt><trkpt lat="45.5137343201676" lon="11.057350938942617"><ele>430.0</ele><time>2026-04-18T13:10:12Z</time></trkpt><trkpt lat="45.51367456652801" lon="11.057386350086901"><ele>426.8</ele><time>2026-04-18T13:10:13Z</time></trkpt><trkpt lat="45.513578271013245" lon="11.05746960827778"><ele>423.6</ele><time>2026-04-18T13:10:15Z</time></trkpt><trkpt lat="45.513514906794136" lon="11.057555239690746"><ele>420.4</ele><time>2026-04-18T13:10:17Z</time></trkpt><trkpt lat="45.5134182920731" lon="11.057515477323397"><ele>417.2</ele><time>2026-04-18T13:10:19Z</time></trkpt><trkpt lat="45.51331707753461" lon="11.057482424007125"><ele>414.0</ele><time>2026-04-18T13:10:21Z</time></trkpt><trkpt lat="45.513239489967575" lon="11.05748262923008"><ele>412.8333333333333</ele><time>2026-04-18T13:10:23Z</time></trkpt><trkpt lat="45.513158953607466" lon="11.057438508981557"><ele>411.66666666666663</ele><time>2026-04-18T13:10:25Z</time></trkpt><trkpt lat="45.513052993798865" lon="11.057403001560116"><ele>410.5</ele><time>2026-04-18T13:10:27Z</time></trkpt><trkpt lat="45.51298273733632" lon="11.057390025871056"><ele>409.3333333333333</ele><time>2026-04-18T13:10:28Z</time></trkpt><trkpt lat="45.51292028495355" lon="11.057355432936768"><ele>408.16666666666663</ele><time>2026-04-18T13:10:29Z</time></trkpt><trkpt lat="45.512863512653425" lon="11.057310757117598"><ele>407.0</ele><time>2026-04-18T13:10:30Z</time></trkpt><trkpt lat="45.51285710345681" lon="11.057405719287614"><ele>406.99999999999994</ele><time>2026-04-18T13:10:34Z</time></trkpt><trkpt lat="45.512953945724234" lon="11.057539896188011"><ele>407.0</ele><time>2026-04-18T13:10:36Z</time></trkpt><trkpt lat="45.512975877610195" lon="11.057640813974215"><ele>407.0</ele><time>2026-04-18T13:10:38Z</time></trkpt><trkpt lat="45.51290340553776" lon="11.057633550262013"><ele>407.0</ele><time>2026-04-18T13:10:40Z</time></trkpt><trkpt lat="45.51283953407156" lon="11.05757792580606"><ele>406.99999999999994</ele><time>2026-04-18T13:10:41Z</time></trkpt><trkpt lat="45.51276869321768" lon="11.057503511612824"><ele>407.0</ele><time>2026-04-18T13:10:42Z</time></trkpt><trkpt lat="45.512703782792556" lon="11.057417469693164"><ele>407.0</ele><time>2026-04-18T13:10:43Z</time></trkpt><trkpt lat="45.51264681043456" lon="11.057377540199067"><ele>407.0</ele><time>2026-04-18T13:10:44Z</time></trkpt><trkpt lat="45.51256194125595" lon="11.057255359583014"><ele>407.0</ele><time>2026-04-18T13:10:46Z</time></trkpt><trkpt lat="45.512447247744014" lon="11.057170513092343"><ele>407.0</ele><time>2026-04-18T13:10:48Z</time></trkpt><trkpt lat="45.51238706880935" lon="11.057109995655175"><ele>407.0</ele><time>2026-04-18T13:10:49Z</time></trkpt><trkpt lat="45.51232912736872" lon="11.057022085346919"><ele>407.0</ele><time>2026-04-18T13:10:50Z</time></trkpt><trkpt lat="45.512236901164435" lon="11.056923341929533"><ele>407.0</ele><time>2026-04-18T13:10:52Z</time></trkpt><trkpt lat="45.51215562766855" lon="11.056844086874968"><ele>407.0</ele><time>2026-04-18T13:10:53Z</time></trkpt><trkpt lat="45.51209299187478" lon="11.056761912565909"><ele>407.0</ele><time>2026-04-18T13:10:54Z</time></trkpt><trkpt lat="45.51199568806172" lon="11.056645522626972"><ele>407.0</ele><time>2026-04-18T13:10:56Z</time></trkpt><trkpt lat="45.51192557251402" lon="11.056584632317774"><ele>405.49999999999994</ele><time>2026-04-18T13:10:57Z</time></trkpt><trkpt lat="45.51187434420341" lon="11.056528014891848"><ele>404.0</ele><time>2026-04-18T13:10:58Z</time></trkpt><trkpt lat="45.51181510074109" lon="11.056458179964292"><ele>402.5</ele><time>2026-04-18T13:10:59Z</time></trkpt><trkpt lat="45.51175671962773" lon="11.056357081332285"><ele>401.0</ele><time>2026-04-18T13:11:00Z</time></trkpt><trkpt lat="45.511703944847376" lon="11.05627429884824"><ele>399.49999999999994</ele><time>2026-04-18T13:11:01Z</time></trkpt><trkpt lat="45.51164622850902" lon="11.056208241152605"><ele>398.0</ele><time>2026-04-18T13:11:02Z</time></trkpt><trkpt lat="45.511577332106754" lon="11.056125333523088"><ele>397.99999999999994</ele><time>2026-04-18T13:11:03Z</time></trkpt><trkpt lat="45.51151208464638" lon="11.05603292164016"><ele>398.0</ele><time>2026-04-18T13:11:04Z</time></trkpt><trkpt lat="45.51145613425354" lon="11.055954039192873"><ele>398.0</ele><time>2026-04-18T13:11:05Z</time></trkpt><trkpt lat="45.511414647109206" lon="11.05587665734859"><ele>398.0</ele><time>2026-04-18T13:11:06Z</time></trkpt><trkpt lat="45.511364049787055" lon="11.055793208822715"><ele>397.99999999999994</ele><time>2026-04-18T13:11:07Z</time></trkpt><trkpt lat="45.51130400060769" lon="11.05564540687388"><ele>398.0</ele><time>2026-04-18T13:11:09Z</time></trkpt><trkpt lat="45.511258033044456" lon="11.055571984763313"><ele>396.16666666666663</ele><time>2026-04-18T13:11:10Z</time></trkpt><trkpt lat="45.511183459334276" lon="11.055462907704568"><ele>394.3333333333333</ele><time>2026-04-18T13:11:11Z</time></trkpt><trkpt lat="45.51113517921209" lon="11.055362703289946"><ele>392.5</ele><time>2026-04-18T13:11:12Z</time></trkpt><trkpt lat="45.511113713168726" lon="11.055267742478238"><ele>390.66666666666663</ele><time>2026-04-18T13:11:13Z</time></trkpt><trkpt lat="45.51103931410916" lon="11.055167997522148"><ele>388.8333333333333</ele><time>2026-04-18T13:11:15Z</time></trkpt><trkpt lat="45.510994851168405" lon="11.055092291922422"><ele>387.0</ele><time>2026-04-18T13:11:16Z</time></trkpt><trkpt lat="45.51096238701638" lon="11.054954891480982"><ele>388.20000000000005</ele><time>2026-04-18T13:11:18Z</time></trkpt><trkpt lat="45.51089735024785" lon="11.054808435865302"><ele>389.4</ele><time>2026-04-18T13:11:20Z</time></trkpt><trkpt lat="45.510828524697104" lon="11.054665700936487"><ele>390.6</ele><time>2026-04-18T13:11:22Z</time></trkpt><trkpt lat="45.510797876383386" lon="11.054580594303308"><ele>391.79999999999995</ele><time>2026-04-18T13:11:23Z</time></trkpt><trkpt lat="45.51076520735291" lon="11.054488943961385"><ele>393.0</ele><time>2026-04-18T13:11:25Z</time></trkpt><trkpt lat="45.5107121538865" lon="11.054550952994427"><ele>393.0</ele><time>2026-04-18T13:11:28Z</time></trkpt><trkpt lat="45.51073325786437" lon="11.054696978919024"><ele>393.0</ele><time>2026-04-18T13:11:31Z</time></trkpt><trkpt lat="45.51065303859272" lon="11.054708540359458"><ele>393.0</ele><time>2026-04-18T13:11:34Z</time></trkpt><trkpt lat="45.510570118766175" lon="11.054613542706912"><ele>393.0</ele><time>2026-04-18T13:11:36Z</time></trkpt><trkpt lat="45.51051163935584" lon="11.054576119387939"><ele>393.0</ele><time>2026-04-18T13:11:37Z</time></trkpt><trkpt lat="45.51042998857969" lon="11.054502050004302"><ele>388.8333333333333</ele><time>2026-04-18T13:11:39Z</time></trkpt><trkpt lat="45.510333334853" lon="11.054517840443582"><ele>384.6666666666667</ele><time>2026-04-18T13:11:42Z</time></trkpt><trkpt lat="45.51026159929406" lon="11.05447816714609"><ele>380.5</ele><time>2026-04-18T13:11:45Z</time></trkpt><trkpt lat="45.51017976103563" lon="11.054505808347589"><ele>376.33333333333337</ele><time>2026-04-18T13:11:47Z</time></trkpt><trkpt lat="45.51011413550124" lon="11.054490219970583"><ele>372.1666666666667</ele><time>2026-04-18T13:11:49Z</time></trkpt><trkpt lat="45.51004970396844" lon="11.054632757048104"><ele>368.0</ele><time>2026-04-18T13:11:54Z</time></trkpt><trkpt lat="45.509989104035924" lon="11.054658569629604"><ele>368.0</ele><time>2026-04-18T13:11:56Z</time></trkpt><trkpt lat="45.5099225294965" lon="11.054598021012936"><ele>368.0</ele><time>2026-04-18T13:11:58Z</time></trkpt><trkpt lat="45.509872800254826" lon="11.054462481167072"><ele>368.0</ele><time>2026-04-18T13:12:00Z</time></trkpt><trkpt lat="45.50981164415085" lon="11.05443078957697"><ele>368.0</ele><time>2026-04-18T13:12:04Z</time></trkpt><trkpt lat="45.50974748143071" lon="11.054467891940945"><ele>368.0</ele><time>2026-04-18T13:12:08Z</time></trkpt><trkpt lat="45.50966141891808" lon="11.054452224840196"><ele>368.0</ele><time>2026-04-18T13:12:11Z</time></trkpt><trkpt lat="45.509604827488246" lon="11.054384441073864"><ele>363.5</ele><time>2026-04-18T13:12:14Z</time></trkpt><trkpt lat="45.509519816614784" lon="11.054402482111234"><ele>359.0</ele><time>2026-04-18T13:12:18Z</time></trkpt><trkpt lat="45.5094425946671" lon="11.054416015705335"><ele>354.5</ele><time>2026-04-18T13:12:21Z</time></trkpt><trkpt lat="45.50935843976443" lon="11.054427969186184"><ele>350.0</ele><time>2026-04-18T13:12:26Z</time></trkpt><trkpt lat="45.50929443813267" lon="11.054499891733123"><ele>345.5</ele><time>2026-04-18T13:12:30Z</time></trkpt><trkpt lat="45.509215157079126" lon="11.05451344774589"><ele>341.0</ele><time>2026-04-18T13:12:37Z</time></trkpt><trkpt lat="45.50914843428801" lon="11.054449344718297"><ele>341.0</ele><time>2026-04-18T13:12:40Z</time></trkpt><trkpt lat="45.509078383602905" lon="11.054478856781321"><ele>341.0</ele><time>2026-04-18T13:12:45Z</time></trkpt><trkpt lat="45.50899550356001" lon="11.054510179635113"><ele>341.0</ele><time>2026-04-18T13:12:48Z</time></trkpt><trkpt lat="45.50892740716965" lon="11.054563563648511"><ele>341.0</ele><time>2026-04-18T13:12:52Z</time></trkpt><trkpt lat="45.50885534024568" lon="11.054534409187585"><ele>341.0</ele><time>2026-04-18T13:12:56Z</time></trkpt><trkpt lat="45.508788364532556" lon="11.05451431199863"><ele>341.0</ele><time>2026-04-18T13:12:59Z</time></trkpt><trkpt lat="45.50871495248705" lon="11.054542156700217"><ele>336.42857142857144</ele><time>2026-04-18T13:13:02Z</time></trkpt><trkpt lat="45.50863851617538" lon="11.054528341401415"><ele>331.8571428571429</ele><time>2026-04-18T13:13:06Z</time></trkpt><trkpt lat="45.50862090774055" lon="11.05443597831039"><ele>327.28571428571433</ele><time>2026-04-18T13:13:09Z</time></trkpt><trkpt lat="45.50862322659034" lon="11.054343120691625"><ele>322.7142857142857</ele><time>2026-04-18T13:13:13Z</time></trkpt><trkpt lat="45.50863268717904" lon="11.054243286183153"><ele>318.14285714285717</ele><time>2026-04-18T13:14:03Z</time></trkpt><trkpt lat="45.50866447092546" lon="11.054140755865582"><ele>313.5714285714286</ele><time>2026-04-18T13:14:05Z</time></trkpt><trkpt lat="45.508681802639835" lon="11.054021131777336"><ele>309.0</ele><time>2026-04-18T13:14:07Z</time></trkpt><trkpt lat="45.50870901646985" lon="11.053860617477756"><ele>306.8333333333333</ele><time>2026-04-18T13:14:09Z</time></trkpt><trkpt lat="45.5087258256952" lon="11.053764204151785"><ele>304.6666666666667</ele><time>2026-04-18T13:14:10Z</time></trkpt><trkpt lat="45.50874220406113" lon="11.053662449425618"><ele>302.5</ele><time>2026-04-18T13:14:11Z</time></trkpt><trkpt lat="45.508772883219386" lon="11.053583764824085"><ele>300.33333333333337</ele><time>2026-04-18T13:14:12Z</time></trkpt><trkpt lat="45.50880288634745" lon="11.053491861817292"><ele>298.1666666666667</ele><time>2026-04-18T13:14:13Z</time></trkpt><trkpt lat="45.50883489218286" lon="11.05337675696417"><ele>296.0</ele><time>2026-04-18T13:14:15Z</time></trkpt><trkpt lat="45.508861572757375" lon="11.053186822699724"><ele>301.1666666666667</ele><time>2026-04-18T13:14:17Z</time></trkpt><trkpt lat="45.5088901012099" lon="11.053076557398635"><ele>306.33333333333337</ele><time>2026-04-18T13:14:18Z</time></trkpt><trkpt lat="45.508921962858615" lon="11.052966601900941"><ele>311.5</ele><time>2026-04-18T13:14:19Z</time></trkpt><trkpt lat="45.50895235449285" lon="11.052854783130021"><ele>316.6666666666667</ele><time>2026-04-18T13:14:20Z</time></trkpt><trkpt lat="45.508975725537425" lon="11.05274335794765"><ele>321.8333333333333</ele><time>2026-04-18T13:14:21Z</time></trkpt><trkpt lat="45.50899140969209" lon="11.05263662128649"><ele>327.0</ele><time>2026-04-18T13:14:22Z</time></trkpt><trkpt lat="45.50901815804615" lon="11.052524253289418"><ele>326.1666666666667</ele><time>2026-04-18T13:14:23Z</time></trkpt><trkpt lat="45.50904573126251" lon="11.052418710924863"><ele>325.3333333333333</ele><time>2026-04-18T13:14:24Z</time></trkpt><trkpt lat="45.50906274804239" lon="11.052309503445287"><ele>324.5</ele><time>2026-04-18T13:14:25Z</time></trkpt><trkpt lat="45.509079226026145" lon="11.05220884979725"><ele>323.66666666666663</ele><time>2026-04-18T13:14:26Z</time></trkpt><trkpt lat="45.50910738130283" lon="11.052049843289476"><ele>322.8333333333333</ele><time>2026-04-18T13:14:28Z</time></trkpt><trkpt lat="45.50911713529264" lon="11.051940866309089"><ele>322.0</ele><time>2026-04-18T13:14:29Z</time></trkpt><trkpt lat="45.50913371127554" lon="11.051837916845185"><ele>322.0</ele><time>2026-04-18T13:14:30Z</time></trkpt><trkpt lat="45.50914491365757" lon="11.051692715690914"><ele>322.0</ele><time>2026-04-18T13:14:32Z</time></trkpt><trkpt lat="45.509184993522474" lon="11.051589968614666"><ele>322.0</ele><time>2026-04-18T13:14:33Z</time></trkpt><trkpt lat="45.50921984463486" lon="11.051440684263564"><ele>322.0</ele><time>2026-04-18T13:14:35Z</time></trkpt><trkpt lat="45.50930759613414" lon="11.051300891070007"><ele>322.0</ele><time>2026-04-18T13:14:37Z</time></trkpt><trkpt lat="45.50936707563879" lon="11.051234043092546"><ele>322.0</ele><time>2026-04-18T13:14:38Z</time></trkpt><trkpt lat="45.50945344514815" lon="11.051137723048804"><ele>322.0</ele><time>2026-04-18T13:14:40Z</time></trkpt><trkpt lat="45.5094987193422" lon="11.051019772578346"><ele>322.0</ele><time>2026-04-18T13:14:42Z</time></trkpt><trkpt lat="45.50944203112709" lon="11.050969320111008"><ele>322.0</ele><time>2026-04-18T13:14:45Z</time></trkpt><trkpt lat="45.50937850459999" lon="11.050968524893264"><ele>322.0</ele><time>2026-04-18T13:14:47Z</time></trkpt><trkpt lat="45.50931425761188" lon="11.050956476011942"><ele>322.0</ele><time>2026-04-18T13:14:48Z</time></trkpt><trkpt lat="45.50922536549528" lon="11.050956667534255"><ele>322.0</ele><time>2026-04-18T13:14:50Z</time></trkpt><trkpt lat="45.50917278836619" lon="11.051011880676853"><ele>322.0</ele><time>2026-04-18T13:14:52Z</time></trkpt><trkpt lat="45.50909762438988" lon="11.05093932915274"><ele>322.0</ele><time>2026-04-18T13:14:54Z</time></trkpt><trkpt lat="45.509020244935854" lon="11.050897869264032"><ele>322.0</ele><time>2026-04-18T13:14:59Z</time></trkpt><trkpt lat="45.50897333954563" lon="11.050973866591095"><ele>322.0</ele><time>2026-04-18T13:15:01Z</time></trkpt><trkpt lat="45.50889740757647" lon="11.050968410667812"><ele>322.0</ele><time>2026-04-18T13:15:03Z</time></trkpt><trkpt lat="45.50881529905107" lon="11.05100909769124"><ele>322.0</ele><time>2026-04-18T13:15:05Z</time></trkpt><trkpt lat="45.50872051754455" lon="11.051098141299429"><ele>322.0</ele><time>2026-04-18T13:15:07Z</time></trkpt><trkpt lat="45.50864476480676" lon="11.051125767294586"><ele>322.0</ele><time>2026-04-18T13:15:08Z</time></trkpt><trkpt lat="45.50857322081862" lon="11.051151093226288"><ele>322.0</ele><time>2026-04-18T13:15:09Z</time></trkpt><trkpt lat="45.50850540325009" lon="11.051166593439953"><ele>322.0</ele><time>2026-04-18T13:15:10Z</time></trkpt><trkpt lat="45.508395367324695" lon="11.051203786120045"><ele>322.0</ele><time>2026-04-18T13:15:12Z</time></trkpt><trkpt lat="45.50833149259022" lon="11.051220329441028"><ele>322.0</ele><time>2026-04-18T13:15:13Z</time></trkpt><trkpt lat="45.5082204918926" lon="11.051280892561628"><ele>322.0</ele><time>2026-04-18T13:15:15Z</time></trkpt><trkpt lat="45.50812429948993" lon="11.051284241007561"><ele>322.0</ele><time>2026-04-18T13:15:17Z</time></trkpt><trkpt lat="45.50802070084185" lon="11.051257884590123"><ele>322.0</ele><time>2026-04-18T13:15:19Z</time></trkpt><trkpt lat="45.50795615741437" lon="11.05121885801063"><ele>322.0</ele><time>2026-04-18T13:15:20Z</time></trkpt><trkpt lat="45.50789259732393" lon="11.05116652493739"><ele>321.5</ele><time>2026-04-18T13:15:21Z</time></trkpt><trkpt lat="45.507821416557526" lon="11.05106678916815"><ele>321.0</ele><time>2026-04-18T13:15:23Z</time></trkpt><trkpt lat="45.50776917461714" lon="11.051010194084554"><ele>320.5</ele><time>2026-04-18T13:15:26Z</time></trkpt><trkpt lat="45.507704536349436" lon="11.05094641863907"><ele>320.0</ele><time>2026-04-18T13:15:30Z</time></trkpt><trkpt lat="45.50765609226893" lon="11.050881513753554"><ele>319.5</ele><time>2026-04-18T13:15:32Z</time></trkpt><trkpt lat="45.50755305074759" lon="11.05087740110786"><ele>319.0</ele><time>2026-04-18T13:15:34Z</time></trkpt><trkpt lat="45.50751511511367" lon="11.050956084477814"><ele>319.0</ele><time>2026-04-18T13:15:35Z</time></trkpt><trkpt lat="45.50748052122029" lon="11.051059136135425"><ele>319.0</ele><time>2026-04-18T13:15:37Z</time></trkpt><trkpt lat="45.50743180249238" lon="11.05116205407021"><ele>319.0</ele><time>2026-04-18T13:15:40Z</time></trkpt><trkpt lat="45.507346077534486" lon="11.05118699058389"><ele>319.0</ele><time>2026-04-18T13:15:42Z</time></trkpt><trkpt lat="45.50725128638204" lon="11.051285746372951"><ele>319.0</ele><time>2026-04-18T13:15:44Z</time></trkpt><trkpt lat="45.50715743033171" lon="11.051368089108012"><ele>318.4</ele><time>2026-04-18T13:15:46Z</time></trkpt><trkpt lat="45.50704343920639" lon="11.051423111249484"><ele>317.79999999999995</ele><time>2026-04-18T13:15:48Z</time></trkpt><trkpt lat="45.50698412675322" lon="11.05145659313339"><ele>317.20000000000005</ele><time>2026-04-18T13:15:49Z</time></trkpt><trkpt lat="45.50689739005278" lon="11.051571039305315"><ele>316.6</ele><time>2026-04-18T13:15:51Z</time></trkpt><trkpt lat="45.50683859784347" lon="11.05161602452355"><ele>316.0</ele><time>2026-04-18T13:15:52Z</time></trkpt><trkpt lat="45.50675669022447" lon="11.051646369461093"><ele>316.0</ele><time>2026-04-18T13:15:53Z</time></trkpt><trkpt lat="45.50669103209023" lon="11.051698657923787"><ele>316.0</ele><time>2026-04-18T13:15:54Z</time></trkpt><trkpt lat="45.50661744489369" lon="11.051760894052945"><ele>316.0</ele><time>2026-04-18T13:15:55Z</time></trkpt><trkpt lat="45.506551539076305" lon="11.05180809575521"><ele>316.0</ele><time>2026-04-18T13:15:56Z</time></trkpt><trkpt lat="45.50641548158034" lon="11.051859453845948"><ele>316.0</ele><time>2026-04-18T13:15:58Z</time></trkpt><trkpt lat="45.506326790793395" lon="11.051905053905244"><ele>317.5</ele><time>2026-04-18T13:15:59Z</time></trkpt><trkpt lat="45.506232348199504" lon="11.051944958535499"><ele>319.0</ele><time>2026-04-18T13:16:00Z</time></trkpt><trkpt lat="45.50614363000571" lon="11.051950680077459"><ele>320.5</ele><time>2026-04-18T13:16:01Z</time></trkpt><trkpt lat="45.50605968530362" lon="11.051969239416096"><ele>322.0</ele><time>2026-04-18T13:16:02Z</time></trkpt><trkpt lat="45.50597344868817" lon="11.051976219156495"><ele>323.5</ele><time>2026-04-18T13:16:03Z</time></trkpt><trkpt lat="45.505892427060154" lon="11.051998031390513"><ele>325.0</ele><time>2026-04-18T13:16:04Z</time></trkpt><trkpt lat="45.505817729198334" lon="11.051997330930757"><ele>325.0</ele><time>2026-04-18T13:16:05Z</time></trkpt><trkpt lat="45.505736168057055" lon="11.052003027196733"><ele>325.0</ele><time>2026-04-18T13:16:06Z</time></trkpt><trkpt lat="45.505648527220586" lon="11.051973550166442"><ele>325.0</ele><time>2026-04-18T13:16:07Z</time></trkpt><trkpt lat="45.50557230637162" lon="11.051942038682096"><ele>325.0</ele><time>2026-04-18T13:16:08Z</time></trkpt><trkpt lat="45.505492546236894" lon="11.05192289878015"><ele>325.0</ele><time>2026-04-18T13:16:09Z</time></trkpt><trkpt lat="45.50537177719269" lon="11.051905589470588"><ele>324.6</ele><time>2026-04-18T13:16:11Z</time></trkpt><trkpt lat="45.50530377390074" lon="11.05191485137384"><ele>324.2</ele><time>2026-04-18T13:16:12Z</time></trkpt><trkpt lat="45.50518239315846" lon="11.051910822271585"><ele>323.79999999999995</ele><time>2026-04-18T13:16:14Z</time></trkpt><trkpt lat="45.50510941503606" lon="11.051838672472748"><ele>323.4</ele><time>2026-04-18T13:16:16Z</time></trkpt><trkpt lat="45.50501971225384" lon="11.051880547597195"><ele>323.0</ele><time>2026-04-18T13:16:19Z</time></trkpt><trkpt lat="45.50498435926119" lon="11.051979673886139"><ele>323.0</ele><time>2026-04-18T13:16:20Z</time></trkpt><trkpt lat="45.504945665420905" lon="11.052086473738246"><ele>323.0</ele><time>2026-04-18T13:16:21Z</time></trkpt><trkpt lat="45.504895424926076" lon="11.052177234063912"><ele>323.0</ele><time>2026-04-18T13:16:22Z</time></trkpt><trkpt lat="45.50482244780789" lon="11.052293782546087"><ele>323.0</ele><time>2026-04-18T13:16:23Z</time></trkpt><trkpt lat="45.50474582418289" lon="11.052438652877706"><ele>323.0</ele><time>2026-04-18T13:16:24Z</time></trkpt><trkpt lat="45.50467873915536" lon="11.052576093208197"><ele>323.1666666666667</ele><time>2026-04-18T13:16:25Z</time></trkpt><trkpt lat="45.50462213688992" lon="11.052689913687376"><ele>323.33333333333337</ele><time>2026-04-18T13:16:26Z</time></trkpt><trkpt lat="45.50457009739062" lon="11.052779586769613"><ele>323.5</ele><time>2026-04-18T13:16:27Z</time></trkpt><trkpt lat="45.50450546727102" lon="11.052850521754765"><ele>323.6666666666667</ele><time>2026-04-18T13:16:28Z</time></trkpt><trkpt lat="45.504420389461195" lon="11.052903774173625"><ele>323.8333333333333</ele><time>2026-04-18T13:16:29Z</time></trkpt><trkpt lat="45.504347361757915" lon="11.052956660548388"><ele>324.0</ele><time>2026-04-18T13:16:30Z</time></trkpt><trkpt lat="45.5042636440203" lon="11.053039837579034"><ele>324.0</ele><time>2026-04-18T13:16:31Z</time></trkpt><trkpt lat="45.50417792829774" lon="11.053099858075193"><ele>324.0</ele><time>2026-04-18T13:16:32Z</time></trkpt><trkpt lat="45.504088193590256" lon="11.053179954060159"><ele>324.0</ele><time>2026-04-18T13:16:33Z</time></trkpt><trkpt lat="45.50401332951108" lon="11.0532566247977"><ele>324.0</ele><time>2026-04-18T13:16:34Z</time></trkpt><trkpt lat="45.50393968874368" lon="11.053323206492301"><ele>324.0</ele><time>2026-04-18T13:16:35Z</time></trkpt><trkpt lat="45.503856618960505" lon="11.053386737298682"><ele>323.4</ele><time>2026-04-18T13:16:36Z</time></trkpt><trkpt lat="45.50375442803447" lon="11.053439987684664"><ele>322.79999999999995</ele><time>2026-04-18T13:16:37Z</time></trkpt><trkpt lat="45.50365611900104" lon="11.0534826684063"><ele>322.20000000000005</ele><time>2026-04-18T13:16:38Z</time></trkpt><trkpt lat="45.50355508818336" lon="11.05351961785385"><ele>321.6</ele><time>2026-04-18T13:16:39Z</time></trkpt><trkpt lat="45.50345922154739" lon="11.053565241325892"><ele>321.0</ele><time>2026-04-18T13:16:40Z</time></trkpt><trkpt lat="45.503372305316084" lon="11.053601654624584"><ele>321.0</ele><time>2026-04-18T13:16:41Z</time></trkpt><trkpt lat="45.50328800544971" lon="11.053593571327081"><ele>321.0</ele><time>2026-04-18T13:16:42Z</time></trkpt><trkpt lat="45.503203663091305" lon="11.053580468006498"><ele>321.0</ele><time>2026-04-18T13:16:43Z</time></trkpt><trkpt lat="45.50312500934107" lon="11.053594726924965"><ele>321.0</ele><time>2026-04-18T13:16:44Z</time></trkpt><trkpt lat="45.503021637527034" lon="11.053617871900986"><ele>321.0</ele><time>2026-04-18T13:16:45Z</time></trkpt><trkpt lat="45.50293535176134" lon="11.053610762952493"><ele>321.0</ele><time>2026-04-18T13:16:46Z</time></trkpt><trkpt lat="45.50285097054206" lon="11.053576632528682"><ele>320.0</ele><time>2026-04-18T13:16:46.999Z</time></trkpt><trkpt lat="45.502779021507635" lon="11.053511405129385"><ele>319.0</ele><time>2026-04-18T13:16:47.999Z</time></trkpt><trkpt lat="45.50272791822766" lon="11.053442415349126"><ele>318.0</ele><time>2026-04-18T13:16:48.999Z</time></trkpt><trkpt lat="45.5026773803366" lon="11.053369691428285"><ele>317.0</ele><time>2026-04-18T13:16:49.999Z</time></trkpt><trkpt lat="45.50262934638408" lon="11.053249331612667"><ele>316.0</ele><time>2026-04-18T13:16:50.999Z</time></trkpt><trkpt lat="45.50259137445899" lon="11.053118497309924"><ele>315.0</ele><time>2026-04-18T13:16:51.999Z</time></trkpt><trkpt lat="45.50255316654752" lon="11.052983065376015"><ele>318.0</ele><time>2026-04-18T13:16:53Z</time></trkpt><trkpt lat="45.50248717114632" lon="11.05283596790648"><ele>321.0</ele><time>2026-04-18T13:16:54Z</time></trkpt><trkpt lat="45.502425773861404" lon="11.052713276662223"><ele>324.0</ele><time>2026-04-18T13:16:55Z</time></trkpt><trkpt lat="45.50236284503843" lon="11.052596520808038"><ele>327.0</ele><time>2026-04-18T13:16:56Z</time></trkpt><trkpt lat="45.50228846497645" lon="11.052459450019219"><ele>330.0</ele><time>2026-04-18T13:16:57Z</time></trkpt><trkpt lat="45.502211242412805" lon="11.05232007893206"><ele>333.0</ele><time>2026-04-18T13:16:58Z</time></trkpt><trkpt lat="45.50213393774486" lon="11.052176601458493"><ele>336.0</ele><time>2026-04-18T13:16:59Z</time></trkpt><trkpt lat="45.50206006516693" lon="11.052032430506229"><ele>339.0</ele><time>2026-04-18T13:17:00Z</time></trkpt><trkpt lat="45.50199240562418" lon="11.051885813092909"><ele>332.75</ele><time>2026-04-18T13:17:01Z</time></trkpt><trkpt lat="45.50193951327321" lon="11.051711211510888"><ele>326.5</ele><time>2026-04-18T13:17:02Z</time></trkpt><trkpt lat="45.501891197635636" lon="11.051518959843055"><ele>320.25</ele><time>2026-04-18T13:17:03Z</time></trkpt><trkpt lat="45.501860919327974" lon="11.051334283293071"><ele>314.0</ele><time>2026-04-18T13:17:04Z</time></trkpt><trkpt lat="45.50184306389023" lon="11.05114678687357"><ele>314.0</ele><time>2026-04-18T13:17:05Z</time></trkpt><trkpt lat="45.50184214989184" lon="11.050993403330502"><ele>314.0</ele><time>2026-04-18T13:17:06Z</time></trkpt><trkpt lat="45.501856003384596" lon="11.05084899278954"><ele>314.0</ele><time>2026-04-18T13:17:07Z</time></trkpt><trkpt lat="45.50186951811812" lon="11.050705709376997"><ele>314.0</ele><time>2026-04-18T13:17:08Z</time></trkpt><trkpt lat="45.50188977549643" lon="11.050593228296215"><ele>314.0</ele><time>2026-04-18T13:17:09Z</time></trkpt><trkpt lat="45.50188930513484" lon="11.05047704377257"><ele>313.2</ele><time>2026-04-18T13:17:10Z</time></trkpt><trkpt lat="45.50186932066427" lon="11.050354955904288"><ele>312.4</ele><time>2026-04-18T13:17:11Z</time></trkpt><trkpt lat="45.50184618196409" lon="11.050248173377735"><ele>311.6</ele><time>2026-04-18T13:17:12Z</time></trkpt><trkpt lat="45.50185227593434" lon="11.050111043509423"><ele>310.8</ele><time>2026-04-18T13:17:13Z</time></trkpt><trkpt lat="45.50186333479436" lon="11.049994308935691"><ele>310.0</ele><time>2026-04-18T13:17:14Z</time></trkpt><trkpt lat="45.50191693811686" lon="11.04983860069463"><ele>307.4</ele><time>2026-04-18T13:17:15Z</time></trkpt><trkpt lat="45.50196334217853" lon="11.049684649000984"><ele>304.8</ele><time>2026-04-18T13:17:16Z</time></trkpt><trkpt lat="45.50198623845641" lon="11.049548958634592"><ele>302.2</ele><time>2026-04-18T13:17:17Z</time></trkpt><trkpt lat="45.50200789926157" lon="11.049424049044854"><ele>299.6</ele><time>2026-04-18T13:17:18Z</time></trkpt><trkpt lat="45.50201977313032" lon="11.04929286676566"><ele>297.0</ele><time>2026-04-18T13:17:19Z</time></trkpt><trkpt lat="45.50204645430748" lon="11.049159326136047"><ele>294.8333333333333</ele><time>2026-04-18T13:17:20Z</time></trkpt><trkpt lat="45.50207514483567" lon="11.049055888723991"><ele>292.6666666666667</ele><time>2026-04-18T13:17:21Z</time></trkpt><trkpt lat="45.50210536354007" lon="11.04895432276415"><ele>290.5</ele><time>2026-04-18T13:17:22Z</time></trkpt><trkpt lat="45.50214941054899" lon="11.048853495129805"><ele>288.33333333333337</ele><time>2026-04-18T13:17:23Z</time></trkpt><trkpt lat="45.50222081076807" lon="11.048764832806377"><ele>286.1666666666667</ele><time>2026-04-18T13:17:24Z</time></trkpt><trkpt lat="45.502287091036145" lon="11.048697928655887"><ele>284.0</ele><time>2026-04-18T13:17:25Z</time></trkpt><trkpt lat="45.50235289352836" lon="11.048610036569906"><ele>289.0</ele><time>2026-04-18T13:17:26Z</time></trkpt><trkpt lat="45.50242218087334" lon="11.04850797538842"><ele>294.0</ele><time>2026-04-18T13:17:27Z</time></trkpt><trkpt lat="45.5024663311133" lon="11.04843532827105"><ele>299.0</ele><time>2026-04-18T13:17:28Z</time></trkpt><trkpt lat="45.50252279080912" lon="11.048339405652086"><ele>304.0</ele><time>2026-04-18T13:17:29Z</time></trkpt><trkpt lat="45.5025724597549" lon="11.048254687364489"><ele>309.0</ele><time>2026-04-18T13:17:30Z</time></trkpt><trkpt lat="45.50260754583769" lon="11.048080681923047"><ele>309.0</ele><time>2026-04-18T13:17:32Z</time></trkpt><trkpt lat="45.502602133474426" lon="11.047979002108049"><ele>309.0</ele><time>2026-04-18T13:17:33Z</time></trkpt><trkpt lat="45.5025641714387" lon="11.047874935083613"><ele>309.0</ele><time>2026-04-18T13:17:34Z</time></trkpt><trkpt lat="45.502517293772044" lon="11.047747138045542"><ele>309.0</ele><time>2026-04-18T13:17:35Z</time></trkpt><trkpt lat="45.50246331685926" lon="11.047612623663108"><ele>309.0</ele><time>2026-04-18T13:17:36Z</time></trkpt><trkpt lat="45.50240559641824" lon="11.047504072151499"><ele>307.6666666666667</ele><time>2026-04-18T13:17:37Z</time></trkpt><trkpt lat="45.50233525162987" lon="11.04741506569983"><ele>306.3333333333333</ele><time>2026-04-18T13:17:38Z</time></trkpt><trkpt lat="45.50226872879113" lon="11.047379756878014"><ele>305.0</ele><time>2026-04-18T13:17:39Z</time></trkpt><trkpt lat="45.5021906827888" lon="11.047378100741764"><ele>303.66666666666663</ele><time>2026-04-18T13:17:40Z</time></trkpt><trkpt lat="45.50209872359998" lon="11.047373465200023"><ele>302.3333333333333</ele><time>2026-04-18T13:17:41Z</time></trkpt><trkpt lat="45.5020175914259" lon="11.047314841956222"><ele>301.0</ele><time>2026-04-18T13:17:42Z</time></trkpt><trkpt lat="45.50194742507173" lon="11.047221340818936"><ele>301.0</ele><time>2026-04-18T13:17:43Z</time></trkpt><trkpt lat="45.50187688493907" lon="11.047137275228533"><ele>301.0</ele><time>2026-04-18T13:17:44Z</time></trkpt><trkpt lat="45.50180636391094" lon="11.04705326933729"><ele>301.0</ele><time>2026-04-18T13:17:45Z</time></trkpt><trkpt lat="45.50171034321508" lon="11.046982567497547"><ele>301.0</ele><time>2026-04-18T13:17:46Z</time></trkpt><trkpt lat="45.50160881347329" lon="11.046939266452455"><ele>301.0</ele><time>2026-04-18T13:17:47Z</time></trkpt><trkpt lat="45.501489577380205" lon="11.046902785709992"><ele>301.0</ele><time>2026-04-18T13:17:48Z</time></trkpt><trkpt lat="45.50138587814942" lon="11.04688201998214"><ele>301.0</ele><time>2026-04-18T13:17:49Z</time></trkpt><trkpt lat="45.501267733755775" lon="11.046862857573329"><ele>301.0</ele><time>2026-04-18T13:17:50Z</time></trkpt><trkpt lat="45.501155553782795" lon="11.04686930686772"><ele>301.0</ele><time>2026-04-18T13:17:51Z</time></trkpt><trkpt lat="45.50106347679516" lon="11.04689598710877"><ele>301.0</ele><time>2026-04-18T13:17:52Z</time></trkpt><trkpt lat="45.50097562956595" lon="11.046949252632093"><ele>300.6</ele><time>2026-04-18T13:17:53Z</time></trkpt><trkpt lat="45.500877375286386" lon="11.046965014939062"><ele>300.20000000000005</ele><time>2026-04-18T13:17:54Z</time></trkpt><trkpt lat="45.5007756115614" lon="11.046969547564355"><ele>299.79999999999995</ele><time>2026-04-18T13:17:55Z</time></trkpt><trkpt lat="45.50069127169178" lon="11.046948150143177"><ele>299.4</ele><time>2026-04-18T13:17:56Z</time></trkpt><trkpt lat="45.50061196779632" lon="11.046907845386592"><ele>299.0</ele><time>2026-04-18T13:17:57Z</time></trkpt><trkpt lat="45.50053232069262" lon="11.046851990976219"><ele>299.0</ele><time>2026-04-18T13:17:58Z</time></trkpt><trkpt lat="45.50046614009817" lon="11.046757152657692"><ele>299.0</ele><time>2026-04-18T13:17:59Z</time></trkpt><trkpt lat="45.50039589499738" lon="11.046643875987701"><ele>299.0</ele><time>2026-04-18T13:18:00Z</time></trkpt><trkpt lat="45.50033522887363" lon="11.046529394909415"><ele>299.0</ele><time>2026-04-18T13:18:01Z</time></trkpt><trkpt lat="45.500289707343995" lon="11.046437619737075"><ele>299.0</ele><time>2026-04-18T13:18:02Z</time></trkpt><trkpt lat="45.500222558534055" lon="11.046386964366796"><ele>298.83333333333337</ele><time>2026-04-18T13:18:04Z</time></trkpt><trkpt lat="45.500139629244906" lon="11.046502969734975"><ele>298.6666666666667</ele><time>2026-04-18T13:18:06Z</time></trkpt><trkpt lat="45.50009170458185" lon="11.046583757852344"><ele>298.5</ele><time>2026-04-18T13:18:07Z</time></trkpt><trkpt lat="45.500036324921155" lon="11.046672089397475"><ele>298.3333333333333</ele><time>2026-04-18T13:18:08Z</time></trkpt><trkpt lat="45.499974192365656" lon="11.046743914324036"><ele>298.16666666666663</ele><time>2026-04-18T13:18:09Z</time></trkpt><trkpt lat="45.49991185801395" lon="11.046806050073881"><ele>298.0</ele><time>2026-04-18T13:18:10Z</time></trkpt><trkpt lat="45.49983921561887" lon="11.046881069385568"><ele>297.6</ele><time>2026-04-18T13:18:11Z</time></trkpt><trkpt lat="45.499761736669385" lon="11.046976266588226"><ele>297.20000000000005</ele><time>2026-04-18T13:18:12Z</time></trkpt><trkpt lat="45.499679022303916" lon="11.04708566080298"><ele>296.8</ele><time>2026-04-18T13:18:13Z</time></trkpt><trkpt lat="45.49961044340617" lon="11.047201997052966"><ele>296.40000000000003</ele><time>2026-04-18T13:18:14Z</time></trkpt><trkpt lat="45.499561949788706" lon="11.04732655506678"><ele>296.0</ele><time>2026-04-18T13:18:15Z</time></trkpt><trkpt lat="45.49951176400416" lon="11.047450974832644"><ele>298.6</ele><time>2026-04-18T13:18:16Z</time></trkpt><trkpt lat="45.49945511373212" lon="11.04756412537418"><ele>301.20000000000005</ele><time>2026-04-18T13:18:17Z</time></trkpt><trkpt lat="45.49940349498895" lon="11.047642646490324"><ele>303.79999999999995</ele><time>2026-04-18T13:18:18Z</time></trkpt><trkpt lat="45.499274686191946" lon="11.047668186616024"><ele>306.4</ele><time>2026-04-18T13:18:20Z</time></trkpt><trkpt lat="45.49919442211587" lon="11.04764164713405"><ele>309.0</ele><time>2026-04-18T13:18:21Z</time></trkpt><trkpt lat="45.49909525424067" lon="11.047631221863432"><ele>309.0</ele><time>2026-04-18T13:18:22Z</time></trkpt><trkpt lat="45.499025761421166" lon="11.047615407787626"><ele>309.0</ele><time>2026-04-18T13:18:23Z</time></trkpt><trkpt lat="45.49893807614647" lon="11.047567969011148"><ele>309.0</ele><time>2026-04-18T13:18:24Z</time></trkpt><trkpt lat="45.49886200319473" lon="11.047492205887156"><ele>309.0</ele><time>2026-04-18T13:18:25Z</time></trkpt><trkpt lat="45.49879557964341" lon="11.047389908798674"><ele>309.0</ele><time>2026-04-18T13:18:26Z</time></trkpt><trkpt lat="45.498728528081806" lon="11.047335079738149"><ele>309.0</ele><time>2026-04-18T13:18:27Z</time></trkpt><trkpt lat="45.49866107659753" lon="11.047327549957414"><ele>309.25</ele><time>2026-04-18T13:18:28Z</time></trkpt><trkpt lat="45.49857247740983" lon="11.047404824849446"><ele>309.5</ele><time>2026-04-18T13:18:30Z</time></trkpt><trkpt lat="45.49858465006743" lon="11.047567564041659"><ele>309.75</ele><time>2026-04-18T13:18:32Z</time></trkpt><trkpt lat="45.4986554402353" lon="11.047740782880396"><ele>310.0</ele><time>2026-04-18T13:18:34Z</time></trkpt><trkpt lat="45.498648806675824" lon="11.047875746437699"><ele>313.2</ele><time>2026-04-18T13:18:35Z</time></trkpt><trkpt lat="45.498643848389534" lon="11.048012500359171"><ele>316.4</ele><time>2026-04-18T13:18:36Z</time></trkpt><trkpt lat="45.4986091156002" lon="11.048168962786852"><ele>319.6</ele><time>2026-04-18T13:18:37Z</time></trkpt><trkpt lat="45.498589991743" lon="11.048306228639577"><ele>322.8</ele><time>2026-04-18T13:18:38Z</time></trkpt><trkpt lat="45.49857378657386" lon="11.048416761758276"><ele>326.0</ele><time>2026-04-18T13:18:39Z</time></trkpt><trkpt lat="45.49853265767661" lon="11.048486307993409"><ele>327.0</ele><time>2026-04-18T13:18:40Z</time></trkpt><trkpt lat="45.498493902537" lon="11.048567916734362"><ele>328.0</ele><time>2026-04-18T13:18:41Z</time></trkpt><trkpt lat="45.49843987942349" lon="11.048652453972505"><ele>329.0</ele><time>2026-04-18T13:18:42Z</time></trkpt><trkpt lat="45.49838298110972" lon="11.04873839502735"><ele>330.0</ele><time>2026-04-18T13:18:43Z</time></trkpt><trkpt lat="45.4983120284362" lon="11.048805492484275"><ele>331.0</ele><time>2026-04-18T13:18:44Z</time></trkpt><trkpt lat="45.49822180318858" lon="11.048835106788085"><ele>332.0</ele><time>2026-04-18T13:18:45Z</time></trkpt><trkpt lat="45.4981409484706" lon="11.04885640249705"><ele>332.0</ele><time>2026-04-18T13:18:46Z</time></trkpt><trkpt lat="45.498037301082775" lon="11.048981816686677"><ele>332.0</ele><time>2026-04-18T13:18:48Z</time></trkpt><trkpt lat="45.49796665171339" lon="11.049069534641365"><ele>332.0</ele><time>2026-04-18T13:18:49Z</time></trkpt><trkpt lat="45.49789173314837" lon="11.049164697675689"><ele>332.0</ele><time>2026-04-18T13:18:50Z</time></trkpt><trkpt lat="45.497795523074636" lon="11.049252970729471"><ele>332.0</ele><time>2026-04-18T13:18:51Z</time></trkpt><trkpt lat="45.497727111750635" lon="11.049313375955641"><ele>334.6666666666667</ele><time>2026-04-18T13:18:52Z</time></trkpt><trkpt lat="45.49766950560066" lon="11.049381400072795"><ele>337.33333333333337</ele><time>2026-04-18T13:18:53Z</time></trkpt><trkpt lat="45.49763628395634" lon="11.049493840094222"><ele>340.0</ele><time>2026-04-18T13:18:55Z</time></trkpt><trkpt lat="45.49767378679858" lon="11.049568980662034"><ele>342.6666666666667</ele><time>2026-04-18T13:18:56Z</time></trkpt><trkpt lat="45.49773517649466" lon="11.049648216141836"><ele>345.3333333333333</ele><time>2026-04-18T13:18:57Z</time></trkpt><trkpt lat="45.49779631183861" lon="11.049725554969664"><ele>348.0</ele><time>2026-04-18T13:18:58Z</time></trkpt><trkpt lat="45.49782286279424" lon="11.049833159789385"><ele>348.0</ele><time>2026-04-18T13:18:59Z</time></trkpt><trkpt lat="45.49781756663353" lon="11.049950844819831"><ele>348.0</ele><time>2026-04-18T13:19:00Z</time></trkpt><trkpt lat="45.49778720064793" lon="11.050087134152417"><ele>348.0</ele><time>2026-04-18T13:19:01Z</time></trkpt><trkpt lat="45.49774360859867" lon="11.050219090490913"><ele>348.0</ele><time>2026-04-18T13:19:02Z</time></trkpt><trkpt lat="45.49769924121778" lon="11.050392154875535"><ele>348.0</ele><time>2026-04-18T13:19:03Z</time></trkpt><trkpt lat="45.4976692053156" lon="11.050566001259911"><ele>348.8333333333333</ele><time>2026-04-18T13:19:04Z</time></trkpt><trkpt lat="45.49764691140268" lon="11.050702436068907"><ele>349.6666666666667</ele><time>2026-04-18T13:19:05Z</time></trkpt><trkpt lat="45.497628843111215" lon="11.050821585380447"><ele>350.5</ele><time>2026-04-18T13:19:06Z</time></trkpt><trkpt lat="45.49759671377716" lon="11.050923629221069"><ele>351.33333333333337</ele><time>2026-04-18T13:19:08Z</time></trkpt><trkpt lat="45.49753614382401" lon="11.05097746994694"><ele>352.1666666666667</ele><time>2026-04-18T13:19:17Z</time></trkpt><trkpt lat="45.49747902357534" lon="11.0510167115729"><ele>353.0</ele><time>2026-04-18T13:19:21Z</time></trkpt><trkpt lat="45.49744817340061" lon="11.051129938369911"><ele>353.0</ele><time>2026-04-18T13:19:25Z</time></trkpt><trkpt lat="45.49744126059771" lon="11.051233366106695"><ele>353.0</ele><time>2026-04-18T13:19:28Z</time></trkpt><trkpt lat="45.49746546422583" lon="11.051316363448928"><ele>353.0</ele><time>2026-04-18T13:19:34Z</time></trkpt><trkpt lat="45.49743316476667" lon="11.051395768334954"><ele>353.0</ele><time>2026-04-18T13:19:38Z</time></trkpt><trkpt lat="45.49737871563794" lon="11.051465722744918"><ele>353.0</ele><time>2026-04-18T13:19:42Z</time></trkpt><trkpt lat="45.49730186055573" lon="11.051482207024687"><ele>353.0</ele><time>2026-04-18T13:19:51Z</time></trkpt><trkpt lat="45.497203788901615" lon="11.05147302465393"><ele>353.0</ele><time>2026-04-18T13:19:54Z</time></trkpt><trkpt lat="45.49712874273124" lon="11.051467629720147"><ele>351.33333333333337</ele><time>2026-04-18T13:19:56Z</time></trkpt><trkpt lat="45.497062616337224" lon="11.051437607234213"><ele>349.6666666666667</ele><time>2026-04-18T13:19:59Z</time></trkpt><trkpt lat="45.496980625459706" lon="11.051462451471421"><ele>348.0</ele><time>2026-04-18T13:20:02Z</time></trkpt><trkpt lat="45.496890345680626" lon="11.051456616322218"><ele>346.3333333333333</ele><time>2026-04-18T13:20:05Z</time></trkpt><trkpt lat="45.49680175159239" lon="11.051443142422782"><ele>344.66666666666663</ele><time>2026-04-18T13:20:09Z</time></trkpt><trkpt lat="45.49672494064374" lon="11.051422447338613"><ele>343.0</ele><time>2026-04-18T13:20:11Z</time></trkpt><trkpt lat="45.49665144649917" lon="11.051415453812636"><ele>343.0</ele><time>2026-04-18T13:20:13Z</time></trkpt><trkpt lat="45.49657210906886" lon="11.051392746962104"><ele>343.0</ele><time>2026-04-18T13:20:15Z</time></trkpt><trkpt lat="45.49648358027648" lon="11.051373161321166"><ele>343.0</ele><time>2026-04-18T13:20:19Z</time></trkpt><trkpt lat="45.496412627926794" lon="11.05134973772862"><ele>343.0</ele><time>2026-04-18T13:20:21Z</time></trkpt><trkpt lat="45.496334101728436" lon="11.05134249528472"><ele>343.0</ele><time>2026-04-18T13:20:23Z</time></trkpt><trkpt lat="45.49626217359836" lon="11.051338767249854"><ele>343.0</ele><time>2026-04-18T13:20:25Z</time></trkpt><trkpt lat="45.49618673474246" lon="11.051325955600962"><ele>340.16666666666663</ele><time>2026-04-18T13:20:28Z</time></trkpt><trkpt lat="45.496116209286974" lon="11.051309451084583"><ele>337.3333333333333</ele><time>2026-04-18T13:20:32Z</time></trkpt><trkpt lat="45.49605464405717" lon="11.051286544259908"><ele>334.5</ele><time>2026-04-18T13:20:35Z</time></trkpt><trkpt lat="45.49597082176495" lon="11.051264793891217"><ele>331.6666666666667</ele><time>2026-04-18T13:20:38Z</time></trkpt><trkpt lat="45.49589214080563" lon="11.051243768056297"><ele>328.83333333333337</ele><time>2026-04-18T13:20:40Z</time></trkpt><trkpt lat="45.4957975958102" lon="11.051201865215505"><ele>326.0</ele><time>2026-04-18T13:20:42Z</time></trkpt><trkpt lat="45.49573634618929" lon="11.05117589137992"><ele>326.0</ele><time>2026-04-18T13:20:43Z</time></trkpt><trkpt lat="45.49564360134883" lon="11.051131231994358"><ele>326.0</ele><time>2026-04-18T13:20:44.999Z</time></trkpt><trkpt lat="45.495570899776204" lon="11.051089289914197"><ele>326.0</ele><time>2026-04-18T13:20:46.999Z</time></trkpt><trkpt lat="45.49550161358641" lon="11.051061958623704"><ele>326.0</ele><time>2026-04-18T13:20:48.999Z</time></trkpt><trkpt lat="45.49542229309269" lon="11.051032352731854"><ele>326.0</ele><time>2026-04-18T13:20:50.999Z</time></trkpt><trkpt lat="45.49534014175213" lon="11.051014849478575"><ele>326.0</ele><time>2026-04-18T13:20:52.999Z</time></trkpt><trkpt lat="45.495252085360036" lon="11.050994808444564"><ele>325.0</ele><time>2026-04-18T13:20:54.999Z</time></trkpt><trkpt lat="45.49516536882566" lon="11.051016736158866"><ele>324.0</ele><time>2026-04-18T13:20:56.999Z</time></trkpt><trkpt lat="45.495056546767074" lon="11.051008497126661"><ele>323.0</ele><time>2026-04-18T13:20:59.999Z</time></trkpt><trkpt lat="45.49499413028097" lon="11.051029911455169"><ele>322.0</ele><time>2026-04-18T13:21:00.999Z</time></trkpt><trkpt lat="45.49491782872556" lon="11.051065059357017"><ele>321.0</ele><time>2026-04-18T13:21:01.999Z</time></trkpt><trkpt lat="45.49483897165901" lon="11.0510996382063"><ele>320.0</ele><time>2026-04-18T13:21:02.999Z</time></trkpt><trkpt lat="45.49477697548096" lon="11.051126141202936"><ele>320.0</ele><time>2026-04-18T13:21:03.999Z</time></trkpt><trkpt lat="45.494683601580554" lon="11.051173438609665"><ele>320.0</ele><time>2026-04-18T13:21:06Z</time></trkpt><trkpt lat="45.49458088645696" lon="11.051224073173108"><ele>320.0</ele><time>2026-04-18T13:21:08Z</time></trkpt><trkpt lat="45.49450840566944" lon="11.051268725064313"><ele>320.0</ele><time>2026-04-18T13:21:10Z</time></trkpt><trkpt lat="45.494418379379354" lon="11.05129166533236"><ele>320.0</ele><time>2026-04-18T13:21:12Z</time></trkpt><trkpt lat="45.494328705193645" lon="11.05129971230928"><ele>320.0</ele><time>2026-04-18T13:21:14Z</time></trkpt><trkpt lat="45.494261151736836" lon="11.051299585334055"><ele>320.0</ele><time>2026-04-18T13:21:16Z</time></trkpt><trkpt lat="45.49419559581065" lon="11.05129329283598"><ele>320.0</ele><time>2026-04-18T13:21:18Z</time></trkpt><trkpt lat="45.49411722008071" lon="11.05127818080225"><ele>320.0</ele><time>2026-04-18T13:21:21Z</time></trkpt><trkpt lat="45.494030136995974" lon="11.051319071445644"><ele>320.0</ele><time>2026-04-18T13:21:24Z</time></trkpt><trkpt lat="45.49396971346572" lon="11.051394531800486"><ele>320.0</ele><time>2026-04-18T13:21:26Z</time></trkpt><trkpt lat="45.49402928639016" lon="11.051464613618801"><ele>320.0</ele><time>2026-04-18T13:21:30Z</time></trkpt><trkpt lat="45.494083960261456" lon="11.051533994703604"><ele>320.0</ele><time>2026-04-18T13:21:32Z</time></trkpt><trkpt lat="45.494082354075104" lon="11.051661983416619"><ele>320.0</ele><time>2026-04-18T13:21:35Z</time></trkpt><trkpt lat="45.494038566595144" lon="11.051743426418705"><ele>320.0</ele><time>2026-04-18T13:21:37Z</time></trkpt><trkpt lat="45.49398474704576" lon="11.051838101075122"><ele>320.0</ele><time>2026-04-18T13:21:39Z</time></trkpt><trkpt lat="45.493937990840756" lon="11.051903911715378"><ele>320.0</ele><time>2026-04-18T13:21:41Z</time></trkpt><trkpt lat="45.49393582746846" lon="11.051995760590145"><ele>316.0</ele><time>2026-04-18T13:21:43Z</time></trkpt><trkpt lat="45.49391297125092" lon="11.05211072339769"><ele>312.0</ele><time>2026-04-18T13:21:45Z</time></trkpt><trkpt lat="45.49384418327001" lon="11.05213429351436"><ele>308.0</ele><time>2026-04-18T13:21:47Z</time></trkpt><trkpt lat="45.4937279167091" lon="11.052085131925594"><ele>304.0</ele><time>2026-04-18T13:21:49Z</time></trkpt><trkpt lat="45.49366754422855" lon="11.05204150704089"><ele>300.0</ele><time>2026-04-18T13:21:50Z</time></trkpt><trkpt lat="45.493604184725065" lon="11.052012136928873"><ele>296.0</ele><time>2026-04-18T13:21:51Z</time></trkpt><trkpt lat="45.49353574030749" lon="11.051974921049254"><ele>294.8</ele><time>2026-04-18T13:21:52Z</time></trkpt><trkpt lat="45.49342813132055" lon="11.051892131670561"><ele>293.6</ele><time>2026-04-18T13:21:54Z</time></trkpt><trkpt lat="45.493309203280276" lon="11.051852740483838"><ele>292.4</ele><time>2026-04-18T13:21:56Z</time></trkpt><trkpt lat="45.493246750538184" lon="11.051816636482105"><ele>291.2</ele><time>2026-04-18T13:21:57Z</time></trkpt><trkpt lat="45.493119316096085" lon="11.051792293475811"><ele>290.0</ele><time>2026-04-18T13:21:59Z</time></trkpt><trkpt lat="45.49304183701912" lon="11.051754836836183"><ele>290.0</ele><time>2026-04-18T13:22:00Z</time></trkpt><trkpt lat="45.492976696239424" lon="11.051721705272078"><ele>290.0</ele><time>2026-04-18T13:22:01Z</time></trkpt><trkpt lat="45.492903966455096" lon="11.051676007467686"><ele>290.0</ele><time>2026-04-18T13:22:02Z</time></trkpt><trkpt lat="45.49282831338662" lon="11.05164634438624"><ele>290.0</ele><time>2026-04-18T13:22:03Z</time></trkpt><trkpt lat="45.492734792324306" lon="11.051612313357188"><ele>290.0</ele><time>2026-04-18T13:22:04Z</time></trkpt><trkpt lat="45.492657056633234" lon="11.051577493727116"><ele>290.0</ele><time>2026-04-18T13:22:05Z</time></trkpt><trkpt lat="45.49258763715347" lon="11.051548071884836"><ele>293.0</ele><time>2026-04-18T13:22:06Z</time></trkpt><trkpt lat="45.4925228486463" lon="11.051524558375018"><ele>296.0</ele><time>2026-04-18T13:22:07Z</time></trkpt><trkpt lat="45.49244328990545" lon="11.051508714953343"><ele>299.0</ele><time>2026-04-18T13:22:08Z</time></trkpt><trkpt lat="45.49234559405607" lon="11.051487200727854"><ele>302.0</ele><time>2026-04-18T13:22:09Z</time></trkpt><trkpt lat="45.492257081264796" lon="11.051448735754882"><ele>305.0</ele><time>2026-04-18T13:22:10Z</time></trkpt><trkpt lat="45.49218410432338" lon="11.051379420085325"><ele>308.0</ele><time>2026-04-18T13:22:11Z</time></trkpt><trkpt lat="45.49211991925008" lon="11.051382599873197"><ele>309.1666666666667</ele><time>2026-04-18T13:22:12Z</time></trkpt><trkpt lat="45.49203292680784" lon="11.051426304016491"><ele>310.33333333333337</ele><time>2026-04-18T13:22:14Z</time></trkpt><trkpt lat="45.49198059713319" lon="11.0515147828715"><ele>311.5</ele><time>2026-04-18T13:26:41Z</time></trkpt><trkpt lat="45.49191834064281" lon="11.051585776699612"><ele>312.6666666666667</ele><time>2026-04-18T13:26:44Z</time></trkpt><trkpt lat="45.4918727905905" lon="11.051648909509312"><ele>313.8333333333333</ele><time>2026-04-18T13:26:45Z</time></trkpt><trkpt lat="45.49180671653501" lon="11.051739760282173"><ele>315.0</ele><time>2026-04-18T13:26:47Z</time></trkpt><trkpt lat="45.491760400480985" lon="11.051804319162647"><ele>311.3333333333333</ele><time>2026-04-18T13:26:48Z</time></trkpt><trkpt lat="45.49171345807646" lon="11.05189372132432"><ele>307.6666666666667</ele><time>2026-04-18T13:26:49Z</time></trkpt><trkpt lat="45.491648632414545" lon="11.051981150554381"><ele>304.0</ele><time>2026-04-18T13:26:50Z</time></trkpt><trkpt lat="45.49157165652615" lon="11.05205502249412"><ele>300.33333333333337</ele><time>2026-04-18T13:26:51Z</time></trkpt><trkpt lat="45.49149920480316" lon="11.052132118984762"><ele>296.6666666666667</ele><time>2026-04-18T13:26:52Z</time></trkpt><trkpt lat="45.49142473539539" lon="11.052188809343113"><ele>293.0</ele><time>2026-04-18T13:26:53Z</time></trkpt><trkpt lat="45.49134259334054" lon="11.052239420338138"><ele>293.0</ele><time>2026-04-18T13:26:54Z</time></trkpt><trkpt lat="45.49127263430391" lon="11.052278516293958"><ele>293.0</ele><time>2026-04-18T13:26:55Z</time></trkpt><trkpt lat="45.491191486484965" lon="11.052333521013065"><ele>293.0</ele><time>2026-04-18T13:26:56Z</time></trkpt><trkpt lat="45.49111193253781" lon="11.052385764776874"><ele>293.0</ele><time>2026-04-18T13:26:57Z</time></trkpt><trkpt lat="45.49103137082738" lon="11.052417503808176"><ele>293.0</ele><time>2026-04-18T13:26:58Z</time></trkpt><trkpt lat="45.49092957684698" lon="11.052448501523742"><ele>293.0</ele><time>2026-04-18T13:26:59Z</time></trkpt><trkpt lat="45.490825260272935" lon="11.05245583603421"><ele>292.0</ele><time>2026-04-18T13:27:00Z</time></trkpt><trkpt lat="45.49072198196778" lon="11.05245997104949"><ele>291.0</ele><time>2026-04-18T13:27:00.999Z</time></trkpt><trkpt lat="45.49062020802563" lon="11.052471551156218"><ele>290.0</ele><time>2026-04-18T13:27:01.999Z</time></trkpt><trkpt lat="45.49054378050153" lon="11.052493598051836"><ele>289.0</ele><time>2026-04-18T13:27:02.999Z</time></trkpt><trkpt lat="45.4904680431917" lon="11.052531015257191"><ele>288.0</ele><time>2026-04-18T13:27:03.999Z</time></trkpt><trkpt lat="45.490396362664875" lon="11.052599680513463"><ele>288.0</ele><time>2026-04-18T13:27:04.999Z</time></trkpt><trkpt lat="45.4903258567835" lon="11.052688309102683"><ele>288.0</ele><time>2026-04-18T13:27:05.999Z</time></trkpt><trkpt lat="45.49024734902728" lon="11.052772201222474"><ele>288.0</ele><time>2026-04-18T13:27:06.999Z</time></trkpt><trkpt lat="45.490176332291455" lon="11.052862522703824"><ele>288.0</ele><time>2026-04-18T13:27:07.999Z</time></trkpt><trkpt lat="45.49009991218133" lon="11.052983413541757"><ele>288.0</ele><time>2026-04-18T13:27:08.999Z</time></trkpt><trkpt lat="45.49003590720959" lon="11.053078751077923"><ele>288.0</ele><time>2026-04-18T13:27:09.999Z</time></trkpt><trkpt lat="45.48997817775192" lon="11.053150977793383"><ele>288.0</ele><time>2026-04-18T13:27:10.999Z</time></trkpt><trkpt lat="45.489885698181034" lon="11.05320407296023"><ele>288.0</ele><time>2026-04-18T13:27:11.999Z</time></trkpt><trkpt lat="45.489787967331075" lon="11.053241910419846"><ele>288.0</ele><time>2026-04-18T13:27:12.999Z</time></trkpt><trkpt lat="45.489704551290856" lon="11.053246486719795"><ele>288.0</ele><time>2026-04-18T13:27:13.999Z</time></trkpt><trkpt lat="45.48961752920489" lon="11.05320992180639"><ele>285.0</ele><time>2026-04-18T13:27:15.999Z</time></trkpt><trkpt lat="45.489566006754686" lon="11.05306024118841"><ele>282.0</ele><time>2026-04-18T13:27:17.999Z</time></trkpt><trkpt lat="45.48948972564833" lon="11.05298094301406"><ele>279.0</ele><time>2026-04-18T13:27:19.999Z</time></trkpt><trkpt lat="45.48940539359877" lon="11.053009747720113"><ele>276.0</ele><time>2026-04-18T13:27:20.999Z</time></trkpt><trkpt lat="45.489296752502" lon="11.05302205091457"><ele>273.0</ele><time>2026-04-18T13:27:21.999Z</time></trkpt><trkpt lat="45.48921593531563" lon="11.053057324729757"><ele>273.0</ele><time>2026-04-18T13:27:23Z</time></trkpt><trkpt lat="45.48915633392321" lon="11.053008923625976"><ele>273.0</ele><time>2026-04-18T13:27:26Z</time></trkpt><trkpt lat="45.48909123858904" lon="11.052909335383948"><ele>273.0</ele><time>2026-04-18T13:27:28Z</time></trkpt><trkpt lat="45.48902123090802" lon="11.052817049180257"><ele>273.0</ele><time>2026-04-18T13:27:29Z</time></trkpt><trkpt lat="45.48894843149401" lon="11.052741324513248"><ele>273.0</ele><time>2026-04-18T13:27:30Z</time></trkpt><trkpt lat="45.48888800288827" lon="11.05262824014012"><ele>273.0</ele><time>2026-04-18T13:27:31Z</time></trkpt><trkpt lat="45.488799689986436" lon="11.052546922830562"><ele>273.8</ele><time>2026-04-18T13:27:32Z</time></trkpt><trkpt lat="45.488699893335635" lon="11.052494310179004"><ele>274.6</ele><time>2026-04-18T13:27:33Z</time></trkpt><trkpt lat="45.488618415422074" lon="11.05241272801901"><ele>275.4</ele><time>2026-04-18T13:27:34Z</time></trkpt><trkpt lat="45.48852683573786" lon="11.052385849735906"><ele>276.2</ele><time>2026-04-18T13:27:35Z</time></trkpt><trkpt lat="45.48842299321482" lon="11.052367497148117"><ele>277.0</ele><time>2026-04-18T13:27:36Z</time></trkpt><trkpt lat="45.48830823115055" lon="11.052386228992223"><ele>277.0</ele><time>2026-04-18T13:27:37Z</time></trkpt><trkpt lat="45.48820492854241" lon="11.052350123718156"><ele>277.0</ele><time>2026-04-18T13:27:38Z</time></trkpt><trkpt lat="45.488101672731794" lon="11.052355164178595"><ele>277.0</ele><time>2026-04-18T13:27:39Z</time></trkpt><trkpt lat="45.48800061362236" lon="11.052364408711762"><ele>277.0</ele><time>2026-04-18T13:27:40Z</time></trkpt><trkpt lat="45.48790133697396" lon="11.052347195974603"><ele>277.0</ele><time>2026-04-18T13:27:41Z</time></trkpt><trkpt lat="45.487810910382045" lon="11.052339494928777"><ele>272.6</ele><time>2026-04-18T13:27:42Z</time></trkpt><trkpt lat="45.487716978443885" lon="11.052328160240192"><ele>268.2</ele><time>2026-04-18T13:27:43Z</time></trkpt><trkpt lat="45.487643056679275" lon="11.052342997081082"><ele>263.8</ele><time>2026-04-18T13:27:44Z</time></trkpt><trkpt lat="45.48753634355422" lon="11.05232620671019"><ele>259.4</ele><time>2026-04-18T13:27:46Z</time></trkpt><trkpt lat="45.48751058744013" lon="11.052460306321406"><ele>255.0</ele><time>2026-04-18T13:27:50Z</time></trkpt><trkpt lat="45.48755357339084" lon="11.052568551827035"><ele>250.75</ele><time>2026-04-18T13:27:51Z</time></trkpt><trkpt lat="45.48760761511968" lon="11.05271409894268"><ele>246.5</ele><time>2026-04-18T13:27:52Z</time></trkpt><trkpt lat="45.48768101662572" lon="11.052861869351892"><ele>242.25</ele><time>2026-04-18T13:27:53Z</time></trkpt><trkpt lat="45.48774636491163" lon="11.052994868764511"><ele>238.0</ele><time>2026-04-18T13:27:54Z</time></trkpt><trkpt lat="45.48780243290583" lon="11.053121614788006"><ele>238.0</ele><time>2026-04-18T13:27:55Z</time></trkpt><trkpt lat="45.487818727281365" lon="11.053271849572809"><ele>238.0</ele><time>2026-04-18T13:27:56Z</time></trkpt><trkpt lat="45.48784865987493" lon="11.05341337146094"><ele>238.0</ele><time>2026-04-18T13:27:57Z</time></trkpt><trkpt lat="45.487894206229086" lon="11.053552815407741"><ele>238.0</ele><time>2026-04-18T13:27:58Z</time></trkpt><trkpt lat="45.48792315302845" lon="11.053718075591975"><ele>238.0</ele><time>2026-04-18T13:27:59Z</time></trkpt><trkpt lat="45.487950970815604" lon="11.053876894902857"><ele>238.60000000000002</ele><time>2026-04-18T13:28:00Z</time></trkpt><trkpt lat="45.48797671441077" lon="11.054017164316528"><ele>239.20000000000002</ele><time>2026-04-18T13:28:01Z</time></trkpt><trkpt lat="45.488007749509016" lon="11.054156394063112"><ele>239.8</ele><time>2026-04-18T13:28:02Z</time></trkpt><trkpt lat="45.48804431712348" lon="11.054285849401214"><ele>240.4</ele><time>2026-04-18T13:28:03Z</time></trkpt><trkpt lat="45.488110927981516" lon="11.05440800967051"><ele>241.0</ele><time>2026-04-18T13:28:04Z</time></trkpt><trkpt lat="45.488212470361134" lon="11.054513887766296"><ele>239.0</ele><time>2026-04-18T13:28:05Z</time></trkpt><trkpt lat="45.4883344913008" lon="11.054595396621863"><ele>237.0</ele><time>2026-04-18T13:28:06Z</time></trkpt><trkpt lat="45.488478466400665" lon="11.05467976881115"><ele>235.0</ele><time>2026-04-18T13:28:07Z</time></trkpt><trkpt lat="45.48860525368728" lon="11.054749773744211"><ele>233.0</ele><time>2026-04-18T13:28:08Z</time></trkpt><trkpt lat="45.488712926295655" lon="11.054836030440336"><ele>234.0</ele><time>2026-04-18T13:28:09Z</time></trkpt><trkpt lat="45.488829901981546" lon="11.054893116430085"><ele>235.0</ele><time>2026-04-18T13:28:10Z</time></trkpt><trkpt lat="45.488952311868374" lon="11.054942626452208"><ele>236.0</ele><time>2026-04-18T13:28:11Z</time></trkpt><trkpt lat="45.48908681451467" lon="11.05499196473309"><ele>237.0</ele><time>2026-04-18T13:28:12Z</time></trkpt><trkpt lat="45.48920416026157" lon="11.055054396639344"><ele>233.75</ele><time>2026-04-18T13:28:13Z</time></trkpt><trkpt lat="45.48928908554531" lon="11.055153830942656"><ele>230.5</ele><time>2026-04-18T13:28:14Z</time></trkpt><trkpt lat="45.48938509542807" lon="11.055244021406521"><ele>227.25</ele><time>2026-04-18T13:28:15Z</time></trkpt><trkpt lat="45.48950278455829" lon="11.055301314049032"><ele>224.0</ele><time>2026-04-18T13:28:16Z</time></trkpt><trkpt lat="45.48964214918048" lon="11.055357465206656"><ele>224.0</ele><time>2026-04-18T13:28:17Z</time></trkpt><trkpt lat="45.48978132080978" lon="11.055408780212009"><ele>224.0</ele><time>2026-04-18T13:28:18Z</time></trkpt><trkpt lat="45.48992014866873" lon="11.055456312920775"><ele>224.0</ele><time>2026-04-18T13:28:19Z</time></trkpt><trkpt lat="45.49002779368399" lon="11.055498195611595"><ele>224.0</ele><time>2026-04-18T13:28:20Z</time></trkpt><trkpt lat="45.490100692737236" lon="11.055529389573"><ele>224.0</ele><time>2026-04-18T13:28:21Z</time></trkpt><trkpt lat="45.49019621351597" lon="11.05559583954566"><ele>223.99999999999997</ele><time>2026-04-18T13:28:23Z</time></trkpt><trkpt lat="45.49017611280563" lon="11.055736539154148"><ele>223.99999999999997</ele><time>2026-04-18T13:28:25Z</time></trkpt><trkpt lat="45.490108832465" lon="11.05579897661987"><ele>224.0</ele><time>2026-04-18T13:28:26Z</time></trkpt><trkpt lat="45.49000800852424" lon="11.055795597251041"><ele>224.0</ele><time>2026-04-18T13:28:27Z</time></trkpt><trkpt lat="45.489899308267724" lon="11.055847431982064"><ele>220.0</ele><time>2026-04-18T13:28:28Z</time></trkpt><trkpt lat="45.48977633902327" lon="11.05586542550184"><ele>216.0</ele><time>2026-04-18T13:28:29Z</time></trkpt><trkpt lat="45.48964285498303" lon="11.055890545560352"><ele>212.0</ele><time>2026-04-18T13:28:30Z</time></trkpt><trkpt lat="45.48951699484151" lon="11.055919036901827"><ele>208.0</ele><time>2026-04-18T13:28:31Z</time></trkpt><trkpt lat="45.48939517938967" lon="11.055947398630897"><ele>207.5</ele><time>2026-04-18T13:28:32Z</time></trkpt><trkpt lat="45.48927707165227" lon="11.056003944002272"><ele>207.0</ele><time>2026-04-18T13:28:33Z</time></trkpt><trkpt lat="45.48915743503075" lon="11.056043246469388"><ele>206.5</ele><time>2026-04-18T13:28:34Z</time></trkpt><trkpt lat="45.48903647971781" lon="11.056104293081518"><ele>206.0</ele><time>2026-04-18T13:28:35Z</time></trkpt><trkpt lat="45.48891656036618" lon="11.056165900025496"><ele>206.0</ele><time>2026-04-18T13:28:36Z</time></trkpt><trkpt lat="45.48879272535842" lon="11.05619035371347"><ele>206.0</ele><time>2026-04-18T13:28:37Z</time></trkpt><trkpt lat="45.48867358348927" lon="11.056232901765778"><ele>206.0</ele><time>2026-04-18T13:28:38Z</time></trkpt><trkpt lat="45.488562999145" lon="11.056296223432883"><ele>206.0</ele><time>2026-04-18T13:28:39Z</time></trkpt><trkpt lat="45.48845633431586" lon="11.056330507114348"><ele>204.8</ele><time>2026-04-18T13:28:40Z</time></trkpt><trkpt lat="45.48834720985417" lon="11.056346412783295"><ele>203.60000000000002</ele><time>2026-04-18T13:28:41Z</time></trkpt><trkpt lat="45.48823459818287" lon="11.056334890931208"><ele>202.4</ele><time>2026-04-18T13:28:42Z</time></trkpt><trkpt lat="45.48812413269633" lon="11.056294670540009"><ele>201.2</ele><time>2026-04-18T13:28:43Z</time></trkpt><trkpt lat="45.48801948051065" lon="11.056243526175644"><ele>200.0</ele><time>2026-04-18T13:28:44Z</time></trkpt><trkpt lat="45.48793344661218" lon="11.056155084406283"><ele>196.50000000000003</ele><time>2026-04-18T13:28:45Z</time></trkpt><trkpt lat="45.48784100432819" lon="11.0561026790287"><ele>193.0</ele><time>2026-04-18T13:28:46Z</time></trkpt><trkpt lat="45.487764743223124" lon="11.056027423467151"><ele>189.5</ele><time>2026-04-18T13:28:47Z</time></trkpt><trkpt lat="45.48769103323871" lon="11.055955336677544"><ele>186.0</ele><time>2026-04-18T13:28:48Z</time></trkpt><trkpt lat="45.487634823991506" lon="11.05591368835613"><ele>182.5</ele><time>2026-04-18T13:28:49Z</time></trkpt><trkpt lat="45.48757224209396" lon="11.055979045516318"><ele>179.0</ele><time>2026-04-18T13:28:51Z</time></trkpt><trkpt lat="45.48763331607357" lon="11.056134586954826"><ele>179.0</ele><time>2026-04-18T13:28:53Z</time></trkpt><trkpt lat="45.487687103997466" lon="11.056213860709258"><ele>179.0</ele><time>2026-04-18T13:28:54Z</time></trkpt><trkpt lat="45.48772543435109" lon="11.056346445496215"><ele>179.0</ele><time>2026-04-18T13:28:56Z</time></trkpt><trkpt lat="45.48761283535625" lon="11.056362419812837"><ele>179.0</ele><time>2026-04-18T13:28:58Z</time></trkpt><trkpt lat="45.48758273073474" lon="11.056236728901357"><ele>179.0</ele><time>2026-04-18T13:28:59Z</time></trkpt><trkpt lat="45.48752388322543" lon="11.056131083308307"><ele>179.0</ele><time>2026-04-18T13:29:00Z</time></trkpt><trkpt lat="45.487446830897206" lon="11.056033602854678"><ele>179.0</ele><time>2026-04-18T13:29:00.999Z</time></trkpt><trkpt lat="45.4873612512615" lon="11.055940752941632"><ele>179.0</ele><time>2026-04-18T13:29:01.999Z</time></trkpt><trkpt lat="45.48725043371602" lon="11.05587401212097"><ele>179.0</ele><time>2026-04-18T13:29:02.999Z</time></trkpt><trkpt lat="45.487146812410266" lon="11.055796768852273"><ele>179.0</ele><time>2026-04-18T13:29:03.999Z</time></trkpt><trkpt lat="45.48706236768471" lon="11.055686167590334"><ele>177.6</ele><time>2026-04-18T13:29:04.999Z</time></trkpt><trkpt lat="45.48698352592802" lon="11.055581619220133"><ele>176.2</ele><time>2026-04-18T13:29:05.999Z</time></trkpt><trkpt lat="45.486911997699565" lon="11.05548500501243"><ele>174.79999999999998</ele><time>2026-04-18T13:29:06.999Z</time></trkpt><trkpt lat="45.486854331281016" lon="11.055386648551913"><ele>173.39999999999998</ele><time>2026-04-18T13:29:07.999Z</time></trkpt><trkpt lat="45.486791527369036" lon="11.055299970760974"><ele>172.0</ele><time>2026-04-18T13:29:08.999Z</time></trkpt><trkpt lat="45.48671390757751" lon="11.055239693080356"><ele>172.0</ele><time>2026-04-18T13:29:09.999Z</time></trkpt><trkpt lat="45.48662226740401" lon="11.055206336229567"><ele>172.0</ele><time>2026-04-18T13:29:10.999Z</time></trkpt><trkpt lat="45.48653373019886" lon="11.055158236302207"><ele>172.0</ele><time>2026-04-18T13:29:11.999Z</time></trkpt><trkpt lat="45.486461874011376" lon="11.055150516985885"><ele>172.0</ele><time>2026-04-18T13:29:12.999Z</time></trkpt><trkpt lat="45.48641672451861" lon="11.055224961203928"><ele>172.0</ele><time>2026-04-18T13:29:13.999Z</time></trkpt><trkpt lat="45.48638601403909" lon="11.05533194674343"><ele>172.0</ele><time>2026-04-18T13:29:14.999Z</time></trkpt><trkpt lat="45.486425473712536" lon="11.055473576364841"><ele>172.0</ele><time>2026-04-18T13:29:15.999Z</time></trkpt><trkpt lat="45.48644871359354" lon="11.055641430040605"><ele>172.0</ele><time>2026-04-18T13:29:16.999Z</time></trkpt><trkpt lat="45.48642296954356" lon="11.055835955637443"><ele>172.0</ele><time>2026-04-18T13:29:17.999Z</time></trkpt><trkpt lat="45.486417269967625" lon="11.056039383208544"><ele>172.0</ele><time>2026-04-18T13:29:18.999Z</time></trkpt><trkpt lat="45.48639642836282" lon="11.056237892751685"><ele>167.75</ele><time>2026-04-18T13:29:19.999Z</time></trkpt><trkpt lat="45.4863689904111" lon="11.056432737641122"><ele>163.5</ele><time>2026-04-18T13:29:20.999Z</time></trkpt><trkpt lat="45.48635349848519" lon="11.056632174788634"><ele>159.25</ele><time>2026-04-18T13:29:21.999Z</time></trkpt><trkpt lat="45.48632422211589" lon="11.056829912130167"><ele>155.0</ele><time>2026-04-18T13:29:22.999Z</time></trkpt><trkpt lat="45.48630727824925" lon="11.057020484865125"><ele>151.0</ele><time>2026-04-18T13:29:23.999Z</time></trkpt><trkpt lat="45.486296826212424" lon="11.057194536344069"><ele>147.0</ele><time>2026-04-18T13:29:24.999Z</time></trkpt><trkpt lat="45.48628847371798" lon="11.057352998263209"><ele>143.0</ele><time>2026-04-18T13:29:25.999Z</time></trkpt><trkpt lat="45.48628500734488" lon="11.05749602577285"><ele>139.0</ele><time>2026-04-18T13:29:26.999Z</time></trkpt><trkpt lat="45.486274551376475" lon="11.057624070699656"><ele>135.0</ele><time>2026-04-18T13:29:27.999Z</time></trkpt><trkpt lat="45.48627691098456" lon="11.057741408576753"><ele>136.4</ele><time>2026-04-18T13:29:29Z</time></trkpt><trkpt lat="45.48624681558256" lon="11.057848022150736"><ele>137.8</ele><time>2026-04-18T13:29:30Z</time></trkpt><trkpt lat="45.48618714575166" lon="11.057980710845488"><ele>139.2</ele><time>2026-04-18T13:29:31Z</time></trkpt><trkpt lat="45.486125121371494" lon="11.058131613632488"><ele>140.6</ele><time>2026-04-18T13:29:32Z</time></trkpt><trkpt lat="45.48606010772614" lon="11.05826555144239"><ele>142.0</ele><time>2026-04-18T13:29:33Z</time></trkpt><trkpt lat="45.48600609010247" lon="11.058394477742342"><ele>139.33333333333334</ele><time>2026-04-18T13:29:34Z</time></trkpt><trkpt lat="45.48597302216765" lon="11.058502449475975"><ele>136.66666666666669</ele><time>2026-04-18T13:29:35Z</time></trkpt><trkpt lat="45.485960190858194" lon="11.05860975193125"><ele>134.0</ele><time>2026-04-18T13:29:36Z</time></trkpt><trkpt lat="45.48597466161521" lon="11.058722976609655"><ele>131.33333333333334</ele><time>2026-04-18T13:29:37Z</time></trkpt><trkpt lat="45.486008998915075" lon="11.058847980862566"><ele>128.66666666666666</ele><time>2026-04-18T13:29:38Z</time></trkpt><trkpt lat="45.48604120326069" lon="11.058983964300081"><ele>126.0</ele><time>2026-04-18T13:29:39Z</time></trkpt><trkpt lat="45.48604824359446" lon="11.059158580456028"><ele>122.5</ele><time>2026-04-18T13:29:40Z</time></trkpt><trkpt lat="45.48603078480659" lon="11.059359312327295"><ele>119.0</ele><time>2026-04-18T13:29:41Z</time></trkpt><trkpt lat="45.48600577378053" lon="11.059549373675033"><ele>115.5</ele><time>2026-04-18T13:29:42Z</time></trkpt><trkpt lat="45.4859902500029" lon="11.059728441874682"><ele>112.0</ele><time>2026-04-18T13:29:43Z</time></trkpt><trkpt lat="45.485973843375305" lon="11.059892099232421"><ele>110.19999999999999</ele><time>2026-04-18T13:29:44Z</time></trkpt><trkpt lat="45.48594936843927" lon="11.060058837847132"><ele>108.39999999999999</ele><time>2026-04-18T13:29:45Z</time></trkpt><trkpt lat="45.48595125367544" lon="11.060227704700367"><ele>106.6</ele><time>2026-04-18T13:29:46Z</time></trkpt><trkpt lat="45.48594861008967" lon="11.060363343234883"><ele>104.80000000000001</ele><time>2026-04-18T13:29:47Z</time></trkpt><trkpt lat="45.48591946352334" lon="11.06048828797926"><ele>103.0</ele><time>2026-04-18T13:29:48Z</time></trkpt><trkpt lat="45.48593589177597" lon="11.060633226880753"><ele>103.00000000000001</ele><time>2026-04-18T13:29:49Z</time></trkpt><trkpt lat="45.485924393357976" lon="11.06075957713745"><ele>103.0</ele><time>2026-04-18T13:29:50Z</time></trkpt><trkpt lat="45.48590721032837" lon="11.06087431345244"><ele>103.0</ele><time>2026-04-18T13:29:51Z</time></trkpt><trkpt lat="45.4858921036592" lon="11.060996046095799"><ele>103.0</ele><time>2026-04-18T13:29:52Z</time></trkpt><trkpt lat="45.48588736391147" lon="11.061119389837442"><ele>103.00000000000001</ele><time>2026-04-18T13:29:53Z</time></trkpt><trkpt lat="45.48589886154073" lon="11.061224255694391"><ele>103.0</ele><time>2026-04-18T13:29:54Z</time></trkpt><trkpt lat="45.48592026286773" lon="11.061321524579355"><ele>103.0</ele><time>2026-04-18T13:29:55Z</time></trkpt><trkpt lat="45.485960431559334" lon="11.06141612028018"><ele>103.0</ele><time>2026-04-18T13:29:56Z</time></trkpt><trkpt lat="45.48600946766382" lon="11.061518709124764"><ele>103.0</ele><time>2026-04-18T13:29:57Z</time></trkpt><trkpt lat="45.486061697055774" lon="11.061617968295556"><ele>103.0</ele><time>2026-04-18T13:29:58Z</time></trkpt><trkpt lat="45.48612927261479" lon="11.061729499359151"><ele>103.0</ele><time>2026-04-18T13:29:59Z</time></trkpt><trkpt lat="45.48620154132125" lon="11.061848495217172"><ele>103.80000000000001</ele><time>2026-04-18T13:30:00Z</time></trkpt><trkpt lat="45.486270486012266" lon="11.061966156509024"><ele>104.6</ele><time>2026-04-18T13:30:01Z</time></trkpt><trkpt lat="45.486322882982364" lon="11.06208942315538"><ele>105.39999999999999</ele><time>2026-04-18T13:30:02Z</time></trkpt><trkpt lat="45.486371011574725" lon="11.06222252233941"><ele>106.19999999999999</ele><time>2026-04-18T13:30:03Z</time></trkpt><trkpt lat="45.48639913386691" lon="11.062368992823938"><ele>107.0</ele><time>2026-04-18T13:30:04Z</time></trkpt><trkpt lat="45.48643142326466" lon="11.062539706159212"><ele>107.0</ele><time>2026-04-18T13:30:05Z</time></trkpt><trkpt lat="45.48644832861657" lon="11.062698384782083"><ele>106.99999999999999</ele><time>2026-04-18T13:30:06Z</time></trkpt><trkpt lat="45.486470210744756" lon="11.062839498543283"><ele>106.99999999999999</ele><time>2026-04-18T13:30:07Z</time></trkpt><trkpt lat="45.48648369268701" lon="11.06297037065895"><ele>107.0</ele><time>2026-04-18T13:30:08Z</time></trkpt><trkpt lat="45.486485668004164" lon="11.063076268070628"><ele>107.0</ele><time>2026-04-18T13:30:09Z</time></trkpt><trkpt lat="45.48645153158939" lon="11.063213063080488"><ele>106.99999999999999</ele><time>2026-04-18T13:30:11Z</time></trkpt><trkpt lat="45.48631633355421" lon="11.063213428234745"><ele>107.0</ele><time>2026-04-18T13:30:13Z</time></trkpt><trkpt lat="45.48624458416563" lon="11.06324115746009"><ele>107.0</ele><time>2026-04-18T13:30:14Z</time></trkpt><trkpt lat="45.48619344432788" lon="11.063322378247541"><ele>107.0</ele><time>2026-04-18T13:30:15Z</time></trkpt><trkpt lat="45.486161638817514" lon="11.063409800727436"><ele>106.99999999999999</ele><time>2026-04-18T13:30:16Z</time></trkpt><trkpt lat="45.486171953734925" lon="11.063505847084205"><ele>107.0</ele><time>2026-04-18T13:30:17Z</time></trkpt><trkpt lat="45.48622303565373" lon="11.063601589270556"><ele>107.0</ele><time>2026-04-18T13:30:18Z</time></trkpt><trkpt lat="45.486259791962" lon="11.063736484287135"><ele>106.99999999999999</ele><time>2026-04-18T13:30:19Z</time></trkpt><trkpt lat="45.48631491420855" lon="11.063855990282583"><ele>106.99999999999999</ele><time>2026-04-18T13:30:20Z</time></trkpt><trkpt lat="45.48637108104398" lon="11.063983927036066"><ele>107.0</ele><time>2026-04-18T13:30:21Z</time></trkpt><trkpt lat="45.48643833765494" lon="11.064097281627864"><ele>107.0</ele><time>2026-04-18T13:30:22Z</time></trkpt><trkpt lat="45.486485231973504" lon="11.06422566515851"><ele>107.6</ele><time>2026-04-18T13:30:23Z</time></trkpt><trkpt lat="45.486542676803715" lon="11.064363196016917"><ele>108.19999999999999</ele><time>2026-04-18T13:30:24Z</time></trkpt><trkpt lat="45.486603819998656" lon="11.064508916408744"><ele>108.8</ele><time>2026-04-18T13:30:25Z</time></trkpt><trkpt lat="45.486658904813886" lon="11.064640880194089"><ele>109.4</ele><time>2026-04-18T13:30:26Z</time></trkpt><trkpt lat="45.48670697494254" lon="11.064757382784133"><ele>110.0</ele><time>2026-04-18T13:30:27Z</time></trkpt><trkpt lat="45.486742371419076" lon="11.064860685319612"><ele>110.99999999999999</ele><time>2026-04-18T13:30:28Z</time></trkpt><trkpt lat="45.486749972975346" lon="11.064972912913762"><ele>112.0</ele><time>2026-04-18T13:30:29Z</time></trkpt><trkpt lat="45.48671797147513" lon="11.065104517249312"><ele>113.0</ele><time>2026-04-18T13:30:30Z</time></trkpt><trkpt lat="45.48672200282021" lon="11.065239528446421"><ele>114.0</ele><time>2026-04-18T13:30:31Z</time></trkpt><trkpt lat="45.48671173080523" lon="11.065359434185526"><ele>114.99999999999999</ele><time>2026-04-18T13:30:32Z</time></trkpt><trkpt lat="45.48672307797211" lon="11.065472371674257"><ele>116.0</ele><time>2026-04-18T13:30:33Z</time></trkpt><trkpt lat="45.48676335543525" lon="11.06558646467499"><ele>116.0</ele><time>2026-04-18T13:30:34Z</time></trkpt><trkpt lat="45.48682830457184" lon="11.065697271382964"><ele>116.0</ele><time>2026-04-18T13:30:35Z</time></trkpt><trkpt lat="45.48686754689732" lon="11.065826437278643"><ele>116.0</ele><time>2026-04-18T13:30:36Z</time></trkpt><trkpt lat="45.486909852212335" lon="11.065944052221091"><ele>116.0</ele><time>2026-04-18T13:30:37Z</time></trkpt><trkpt lat="45.48694448585319" lon="11.06609689634571"><ele>116.0</ele><time>2026-04-18T13:30:38Z</time></trkpt><trkpt lat="45.486977011909545" lon="11.066263989832592"><ele>116.6</ele><time>2026-04-18T13:30:39Z</time></trkpt><trkpt lat="45.486999704556005" lon="11.066431190069318"><ele>117.19999999999999</ele><time>2026-04-18T13:30:40Z</time></trkpt><trkpt lat="45.48701705995112" lon="11.066566316521321"><ele>117.80000000000001</ele><time>2026-04-18T13:30:41Z</time></trkpt><trkpt lat="45.48703937228594" lon="11.066675584083937"><ele>118.4</ele><time>2026-04-18T13:30:42Z</time></trkpt><trkpt lat="45.487064159237484" lon="11.066790371295443"><ele>119.0</ele><time>2026-04-18T13:30:43Z</time></trkpt><trkpt lat="45.48715110841434" lon="11.066879866257077"><ele>121.6</ele><time>2026-04-18T13:30:44Z</time></trkpt><trkpt lat="45.48723229392708" lon="11.066992337388113"><ele>124.2</ele><time>2026-04-18T13:30:45Z</time></trkpt><trkpt lat="45.48729023596101" lon="11.06711626707707"><ele>126.79999999999998</ele><time>2026-04-18T13:30:46Z</time></trkpt><trkpt lat="45.48735800058843" lon="11.067221225039555"><ele>129.4</ele><time>2026-04-18T13:30:47Z</time></trkpt><trkpt lat="45.487432238813255" lon="11.067336209706921"><ele>132.0</ele><time>2026-04-18T13:30:48Z</time></trkpt><trkpt lat="45.48751741634564" lon="11.067436599002768"><ele>131.0</ele><time>2026-04-18T13:30:49Z</time></trkpt><trkpt lat="45.48758218201211" lon="11.067556447416049"><ele>130.0</ele><time>2026-04-18T13:30:50Z</time></trkpt><trkpt lat="45.48765659360967" lon="11.067670475577707"><ele>129.0</ele><time>2026-04-18T13:30:51Z</time></trkpt><trkpt lat="45.48771162507491" lon="11.067798663898731"><ele>128.0</ele><time>2026-04-18T13:30:52Z</time></trkpt><trkpt lat="45.48776133886606" lon="11.067924020153358"><ele>127.0</ele><time>2026-04-18T13:30:53Z</time></trkpt><trkpt lat="45.487817960223246" lon="11.068055048963815"><ele>127.0</ele><time>2026-04-18T13:30:54Z</time></trkpt><trkpt lat="45.48784358227847" lon="11.0682062758526"><ele>127.0</ele><time>2026-04-18T13:30:55Z</time></trkpt><trkpt lat="45.487857929162146" lon="11.068363798810571"><ele>127.0</ele><time>2026-04-18T13:30:56Z</time></trkpt><trkpt lat="45.48787650160208" lon="11.06852669636253"><ele>127.0</ele><time>2026-04-18T13:30:57Z</time></trkpt><trkpt lat="45.48789402062444" lon="11.068693104817696"><ele>126.6</ele><time>2026-04-18T13:30:58Z</time></trkpt><trkpt lat="45.48791149218327" lon="11.068845896945337"><ele>126.19999999999999</ele><time>2026-04-18T13:30:58.999Z</time></trkpt><trkpt lat="45.48793750307403" lon="11.068977618438385"><ele>125.8</ele><time>2026-04-18T13:30:59.999Z</time></trkpt><trkpt lat="45.48797128606517" lon="11.069101011716771"><ele>125.4</ele><time>2026-04-18T13:31:00.999Z</time></trkpt><trkpt lat="45.488033605013584" lon="11.069167748526409"><ele>125.0</ele><time>2026-04-18T13:31:01.999Z</time></trkpt><trkpt lat="45.4880320724879" lon="11.069275191972798"><ele>126.99999999999999</ele><time>2026-04-18T13:31:02.999Z</time></trkpt><trkpt lat="45.48799412489897" lon="11.069382987486232"><ele>129.0</ele><time>2026-04-18T13:31:03.999Z</time></trkpt><trkpt lat="45.48799866364557" lon="11.06950174672972"><ele>131.0</ele><time>2026-04-18T13:31:04.999Z</time></trkpt><trkpt lat="45.48801755536661" lon="11.069611710572387"><ele>133.0</ele><time>2026-04-18T13:31:05.999Z</time></trkpt><trkpt lat="45.48804808000106" lon="11.069754794922723"><ele>135.0</ele><time>2026-04-18T13:31:06.999Z</time></trkpt><trkpt lat="45.4880817465752" lon="11.069882677195377"><ele>137.0</ele><time>2026-04-18T13:31:07.999Z</time></trkpt><trkpt lat="45.48810870248385" lon="11.070022968540354"><ele>139.25</ele><time>2026-04-18T13:31:08.999Z</time></trkpt><trkpt lat="45.4881322743861" lon="11.070185369447113"><ele>141.5</ele><time>2026-04-18T13:31:09.999Z</time></trkpt><trkpt lat="45.48815719138801" lon="11.070350797679623"><ele>143.75</ele><time>2026-04-18T13:31:10.999Z</time></trkpt><trkpt lat="45.488192956392105" lon="11.07051688834307"><ele>146.0</ele><time>2026-04-18T13:31:11.999Z</time></trkpt><trkpt lat="45.48823211274276" lon="11.070671825742236"><ele>146.2</ele><time>2026-04-18T13:31:12.999Z</time></trkpt><trkpt lat="45.48826355068873" lon="11.07081831876716"><ele>146.39999999999998</ele><time>2026-04-18T13:31:13.999Z</time></trkpt><trkpt lat="45.48829609464237" lon="11.07095333146255"><ele>146.6</ele><time>2026-04-18T13:31:14.999Z</time></trkpt><trkpt lat="45.4883316059076" lon="11.071072317031469"><ele>146.79999999999998</ele><time>2026-04-18T13:31:15.999Z</time></trkpt><trkpt lat="45.4883723681721" lon="11.071196632089583"><ele>147.0</ele><time>2026-04-18T13:31:16.999Z</time></trkpt><trkpt lat="45.48840361994377" lon="11.071312086302976"><ele>147.0</ele><time>2026-04-18T13:31:17.999Z</time></trkpt><trkpt lat="45.48842449305708" lon="11.071401054860972"><ele>147.0</ele><time>2026-04-18T13:31:18.999Z</time></trkpt><trkpt lat="45.48844689399497" lon="11.071494729122684"><ele>147.0</ele><time>2026-04-18T13:31:20.999Z</time></trkpt><trkpt lat="45.488486222059734" lon="11.071587286917332"><ele>147.0</ele><time>2026-04-18T13:31:24.999Z</time></trkpt><trkpt lat="45.48851922855387" lon="11.071696642648552"><ele>147.0</ele><time>2026-04-18T13:31:28.999Z</time></trkpt><trkpt lat="45.48857358029684" lon="11.071785780749225"><ele>147.0</ele><time>2026-04-18T13:31:32.999Z</time></trkpt><trkpt lat="45.488625853506655" lon="11.071842107893435"><ele>147.0</ele><time>2026-04-18T13:31:35Z</time></trkpt><trkpt lat="45.48868233203181" lon="11.071901030928322"><ele>147.42857142857142</ele><time>2026-04-18T13:31:38Z</time></trkpt><trkpt lat="45.48872924460452" lon="11.071961370519924"><ele>147.85714285714286</ele><time>2026-04-18T13:31:41Z</time></trkpt><trkpt lat="45.488762433628224" lon="11.07205301564872"><ele>148.28571428571428</ele><time>2026-04-18T13:31:43Z</time></trkpt><trkpt lat="45.488835730806905" lon="11.07207670230164"><ele>148.71428571428572</ele><time>2026-04-18T13:31:47Z</time></trkpt><trkpt lat="45.48891379336327" lon="11.072100351461039"><ele>149.14285714285714</ele><time>2026-04-18T13:31:49Z</time></trkpt><trkpt lat="45.48899126635808" lon="11.072161810113295"><ele>149.57142857142856</ele><time>2026-04-18T13:31:52Z</time></trkpt><trkpt lat="45.489043902281" lon="11.072221174574326"><ele>150.0</ele><time>2026-04-18T13:31:53Z</time></trkpt><trkpt lat="45.48911836092178" lon="11.072292177909395"><ele>151.83333333333334</ele><time>2026-04-18T13:31:55Z</time></trkpt><trkpt lat="45.48917404428578" lon="11.072342998183494"><ele>153.66666666666666</ele><time>2026-04-18T13:31:59Z</time></trkpt><trkpt lat="45.489239815400786" lon="11.07238490191865"><ele>155.5</ele><time>2026-04-18T13:32:01Z</time></trkpt><trkpt lat="45.48931597234519" lon="11.072443706036575"><ele>157.33333333333331</ele><time>2026-04-18T13:32:05Z</time></trkpt><trkpt lat="45.489406741429946" lon="11.072514254962632"><ele>159.16666666666666</ele><time>2026-04-18T13:32:08Z</time></trkpt><trkpt lat="45.48948920118219" lon="11.072555717637288"><ele>161.0</ele><time>2026-04-18T13:32:10Z</time></trkpt><trkpt lat="45.48954173646583" lon="11.072613315141176"><ele>162.66666666666666</ele><time>2026-04-18T13:32:12Z</time></trkpt><trkpt lat="45.48962975304381" lon="11.072618898854998"><ele>164.33333333333331</ele><time>2026-04-18T13:32:15Z</time></trkpt><trkpt lat="45.489693730689815" lon="11.072619350491108"><ele>166.0</ele><time>2026-04-18T13:32:17Z</time></trkpt><trkpt lat="45.48975109938617" lon="11.072669858847615"><ele>167.66666666666666</ele><time>2026-04-18T13:32:19Z</time></trkpt><trkpt lat="45.48978961976563" lon="11.072749473285961"><ele>169.33333333333334</ele><time>2026-04-18T13:32:22Z</time></trkpt><trkpt lat="45.48988694415825" lon="11.07274778639198"><ele>171.0</ele><time>2026-04-18T13:32:27Z</time></trkpt><trkpt lat="45.48995293482289" lon="11.072769018501342"><ele>171.0</ele><time>2026-04-18T13:32:30Z</time></trkpt><trkpt lat="45.490029788717735" lon="11.072823896523628"><ele>171.0</ele><time>2026-04-18T13:32:33Z</time></trkpt><trkpt lat="45.490087460459115" lon="11.07291182384"><ele>171.0</ele><time>2026-04-18T13:32:36Z</time></trkpt><trkpt lat="45.49013652856658" lon="11.072978490397439"><ele>171.0</ele><time>2026-04-18T13:32:38Z</time></trkpt><trkpt lat="45.490219738973906" lon="11.07307329985749"><ele>171.0</ele><time>2026-04-18T13:32:40Z</time></trkpt><trkpt lat="45.49026410260764" lon="11.073154240732475"><ele>171.0</ele><time>2026-04-18T13:32:42Z</time></trkpt><trkpt lat="45.49032327707114" lon="11.073208771479722"><ele>171.0</ele><time>2026-04-18T13:32:44Z</time></trkpt><trkpt lat="45.49039609248412" lon="11.07324455940513"><ele>171.0</ele><time>2026-04-18T13:32:46.999Z</time></trkpt><trkpt lat="45.49046279439965" lon="11.073252593758037"><ele>171.0</ele><time>2026-04-18T13:32:49.999Z</time></trkpt><trkpt lat="45.49053391260483" lon="11.073320123587706"><ele>171.0</ele><time>2026-04-18T13:32:54.999Z</time></trkpt><trkpt lat="45.490553740241104" lon="11.073406367163026"><ele>171.0</ele><time>2026-04-18T13:32:57.999Z</time></trkpt><trkpt lat="45.49048188787241" lon="11.073402740913078"><ele>171.0</ele><time>2026-04-18T13:33:02.999Z</time></trkpt><trkpt lat="45.49038707755237" lon="11.073466956079622"><ele>171.66666666666666</ele><time>2026-04-18T13:33:09.999Z</time></trkpt><trkpt lat="45.49029668169966" lon="11.07348927964131"><ele>172.33333333333334</ele><time>2026-04-18T13:33:13.999Z</time></trkpt><trkpt lat="45.490230634783465" lon="11.073428783314098"><ele>173.0</ele><time>2026-04-18T13:33:15.999Z</time></trkpt><trkpt lat="45.49015606982789" lon="11.07340882974146"><ele>173.66666666666669</ele><time>2026-04-18T13:33:17.999Z</time></trkpt><trkpt lat="45.490075468399375" lon="11.073401715978536"><ele>174.33333333333334</ele><time>2026-04-18T13:33:20.999Z</time></trkpt><trkpt lat="45.490008776481645" lon="11.073411660933308"><ele>175.0</ele><time>2026-04-18T13:33:23.999Z</time></trkpt><trkpt lat="45.49003432111012" lon="11.073505601510904"><ele>175.0</ele><time>2026-04-18T13:33:26.999Z</time></trkpt><trkpt lat="45.490090601898686" lon="11.073622877588615"><ele>175.0</ele><time>2026-04-18T13:33:29.999Z</time></trkpt><trkpt lat="45.490124885940816" lon="11.073699769952054"><ele>175.0</ele><time>2026-04-18T13:33:30.999Z</time></trkpt><trkpt lat="45.49017123538781" lon="11.073790612155962"><ele>175.0</ele><time>2026-04-18T13:33:33.999Z</time></trkpt><trkpt lat="45.490234868860384" lon="11.073812293806"><ele>175.0</ele><time>2026-04-18T13:33:35.999Z</time></trkpt><trkpt lat="45.49018767352501" lon="11.073916897422139"><ele>175.0</ele><time>2026-04-18T13:33:38.999Z</time></trkpt><trkpt lat="45.490106533809495" lon="11.073906667513365"><ele>175.0</ele><time>2026-04-18T13:33:41Z</time></trkpt><trkpt lat="45.49004118033146" lon="11.073877224035384"><ele>175.0</ele><time>2026-04-18T13:33:43Z</time></trkpt><trkpt lat="45.489954453626815" lon="11.07382666663592"><ele>175.0</ele><time>2026-04-18T13:33:45Z</time></trkpt><trkpt lat="45.48987058403783" lon="11.073774574090699"><ele>175.0</ele><time>2026-04-18T13:33:47Z</time></trkpt><trkpt lat="45.48980684972577" lon="11.073748029689765"><ele>175.0</ele><time>2026-04-18T13:33:49Z</time></trkpt><trkpt lat="45.48970418681209" lon="11.07371370275192"><ele>175.0</ele><time>2026-04-18T13:33:51Z</time></trkpt><trkpt lat="45.48961683400088" lon="11.073738133749062"><ele>175.0</ele><time>2026-04-18T13:33:53Z</time></trkpt><trkpt lat="45.48963366727681" lon="11.073847955080764"><ele>175.0</ele><time>2026-04-18T13:33:57Z</time></trkpt><trkpt lat="45.489689773516425" lon="11.07389648217622"><ele>175.0</ele><time>2026-04-18T13:33:59Z</time></trkpt><trkpt lat="45.48974733471939" lon="11.0739601584915"><ele>175.0</ele><time>2026-04-18T13:34:01Z</time></trkpt><trkpt lat="45.48978487236106" lon="11.07403318231083"><ele>175.0</ele><time>2026-04-18T13:34:46Z</time></trkpt><trkpt lat="45.489868236967645" lon="11.074160045422143"><ele>175.0</ele><time>2026-04-18T13:34:47.999Z</time></trkpt><trkpt lat="45.48995074500071" lon="11.074291970432233"><ele>178.5</ele><time>2026-04-18T13:34:49.999Z</time></trkpt><trkpt lat="45.489992303821076" lon="11.074362308238832"><ele>182.0</ele><time>2026-04-18T13:34:50.999Z</time></trkpt><trkpt lat="45.49004204243582" lon="11.07442812835239"><ele>185.5</ele><time>2026-04-18T13:34:51.999Z</time></trkpt><trkpt lat="45.489977273040104" lon="11.074482807275036"><ele>189.0</ele><time>2026-04-18T13:34:55.999Z</time></trkpt><trkpt lat="45.48990612426229" lon="11.074419270823011"><ele>192.49999999999997</ele><time>2026-04-18T13:34:57.999Z</time></trkpt><trkpt lat="45.48980482046552" lon="11.07433276946219"><ele>196.0</ele><time>2026-04-18T13:34:59.999Z</time></trkpt><trkpt lat="45.489701385120355" lon="11.074333941220207"><ele>196.0</ele><time>2026-04-18T13:35:01.999Z</time></trkpt><trkpt lat="45.489641409150934" lon="11.074379315398833"><ele>196.0</ele><time>2026-04-18T13:35:02.999Z</time></trkpt><trkpt lat="45.48955253348527" lon="11.074408551700612"><ele>196.0</ele><time>2026-04-18T13:35:03.999Z</time></trkpt><trkpt lat="45.489450658911935" lon="11.074452753440639"><ele>196.0</ele><time>2026-04-18T13:35:05.999Z</time></trkpt><trkpt lat="45.48943900136277" lon="11.074591219934081"><ele>196.0</ele><time>2026-04-18T13:35:09.999Z</time></trkpt><trkpt lat="45.48950410759598" lon="11.074691413726857"><ele>195.99999999999997</ele><time>2026-04-18T13:35:11.999Z</time></trkpt><trkpt lat="45.48958882020956" lon="11.07472844887271"><ele>196.0</ele><time>2026-04-18T13:35:13.999Z</time></trkpt><trkpt lat="45.48964662592068" lon="11.074764386657389"><ele>196.0</ele><time>2026-04-18T13:35:14.999Z</time></trkpt><trkpt lat="45.48971414604379" lon="11.07484956849788"><ele>196.0</ele><time>2026-04-18T13:35:16.999Z</time></trkpt><trkpt lat="45.48965341994325" lon="11.074926502868362"><ele>195.99999999999997</ele><time>2026-04-18T13:35:18.999Z</time></trkpt><trkpt lat="45.489572464578075" lon="11.074873996161925"><ele>196.0</ele><time>2026-04-18T13:35:21.999Z</time></trkpt><trkpt lat="45.489499261103575" lon="11.07488472884743"><ele>195.49999999999997</ele><time>2026-04-18T13:35:24.999Z</time></trkpt><trkpt lat="45.48942992961593" lon="11.074802761893592"><ele>195.0</ele><time>2026-04-18T13:35:26.999Z</time></trkpt><trkpt lat="45.48936896941718" lon="11.074769827626083"><ele>194.5</ele><time>2026-04-18T13:35:27.999Z</time></trkpt><trkpt lat="45.48929577432958" lon="11.074759339378868"><ele>194.0</ele><time>2026-04-18T13:35:30.999Z</time></trkpt><trkpt lat="45.489224860902134" lon="11.074752318813095"><ele>193.49999999999997</ele><time>2026-04-18T13:35:33.999Z</time></trkpt><trkpt lat="45.48916084801583" lon="11.07482818138604"><ele>193.0</ele><time>2026-04-18T13:41:35.999Z</time></trkpt><trkpt lat="45.48918077522026" lon="11.074934858853057"><ele>193.4</ele><time>2026-04-18T13:41:40.999Z</time></trkpt><trkpt lat="45.48924655069576" lon="11.07509388385696"><ele>193.8</ele><time>2026-04-18T13:41:42.999Z</time></trkpt><trkpt lat="45.489295678877106" lon="11.075174523719198"><ele>194.2</ele><time>2026-04-18T13:41:43.999Z</time></trkpt><trkpt lat="45.48935841259692" lon="11.075265112655126"><ele>194.6</ele><time>2026-04-18T13:41:44.999Z</time></trkpt><trkpt lat="45.48940998536775" lon="11.075350911253992"><ele>195.0</ele><time>2026-04-18T13:41:45.999Z</time></trkpt><trkpt lat="45.48945953107346" lon="11.07545802117969"><ele>195.0</ele><time>2026-04-18T13:41:46.999Z</time></trkpt><trkpt lat="45.48951518826314" lon="11.075562337399251"><ele>195.0</ele><time>2026-04-18T13:41:47.999Z</time></trkpt><trkpt lat="45.48956629042103" lon="11.075682288098351"><ele>195.0</ele><time>2026-04-18T13:41:48.999Z</time></trkpt><trkpt lat="45.48961710675767" lon="11.075817107350248"><ele>195.0</ele><time>2026-04-18T13:41:49.999Z</time></trkpt><trkpt lat="45.48966509826784" lon="11.0759602170155"><ele>195.0</ele><time>2026-04-18T13:41:50.999Z</time></trkpt><trkpt lat="45.48970548140032" lon="11.076115004136556"><ele>201.4</ele><time>2026-04-18T13:41:51.999Z</time></trkpt><trkpt lat="45.489750106945934" lon="11.076262476857606"><ele>207.8</ele><time>2026-04-18T13:41:52.999Z</time></trkpt><trkpt lat="45.489787032161445" lon="11.076399081366255"><ele>214.2</ele><time>2026-04-18T13:41:53.999Z</time></trkpt><trkpt lat="45.48982150053327" lon="11.076529327321197"><ele>220.6</ele><time>2026-04-18T13:41:54.999Z</time></trkpt><trkpt lat="45.489878644932126" lon="11.076653072464135"><ele>227.0</ele><time>2026-04-18T13:41:55.999Z</time></trkpt><trkpt lat="45.4899496776291" lon="11.076768379020923"><ele>227.6</ele><time>2026-04-18T13:41:56.999Z</time></trkpt><trkpt lat="45.490025814702534" lon="11.076917324138646"><ele>228.2</ele><time>2026-04-18T13:41:57.999Z</time></trkpt><trkpt lat="45.49009221939109" lon="11.077069341169985"><ele>228.8</ele><time>2026-04-18T13:41:58.999Z</time></trkpt><trkpt lat="45.490155233042465" lon="11.077185297473214"><ele>229.4</ele><time>2026-04-18T13:41:59.999Z</time></trkpt><trkpt lat="45.490211028523525" lon="11.077282412253366"><ele>230.0</ele><time>2026-04-18T13:42:00.999Z</time></trkpt><trkpt lat="45.49026549741092" lon="11.07736995156982"><ele>229.71428571428567</ele><time>2026-04-18T13:42:01.999Z</time></trkpt><trkpt lat="45.49030989225323" lon="11.077449048377163"><ele>229.42857142857142</ele><time>2026-04-18T13:42:02.999Z</time></trkpt><trkpt lat="45.49034925741821" lon="11.07752023139496"><ele>229.1428571428571</ele><time>2026-04-18T13:42:03.999Z</time></trkpt><trkpt lat="45.49039070242602" lon="11.077597731194924"><ele>228.85714285714283</ele><time>2026-04-18T13:42:05Z</time></trkpt><trkpt lat="45.490436264870844" lon="11.077687796177953"><ele>228.57142857142856</ele><time>2026-04-18T13:42:06Z</time></trkpt><trkpt lat="45.49048357644332" lon="11.07778948501347"><ele>228.28571428571428</ele><time>2026-04-18T13:42:07Z</time></trkpt><trkpt lat="45.49052536326109" lon="11.077886220557849"><ele>228.0</ele><time>2026-04-18T13:42:08Z</time></trkpt><trkpt lat="45.490568959408606" lon="11.077992614263412"><ele>232.8</ele><time>2026-04-18T13:42:09Z</time></trkpt><trkpt lat="45.490619612625515" lon="11.078105595125914"><ele>237.60000000000002</ele><time>2026-04-18T13:42:10Z</time></trkpt><trkpt lat="45.4906775004937" lon="11.078219236339992"><ele>242.39999999999998</ele><time>2026-04-18T13:42:11Z</time></trkpt><trkpt lat="45.49072497003203" lon="11.078337846913241"><ele>247.2</ele><time>2026-04-18T13:42:12Z</time></trkpt><trkpt lat="45.49073866549357" lon="11.078448416245818"><ele>252.0</ele><time>2026-04-18T13:42:13Z</time></trkpt><trkpt lat="45.49070667878588" lon="11.0785717551055"><ele>252.0</ele><time>2026-04-18T13:42:14Z</time></trkpt><trkpt lat="45.49063304867603" lon="11.078670658438243"><ele>252.0</ele><time>2026-04-18T13:42:15Z</time></trkpt><trkpt lat="45.49052899218076" lon="11.078746149389612"><ele>252.0</ele><time>2026-04-18T13:42:16Z</time></trkpt><trkpt lat="45.49042182326759" lon="11.078814714410319"><ele>252.0</ele><time>2026-04-18T13:42:17Z</time></trkpt><trkpt lat="45.49033326612061" lon="11.078884141117118"><ele>252.0</ele><time>2026-04-18T13:42:18Z</time></trkpt><trkpt lat="45.49026480354132" lon="11.078957069424588"><ele>250.2</ele><time>2026-04-18T13:42:19Z</time></trkpt><trkpt lat="45.490221002999874" lon="11.079047213672885"><ele>248.39999999999998</ele><time>2026-04-18T13:42:20Z</time></trkpt><trkpt lat="45.49022135662333" lon="11.079164794033435"><ele>246.60000000000002</ele><time>2026-04-18T13:42:21Z</time></trkpt><trkpt lat="45.49025422516344" lon="11.07929699334955"><ele>244.8</ele><time>2026-04-18T13:42:22Z</time></trkpt><trkpt lat="45.49027433666319" lon="11.079450668425276"><ele>243.0</ele><time>2026-04-18T13:42:23Z</time></trkpt><trkpt lat="45.490256096288185" lon="11.07961964693697"><ele>243.0</ele><time>2026-04-18T13:42:24Z</time></trkpt><trkpt lat="45.49023365455942" lon="11.079801716741514"><ele>243.0</ele><time>2026-04-18T13:42:25Z</time></trkpt><trkpt lat="45.490215881124854" lon="11.079995537114756"><ele>243.0</ele><time>2026-04-18T13:42:26Z</time></trkpt><trkpt lat="45.49019388440765" lon="11.08018619061068"><ele>243.0</ele><time>2026-04-18T13:42:27Z</time></trkpt><trkpt lat="45.49017130356814" lon="11.080345495443977"><ele>244.4</ele><time>2026-04-18T13:42:28Z</time></trkpt><trkpt lat="45.49015534720903" lon="11.080497283151775"><ele>245.8</ele><time>2026-04-18T13:42:29Z</time></trkpt><trkpt lat="45.49015070931477" lon="11.080644475951578"><ele>247.2</ele><time>2026-04-18T13:42:30Z</time></trkpt><trkpt lat="45.490165093277646" lon="11.080776034250668"><ele>248.6</ele><time>2026-04-18T13:42:31Z</time></trkpt><trkpt lat="45.4902030986859" lon="11.080911301550161"><ele>250.0</ele><time>2026-04-18T13:42:32Z</time></trkpt><trkpt lat="45.4902567995643" lon="11.081022146216869"><ele>251.25</ele><time>2026-04-18T13:42:33Z</time></trkpt><trkpt lat="45.490328076514025" lon="11.081123833077555"><ele>252.5</ele><time>2026-04-18T13:42:34Z</time></trkpt><trkpt lat="45.4904193519494" lon="11.081237051270401"><ele>253.75</ele><time>2026-04-18T13:42:35Z</time></trkpt><trkpt lat="45.49051080193504" lon="11.081341401153514"><ele>255.0</ele><time>2026-04-18T13:42:36Z</time></trkpt><trkpt lat="45.490595742654214" lon="11.081460292425096"><ele>258.75</ele><time>2026-04-18T13:42:37Z</time></trkpt><trkpt lat="45.49068734678212" lon="11.081586012991684"><ele>262.5</ele><time>2026-04-18T13:42:38Z</time></trkpt><trkpt lat="45.49078236333066" lon="11.081718483698795"><ele>266.25</ele><time>2026-04-18T13:42:39Z</time></trkpt><trkpt lat="45.49085192515392" lon="11.081850106098276"><ele>270.0</ele><time>2026-04-18T13:42:40Z</time></trkpt><trkpt lat="45.49089264452153" lon="11.081984727216195"><ele>270.0</ele><time>2026-04-18T13:42:41Z</time></trkpt><trkpt lat="45.49093522755577" lon="11.082111793739655"><ele>270.0</ele><time>2026-04-18T13:42:42Z</time></trkpt><trkpt lat="45.49099658019673" lon="11.082266512469259"><ele>270.0</ele><time>2026-04-18T13:42:43Z</time></trkpt><trkpt lat="45.491047869155274" lon="11.082404809060932"><ele>270.0</ele><time>2026-04-18T13:42:44Z</time></trkpt><trkpt lat="45.49108586699955" lon="11.0825441340465"><ele>270.0</ele><time>2026-04-18T13:42:45Z</time></trkpt><trkpt lat="45.49110483685183" lon="11.082655732479854"><ele>268.8333333333333</ele><time>2026-04-18T13:42:46Z</time></trkpt><trkpt lat="45.49109836188107" lon="11.082755525060671"><ele>267.6666666666667</ele><time>2026-04-18T13:42:47Z</time></trkpt><trkpt lat="45.4910697206264" lon="11.08285843892725"><ele>266.5</ele><time>2026-04-18T13:42:48Z</time></trkpt><trkpt lat="45.491019672288786" lon="11.082945079847791"><ele>265.33333333333337</ele><time>2026-04-18T13:42:49Z</time></trkpt><trkpt lat="45.490945089423775" lon="11.08302921934155"><ele>264.1666666666667</ele><time>2026-04-18T13:42:50Z</time></trkpt><trkpt lat="45.4908558923722" lon="11.083108183721889"><ele>263.0</ele><time>2026-04-18T13:42:51Z</time></trkpt><trkpt lat="45.49076221868257" lon="11.083168623850318"><ele>263.0</ele><time>2026-04-18T13:42:52Z</time></trkpt><trkpt lat="45.49065328404079" lon="11.083218277673112"><ele>263.0</ele><time>2026-04-18T13:42:53Z</time></trkpt><trkpt lat="45.49054977517288" lon="11.083249352482524"><ele>263.0</ele><time>2026-04-18T13:42:54Z</time></trkpt><trkpt lat="45.490456394903376" lon="11.08325377005007"><ele>263.0</ele><time>2026-04-18T13:42:55Z</time></trkpt><trkpt lat="45.490369001175615" lon="11.083243039481783"><ele>263.0</ele><time>2026-04-18T13:42:56Z</time></trkpt><trkpt lat="45.49028303983929" lon="11.083208451601108"><ele>260.6</ele><time>2026-04-18T13:42:57Z</time></trkpt><trkpt lat="45.49020310505814" lon="11.083133544033473"><ele>258.20000000000005</ele><time>2026-04-18T13:42:58Z</time></trkpt><trkpt lat="45.49012460826322" lon="11.08307995061323"><ele>255.8</ele><time>2026-04-18T13:42:59Z</time></trkpt><trkpt lat="45.49003279480332" lon="11.083065563703382"><ele>253.4</ele><time>2026-04-18T13:43:00Z</time></trkpt><trkpt lat="45.489931597352204" lon="11.083071198413307"><ele>251.0</ele><time>2026-04-18T13:43:01Z</time></trkpt><trkpt lat="45.48983415317996" lon="11.083093420561896"><ele>251.0</ele><time>2026-04-18T13:43:02Z</time></trkpt><trkpt lat="45.4897294911216" lon="11.083124530901692"><ele>251.00000000000003</ele><time>2026-04-18T13:43:03Z</time></trkpt><trkpt lat="45.48964086655113" lon="11.083142880508847"><ele>251.00000000000003</ele><time>2026-04-18T13:43:04Z</time></trkpt><trkpt lat="45.489577165620055" lon="11.083151122260992"><ele>251.0</ele><time>2026-04-18T13:43:05Z</time></trkpt><trkpt lat="45.48950620916595" lon="11.083213042816977"><ele>251.0</ele><time>2026-04-18T13:43:07Z</time></trkpt><trkpt lat="45.4895289129234" lon="11.083405160759238"><ele>252.16666666666669</ele><time>2026-04-18T13:43:09Z</time></trkpt><trkpt lat="45.489528800292014" lon="11.083538984430794"><ele>253.33333333333334</ele><time>2026-04-18T13:43:10Z</time></trkpt><trkpt lat="45.48950088451654" lon="11.083637729272734"><ele>254.5</ele><time>2026-04-18T13:43:11Z</time></trkpt><trkpt lat="45.48939844547703" lon="11.083699977355396"><ele>255.66666666666669</ele><time>2026-04-18T13:43:13Z</time></trkpt><trkpt lat="45.4893337411626" lon="11.083683339007601"><ele>256.8333333333333</ele><time>2026-04-18T13:43:14Z</time></trkpt><trkpt lat="45.48927132582876" lon="11.08371003669725"><ele>258.0</ele><time>2026-04-18T13:43:15Z</time></trkpt><trkpt lat="45.489224964098696" lon="11.083791868043392"><ele>258.0</ele><time>2026-04-18T13:43:16Z</time></trkpt><trkpt lat="45.48920397570119" lon="11.083914874023776"><ele>258.0</ele><time>2026-04-18T13:43:17Z</time></trkpt><trkpt lat="45.48919487250825" lon="11.084055388015027"><ele>258.0</ele><time>2026-04-18T13:43:18Z</time></trkpt><trkpt lat="45.48919745760273" lon="11.084197512973986"><ele>258.0</ele><time>2026-04-18T13:43:19Z</time></trkpt><trkpt lat="45.48918935233696" lon="11.084353668015206"><ele>258.0</ele><time>2026-04-18T13:43:20Z</time></trkpt><trkpt lat="45.48917328524873" lon="11.084506699750234"><ele>259.4</ele><time>2026-04-18T13:43:21Z</time></trkpt><trkpt lat="45.48916172135717" lon="11.084628215870966"><ele>260.8</ele><time>2026-04-18T13:43:22Z</time></trkpt><trkpt lat="45.48908004428472" lon="11.084742232868152"><ele>262.2</ele><time>2026-04-18T13:43:24Z</time></trkpt><trkpt lat="45.48900141468691" lon="11.084733047405079"><ele>263.6</ele><time>2026-04-18T13:43:25Z</time></trkpt><trkpt lat="45.488913775861356" lon="11.084678705993614"><ele>265.0</ele><time>2026-04-18T13:43:26Z</time></trkpt><trkpt lat="45.48884685121503" lon="11.084586614046465"><ele>265.0</ele><time>2026-04-18T13:43:27Z</time></trkpt><trkpt lat="45.48878998817017" lon="11.08447687833425"><ele>265.0</ele><time>2026-04-18T13:43:28Z</time></trkpt><trkpt lat="45.48875806951641" lon="11.084352899048522"><ele>265.0</ele><time>2026-04-18T13:43:29Z</time></trkpt><trkpt lat="45.48871988198674" lon="11.084247623303508"><ele>265.0</ele><time>2026-04-18T13:43:30Z</time></trkpt><trkpt lat="45.48864603727859" lon="11.084195909754044"><ele>265.0</ele><time>2026-04-18T13:43:31Z</time></trkpt><trkpt lat="45.488549837085245" lon="11.084188896033275"><ele>264.5</ele><time>2026-04-18T13:43:32Z</time></trkpt><trkpt lat="45.48842814782008" lon="11.084218324918842"><ele>264.0</ele><time>2026-04-18T13:43:33Z</time></trkpt><trkpt lat="45.48829746094731" lon="11.084259255236667"><ele>263.5</ele><time>2026-04-18T13:43:34Z</time></trkpt><trkpt lat="45.48818838050828" lon="11.08430321246522"><ele>263.0</ele><time>2026-04-18T13:43:35Z</time></trkpt><trkpt lat="45.48810839166016" lon="11.08434403151791"><ele>263.0</ele><time>2026-04-18T13:43:36Z</time></trkpt><trkpt lat="45.4880470326235" lon="11.0843753328426"><ele>263.0</ele><time>2026-04-18T13:43:37Z</time></trkpt><trkpt lat="45.487984370803055" lon="11.084449031784388"><ele>263.0</ele><time>2026-04-18T13:43:39Z</time></trkpt><trkpt lat="45.48795076194974" lon="11.084527688303302"><ele>263.0</ele><time>2026-04-18T13:43:40Z</time></trkpt><trkpt lat="45.4879504058294" lon="11.08465153171053"><ele>263.0</ele><time>2026-04-18T13:43:42Z</time></trkpt><trkpt lat="45.48792821176703" lon="11.084799399785673"><ele>263.0</ele><time>2026-04-18T13:43:44Z</time></trkpt><trkpt lat="45.4879170253639" lon="11.084902104546886"><ele>268.33333333333337</ele><time>2026-04-18T13:43:46Z</time></trkpt><trkpt lat="45.48787848017455" lon="11.084984803010018"><ele>273.6666666666667</ele><time>2026-04-18T13:43:49Z</time></trkpt><trkpt lat="45.48784456738889" lon="11.085089832131935"><ele>279.0</ele><time>2026-04-18T13:43:54Z</time></trkpt><trkpt lat="45.48781169715075" lon="11.085166637874515"><ele>284.3333333333333</ele><time>2026-04-18T13:43:57.999Z</time></trkpt><trkpt lat="45.48776171290098" lon="11.085287819769983"><ele>289.66666666666663</ele><time>2026-04-18T13:44:00.999Z</time></trkpt><trkpt lat="45.48771586049418" lon="11.085374565950401"><ele>295.0</ele><time>2026-04-18T13:44:02.999Z</time></trkpt><trkpt lat="45.48764192184877" lon="11.085485665972154"><ele>295.0</ele><time>2026-04-18T13:44:04.999Z</time></trkpt><trkpt lat="45.48761371722433" lon="11.08558558779491"><ele>295.0</ele><time>2026-04-18T13:44:06.999Z</time></trkpt><trkpt lat="45.48754867960783" lon="11.08568341873357"><ele>295.0</ele><time>2026-04-18T13:44:08.999Z</time></trkpt><trkpt lat="45.48751568314446" lon="11.085822941760325"><ele>295.0</ele><time>2026-04-18T13:44:11Z</time></trkpt><trkpt lat="45.48750615834934" lon="11.085929478056832"><ele>295.0</ele><time>2026-04-18T13:44:12Z</time></trkpt><trkpt lat="45.48751084814517" lon="11.086034831400438"><ele>295.0</ele><time>2026-04-18T13:44:13Z</time></trkpt><trkpt lat="45.4875352191328" lon="11.086138132037261"><ele>295.0</ele><time>2026-04-18T13:44:16Z</time></trkpt><trkpt lat="45.487488910086434" lon="11.086075359804076"><ele>295.0</ele><time>2026-04-18T13:46:39Z</time></trkpt><trkpt lat="45.48750622113997" lon="11.085987551821457"><ele>295.0</ele><time>2026-04-18T13:48:46Z</time></trkpt><trkpt lat="45.48750576383333" lon="11.085889497818762"><ele>295.0</ele><time>2026-04-18T13:48:52Z</time></trkpt><trkpt lat="45.487543119964876" lon="11.085782349053757"><ele>295.0</ele><time>2026-04-18T13:49:01Z</time></trkpt><trkpt lat="45.48760378103059" lon="11.085678902314493"><ele>295.0</ele><time>2026-04-18T13:49:04Z</time></trkpt><trkpt lat="45.4876286232308" lon="11.085575648562374"><ele>295.00000000000006</ele><time>2026-04-18T13:49:07Z</time></trkpt><trkpt lat="45.487694407069995" lon="11.085500387861998"><ele>295.0</ele><time>2026-04-18T13:49:09Z</time></trkpt><trkpt lat="45.48774787913284" lon="11.085424618247453"><ele>295.0</ele><time>2026-04-18T13:49:11Z</time></trkpt><trkpt lat="45.48777327234589" lon="11.0853293077606"><ele>295.0</ele><time>2026-04-18T13:49:14Z</time></trkpt><trkpt lat="45.48778053526502" lon="11.08523218198326"><ele>295.0</ele><time>2026-04-18T13:49:17Z</time></trkpt><trkpt lat="45.48778468637438" lon="11.085141919434616"><ele>295.00000000000006</ele><time>2026-04-18T13:49:19Z</time></trkpt><trkpt lat="45.48777055730385" lon="11.085034258052952"><ele>295.0</ele><time>2026-04-18T13:49:23Z</time></trkpt><trkpt lat="45.487711560752984" lon="11.084995565027917"><ele>292.0</ele><time>2026-04-18T13:49:26Z</time></trkpt><trkpt lat="45.48765734259657" lon="11.084875252322215"><ele>289.0</ele><time>2026-04-18T13:49:28Z</time></trkpt><trkpt lat="45.487640707172105" lon="11.084760014947122"><ele>286.0</ele><time>2026-04-18T13:49:29Z</time></trkpt><trkpt lat="45.48762909508471" lon="11.084608160226443"><ele>283.0</ele><time>2026-04-18T13:49:30Z</time></trkpt><trkpt lat="45.48759813920426" lon="11.084452249153696"><ele>280.0</ele><time>2026-04-18T13:49:31Z</time></trkpt><trkpt lat="45.48756458656482" lon="11.084299944529292"><ele>280.0</ele><time>2026-04-18T13:49:32Z</time></trkpt><trkpt lat="45.4875377488498" lon="11.08417556920159"><ele>280.0</ele><time>2026-04-18T13:49:33Z</time></trkpt><trkpt lat="45.487517843986765" lon="11.084066796931328"><ele>280.0</ele><time>2026-04-18T13:49:34Z</time></trkpt><trkpt lat="45.48750307827787" lon="11.083963719400133"><ele>280.0</ele><time>2026-04-18T13:49:35Z</time></trkpt><trkpt lat="45.48747630465444" lon="11.083875470284267"><ele>280.0</ele><time>2026-04-18T13:49:36Z</time></trkpt><trkpt lat="45.487435609392946" lon="11.083717289278976"><ele>280.0</ele><time>2026-04-18T13:49:38Z</time></trkpt><trkpt lat="45.48741135405568" lon="11.083628790431032"><ele>278.66666666666663</ele><time>2026-04-18T13:49:39Z</time></trkpt><trkpt lat="45.48738134839277" lon="11.083500387270506"><ele>277.3333333333333</ele><time>2026-04-18T13:49:40Z</time></trkpt><trkpt lat="45.487363633924566" lon="11.083380122685288"><ele>276.0</ele><time>2026-04-18T13:49:41Z</time></trkpt><trkpt lat="45.48733659381032" lon="11.083275764990296"><ele>274.6666666666667</ele><time>2026-04-18T13:49:42Z</time></trkpt><trkpt lat="45.48730281265741" lon="11.083155389380192"><ele>273.33333333333337</ele><time>2026-04-18T13:49:43Z</time></trkpt><trkpt lat="45.48726559042352" lon="11.083026245224112"><ele>272.0</ele><time>2026-04-18T13:49:44Z</time></trkpt><trkpt lat="45.487243286111806" lon="11.082907960428228"><ele>272.6666666666667</ele><time>2026-04-18T13:49:45Z</time></trkpt><trkpt lat="45.487224247601105" lon="11.082808776752543"><ele>273.33333333333337</ele><time>2026-04-18T13:49:46Z</time></trkpt><trkpt lat="45.48720505108636" lon="11.082694927496986"><ele>274.0</ele><time>2026-04-18T13:49:47Z</time></trkpt><trkpt lat="45.48718689836226" lon="11.082589971036755"><ele>274.6666666666667</ele><time>2026-04-18T13:49:48Z</time></trkpt><trkpt lat="45.48715611359604" lon="11.08243765090589"><ele>275.3333333333333</ele><time>2026-04-18T13:49:50Z</time></trkpt><trkpt lat="45.4871152004473" lon="11.082314340177504"><ele>276.0</ele><time>2026-04-18T13:49:53Z</time></trkpt><trkpt lat="45.487087476053404" lon="11.08222195484046"><ele>276.0</ele><time>2026-04-18T13:49:54Z</time></trkpt><trkpt lat="45.48706907431745" lon="11.08212121703661"><ele>276.0</ele><time>2026-04-18T13:49:55Z</time></trkpt><trkpt lat="45.48705329574267" lon="11.0820137451737"><ele>276.0</ele><time>2026-04-18T13:49:56Z</time></trkpt><trkpt lat="45.487033473461075" lon="11.081901012853777"><ele>276.0</ele><time>2026-04-18T13:49:57Z</time></trkpt><trkpt lat="45.4870172337808" lon="11.081800147887654"><ele>276.0</ele><time>2026-04-18T13:49:58Z</time></trkpt><trkpt lat="45.486991684842" lon="11.081654396833828"><ele>276.0</ele><time>2026-04-18T13:50:00Z</time></trkpt><trkpt lat="45.486921766978156" lon="11.0816295247128"><ele>276.0</ele><time>2026-04-18T13:50:03Z</time></trkpt><trkpt lat="45.4868071752636" lon="11.081706709682566"><ele>276.0</ele><time>2026-04-18T13:50:05Z</time></trkpt><trkpt lat="45.486743201087386" lon="11.081741853196815"><ele>276.0</ele><time>2026-04-18T13:50:06Z</time></trkpt><trkpt lat="45.4866348743524" lon="11.081664962328146"><ele>276.0</ele><time>2026-04-18T13:50:07Z</time></trkpt><trkpt lat="45.48657422556659" lon="11.081731002991297"><ele>276.0</ele><time>2026-04-18T13:50:08Z</time></trkpt><trkpt lat="45.486564162629286" lon="11.081969345203772"><ele>276.0</ele><time>2026-04-18T13:50:09Z</time></trkpt><trkpt lat="45.48660609923875" lon="11.082144955504324"><ele>276.0</ele><time>2026-04-18T13:50:10Z</time></trkpt><trkpt lat="45.486659996190696" lon="11.082309447859998"><ele>276.0</ele><time>2026-04-18T13:50:11Z</time></trkpt><trkpt lat="45.48669781501513" lon="11.082470000629998"><ele>276.0</ele><time>2026-04-18T13:50:12Z</time></trkpt><trkpt lat="45.48670659723653" lon="11.08265956279007"><ele>277.5</ele><time>2026-04-18T13:50:13Z</time></trkpt><trkpt lat="45.48669764733292" lon="11.082839966842842"><ele>279.0</ele><time>2026-04-18T13:50:14Z</time></trkpt><trkpt lat="45.48667585537752" lon="11.083039399284221"><ele>280.5</ele><time>2026-04-18T13:50:15Z</time></trkpt><trkpt lat="45.48665593207089" lon="11.08324377390833"><ele>282.0</ele><time>2026-04-18T13:50:16Z</time></trkpt><trkpt lat="45.48663557866637" lon="11.08345256050231"><ele>284.25</ele><time>2026-04-18T13:50:17Z</time></trkpt><trkpt lat="45.486612605309375" lon="11.083670235910413"><ele>286.5</ele><time>2026-04-18T13:50:18Z</time></trkpt><trkpt lat="45.486587518270305" lon="11.08387190166015"><ele>288.75</ele><time>2026-04-18T13:50:19Z</time></trkpt><trkpt lat="45.48656668016328" lon="11.084032545240227"><ele>291.0</ele><time>2026-04-18T13:50:20Z</time></trkpt><trkpt lat="45.486575659501554" lon="11.084167444120142"><ele>293.0</ele><time>2026-04-18T13:50:21Z</time></trkpt><trkpt lat="45.486579757061044" lon="11.084296158336153"><ele>295.0</ele><time>2026-04-18T13:50:22Z</time></trkpt><trkpt lat="45.48660361093078" lon="11.084426662137213"><ele>297.0</ele><time>2026-04-18T13:50:23Z</time></trkpt><trkpt lat="45.48661565940928" lon="11.084568107406346"><ele>299.0</ele><time>2026-04-18T13:50:24Z</time></trkpt><trkpt lat="45.486636781122264" lon="11.084708880967458"><ele>301.0</ele><time>2026-04-18T13:50:25Z</time></trkpt><trkpt lat="45.4866499449882" lon="11.084858855021778"><ele>303.25</ele><time>2026-04-18T13:50:26Z</time></trkpt><trkpt lat="45.486642832977026" lon="11.085011760848563"><ele>305.5</ele><time>2026-04-18T13:50:27Z</time></trkpt><trkpt lat="45.48660530448942" lon="11.085155023048964"><ele>307.75</ele><time>2026-04-18T13:50:28Z</time></trkpt><trkpt lat="45.48654043865947" lon="11.08529704824938"><ele>310.0</ele><time>2026-04-18T13:50:29Z</time></trkpt><trkpt lat="45.48648899300451" lon="11.085451992873143"><ele>310.0</ele><time>2026-04-18T13:50:30Z</time></trkpt><trkpt lat="45.486466394698944" lon="11.085635158825497"><ele>310.0</ele><time>2026-04-18T13:50:31Z</time></trkpt><trkpt lat="45.48644953749452" lon="11.085830768266646"><ele>310.0</ele><time>2026-04-18T13:50:32Z</time></trkpt><trkpt lat="45.4864154568431" lon="11.086029557266203"><ele>310.0</ele><time>2026-04-18T13:50:33Z</time></trkpt><trkpt lat="45.486391251182866" lon="11.086235152518322"><ele>312.4</ele><time>2026-04-18T13:50:34Z</time></trkpt><trkpt lat="45.486357664799606" lon="11.086420393422248"><ele>314.8</ele><time>2026-04-18T13:50:35Z</time></trkpt><trkpt lat="45.48631703763908" lon="11.086545171989819"><ele>317.20000000000005</ele><time>2026-04-18T13:50:36Z</time></trkpt><trkpt lat="45.48627190272731" lon="11.086642615618501"><ele>319.6</ele><time>2026-04-18T13:50:37Z</time></trkpt><trkpt lat="45.48620519601689" lon="11.086722358100175"><ele>322.0</ele><time>2026-04-18T13:50:38Z</time></trkpt><trkpt lat="45.486134006082494" lon="11.086816017367564"><ele>325.0</ele><time>2026-04-18T13:50:39Z</time></trkpt><trkpt lat="45.48604418745276" lon="11.086893215369887"><ele>328.0</ele><time>2026-04-18T13:50:40Z</time></trkpt><trkpt lat="45.48594369335131" lon="11.086963264691578"><ele>331.0</ele><time>2026-04-18T13:50:41Z</time></trkpt><trkpt lat="45.48583854958316" lon="11.087058506208274"><ele>334.0</ele><time>2026-04-18T13:50:42Z</time></trkpt><trkpt lat="45.48574447261014" lon="11.087179247903942"><ele>334.0</ele><time>2026-04-18T13:50:43Z</time></trkpt><trkpt lat="45.48564966718657" lon="11.087316095939705"><ele>334.0</ele><time>2026-04-18T13:50:44Z</time></trkpt><trkpt lat="45.48553956898876" lon="11.087457202181524"><ele>334.0</ele><time>2026-04-18T13:50:45Z</time></trkpt><trkpt lat="45.48541673550312" lon="11.087596675911204"><ele>334.0</ele><time>2026-04-18T13:50:46Z</time></trkpt><trkpt lat="45.48531520148436" lon="11.087706897315762"><ele>336.75</ele><time>2026-04-18T13:50:47Z</time></trkpt><trkpt lat="45.48523227792221" lon="11.087811798379386"><ele>339.5</ele><time>2026-04-18T13:50:48Z</time></trkpt><trkpt lat="45.485160534339336" lon="11.087948201741147"><ele>342.25</ele><time>2026-04-18T13:50:49Z</time></trkpt><trkpt lat="45.48509537799065" lon="11.08812027115818"><ele>345.0</ele><time>2026-04-18T13:50:50Z</time></trkpt><trkpt lat="45.48502098902964" lon="11.088314157084122"><ele>346.6666666666667</ele><time>2026-04-18T13:50:51Z</time></trkpt><trkpt lat="45.484952175177256" lon="11.088472036097995"><ele>348.3333333333333</ele><time>2026-04-18T13:50:52Z</time></trkpt><trkpt lat="45.48488505381347" lon="11.08857557635409"><ele>350.0</ele><time>2026-04-18T13:50:53Z</time></trkpt><trkpt lat="45.48484297307729" lon="11.08866014519512"><ele>351.66666666666663</ele><time>2026-04-18T13:50:54Z</time></trkpt><trkpt lat="45.48481447757467" lon="11.088745071776927"><ele>353.3333333333333</ele><time>2026-04-18T13:50:55Z</time></trkpt><trkpt lat="45.484812249708185" lon="11.088841937677662"><ele>355.0</ele><time>2026-04-18T13:50:56Z</time></trkpt><trkpt lat="45.48489553637082" lon="11.088952422179782"><ele>355.0</ele><time>2026-04-18T13:50:57Z</time></trkpt><trkpt lat="45.48501246257048" lon="11.088947133053201"><ele>355.0</ele><time>2026-04-18T13:50:58Z</time></trkpt><trkpt lat="45.48509095152818" lon="11.08899742553442"><ele>355.0</ele><time>2026-04-18T13:50:59Z</time></trkpt><trkpt lat="45.485160486593465" lon="11.08903760880847"><ele>355.0</ele><time>2026-04-18T13:51:00Z</time></trkpt><trkpt lat="45.48522843893212" lon="11.089079818627289"><ele>355.0</ele><time>2026-04-18T13:51:01Z</time></trkpt><trkpt lat="45.4853326940889" lon="11.089156076827846"><ele>356.16666666666663</ele><time>2026-04-18T13:51:03Z</time></trkpt><trkpt lat="45.48541821088128" lon="11.089231398071759"><ele>357.3333333333333</ele><time>2026-04-18T13:51:05Z</time></trkpt><trkpt lat="45.48541115893531" lon="11.089320876335078"><ele>358.5</ele><time>2026-04-18T13:51:08Z</time></trkpt><trkpt lat="45.48534933586194" lon="11.089280206343407"><ele>359.6666666666667</ele><time>2026-04-18T13:51:09Z</time></trkpt><trkpt lat="45.485276470690565" lon="11.089285787528132"><ele>360.83333333333337</ele><time>2026-04-18T13:51:10Z</time></trkpt><trkpt lat="45.48519051630893" lon="11.089295012539134"><ele>362.0</ele><time>2026-04-18T13:51:11Z</time></trkpt><trkpt lat="45.485100578518356" lon="11.089317997754456"><ele>362.0</ele><time>2026-04-18T13:51:12Z</time></trkpt><trkpt lat="45.48501209544958" lon="11.089361820682713"><ele>362.0</ele><time>2026-04-18T13:51:13Z</time></trkpt><trkpt lat="45.48492636402468" lon="11.089389171742592"><ele>362.0</ele><time>2026-04-18T13:51:14Z</time></trkpt><trkpt lat="45.484836402158805" lon="11.089416380836111"><ele>362.0</ele><time>2026-04-18T13:51:15Z</time></trkpt><trkpt lat="45.48474426363451" lon="11.089451630814448"><ele>362.0</ele><time>2026-04-18T13:51:16Z</time></trkpt><trkpt lat="45.48465718813758" lon="11.08950959717941"><ele>362.0</ele><time>2026-04-18T13:51:17Z</time></trkpt><trkpt lat="45.48459752809474" lon="11.089574776636939"><ele>362.0</ele><time>2026-04-18T13:51:18Z</time></trkpt><trkpt lat="45.48448887520943" lon="11.089390660555475"><ele>362.0</ele><time>2026-04-18T13:51:19Z</time></trkpt><trkpt lat="45.48440394783567" lon="11.08937472489397"><ele>362.0</ele><time>2026-04-18T13:51:20Z</time></trkpt><trkpt lat="45.48430965306302" lon="11.0893608259415"><ele>362.0</ele><time>2026-04-18T13:51:21Z</time></trkpt><trkpt lat="45.4842081906118" lon="11.089344932004472"><ele>360.75</ele><time>2026-04-18T13:51:22Z</time></trkpt><trkpt lat="45.484095627722766" lon="11.08932473614237"><ele>359.5</ele><time>2026-04-18T13:51:23Z</time></trkpt><trkpt lat="45.483979618985934" lon="11.089303901514455"><ele>358.25</ele><time>2026-04-18T13:51:24Z</time></trkpt><trkpt lat="45.48385845931958" lon="11.08928290143035"><ele>357.0</ele><time>2026-04-18T13:51:25Z</time></trkpt><trkpt lat="45.48373765405322" lon="11.089261962809625"><ele>356.0</ele><time>2026-04-18T13:51:26Z</time></trkpt><trkpt lat="45.483610548800335" lon="11.089239232370808"><ele>355.0</ele><time>2026-04-18T13:51:27Z</time></trkpt><trkpt lat="45.48348027038196" lon="11.089213065317228"><ele>354.0</ele><time>2026-04-18T13:51:28Z</time></trkpt><trkpt lat="45.48334781747455" lon="11.089184764110982"><ele>353.0</ele><time>2026-04-18T13:51:29Z</time></trkpt><trkpt lat="45.48321871952801" lon="11.089156661484635"><ele>353.0</ele><time>2026-04-18T13:51:30Z</time></trkpt><trkpt lat="45.48310166965117" lon="11.089131156455508"><ele>353.0</ele><time>2026-04-18T13:51:31Z</time></trkpt><trkpt lat="45.48300090487313" lon="11.089105757347973"><ele>353.0</ele><time>2026-04-18T13:51:32Z</time></trkpt><trkpt lat="45.48291231115908" lon="11.089076885263857"><ele>353.0</ele><time>2026-04-18T13:51:33Z</time></trkpt><trkpt lat="45.482827184714665" lon="11.089046126149698"><ele>353.0</ele><time>2026-04-18T13:51:34Z</time></trkpt><trkpt lat="45.48274284601709" lon="11.089015505506545"><ele>351.0</ele><time>2026-04-18T13:51:35Z</time></trkpt><trkpt lat="45.482648998213826" lon="11.08896073886028"><ele>349.0</ele><time>2026-04-18T13:51:37Z</time></trkpt><trkpt lat="45.482577732553366" lon="11.088915469407098"><ele>347.0</ele><time>2026-04-18T13:51:39Z</time></trkpt><trkpt lat="45.482514228388425" lon="11.088871432733992"><ele>345.0</ele><time>2026-04-18T13:51:42Z</time></trkpt><trkpt lat="45.482439156950946" lon="11.08881530130926"><ele>343.0</ele><time>2026-04-18T13:51:45Z</time></trkpt><trkpt lat="45.482327502532854" lon="11.088728705813638"><ele>343.0</ele><time>2026-04-18T13:51:47Z</time></trkpt><trkpt lat="45.48224447740019" lon="11.088663980370706"><ele>343.0</ele><time>2026-04-18T13:51:48Z</time></trkpt><trkpt lat="45.482161454950436" lon="11.088598355235945"><ele>343.0</ele><time>2026-04-18T13:51:49Z</time></trkpt><trkpt lat="45.48206626289375" lon="11.088522895831822"><ele>343.0</ele><time>2026-04-18T13:51:50Z</time></trkpt><trkpt lat="45.48198523851875" lon="11.088449784656065"><ele>343.0</ele><time>2026-04-18T13:51:51Z</time></trkpt><trkpt lat="45.48187963759767" lon="11.088362368619263"><ele>337.0</ele><time>2026-04-18T13:51:52Z</time></trkpt><trkpt lat="45.481705424788245" lon="11.08824643904589"><ele>331.0</ele><time>2026-04-18T13:51:53Z</time></trkpt><trkpt lat="45.48141547505197" lon="11.088189851136542"><ele>329.75</ele><time>2026-04-18T13:51:54Z</time></trkpt><trkpt lat="45.481216793540604" lon="11.08822465446729"><ele>328.5</ele><time>2026-04-18T13:51:55Z</time></trkpt><trkpt lat="45.48107659132408" lon="11.088265397477416"><ele>327.25</ele><time>2026-04-18T13:51:56Z</time></trkpt><trkpt lat="45.481011430897915" lon="11.088304337748053"><ele>326.0</ele><time>2026-04-18T13:51:57Z</time></trkpt><trkpt lat="45.480933134016446" lon="11.088322022078478"><ele>326.0</ele><time>2026-04-18T13:51:58Z</time></trkpt><trkpt lat="45.480817935816326" lon="11.088329374829481"><ele>326.0</ele><time>2026-04-18T13:51:59Z</time></trkpt><trkpt lat="45.4806785418131" lon="11.088287036314531"><ele>326.0</ele><time>2026-04-18T13:52:01Z</time></trkpt><trkpt lat="45.48059285801146" lon="11.088253715209733"><ele>326.0</ele><time>2026-04-18T13:52:02Z</time></trkpt><trkpt lat="45.48046654438566" lon="11.088205830526267"><ele>326.6</ele><time>2026-04-18T13:52:03Z</time></trkpt><trkpt lat="45.480332433384035" lon="11.088201658632624"><ele>327.20000000000005</ele><time>2026-04-18T13:52:04Z</time></trkpt><trkpt lat="45.48022014915632" lon="11.088205967783248"><ele>327.79999999999995</ele><time>2026-04-18T13:52:05Z</time></trkpt><trkpt lat="45.48012886000394" lon="11.088219296992232"><ele>328.4</ele><time>2026-04-18T13:52:06Z</time></trkpt><trkpt lat="45.48002667191279" lon="11.088233418809006"><ele>329.0</ele><time>2026-04-18T13:52:07Z</time></trkpt><trkpt lat="45.479653245245544" lon="11.089097512481652"><ele>333.4</ele><time>2026-04-18T13:52:09Z</time></trkpt><trkpt lat="45.47958971805227" lon="11.089098244487312"><ele>337.79999999999995</ele><time>2026-04-18T13:52:10Z</time></trkpt><trkpt lat="45.479478643104365" lon="11.089099128249261"><ele>342.20000000000005</ele><time>2026-04-18T13:52:12Z</time></trkpt><trkpt lat="45.47935329791571" lon="11.089119551747544"><ele>346.6</ele><time>2026-04-18T13:52:14Z</time></trkpt><trkpt lat="45.47928094910505" lon="11.089118266767679"><ele>351.0</ele><time>2026-04-18T13:52:15Z</time></trkpt><trkpt lat="45.47919437691472" lon="11.089095378776841"><ele>350.0</ele><time>2026-04-18T13:52:16Z</time></trkpt><trkpt lat="45.4791057950846" lon="11.089056061671844"><ele>349.0</ele><time>2026-04-18T13:52:17Z</time></trkpt><trkpt lat="45.47900355397023" lon="11.089012552713015"><ele>348.0</ele><time>2026-04-18T13:52:18Z</time></trkpt><trkpt lat="45.47887713812531" lon="11.08896852335047"><ele>347.0</ele><time>2026-04-18T13:52:19Z</time></trkpt><trkpt lat="45.478735340850804" lon="11.088907909752285"><ele>346.33333333333337</ele><time>2026-04-18T13:52:20Z</time></trkpt><trkpt lat="45.47857883197237" lon="11.08884730935812"><ele>345.6666666666667</ele><time>2026-04-18T13:52:21Z</time></trkpt><trkpt lat="45.47841145320718" lon="11.08878103327925"><ele>345.0</ele><time>2026-04-18T13:52:22Z</time></trkpt><trkpt lat="45.47824889433374" lon="11.088714720151595"><ele>345.0</ele><time>2026-04-18T13:52:23Z</time></trkpt><trkpt lat="45.47812272001827" lon="11.088669700533313"><ele>345.0</ele><time>2026-04-18T13:52:24Z</time></trkpt><trkpt lat="45.478021129588406" lon="11.088558413113347"><ele>345.0</ele><time>2026-04-18T13:52:25Z</time></trkpt><trkpt lat="45.4779066193199" lon="11.088516656508226"><ele>345.0</ele><time>2026-04-18T13:52:26Z</time></trkpt><trkpt lat="45.47779453602502" lon="11.088470322843284"><ele>347.0</ele><time>2026-04-18T13:52:27Z</time></trkpt><trkpt lat="45.47766186122952" lon="11.088412172578385"><ele>349.0</ele><time>2026-04-18T13:52:28Z</time></trkpt><trkpt lat="45.47745490227138" lon="11.088417229448776"><ele>351.0</ele><time>2026-04-18T13:52:29Z</time></trkpt><trkpt lat="45.477266287561704" lon="11.08855617168237"><ele>351.0</ele><time>2026-04-18T13:52:30Z</time></trkpt><trkpt lat="45.47713458519054" lon="11.08867503787095"><ele>351.0</ele><time>2026-04-18T13:52:31Z</time></trkpt><trkpt lat="45.47702579599318" lon="11.088748571454627"><ele>351.0</ele><time>2026-04-18T13:52:32Z</time></trkpt><trkpt lat="45.47691062946601" lon="11.088792031401528"><ele>351.0</ele><time>2026-04-18T13:52:33Z</time></trkpt><trkpt lat="45.47678545254909" lon="11.088828995399805"><ele>353.75</ele><time>2026-04-18T13:52:34Z</time></trkpt><trkpt lat="45.476646197215956" lon="11.088882946191841"><ele>356.5</ele><time>2026-04-18T13:52:35Z</time></trkpt><trkpt lat="45.476522410654006" lon="11.088895462635298"><ele>359.25</ele><time>2026-04-18T13:52:36Z</time></trkpt><trkpt lat="45.476408935098824" lon="11.088919109442664"><ele>362.0</ele><time>2026-04-18T13:52:37Z</time></trkpt><trkpt lat="45.476293098189835" lon="11.08892883643687"><ele>362.40000000000003</ele><time>2026-04-18T13:52:38Z</time></trkpt><trkpt lat="45.4761801952608" lon="11.08894121243674"><ele>362.8</ele><time>2026-04-18T13:52:39Z</time></trkpt><trkpt lat="45.476072259817045" lon="11.088939483191005"><ele>363.2</ele><time>2026-04-18T13:52:40Z</time></trkpt><trkpt lat="45.47596091071471" lon="11.088924849550917"><ele>363.6</ele><time>2026-04-18T13:52:41Z</time></trkpt><trkpt lat="45.475849271788285" lon="11.088894866847992"><ele>364.0</ele><time>2026-04-18T13:52:42Z</time></trkpt><trkpt lat="45.47573000719052" lon="11.088856532921584"><ele>364.0</ele><time>2026-04-18T13:52:43Z</time></trkpt><trkpt lat="45.475615351975634" lon="11.0888083254579"><ele>364.0</ele><time>2026-04-18T13:52:44Z</time></trkpt><trkpt lat="45.47549623371315" lon="11.088757246161695"><ele>364.0</ele><time>2026-04-18T13:52:45Z</time></trkpt><trkpt lat="45.475372358946274" lon="11.088707268175188"><ele>364.0</ele><time>2026-04-18T13:52:46Z</time></trkpt><trkpt lat="45.475240807473625" lon="11.088663723530363"><ele>362.75</ele><time>2026-04-18T13:52:47Z</time></trkpt><trkpt lat="45.4751041391186" lon="11.088615608009674"><ele>361.5</ele><time>2026-04-18T13:52:48Z</time></trkpt><trkpt lat="45.47496822057687" lon="11.088570369690363"><ele>360.25</ele><time>2026-04-18T13:52:49Z</time></trkpt><trkpt lat="45.474827357999516" lon="11.08852359847938"><ele>359.0</ele><time>2026-04-18T13:52:50Z</time></trkpt><trkpt lat="45.47469697912903" lon="11.088481599031116"><ele>358.0</ele><time>2026-04-18T13:52:51Z</time></trkpt><trkpt lat="45.47456659728157" lon="11.0884499530159"><ele>357.0</ele><time>2026-04-18T13:52:52Z</time></trkpt><trkpt lat="45.47444995853852" lon="11.088417185644298"><ele>356.0</ele><time>2026-04-18T13:52:53Z</time></trkpt><trkpt lat="45.47433113091529" lon="11.08837445536135"><ele>355.0</ele><time>2026-04-18T13:52:54Z</time></trkpt><trkpt lat="45.47420441309963" lon="11.08832019827599"><ele>355.0</ele><time>2026-04-18T13:52:55Z</time></trkpt><trkpt lat="45.474069696217924" lon="11.088271725583532"><ele>355.0</ele><time>2026-04-18T13:52:56Z</time></trkpt><trkpt lat="45.47393739223829" lon="11.088223758376259"><ele>355.0</ele><time>2026-04-18T13:52:57Z</time></trkpt><trkpt lat="45.47380171698031" lon="11.088171938150353"><ele>355.0</ele><time>2026-04-18T13:52:58Z</time></trkpt><trkpt lat="45.47366825193882" lon="11.088106741963026"><ele>354.0</ele><time>2026-04-18T13:52:59Z</time></trkpt><trkpt lat="45.47352312064681" lon="11.088058109337224"><ele>353.0</ele><time>2026-04-18T13:53:00Z</time></trkpt><trkpt lat="45.47336235466093" lon="11.088020586275714"><ele>352.0</ele><time>2026-04-18T13:53:01Z</time></trkpt><trkpt lat="45.47320165446073" lon="11.087983566241101"><ele>352.0</ele><time>2026-04-18T13:53:02Z</time></trkpt><trkpt lat="45.47305187312834" lon="11.08793601719441"><ele>352.0</ele><time>2026-04-18T13:53:03Z</time></trkpt><trkpt lat="45.47290271296082" lon="11.087883212315802"><ele>352.0</ele><time>2026-04-18T13:53:04Z</time></trkpt><trkpt lat="45.47279000805073" lon="11.087840088472996"><ele>352.0</ele><time>2026-04-18T13:53:05Z</time></trkpt><trkpt lat="45.472664018621415" lon="11.087795699282283"><ele>351.75</ele><time>2026-04-18T13:53:06Z</time></trkpt><trkpt lat="45.47253485311923" lon="11.0877560246574"><ele>351.5</ele><time>2026-04-18T13:53:07Z</time></trkpt><trkpt lat="45.47239792305343" lon="11.08771443559542"><ele>351.25</ele><time>2026-04-18T13:53:08Z</time></trkpt><trkpt lat="45.472257508499425" lon="11.087668824984348"><ele>351.0</ele><time>2026-04-18T13:53:09Z</time></trkpt><trkpt lat="45.47212726476099" lon="11.087632332441402"><ele>350.75</ele><time>2026-04-18T13:53:10Z</time></trkpt><trkpt lat="45.47200761767071" lon="11.087585026267337"><ele>350.5</ele><time>2026-04-18T13:53:11Z</time></trkpt><trkpt lat="45.47187402104115" lon="11.087566820674187"><ele>350.25</ele><time>2026-04-18T13:53:12Z</time></trkpt><trkpt lat="45.47176166777234" lon="11.08750568543019"><ele>350.0</ele><time>2026-04-18T13:53:13Z</time></trkpt><trkpt lat="45.4716452694802" lon="11.08751458906708"><ele>350.0</ele><time>2026-04-18T13:53:14Z</time></trkpt><trkpt lat="45.47154203087822" lon="11.08749556169193"><ele>350.0</ele><time>2026-04-18T13:53:15Z</time></trkpt><trkpt lat="45.4714283120595" lon="11.087461903146062"><ele>350.0</ele><time>2026-04-18T13:53:16Z</time></trkpt><trkpt lat="45.47131082091053" lon="11.087429118940632"><ele>350.0</ele><time>2026-04-18T13:53:17Z</time></trkpt><trkpt lat="45.4711943115926" lon="11.087400582846875"><ele>348.4</ele><time>2026-04-18T13:53:18Z</time></trkpt><trkpt lat="45.471080339597734" lon="11.08737098778051"><ele>346.8</ele><time>2026-04-18T13:53:19Z</time></trkpt><trkpt lat="45.47097431698429" lon="11.087334373098214"><ele>345.20000000000005</ele><time>2026-04-18T13:53:20Z</time></trkpt><trkpt lat="45.47087534549699" lon="11.087315562911256"><ele>343.6</ele><time>2026-04-18T13:53:21Z</time></trkpt><trkpt lat="45.47079253078194" lon="11.08728608334338"><ele>342.0</ele><time>2026-04-18T13:53:22Z</time></trkpt><trkpt lat="45.47069860395796" lon="11.087247845779155"><ele>342.0</ele><time>2026-04-18T13:53:24Z</time></trkpt><trkpt lat="45.47061200415767" lon="11.087274928680477"><ele>342.0</ele><time>2026-04-18T13:53:27Z</time></trkpt><trkpt lat="45.47053497672106" lon="11.087305860949666"><ele>342.0</ele><time>2026-04-18T13:53:28Z</time></trkpt><trkpt lat="45.47047299478389" lon="11.087371293289866"><ele>342.0</ele><time>2026-04-18T13:53:29Z</time></trkpt><trkpt lat="45.47041157421295" lon="11.087488719889429"><ele>342.0</ele><time>2026-04-18T13:53:30Z</time></trkpt><trkpt lat="45.47038083110173" lon="11.08758514686423"><ele>342.0</ele><time>2026-04-18T13:53:31Z</time></trkpt><trkpt lat="45.47034068022104" lon="11.087703023429006"><ele>341.40000000000003</ele><time>2026-04-18T13:53:32Z</time></trkpt><trkpt lat="45.47029272400278" lon="11.087820069883094"><ele>340.8</ele><time>2026-04-18T13:53:33Z</time></trkpt><trkpt lat="45.47023815308187" lon="11.087963233904755"><ele>340.2</ele><time>2026-04-18T13:53:34Z</time></trkpt><trkpt lat="45.47020062131848" lon="11.088114366864358"><ele>339.6</ele><time>2026-04-18T13:53:35Z</time></trkpt><trkpt lat="45.47013621269679" lon="11.088243401409455"><ele>339.0</ele><time>2026-04-18T13:53:36Z</time></trkpt><trkpt lat="45.470075923907885" lon="11.088375639481868"><ele>339.0</ele><time>2026-04-18T13:53:37Z</time></trkpt><trkpt lat="45.47005377995824" lon="11.08852525083128"><ele>339.0</ele><time>2026-04-18T13:53:38Z</time></trkpt><trkpt lat="45.47004965535388" lon="11.088671802639462"><ele>339.0</ele><time>2026-04-18T13:53:39Z</time></trkpt><trkpt lat="45.47002212822151" lon="11.08881036242582"><ele>339.0</ele><time>2026-04-18T13:53:40Z</time></trkpt><trkpt lat="45.46999054687466" lon="11.088916744365203"><ele>339.0</ele><time>2026-04-18T13:53:41Z</time></trkpt><trkpt lat="45.46993897532162" lon="11.089006774021641"><ele>337.79999999999995</ele><time>2026-04-18T13:53:42Z</time></trkpt><trkpt lat="45.46987455116158" lon="11.08912542238328"><ele>336.59999999999997</ele><time>2026-04-18T13:53:43Z</time></trkpt><trkpt lat="45.46980375069614" lon="11.089234366618063"><ele>335.4</ele><time>2026-04-18T13:53:44Z</time></trkpt><trkpt lat="45.46971821980487" lon="11.089343631446093"><ele>334.2</ele><time>2026-04-18T13:53:45Z</time></trkpt><trkpt lat="45.469635089370946" lon="11.089470594839453"><ele>333.0</ele><time>2026-04-18T13:53:46Z</time></trkpt><trkpt lat="45.46952632794601" lon="11.089565054431377"><ele>333.0</ele><time>2026-04-18T13:53:47Z</time></trkpt><trkpt lat="45.46943302205554" lon="11.089691487647096"><ele>333.0</ele><time>2026-04-18T13:53:48Z</time></trkpt><trkpt lat="45.46933739758512" lon="11.089812058584895"><ele>333.0</ele><time>2026-04-18T13:53:49Z</time></trkpt><trkpt lat="45.46925219877746" lon="11.089927098404857"><ele>333.0</ele><time>2026-04-18T13:53:50Z</time></trkpt><trkpt lat="45.46917431877449" lon="11.090055784542018"><ele>336.5</ele><time>2026-04-18T13:53:51Z</time></trkpt><trkpt lat="45.469106750079206" lon="11.09019684344565"><ele>340.0</ele><time>2026-04-18T13:53:52Z</time></trkpt><trkpt lat="45.46904468203152" lon="11.090338751683463"><ele>343.5</ele><time>2026-04-18T13:53:53Z</time></trkpt><trkpt lat="45.4689577200877" lon="11.090452831673728"><ele>347.0</ele><time>2026-04-18T13:53:54Z</time></trkpt><trkpt lat="45.46887689829662" lon="11.09055197483249"><ele>347.0</ele><time>2026-04-18T13:53:55Z</time></trkpt><trkpt lat="45.46881418669932" lon="11.090668155642401"><ele>347.0</ele><time>2026-04-18T13:53:56Z</time></trkpt><trkpt lat="45.468741818117195" lon="11.0907666571177"><ele>347.0</ele><time>2026-04-18T13:53:57Z</time></trkpt><trkpt lat="45.46867781508087" lon="11.090870633344148"><ele>347.0</ele><time>2026-04-18T13:53:58Z</time></trkpt><trkpt lat="45.468615906020965" lon="11.09097886505513"><ele>347.0</ele><time>2026-04-18T13:53:59Z</time></trkpt><trkpt lat="45.46853321451956" lon="11.091058124883402"><ele>347.20000000000005</ele><time>2026-04-18T13:54:00Z</time></trkpt><trkpt lat="45.4684434935124" lon="11.091135657065465"><ele>347.4</ele><time>2026-04-18T13:54:01Z</time></trkpt><trkpt lat="45.46836058090054" lon="11.091235013317583"><ele>347.6</ele><time>2026-04-18T13:54:02Z</time></trkpt><trkpt lat="45.46826911774549" lon="11.091322121094853"><ele>347.79999999999995</ele><time>2026-04-18T13:54:03Z</time></trkpt><trkpt lat="45.46817543292137" lon="11.09142177913535"><ele>348.0</ele><time>2026-04-18T13:54:04Z</time></trkpt><trkpt lat="45.46808305402407" lon="11.091498910453934"><ele>348.0</ele><time>2026-04-18T13:54:05Z</time></trkpt><trkpt lat="45.4679870051606" lon="11.091570785845715"><ele>348.0</ele><time>2026-04-18T13:54:06Z</time></trkpt><trkpt lat="45.467906531602466" lon="11.091670228767876"><ele>348.0</ele><time>2026-04-18T13:54:07Z</time></trkpt><trkpt lat="45.4678200487637" lon="11.09173761017219"><ele>348.0</ele><time>2026-04-18T13:54:08Z</time></trkpt><trkpt lat="45.46774787452431" lon="11.0918180560062"><ele>348.0</ele><time>2026-04-18T13:54:09Z</time></trkpt><trkpt lat="45.467670614488284" lon="11.09186300536713"><ele>347.79999999999995</ele><time>2026-04-18T13:54:10Z</time></trkpt><trkpt lat="45.46759437681417" lon="11.091889733013996"><ele>347.6</ele><time>2026-04-18T13:54:11Z</time></trkpt><trkpt lat="45.46751166577218" lon="11.091927798206342"><ele>347.4</ele><time>2026-04-18T13:54:12Z</time></trkpt><trkpt lat="45.46742670847149" lon="11.09196689680273"><ele>347.20000000000005</ele><time>2026-04-18T13:54:13Z</time></trkpt><trkpt lat="45.46734724661693" lon="11.092014003773352"><ele>347.0</ele><time>2026-04-18T13:54:14Z</time></trkpt><trkpt lat="45.46749414000755" lon="11.092498602264135"><ele>347.8</ele><time>2026-04-18T13:54:15Z</time></trkpt><trkpt lat="45.46753900826764" lon="11.092584596725493"><ele>348.6</ele><time>2026-04-18T13:54:16Z</time></trkpt><trkpt lat="45.467605260801015" lon="11.092608748510921"><ele>349.40000000000003</ele><time>2026-04-18T13:54:17Z</time></trkpt><trkpt lat="45.467707283271686" lon="11.092705051004769"><ele>350.20000000000005</ele><time>2026-04-18T13:54:19Z</time></trkpt><trkpt lat="45.467744189430334" lon="11.092782190041477"><ele>351.0</ele><time>2026-04-18T13:54:20Z</time></trkpt><trkpt lat="45.46750550713034" lon="11.093126855540046"><ele>351.0</ele><time>2026-04-18T13:54:21Z</time></trkpt><trkpt lat="45.46754861675393" lon="11.093194193941418"><ele>351.0</ele><time>2026-04-18T13:54:22Z</time></trkpt><trkpt lat="45.46763007295927" lon="11.093242707502599"><ele>351.0</ele><time>2026-04-18T13:54:23Z</time></trkpt><trkpt lat="45.46770807803051" lon="11.093249999547005"><ele>351.0</ele><time>2026-04-18T13:54:24Z</time></trkpt><trkpt lat="45.467777135961185" lon="11.093281580749549"><ele>351.0</ele><time>2026-04-18T13:54:25Z</time></trkpt><trkpt lat="45.46784404959292" lon="11.093364240899657"><ele>351.0</ele><time>2026-04-18T13:54:26Z</time></trkpt><trkpt lat="45.46790704950709" lon="11.093437881153712"><ele>351.0</ele><time>2026-04-18T13:54:27Z</time></trkpt><trkpt lat="45.4679936697034" lon="11.093449925329791"><ele>351.0</ele><time>2026-04-18T13:54:28Z</time></trkpt><trkpt lat="45.46806268256247" lon="11.093451349396991"><ele>351.0</ele><time>2026-04-18T13:54:29Z</time></trkpt><trkpt lat="45.468148368553344" lon="11.093576535360278"><ele>351.0</ele><time>2026-04-18T13:54:31Z</time></trkpt><trkpt lat="45.468175238657444" lon="11.09368089707313"><ele>351.0</ele><time>2026-04-18T13:54:32Z</time></trkpt><trkpt lat="45.468209747829384" lon="11.093786427227359"><ele>351.0</ele><time>2026-04-18T13:54:33Z</time></trkpt><trkpt lat="45.46825279719786" lon="11.09388202196155"><ele>351.0</ele><time>2026-04-18T13:54:34Z</time></trkpt><trkpt lat="45.468295576383014" lon="11.093971116438686"><ele>351.0</ele><time>2026-04-18T13:54:35Z</time></trkpt><trkpt lat="45.468330732796055" lon="11.094072690163749"><ele>351.0</ele><time>2026-04-18T13:54:36Z</time></trkpt><trkpt lat="45.468362947214295" lon="11.094181563233976"><ele>351.0</ele><time>2026-04-18T13:54:37Z</time></trkpt><trkpt lat="45.468412936232596" lon="11.094310466557362"><ele>351.0</ele><time>2026-04-18T13:54:38Z</time></trkpt><trkpt lat="45.468458260737336" lon="11.094420250344204"><ele>351.0</ele><time>2026-04-18T13:54:39Z</time></trkpt><trkpt lat="45.468494812929876" lon="11.094527437279499"><ele>350.14285714285717</ele><time>2026-04-18T13:54:40Z</time></trkpt><trkpt lat="45.46854184514746" lon="11.094618980045865"><ele>349.2857142857143</ele><time>2026-04-18T13:54:41Z</time></trkpt><trkpt lat="45.46860068456545" lon="11.094679257257619"><ele>348.42857142857144</ele><time>2026-04-18T13:54:42Z</time></trkpt><trkpt lat="45.46866792466319" lon="11.094707749008288"><ele>347.57142857142856</ele><time>2026-04-18T13:54:43Z</time></trkpt><trkpt lat="45.46874365903516" lon="11.094711721447949"><ele>346.7142857142857</ele><time>2026-04-18T13:54:44Z</time></trkpt><trkpt lat="45.468820793524465" lon="11.094680508459291"><ele>345.8571428571429</ele><time>2026-04-18T13:54:45Z</time></trkpt><trkpt lat="45.46888257628153" lon="11.094646998130308"><ele>345.0</ele><time>2026-04-18T13:54:46Z</time></trkpt><trkpt lat="45.468969969317904" lon="11.094629176921757"><ele>344.6</ele><time>2026-04-18T13:54:48Z</time></trkpt><trkpt lat="45.46900530753863" lon="11.094710676564315"><ele>344.2</ele><time>2026-04-18T13:54:51Z</time></trkpt><trkpt lat="45.46904200604581" lon="11.094886537720745"><ele>343.79999999999995</ele><time>2026-04-18T13:54:53Z</time></trkpt><trkpt lat="45.46905342911769" lon="11.095030861889772"><ele>343.4</ele><time>2026-04-18T13:54:55Z</time></trkpt><trkpt lat="45.469015832512326" lon="11.095145224894313"><ele>343.0</ele><time>2026-04-18T13:54:57Z</time></trkpt><trkpt lat="45.46889065622599" lon="11.095230056166946"><ele>340.59999999999997</ele><time>2026-04-18T13:54:59Z</time></trkpt><trkpt lat="45.46882447910726" lon="11.095292729737345"><ele>338.2</ele><time>2026-04-18T13:55:00Z</time></trkpt><trkpt lat="45.46875914613159" lon="11.095375405471973"><ele>335.8</ele><time>2026-04-18T13:55:01Z</time></trkpt><trkpt lat="45.46868634304482" lon="11.095458707715638"><ele>333.4</ele><time>2026-04-18T13:55:02Z</time></trkpt><trkpt lat="45.468608334481665" lon="11.09554177701063"><ele>331.0</ele><time>2026-04-18T13:55:03Z</time></trkpt><trkpt lat="45.46852360647725" lon="11.095624473068524"><ele>331.0</ele><time>2026-04-18T13:55:04Z</time></trkpt><trkpt lat="45.4684475633606" lon="11.095674739921812"><ele>331.0</ele><time>2026-04-18T13:55:05Z</time></trkpt><trkpt lat="45.46838556374561" lon="11.095738958451491"><ele>331.0</ele><time>2026-04-18T13:55:06Z</time></trkpt><trkpt lat="45.4682949868278" lon="11.095788795060379"><ele>331.0</ele><time>2026-04-18T13:55:08Z</time></trkpt><trkpt lat="45.46836896023789" lon="11.095877706650912"><ele>331.0</ele><time>2026-04-18T13:55:12Z</time></trkpt><trkpt lat="45.46843605440256" lon="11.095859073399481"><ele>331.0</ele><time>2026-04-18T13:55:13Z</time></trkpt><trkpt lat="45.46851020872022" lon="11.095857425668234"><ele>327.2</ele><time>2026-04-18T13:55:14Z</time></trkpt><trkpt lat="45.46858176890165" lon="11.095875849760553"><ele>323.40000000000003</ele><time>2026-04-18T13:55:15Z</time></trkpt><trkpt lat="45.46864681383153" lon="11.095894570192252"><ele>319.6</ele><time>2026-04-18T13:55:17Z</time></trkpt><trkpt lat="45.468767861001886" lon="11.09587484959224"><ele>315.8</ele><time>2026-04-18T13:55:19Z</time></trkpt><trkpt lat="45.46890613231707" lon="11.095857139088363"><ele>312.0</ele><time>2026-04-18T13:55:20Z</time></trkpt><trkpt lat="45.4690162815765" lon="11.095812064422203"><ele>311.6</ele><time>2026-04-18T13:55:21Z</time></trkpt><trkpt lat="45.469119903563104" lon="11.095786109856425"><ele>311.2</ele><time>2026-04-18T13:55:22Z</time></trkpt><trkpt lat="45.46921258892452" lon="11.095774439653884"><ele>310.8</ele><time>2026-04-18T13:55:23Z</time></trkpt><trkpt lat="45.469307016841306" lon="11.095752664570133"><ele>310.4</ele><time>2026-04-18T13:55:24Z</time></trkpt><trkpt lat="45.4693990479231" lon="11.095735847689086"><ele>310.0</ele><time>2026-04-18T13:55:25Z</time></trkpt><trkpt lat="45.46946441632097" lon="11.095716274374388"><ele>310.0</ele><time>2026-04-18T13:55:26Z</time></trkpt><trkpt lat="45.469555875095836" lon="11.095746348613117"><ele>310.0</ele><time>2026-04-18T13:55:28Z</time></trkpt><trkpt lat="45.4695473936307" lon="11.09585599873936"><ele>310.0</ele><time>2026-04-18T13:55:30Z</time></trkpt><trkpt lat="45.46943465748577" lon="11.095936232506475"><ele>310.0</ele><time>2026-04-18T13:55:32Z</time></trkpt><trkpt lat="45.46936093235531" lon="11.09598253036539"><ele>310.0</ele><time>2026-04-18T13:55:33Z</time></trkpt><trkpt lat="45.46928310669153" lon="11.096043517555671"><ele>310.0</ele><time>2026-04-18T13:55:34Z</time></trkpt><trkpt lat="45.46918396911641" lon="11.096146943018892"><ele>310.0</ele><time>2026-04-18T13:55:35Z</time></trkpt><trkpt lat="45.46909788573433" lon="11.09620379425373"><ele>310.0</ele><time>2026-04-18T13:55:36Z</time></trkpt><trkpt lat="45.46900389257446" lon="11.096267667071999"><ele>310.0</ele><time>2026-04-18T13:55:37Z</time></trkpt><trkpt lat="45.46890800281603" lon="11.09632197442216"><ele>310.0</ele><time>2026-04-18T13:55:38Z</time></trkpt><trkpt lat="45.46880901330637" lon="11.096399340994138"><ele>310.5</ele><time>2026-04-18T13:55:39Z</time></trkpt><trkpt lat="45.46870414837432" lon="11.096480059820461"><ele>311.0</ele><time>2026-04-18T13:55:40Z</time></trkpt><trkpt lat="45.46859393986959" lon="11.0965544489475"><ele>311.5</ele><time>2026-04-18T13:55:41Z</time></trkpt><trkpt lat="45.46848991512652" lon="11.096609598750446"><ele>312.0</ele><time>2026-04-18T13:55:42Z</time></trkpt><trkpt lat="45.468372697329215" lon="11.096669408757153"><ele>306.5</ele><time>2026-04-18T13:55:43Z</time></trkpt><trkpt lat="45.46825606711404" lon="11.09673371009891"><ele>301.0</ele><time>2026-04-18T13:55:44Z</time></trkpt><trkpt lat="45.46814710052531" lon="11.096806946309478"><ele>295.5</ele><time>2026-04-18T13:55:45Z</time></trkpt><trkpt lat="45.46803891197822" lon="11.09686906274109"><ele>290.0</ele><time>2026-04-18T13:55:46Z</time></trkpt><trkpt lat="45.467928386949744" lon="11.096930477570346"><ele>290.0</ele><time>2026-04-18T13:55:47Z</time></trkpt><trkpt lat="45.467832367046036" lon="11.09697383184958"><ele>290.0</ele><time>2026-04-18T13:55:48Z</time></trkpt><trkpt lat="45.46776072004939" lon="11.097016503938077"><ele>290.0</ele><time>2026-04-18T13:55:49Z</time></trkpt><trkpt lat="45.4676879249401" lon="11.097168538447523"><ele>290.0</ele><time>2026-04-18T13:55:51Z</time></trkpt><trkpt lat="45.4676584514415" lon="11.097262085695565"><ele>290.0</ele><time>2026-04-18T13:55:52Z</time></trkpt><trkpt lat="45.467654751101946" lon="11.097361611920013"><ele>290.0</ele><time>2026-04-18T13:55:53Z</time></trkpt><trkpt lat="45.46766609136759" lon="11.09745033960767"><ele>287.0</ele><time>2026-04-18T13:55:54Z</time></trkpt><trkpt lat="45.467644030928874" lon="11.097590226837234"><ele>284.0</ele><time>2026-04-18T13:55:56Z</time></trkpt><trkpt lat="45.46752595027111" lon="11.097651114685325"><ele>281.0</ele><time>2026-04-18T13:55:58Z</time></trkpt><trkpt lat="45.46743603039055" lon="11.097668948610178"><ele>278.0</ele><time>2026-04-18T13:55:59Z</time></trkpt><trkpt lat="45.467348978201045" lon="11.097676830919724"><ele>275.0</ele><time>2026-04-18T13:56:00Z</time></trkpt><trkpt lat="45.46727374291618" lon="11.0976809685234"><ele>275.0</ele><time>2026-04-18T13:56:01Z</time></trkpt><trkpt lat="45.467183902658356" lon="11.097674775432594"><ele>275.0</ele><time>2026-04-18T13:56:02Z</time></trkpt><trkpt lat="45.46709279593386" lon="11.097668055950667"><ele>275.0</ele><time>2026-04-18T13:56:03Z</time></trkpt><trkpt lat="45.467013912349856" lon="11.097662117871685"><ele>275.0</ele><time>2026-04-18T13:56:04Z</time></trkpt><trkpt lat="45.46693046038446" lon="11.09765931551536"><ele>275.0</ele><time>2026-04-18T13:56:05Z</time></trkpt><trkpt lat="45.466849319992065" lon="11.097658650893678"><ele>275.0</ele><time>2026-04-18T13:56:06Z</time></trkpt><trkpt lat="45.46676864630387" lon="11.097658332407285"><ele>274.83333333333337</ele><time>2026-04-18T13:56:07Z</time></trkpt><trkpt lat="45.46668870794204" lon="11.097667072318364"><ele>274.6666666666667</ele><time>2026-04-18T13:56:08Z</time></trkpt><trkpt lat="45.466607713510086" lon="11.097674500903073"><ele>274.5</ele><time>2026-04-18T13:56:09Z</time></trkpt><trkpt lat="45.46651294857028" lon="11.097674303639625"><ele>274.3333333333333</ele><time>2026-04-18T13:56:10Z</time></trkpt><trkpt lat="45.466427547813105" lon="11.097676217657344"><ele>274.16666666666663</ele><time>2026-04-18T13:56:11Z</time></trkpt><trkpt lat="45.4663581816031" lon="11.097684092389063"><ele>274.0</ele><time>2026-04-18T13:56:12Z</time></trkpt><trkpt lat="45.46629438280292" lon="11.097689016036405"><ele>272.8</ele><time>2026-04-18T13:56:13Z</time></trkpt><trkpt lat="45.46618712283026" lon="11.097697828662039"><ele>271.59999999999997</ele><time>2026-04-18T13:56:15Z</time></trkpt><trkpt lat="45.46610710426738" lon="11.097639553920395"><ele>270.4</ele><time>2026-04-18T13:56:17Z</time></trkpt><trkpt lat="45.46601556769455" lon="11.097565263347526"><ele>269.2</ele><time>2026-04-18T13:56:19Z</time></trkpt><trkpt lat="45.46591714373439" lon="11.097629786294751"><ele>268.0</ele><time>2026-04-18T13:56:21Z</time></trkpt><trkpt lat="45.46584885624529" lon="11.097675415036264"><ele>268.0</ele><time>2026-04-18T13:56:22Z</time></trkpt><trkpt lat="45.46578384031603" lon="11.097710450902241"><ele>268.0</ele><time>2026-04-18T13:56:23Z</time></trkpt><trkpt lat="45.46574114821753" lon="11.097792152716101"><ele>268.0</ele><time>2026-04-18T13:56:24Z</time></trkpt><trkpt lat="45.46571732698882" lon="11.097908639324832"><ele>268.0</ele><time>2026-04-18T13:56:26Z</time></trkpt><trkpt lat="45.46574159086659" lon="11.098015268044337"><ele>268.0</ele><time>2026-04-18T13:56:28Z</time></trkpt><trkpt lat="45.46585116116597" lon="11.098134778005733"><ele>268.0</ele><time>2026-04-18T13:56:30Z</time></trkpt><trkpt lat="45.46587900035031" lon="11.09828888190516"><ele>264.6</ele><time>2026-04-18T13:56:32Z</time></trkpt><trkpt lat="45.46594645503923" lon="11.098393999942784"><ele>261.20000000000005</ele><time>2026-04-18T13:56:34Z</time></trkpt><trkpt lat="45.46593932043182" lon="11.098491181349674"><ele>257.8</ele><time>2026-04-18T13:56:36Z</time></trkpt><trkpt lat="45.46583735252638" lon="11.098515147584521"><ele>254.4</ele><time>2026-04-18T13:56:38Z</time></trkpt><trkpt lat="45.46575617437134" lon="11.098554687292275"><ele>251.0</ele><time>2026-04-18T13:56:39Z</time></trkpt><trkpt lat="45.46566021831439" lon="11.09860375552184"><ele>251.00000000000003</ele><time>2026-04-18T13:56:40Z</time></trkpt><trkpt lat="45.46558848910072" lon="11.09862629176279"><ele>251.0</ele><time>2026-04-18T13:56:41Z</time></trkpt><trkpt lat="45.46553500346231" lon="11.098679061174895"><ele>251.0</ele><time>2026-04-18T13:56:42Z</time></trkpt><trkpt lat="45.465500568680845" lon="11.098760201854589"><ele>251.0</ele><time>2026-04-18T13:56:43Z</time></trkpt><trkpt lat="45.46549429828095" lon="11.098860640707954"><ele>251.00000000000003</ele><time>2026-04-18T13:56:44Z</time></trkpt><trkpt lat="45.46551593072188" lon="11.09898227264803"><ele>251.0</ele><time>2026-04-18T13:56:45Z</time></trkpt><trkpt lat="45.46554272873411" lon="11.099112244462985"><ele>249.00000000000003</ele><time>2026-04-18T13:56:46Z</time></trkpt><trkpt lat="45.4655341544329" lon="11.099238810266524"><ele>247.0</ele><time>2026-04-18T13:56:47Z</time></trkpt><trkpt lat="45.46551536021154" lon="11.099354991703718"><ele>245.0</ele><time>2026-04-18T13:56:48Z</time></trkpt><trkpt lat="45.46549547073124" lon="11.099465864897818"><ele>243.0</ele><time>2026-04-18T13:56:49Z</time></trkpt><trkpt lat="45.465477049785406" lon="11.099568153665437"><ele>241.00000000000003</ele><time>2026-04-18T13:56:50Z</time></trkpt><trkpt lat="45.465452277945076" lon="11.099675385046842"><ele>239.0</ele><time>2026-04-18T13:56:51Z</time></trkpt><trkpt lat="45.465414291911806" lon="11.099798806215794"><ele>237.00000000000003</ele><time>2026-04-18T13:56:53Z</time></trkpt><trkpt lat="45.4654046298447" lon="11.099938697325362"><ele>235.0</ele><time>2026-04-18T13:56:55Z</time></trkpt><trkpt lat="45.46541909590227" lon="11.100056581750831"><ele>233.0</ele><time>2026-04-18T13:56:57Z</time></trkpt><trkpt lat="45.46544270998076" lon="11.10017649059076"><ele>231.0</ele><time>2026-04-18T13:56:59Z</time></trkpt><trkpt lat="45.465428383628705" lon="11.100311808619017"><ele>229.00000000000003</ele><time>2026-04-18T13:57:01Z</time></trkpt><trkpt lat="45.465398406338586" lon="11.100392532920281"><ele>227.0</ele><time>2026-04-18T13:57:02Z</time></trkpt><trkpt lat="45.46535602299271" lon="11.10047152989666"><ele>227.00000000000003</ele><time>2026-04-18T13:57:03Z</time></trkpt><trkpt lat="45.465300478012985" lon="11.100542486518055"><ele>227.0</ele><time>2026-04-18T13:57:04Z</time></trkpt><trkpt lat="45.46523864778856" lon="11.100592595335002"><ele>227.0</ele><time>2026-04-18T13:57:05Z</time></trkpt><trkpt lat="45.465145664856955" lon="11.10063604122372"><ele>227.0</ele><time>2026-04-18T13:57:06Z</time></trkpt><trkpt lat="45.465053696244546" lon="11.100665851119135"><ele>227.00000000000003</ele><time>2026-04-18T13:57:07Z</time></trkpt><trkpt lat="45.46499161195919" lon="11.100696083901871"><ele>227.0</ele><time>2026-04-18T13:57:08Z</time></trkpt><trkpt lat="45.46487834762592" lon="11.10072866616554"><ele>227.00000000000003</ele><time>2026-04-18T13:57:10Z</time></trkpt><trkpt lat="45.464814075872056" lon="11.100743825542837"><ele>227.0</ele><time>2026-04-18T13:57:11Z</time></trkpt><trkpt lat="45.46473279587205" lon="11.100805870779203"><ele>227.0</ele><time>2026-04-18T13:57:13Z</time></trkpt><trkpt lat="45.46466258461224" lon="11.100777585585009"><ele>227.0</ele><time>2026-04-18T13:57:15Z</time></trkpt><trkpt lat="45.46464456712029" lon="11.10063568119102"><ele>227.00000000000003</ele><time>2026-04-18T13:57:17Z</time></trkpt><trkpt lat="45.46457974265103" lon="11.100571475243989"><ele>227.0</ele><time>2026-04-18T13:57:19Z</time></trkpt><trkpt lat="45.46449385515211" lon="11.100575235943248"><ele>225.0</ele><time>2026-04-18T13:57:20Z</time></trkpt><trkpt lat="45.46447924228301" lon="11.100726351196329"><ele>223.0</ele><time>2026-04-18T13:57:22Z</time></trkpt><trkpt lat="45.46452543735395" lon="11.100837852024936"><ele>221.0</ele><time>2026-04-18T13:57:23Z</time></trkpt><trkpt lat="45.46449007942544" lon="11.100985602141739"><ele>219.0</ele><time>2026-04-18T13:57:25Z</time></trkpt><trkpt lat="45.46445314260235" lon="11.101092565030175"><ele>217.0</ele><time>2026-04-18T13:57:26Z</time></trkpt><trkpt lat="45.46439908679764" lon="11.10119468908176"><ele>215.83333333333331</ele><time>2026-04-18T13:57:27Z</time></trkpt><trkpt lat="45.464311656045986" lon="11.101331441897816"><ele>214.66666666666666</ele><time>2026-04-18T13:57:29Z</time></trkpt><trkpt lat="45.464286815025844" lon="11.101471746988224"><ele>213.5</ele><time>2026-04-18T13:57:31Z</time></trkpt><trkpt lat="45.4642691033198" lon="11.101565311841446"><ele>212.33333333333331</ele><time>2026-04-18T13:57:33Z</time></trkpt><trkpt lat="45.46429174981883" lon="11.101655361748623"><ele>211.16666666666666</ele><time>2026-04-18T13:57:35Z</time></trkpt><trkpt lat="45.46434163081535" lon="11.101739303454794"><ele>210.0</ele><time>2026-04-18T13:57:37Z</time></trkpt><trkpt lat="45.46437483554774" lon="11.101887431409459"><ele>208.16666666666666</ele><time>2026-04-18T13:57:39Z</time></trkpt><trkpt lat="45.46440880307683" lon="11.101963179831637"><ele>206.33333333333331</ele><time>2026-04-18T13:57:40Z</time></trkpt><trkpt lat="45.46444501148577" lon="11.102053484844996"><ele>204.5</ele><time>2026-04-18T13:57:41Z</time></trkpt><trkpt lat="45.464483256445874" lon="11.102131179673805"><ele>202.66666666666666</ele><time>2026-04-18T13:57:42Z</time></trkpt><trkpt lat="45.4645759262281" lon="11.10219653467667"><ele>200.83333333333331</ele><time>2026-04-18T13:57:44Z</time></trkpt><trkpt lat="45.46464552537486" lon="11.102253217488576"><ele>199.0</ele><time>2026-04-18T13:57:45Z</time></trkpt><trkpt lat="45.464723956103" lon="11.102312299798971"><ele>199.0</ele><time>2026-04-18T13:57:46Z</time></trkpt><trkpt lat="45.464804186317494" lon="11.10235468558347"><ele>199.0</ele><time>2026-04-18T13:57:47Z</time></trkpt><trkpt lat="45.464903757833504" lon="11.102440722939313"><ele>199.0</ele><time>2026-04-18T13:57:49Z</time></trkpt><trkpt lat="45.464983371089886" lon="11.102507514296157"><ele>199.0</ele><time>2026-04-18T13:57:51Z</time></trkpt><trkpt lat="45.46506277142323" lon="11.102531650225558"><ele>199.0</ele><time>2026-04-18T13:57:53Z</time></trkpt><trkpt lat="45.46517680484817" lon="11.102496962477233"><ele>195.39999999999998</ele><time>2026-04-18T13:57:55Z</time></trkpt><trkpt lat="45.4652518744686" lon="11.102537625673934"><ele>191.8</ele><time>2026-04-18T13:57:56Z</time></trkpt><trkpt lat="45.465305527762" lon="11.102688915742881"><ele>188.2</ele><time>2026-04-18T13:57:58Z</time></trkpt><trkpt lat="45.46542173554117" lon="11.102708326630244"><ele>184.60000000000002</ele><time>2026-04-18T13:58:00Z</time></trkpt><trkpt lat="45.465504610277556" lon="11.102709956716659"><ele>181.0</ele><time>2026-04-18T13:58:01Z</time></trkpt><trkpt lat="45.46557786030152" lon="11.102691939551887"><ele>179.33333333333334</ele><time>2026-04-18T13:58:02Z</time></trkpt><trkpt lat="45.46564890123311" lon="11.102656419420603"><ele>177.66666666666669</ele><time>2026-04-18T13:58:03Z</time></trkpt><trkpt lat="45.4657260972357" lon="11.102659741374877"><ele>176.0</ele><time>2026-04-18T13:58:04Z</time></trkpt><trkpt lat="45.46578666590094" lon="11.102625526335242"><ele>174.33333333333334</ele><time>2026-04-18T13:58:05Z</time></trkpt><trkpt lat="45.46586060364166" lon="11.102638871214761"><ele>172.66666666666666</ele><time>2026-04-18T13:58:06Z</time></trkpt><trkpt lat="45.46595213383092" lon="11.10270547062393"><ele>171.0</ele><time>2026-04-18T13:58:08Z</time></trkpt><trkpt lat="45.46600986258375" lon="11.102781451451785"><ele>171.0</ele><time>2026-04-18T13:58:09Z</time></trkpt><trkpt lat="45.46608426217611" lon="11.102824917647723"><ele>171.0</ele><time>2026-04-18T13:58:10Z</time></trkpt><trkpt lat="45.466156157254645" lon="11.102811625422767"><ele>171.0</ele><time>2026-04-18T13:58:11Z</time></trkpt><trkpt lat="45.46622376127707" lon="11.102818323172775"><ele>171.0</ele><time>2026-04-18T13:58:12Z</time></trkpt><trkpt lat="45.46628742713355" lon="11.102824796475673"><ele>171.0</ele><time>2026-04-18T13:58:13Z</time></trkpt><trkpt lat="45.46636189818427" lon="11.103000640633098"><ele>171.0</ele><time>2026-04-18T13:58:15Z</time></trkpt><trkpt lat="45.466427167545014" lon="11.103120287003382"><ele>167.60000000000002</ele><time>2026-04-18T13:58:16Z</time></trkpt><trkpt lat="45.46649498029346" lon="11.10324387661316"><ele>164.20000000000002</ele><time>2026-04-18T13:58:17Z</time></trkpt><trkpt lat="45.466554631296034" lon="11.103363983602915"><ele>160.8</ele><time>2026-04-18T13:58:18Z</time></trkpt><trkpt lat="45.46660544692606" lon="11.103487984518557"><ele>157.4</ele><time>2026-04-18T13:58:19Z</time></trkpt><trkpt lat="45.466646324760646" lon="11.10359759950735"><ele>154.0</ele><time>2026-04-18T13:58:20Z</time></trkpt><trkpt lat="45.46669110726626" lon="11.10367911350628"><ele>151.66666666666669</ele><time>2026-04-18T13:58:21Z</time></trkpt><trkpt lat="45.466732490384196" lon="11.103815929089633"><ele>149.33333333333334</ele><time>2026-04-18T13:58:23Z</time></trkpt><trkpt lat="45.46677643434353" lon="11.10388144846778"><ele>147.0</ele><time>2026-04-18T13:58:25Z</time></trkpt><trkpt lat="45.46674703167324" lon="11.103986443901437"><ele>144.66666666666666</ele><time>2026-04-18T13:58:29Z</time></trkpt><trkpt lat="45.46669571615544" lon="11.104057751184676"><ele>142.33333333333331</ele><time>2026-04-18T13:58:30Z</time></trkpt><trkpt lat="45.46661859626178" lon="11.104161005717893"><ele>140.0</ele><time>2026-04-18T13:58:31Z</time></trkpt><trkpt lat="45.46652287259806" lon="11.104284339314244"><ele>138.66666666666666</ele><time>2026-04-18T13:58:32Z</time></trkpt><trkpt lat="45.466421398089516" lon="11.104440654598376"><ele>137.33333333333334</ele><time>2026-04-18T13:58:33Z</time></trkpt><trkpt lat="45.466295980810756" lon="11.104588255308258"><ele>136.0</ele><time>2026-04-18T13:58:34Z</time></trkpt><trkpt lat="45.466176519876974" lon="11.104725232193934"><ele>136.0</ele><time>2026-04-18T13:58:35Z</time></trkpt><trkpt lat="45.466055626697866" lon="11.104819403884807"><ele>136.0</ele><time>2026-04-18T13:58:36Z</time></trkpt><trkpt lat="45.46594206917783" lon="11.104917538259635"><ele>136.0</ele><time>2026-04-18T13:58:37Z</time></trkpt><trkpt lat="45.4658316093183" lon="11.104997409041085"><ele>136.0</ele><time>2026-04-18T13:58:38Z</time></trkpt><trkpt lat="45.46572382504145" lon="11.105064914817802"><ele>134.5</ele><time>2026-04-18T13:58:39Z</time></trkpt><trkpt lat="45.46561341882715" lon="11.10502134255168"><ele>133.0</ele><time>2026-04-18T13:58:40Z</time></trkpt><trkpt lat="45.4654959557598" lon="11.105015748149992"><ele>131.5</ele><time>2026-04-18T13:58:41Z</time></trkpt><trkpt lat="45.46536956631005" lon="11.104987914446301"><ele>130.0</ele><time>2026-04-18T13:58:42Z</time></trkpt><trkpt lat="45.465220675302206" lon="11.104955942612525"><ele>131.5</ele><time>2026-04-18T13:58:43Z</time></trkpt><trkpt lat="45.46509295567794" lon="11.104885922759234"><ele>133.0</ele><time>2026-04-18T13:58:44Z</time></trkpt><trkpt lat="45.464972761105464" lon="11.104823526121843"><ele>134.5</ele><time>2026-04-18T13:58:45Z</time></trkpt><trkpt lat="45.46485759490094" lon="11.104781466071248"><ele>136.0</ele><time>2026-04-18T13:58:46Z</time></trkpt><trkpt lat="45.464747327523156" lon="11.104748213184248"><ele>136.0</ele><time>2026-04-18T13:58:47Z</time></trkpt><trkpt lat="45.46464128174831" lon="11.104718929640766"><ele>136.0</ele><time>2026-04-18T13:58:48Z</time></trkpt><trkpt lat="45.46453978564359" lon="11.10469776488108"><ele>136.0</ele><time>2026-04-18T13:58:49Z</time></trkpt><trkpt lat="45.464423311913166" lon="11.104684830720736"><ele>136.0</ele><time>2026-04-18T13:58:50Z</time></trkpt><trkpt lat="45.46429670176213" lon="11.104681323343286"><ele>136.0</ele><time>2026-04-18T13:58:51Z</time></trkpt><trkpt lat="45.464178723182656" lon="11.104689155871874"><ele>136.0</ele><time>2026-04-18T13:58:52Z</time></trkpt><trkpt lat="45.46405707838416" lon="11.104698719163974"><ele>136.0</ele><time>2026-04-18T13:58:53Z</time></trkpt><trkpt lat="45.46392679846182" lon="11.104717125467875"><ele>136.0</ele><time>2026-04-18T13:58:54Z</time></trkpt><trkpt lat="45.46379002244878" lon="11.104744914893688"><ele>134.75</ele><time>2026-04-18T13:58:55Z</time></trkpt><trkpt lat="45.4636542804065" lon="11.10479704206083"><ele>133.5</ele><time>2026-04-18T13:58:56Z</time></trkpt><trkpt lat="45.46351648328155" lon="11.104862754879706"><ele>132.25</ele><time>2026-04-18T13:58:57Z</time></trkpt><trkpt lat="45.46339103499139" lon="11.104932823961429"><ele>131.0</ele><time>2026-04-18T13:58:58Z</time></trkpt><trkpt lat="45.46326928644503" lon="11.10498524082387"><ele>128.25</ele><time>2026-04-18T13:58:59Z</time></trkpt><trkpt lat="45.46316131669577" lon="11.105056068964734"><ele>125.5</ele><time>2026-04-18T13:59:00Z</time></trkpt><trkpt lat="45.46305859327551" lon="11.10513673638788"><ele>122.75</ele><time>2026-04-18T13:59:01Z</time></trkpt><trkpt lat="45.46294613852612" lon="11.105213876428163"><ele>120.0</ele><time>2026-04-18T13:59:02Z</time></trkpt><trkpt lat="45.46281879430286" lon="11.10528649263455"><ele>120.0</ele><time>2026-04-18T13:59:03Z</time></trkpt><trkpt lat="45.46268914983902" lon="11.105354859910578"><ele>120.0</ele><time>2026-04-18T13:59:04Z</time></trkpt><trkpt lat="45.4625652151204" lon="11.105401248377577"><ele>120.0</ele><time>2026-04-18T13:59:05Z</time></trkpt><trkpt lat="45.46243784167995" lon="11.105442786312285"><ele>120.0</ele><time>2026-04-18T13:59:06Z</time></trkpt><trkpt lat="45.46229780838397" lon="11.105456071326476"><ele>120.0</ele><time>2026-04-18T13:59:07Z</time></trkpt><trkpt lat="45.46215211858742" lon="11.105513947106369"><ele>120.0</ele><time>2026-04-18T13:59:08Z</time></trkpt><trkpt lat="45.46200490108466" lon="11.105552697683049"><ele>120.0</ele><time>2026-04-18T13:59:09Z</time></trkpt><trkpt lat="45.46185866470969" lon="11.105631604888412"><ele>120.33333333333334</ele><time>2026-04-18T13:59:10Z</time></trkpt><trkpt lat="45.46171100359465" lon="11.10571486478227"><ele>120.66666666666667</ele><time>2026-04-18T13:59:11Z</time></trkpt><trkpt lat="45.4615565084073" lon="11.105805260467795"><ele>121.0</ele><time>2026-04-18T13:59:12Z</time></trkpt><trkpt lat="45.461402903394905" lon="11.105887365371"><ele>117.66666666666667</ele><time>2026-04-18T13:59:13Z</time></trkpt><trkpt lat="45.46124270360769" lon="11.105980344191178"><ele>114.33333333333334</ele><time>2026-04-18T13:59:14Z</time></trkpt><trkpt lat="45.46108138793972" lon="11.106039258914334"><ele>111.0</ele><time>2026-04-18T13:59:15Z</time></trkpt><trkpt lat="45.4609250361778" lon="11.106110555073945"><ele>111.0</ele><time>2026-04-18T13:59:16Z</time></trkpt><trkpt lat="45.46078632569919" lon="11.106172679134492"><ele>111.0</ele><time>2026-04-18T13:59:17Z</time></trkpt><trkpt lat="45.46066111747527" lon="11.106246566903192"><ele>111.0</ele><time>2026-04-18T13:59:18Z</time></trkpt><trkpt lat="45.46053642187181" lon="11.106300013244493"><ele>111.0</ele><time>2026-04-18T13:59:19Z</time></trkpt><trkpt lat="45.460418517359464" lon="11.10634948381751"><ele>110.5</ele><time>2026-04-18T13:59:20Z</time></trkpt><trkpt lat="45.4603049391193" lon="11.106397638665612"><ele>110.0</ele><time>2026-04-18T13:59:21Z</time></trkpt><trkpt lat="45.460185957882885" lon="11.106456435238078"><ele>109.5</ele><time>2026-04-18T13:59:22Z</time></trkpt><trkpt lat="45.4600686531794" lon="11.106514323133535"><ele>109.0</ele><time>2026-04-18T13:59:23Z</time></trkpt><trkpt lat="45.45994376293405" lon="11.106567960035592"><ele>107.75</ele><time>2026-04-18T13:59:24Z</time></trkpt><trkpt lat="45.459816218287116" lon="11.106619816652007"><ele>106.5</ele><time>2026-04-18T13:59:25Z</time></trkpt><trkpt lat="45.4596867214535" lon="11.10668164642534"><ele>105.25</ele><time>2026-04-18T13:59:26Z</time></trkpt><trkpt lat="45.459561243807045" lon="11.106751685076413"><ele>104.0</ele><time>2026-04-18T13:59:27Z</time></trkpt><trkpt lat="45.45944747847226" lon="11.106823123338968"><ele>104.0</ele><time>2026-04-18T13:59:28Z</time></trkpt><trkpt lat="45.45933971410511" lon="11.106884379749525"><ele>104.0</ele><time>2026-04-18T13:59:29Z</time></trkpt><trkpt lat="45.459249000514404" lon="11.106974155135584"><ele>104.0</ele><time>2026-04-18T13:59:30Z</time></trkpt><trkpt lat="45.45914071548042" lon="11.107051420218461"><ele>104.0</ele><time>2026-04-18T13:59:31Z</time></trkpt><trkpt lat="45.45903779676591" lon="11.10713738990936"><ele>104.0</ele><time>2026-04-18T13:59:32Z</time></trkpt><trkpt lat="45.45893799550639" lon="11.107221244044013"><ele>104.0</ele><time>2026-04-18T13:59:33Z</time></trkpt><trkpt lat="45.458836640884684" lon="11.107318951588569"><ele>104.0</ele><time>2026-04-18T13:59:34Z</time></trkpt><trkpt lat="45.45873521911238" lon="11.107393071806843"><ele>104.0</ele><time>2026-04-18T13:59:35Z</time></trkpt><trkpt lat="45.4586322800515" lon="11.107445808972498"><ele>102.0</ele><time>2026-04-18T13:59:36Z</time></trkpt><trkpt lat="45.4585387725793" lon="11.107479058837097"><ele>100.0</ele><time>2026-04-18T13:59:37Z</time></trkpt><trkpt lat="45.45845089860886" lon="11.107466634092406"><ele>98.0</ele><time>2026-04-18T13:59:38Z</time></trkpt><trkpt lat="45.45837682696514" lon="11.107457609676784"><ele>96.0</ele><time>2026-04-18T13:59:39Z</time></trkpt><trkpt lat="45.458281457807956" lon="11.107711069059647"><ele>96.0</ele><time>2026-04-18T13:59:41Z</time></trkpt><trkpt lat="45.45823846820908" lon="11.10786150698233"><ele>96.0</ele><time>2026-04-18T13:59:42Z</time></trkpt><trkpt lat="45.45820913586807" lon="11.108050877115296"><ele>96.0</ele><time>2026-04-18T13:59:43Z</time></trkpt><trkpt lat="45.45819972813912" lon="11.108200925702302"><ele>96.0</ele><time>2026-04-18T13:59:44Z</time></trkpt><trkpt lat="45.45819935694857" lon="11.108340763526774"><ele>95.8</ele><time>2026-04-18T13:59:45Z</time></trkpt><trkpt lat="45.458207571418335" lon="11.108440659942879"><ele>95.6</ele><time>2026-04-18T13:59:46Z</time></trkpt><trkpt lat="45.458228449485745" lon="11.10858450483767"><ele>95.4</ele><time>2026-04-18T13:59:48Z</time></trkpt><trkpt lat="45.45831491239578" lon="11.108512824103817"><ele>95.2</ele><time>2026-04-18T13:59:54Z</time></trkpt><trkpt lat="45.458251782604556" lon="11.108424809876693"><ele>95.0</ele><time>2026-04-18T13:59:57Z</time></trkpt><trkpt lat="45.458161322526" lon="11.108438078226998"><ele>95.0</ele><time>2026-04-18T13:59:59Z</time></trkpt><trkpt lat="45.45807931376398" lon="11.108457450689004"><ele>95.0</ele><time>2026-04-18T14:00:00Z</time></trkpt><trkpt lat="45.45800902822996" lon="11.108468931403468"><ele>95.0</ele><time>2026-04-18T14:00:01Z</time></trkpt><trkpt lat="45.45791611058147" lon="11.108512767867825"><ele>95.0</ele><time>2026-04-18T14:00:03Z</time></trkpt><trkpt lat="45.45780594221165" lon="11.10850408366639"><ele>95.0</ele><time>2026-04-18T14:00:05Z</time></trkpt><trkpt lat="45.45768360368676" lon="11.108516199786855"><ele>94.5</ele><time>2026-04-18T14:00:07Z</time></trkpt><trkpt lat="45.45760414939743" lon="11.108555261128958"><ele>94.0</ele><time>2026-04-18T14:00:08Z</time></trkpt><trkpt lat="45.45753807315256" lon="11.108586115458936"><ele>93.5</ele><time>2026-04-18T14:00:09Z</time></trkpt><trkpt lat="45.45743626565896" lon="11.108571692837474"><ele>93.0</ele><time>2026-04-18T14:00:11Z</time></trkpt><trkpt lat="45.457365526703015" lon="11.108563372204422"><ele>92.5</ele><time>2026-04-18T14:00:13Z</time></trkpt><trkpt lat="45.4573003286285" lon="11.108566390931177"><ele>92.0</ele><time>2026-04-18T14:00:15Z</time></trkpt><trkpt lat="45.45721754903959" lon="11.10857491767407"><ele>92.0</ele><time>2026-04-18T14:00:17Z</time></trkpt><trkpt lat="45.457154274988774" lon="11.10854220233597"><ele>92.0</ele><time>2026-04-18T14:01:06Z</time></trkpt><trkpt lat="45.457044447833944" lon="11.10854913034249"><ele>92.0</ele><time>2026-04-18T14:01:08Z</time></trkpt><trkpt lat="45.456956509667656" lon="11.108544146899067"><ele>92.0</ele><time>2026-04-18T14:01:09Z</time></trkpt><trkpt lat="45.45687754473677" lon="11.10855190125378"><ele>92.0</ele><time>2026-04-18T14:01:10Z</time></trkpt><trkpt lat="45.45680054804193" lon="11.108554364908832"><ele>92.0</ele><time>2026-04-18T14:01:11Z</time></trkpt><trkpt lat="45.456727457386535" lon="11.108558744576237"><ele>91.19999999999999</ele><time>2026-04-18T14:01:12Z</time></trkpt><trkpt lat="45.456657558398874" lon="11.108550584171287"><ele>90.4</ele><time>2026-04-18T14:01:13Z</time></trkpt><trkpt lat="45.456548235884455" lon="11.108558339749745"><ele>89.6</ele><time>2026-04-18T14:01:15Z</time></trkpt><trkpt lat="45.45641569724349" lon="11.108512741712527"><ele>88.80000000000001</ele><time>2026-04-18T14:01:17Z</time></trkpt><trkpt lat="45.45632693576538" lon="11.108480375240307"><ele>88.0</ele><time>2026-04-18T14:01:18Z</time></trkpt><trkpt lat="45.45626755612316" lon="11.108421540588767"><ele>87.83333333333333</ele><time>2026-04-18T14:01:19Z</time></trkpt><trkpt lat="45.456174529398915" lon="11.108409555910395"><ele>87.66666666666666</ele><time>2026-04-18T14:01:20Z</time></trkpt><trkpt lat="45.45608860533436" lon="11.108380344158716"><ele>87.5</ele><time>2026-04-18T14:01:21Z</time></trkpt><trkpt lat="45.456011500000024" lon="11.108365876048566"><ele>87.33333333333333</ele><time>2026-04-18T14:01:22Z</time></trkpt><trkpt lat="45.45594933020711" lon="11.10835134982773"><ele>87.16666666666667</ele><time>2026-04-18T14:01:23Z</time></trkpt><trkpt lat="45.45587321921455" lon="11.10833455826668"><ele>87.0</ele><time>2026-04-18T14:01:24Z</time></trkpt><trkpt lat="45.45580961056696" lon="11.108321189022526"><ele>87.0</ele><time>2026-04-18T14:01:25Z</time></trkpt><trkpt lat="45.455741382386414" lon="11.108270183128218"><ele>87.0</ele><time>2026-04-18T14:01:26Z</time></trkpt><trkpt lat="45.45564862174311" lon="11.108269812220662"><ele>87.0</ele><time>2026-04-18T14:01:27Z</time></trkpt><trkpt lat="45.45556882928999" lon="11.1082571133797"><ele>87.0</ele><time>2026-04-18T14:01:28Z</time></trkpt><trkpt lat="45.455491603187916" lon="11.108231315812164"><ele>87.0</ele><time>2026-04-18T14:01:29Z</time></trkpt><trkpt lat="45.455417498548144" lon="11.108209434429952"><ele>87.0</ele><time>2026-04-18T14:01:30Z</time></trkpt><trkpt lat="45.45529344024573" lon="11.108190254147114"><ele>86.16666666666667</ele><time>2026-04-18T14:01:32Z</time></trkpt><trkpt lat="45.45521747202365" lon="11.108172355409007"><ele>85.33333333333333</ele><time>2026-04-18T14:01:33Z</time></trkpt><trkpt lat="45.45513923955962" lon="11.108134811502852"><ele>84.5</ele><time>2026-04-18T14:01:34Z</time></trkpt><trkpt lat="45.45504723821248" lon="11.108108323205135"><ele>83.66666666666666</ele><time>2026-04-18T14:01:35Z</time></trkpt><trkpt lat="45.45495325327826" lon="11.108075855052599"><ele>82.83333333333333</ele><time>2026-04-18T14:01:36Z</time></trkpt><trkpt lat="45.454863050201205" lon="11.108051169479152"><ele>82.0</ele><time>2026-04-18T14:01:37Z</time></trkpt><trkpt lat="45.45477918263783" lon="11.10803128144106"><ele>82.0</ele><time>2026-04-18T14:01:38Z</time></trkpt><trkpt lat="45.45469498479229" lon="11.1079890782347"><ele>82.0</ele><time>2026-04-18T14:01:39Z</time></trkpt><trkpt lat="45.454632907712096" lon="11.107966839016582"><ele>82.0</ele><time>2026-04-18T14:01:40Z</time></trkpt><trkpt lat="45.45452407504532" lon="11.107979833931193"><ele>82.0</ele><time>2026-04-18T14:01:42Z</time></trkpt><trkpt lat="45.45442145555094" lon="11.108017516047076"><ele>82.0</ele><time>2026-04-18T14:01:44Z</time></trkpt><trkpt lat="45.45431093710727" lon="11.108111376684894"><ele>81.6</ele><time>2026-04-18T14:01:46Z</time></trkpt><trkpt lat="45.45424426016093" lon="11.10820271031673"><ele>81.19999999999999</ele><time>2026-04-18T14:01:47Z</time></trkpt><trkpt lat="45.45419424356364" lon="11.108303123382273"><ele>80.8</ele><time>2026-04-18T14:01:48Z</time></trkpt><trkpt lat="45.45413283267826" lon="11.108431821542842"><ele>80.4</ele><time>2026-04-18T14:01:49Z</time></trkpt><trkpt lat="45.454090073548066" lon="11.108556976969826"><ele>80.0</ele><time>2026-04-18T14:01:50Z</time></trkpt><trkpt lat="45.4540358337067" lon="11.108675149735578"><ele>80.0</ele><time>2026-04-18T14:01:51Z</time></trkpt><trkpt lat="45.45398281765791" lon="11.108777634628932"><ele>80.0</ele><time>2026-04-18T14:01:52Z</time></trkpt><trkpt lat="45.45392324181336" lon="11.108880712514559"><ele>80.0</ele><time>2026-04-18T14:01:53Z</time></trkpt><trkpt lat="45.45387714581248" lon="11.108948844450065"><ele>80.0</ele><time>2026-04-18T14:01:54Z</time></trkpt><trkpt lat="45.45381092195882" lon="11.109000844065335"><ele>80.0</ele><time>2026-04-18T14:01:55Z</time></trkpt><trkpt lat="45.45372830202704" lon="11.109020976299538"><ele>80.0</ele><time>2026-04-18T14:01:56Z</time></trkpt><trkpt lat="45.4536419939674" lon="11.109014236248589"><ele>79.0</ele><time>2026-04-18T14:01:57Z</time></trkpt><trkpt lat="45.453551772645056" lon="11.10898885853427"><ele>78.0</ele><time>2026-04-18T14:01:58Z</time></trkpt><trkpt lat="45.45346251856239" lon="11.108956704220441"><ele>77.0</ele><time>2026-04-18T14:01:59Z</time></trkpt><trkpt lat="45.45336867142405" lon="11.108911832798064"><ele>76.0</ele><time>2026-04-18T14:02:00Z</time></trkpt><trkpt lat="45.45328836348765" lon="11.108862344305317"><ele>75.0</ele><time>2026-04-18T14:02:01Z</time></trkpt><trkpt lat="45.45321807456719" lon="11.10880878648597"><ele>75.0</ele><time>2026-04-18T14:02:02Z</time></trkpt><trkpt lat="45.45311435812442" lon="11.108744681828457"><ele>75.0</ele><time>2026-04-18T14:02:04Z</time></trkpt><trkpt lat="45.452997320204766" lon="11.108735313171774"><ele>75.0</ele><time>2026-04-18T14:02:06Z</time></trkpt><trkpt lat="45.452907058150515" lon="11.10871860377862"><ele>75.0</ele><time>2026-04-18T14:02:07Z</time></trkpt><trkpt lat="45.452809173615556" lon="11.108682376200866"><ele>75.0</ele><time>2026-04-18T14:02:08Z</time></trkpt><trkpt lat="45.452695596387464" lon="11.108655518980536"><ele>74.75</ele><time>2026-04-18T14:02:09Z</time></trkpt><trkpt lat="45.452580724219494" lon="11.108620675513615"><ele>74.5</ele><time>2026-04-18T14:02:10Z</time></trkpt><trkpt lat="45.4524554834007" lon="11.108574884476475"><ele>74.25</ele><time>2026-04-18T14:02:11Z</time></trkpt><trkpt lat="45.45231827506154" lon="11.108527771830975"><ele>74.0</ele><time>2026-04-18T14:02:12Z</time></trkpt><trkpt lat="45.45216907289725" lon="11.108484443421696"><ele>73.25</ele><time>2026-04-18T14:02:13Z</time></trkpt><trkpt lat="45.45201452516874" lon="11.108445454198534"><ele>72.5</ele><time>2026-04-18T14:02:14Z</time></trkpt><trkpt lat="45.451878769771916" lon="11.108418835969657"><ele>71.75</ele><time>2026-04-18T14:02:15Z</time></trkpt><trkpt lat="45.45173742164201" lon="11.108391215453969"><ele>71.0</ele><time>2026-04-18T14:02:16Z</time></trkpt><trkpt lat="45.45158986204619" lon="11.108369025869848"><ele>71.0</ele><time>2026-04-18T14:02:17Z</time></trkpt><trkpt lat="45.451438684944776" lon="11.10835594209315"><ele>71.0</ele><time>2026-04-18T14:02:18Z</time></trkpt><trkpt lat="45.45129428399788" lon="11.108348221615445"><ele>71.0</ele><time>2026-04-18T14:02:19Z</time></trkpt><trkpt lat="45.45114709828212" lon="11.108326446763257"><ele>71.0</ele><time>2026-04-18T14:02:20Z</time></trkpt><trkpt lat="45.451000214952906" lon="11.108309117374633"><ele>70.66666666666667</ele><time>2026-04-18T14:02:21Z</time></trkpt><trkpt lat="45.45084341485639" lon="11.108291898483955"><ele>70.33333333333333</ele><time>2026-04-18T14:02:22Z</time></trkpt><trkpt lat="45.450696665640535" lon="11.10826663522629"><ele>70.0</ele><time>2026-04-18T14:02:23Z</time></trkpt><trkpt lat="45.45054863271267" lon="11.108249626079399"><ele>69.0</ele><time>2026-04-18T14:02:24Z</time></trkpt><trkpt lat="45.45040436658278" lon="11.108230640261864"><ele>68.0</ele><time>2026-04-18T14:02:25Z</time></trkpt><trkpt lat="45.45026116793048" lon="11.108222636431679"><ele>67.0</ele><time>2026-04-18T14:02:26Z</time></trkpt><trkpt lat="45.4501094447078" lon="11.108210034506474"><ele>66.0</ele><time>2026-04-18T14:02:27Z</time></trkpt><trkpt lat="45.44995282150096" lon="11.108188307455382"><ele>66.0</ele><time>2026-04-18T14:02:28Z</time></trkpt><trkpt lat="45.449816614891276" lon="11.108165550881155"><ele>66.0</ele><time>2026-04-18T14:02:29Z</time></trkpt><trkpt lat="45.449690732660734" lon="11.108150967073021"><ele>66.0</ele><time>2026-04-18T14:02:30Z</time></trkpt><trkpt lat="45.44956847518616" lon="11.10814418095644"><ele>66.0</ele><time>2026-04-18T14:02:31Z</time></trkpt><trkpt lat="45.44945303561936" lon="11.108137085245687"><ele>66.2</ele><time>2026-04-18T14:02:32Z</time></trkpt><trkpt lat="45.44932649411072" lon="11.108139634240246"><ele>66.39999999999999</ele><time>2026-04-18T14:02:33Z</time></trkpt><trkpt lat="45.449208279488964" lon="11.108137623422765"><ele>66.6</ele><time>2026-04-18T14:02:34Z</time></trkpt><trkpt lat="45.44910642000229" lon="11.108134371037606"><ele>66.8</ele><time>2026-04-18T14:02:35Z</time></trkpt><trkpt lat="45.44901368052576" lon="11.108140896657375"><ele>67.0</ele><time>2026-04-18T14:02:36Z</time></trkpt><trkpt lat="45.44892860534969" lon="11.108167360306002"><ele>67.0</ele><time>2026-04-18T14:02:37Z</time></trkpt><trkpt lat="45.44884338946126" lon="11.108213254139635"><ele>67.0</ele><time>2026-04-18T14:02:39Z</time></trkpt><trkpt lat="45.44875349184743" lon="11.108198199424525"><ele>67.0</ele><time>2026-04-18T14:02:42Z</time></trkpt><trkpt lat="45.4486477878874" lon="11.108181469702192"><ele>67.0</ele><time>2026-04-18T14:02:44Z</time></trkpt><trkpt lat="45.44855202757919" lon="11.108167756886331"><ele>67.0</ele><time>2026-04-18T14:02:45Z</time></trkpt><trkpt lat="45.448437800940006" lon="11.108146102404977"><ele>66.0</ele><time>2026-04-18T14:02:46Z</time></trkpt><trkpt lat="45.44832933181029" lon="11.108126680095488"><ele>65.0</ele><time>2026-04-18T14:02:47Z</time></trkpt><trkpt lat="45.448204761963424" lon="11.108101520445198"><ele>64.0</ele><time>2026-04-18T14:02:48Z</time></trkpt><trkpt lat="45.44808314413781" lon="11.108073994495168"><ele>63.0</ele><time>2026-04-18T14:02:49Z</time></trkpt><trkpt lat="45.447957969247426" lon="11.10802708145014"><ele>62.25</ele><time>2026-04-18T14:02:50Z</time></trkpt><trkpt lat="45.447829366766086" lon="11.107990800855038"><ele>61.5</ele><time>2026-04-18T14:02:51Z</time></trkpt><trkpt lat="45.44770041266504" lon="11.10794737323093"><ele>60.75</ele><time>2026-04-18T14:02:52Z</time></trkpt><trkpt lat="45.44755875141573" lon="11.107909257277266"><ele>60.0</ele><time>2026-04-18T14:02:53Z</time></trkpt><trkpt lat="45.447436383849336" lon="11.107865204876164"><ele>60.0</ele><time>2026-04-18T14:02:54Z</time></trkpt><trkpt lat="45.44730855113902" lon="11.107836939490426"><ele>60.0</ele><time>2026-04-18T14:02:55Z</time></trkpt><trkpt lat="45.44718410905021" lon="11.107802373656176"><ele>60.0</ele><time>2026-04-18T14:02:56Z</time></trkpt><trkpt lat="45.447074688899654" lon="11.107759962987316"><ele>60.0</ele><time>2026-04-18T14:02:57Z</time></trkpt><trkpt lat="45.44697542323296" lon="11.107733141816565"><ele>59.5</ele><time>2026-04-18T14:02:58Z</time></trkpt><trkpt lat="45.44688302166858" lon="11.107714324261039"><ele>59.0</ele><time>2026-04-18T14:02:59Z</time></trkpt><trkpt lat="45.44679922515761" lon="11.10769013945933"><ele>58.5</ele><time>2026-04-18T14:03:00Z</time></trkpt><trkpt lat="45.44672553114447" lon="11.107670325256455"><ele>58.0</ele><time>2026-04-18T14:03:01Z</time></trkpt><trkpt lat="45.44664978720612" lon="11.107647675572775"><ele>57.5</ele><time>2026-04-18T14:03:02Z</time></trkpt><trkpt lat="45.44657652951566" lon="11.107626371854474"><ele>57.0</ele><time>2026-04-18T14:03:03Z</time></trkpt><trkpt lat="45.446497272829504" lon="11.107609355799987"><ele>57.0</ele><time>2026-04-18T14:03:04Z</time></trkpt><trkpt lat="45.44641407105875" lon="11.107581552589668"><ele>57.0</ele><time>2026-04-18T14:03:05Z</time></trkpt><trkpt lat="45.44633137225493" lon="11.10756095230019"><ele>57.0</ele><time>2026-04-18T14:03:06Z</time></trkpt><trkpt lat="45.446242258513514" lon="11.107530018009333"><ele>57.0</ele><time>2026-04-18T14:03:07Z</time></trkpt><trkpt lat="45.44616502582947" lon="11.107516708956819"><ele>57.0</ele><time>2026-04-18T14:03:08Z</time></trkpt><trkpt lat="45.446096683931806" lon="11.107503171499307"><ele>57.0</ele><time>2026-04-18T14:03:09Z</time></trkpt><trkpt lat="45.44599981286165" lon="11.10751839441653"><ele>57.0</ele><time>2026-04-18T14:03:11Z</time></trkpt><trkpt lat="45.445950070690955" lon="11.107643216884854"><ele>57.0</ele><time>2026-04-18T14:03:13Z</time></trkpt><trkpt lat="45.44593711372539" lon="11.107805095477941"><ele>57.0</ele><time>2026-04-18T14:03:15Z</time></trkpt><trkpt lat="45.44592617975085" lon="11.107897872480763"><ele>57.0</ele><time>2026-04-18T14:03:16Z</time></trkpt><trkpt lat="45.44591117001849" lon="11.107985149113668"><ele>57.0</ele><time>2026-04-18T14:03:17Z</time></trkpt><trkpt lat="45.44588254063682" lon="11.108134440793462"><ele>57.0</ele><time>2026-04-18T14:03:19Z</time></trkpt><trkpt lat="45.445837428209316" lon="11.108225997040103"><ele>57.0</ele><time>2026-04-18T14:03:21Z</time></trkpt><trkpt lat="45.44579767934564" lon="11.108342621012051"><ele>57.0</ele><time>2026-04-18T14:03:23Z</time></trkpt><trkpt lat="45.44574467085039" lon="11.108484684495004"><ele>57.0</ele><time>2026-04-18T14:03:25Z</time></trkpt><trkpt lat="45.44565954510077" lon="11.108574392094171"><ele>57.0</ele><time>2026-04-18T14:03:27Z</time></trkpt><trkpt lat="45.445559409314875" lon="11.108595778941842"><ele>56.6</ele><time>2026-04-18T14:03:29Z</time></trkpt><trkpt lat="45.445460150036794" lon="11.108610782536541"><ele>56.2</ele><time>2026-04-18T14:03:31Z</time></trkpt><trkpt lat="45.445373284162926" lon="11.108619397878591"><ele>55.8</ele><time>2026-04-18T14:03:33Z</time></trkpt><trkpt lat="45.44523994136084" lon="11.10864869081948"><ele>55.4</ele><time>2026-04-18T14:03:35Z</time></trkpt><trkpt lat="45.445142643145076" lon="11.108683373750509"><ele>55.0</ele><time>2026-04-18T14:03:36Z</time></trkpt><trkpt lat="45.44503377343169" lon="11.108740821695006"><ele>55.0</ele><time>2026-04-18T14:03:37Z</time></trkpt><trkpt lat="45.444919213943045" lon="11.108804073254642"><ele>55.0</ele><time>2026-04-18T14:03:38Z</time></trkpt><trkpt lat="45.444795060877986" lon="11.108848825198255"><ele>55.0</ele><time>2026-04-18T14:03:39Z</time></trkpt><trkpt lat="45.44467100079035" lon="11.108877235094937"><ele>55.0</ele><time>2026-04-18T14:03:40Z</time></trkpt><trkpt lat="45.44456050879587" lon="11.108897341229536"><ele>54.99999999999999</ele><time>2026-04-18T14:03:41Z</time></trkpt><trkpt lat="45.444461159173414" lon="11.108910209781202"><ele>55.0</ele><time>2026-04-18T14:03:42Z</time></trkpt><trkpt lat="45.44438005922693" lon="11.108922598570269"><ele>55.0</ele><time>2026-04-18T14:03:43Z</time></trkpt><trkpt lat="45.44429752361705" lon="11.108935493258363"><ele>55.0</ele><time>2026-04-18T14:03:44Z</time></trkpt><trkpt lat="45.44423361566859" lon="11.108954505353914"><ele>54.99999999999999</ele><time>2026-04-18T14:03:45Z</time></trkpt><trkpt lat="45.4441644028092" lon="11.109091793237699"><ele>55.0</ele><time>2026-04-18T14:03:48Z</time></trkpt><trkpt lat="45.444099218411765" lon="11.109139411389416"><ele>56.4</ele><time>2026-04-18T14:03:49Z</time></trkpt><trkpt lat="45.443991610953056" lon="11.109200716925953"><ele>57.8</ele><time>2026-04-18T14:03:50Z</time></trkpt><trkpt lat="45.44392312363328" lon="11.10922230210458"><ele>59.2</ele><time>2026-04-18T14:03:51Z</time></trkpt><trkpt lat="45.443789630671034" lon="11.10924713712858"><ele>60.6</ele><time>2026-04-18T14:03:53Z</time></trkpt><trkpt lat="45.44370224406191" lon="11.109282683467875"><ele>62.0</ele><time>2026-04-18T14:03:54Z</time></trkpt><trkpt lat="45.44361331434927" lon="11.109297059126774"><ele>62.0</ele><time>2026-04-18T14:03:55Z</time></trkpt><trkpt lat="45.44351957124782" lon="11.109348529410202"><ele>62.0</ele><time>2026-04-18T14:03:56Z</time></trkpt><trkpt lat="45.443429759150995" lon="11.109377848489736"><ele>62.0</ele><time>2026-04-18T14:03:57Z</time></trkpt><trkpt lat="45.44332591256319" lon="11.109458186322744"><ele>62.0</ele><time>2026-04-18T14:03:58Z</time></trkpt><trkpt lat="45.44324379848921" lon="11.109552112683978"><ele>62.0</ele><time>2026-04-18T14:03:59Z</time></trkpt><trkpt lat="45.44314988460701" lon="11.109647341837645"><ele>62.0</ele><time>2026-04-18T14:04:00Z</time></trkpt><trkpt lat="45.443053666529494" lon="11.10973378886586"><ele>62.0</ele><time>2026-04-18T14:04:01Z</time></trkpt><trkpt lat="45.44294563162245" lon="11.109841145681937"><ele>62.0</ele><time>2026-04-18T14:04:02Z</time></trkpt><trkpt lat="45.442842508234925" lon="11.109959164454567"><ele>62.0</ele><time>2026-04-18T14:04:03Z</time></trkpt><trkpt lat="45.44273222020735" lon="11.11008498224589"><ele>62.5</ele><time>2026-04-18T14:04:04Z</time></trkpt><trkpt lat="45.44264093745969" lon="11.110192007134245"><ele>63.0</ele><time>2026-04-18T14:04:05Z</time></trkpt><trkpt lat="45.44254285971739" lon="11.11030444316464"><ele>63.5</ele><time>2026-04-18T14:04:06Z</time></trkpt><trkpt lat="45.442420936099374" lon="11.110421760093843"><ele>64.0</ele><time>2026-04-18T14:04:07Z</time></trkpt><trkpt lat="45.442306684155035" lon="11.110505086698131"><ele>64.0</ele><time>2026-04-18T14:04:08Z</time></trkpt><trkpt lat="45.442193863737835" lon="11.11059422209484"><ele>64.0</ele><time>2026-04-18T14:04:09Z</time></trkpt><trkpt lat="45.442084456930544" lon="11.110704757396505"><ele>64.0</ele><time>2026-04-18T14:04:10Z</time></trkpt><trkpt lat="45.44200220922042" lon="11.110809941663934"><ele>64.0</ele><time>2026-04-18T14:04:11Z</time></trkpt><trkpt lat="45.441930480922544" lon="11.110912977416982"><ele>63.400000000000006</ele><time>2026-04-18T14:04:12Z</time></trkpt><trkpt lat="45.4418746629691" lon="11.111017340072019"><ele>62.800000000000004</ele><time>2026-04-18T14:04:13Z</time></trkpt><trkpt lat="45.4418055177727" lon="11.111144117558311"><ele>62.199999999999996</ele><time>2026-04-18T14:04:14Z</time></trkpt><trkpt lat="45.441739868583525" lon="11.11126128001303"><ele>61.599999999999994</ele><time>2026-04-18T14:04:15Z</time></trkpt><trkpt lat="45.4416728740067" lon="11.111386207186166"><ele>61.0</ele><time>2026-04-18T14:04:16Z</time></trkpt><trkpt lat="45.44161057282954" lon="11.111481434632399"><ele>59.75</ele><time>2026-04-18T14:04:17Z</time></trkpt><trkpt lat="45.4415306905467" lon="11.111588347693923"><ele>58.5</ele><time>2026-04-18T14:04:18Z</time></trkpt><trkpt lat="45.441427654191386" lon="11.111700630649382"><ele>57.25</ele><time>2026-04-18T14:04:19Z</time></trkpt><trkpt lat="45.44134973531945" lon="11.111789064728043"><ele>56.0</ele><time>2026-04-18T14:04:20Z</time></trkpt><trkpt lat="45.44125601020206" lon="11.111879165810452"><ele>56.0</ele><time>2026-04-18T14:04:21Z</time></trkpt><trkpt lat="45.44118234297582" lon="11.111982416459544"><ele>56.0</ele><time>2026-04-18T14:04:22Z</time></trkpt><trkpt lat="45.4411000424808" lon="11.112115366698049"><ele>56.0</ele><time>2026-04-18T14:04:23Z</time></trkpt><trkpt lat="45.44103097519862" lon="11.112251484269235"><ele>56.0</ele><time>2026-04-18T14:04:24Z</time></trkpt><trkpt lat="45.44095077994888" lon="11.11240754553841"><ele>58.5</ele><time>2026-04-18T14:04:25Z</time></trkpt><trkpt lat="45.44088779442943" lon="11.112536343206706"><ele>61.0</ele><time>2026-04-18T14:04:26Z</time></trkpt><trkpt lat="45.44082405779975" lon="11.112690563680655"><ele>63.5</ele><time>2026-04-18T14:04:27Z</time></trkpt><trkpt lat="45.44075437689974" lon="11.112839539267227"><ele>66.0</ele><time>2026-04-18T14:04:28Z</time></trkpt><trkpt lat="45.440701893827516" lon="11.112957867248433"><ele>66.0</ele><time>2026-04-18T14:04:29Z</time></trkpt><trkpt lat="45.440610237848" lon="11.113097432703801"><ele>66.0</ele><time>2026-04-18T14:04:30Z</time></trkpt><trkpt lat="45.44053179430034" lon="11.113181931463997"><ele>66.0</ele><time>2026-04-18T14:04:31Z</time></trkpt><trkpt lat="45.44044219876085" lon="11.113303848641745"><ele>66.0</ele><time>2026-04-18T14:04:32Z</time></trkpt><trkpt lat="45.44034951460008" lon="11.113400322374725"><ele>64.5</ele><time>2026-04-18T14:04:33Z</time></trkpt><trkpt lat="45.44024211641355" lon="11.11350437171702"><ele>63.0</ele><time>2026-04-18T14:04:34Z</time></trkpt><trkpt lat="45.44013502784188" lon="11.113577908243466"><ele>61.5</ele><time>2026-04-18T14:04:35Z</time></trkpt><trkpt lat="45.44006206381214" lon="11.113658170723394"><ele>60.0</ele><time>2026-04-18T14:04:36Z</time></trkpt><trkpt lat="45.439976952020025" lon="11.113771568247003"><ele>60.0</ele><time>2026-04-18T14:04:37Z</time></trkpt><trkpt lat="45.43991760185036" lon="11.113852992637597"><ele>60.0</ele><time>2026-04-18T14:04:38Z</time></trkpt><trkpt lat="45.43984621169367" lon="11.113906824974148"><ele>60.0</ele><time>2026-04-18T14:04:39Z</time></trkpt><trkpt lat="45.4397637260447" lon="11.113953411636347"><ele>60.0</ele><time>2026-04-18T14:04:40Z</time></trkpt><trkpt lat="45.439664458905554" lon="11.11398536522247"><ele>60.0</ele><time>2026-04-18T14:04:41Z</time></trkpt><trkpt lat="45.439556774898264" lon="11.114020841100587"><ele>61.0</ele><time>2026-04-18T14:04:42Z</time></trkpt><trkpt lat="45.43943435912725" lon="11.114033692485497"><ele>62.0</ele><time>2026-04-18T14:04:43Z</time></trkpt><trkpt lat="45.43931828762674" lon="11.114060861726784"><ele>63.0</ele><time>2026-04-18T14:04:44Z</time></trkpt><trkpt lat="45.43921051739276" lon="11.114082013182054"><ele>64.0</ele><time>2026-04-18T14:04:45Z</time></trkpt><trkpt lat="45.4391098814517" lon="11.114111827373968"><ele>63.99999999999999</ele><time>2026-04-18T14:04:46Z</time></trkpt><trkpt lat="45.43902543985312" lon="11.11413771682194"><ele>64.0</ele><time>2026-04-18T14:04:47Z</time></trkpt><trkpt lat="45.43895483427852" lon="11.114156772886648"><ele>64.0</ele><time>2026-04-18T14:04:48Z</time></trkpt><trkpt lat="45.438860568736075" lon="11.114148484632912"><ele>64.0</ele><time>2026-04-18T14:04:50Z</time></trkpt><trkpt lat="45.438818495194475" lon="11.11404419571043"><ele>63.99999999999999</ele><time>2026-04-18T14:04:52Z</time></trkpt><trkpt lat="45.438776029970846" lon="11.1139743094479"><ele>64.0</ele><time>2026-04-18T14:04:54Z</time></trkpt><trkpt lat="45.438678031476165" lon="11.113954951118197"><ele>62.800000000000004</ele><time>2026-04-18T14:04:56Z</time></trkpt><trkpt lat="45.4386082970479" lon="11.11396085271772"><ele>61.60000000000001</ele><time>2026-04-18T14:04:57Z</time></trkpt><trkpt lat="45.438536272378144" lon="11.11397369961988"><ele>60.4</ele><time>2026-04-18T14:04:59Z</time></trkpt><trkpt lat="45.438433938582136" lon="11.11405105191489"><ele>59.2</ele><time>2026-04-18T14:05:57Z</time></trkpt><trkpt lat="45.438350755232804" lon="11.114071075572978"><ele>58.0</ele><time>2026-04-18T14:05:58Z</time></trkpt><trkpt lat="45.43824037792826" lon="11.114102864161193"><ele>58.0</ele><time>2026-04-18T14:05:59Z</time></trkpt><trkpt lat="45.43810535249531" lon="11.11410018217153"><ele>58.0</ele><time>2026-04-18T14:06:00Z</time></trkpt><trkpt lat="45.43796013032307" lon="11.114143999203105"><ele>58.0</ele><time>2026-04-18T14:06:01Z</time></trkpt><trkpt lat="45.43781203796035" lon="11.11418868224081"><ele>58.0</ele><time>2026-04-18T14:06:02Z</time></trkpt><trkpt lat="45.43767480117958" lon="11.114229785665632"><ele>55.33333333333333</ele><time>2026-04-18T14:06:03Z</time></trkpt><trkpt lat="45.437535248893056" lon="11.114270835223877"><ele>52.66666666666667</ele><time>2026-04-18T14:06:04Z</time></trkpt><trkpt lat="45.43738424156087" lon="11.114311355519538"><ele>50.0</ele><time>2026-04-18T14:06:05Z</time></trkpt><trkpt lat="45.43722679906021" lon="11.11435292976579"><ele>49.0</ele><time>2026-04-18T14:06:06Z</time></trkpt><trkpt lat="45.43707232675335" lon="11.11439324831657"><ele>48.0</ele><time>2026-04-18T14:06:07Z</time></trkpt><trkpt lat="45.4369092735163" lon="11.114438877746336"><ele>47.0</ele><time>2026-04-18T14:06:08Z</time></trkpt><trkpt lat="45.43674551818989" lon="11.11448593447284"><ele>47.0</ele><time>2026-04-18T14:06:09Z</time></trkpt><trkpt lat="45.43659646005719" lon="11.11452763602026"><ele>47.0</ele><time>2026-04-18T14:06:10Z</time></trkpt><trkpt lat="45.43644315194127" lon="11.114569732468532"><ele>47.0</ele><time>2026-04-18T14:06:11Z</time></trkpt><trkpt lat="45.43629363496877" lon="11.114609932258414"><ele>46.25</ele><time>2026-04-18T14:06:12Z</time></trkpt><trkpt lat="45.436143195579945" lon="11.114650201432555"><ele>45.5</ele><time>2026-04-18T14:06:13Z</time></trkpt><trkpt lat="45.435997592306784" lon="11.114690285665732"><ele>44.75</ele><time>2026-04-18T14:06:14Z</time></trkpt><trkpt lat="45.435855052494716" lon="11.114729526537529"><ele>44.0</ele><time>2026-04-18T14:06:15Z</time></trkpt><trkpt lat="45.43570433711318" lon="11.114769864378104"><ele>44.0</ele><time>2026-04-18T14:06:16Z</time></trkpt><trkpt lat="45.435555634382304" lon="11.114809309385455"><ele>44.0</ele><time>2026-04-18T14:06:17Z</time></trkpt><trkpt lat="45.435400992362695" lon="11.114850329854306"><ele>44.0</ele><time>2026-04-18T14:06:18Z</time></trkpt><trkpt lat="45.43525088768342" lon="11.114890146744301"><ele>43.33333333333333</ele><time>2026-04-18T14:06:19Z</time></trkpt><trkpt lat="45.43510458550515" lon="11.11492895498039"><ele>42.666666666666664</ele><time>2026-04-18T14:06:20Z</time></trkpt><trkpt lat="45.43495227525617" lon="11.114969356921542"><ele>42.0</ele><time>2026-04-18T14:06:21Z</time></trkpt><trkpt lat="45.43480358678417" lon="11.1150090424885"><ele>42.0</ele><time>2026-04-18T14:06:22Z</time></trkpt><trkpt lat="45.43465511731346" lon="11.115049900154478"><ele>42.0</ele><time>2026-04-18T14:06:23Z</time></trkpt><trkpt lat="45.434498955213805" lon="11.115092247572234"><ele>42.0</ele><time>2026-04-18T14:06:24Z</time></trkpt><trkpt lat="45.43434006488322" lon="11.115134206184017"><ele>41.666666666666664</ele><time>2026-04-18T14:06:25Z</time></trkpt><trkpt lat="45.43417412864441" lon="11.115178023317554"><ele>41.33333333333333</ele><time>2026-04-18T14:06:26Z</time></trkpt><trkpt lat="45.43401588594857" lon="11.115219808894024"><ele>41.0</ele><time>2026-04-18T14:06:27Z</time></trkpt><trkpt lat="45.433853178974026" lon="11.115262773307546"><ele>40.666666666666664</ele><time>2026-04-18T14:06:28Z</time></trkpt><trkpt lat="45.43368915878913" lon="11.115307535840195"><ele>40.333333333333336</ele><time>2026-04-18T14:06:29Z</time></trkpt><trkpt lat="45.433526004553904" lon="11.115352096029639"><ele>40.0</ele><time>2026-04-18T14:06:30Z</time></trkpt><trkpt lat="45.43336552167411" lon="11.115395926626663"><ele>40.0</ele><time>2026-04-18T14:06:31Z</time></trkpt><trkpt lat="45.433203000176746" lon="11.115440314003477"><ele>40.0</ele><time>2026-04-18T14:06:32Z</time></trkpt><trkpt lat="45.43305073040988" lon="11.115481901458864"><ele>40.0</ele><time>2026-04-18T14:06:33Z</time></trkpt><trkpt lat="45.43290129667282" lon="11.115522714348218"><ele>39.66666666666667</ele><time>2026-04-18T14:06:34Z</time></trkpt><trkpt lat="45.43275243152285" lon="11.11556337194537"><ele>39.333333333333336</ele><time>2026-04-18T14:06:35Z</time></trkpt><trkpt lat="45.43260264200792" lon="11.115604282002552"><ele>39.0</ele><time>2026-04-18T14:06:36Z</time></trkpt><trkpt lat="45.43245440876286" lon="11.115645233627479"><ele>39.0</ele><time>2026-04-18T14:06:37Z</time></trkpt><trkpt lat="45.43230483214676" lon="11.115686874004787"><ele>39.0</ele><time>2026-04-18T14:06:38Z</time></trkpt><trkpt lat="45.432149428882624" lon="11.115731333946465"><ele>39.0</ele><time>2026-04-18T14:06:39Z</time></trkpt><trkpt lat="45.43199519886754" lon="11.11577552000402"><ele>40.333333333333336</ele><time>2026-04-18T14:06:40Z</time></trkpt><trkpt lat="45.43184021623553" lon="11.11581928067168"><ele>41.66666666666667</ele><time>2026-04-18T14:06:41Z</time></trkpt><trkpt lat="45.43168083151178" lon="11.115863057052838"><ele>43.0</ele><time>2026-04-18T14:06:42Z</time></trkpt><trkpt lat="45.43151651485161" lon="11.115907990938101"><ele>43.0</ele><time>2026-04-18T14:06:43Z</time></trkpt><trkpt lat="45.43135867660941" lon="11.115950440204983"><ele>43.0</ele><time>2026-04-18T14:06:44Z</time></trkpt><trkpt lat="45.43119200667459" lon="11.115995264680867"><ele>43.0</ele><time>2026-04-18T14:06:45Z</time></trkpt><trkpt lat="45.43102920275261" lon="11.11603867946816"><ele>42.333333333333336</ele><time>2026-04-18T14:06:46Z</time></trkpt><trkpt lat="45.430862588276156" lon="11.116079521665636"><ele>41.666666666666664</ele><time>2026-04-18T14:06:47Z</time></trkpt><trkpt lat="45.43069675664224" lon="11.1161179311994"><ele>41.0</ele><time>2026-04-18T14:06:48Z</time></trkpt><trkpt lat="45.43053148759075" lon="11.116159287986395"><ele>41.0</ele><time>2026-04-18T14:06:49Z</time></trkpt><trkpt lat="45.43036771101821" lon="11.116206315177"><ele>41.0</ele><time>2026-04-18T14:06:50Z</time></trkpt><trkpt lat="45.43021126063998" lon="11.11625329476885"><ele>41.0</ele><time>2026-04-18T14:06:51Z</time></trkpt><trkpt lat="45.43004201446323" lon="11.116301962434738"><ele>41.0</ele><time>2026-04-18T14:06:52Z</time></trkpt><trkpt lat="45.42988482966357" lon="11.116346412626559"><ele>41.0</ele><time>2026-04-18T14:06:53Z</time></trkpt><trkpt lat="45.429717078512894" lon="11.116393852801767"><ele>41.0</ele><time>2026-04-18T14:06:54Z</time></trkpt><trkpt lat="45.42955767122999" lon="11.116437961117674"><ele>41.33333333333333</ele><time>2026-04-18T14:06:55Z</time></trkpt><trkpt lat="45.429397101926604" lon="11.116481547457237"><ele>41.666666666666664</ele><time>2026-04-18T14:06:56Z</time></trkpt><trkpt lat="45.429232977852" lon="11.116524816198039"><ele>42.0</ele><time>2026-04-18T14:06:57Z</time></trkpt><trkpt lat="45.429070757107645" lon="11.116570521894362"><ele>42.333333333333336</ele><time>2026-04-18T14:06:58Z</time></trkpt><trkpt lat="45.428908503801686" lon="11.116616236766074"><ele>42.66666666666667</ele><time>2026-04-18T14:06:59Z</time></trkpt><trkpt lat="45.42874710348189" lon="11.116660053622608"><ele>43.0</ele><time>2026-04-18T14:07:00Z</time></trkpt><trkpt lat="45.42858148715093" lon="11.116704866274826"><ele>43.0</ele><time>2026-04-18T14:07:01Z</time></trkpt><trkpt lat="45.428420162899364" lon="11.116748517568722"><ele>43.0</ele><time>2026-04-18T14:07:02Z</time></trkpt><trkpt lat="45.42825276056249" lon="11.116793813480916"><ele>43.0</ele><time>2026-04-18T14:07:03Z</time></trkpt><trkpt lat="45.42809153411378" lon="11.116837438310053"><ele>43.0</ele><time>2026-04-18T14:07:04Z</time></trkpt><trkpt lat="45.42792555137726" lon="11.116882350102651"><ele>43.0</ele><time>2026-04-18T14:07:05Z</time></trkpt><trkpt lat="45.427756892328205" lon="11.116931004797337"><ele>43.0</ele><time>2026-04-18T14:07:06Z</time></trkpt><trkpt lat="45.42759413238739" lon="11.116978378353327"><ele>43.0</ele><time>2026-04-18T14:07:07Z</time></trkpt><trkpt lat="45.42742209234786" lon="11.117028453011395"><ele>43.0</ele><time>2026-04-18T14:07:08Z</time></trkpt><trkpt lat="45.42725561661592" lon="11.117076493185897"><ele>43.0</ele><time>2026-04-18T14:07:09Z</time></trkpt><trkpt lat="45.42708728923557" lon="11.117122844520784"><ele>42.66666666666667</ele><time>2026-04-18T14:07:10Z</time></trkpt><trkpt lat="45.42692408011476" lon="11.117167786473598"><ele>42.333333333333336</ele><time>2026-04-18T14:07:11Z</time></trkpt><trkpt lat="45.42675383609739" lon="11.117214665588973"><ele>42.0</ele><time>2026-04-18T14:07:12Z</time></trkpt><trkpt lat="45.42658575532982" lon="11.117260949024253"><ele>42.0</ele><time>2026-04-18T14:07:13Z</time></trkpt><trkpt lat="45.42641973678389" lon="11.117305860749047"><ele>42.0</ele><time>2026-04-18T14:07:14Z</time></trkpt><trkpt lat="45.426264915242854" lon="11.117347334681856"><ele>42.0</ele><time>2026-04-18T14:07:15Z</time></trkpt><trkpt lat="45.42609980279101" lon="11.117390043961434"><ele>42.0</ele><time>2026-04-18T14:07:16Z</time></trkpt><trkpt lat="45.42593973196357" lon="11.117431212339042"><ele>42.0</ele><time>2026-04-18T14:07:17Z</time></trkpt><trkpt lat="45.42577701665842" lon="11.117473060843924"><ele>42.0</ele><time>2026-04-18T14:07:18Z</time></trkpt><trkpt lat="45.42561709095469" lon="11.117516667439421"><ele>42.333333333333336</ele><time>2026-04-18T14:07:19Z</time></trkpt><trkpt lat="45.42544976039853" lon="11.117563039960611"><ele>42.66666666666667</ele><time>2026-04-18T14:07:20Z</time></trkpt><trkpt lat="45.42529011276667" lon="11.117607283338982"><ele>43.0</ele><time>2026-04-18T14:07:21Z</time></trkpt><trkpt lat="45.42512576344421" lon="11.11765282968579"><ele>43.0</ele><time>2026-04-18T14:07:22Z</time></trkpt><trkpt lat="45.424963126103094" lon="11.11769790158104"><ele>43.0</ele><time>2026-04-18T14:07:23Z</time></trkpt><trkpt lat="45.42480545614985" lon="11.11774159886428"><ele>43.0</ele><time>2026-04-18T14:07:24Z</time></trkpt><trkpt lat="45.424661531262274" lon="11.117781484973372"><ele>43.0</ele><time>2026-04-18T14:07:25Z</time></trkpt><trkpt lat="45.42453212902514" lon="11.117817346377926"><ele>43.0</ele><time>2026-04-18T14:07:26Z</time></trkpt><trkpt lat="45.424415730787565" lon="11.117850348527009"><ele>43.0</ele><time>2026-04-18T14:07:27Z</time></trkpt><trkpt lat="45.42432458592509" lon="11.117901619158896"><ele>43.0</ele><time>2026-04-18T14:07:28Z</time></trkpt><trkpt lat="45.42424346074054" lon="11.117924606812778"><ele>43.0</ele><time>2026-04-18T14:07:29Z</time></trkpt><trkpt lat="45.42417834732995" lon="11.117940918326825"><ele>43.0</ele><time>2026-04-18T14:07:30Z</time></trkpt><trkpt lat="45.424094179662966" lon="11.117972340937616"><ele>43.0</ele><time>2026-04-18T14:07:32Z</time></trkpt><trkpt lat="45.424096204811285" lon="11.11816513412199"><ele>43.0</ele><time>2026-04-18T14:07:34Z</time></trkpt><trkpt lat="45.42410782269404" lon="11.118284876495034"><ele>43.0</ele><time>2026-04-18T14:07:35Z</time></trkpt><trkpt lat="45.42412212009308" lon="11.118417394780023"><ele>43.0</ele><time>2026-04-18T14:07:36Z</time></trkpt><trkpt lat="45.42412245817205" lon="11.118576552779512"><ele>44.0</ele><time>2026-04-18T14:07:37Z</time></trkpt><trkpt lat="45.424201934561076" lon="11.118728842652644"><ele>45.0</ele><time>2026-04-18T14:07:38Z</time></trkpt><trkpt lat="45.42431121874817" lon="11.118850718336539"><ele>46.0</ele><time>2026-04-18T14:07:39Z</time></trkpt><trkpt lat="45.424427373101274" lon="11.118955778615462"><ele>47.0</ele><time>2026-04-18T14:07:40Z</time></trkpt><trkpt lat="45.42455235600895" lon="11.119073698900085"><ele>49.25</ele><time>2026-04-18T14:07:41Z</time></trkpt><trkpt lat="45.42467428774873" lon="11.119194319740744"><ele>51.5</ele><time>2026-04-18T14:07:42Z</time></trkpt><trkpt lat="45.42476880817913" lon="11.119329599101553"><ele>53.75</ele><time>2026-04-18T14:07:43Z</time></trkpt><trkpt lat="45.42486341953911" lon="11.119481723861199"><ele>56.0</ele><time>2026-04-18T14:07:44Z</time></trkpt><trkpt lat="45.42496997552317" lon="11.119595889284408"><ele>56.0</ele><time>2026-04-18T14:07:45Z</time></trkpt><trkpt lat="45.42509546926652" lon="11.119660043062813"><ele>56.0</ele><time>2026-04-18T14:07:46Z</time></trkpt><trkpt lat="45.425224997714" lon="11.119712097345113"><ele>56.0</ele><time>2026-04-18T14:07:47Z</time></trkpt><trkpt lat="45.425344543056134" lon="11.119724471198124"><ele>56.0</ele><time>2026-04-18T14:07:48Z</time></trkpt><trkpt lat="45.42544305307766" lon="11.119762977045868"><ele>56.25</ele><time>2026-04-18T14:07:49Z</time></trkpt><trkpt lat="45.42555856882832" lon="11.11976102837083"><ele>56.5</ele><time>2026-04-18T14:07:50Z</time></trkpt><trkpt lat="45.42568063233932" lon="11.119758709889393"><ele>56.75</ele><time>2026-04-18T14:07:51Z</time></trkpt><trkpt lat="45.42581842355013" lon="11.119756476371"><ele>57.0</ele><time>2026-04-18T14:07:52Z</time></trkpt><trkpt lat="45.4259480709056" lon="11.119756476366689"><ele>57.0</ele><time>2026-04-18T14:07:53Z</time></trkpt><trkpt lat="45.42607679916293" lon="11.11978733002972"><ele>57.0</ele><time>2026-04-18T14:07:54Z</time></trkpt><trkpt lat="45.42620051340277" lon="11.119778582560599"><ele>57.0</ele><time>2026-04-18T14:07:55Z</time></trkpt><trkpt lat="45.426330942296204" lon="11.11981005808446"><ele>57.0</ele><time>2026-04-18T14:07:56Z</time></trkpt><trkpt lat="45.426455061685665" lon="11.1198586420121"><ele>60.0</ele><time>2026-04-18T14:07:57Z</time></trkpt><trkpt lat="45.42657286404454" lon="11.119910717386395"><ele>63.0</ele><time>2026-04-18T14:07:58Z</time></trkpt><trkpt lat="45.4266857055605" lon="11.119969493917454"><ele>66.0</ele><time>2026-04-18T14:07:59Z</time></trkpt><trkpt lat="45.426794359174" lon="11.120058144552429"><ele>69.0</ele><time>2026-04-18T14:08:00Z</time></trkpt><trkpt lat="45.42691020330768" lon="11.120129972960823"><ele>69.0</ele><time>2026-04-18T14:08:01Z</time></trkpt><trkpt lat="45.42704119812175" lon="11.120188550945649"><ele>69.0</ele><time>2026-04-18T14:08:02Z</time></trkpt><trkpt lat="45.42717088038434" lon="11.120262501439957"><ele>69.0</ele><time>2026-04-18T14:08:03Z</time></trkpt><trkpt lat="45.42730458077244" lon="11.120324617035234"><ele>69.0</ele><time>2026-04-18T14:08:04Z</time></trkpt><trkpt lat="45.42742177053257" lon="11.120363063620447"><ele>70.0</ele><time>2026-04-18T14:08:05Z</time></trkpt><trkpt lat="45.4275154659397" lon="11.120384368976113"><ele>71.0</ele><time>2026-04-18T14:08:06Z</time></trkpt><trkpt lat="45.427591358071986" lon="11.120396446579385"><ele>72.0</ele><time>2026-04-18T14:08:07Z</time></trkpt><trkpt lat="45.42765704705657" lon="11.120406391520165"><ele>73.0</ele><time>2026-04-18T14:08:08Z</time></trkpt><trkpt lat="45.42775312977677" lon="11.120421701744643"><ele>74.0</ele><time>2026-04-18T14:08:10Z</time></trkpt><trkpt lat="45.42764006393248" lon="11.120588360353219"><ele>74.0</ele><time>2026-04-18T14:08:13Z</time></trkpt><trkpt lat="45.4275728013371" lon="11.120627251663567"><ele>74.0</ele><time>2026-04-18T14:08:14Z</time></trkpt><trkpt lat="45.42750018577823" lon="11.12069630757131"><ele>74.0</ele><time>2026-04-18T14:08:15Z</time></trkpt><trkpt lat="45.42741171750744" lon="11.120796923533558"><ele>74.0</ele><time>2026-04-18T14:08:16Z</time></trkpt><trkpt lat="45.42731945636453" lon="11.12090527388021"><ele>74.0</ele><time>2026-04-18T14:08:17Z</time></trkpt><trkpt lat="45.42721786469038" lon="11.12100297060346"><ele>74.25</ele><time>2026-04-18T14:08:18Z</time></trkpt><trkpt lat="45.42709975107091" lon="11.121099790783619"><ele>74.5</ele><time>2026-04-18T14:08:19Z</time></trkpt><trkpt lat="45.426976568402715" lon="11.121219970629234"><ele>74.75</ele><time>2026-04-18T14:08:20Z</time></trkpt><trkpt lat="45.42686353197705" lon="11.121346225505294"><ele>75.0</ele><time>2026-04-18T14:08:21Z</time></trkpt><trkpt lat="45.42676286774562" lon="11.121483741040878"><ele>77.33333333333333</ele><time>2026-04-18T14:08:22Z</time></trkpt><trkpt lat="45.42667295539621" lon="11.12164330615869"><ele>79.66666666666666</ele><time>2026-04-18T14:08:23Z</time></trkpt><trkpt lat="45.42658637717637" lon="11.121831151320379"><ele>82.0</ele><time>2026-04-18T14:08:24Z</time></trkpt><trkpt lat="45.42650698255129" lon="11.122014352128698"><ele>82.0</ele><time>2026-04-18T14:08:25Z</time></trkpt><trkpt lat="45.4264365556584" lon="11.122148996737474"><ele>82.0</ele><time>2026-04-18T14:08:26Z</time></trkpt><trkpt lat="45.426383829197036" lon="11.122239831060964"><ele>82.0</ele><time>2026-04-18T14:08:27Z</time></trkpt><trkpt lat="45.42632007063935" lon="11.122350064921427"><ele>82.0</ele><time>2026-04-18T14:08:29Z</time></trkpt><trkpt lat="45.42639633756953" lon="11.122458659053352"><ele>82.0</ele><time>2026-04-18T14:08:32Z</time></trkpt><trkpt lat="45.42651426305878" lon="11.122412974469174"><ele>82.0</ele><time>2026-04-18T14:08:34Z</time></trkpt><trkpt lat="45.4266412546966" lon="11.122410840760153"><ele>82.0</ele><time>2026-04-18T14:08:36Z</time></trkpt><trkpt lat="45.42676411778078" lon="11.122403862205893"><ele>82.0</ele><time>2026-04-18T14:08:38Z</time></trkpt><trkpt lat="45.42682845955854" lon="11.122349270634917"><ele>82.0</ele><time>2026-04-18T14:08:39Z</time></trkpt><trkpt lat="45.42688134676968" lon="11.12218224208773"><ele>82.0</ele><time>2026-04-18T14:08:41Z</time></trkpt><trkpt lat="45.426899397671626" lon="11.122087434857823"><ele>82.0</ele><time>2026-04-18T14:08:42Z</time></trkpt><trkpt lat="45.42693338396858" lon="11.121998535870116"><ele>82.0</ele><time>2026-04-18T14:08:43Z</time></trkpt><trkpt lat="45.426992016455124" lon="11.121909756440257"><ele>82.0</ele><time>2026-04-18T14:08:44Z</time></trkpt><trkpt lat="45.42707017777669" lon="11.121826580686282"><ele>82.0</ele><time>2026-04-18T14:08:45Z</time></trkpt><trkpt lat="45.42713691314347" lon="11.121770712989798"><ele>82.0</ele><time>2026-04-18T14:08:46Z</time></trkpt><trkpt lat="45.4272162997059" lon="11.121728869118364"><ele>82.0</ele><time>2026-04-18T14:08:47Z</time></trkpt><trkpt lat="45.42730705038692" lon="11.121698269099376"><ele>82.0</ele><time>2026-04-18T14:08:48Z</time></trkpt><trkpt lat="45.42740822253693" lon="11.121665399551476"><ele>82.0</ele><time>2026-04-18T14:08:49Z</time></trkpt><trkpt lat="45.42751242005867" lon="11.121612794640024"><ele>82.0</ele><time>2026-04-18T14:08:50Z</time></trkpt><trkpt lat="45.427602602803596" lon="11.121563324610692"><ele>82.0</ele><time>2026-04-18T14:08:51Z</time></trkpt><trkpt lat="45.42766997649112" lon="11.121536596562423"><ele>82.0</ele><time>2026-04-18T14:08:52Z</time></trkpt><trkpt lat="45.427737793412355" lon="11.121529026274061"><ele>82.0</ele><time>2026-04-18T14:08:53Z</time></trkpt><trkpt lat="45.42785429917743" lon="11.121626740156247"><ele>82.0</ele><time>2026-04-18T14:08:55Z</time></trkpt><trkpt lat="45.427939266877594" lon="11.121680475350805"><ele>82.0</ele><time>2026-04-18T14:08:56Z</time></trkpt><trkpt lat="45.428032321024205" lon="11.12173211227332"><ele>82.0</ele><time>2026-04-18T14:08:57Z</time></trkpt><trkpt lat="45.42813631010682" lon="11.121786576695593"><ele>87.5</ele><time>2026-04-18T14:08:58Z</time></trkpt><trkpt lat="45.428244199706086" lon="11.121847248145079"><ele>93.0</ele><time>2026-04-18T14:08:59Z</time></trkpt><trkpt lat="45.42835694555821" lon="11.121914384026057"><ele>98.5</ele><time>2026-04-18T14:09:00Z</time></trkpt><trkpt lat="45.42847790562695" lon="11.121984985848409"><ele>104.0</ele><time>2026-04-18T14:09:01Z</time></trkpt><trkpt lat="45.42859653939473" lon="11.122051877719171"><ele>104.0</ele><time>2026-04-18T14:09:02Z</time></trkpt><trkpt lat="45.42868520673828" lon="11.12210275494605"><ele>104.0</ele><time>2026-04-18T14:09:03Z</time></trkpt><trkpt lat="45.42875851219385" lon="11.122141554253423"><ele>104.0</ele><time>2026-04-18T14:09:04Z</time></trkpt><trkpt lat="45.42882646376075" lon="11.122185200804738"><ele>104.0</ele><time>2026-04-18T14:09:05Z</time></trkpt><trkpt lat="45.4289496917683" lon="11.122243764312215"><ele>104.0</ele><time>2026-04-18T14:09:07Z</time></trkpt><trkpt lat="45.429040345982585" lon="11.122246276580226"><ele>107.0</ele><time>2026-04-18T14:09:08Z</time></trkpt><trkpt lat="45.42915660020181" lon="11.122233218360403"><ele>110.0</ele><time>2026-04-18T14:09:09Z</time></trkpt><trkpt lat="45.429286367816566" lon="11.122229864680925"><ele>113.0</ele><time>2026-04-18T14:09:10Z</time></trkpt><trkpt lat="45.42940470151372" lon="11.122223624054024"><ele>116.0</ele><time>2026-04-18T14:09:11Z</time></trkpt><trkpt lat="45.429498200729476" lon="11.12220819344081"><ele>115.99999999999999</ele><time>2026-04-18T14:09:12Z</time></trkpt><trkpt lat="45.429593415992045" lon="11.122219146116265"><ele>116.0</ele><time>2026-04-18T14:09:13Z</time></trkpt><trkpt lat="45.4296842888455" lon="11.122231564588215"><ele>116.0</ele><time>2026-04-18T14:09:14Z</time></trkpt><trkpt lat="45.42979020946345" lon="11.122228813245902"><ele>116.0</ele><time>2026-04-18T14:09:14.999Z</time></trkpt><trkpt lat="45.42986581070815" lon="11.122221121202784"><ele>115.99999999999999</ele><time>2026-04-18T14:09:15.999Z</time></trkpt><trkpt lat="45.429937576998576" lon="11.122210683630547"><ele>116.0</ele><time>2026-04-18T14:09:16.999Z</time></trkpt><trkpt lat="45.43003952534825" lon="11.122198608686153"><ele>117.4</ele><time>2026-04-18T14:09:17.999Z</time></trkpt><trkpt lat="45.430132472846275" lon="11.122188905589056"><ele>118.8</ele><time>2026-04-18T14:09:18.999Z</time></trkpt><trkpt lat="45.430226451864804" lon="11.122159656670386"><ele>120.20000000000002</ele><time>2026-04-18T14:09:19.999Z</time></trkpt><trkpt lat="45.43032750423411" lon="11.122152929113213"><ele>121.60000000000001</ele><time>2026-04-18T14:09:20.999Z</time></trkpt><trkpt lat="45.430432824333394" lon="11.122134468367296"><ele>123.0</ele><time>2026-04-18T14:09:21.999Z</time></trkpt><trkpt lat="45.43052488437949" lon="11.122119282299481"><ele>123.5</ele><time>2026-04-18T14:09:23Z</time></trkpt><trkpt lat="45.430609623887264" lon="11.12210831096027"><ele>124.0</ele><time>2026-04-18T14:09:24Z</time></trkpt><trkpt lat="45.4306875639283" lon="11.12209748033093"><ele>124.5</ele><time>2026-04-18T14:09:25Z</time></trkpt><trkpt lat="45.43075588096754" lon="11.122088205353734"><ele>125.0</ele><time>2026-04-18T14:09:26Z</time></trkpt><trkpt lat="45.430790183190915" lon="11.12217212897171"><ele>125.5</ele><time>2026-04-18T14:09:28Z</time></trkpt><trkpt lat="45.430721168701524" lon="11.122240249412576"><ele>126.0</ele><time>2026-04-18T14:09:30Z</time></trkpt><trkpt lat="45.43064428560596" lon="11.122236131286334"><ele>126.0</ele><time>2026-04-18T14:09:31Z</time></trkpt><trkpt lat="45.43058048932247" lon="11.122229315495836"><ele>126.0</ele><time>2026-04-18T14:09:32Z</time></trkpt><trkpt lat="45.430491002530694" lon="11.122228429289096"><ele>126.0</ele><time>2026-04-18T14:09:33Z</time></trkpt><trkpt lat="45.43039758703721" lon="11.122234494486444"><ele>126.0</ele><time>2026-04-18T14:09:34Z</time></trkpt><trkpt lat="45.430306981564264" lon="11.122247272741868"><ele>126.0</ele><time>2026-04-18T14:09:35Z</time></trkpt><trkpt lat="45.43021983624442" lon="11.122330167087762"><ele>126.0</ele><time>2026-04-18T14:09:37Z</time></trkpt><trkpt lat="45.43020148015389" lon="11.12244872123705"><ele>127.0</ele><time>2026-04-18T14:09:38Z</time></trkpt><trkpt lat="45.43017714831516" lon="11.122585588172923"><ele>128.0</ele><time>2026-04-18T14:09:39Z</time></trkpt><trkpt lat="45.43014477718889" lon="11.122735509583219"><ele>129.0</ele><time>2026-04-18T14:09:40Z</time></trkpt><trkpt lat="45.43011843570457" lon="11.12286089660938"><ele>130.0</ele><time>2026-04-18T14:09:41Z</time></trkpt><trkpt lat="45.43009144828737" lon="11.12297102695584"><ele>131.0</ele><time>2026-04-18T14:09:42Z</time></trkpt><trkpt lat="45.43006600082295" lon="11.123074843758959"><ele>131.0</ele><time>2026-04-18T14:09:43Z</time></trkpt><trkpt lat="45.43002142131415" lon="11.123212124814197"><ele>131.0</ele><time>2026-04-18T14:09:45Z</time></trkpt><trkpt lat="45.429928072165325" lon="11.123192728185932"><ele>131.0</ele><time>2026-04-18T14:09:47Z</time></trkpt><trkpt lat="45.42986264300585" lon="11.123178233771975"><ele>131.0</ele><time>2026-04-18T14:09:49Z</time></trkpt><trkpt lat="45.42979922739026" lon="11.123181256692758"><ele>131.0</ele><time>2026-04-18T14:09:52Z</time></trkpt><trkpt lat="45.42983877308529" lon="11.12311092434264"><ele>131.0</ele><time>2026-04-18T14:10:58.999Z</time></trkpt><trkpt lat="45.42988146862364" lon="11.123043118684082"><ele>131.0</ele><time>2026-04-18T14:11:07.999Z</time></trkpt><trkpt lat="45.429962440077" lon="11.123019257093066"><ele>131.0</ele><time>2026-04-18T14:11:31Z</time></trkpt></trkseg></trk></gpx>